<?xml version="1.0" encoding="UTF-8"?>
<gpx creator="Garmin Connect" version="1.1"
  xsi:schemaLocation="http://www.topografix.com/GPX/1/1 http://www.topografix.com/GPX/11.xsd"
  xmlns:ns3="http://www.garmin.com/xmlschemas/TrackPointExtension/v1"
  xmlns="http://www.topografix.com/GPX/1/1"
  xmlns:xsi="http://www.w3.org/2001/XMLSchema-instance" xmlns:ns2="http://www.garmin.com/xmlschemas/GpxExtensions/v3">
  <metadata>
    <link href="connect.garmin.com">
      <text>Garmin Connect</text>
    </link>
    <time>2021-06-28T15:32:40.000Z</time>
  </metadata>
  <trk>
    <name>Fresno County Hiking</name>
    <type>hiking</type>
    <trkseg>
      <trkpt lat="36.86974913813173770904541015625" lon="-118.516854979097843170166015625">
        <ele>2127.60009765625</ele>
        <time>2021-06-28T15:32:40.000Z</time>
        <extensions>
          <ns3:TrackPointExtension>
            <ns3:atemp>26.0</ns3:atemp>
            <ns3:hr>91</ns3:hr>
          </ns3:TrackPointExtension>
        </extensions>
      </trkpt>
      <trkpt lat="36.86974913813173770904541015625" lon="-118.516854979097843170166015625">
        <ele>2127.800048828125</ele>
        <time>2021-06-28T15:32:45.000Z</time>
        <extensions>
          <ns3:TrackPointExtension>
            <ns3:atemp>26.0</ns3:atemp>
            <ns3:hr>87</ns3:hr>
          </ns3:TrackPointExtension>
        </extensions>
      </trkpt>
      <trkpt lat="36.86974913813173770904541015625" lon="-118.516854979097843170166015625">
        <ele>2127.800048828125</ele>
        <time>2021-06-28T15:32:47.000Z</time>
        <extensions>
          <ns3:TrackPointExtension>
            <ns3:atemp>26.0</ns3:atemp>
            <ns3:hr>84</ns3:hr>
          </ns3:TrackPointExtension>
        </extensions>
      </trkpt>
      <trkpt lat="36.86973874457180500030517578125" lon="-118.51684114895761013031005859375">
        <ele>2127.800048828125</ele>
        <time>2021-06-28T15:32:49.000Z</time>
        <extensions>
          <ns3:TrackPointExtension>
            <ns3:atemp>26.0</ns3:atemp>
            <ns3:hr>81</ns3:hr>
          </ns3:TrackPointExtension>
        </extensions>
      </trkpt>
      <trkpt lat="36.86972089111804962158203125" lon="-118.5168165899813175201416015625">
        <ele>2128.199951171875</ele>
        <time>2021-06-28T15:32:51.000Z</time>
        <extensions>
          <ns3:TrackPointExtension>
            <ns3:atemp>26.0</ns3:atemp>
            <ns3:hr>80</ns3:hr>
          </ns3:TrackPointExtension>
        </extensions>
      </trkpt>
      <trkpt lat="36.86957043595612049102783203125" lon="-118.51687283255159854888916015625">
        <ele>2128</ele>
        <time>2021-06-28T15:32:58.000Z</time>
        <extensions>
          <ns3:TrackPointExtension>
            <ns3:atemp>26.0</ns3:atemp>
            <ns3:hr>81</ns3:hr>
          </ns3:TrackPointExtension>
        </extensions>
      </trkpt>
      <trkpt lat="36.869528777897357940673828125" lon="-118.51704575121402740478515625">
        <ele>2128</ele>
        <time>2021-06-28T15:33:08.000Z</time>
        <extensions>
          <ns3:TrackPointExtension>
            <ns3:atemp>26.0</ns3:atemp>
            <ns3:hr>82</ns3:hr>
          </ns3:TrackPointExtension>
        </extensions>
      </trkpt>
      <trkpt lat="36.8695168755948543548583984375" lon="-118.51721213199198246002197265625">
        <ele>2127.800048828125</ele>
        <time>2021-06-28T15:33:18.000Z</time>
        <extensions>
          <ns3:TrackPointExtension>
            <ns3:atemp>26.0</ns3:atemp>
            <ns3:hr>86</ns3:hr>
          </ns3:TrackPointExtension>
        </extensions>
      </trkpt>
      <trkpt lat="36.869516707956790924072265625" lon="-118.5172449052333831787109375">
        <ele>2127.800048828125</ele>
        <time>2021-06-28T15:33:20.000Z</time>
        <extensions>
          <ns3:TrackPointExtension>
            <ns3:atemp>26.0</ns3:atemp>
            <ns3:hr>83</ns3:hr>
          </ns3:TrackPointExtension>
        </extensions>
      </trkpt>
      <trkpt lat="36.8695245869457721710205078125" lon="-118.5172682069242000579833984375">
        <ele>2127.800048828125</ele>
        <time>2021-06-28T15:33:23.000Z</time>
        <extensions>
          <ns3:TrackPointExtension>
            <ns3:atemp>26.0</ns3:atemp>
            <ns3:hr>80</ns3:hr>
          </ns3:TrackPointExtension>
        </extensions>
      </trkpt>
      <trkpt lat="36.86952911317348480224609375" lon="-118.5172735713422298431396484375">
        <ele>2127.800048828125</ele>
        <time>2021-06-28T15:33:24.000Z</time>
        <extensions>
          <ns3:TrackPointExtension>
            <ns3:atemp>26.0</ns3:atemp>
            <ns3:hr>80</ns3:hr>
          </ns3:TrackPointExtension>
        </extensions>
      </trkpt>
      <trkpt lat="36.86953640542924404144287109375" lon="-118.51727583445608615875244140625">
        <ele>2127.800048828125</ele>
        <time>2021-06-28T15:33:25.000Z</time>
        <extensions>
          <ns3:TrackPointExtension>
            <ns3:atemp>26.0</ns3:atemp>
            <ns3:hr>79</ns3:hr>
          </ns3:TrackPointExtension>
        </extensions>
      </trkpt>
      <trkpt lat="36.86954076401889324188232421875" lon="-118.517383374273777008056640625">
        <ele>2127.800048828125</ele>
        <time>2021-06-28T15:33:34.000Z</time>
        <extensions>
          <ns3:TrackPointExtension>
            <ns3:atemp>26.0</ns3:atemp>
            <ns3:hr>78</ns3:hr>
          </ns3:TrackPointExtension>
        </extensions>
      </trkpt>
      <trkpt lat="36.8695564381778240203857421875" lon="-118.51744808256626129150390625">
        <ele>2127.60009765625</ele>
        <time>2021-06-28T15:33:42.000Z</time>
        <extensions>
          <ns3:TrackPointExtension>
            <ns3:atemp>26.0</ns3:atemp>
            <ns3:hr>79</ns3:hr>
          </ns3:TrackPointExtension>
        </extensions>
      </trkpt>
      <trkpt lat="36.86951410956680774688720703125" lon="-118.51751086302101612091064453125">
        <ele>2127.800048828125</ele>
        <time>2021-06-28T15:33:49.000Z</time>
        <extensions>
          <ns3:TrackPointExtension>
            <ns3:atemp>26.0</ns3:atemp>
            <ns3:hr>78</ns3:hr>
          </ns3:TrackPointExtension>
        </extensions>
      </trkpt>
      <trkpt lat="36.86950371600687503814697265625" lon="-118.5175189934670925140380859375">
        <ele>2127.60009765625</ele>
        <time>2021-06-28T15:33:50.000Z</time>
        <extensions>
          <ns3:TrackPointExtension>
            <ns3:atemp>26.0</ns3:atemp>
            <ns3:hr>78</ns3:hr>
          </ns3:TrackPointExtension>
        </extensions>
      </trkpt>
      <trkpt lat="36.86950807459652423858642578125" lon="-118.51749476976692676544189453125">
        <ele>2127.60009765625</ele>
        <time>2021-06-28T15:33:54.000Z</time>
        <extensions>
          <ns3:TrackPointExtension>
            <ns3:atemp>26.0</ns3:atemp>
            <ns3:hr>79</ns3:hr>
          </ns3:TrackPointExtension>
        </extensions>
      </trkpt>
      <trkpt lat="36.8695125170052051544189453125" lon="-118.51748563349246978759765625">
        <ele>2127.60009765625</ele>
        <time>2021-06-28T15:33:58.000Z</time>
        <extensions>
          <ns3:TrackPointExtension>
            <ns3:atemp>26.0</ns3:atemp>
            <ns3:hr>78</ns3:hr>
          </ns3:TrackPointExtension>
        </extensions>
      </trkpt>
      <trkpt lat="36.8695125170052051544189453125" lon="-118.51748563349246978759765625">
        <ele>2127.39990234375</ele>
        <time>2021-06-28T15:34:07.000Z</time>
        <extensions>
          <ns3:TrackPointExtension>
            <ns3:atemp>26.0</ns3:atemp>
            <ns3:hr>75</ns3:hr>
          </ns3:TrackPointExtension>
        </extensions>
      </trkpt>
      <trkpt lat="36.8695125170052051544189453125" lon="-118.51748563349246978759765625">
        <ele>2127.39990234375</ele>
        <time>2021-06-28T15:34:09.000Z</time>
        <extensions>
          <ns3:TrackPointExtension>
            <ns3:atemp>26.0</ns3:atemp>
            <ns3:hr>72</ns3:hr>
          </ns3:TrackPointExtension>
        </extensions>
      </trkpt>
      <trkpt lat="36.8695125170052051544189453125" lon="-118.51748563349246978759765625">
        <ele>2127.199951171875</ele>
        <time>2021-06-28T15:34:12.000Z</time>
        <extensions>
          <ns3:TrackPointExtension>
            <ns3:atemp>26.0</ns3:atemp>
            <ns3:hr>69</ns3:hr>
          </ns3:TrackPointExtension>
        </extensions>
      </trkpt>
      <trkpt lat="36.8695235811173915863037109375" lon="-118.51749476976692676544189453125">
        <ele>2127.60009765625</ele>
        <time>2021-06-28T15:34:23.000Z</time>
        <extensions>
          <ns3:TrackPointExtension>
            <ns3:atemp>26.0</ns3:atemp>
            <ns3:hr>72</ns3:hr>
          </ns3:TrackPointExtension>
        </extensions>
      </trkpt>
      <trkpt lat="36.86952400021255016326904296875" lon="-118.517504073679447174072265625">
        <ele>2127.60009765625</ele>
        <time>2021-06-28T15:34:29.000Z</time>
        <extensions>
          <ns3:TrackPointExtension>
            <ns3:atemp>26.0</ns3:atemp>
            <ns3:hr>75</ns3:hr>
          </ns3:TrackPointExtension>
        </extensions>
      </trkpt>
      <trkpt lat="36.8695125170052051544189453125" lon="-118.51760004647076129913330078125">
        <ele>2127.800048828125</ele>
        <time>2021-06-28T15:34:35.000Z</time>
        <extensions>
          <ns3:TrackPointExtension>
            <ns3:atemp>26.0</ns3:atemp>
            <ns3:hr>76</ns3:hr>
          </ns3:TrackPointExtension>
        </extensions>
      </trkpt>
      <trkpt lat="36.86948351562023162841796875" lon="-118.5177147947251796722412109375">
        <ele>2127.199951171875</ele>
        <time>2021-06-28T15:34:41.000Z</time>
        <extensions>
          <ns3:TrackPointExtension>
            <ns3:atemp>26.0</ns3:atemp>
            <ns3:hr>77</ns3:hr>
          </ns3:TrackPointExtension>
        </extensions>
      </trkpt>
      <trkpt lat="36.869465075433254241943359375" lon="-118.5178344883024692535400390625">
        <ele>2126.800048828125</ele>
        <time>2021-06-28T15:34:50.000Z</time>
        <extensions>
          <ns3:TrackPointExtension>
            <ns3:atemp>26.0</ns3:atemp>
            <ns3:hr>77</ns3:hr>
          </ns3:TrackPointExtension>
        </extensions>
      </trkpt>
      <trkpt lat="36.86946851201355457305908203125" lon="-118.5178509168326854705810546875">
        <ele>2127</ele>
        <time>2021-06-28T15:34:55.000Z</time>
        <extensions>
          <ns3:TrackPointExtension>
            <ns3:atemp>26.0</ns3:atemp>
            <ns3:hr>76</ns3:hr>
          </ns3:TrackPointExtension>
        </extensions>
      </trkpt>
      <trkpt lat="36.86945660971105098724365234375" lon="-118.5178522579371929168701171875">
        <ele>2126.800048828125</ele>
        <time>2021-06-28T15:34:56.000Z</time>
        <extensions>
          <ns3:TrackPointExtension>
            <ns3:atemp>26.0</ns3:atemp>
            <ns3:hr>76</ns3:hr>
          </ns3:TrackPointExtension>
        </extensions>
      </trkpt>
      <trkpt lat="36.86940430663526058197021484375" lon="-118.51788318715989589691162109375">
        <ele>2126.60009765625</ele>
        <time>2021-06-28T15:35:01.000Z</time>
        <extensions>
          <ns3:TrackPointExtension>
            <ns3:atemp>26.0</ns3:atemp>
            <ns3:hr>76</ns3:hr>
          </ns3:TrackPointExtension>
        </extensions>
      </trkpt>
      <trkpt lat="36.8693809211254119873046875" lon="-118.51792040280997753143310546875">
        <ele>2126.800048828125</ele>
        <time>2021-06-28T15:35:04.000Z</time>
        <extensions>
          <ns3:TrackPointExtension>
            <ns3:atemp>26.0</ns3:atemp>
            <ns3:hr>77</ns3:hr>
          </ns3:TrackPointExtension>
        </extensions>
      </trkpt>
      <trkpt lat="36.86936440877616405487060546875" lon="-118.5179878771305084228515625">
        <ele>2126.60009765625</ele>
        <time>2021-06-28T15:35:08.000Z</time>
        <extensions>
          <ns3:TrackPointExtension>
            <ns3:atemp>26.0</ns3:atemp>
            <ns3:hr>78</ns3:hr>
          </ns3:TrackPointExtension>
        </extensions>
      </trkpt>
      <trkpt lat="36.869353763759136199951171875" lon="-118.518017716705799102783203125">
        <ele>2126.60009765625</ele>
        <time>2021-06-28T15:35:11.000Z</time>
        <extensions>
          <ns3:TrackPointExtension>
            <ns3:atemp>26.0</ns3:atemp>
            <ns3:hr>77</ns3:hr>
          </ns3:TrackPointExtension>
        </extensions>
      </trkpt>
      <trkpt lat="36.86933674849569797515869140625" lon="-118.51809005253016948699951171875">
        <ele>2126.60009765625</ele>
        <time>2021-06-28T15:35:15.000Z</time>
        <extensions>
          <ns3:TrackPointExtension>
            <ns3:atemp>26.0</ns3:atemp>
            <ns3:hr>76</ns3:hr>
          </ns3:TrackPointExtension>
        </extensions>
      </trkpt>
      <trkpt lat="36.86927723698318004608154296875" lon="-118.5181493125855922698974609375">
        <ele>2126.60009765625</ele>
        <time>2021-06-28T15:35:20.000Z</time>
        <extensions>
          <ns3:TrackPointExtension>
            <ns3:atemp>26.0</ns3:atemp>
            <ns3:hr>78</ns3:hr>
          </ns3:TrackPointExtension>
        </extensions>
      </trkpt>
      <trkpt lat="36.86926751397550106048583984375" lon="-118.5181905515491962432861328125">
        <ele>2126.199951171875</ele>
        <time>2021-06-28T15:35:23.000Z</time>
        <extensions>
          <ns3:TrackPointExtension>
            <ns3:atemp>26.0</ns3:atemp>
            <ns3:hr>79</ns3:hr>
          </ns3:TrackPointExtension>
        </extensions>
      </trkpt>
      <trkpt lat="36.86926751397550106048583984375" lon="-118.5181905515491962432861328125">
        <ele>2126</ele>
        <time>2021-06-28T15:35:24.000Z</time>
        <extensions>
          <ns3:TrackPointExtension>
            <ns3:atemp>26.0</ns3:atemp>
            <ns3:hr>78</ns3:hr>
          </ns3:TrackPointExtension>
        </extensions>
      </trkpt>
      <trkpt lat="36.86921269632875919342041015625" lon="-118.51829172112047672271728515625">
        <ele>2126.39990234375</ele>
        <time>2021-06-28T15:35:31.000Z</time>
        <extensions>
          <ns3:TrackPointExtension>
            <ns3:atemp>26.0</ns3:atemp>
            <ns3:hr>78</ns3:hr>
          </ns3:TrackPointExtension>
        </extensions>
      </trkpt>
      <trkpt lat="36.86913910321891307830810546875" lon="-118.51839766837656497955322265625">
        <ele>2126</ele>
        <time>2021-06-28T15:35:39.000Z</time>
        <extensions>
          <ns3:TrackPointExtension>
            <ns3:atemp>26.0</ns3:atemp>
            <ns3:hr>78</ns3:hr>
          </ns3:TrackPointExtension>
        </extensions>
      </trkpt>
      <trkpt lat="36.8691194057464599609375" lon="-118.5184104926884174346923828125">
        <ele>2126.199951171875</ele>
        <time>2021-06-28T15:35:41.000Z</time>
        <extensions>
          <ns3:TrackPointExtension>
            <ns3:atemp>26.0</ns3:atemp>
            <ns3:hr>78</ns3:hr>
          </ns3:TrackPointExtension>
        </extensions>
      </trkpt>
      <trkpt lat="36.8691071681678295135498046875" lon="-118.5184145160019397735595703125">
        <ele>2126.199951171875</ele>
        <time>2021-06-28T15:35:43.000Z</time>
        <extensions>
          <ns3:TrackPointExtension>
            <ns3:atemp>26.0</ns3:atemp>
            <ns3:hr>80</ns3:hr>
          </ns3:TrackPointExtension>
        </extensions>
      </trkpt>
      <trkpt lat="36.869105659425258636474609375" lon="-118.51842113770544528961181640625">
        <ele>2126</ele>
        <time>2021-06-28T15:35:44.000Z</time>
        <extensions>
          <ns3:TrackPointExtension>
            <ns3:atemp>26.0</ns3:atemp>
            <ns3:hr>77</ns3:hr>
          </ns3:TrackPointExtension>
        </extensions>
      </trkpt>
      <trkpt lat="36.86908629722893238067626953125" lon="-118.51845525205135345458984375">
        <ele>2126</ele>
        <time>2021-06-28T15:35:47.000Z</time>
        <extensions>
          <ns3:TrackPointExtension>
            <ns3:atemp>26.0</ns3:atemp>
            <ns3:hr>78</ns3:hr>
          </ns3:TrackPointExtension>
        </extensions>
      </trkpt>
      <trkpt lat="36.86907405965030193328857421875" lon="-118.518501184880733489990234375">
        <ele>2126</ele>
        <time>2021-06-28T15:35:50.000Z</time>
        <extensions>
          <ns3:TrackPointExtension>
            <ns3:atemp>26.0</ns3:atemp>
            <ns3:hr>80</ns3:hr>
          </ns3:TrackPointExtension>
        </extensions>
      </trkpt>
      <trkpt lat="36.86902510933578014373779296875" lon="-118.5186783783137798309326171875">
        <ele>2126</ele>
        <time>2021-06-28T15:36:00.000Z</time>
        <extensions>
          <ns3:TrackPointExtension>
            <ns3:atemp>26.0</ns3:atemp>
            <ns3:hr>80</ns3:hr>
          </ns3:TrackPointExtension>
        </extensions>
      </trkpt>
      <trkpt lat="36.868993006646633148193359375" lon="-118.5187940485775470733642578125">
        <ele>2125.800048828125</ele>
        <time>2021-06-28T15:36:05.000Z</time>
        <extensions>
          <ns3:TrackPointExtension>
            <ns3:atemp>26.0</ns3:atemp>
            <ns3:hr>79</ns3:hr>
          </ns3:TrackPointExtension>
        </extensions>
      </trkpt>
      <trkpt lat="36.8689854629337787628173828125" lon="-118.51883369497954845428466796875">
        <ele>2125.39990234375</ele>
        <time>2021-06-28T15:36:07.000Z</time>
        <extensions>
          <ns3:TrackPointExtension>
            <ns3:atemp>26.0</ns3:atemp>
            <ns3:hr>80</ns3:hr>
          </ns3:TrackPointExtension>
        </extensions>
      </trkpt>
      <trkpt lat="36.86897230334579944610595703125" lon="-118.5188708268105983734130859375">
        <ele>2125.60009765625</ele>
        <time>2021-06-28T15:36:09.000Z</time>
        <extensions>
          <ns3:TrackPointExtension>
            <ns3:atemp>26.0</ns3:atemp>
            <ns3:hr>80</ns3:hr>
          </ns3:TrackPointExtension>
        </extensions>
      </trkpt>
      <trkpt lat="36.86895168386399745941162109375" lon="-118.51888708770275115966796875">
        <ele>2125.800048828125</ele>
        <time>2021-06-28T15:36:11.000Z</time>
        <extensions>
          <ns3:TrackPointExtension>
            <ns3:atemp>26.0</ns3:atemp>
            <ns3:hr>85</ns3:hr>
          </ns3:TrackPointExtension>
        </extensions>
      </trkpt>
      <trkpt lat="36.86894849874079227447509765625" lon="-118.51889639161527156829833984375">
        <ele>2125.800048828125</ele>
        <time>2021-06-28T15:36:12.000Z</time>
        <extensions>
          <ns3:TrackPointExtension>
            <ns3:atemp>26.0</ns3:atemp>
            <ns3:hr>85</ns3:hr>
          </ns3:TrackPointExtension>
        </extensions>
      </trkpt>
      <trkpt lat="36.8689381889998912811279296875" lon="-118.5189070366322994232177734375">
        <ele>2125.800048828125</ele>
        <time>2021-06-28T15:36:13.000Z</time>
        <extensions>
          <ns3:TrackPointExtension>
            <ns3:atemp>26.0</ns3:atemp>
            <ns3:hr>80</ns3:hr>
          </ns3:TrackPointExtension>
        </extensions>
      </trkpt>
      <trkpt lat="36.86890960671007633209228515625" lon="-118.5189472697675228118896484375">
        <ele>2125.199951171875</ele>
        <time>2021-06-28T15:36:16.000Z</time>
        <extensions>
          <ns3:TrackPointExtension>
            <ns3:atemp>26.0</ns3:atemp>
            <ns3:hr>79</ns3:hr>
          </ns3:TrackPointExtension>
        </extensions>
      </trkpt>
      <trkpt lat="36.86890809796750545501708984375" lon="-118.51899412460625171661376953125">
        <ele>2125.199951171875</ele>
        <time>2021-06-28T15:36:18.000Z</time>
        <extensions>
          <ns3:TrackPointExtension>
            <ns3:atemp>26.0</ns3:atemp>
            <ns3:hr>81</ns3:hr>
          </ns3:TrackPointExtension>
        </extensions>
      </trkpt>
      <trkpt lat="36.8688889034092426300048828125" lon="-118.51903385482728481292724609375">
        <ele>2125.39990234375</ele>
        <time>2021-06-28T15:36:20.000Z</time>
        <extensions>
          <ns3:TrackPointExtension>
            <ns3:atemp>26.0</ns3:atemp>
            <ns3:hr>81</ns3:hr>
          </ns3:TrackPointExtension>
        </extensions>
      </trkpt>
      <trkpt lat="36.8688718043267726898193359375" lon="-118.51905715651810169219970703125">
        <ele>2125.60009765625</ele>
        <time>2021-06-28T15:36:22.000Z</time>
        <extensions>
          <ns3:TrackPointExtension>
            <ns3:atemp>26.0</ns3:atemp>
            <ns3:hr>82</ns3:hr>
          </ns3:TrackPointExtension>
        </extensions>
      </trkpt>
      <trkpt lat="36.86886602081358432769775390625" lon="-118.51906905882060527801513671875">
        <ele>2125.60009765625</ele>
        <time>2021-06-28T15:36:23.000Z</time>
        <extensions>
          <ns3:TrackPointExtension>
            <ns3:atemp>26.0</ns3:atemp>
            <ns3:hr>83</ns3:hr>
          </ns3:TrackPointExtension>
        </extensions>
      </trkpt>
      <trkpt lat="36.8688627518713474273681640625" lon="-118.51908364333212375640869140625">
        <ele>2125.60009765625</ele>
        <time>2021-06-28T15:36:24.000Z</time>
        <extensions>
          <ns3:TrackPointExtension>
            <ns3:atemp>26.0</ns3:atemp>
            <ns3:hr>79</ns3:hr>
          </ns3:TrackPointExtension>
        </extensions>
      </trkpt>
      <trkpt lat="36.868856213986873626708984375" lon="-118.519101999700069427490234375">
        <ele>2125.60009765625</ele>
        <time>2021-06-28T15:36:25.000Z</time>
        <extensions>
          <ns3:TrackPointExtension>
            <ns3:atemp>26.0</ns3:atemp>
            <ns3:hr>79</ns3:hr>
          </ns3:TrackPointExtension>
        </extensions>
      </trkpt>
      <trkpt lat="36.8688506819307804107666015625" lon="-118.519132174551486968994140625">
        <ele>2125.60009765625</ele>
        <time>2021-06-28T15:36:27.000Z</time>
        <extensions>
          <ns3:TrackPointExtension>
            <ns3:atemp>26.0</ns3:atemp>
            <ns3:hr>78</ns3:hr>
          </ns3:TrackPointExtension>
        </extensions>
      </trkpt>
      <trkpt lat="36.8688463233411312103271484375" lon="-118.5191380418837070465087890625">
        <ele>2125.60009765625</ele>
        <time>2021-06-28T15:36:28.000Z</time>
        <extensions>
          <ns3:TrackPointExtension>
            <ns3:atemp>26.0</ns3:atemp>
            <ns3:hr>78</ns3:hr>
          </ns3:TrackPointExtension>
        </extensions>
      </trkpt>
      <trkpt lat="36.86881371773779392242431640625" lon="-118.51919956505298614501953125">
        <ele>2126.39990234375</ele>
        <time>2021-06-28T15:36:35.000Z</time>
        <extensions>
          <ns3:TrackPointExtension>
            <ns3:atemp>26.0</ns3:atemp>
            <ns3:hr>78</ns3:hr>
          </ns3:TrackPointExtension>
        </extensions>
      </trkpt>
      <trkpt lat="36.8687792681157588958740234375" lon="-118.51925589144229888916015625">
        <ele>2126.39990234375</ele>
        <time>2021-06-28T15:36:42.000Z</time>
        <extensions>
          <ns3:TrackPointExtension>
            <ns3:atemp>26.0</ns3:atemp>
            <ns3:hr>81</ns3:hr>
          </ns3:TrackPointExtension>
        </extensions>
      </trkpt>
      <trkpt lat="36.86877214349806308746337890625" lon="-118.519267626106739044189453125">
        <ele>2126.39990234375</ele>
        <time>2021-06-28T15:36:45.000Z</time>
        <extensions>
          <ns3:TrackPointExtension>
            <ns3:atemp>26.0</ns3:atemp>
            <ns3:hr>81</ns3:hr>
          </ns3:TrackPointExtension>
        </extensions>
      </trkpt>
      <trkpt lat="36.86874683015048503875732421875" lon="-118.519289083778858184814453125">
        <ele>2126.39990234375</ele>
        <time>2021-06-28T15:36:47.000Z</time>
        <extensions>
          <ns3:TrackPointExtension>
            <ns3:atemp>26.0</ns3:atemp>
            <ns3:hr>80</ns3:hr>
          </ns3:TrackPointExtension>
        </extensions>
      </trkpt>
      <trkpt lat="36.86873543076217174530029296875" lon="-118.51930190809071063995361328125">
        <ele>2126.39990234375</ele>
        <time>2021-06-28T15:36:48.000Z</time>
        <extensions>
          <ns3:TrackPointExtension>
            <ns3:atemp>26.0</ns3:atemp>
            <ns3:hr>79</ns3:hr>
          </ns3:TrackPointExtension>
        </extensions>
      </trkpt>
      <trkpt lat="36.86866066418588161468505859375" lon="-118.5193569771945476531982421875">
        <ele>2126.199951171875</ele>
        <time>2021-06-28T15:36:54.000Z</time>
        <extensions>
          <ns3:TrackPointExtension>
            <ns3:atemp>26.0</ns3:atemp>
            <ns3:hr>79</ns3:hr>
          </ns3:TrackPointExtension>
        </extensions>
      </trkpt>
      <trkpt lat="36.86861489899456501007080078125" lon="-118.5193683765828609466552734375">
        <ele>2126</ele>
        <time>2021-06-28T15:36:58.000Z</time>
        <extensions>
          <ns3:TrackPointExtension>
            <ns3:atemp>26.0</ns3:atemp>
            <ns3:hr>82</ns3:hr>
          </ns3:TrackPointExtension>
        </extensions>
      </trkpt>
      <trkpt lat="36.868601404130458831787109375" lon="-118.519364856183528900146484375">
        <ele>2126</ele>
        <time>2021-06-28T15:37:00.000Z</time>
        <extensions>
          <ns3:TrackPointExtension>
            <ns3:atemp>26.0</ns3:atemp>
            <ns3:hr>83</ns3:hr>
          </ns3:TrackPointExtension>
        </extensions>
      </trkpt>
      <trkpt lat="36.868596374988555908203125" lon="-118.519360832870006561279296875">
        <ele>2126.39990234375</ele>
        <time>2021-06-28T15:37:01.000Z</time>
        <extensions>
          <ns3:TrackPointExtension>
            <ns3:atemp>26.0</ns3:atemp>
            <ns3:hr>84</ns3:hr>
          </ns3:TrackPointExtension>
        </extensions>
      </trkpt>
      <trkpt lat="36.86851833947002887725830078125" lon="-118.5193370282649993896484375">
        <ele>2126.199951171875</ele>
        <time>2021-06-28T15:37:10.000Z</time>
        <extensions>
          <ns3:TrackPointExtension>
            <ns3:atemp>26.0</ns3:atemp>
            <ns3:hr>84</ns3:hr>
          </ns3:TrackPointExtension>
        </extensions>
      </trkpt>
      <trkpt lat="36.8685157410800457000732421875" lon="-118.519329987466335296630859375">
        <ele>2126.199951171875</ele>
        <time>2021-06-28T15:37:11.000Z</time>
        <extensions>
          <ns3:TrackPointExtension>
            <ns3:atemp>26.0</ns3:atemp>
            <ns3:hr>84</ns3:hr>
          </ns3:TrackPointExtension>
        </extensions>
      </trkpt>
      <trkpt lat="36.8684580735862255096435546875" lon="-118.51930073462426662445068359375">
        <ele>2126</ele>
        <time>2021-06-28T15:37:16.000Z</time>
        <extensions>
          <ns3:TrackPointExtension>
            <ns3:atemp>26.0</ns3:atemp>
            <ns3:hr>83</ns3:hr>
          </ns3:TrackPointExtension>
        </extensions>
      </trkpt>
      <trkpt lat="36.8684389628469944000244140625" lon="-118.51930257864296436309814453125">
        <ele>2126</ele>
        <time>2021-06-28T15:37:17.000Z</time>
        <extensions>
          <ns3:TrackPointExtension>
            <ns3:atemp>26.0</ns3:atemp>
            <ns3:hr>83</ns3:hr>
          </ns3:TrackPointExtension>
        </extensions>
      </trkpt>
      <trkpt lat="36.86838171444833278656005859375" lon="-118.5193113796412944793701171875">
        <ele>2125.39990234375</ele>
        <time>2021-06-28T15:37:22.000Z</time>
        <extensions>
          <ns3:TrackPointExtension>
            <ns3:atemp>26.0</ns3:atemp>
            <ns3:hr>82</ns3:hr>
          </ns3:TrackPointExtension>
        </extensions>
      </trkpt>
      <trkpt lat="36.86837584711611270904541015625" lon="-118.51930559612810611724853515625">
        <ele>2125.199951171875</ele>
        <time>2021-06-28T15:37:23.000Z</time>
        <extensions>
          <ns3:TrackPointExtension>
            <ns3:atemp>26.0</ns3:atemp>
            <ns3:hr>82</ns3:hr>
          </ns3:TrackPointExtension>
        </extensions>
      </trkpt>
      <trkpt lat="36.868343241512775421142578125" lon="-118.5192954540252685546875">
        <ele>2126.199951171875</ele>
        <time>2021-06-28T15:37:27.000Z</time>
        <extensions>
          <ns3:TrackPointExtension>
            <ns3:atemp>26.0</ns3:atemp>
            <ns3:hr>83</ns3:hr>
          </ns3:TrackPointExtension>
        </extensions>
      </trkpt>
      <trkpt lat="36.8683367036283016204833984375" lon="-118.5192996449768543243408203125">
        <ele>2126.199951171875</ele>
        <time>2021-06-28T15:37:28.000Z</time>
        <extensions>
          <ns3:TrackPointExtension>
            <ns3:atemp>26.0</ns3:atemp>
            <ns3:hr>83</ns3:hr>
          </ns3:TrackPointExtension>
        </extensions>
      </trkpt>
      <trkpt lat="36.86832907609641551971435546875" lon="-118.51929612457752227783203125">
        <ele>2126.199951171875</ele>
        <time>2021-06-28T15:37:29.000Z</time>
        <extensions>
          <ns3:TrackPointExtension>
            <ns3:atemp>26.0</ns3:atemp>
            <ns3:hr>83</ns3:hr>
          </ns3:TrackPointExtension>
        </extensions>
      </trkpt>
      <trkpt lat="36.86830812133848667144775390625" lon="-118.519274331629276275634765625">
        <ele>2126</ele>
        <time>2021-06-28T15:37:33.000Z</time>
        <extensions>
          <ns3:TrackPointExtension>
            <ns3:atemp>26.0</ns3:atemp>
            <ns3:hr>85</ns3:hr>
          </ns3:TrackPointExtension>
        </extensions>
      </trkpt>
      <trkpt lat="36.8682901002466678619384765625" lon="-118.51927055977284908294677734375">
        <ele>2126.199951171875</ele>
        <time>2021-06-28T15:37:34.000Z</time>
        <extensions>
          <ns3:TrackPointExtension>
            <ns3:atemp>26.0</ns3:atemp>
            <ns3:hr>85</ns3:hr>
          </ns3:TrackPointExtension>
        </extensions>
      </trkpt>
      <trkpt lat="36.86819463036954402923583984375" lon="-118.51928313262760639190673828125">
        <ele>2126.199951171875</ele>
        <time>2021-06-28T15:37:38.000Z</time>
        <extensions>
          <ns3:TrackPointExtension>
            <ns3:atemp>26.0</ns3:atemp>
            <ns3:hr>88</ns3:hr>
          </ns3:TrackPointExtension>
        </extensions>
      </trkpt>
      <trkpt lat="36.86817669309675693511962890625" lon="-118.5192914307117462158203125">
        <ele>2126.199951171875</ele>
        <time>2021-06-28T15:37:39.000Z</time>
        <extensions>
          <ns3:TrackPointExtension>
            <ns3:atemp>26.0</ns3:atemp>
            <ns3:hr>89</ns3:hr>
          </ns3:TrackPointExtension>
        </extensions>
      </trkpt>
      <trkpt lat="36.86814333312213420867919921875" lon="-118.51929302327334880828857421875">
        <ele>2126.199951171875</ele>
        <time>2021-06-28T15:37:41.000Z</time>
        <extensions>
          <ns3:TrackPointExtension>
            <ns3:atemp>26.0</ns3:atemp>
            <ns3:hr>89</ns3:hr>
          </ns3:TrackPointExtension>
        </extensions>
      </trkpt>
      <trkpt lat="36.86808616854250431060791015625" lon="-118.51930953562259674072265625">
        <ele>2126.199951171875</ele>
        <time>2021-06-28T15:37:45.000Z</time>
        <extensions>
          <ns3:TrackPointExtension>
            <ns3:atemp>26.0</ns3:atemp>
            <ns3:hr>89</ns3:hr>
          </ns3:TrackPointExtension>
        </extensions>
      </trkpt>
      <trkpt lat="36.8680679798126220703125" lon="-118.5193236172199249267578125">
        <ele>2126.800048828125</ele>
        <time>2021-06-28T15:37:47.000Z</time>
        <extensions>
          <ns3:TrackPointExtension>
            <ns3:atemp>26.0</ns3:atemp>
            <ns3:hr>89</ns3:hr>
          </ns3:TrackPointExtension>
        </extensions>
      </trkpt>
      <trkpt lat="36.8680559098720550537109375" lon="-118.5193325020372867584228515625">
        <ele>2127</ele>
        <time>2021-06-28T15:37:49.000Z</time>
        <extensions>
          <ns3:TrackPointExtension>
            <ns3:atemp>26.0</ns3:atemp>
            <ns3:hr>91</ns3:hr>
          </ns3:TrackPointExtension>
        </extensions>
      </trkpt>
      <trkpt lat="36.86803051270544528961181640625" lon="-118.51935370825231075286865234375">
        <ele>2127.39990234375</ele>
        <time>2021-06-28T15:37:52.000Z</time>
        <extensions>
          <ns3:TrackPointExtension>
            <ns3:atemp>26.0</ns3:atemp>
            <ns3:hr>93</ns3:hr>
          </ns3:TrackPointExtension>
        </extensions>
      </trkpt>
      <trkpt lat="36.86802439391613006591796875" lon="-118.5193573124706745147705078125">
        <ele>2127.39990234375</ele>
        <time>2021-06-28T15:37:53.000Z</time>
        <extensions>
          <ns3:TrackPointExtension>
            <ns3:atemp>26.0</ns3:atemp>
            <ns3:hr>94</ns3:hr>
          </ns3:TrackPointExtension>
        </extensions>
      </trkpt>
      <trkpt lat="36.86799312941730022430419921875" lon="-118.51936594583094120025634765625">
        <ele>2127.199951171875</ele>
        <time>2021-06-28T15:37:56.000Z</time>
        <extensions>
          <ns3:TrackPointExtension>
            <ns3:atemp>26.0</ns3:atemp>
            <ns3:hr>97</ns3:hr>
          </ns3:TrackPointExtension>
        </extensions>
      </trkpt>
      <trkpt lat="36.867957673966884613037109375" lon="-118.51938664913177490234375">
        <ele>2126.800048828125</ele>
        <time>2021-06-28T15:38:00.000Z</time>
        <extensions>
          <ns3:TrackPointExtension>
            <ns3:atemp>26.0</ns3:atemp>
            <ns3:hr>97</ns3:hr>
          </ns3:TrackPointExtension>
        </extensions>
      </trkpt>
      <trkpt lat="36.86794199980795383453369140625" lon="-118.51940282620489597320556640625">
        <ele>2126.39990234375</ele>
        <time>2021-06-28T15:38:01.000Z</time>
        <extensions>
          <ns3:TrackPointExtension>
            <ns3:atemp>26.0</ns3:atemp>
            <ns3:hr>96</ns3:hr>
          </ns3:TrackPointExtension>
        </extensions>
      </trkpt>
      <trkpt lat="36.86790168285369873046875" lon="-118.5194371081888675689697265625">
        <ele>2126.39990234375</ele>
        <time>2021-06-28T15:38:04.000Z</time>
        <extensions>
          <ns3:TrackPointExtension>
            <ns3:atemp>26.0</ns3:atemp>
            <ns3:hr>98</ns3:hr>
          </ns3:TrackPointExtension>
        </extensions>
      </trkpt>
      <trkpt lat="36.86787553131580352783203125" lon="-118.519448339939117431640625">
        <ele>2126.39990234375</ele>
        <time>2021-06-28T15:38:06.000Z</time>
        <extensions>
          <ns3:TrackPointExtension>
            <ns3:atemp>26.0</ns3:atemp>
            <ns3:hr>96</ns3:hr>
          </ns3:TrackPointExtension>
        </extensions>
      </trkpt>
      <trkpt lat="36.86780520714819431304931640625" lon="-118.51949167437851428985595703125">
        <ele>2126</ele>
        <time>2021-06-28T15:38:12.000Z</time>
        <extensions>
          <ns3:TrackPointExtension>
            <ns3:atemp>26.0</ns3:atemp>
            <ns3:hr>94</ns3:hr>
          </ns3:TrackPointExtension>
        </extensions>
      </trkpt>
      <trkpt lat="36.86775659210979938507080078125" lon="-118.51951899938285350799560546875">
        <ele>2125.60009765625</ele>
        <time>2021-06-28T15:38:16.000Z</time>
        <extensions>
          <ns3:TrackPointExtension>
            <ns3:atemp>26.0</ns3:atemp>
            <ns3:hr>94</ns3:hr>
          </ns3:TrackPointExtension>
        </extensions>
      </trkpt>
      <trkpt lat="36.86770831234753131866455078125" lon="-118.5195809416472911834716796875">
        <ele>2125.39990234375</ele>
        <time>2021-06-28T15:38:20.000Z</time>
        <extensions>
          <ns3:TrackPointExtension>
            <ns3:atemp>26.0</ns3:atemp>
            <ns3:hr>95</ns3:hr>
          </ns3:TrackPointExtension>
        </extensions>
      </trkpt>
      <trkpt lat="36.86769314110279083251953125" lon="-118.51959292776882648468017578125">
        <ele>2126.39990234375</ele>
        <time>2021-06-28T15:38:22.000Z</time>
        <extensions>
          <ns3:TrackPointExtension>
            <ns3:atemp>26.0</ns3:atemp>
            <ns3:hr>94</ns3:hr>
          </ns3:TrackPointExtension>
        </extensions>
      </trkpt>
      <trkpt lat="36.86767570674419403076171875" lon="-118.51959745399653911590576171875">
        <ele>2125.39990234375</ele>
        <time>2021-06-28T15:38:25.000Z</time>
        <extensions>
          <ns3:TrackPointExtension>
            <ns3:atemp>26.0</ns3:atemp>
            <ns3:hr>96</ns3:hr>
          </ns3:TrackPointExtension>
        </extensions>
      </trkpt>
      <trkpt lat="36.86763337813317775726318359375" lon="-118.51960918866097927093505859375">
        <ele>2125</ele>
        <time>2021-06-28T15:38:29.000Z</time>
        <extensions>
          <ns3:TrackPointExtension>
            <ns3:atemp>26.0</ns3:atemp>
            <ns3:hr>93</ns3:hr>
          </ns3:TrackPointExtension>
        </extensions>
      </trkpt>
      <trkpt lat="36.8675990961492061614990234375" lon="-118.51962176151573657989501953125">
        <ele>2125</ele>
        <time>2021-06-28T15:38:32.000Z</time>
        <extensions>
          <ns3:TrackPointExtension>
            <ns3:atemp>26.0</ns3:atemp>
            <ns3:hr>94</ns3:hr>
          </ns3:TrackPointExtension>
        </extensions>
      </trkpt>
      <trkpt lat="36.86753296293318271636962890625" lon="-118.5196080990135669708251953125">
        <ele>2124.60009765625</ele>
        <time>2021-06-28T15:38:39.000Z</time>
        <extensions>
          <ns3:TrackPointExtension>
            <ns3:atemp>26.0</ns3:atemp>
            <ns3:hr>96</ns3:hr>
          </ns3:TrackPointExtension>
        </extensions>
      </trkpt>
      <trkpt lat="36.86744830571115016937255859375" lon="-118.51958538405597209930419921875">
        <ele>2124.199951171875</ele>
        <time>2021-06-28T15:38:46.000Z</time>
        <extensions>
          <ns3:TrackPointExtension>
            <ns3:atemp>26.0</ns3:atemp>
            <ns3:hr>96</ns3:hr>
          </ns3:TrackPointExtension>
        </extensions>
      </trkpt>
      <trkpt lat="36.8674026243388652801513671875" lon="-118.51959276013076305389404296875">
        <ele>2123.800048828125</ele>
        <time>2021-06-28T15:38:50.000Z</time>
        <extensions>
          <ns3:TrackPointExtension>
            <ns3:atemp>26.0</ns3:atemp>
            <ns3:hr>96</ns3:hr>
          </ns3:TrackPointExtension>
        </extensions>
      </trkpt>
      <trkpt lat="36.867382340133190155029296875" lon="-118.5196164809167385101318359375">
        <ele>2124.199951171875</ele>
        <time>2021-06-28T15:38:52.000Z</time>
        <extensions>
          <ns3:TrackPointExtension>
            <ns3:atemp>26.0</ns3:atemp>
            <ns3:hr>96</ns3:hr>
          </ns3:TrackPointExtension>
        </extensions>
      </trkpt>
      <trkpt lat="36.8673516623675823211669921875" lon="-118.51965612731873989105224609375">
        <ele>2125.199951171875</ele>
        <time>2021-06-28T15:38:56.000Z</time>
        <extensions>
          <ns3:TrackPointExtension>
            <ns3:atemp>26.0</ns3:atemp>
            <ns3:hr>95</ns3:hr>
          </ns3:TrackPointExtension>
        </extensions>
      </trkpt>
      <trkpt lat="36.8673436157405376434326171875" lon="-118.51965948008000850677490234375">
        <ele>2126.39990234375</ele>
        <time>2021-06-28T15:38:57.000Z</time>
        <extensions>
          <ns3:TrackPointExtension>
            <ns3:atemp>26.0</ns3:atemp>
            <ns3:hr>95</ns3:hr>
          </ns3:TrackPointExtension>
        </extensions>
      </trkpt>
      <trkpt lat="36.86733649112284183502197265625" lon="-118.5196671076118946075439453125">
        <ele>2126.39990234375</ele>
        <time>2021-06-28T15:38:58.000Z</time>
        <extensions>
          <ns3:TrackPointExtension>
            <ns3:atemp>26.0</ns3:atemp>
            <ns3:hr>95</ns3:hr>
          </ns3:TrackPointExtension>
        </extensions>
      </trkpt>
      <trkpt lat="36.8673251755535602569580078125" lon="-118.5196811892092227935791015625">
        <ele>2126.39990234375</ele>
        <time>2021-06-28T15:38:59.000Z</time>
        <extensions>
          <ns3:TrackPointExtension>
            <ns3:atemp>26.0</ns3:atemp>
            <ns3:hr>95</ns3:hr>
          </ns3:TrackPointExtension>
        </extensions>
      </trkpt>
      <trkpt lat="36.86730899848043918609619140625" lon="-118.51970675401389598846435546875">
        <ele>2126.800048828125</ele>
        <time>2021-06-28T15:39:01.000Z</time>
        <extensions>
          <ns3:TrackPointExtension>
            <ns3:atemp>26.0</ns3:atemp>
            <ns3:hr>99</ns3:hr>
          </ns3:TrackPointExtension>
        </extensions>
      </trkpt>
      <trkpt lat="36.8673087470233440399169921875" lon="-118.51972796022891998291015625">
        <ele>2127</ele>
        <time>2021-06-28T15:39:03.000Z</time>
        <extensions>
          <ns3:TrackPointExtension>
            <ns3:atemp>26.0</ns3:atemp>
            <ns3:hr>99</ns3:hr>
          </ns3:TrackPointExtension>
        </extensions>
      </trkpt>
      <trkpt lat="36.86726155690848827362060546875" lon="-118.51973810233175754547119140625">
        <ele>2126.39990234375</ele>
        <time>2021-06-28T15:39:07.000Z</time>
        <extensions>
          <ns3:TrackPointExtension>
            <ns3:atemp>26.0</ns3:atemp>
            <ns3:hr>100</ns3:hr>
          </ns3:TrackPointExtension>
        </extensions>
      </trkpt>
      <trkpt lat="36.86726155690848827362060546875" lon="-118.51973810233175754547119140625">
        <ele>2126.60009765625</ele>
        <time>2021-06-28T15:39:08.000Z</time>
        <extensions>
          <ns3:TrackPointExtension>
            <ns3:atemp>26.0</ns3:atemp>
            <ns3:hr>102</ns3:hr>
          </ns3:TrackPointExtension>
        </extensions>
      </trkpt>
      <trkpt lat="36.867247559130191802978515625" lon="-118.51975268684327602386474609375">
        <ele>2126.60009765625</ele>
        <time>2021-06-28T15:39:11.000Z</time>
        <extensions>
          <ns3:TrackPointExtension>
            <ns3:atemp>26.0</ns3:atemp>
            <ns3:hr>102</ns3:hr>
          </ns3:TrackPointExtension>
        </extensions>
      </trkpt>
      <trkpt lat="36.8672135286033153533935546875" lon="-118.5197378508746623992919921875">
        <ele>2126</ele>
        <time>2021-06-28T15:39:14.000Z</time>
        <extensions>
          <ns3:TrackPointExtension>
            <ns3:atemp>26.0</ns3:atemp>
            <ns3:hr>105</ns3:hr>
          </ns3:TrackPointExtension>
        </extensions>
      </trkpt>
      <trkpt lat="36.86720221303403377532958984375" lon="-118.51974497549235820770263671875">
        <ele>2126</ele>
        <time>2021-06-28T15:39:15.000Z</time>
        <extensions>
          <ns3:TrackPointExtension>
            <ns3:atemp>26.0</ns3:atemp>
            <ns3:hr>105</ns3:hr>
          </ns3:TrackPointExtension>
        </extensions>
      </trkpt>
      <trkpt lat="36.8671736307442188262939453125" lon="-118.51976760663092136383056640625">
        <ele>2126.199951171875</ele>
        <time>2021-06-28T15:39:18.000Z</time>
        <extensions>
          <ns3:TrackPointExtension>
            <ns3:atemp>26.0</ns3:atemp>
            <ns3:hr>105</ns3:hr>
          </ns3:TrackPointExtension>
        </extensions>
      </trkpt>
      <trkpt lat="36.8671627342700958251953125" lon="-118.51976727135479450225830078125">
        <ele>2126.199951171875</ele>
        <time>2021-06-28T15:39:22.000Z</time>
        <extensions>
          <ns3:TrackPointExtension>
            <ns3:atemp>26.0</ns3:atemp>
            <ns3:hr>104</ns3:hr>
          </ns3:TrackPointExtension>
        </extensions>
      </trkpt>
      <trkpt lat="36.86715443618595600128173828125" lon="-118.51976576261222362518310546875">
        <ele>2125.800048828125</ele>
        <time>2021-06-28T15:39:24.000Z</time>
        <extensions>
          <ns3:TrackPointExtension>
            <ns3:atemp>26.0</ns3:atemp>
            <ns3:hr>104</ns3:hr>
          </ns3:TrackPointExtension>
        </extensions>
      </trkpt>
      <trkpt lat="36.86714672483503818511962890625" lon="-118.5197727195918560028076171875">
        <ele>2125.199951171875</ele>
        <time>2021-06-28T15:39:25.000Z</time>
        <extensions>
          <ns3:TrackPointExtension>
            <ns3:atemp>26.0</ns3:atemp>
            <ns3:hr>102</ns3:hr>
          </ns3:TrackPointExtension>
        </extensions>
      </trkpt>
      <trkpt lat="36.86713851056993007659912109375" lon="-118.51977900601923465728759765625">
        <ele>2125.199951171875</ele>
        <time>2021-06-28T15:39:26.000Z</time>
        <extensions>
          <ns3:TrackPointExtension>
            <ns3:atemp>26.0</ns3:atemp>
            <ns3:hr>102</ns3:hr>
          </ns3:TrackPointExtension>
        </extensions>
      </trkpt>
      <trkpt lat="36.86711621470749378204345703125" lon="-118.51977565325796604156494140625">
        <ele>2124.800048828125</ele>
        <time>2021-06-28T15:39:28.000Z</time>
        <extensions>
          <ns3:TrackPointExtension>
            <ns3:atemp>26.0</ns3:atemp>
            <ns3:hr>99</ns3:hr>
          </ns3:TrackPointExtension>
        </extensions>
      </trkpt>
      <trkpt lat="36.86708034016191959381103515625" lon="-118.51973860524594783782958984375">
        <ele>2124.39990234375</ele>
        <time>2021-06-28T15:39:31.000Z</time>
        <extensions>
          <ns3:TrackPointExtension>
            <ns3:atemp>26.0</ns3:atemp>
            <ns3:hr>99</ns3:hr>
          </ns3:TrackPointExtension>
        </extensions>
      </trkpt>
      <trkpt lat="36.8670546077191829681396484375" lon="-118.5197318159043788909912109375">
        <ele>2124.199951171875</ele>
        <time>2021-06-28T15:39:33.000Z</time>
        <extensions>
          <ns3:TrackPointExtension>
            <ns3:atemp>26.0</ns3:atemp>
            <ns3:hr>100</ns3:hr>
          </ns3:TrackPointExtension>
        </extensions>
      </trkpt>
      <trkpt lat="36.86698763631284236907958984375" lon="-118.5197619907557964324951171875">
        <ele>2124.199951171875</ele>
        <time>2021-06-28T15:39:38.000Z</time>
        <extensions>
          <ns3:TrackPointExtension>
            <ns3:atemp>26.0</ns3:atemp>
            <ns3:hr>98</ns3:hr>
          </ns3:TrackPointExtension>
        </extensions>
      </trkpt>
      <trkpt lat="36.86696383170783519744873046875" lon="-118.519775234162807464599609375">
        <ele>2124.199951171875</ele>
        <time>2021-06-28T15:39:40.000Z</time>
        <extensions>
          <ns3:TrackPointExtension>
            <ns3:atemp>26.0</ns3:atemp>
            <ns3:hr>97</ns3:hr>
          </ns3:TrackPointExtension>
        </extensions>
      </trkpt>
      <trkpt lat="36.8669459782540798187255859375" lon="-118.51979141123592853546142578125">
        <ele>2124.39990234375</ele>
        <time>2021-06-28T15:39:43.000Z</time>
        <extensions>
          <ns3:TrackPointExtension>
            <ns3:atemp>26.0</ns3:atemp>
            <ns3:hr>95</ns3:hr>
          </ns3:TrackPointExtension>
        </extensions>
      </trkpt>
      <trkpt lat="36.8669414520263671875" lon="-118.51979392580687999725341796875">
        <ele>2124.39990234375</ele>
        <time>2021-06-28T15:39:44.000Z</time>
        <extensions>
          <ns3:TrackPointExtension>
            <ns3:atemp>26.0</ns3:atemp>
            <ns3:hr>95</ns3:hr>
          </ns3:TrackPointExtension>
        </extensions>
      </trkpt>
      <trkpt lat="36.866910271346569061279296875" lon="-118.51984203793108463287353515625">
        <ele>2124.39990234375</ele>
        <time>2021-06-28T15:39:50.000Z</time>
        <extensions>
          <ns3:TrackPointExtension>
            <ns3:atemp>26.0</ns3:atemp>
            <ns3:hr>94</ns3:hr>
          </ns3:TrackPointExtension>
        </extensions>
      </trkpt>
      <trkpt lat="36.866902895271778106689453125" lon="-118.51984840817749500274658203125">
        <ele>2124.39990234375</ele>
        <time>2021-06-28T15:39:51.000Z</time>
        <extensions>
          <ns3:TrackPointExtension>
            <ns3:atemp>26.0</ns3:atemp>
            <ns3:hr>94</ns3:hr>
          </ns3:TrackPointExtension>
        </extensions>
      </trkpt>
      <trkpt lat="36.86689057387411594390869140625" lon="-118.51985871791839599609375">
        <ele>2124.39990234375</ele>
        <time>2021-06-28T15:39:53.000Z</time>
        <extensions>
          <ns3:TrackPointExtension>
            <ns3:atemp>26.0</ns3:atemp>
            <ns3:hr>94</ns3:hr>
          </ns3:TrackPointExtension>
        </extensions>
      </trkpt>
      <trkpt lat="36.8668745644390583038330078125" lon="-118.51987145841121673583984375">
        <ele>2124.39990234375</ele>
        <time>2021-06-28T15:39:55.000Z</time>
        <extensions>
          <ns3:TrackPointExtension>
            <ns3:atemp>26.0</ns3:atemp>
            <ns3:hr>96</ns3:hr>
          </ns3:TrackPointExtension>
        </extensions>
      </trkpt>
      <trkpt lat="36.866848580539226531982421875" lon="-118.519897945225238800048828125">
        <ele>2124.39990234375</ele>
        <time>2021-06-28T15:39:57.000Z</time>
        <extensions>
          <ns3:TrackPointExtension>
            <ns3:atemp>26.0</ns3:atemp>
            <ns3:hr>96</ns3:hr>
          </ns3:TrackPointExtension>
        </extensions>
      </trkpt>
      <trkpt lat="36.86684061773121356964111328125" lon="-118.51991579867899417877197265625">
        <ele>2124.39990234375</ele>
        <time>2021-06-28T15:39:58.000Z</time>
        <extensions>
          <ns3:TrackPointExtension>
            <ns3:atemp>26.0</ns3:atemp>
            <ns3:hr>96</ns3:hr>
          </ns3:TrackPointExtension>
        </extensions>
      </trkpt>
      <trkpt lat="36.8667967803776264190673828125" lon="-118.519947230815887451171875">
        <ele>2124.800048828125</ele>
        <time>2021-06-28T15:40:03.000Z</time>
        <extensions>
          <ns3:TrackPointExtension>
            <ns3:atemp>26.0</ns3:atemp>
            <ns3:hr>96</ns3:hr>
          </ns3:TrackPointExtension>
        </extensions>
      </trkpt>
      <trkpt lat="36.8667330779135227203369140625" lon="-118.5199271142482757568359375">
        <ele>2124.39990234375</ele>
        <time>2021-06-28T15:40:08.000Z</time>
        <extensions>
          <ns3:TrackPointExtension>
            <ns3:atemp>26.0</ns3:atemp>
            <ns3:hr>95</ns3:hr>
          </ns3:TrackPointExtension>
        </extensions>
      </trkpt>
      <trkpt lat="36.8666901625692844390869140625" lon="-118.51994521915912628173828125">
        <ele>2124.199951171875</ele>
        <time>2021-06-28T15:40:11.000Z</time>
        <extensions>
          <ns3:TrackPointExtension>
            <ns3:atemp>26.0</ns3:atemp>
            <ns3:hr>97</ns3:hr>
          </ns3:TrackPointExtension>
        </extensions>
      </trkpt>
      <trkpt lat="36.86667331494390964508056640625" lon="-118.51994899101555347442626953125">
        <ele>2124.199951171875</ele>
        <time>2021-06-28T15:40:12.000Z</time>
        <extensions>
          <ns3:TrackPointExtension>
            <ns3:atemp>26.0</ns3:atemp>
            <ns3:hr>96</ns3:hr>
          </ns3:TrackPointExtension>
        </extensions>
      </trkpt>
      <trkpt lat="36.86660349369049072265625" lon="-118.52003012783825397491455078125">
        <ele>2124</ele>
        <time>2021-06-28T15:40:17.000Z</time>
        <extensions>
          <ns3:TrackPointExtension>
            <ns3:atemp>26.0</ns3:atemp>
            <ns3:hr>96</ns3:hr>
          </ns3:TrackPointExtension>
        </extensions>
      </trkpt>
      <trkpt lat="36.866570971906185150146484375" lon="-118.52006315253674983978271484375">
        <ele>2123</ele>
        <time>2021-06-28T15:40:21.000Z</time>
        <extensions>
          <ns3:TrackPointExtension>
            <ns3:atemp>26.0</ns3:atemp>
            <ns3:hr>97</ns3:hr>
          </ns3:TrackPointExtension>
        </extensions>
      </trkpt>
      <trkpt lat="36.8665372766554355621337890625" lon="-118.52009282447397708892822265625">
        <ele>2123</ele>
        <time>2021-06-28T15:40:24.000Z</time>
        <extensions>
          <ns3:TrackPointExtension>
            <ns3:atemp>26.0</ns3:atemp>
            <ns3:hr>98</ns3:hr>
          </ns3:TrackPointExtension>
        </extensions>
      </trkpt>
      <trkpt lat="36.8665111251175403594970703125" lon="-118.520133309066295623779296875">
        <ele>2123.199951171875</ele>
        <time>2021-06-28T15:40:27.000Z</time>
        <extensions>
          <ns3:TrackPointExtension>
            <ns3:atemp>26.0</ns3:atemp>
            <ns3:hr>97</ns3:hr>
          </ns3:TrackPointExtension>
        </extensions>
      </trkpt>
      <trkpt lat="36.86648036353290081024169921875" lon="-118.5201619751751422882080078125">
        <ele>2123.199951171875</ele>
        <time>2021-06-28T15:40:30.000Z</time>
        <extensions>
          <ns3:TrackPointExtension>
            <ns3:atemp>26.0</ns3:atemp>
            <ns3:hr>95</ns3:hr>
          </ns3:TrackPointExtension>
        </extensions>
      </trkpt>
      <trkpt lat="36.86642034910619258880615234375" lon="-118.52019868791103363037109375">
        <ele>2122.60009765625</ele>
        <time>2021-06-28T15:40:35.000Z</time>
        <extensions>
          <ns3:TrackPointExtension>
            <ns3:atemp>26.0</ns3:atemp>
            <ns3:hr>94</ns3:hr>
          </ns3:TrackPointExtension>
        </extensions>
      </trkpt>
      <trkpt lat="36.8663795292377471923828125" lon="-118.5202374123036861419677734375">
        <ele>2122.800048828125</ele>
        <time>2021-06-28T15:40:39.000Z</time>
        <extensions>
          <ns3:TrackPointExtension>
            <ns3:atemp>26.0</ns3:atemp>
            <ns3:hr>91</ns3:hr>
          </ns3:TrackPointExtension>
        </extensions>
      </trkpt>
      <trkpt lat="36.86637206934392452239990234375" lon="-118.52024068124592304229736328125">
        <ele>2122.800048828125</ele>
        <time>2021-06-28T15:40:40.000Z</time>
        <extensions>
          <ns3:TrackPointExtension>
            <ns3:atemp>26.0</ns3:atemp>
            <ns3:hr>91</ns3:hr>
          </ns3:TrackPointExtension>
        </extensions>
      </trkpt>
      <trkpt lat="36.86634139157831668853759765625" lon="-118.52025945670902729034423828125">
        <ele>2123</ele>
        <time>2021-06-28T15:40:43.000Z</time>
        <extensions>
          <ns3:TrackPointExtension>
            <ns3:atemp>26.0</ns3:atemp>
            <ns3:hr>88</ns3:hr>
          </ns3:TrackPointExtension>
        </extensions>
      </trkpt>
      <trkpt lat="36.86629881151020526885986328125" lon="-118.52029046975076198577880859375">
        <ele>2122.39990234375</ele>
        <time>2021-06-28T15:40:47.000Z</time>
        <extensions>
          <ns3:TrackPointExtension>
            <ns3:atemp>26.0</ns3:atemp>
            <ns3:hr>90</ns3:hr>
          </ns3:TrackPointExtension>
        </extensions>
      </trkpt>
      <trkpt lat="36.866245754063129425048828125" lon="-118.5203294456005096435546875">
        <ele>2122.39990234375</ele>
        <time>2021-06-28T15:40:52.000Z</time>
        <extensions>
          <ns3:TrackPointExtension>
            <ns3:atemp>26.0</ns3:atemp>
            <ns3:hr>95</ns3:hr>
          </ns3:TrackPointExtension>
        </extensions>
      </trkpt>
      <trkpt lat="36.86623041518032550811767578125" lon="-118.5203339718282222747802734375">
        <ele>2122.39990234375</ele>
        <time>2021-06-28T15:40:54.000Z</time>
        <extensions>
          <ns3:TrackPointExtension>
            <ns3:atemp>26.0</ns3:atemp>
            <ns3:hr>92</ns3:hr>
          </ns3:TrackPointExtension>
        </extensions>
      </trkpt>
      <trkpt lat="36.86620007269084453582763671875" lon="-118.520339168608188629150390625">
        <ele>2122.60009765625</ele>
        <time>2021-06-28T15:40:56.000Z</time>
        <extensions>
          <ns3:TrackPointExtension>
            <ns3:atemp>26.0</ns3:atemp>
            <ns3:hr>92</ns3:hr>
          </ns3:TrackPointExtension>
        </extensions>
      </trkpt>
      <trkpt lat="36.8661582469940185546875" lon="-118.520372696220874786376953125">
        <ele>2122.800048828125</ele>
        <time>2021-06-28T15:40:59.000Z</time>
        <extensions>
          <ns3:TrackPointExtension>
            <ns3:atemp>26.0</ns3:atemp>
            <ns3:hr>93</ns3:hr>
          </ns3:TrackPointExtension>
        </extensions>
      </trkpt>
      <trkpt lat="36.86612463556230068206787109375" lon="-118.5204151086509227752685546875">
        <ele>2122.800048828125</ele>
        <time>2021-06-28T15:41:02.000Z</time>
        <extensions>
          <ns3:TrackPointExtension>
            <ns3:atemp>26.0</ns3:atemp>
            <ns3:hr>93</ns3:hr>
          </ns3:TrackPointExtension>
        </extensions>
      </trkpt>
      <trkpt lat="36.866112984716892242431640625" lon="-118.52042323909699916839599609375">
        <ele>2123</ele>
        <time>2021-06-28T15:41:03.000Z</time>
        <extensions>
          <ns3:TrackPointExtension>
            <ns3:atemp>26.0</ns3:atemp>
            <ns3:hr>93</ns3:hr>
          </ns3:TrackPointExtension>
        </extensions>
      </trkpt>
      <trkpt lat="36.8660363741219043731689453125" lon="-118.5204694233834743499755859375">
        <ele>2123.39990234375</ele>
        <time>2021-06-28T15:41:10.000Z</time>
        <extensions>
          <ns3:TrackPointExtension>
            <ns3:atemp>26.0</ns3:atemp>
            <ns3:hr>95</ns3:hr>
          </ns3:TrackPointExtension>
        </extensions>
      </trkpt>
      <trkpt lat="36.86599739827215671539306640625" lon="-118.52052147500216960906982421875">
        <ele>2124</ele>
        <time>2021-06-28T15:41:14.000Z</time>
        <extensions>
          <ns3:TrackPointExtension>
            <ns3:atemp>26.0</ns3:atemp>
            <ns3:hr>97</ns3:hr>
          </ns3:TrackPointExtension>
        </extensions>
      </trkpt>
      <trkpt lat="36.86597275547683238983154296875" lon="-118.5205535776913166046142578125">
        <ele>2124.199951171875</ele>
        <time>2021-06-28T15:41:16.000Z</time>
        <extensions>
          <ns3:TrackPointExtension>
            <ns3:atemp>26.0</ns3:atemp>
            <ns3:hr>98</ns3:hr>
          </ns3:TrackPointExtension>
        </extensions>
      </trkpt>
      <trkpt lat="36.86597275547683238983154296875" lon="-118.5205535776913166046142578125">
        <ele>2124.199951171875</ele>
        <time>2021-06-28T15:41:17.000Z</time>
        <extensions>
          <ns3:TrackPointExtension>
            <ns3:atemp>26.0</ns3:atemp>
            <ns3:hr>99</ns3:hr>
          </ns3:TrackPointExtension>
        </extensions>
      </trkpt>
      <trkpt lat="36.865933947265148162841796875" lon="-118.5205653123557567596435546875">
        <ele>2124.39990234375</ele>
        <time>2021-06-28T15:41:18.000Z</time>
        <extensions>
          <ns3:TrackPointExtension>
            <ns3:atemp>26.0</ns3:atemp>
            <ns3:hr>98</ns3:hr>
          </ns3:TrackPointExtension>
        </extensions>
      </trkpt>
      <trkpt lat="36.86586362309753894805908203125" lon="-118.5206018574535846710205078125">
        <ele>2124.800048828125</ele>
        <time>2021-06-28T15:41:24.000Z</time>
        <extensions>
          <ns3:TrackPointExtension>
            <ns3:atemp>26.0</ns3:atemp>
            <ns3:hr>97</ns3:hr>
          </ns3:TrackPointExtension>
        </extensions>
      </trkpt>
      <trkpt lat="36.8658469431102275848388671875" lon="-118.5206125862896442413330078125">
        <ele>2125.199951171875</ele>
        <time>2021-06-28T15:41:26.000Z</time>
        <extensions>
          <ns3:TrackPointExtension>
            <ns3:atemp>26.0</ns3:atemp>
            <ns3:hr>98</ns3:hr>
          </ns3:TrackPointExtension>
        </extensions>
      </trkpt>
      <trkpt lat="36.86580545268952846527099609375" lon="-118.52063748054206371307373046875">
        <ele>2126.199951171875</ele>
        <time>2021-06-28T15:41:31.000Z</time>
        <extensions>
          <ns3:TrackPointExtension>
            <ns3:atemp>26.0</ns3:atemp>
            <ns3:hr>100</ns3:hr>
          </ns3:TrackPointExtension>
        </extensions>
      </trkpt>
      <trkpt lat="36.86578382737934589385986328125" lon="-118.52066094987094402313232421875">
        <ele>2126.39990234375</ele>
        <time>2021-06-28T15:41:32.000Z</time>
        <extensions>
          <ns3:TrackPointExtension>
            <ns3:atemp>26.0</ns3:atemp>
            <ns3:hr>100</ns3:hr>
          </ns3:TrackPointExtension>
        </extensions>
      </trkpt>
      <trkpt lat="36.86575524508953094482421875" lon="-118.52070470340549945831298828125">
        <ele>2127</ele>
        <time>2021-06-28T15:41:36.000Z</time>
        <extensions>
          <ns3:TrackPointExtension>
            <ns3:atemp>26.0</ns3:atemp>
            <ns3:hr>102</ns3:hr>
          </ns3:TrackPointExtension>
        </extensions>
      </trkpt>
      <trkpt lat="36.8657352961599826812744140625" lon="-118.520719371736049652099609375">
        <ele>2127.39990234375</ele>
        <time>2021-06-28T15:41:38.000Z</time>
        <extensions>
          <ns3:TrackPointExtension>
            <ns3:atemp>26.0</ns3:atemp>
            <ns3:hr>102</ns3:hr>
          </ns3:TrackPointExtension>
        </extensions>
      </trkpt>
      <trkpt lat="36.86567637138068675994873046875" lon="-118.5207601077854633331298828125">
        <ele>2128.39990234375</ele>
        <time>2021-06-28T15:41:44.000Z</time>
        <extensions>
          <ns3:TrackPointExtension>
            <ns3:atemp>26.0</ns3:atemp>
            <ns3:hr>102</ns3:hr>
          </ns3:TrackPointExtension>
        </extensions>
      </trkpt>
      <trkpt lat="36.8656377308070659637451171875" lon="-118.52083244360983371734619140625">
        <ele>2129.199951171875</ele>
        <time>2021-06-28T15:41:50.000Z</time>
        <extensions>
          <ns3:TrackPointExtension>
            <ns3:atemp>26.0</ns3:atemp>
            <ns3:hr>103</ns3:hr>
          </ns3:TrackPointExtension>
        </extensions>
      </trkpt>
      <trkpt lat="36.86563328839838504791259765625" lon="-118.520849458873271942138671875">
        <ele>2129.60009765625</ele>
        <time>2021-06-28T15:41:51.000Z</time>
        <extensions>
          <ns3:TrackPointExtension>
            <ns3:atemp>26.0</ns3:atemp>
            <ns3:hr>103</ns3:hr>
          </ns3:TrackPointExtension>
        </extensions>
      </trkpt>
      <trkpt lat="36.86561518348753452301025390625" lon="-118.520907796919345855712890625">
        <ele>2129.60009765625</ele>
        <time>2021-06-28T15:41:56.000Z</time>
        <extensions>
          <ns3:TrackPointExtension>
            <ns3:atemp>26.0</ns3:atemp>
            <ns3:hr>104</ns3:hr>
          </ns3:TrackPointExtension>
        </extensions>
      </trkpt>
      <trkpt lat="36.8655936419963836669921875" lon="-118.52093721739947795867919921875">
        <ele>2129.39990234375</ele>
        <time>2021-06-28T15:41:58.000Z</time>
        <extensions>
          <ns3:TrackPointExtension>
            <ns3:atemp>26.0</ns3:atemp>
            <ns3:hr>105</ns3:hr>
          </ns3:TrackPointExtension>
        </extensions>
      </trkpt>
      <trkpt lat="36.86557981185615062713623046875" lon="-118.5209538973867893218994140625">
        <ele>2128.800048828125</ele>
        <time>2021-06-28T15:41:59.000Z</time>
        <extensions>
          <ns3:TrackPointExtension>
            <ns3:atemp>26.0</ns3:atemp>
            <ns3:hr>105</ns3:hr>
          </ns3:TrackPointExtension>
        </extensions>
      </trkpt>
      <trkpt lat="36.86552348546683788299560546875" lon="-118.5210373811423778533935546875">
        <ele>2128.800048828125</ele>
        <time>2021-06-28T15:42:04.000Z</time>
        <extensions>
          <ns3:TrackPointExtension>
            <ns3:atemp>26.0</ns3:atemp>
            <ns3:hr>105</ns3:hr>
          </ns3:TrackPointExtension>
        </extensions>
      </trkpt>
      <trkpt lat="36.865509487688541412353515625" lon="-118.521046936511993408203125">
        <ele>2128.800048828125</ele>
        <time>2021-06-28T15:42:05.000Z</time>
        <extensions>
          <ns3:TrackPointExtension>
            <ns3:atemp>26.0</ns3:atemp>
            <ns3:hr>106</ns3:hr>
          </ns3:TrackPointExtension>
        </extensions>
      </trkpt>
      <trkpt lat="36.8654865212738513946533203125" lon="-118.52105942554771900177001953125">
        <ele>2129.199951171875</ele>
        <time>2021-06-28T15:42:08.000Z</time>
        <extensions>
          <ns3:TrackPointExtension>
            <ns3:atemp>26.0</ns3:atemp>
            <ns3:hr>109</ns3:hr>
          </ns3:TrackPointExtension>
        </extensions>
      </trkpt>
      <trkpt lat="36.8654516525566577911376953125" lon="-118.52110686711966991424560546875">
        <ele>2129.199951171875</ele>
        <time>2021-06-28T15:42:11.000Z</time>
        <extensions>
          <ns3:TrackPointExtension>
            <ns3:atemp>26.0</ns3:atemp>
            <ns3:hr>110</ns3:hr>
          </ns3:TrackPointExtension>
        </extensions>
      </trkpt>
      <trkpt lat="36.8654422648251056671142578125" lon="-118.521123044192790985107421875">
        <ele>2129.199951171875</ele>
        <time>2021-06-28T15:42:12.000Z</time>
        <extensions>
          <ns3:TrackPointExtension>
            <ns3:atemp>26.0</ns3:atemp>
            <ns3:hr>110</ns3:hr>
          </ns3:TrackPointExtension>
        </extensions>
      </trkpt>
      <trkpt lat="36.86538736335933208465576171875" lon="-118.52124030701816082000732421875">
        <ele>2129.39990234375</ele>
        <time>2021-06-28T15:42:20.000Z</time>
        <extensions>
          <ns3:TrackPointExtension>
            <ns3:atemp>26.0</ns3:atemp>
            <ns3:hr>110</ns3:hr>
          </ns3:TrackPointExtension>
        </extensions>
      </trkpt>
      <trkpt lat="36.8653668276965618133544921875" lon="-118.52128498256206512451171875">
        <ele>2128.60009765625</ele>
        <time>2021-06-28T15:42:25.000Z</time>
        <extensions>
          <ns3:TrackPointExtension>
            <ns3:atemp>26.0</ns3:atemp>
            <ns3:hr>107</ns3:hr>
          </ns3:TrackPointExtension>
        </extensions>
      </trkpt>
      <trkpt lat="36.86535023152828216552734375" lon="-118.52131021209061145782470703125">
        <ele>2128.60009765625</ele>
        <time>2021-06-28T15:42:27.000Z</time>
        <extensions>
          <ns3:TrackPointExtension>
            <ns3:atemp>26.0</ns3:atemp>
            <ns3:hr>109</ns3:hr>
          </ns3:TrackPointExtension>
        </extensions>
      </trkpt>
      <trkpt lat="36.86534243635833263397216796875" lon="-118.5213153250515460968017578125">
        <ele>2128.39990234375</ele>
        <time>2021-06-28T15:42:28.000Z</time>
        <extensions>
          <ns3:TrackPointExtension>
            <ns3:atemp>26.0</ns3:atemp>
            <ns3:hr>106</ns3:hr>
          </ns3:TrackPointExtension>
        </extensions>
      </trkpt>
      <trkpt lat="36.865334473550319671630859375" lon="-118.5213401354849338531494140625">
        <ele>2128.199951171875</ele>
        <time>2021-06-28T15:42:30.000Z</time>
        <extensions>
          <ns3:TrackPointExtension>
            <ns3:atemp>26.0</ns3:atemp>
            <ns3:hr>107</ns3:hr>
          </ns3:TrackPointExtension>
        </extensions>
      </trkpt>
      <trkpt lat="36.8653141893446445465087890625" lon="-118.5213880799710750579833984375">
        <ele>2127.39990234375</ele>
        <time>2021-06-28T15:42:33.000Z</time>
        <extensions>
          <ns3:TrackPointExtension>
            <ns3:atemp>26.0</ns3:atemp>
            <ns3:hr>105</ns3:hr>
          </ns3:TrackPointExtension>
        </extensions>
      </trkpt>
      <trkpt lat="36.8652917258441448211669921875" lon="-118.52142848074436187744140625">
        <ele>2126.60009765625</ele>
        <time>2021-06-28T15:42:37.000Z</time>
        <extensions>
          <ns3:TrackPointExtension>
            <ns3:atemp>26.0</ns3:atemp>
            <ns3:hr>107</ns3:hr>
          </ns3:TrackPointExtension>
        </extensions>
      </trkpt>
      <trkpt lat="36.86528719961643218994140625" lon="-118.52143661119043827056884765625">
        <ele>2126.199951171875</ele>
        <time>2021-06-28T15:42:38.000Z</time>
        <extensions>
          <ns3:TrackPointExtension>
            <ns3:atemp>26.0</ns3:atemp>
            <ns3:hr>107</ns3:hr>
          </ns3:TrackPointExtension>
        </extensions>
      </trkpt>
      <trkpt lat="36.86526305973529815673828125" lon="-118.521448932588100433349609375">
        <ele>2125.60009765625</ele>
        <time>2021-06-28T15:42:41.000Z</time>
        <extensions>
          <ns3:TrackPointExtension>
            <ns3:atemp>26.0</ns3:atemp>
            <ns3:hr>107</ns3:hr>
          </ns3:TrackPointExtension>
        </extensions>
      </trkpt>
      <trkpt lat="36.86524118296802043914794921875" lon="-118.52147013880312442779541015625">
        <ele>2125.39990234375</ele>
        <time>2021-06-28T15:42:43.000Z</time>
        <extensions>
          <ns3:TrackPointExtension>
            <ns3:atemp>26.0</ns3:atemp>
            <ns3:hr>107</ns3:hr>
          </ns3:TrackPointExtension>
        </extensions>
      </trkpt>
      <trkpt lat="36.86523145996034145355224609375" lon="-118.52147818543016910552978515625">
        <ele>2124.800048828125</ele>
        <time>2021-06-28T15:42:44.000Z</time>
        <extensions>
          <ns3:TrackPointExtension>
            <ns3:atemp>26.0</ns3:atemp>
            <ns3:hr>106</ns3:hr>
          </ns3:TrackPointExtension>
        </extensions>
      </trkpt>
      <trkpt lat="36.86517111025750637054443359375" lon="-118.52157876826822757720947265625">
        <ele>2123.39990234375</ele>
        <time>2021-06-28T15:42:52.000Z</time>
        <extensions>
          <ns3:TrackPointExtension>
            <ns3:atemp>26.0</ns3:atemp>
            <ns3:hr>104</ns3:hr>
          </ns3:TrackPointExtension>
        </extensions>
      </trkpt>
      <trkpt lat="36.86514613218605518341064453125" lon="-118.5216076858341693878173828125">
        <ele>2123</ele>
        <time>2021-06-28T15:42:54.000Z</time>
        <extensions>
          <ns3:TrackPointExtension>
            <ns3:atemp>26.0</ns3:atemp>
            <ns3:hr>103</ns3:hr>
          </ns3:TrackPointExtension>
        </extensions>
      </trkpt>
      <trkpt lat="36.865083687007427215576171875" lon="-118.52174221538007259368896484375">
        <ele>2122.60009765625</ele>
        <time>2021-06-28T15:43:03.000Z</time>
        <extensions>
          <ns3:TrackPointExtension>
            <ns3:atemp>26.0</ns3:atemp>
            <ns3:hr>99</ns3:hr>
          </ns3:TrackPointExtension>
        </extensions>
      </trkpt>
      <trkpt lat="36.86507974751293659210205078125" lon="-118.52176241576671600341796875">
        <ele>2122.800048828125</ele>
        <time>2021-06-28T15:43:04.000Z</time>
        <extensions>
          <ns3:TrackPointExtension>
            <ns3:atemp>26.0</ns3:atemp>
            <ns3:hr>101</ns3:hr>
          </ns3:TrackPointExtension>
        </extensions>
      </trkpt>
      <trkpt lat="36.86505896039307117462158203125" lon="-118.5218073427677154541015625">
        <ele>2122.60009765625</ele>
        <time>2021-06-28T15:43:07.000Z</time>
        <extensions>
          <ns3:TrackPointExtension>
            <ns3:atemp>26.0</ns3:atemp>
            <ns3:hr>96</ns3:hr>
          </ns3:TrackPointExtension>
        </extensions>
      </trkpt>
      <trkpt lat="36.86503431759774684906005859375" lon="-118.521832488477230072021484375">
        <ele>2122.800048828125</ele>
        <time>2021-06-28T15:43:09.000Z</time>
        <extensions>
          <ns3:TrackPointExtension>
            <ns3:atemp>26.0</ns3:atemp>
            <ns3:hr>101</ns3:hr>
          </ns3:TrackPointExtension>
        </extensions>
      </trkpt>
      <trkpt lat="36.86502073891460895538330078125" lon="-118.52184330113232135772705078125">
        <ele>2122.60009765625</ele>
        <time>2021-06-28T15:43:11.000Z</time>
        <extensions>
          <ns3:TrackPointExtension>
            <ns3:atemp>26.0</ns3:atemp>
            <ns3:hr>100</ns3:hr>
          </ns3:TrackPointExtension>
        </extensions>
      </trkpt>
      <trkpt lat="36.86500422656536102294921875" lon="-118.5218671895563602447509765625">
        <ele>2122.39990234375</ele>
        <time>2021-06-28T15:43:12.000Z</time>
        <extensions>
          <ns3:TrackPointExtension>
            <ns3:atemp>26.0</ns3:atemp>
            <ns3:hr>100</ns3:hr>
          </ns3:TrackPointExtension>
        </extensions>
      </trkpt>
      <trkpt lat="36.86497178860008716583251953125" lon="-118.5219456441700458526611328125">
        <ele>2122.39990234375</ele>
        <time>2021-06-28T15:43:17.000Z</time>
        <extensions>
          <ns3:TrackPointExtension>
            <ns3:atemp>26.0</ns3:atemp>
            <ns3:hr>98</ns3:hr>
          </ns3:TrackPointExtension>
        </extensions>
      </trkpt>
      <trkpt lat="36.86492669396102428436279296875" lon="-118.521998114883899688720703125">
        <ele>2122.60009765625</ele>
        <time>2021-06-28T15:43:21.000Z</time>
        <extensions>
          <ns3:TrackPointExtension>
            <ns3:atemp>26.0</ns3:atemp>
            <ns3:hr>95</ns3:hr>
          </ns3:TrackPointExtension>
        </extensions>
      </trkpt>
      <trkpt lat="36.86489970423281192779541015625" lon="-118.52201865054666996002197265625">
        <ele>2122.60009765625</ele>
        <time>2021-06-28T15:43:23.000Z</time>
        <extensions>
          <ns3:TrackPointExtension>
            <ns3:atemp>26.0</ns3:atemp>
            <ns3:hr>97</ns3:hr>
          </ns3:TrackPointExtension>
        </extensions>
      </trkpt>
      <trkpt lat="36.86484237201511859893798828125" lon="-118.5221206583082675933837890625">
        <ele>2123.800048828125</ele>
        <time>2021-06-28T15:43:31.000Z</time>
        <extensions>
          <ns3:TrackPointExtension>
            <ns3:atemp>26.0</ns3:atemp>
            <ns3:hr>96</ns3:hr>
          </ns3:TrackPointExtension>
        </extensions>
      </trkpt>
      <trkpt lat="36.86482963152229785919189453125" lon="-118.52213633246719837188720703125">
        <ele>2124.199951171875</ele>
        <time>2021-06-28T15:43:33.000Z</time>
        <extensions>
          <ns3:TrackPointExtension>
            <ns3:atemp>26.0</ns3:atemp>
            <ns3:hr>96</ns3:hr>
          </ns3:TrackPointExtension>
        </extensions>
      </trkpt>
      <trkpt lat="36.8648213334381580352783203125" lon="-118.52214035578072071075439453125">
        <ele>2124.39990234375</ele>
        <time>2021-06-28T15:43:34.000Z</time>
        <extensions>
          <ns3:TrackPointExtension>
            <ns3:atemp>26.0</ns3:atemp>
            <ns3:hr>96</ns3:hr>
          </ns3:TrackPointExtension>
        </extensions>
      </trkpt>
      <trkpt lat="36.8647948466241359710693359375" lon="-118.52219802327454090118408203125">
        <ele>2125</ele>
        <time>2021-06-28T15:43:38.000Z</time>
        <extensions>
          <ns3:TrackPointExtension>
            <ns3:atemp>26.0</ns3:atemp>
            <ns3:hr>96</ns3:hr>
          </ns3:TrackPointExtension>
        </extensions>
      </trkpt>
      <trkpt lat="36.86474011279642581939697265625" lon="-118.52224663831293582916259765625">
        <ele>2125.60009765625</ele>
        <time>2021-06-28T15:43:44.000Z</time>
        <extensions>
          <ns3:TrackPointExtension>
            <ns3:atemp>26.0</ns3:atemp>
            <ns3:hr>96</ns3:hr>
          </ns3:TrackPointExtension>
        </extensions>
      </trkpt>
      <trkpt lat="36.864734329283237457275390625" lon="-118.52225015871226787567138671875">
        <ele>2125.60009765625</ele>
        <time>2021-06-28T15:43:45.000Z</time>
        <extensions>
          <ns3:TrackPointExtension>
            <ns3:atemp>26.0</ns3:atemp>
            <ns3:hr>99</ns3:hr>
          </ns3:TrackPointExtension>
        </extensions>
      </trkpt>
      <trkpt lat="36.8647287972271442413330078125" lon="-118.5222530923783779144287109375">
        <ele>2125.60009765625</ele>
        <time>2021-06-28T15:43:46.000Z</time>
        <extensions>
          <ns3:TrackPointExtension>
            <ns3:atemp>26.0</ns3:atemp>
            <ns3:hr>100</ns3:hr>
          </ns3:TrackPointExtension>
        </extensions>
      </trkpt>
      <trkpt lat="36.8647217564284801483154296875" lon="-118.5222701914608478546142578125">
        <ele>2126.199951171875</ele>
        <time>2021-06-28T15:43:48.000Z</time>
        <extensions>
          <ns3:TrackPointExtension>
            <ns3:atemp>27.0</ns3:atemp>
            <ns3:hr>101</ns3:hr>
          </ns3:TrackPointExtension>
        </extensions>
      </trkpt>
      <trkpt lat="36.86471731401979923248291015625" lon="-118.5222953371703624725341796875">
        <ele>2126.60009765625</ele>
        <time>2021-06-28T15:43:50.000Z</time>
        <extensions>
          <ns3:TrackPointExtension>
            <ns3:atemp>27.0</ns3:atemp>
            <ns3:hr>103</ns3:hr>
          </ns3:TrackPointExtension>
        </extensions>
      </trkpt>
      <trkpt lat="36.86470524407923221588134765625" lon="-118.5223151184618473052978515625">
        <ele>2127</ele>
        <time>2021-06-28T15:43:52.000Z</time>
        <extensions>
          <ns3:TrackPointExtension>
            <ns3:atemp>27.0</ns3:atemp>
            <ns3:hr>105</ns3:hr>
          </ns3:TrackPointExtension>
        </extensions>
      </trkpt>
      <trkpt lat="36.86469669453799724578857421875" lon="-118.5223258472979068756103515625">
        <ele>2127</ele>
        <time>2021-06-28T15:43:53.000Z</time>
        <extensions>
          <ns3:TrackPointExtension>
            <ns3:atemp>27.0</ns3:atemp>
            <ns3:hr>105</ns3:hr>
          </ns3:TrackPointExtension>
        </extensions>
      </trkpt>
      <trkpt lat="36.86466157436370849609375" lon="-118.5223885439336299896240234375">
        <ele>2127.60009765625</ele>
        <time>2021-06-28T15:43:58.000Z</time>
        <extensions>
          <ns3:TrackPointExtension>
            <ns3:atemp>27.0</ns3:atemp>
            <ns3:hr>106</ns3:hr>
          </ns3:TrackPointExtension>
        </extensions>
      </trkpt>
      <trkpt lat="36.8646496720612049102783203125" lon="-118.52242483757436275482177734375">
        <ele>2128.39990234375</ele>
        <time>2021-06-28T15:44:01.000Z</time>
        <extensions>
          <ns3:TrackPointExtension>
            <ns3:atemp>27.0</ns3:atemp>
            <ns3:hr>105</ns3:hr>
          </ns3:TrackPointExtension>
        </extensions>
      </trkpt>
      <trkpt lat="36.86461823992431163787841796875" lon="-118.52247856557369232177734375">
        <ele>2128.800048828125</ele>
        <time>2021-06-28T15:44:05.000Z</time>
        <extensions>
          <ns3:TrackPointExtension>
            <ns3:atemp>27.0</ns3:atemp>
            <ns3:hr>105</ns3:hr>
          </ns3:TrackPointExtension>
        </extensions>
      </trkpt>
      <trkpt lat="36.86462813057005405426025390625" lon="-118.52249197661876678466796875">
        <ele>2129.60009765625</ele>
        <time>2021-06-28T15:44:10.000Z</time>
        <extensions>
          <ns3:TrackPointExtension>
            <ns3:atemp>27.0</ns3:atemp>
            <ns3:hr>105</ns3:hr>
          </ns3:TrackPointExtension>
        </extensions>
      </trkpt>
      <trkpt lat="36.8646272085607051849365234375" lon="-118.5225154459476470947265625">
        <ele>2129.800048828125</ele>
        <time>2021-06-28T15:44:14.000Z</time>
        <extensions>
          <ns3:TrackPointExtension>
            <ns3:atemp>27.0</ns3:atemp>
            <ns3:hr>107</ns3:hr>
          </ns3:TrackPointExtension>
        </extensions>
      </trkpt>
      <trkpt lat="36.86459845863282680511474609375" lon="-118.522529862821102142333984375">
        <ele>2129.800048828125</ele>
        <time>2021-06-28T15:44:17.000Z</time>
        <extensions>
          <ns3:TrackPointExtension>
            <ns3:atemp>27.0</ns3:atemp>
            <ns3:hr>108</ns3:hr>
          </ns3:TrackPointExtension>
        </extensions>
      </trkpt>
      <trkpt lat="36.86454934068024158477783203125" lon="-118.5225555114448070526123046875">
        <ele>2129.199951171875</ele>
        <time>2021-06-28T15:44:23.000Z</time>
        <extensions>
          <ns3:TrackPointExtension>
            <ns3:atemp>27.0</ns3:atemp>
            <ns3:hr>109</ns3:hr>
          </ns3:TrackPointExtension>
        </extensions>
      </trkpt>
      <trkpt lat="36.86452788300812244415283203125" lon="-118.52255861274898052215576171875">
        <ele>2129</ele>
        <time>2021-06-28T15:44:25.000Z</time>
        <extensions>
          <ns3:TrackPointExtension>
            <ns3:atemp>27.0</ns3:atemp>
            <ns3:hr>110</ns3:hr>
          </ns3:TrackPointExtension>
        </extensions>
      </trkpt>
      <trkpt lat="36.86451950110495090484619140625" lon="-118.52256515063345432281494140625">
        <ele>2128.800048828125</ele>
        <time>2021-06-28T15:44:26.000Z</time>
        <extensions>
          <ns3:TrackPointExtension>
            <ns3:atemp>27.0</ns3:atemp>
            <ns3:hr>111</ns3:hr>
          </ns3:TrackPointExtension>
        </extensions>
      </trkpt>
      <trkpt lat="36.8644706346094608306884765625" lon="-118.52258577011525630950927734375">
        <ele>2128.39990234375</ele>
        <time>2021-06-28T15:44:32.000Z</time>
        <extensions>
          <ns3:TrackPointExtension>
            <ns3:atemp>27.0</ns3:atemp>
            <ns3:hr>109</ns3:hr>
          </ns3:TrackPointExtension>
        </extensions>
      </trkpt>
      <trkpt lat="36.8644595704972743988037109375" lon="-118.52258727885782718658447265625">
        <ele>2128.39990234375</ele>
        <time>2021-06-28T15:44:33.000Z</time>
        <extensions>
          <ns3:TrackPointExtension>
            <ns3:atemp>27.0</ns3:atemp>
            <ns3:hr>108</ns3:hr>
          </ns3:TrackPointExtension>
        </extensions>
      </trkpt>
      <trkpt lat="36.864437274634838104248046875" lon="-118.52259658277034759521484375">
        <ele>2127.60009765625</ele>
        <time>2021-06-28T15:44:35.000Z</time>
        <extensions>
          <ns3:TrackPointExtension>
            <ns3:atemp>27.0</ns3:atemp>
            <ns3:hr>108</ns3:hr>
          </ns3:TrackPointExtension>
        </extensions>
      </trkpt>
      <trkpt lat="36.86440131627023220062255859375" lon="-118.5226269252598285675048828125">
        <ele>2126.60009765625</ele>
        <time>2021-06-28T15:44:41.000Z</time>
        <extensions>
          <ns3:TrackPointExtension>
            <ns3:atemp>27.0</ns3:atemp>
            <ns3:hr>105</ns3:hr>
          </ns3:TrackPointExtension>
        </extensions>
      </trkpt>
      <trkpt lat="36.8643901683390140533447265625" lon="-118.52263404987752437591552734375">
        <ele>2126.39990234375</ele>
        <time>2021-06-28T15:44:42.000Z</time>
        <extensions>
          <ns3:TrackPointExtension>
            <ns3:atemp>27.0</ns3:atemp>
            <ns3:hr>105</ns3:hr>
          </ns3:TrackPointExtension>
        </extensions>
      </trkpt>
      <trkpt lat="36.864302158355712890625" lon="-118.52265332825481891632080078125">
        <ele>2125.39990234375</ele>
        <time>2021-06-28T15:44:49.000Z</time>
        <extensions>
          <ns3:TrackPointExtension>
            <ns3:atemp>27.0</ns3:atemp>
            <ns3:hr>103</ns3:hr>
          </ns3:TrackPointExtension>
        </extensions>
      </trkpt>
      <trkpt lat="36.86429612338542938232421875" lon="-118.52265517227351665496826171875">
        <ele>2125.39990234375</ele>
        <time>2021-06-28T15:44:50.000Z</time>
        <extensions>
          <ns3:TrackPointExtension>
            <ns3:atemp>27.0</ns3:atemp>
            <ns3:hr>99</ns3:hr>
          </ns3:TrackPointExtension>
        </extensions>
      </trkpt>
      <trkpt lat="36.86429612338542938232421875" lon="-118.52265517227351665496826171875">
        <ele>2125.199951171875</ele>
        <time>2021-06-28T15:44:51.000Z</time>
        <extensions>
          <ns3:TrackPointExtension>
            <ns3:atemp>27.0</ns3:atemp>
            <ns3:hr>102</ns3:hr>
          </ns3:TrackPointExtension>
        </extensions>
      </trkpt>
      <trkpt lat="36.86427793465554714202880859375" lon="-118.5226688347756862640380859375">
        <ele>2125</ele>
        <time>2021-06-28T15:44:52.000Z</time>
        <extensions>
          <ns3:TrackPointExtension>
            <ns3:atemp>27.0</ns3:atemp>
            <ns3:hr>101</ns3:hr>
          </ns3:TrackPointExtension>
        </extensions>
      </trkpt>
      <trkpt lat="36.864258237183094024658203125" lon="-118.52268040180206298828125">
        <ele>2125</ele>
        <time>2021-06-28T15:44:56.000Z</time>
        <extensions>
          <ns3:TrackPointExtension>
            <ns3:atemp>27.0</ns3:atemp>
            <ns3:hr>98</ns3:hr>
          </ns3:TrackPointExtension>
        </extensions>
      </trkpt>
      <trkpt lat="36.8642708100378513336181640625" lon="-118.52267897687852382659912109375">
        <ele>2124.60009765625</ele>
        <time>2021-06-28T15:45:00.000Z</time>
        <extensions>
          <ns3:TrackPointExtension>
            <ns3:atemp>27.0</ns3:atemp>
            <ns3:hr>95</ns3:hr>
          </ns3:TrackPointExtension>
        </extensions>
      </trkpt>
      <trkpt lat="36.864261925220489501953125" lon="-118.52268777787685394287109375">
        <ele>2124.60009765625</ele>
        <time>2021-06-28T15:45:03.000Z</time>
        <extensions>
          <ns3:TrackPointExtension>
            <ns3:atemp>27.0</ns3:atemp>
            <ns3:hr>92</ns3:hr>
          </ns3:TrackPointExtension>
        </extensions>
      </trkpt>
      <trkpt lat="36.864219009876251220703125" lon="-118.52270898409187793731689453125">
        <ele>2124.60009765625</ele>
        <time>2021-06-28T15:45:13.000Z</time>
        <extensions>
          <ns3:TrackPointExtension>
            <ns3:atemp>27.0</ns3:atemp>
            <ns3:hr>91</ns3:hr>
          </ns3:TrackPointExtension>
        </extensions>
      </trkpt>
      <trkpt lat="36.86412991024553775787353515625" lon="-118.52277805097401142120361328125">
        <ele>2124.60009765625</ele>
        <time>2021-06-28T15:45:20.000Z</time>
        <extensions>
          <ns3:TrackPointExtension>
            <ns3:atemp>27.0</ns3:atemp>
            <ns3:hr>90</ns3:hr>
          </ns3:TrackPointExtension>
        </extensions>
      </trkpt>
      <trkpt lat="36.86409554444253444671630859375" lon="-118.5228093154728412628173828125">
        <ele>2124.199951171875</ele>
        <time>2021-06-28T15:45:23.000Z</time>
        <extensions>
          <ns3:TrackPointExtension>
            <ns3:atemp>27.0</ns3:atemp>
            <ns3:hr>93</ns3:hr>
          </ns3:TrackPointExtension>
        </extensions>
      </trkpt>
      <trkpt lat="36.86409554444253444671630859375" lon="-118.5228093154728412628173828125">
        <ele>2123.800048828125</ele>
        <time>2021-06-28T15:45:24.000Z</time>
        <extensions>
          <ns3:TrackPointExtension>
            <ns3:atemp>27.0</ns3:atemp>
            <ns3:hr>93</ns3:hr>
          </ns3:TrackPointExtension>
        </extensions>
      </trkpt>
      <trkpt lat="36.8640746735036373138427734375" lon="-118.52283102460205554962158203125">
        <ele>2123.39990234375</ele>
        <time>2021-06-28T15:45:25.000Z</time>
        <extensions>
          <ns3:TrackPointExtension>
            <ns3:atemp>27.0</ns3:atemp>
            <ns3:hr>93</ns3:hr>
          </ns3:TrackPointExtension>
        </extensions>
      </trkpt>
      <trkpt lat="36.86406050808727741241455078125" lon="-118.52286815643310546875">
        <ele>2122.800048828125</ele>
        <time>2021-06-28T15:45:30.000Z</time>
        <extensions>
          <ns3:TrackPointExtension>
            <ns3:atemp>27.0</ns3:atemp>
            <ns3:hr>92</ns3:hr>
          </ns3:TrackPointExtension>
        </extensions>
      </trkpt>
      <trkpt lat="36.86405950225889682769775390625" lon="-118.52286321111023426055908203125">
        <ele>2122.39990234375</ele>
        <time>2021-06-28T15:45:31.000Z</time>
        <extensions>
          <ns3:TrackPointExtension>
            <ns3:atemp>27.0</ns3:atemp>
            <ns3:hr>91</ns3:hr>
          </ns3:TrackPointExtension>
        </extensions>
      </trkpt>
      <trkpt lat="36.8640465103089809417724609375" lon="-118.5228331200778484344482421875">
        <ele>2122</ele>
        <time>2021-06-28T15:45:35.000Z</time>
        <extensions>
          <ns3:TrackPointExtension>
            <ns3:atemp>27.0</ns3:atemp>
            <ns3:hr>91</ns3:hr>
          </ns3:TrackPointExtension>
        </extensions>
      </trkpt>
      <trkpt lat="36.864035613834857940673828125" lon="-118.52283253334462642669677734375">
        <ele>2121.60009765625</ele>
        <time>2021-06-28T15:45:36.000Z</time>
        <extensions>
          <ns3:TrackPointExtension>
            <ns3:atemp>27.0</ns3:atemp>
            <ns3:hr>91</ns3:hr>
          </ns3:TrackPointExtension>
        </extensions>
      </trkpt>
      <trkpt lat="36.86401088722050189971923828125" lon="-118.52282515726983547210693359375">
        <ele>2121.199951171875</ele>
        <time>2021-06-28T15:45:38.000Z</time>
        <extensions>
          <ns3:TrackPointExtension>
            <ns3:atemp>27.0</ns3:atemp>
            <ns3:hr>92</ns3:hr>
          </ns3:TrackPointExtension>
        </extensions>
      </trkpt>
      <trkpt lat="36.8639727495610713958740234375" lon="-118.52284711785614490509033203125">
        <ele>2120.800048828125</ele>
        <time>2021-06-28T15:45:42.000Z</time>
        <extensions>
          <ns3:TrackPointExtension>
            <ns3:atemp>27.0</ns3:atemp>
            <ns3:hr>92</ns3:hr>
          </ns3:TrackPointExtension>
        </extensions>
      </trkpt>
      <trkpt lat="36.863961853086948394775390625" lon="-118.5228673182427883148193359375">
        <ele>2120.199951171875</ele>
        <time>2021-06-28T15:45:43.000Z</time>
        <extensions>
          <ns3:TrackPointExtension>
            <ns3:atemp>27.0</ns3:atemp>
            <ns3:hr>92</ns3:hr>
          </ns3:TrackPointExtension>
        </extensions>
      </trkpt>
      <trkpt lat="36.86393142677843570709228515625" lon="-118.5228881053626537322998046875">
        <ele>2120.199951171875</ele>
        <time>2021-06-28T15:45:45.000Z</time>
        <extensions>
          <ns3:TrackPointExtension>
            <ns3:atemp>27.0</ns3:atemp>
            <ns3:hr>92</ns3:hr>
          </ns3:TrackPointExtension>
        </extensions>
      </trkpt>
      <trkpt lat="36.8639154173433780670166015625" lon="-118.52290310896933078765869140625">
        <ele>2120</ele>
        <time>2021-06-28T15:45:46.000Z</time>
        <extensions>
          <ns3:TrackPointExtension>
            <ns3:atemp>28.0</ns3:atemp>
            <ns3:hr>94</ns3:hr>
          </ns3:TrackPointExtension>
        </extensions>
      </trkpt>
      <trkpt lat="36.86387375928461551666259765625" lon="-118.5229387320578098297119140625">
        <ele>2120</ele>
        <time>2021-06-28T15:45:49.000Z</time>
        <extensions>
          <ns3:TrackPointExtension>
            <ns3:atemp>28.0</ns3:atemp>
            <ns3:hr>93</ns3:hr>
          </ns3:TrackPointExtension>
        </extensions>
      </trkpt>
      <trkpt lat="36.8638691492378711700439453125" lon="-118.52298416197299957275390625">
        <ele>2120</ele>
        <time>2021-06-28T15:45:52.000Z</time>
        <extensions>
          <ns3:TrackPointExtension>
            <ns3:atemp>28.0</ns3:atemp>
            <ns3:hr>92</ns3:hr>
          </ns3:TrackPointExtension>
        </extensions>
      </trkpt>
      <trkpt lat="36.86386537738144397735595703125" lon="-118.52307862602174282073974609375">
        <ele>2118.800048828125</ele>
        <time>2021-06-28T15:45:56.000Z</time>
        <extensions>
          <ns3:TrackPointExtension>
            <ns3:atemp>28.0</ns3:atemp>
            <ns3:hr>91</ns3:hr>
          </ns3:TrackPointExtension>
        </extensions>
      </trkpt>
      <trkpt lat="36.86383369378745555877685546875" lon="-118.52314216084778308868408203125">
        <ele>2118</ele>
        <time>2021-06-28T15:46:01.000Z</time>
        <extensions>
          <ns3:TrackPointExtension>
            <ns3:atemp>28.0</ns3:atemp>
            <ns3:hr>90</ns3:hr>
          </ns3:TrackPointExtension>
        </extensions>
      </trkpt>
      <trkpt lat="36.86383218504488468170166015625" lon="-118.52315775118768215179443359375">
        <ele>2117.60009765625</ele>
        <time>2021-06-28T15:46:02.000Z</time>
        <extensions>
          <ns3:TrackPointExtension>
            <ns3:atemp>28.0</ns3:atemp>
            <ns3:hr>90</ns3:hr>
          </ns3:TrackPointExtension>
        </extensions>
      </trkpt>
      <trkpt lat="36.863811649382114410400390625" lon="-118.523201085627079010009765625">
        <ele>2116.39990234375</ele>
        <time>2021-06-28T15:46:06.000Z</time>
        <extensions>
          <ns3:TrackPointExtension>
            <ns3:atemp>28.0</ns3:atemp>
            <ns3:hr>88</ns3:hr>
          </ns3:TrackPointExtension>
        </extensions>
      </trkpt>
      <trkpt lat="36.86381240375339984893798828125" lon="-118.5232227109372615814208984375">
        <ele>2115.800048828125</ele>
        <time>2021-06-28T15:46:08.000Z</time>
        <extensions>
          <ns3:TrackPointExtension>
            <ns3:atemp>28.0</ns3:atemp>
            <ns3:hr>87</ns3:hr>
          </ns3:TrackPointExtension>
        </extensions>
      </trkpt>
      <trkpt lat="36.8637953884899616241455078125" lon="-118.5232351161539554595947265625">
        <ele>2115.199951171875</ele>
        <time>2021-06-28T15:46:11.000Z</time>
        <extensions>
          <ns3:TrackPointExtension>
            <ns3:atemp>28.0</ns3:atemp>
            <ns3:hr>86</ns3:hr>
          </ns3:TrackPointExtension>
        </extensions>
      </trkpt>
      <trkpt lat="36.86375976540148258209228515625" lon="-118.523241318762302398681640625">
        <ele>2114.60009765625</ele>
        <time>2021-06-28T15:46:14.000Z</time>
        <extensions>
          <ns3:TrackPointExtension>
            <ns3:atemp>28.0</ns3:atemp>
            <ns3:hr>85</ns3:hr>
          </ns3:TrackPointExtension>
        </extensions>
      </trkpt>
      <trkpt lat="36.86375389806926250457763671875" lon="-118.52323972620069980621337890625">
        <ele>2114.199951171875</ele>
        <time>2021-06-28T15:46:16.000Z</time>
        <extensions>
          <ns3:TrackPointExtension>
            <ns3:atemp>28.0</ns3:atemp>
            <ns3:hr>84</ns3:hr>
          </ns3:TrackPointExtension>
        </extensions>
      </trkpt>
      <trkpt lat="36.8637424148619174957275390625" lon="-118.5232347808778285980224609375">
        <ele>2114</ele>
        <time>2021-06-28T15:46:17.000Z</time>
        <extensions>
          <ns3:TrackPointExtension>
            <ns3:atemp>28.0</ns3:atemp>
            <ns3:hr>83</ns3:hr>
          </ns3:TrackPointExtension>
        </extensions>
      </trkpt>
      <trkpt lat="36.86371584422886371612548828125" lon="-118.5232498683035373687744140625">
        <ele>2113.199951171875</ele>
        <time>2021-06-28T15:46:22.000Z</time>
        <extensions>
          <ns3:TrackPointExtension>
            <ns3:atemp>28.0</ns3:atemp>
            <ns3:hr>86</ns3:hr>
          </ns3:TrackPointExtension>
        </extensions>
      </trkpt>
      <trkpt lat="36.86367250978946685791015625" lon="-118.52329085581004619598388671875">
        <ele>2113</ele>
        <time>2021-06-28T15:46:26.000Z</time>
        <extensions>
          <ns3:TrackPointExtension>
            <ns3:atemp>28.0</ns3:atemp>
            <ns3:hr>86</ns3:hr>
          </ns3:TrackPointExtension>
        </extensions>
      </trkpt>
      <trkpt lat="36.86366186477243900299072265625" lon="-118.52329202927649021148681640625">
        <ele>2113</ele>
        <time>2021-06-28T15:46:28.000Z</time>
        <extensions>
          <ns3:TrackPointExtension>
            <ns3:atemp>28.0</ns3:atemp>
            <ns3:hr>86</ns3:hr>
          </ns3:TrackPointExtension>
        </extensions>
      </trkpt>
      <trkpt lat="36.8636414967477321624755859375" lon="-118.52331130765378475189208984375">
        <ele>2112.39990234375</ele>
        <time>2021-06-28T15:46:30.000Z</time>
        <extensions>
          <ns3:TrackPointExtension>
            <ns3:atemp>28.0</ns3:atemp>
            <ns3:hr>85</ns3:hr>
          </ns3:TrackPointExtension>
        </extensions>
      </trkpt>
      <trkpt lat="36.8636222183704376220703125" lon="-118.52333997376263141632080078125">
        <ele>2112.39990234375</ele>
        <time>2021-06-28T15:46:34.000Z</time>
        <extensions>
          <ns3:TrackPointExtension>
            <ns3:atemp>28.0</ns3:atemp>
            <ns3:hr>84</ns3:hr>
          </ns3:TrackPointExtension>
        </extensions>
      </trkpt>
      <trkpt lat="36.8635660596191883087158203125" lon="-118.5234376229345798492431640625">
        <ele>2112.199951171875</ele>
        <time>2021-06-28T15:46:40.000Z</time>
        <extensions>
          <ns3:TrackPointExtension>
            <ns3:atemp>28.0</ns3:atemp>
            <ns3:hr>84</ns3:hr>
          </ns3:TrackPointExtension>
        </extensions>
      </trkpt>
      <trkpt lat="36.86354854144155979156494140625" lon="-118.52348917163908481597900390625">
        <ele>2112.199951171875</ele>
        <time>2021-06-28T15:46:42.000Z</time>
        <extensions>
          <ns3:TrackPointExtension>
            <ns3:atemp>28.0</ns3:atemp>
            <ns3:hr>84</ns3:hr>
          </ns3:TrackPointExtension>
        </extensions>
      </trkpt>
      <trkpt lat="36.86354401521384716033935546875" lon="-118.52350928820669651031494140625">
        <ele>2112.199951171875</ele>
        <time>2021-06-28T15:46:43.000Z</time>
        <extensions>
          <ns3:TrackPointExtension>
            <ns3:atemp>28.0</ns3:atemp>
            <ns3:hr>84</ns3:hr>
          </ns3:TrackPointExtension>
        </extensions>
      </trkpt>
      <trkpt lat="36.86352741904556751251220703125" lon="-118.52352772839367389678955078125">
        <ele>2112.39990234375</ele>
        <time>2021-06-28T15:46:47.000Z</time>
        <extensions>
          <ns3:TrackPointExtension>
            <ns3:atemp>28.0</ns3:atemp>
            <ns3:hr>84</ns3:hr>
          </ns3:TrackPointExtension>
        </extensions>
      </trkpt>
      <trkpt lat="36.86352188698947429656982421875" lon="-118.52358019910752773284912109375">
        <ele>2112.39990234375</ele>
        <time>2021-06-28T15:46:51.000Z</time>
        <extensions>
          <ns3:TrackPointExtension>
            <ns3:atemp>28.0</ns3:atemp>
            <ns3:hr>85</ns3:hr>
          </ns3:TrackPointExtension>
        </extensions>
      </trkpt>
      <trkpt lat="36.8635181151330471038818359375" lon="-118.523603416979312896728515625">
        <ele>2112.39990234375</ele>
        <time>2021-06-28T15:46:52.000Z</time>
        <extensions>
          <ns3:TrackPointExtension>
            <ns3:atemp>28.0</ns3:atemp>
            <ns3:hr>84</ns3:hr>
          </ns3:TrackPointExtension>
        </extensions>
      </trkpt>
      <trkpt lat="36.8635167740285396575927734375" lon="-118.52365605533123016357421875">
        <ele>2112.800048828125</ele>
        <time>2021-06-28T15:46:56.000Z</time>
        <extensions>
          <ns3:TrackPointExtension>
            <ns3:atemp>28.0</ns3:atemp>
            <ns3:hr>86</ns3:hr>
          </ns3:TrackPointExtension>
        </extensions>
      </trkpt>
      <trkpt lat="36.86350562609732151031494140625" lon="-118.523708023130893707275390625">
        <ele>2113.199951171875</ele>
        <time>2021-06-28T15:47:01.000Z</time>
        <extensions>
          <ns3:TrackPointExtension>
            <ns3:atemp>28.0</ns3:atemp>
            <ns3:hr>88</ns3:hr>
          </ns3:TrackPointExtension>
        </extensions>
      </trkpt>
      <trkpt lat="36.8634979985654354095458984375" lon="-118.52375705726444721221923828125">
        <ele>2113.39990234375</ele>
        <time>2021-06-28T15:47:07.000Z</time>
        <extensions>
          <ns3:TrackPointExtension>
            <ns3:atemp>28.0</ns3:atemp>
            <ns3:hr>91</ns3:hr>
          </ns3:TrackPointExtension>
        </extensions>
      </trkpt>
      <trkpt lat="36.8634825758635997772216796875" lon="-118.52377281524240970611572265625">
        <ele>2113.39990234375</ele>
        <time>2021-06-28T15:47:09.000Z</time>
        <extensions>
          <ns3:TrackPointExtension>
            <ns3:atemp>28.0</ns3:atemp>
            <ns3:hr>92</ns3:hr>
          </ns3:TrackPointExtension>
        </extensions>
      </trkpt>
      <trkpt lat="36.8634720146656036376953125" lon="-118.52380533702671527862548828125">
        <ele>2113.39990234375</ele>
        <time>2021-06-28T15:47:11.000Z</time>
        <extensions>
          <ns3:TrackPointExtension>
            <ns3:atemp>28.0</ns3:atemp>
            <ns3:hr>96</ns3:hr>
          </ns3:TrackPointExtension>
        </extensions>
      </trkpt>
      <trkpt lat="36.86346706934273242950439453125" lon="-118.523838780820369720458984375">
        <ele>2113</ele>
        <time>2021-06-28T15:47:13.000Z</time>
        <extensions>
          <ns3:TrackPointExtension>
            <ns3:atemp>28.0</ns3:atemp>
            <ns3:hr>99</ns3:hr>
          </ns3:TrackPointExtension>
        </extensions>
      </trkpt>
      <trkpt lat="36.8634534068405628204345703125" lon="-118.523862250149250030517578125">
        <ele>2113</ele>
        <time>2021-06-28T15:47:14.000Z</time>
        <extensions>
          <ns3:TrackPointExtension>
            <ns3:atemp>28.0</ns3:atemp>
            <ns3:hr>99</ns3:hr>
          </ns3:TrackPointExtension>
        </extensions>
      </trkpt>
      <trkpt lat="36.8634534068405628204345703125" lon="-118.523862250149250030517578125">
        <ele>2113</ele>
        <time>2021-06-28T15:47:15.000Z</time>
        <extensions>
          <ns3:TrackPointExtension>
            <ns3:atemp>28.0</ns3:atemp>
            <ns3:hr>102</ns3:hr>
          </ns3:TrackPointExtension>
        </extensions>
      </trkpt>
      <trkpt lat="36.8634420074522495269775390625" lon="-118.52386401034891605377197265625">
        <ele>2113</ele>
        <time>2021-06-28T15:47:16.000Z</time>
        <extensions>
          <ns3:TrackPointExtension>
            <ns3:atemp>28.0</ns3:atemp>
            <ns3:hr>99</ns3:hr>
          </ns3:TrackPointExtension>
        </extensions>
      </trkpt>
      <trkpt lat="36.86340026557445526123046875" lon="-118.52392268367111682891845703125">
        <ele>2112.800048828125</ele>
        <time>2021-06-28T15:47:20.000Z</time>
        <extensions>
          <ns3:TrackPointExtension>
            <ns3:atemp>28.0</ns3:atemp>
            <ns3:hr>98</ns3:hr>
          </ns3:TrackPointExtension>
        </extensions>
      </trkpt>
      <trkpt lat="36.86335860751569271087646484375" lon="-118.5239861346781253814697265625">
        <ele>2112.800048828125</ele>
        <time>2021-06-28T15:47:23.000Z</time>
        <extensions>
          <ns3:TrackPointExtension>
            <ns3:atemp>28.0</ns3:atemp>
            <ns3:hr>97</ns3:hr>
          </ns3:TrackPointExtension>
        </extensions>
      </trkpt>
      <trkpt lat="36.8633057177066802978515625" lon="-118.524098955094814300537109375">
        <ele>2112</ele>
        <time>2021-06-28T15:47:30.000Z</time>
        <extensions>
          <ns3:TrackPointExtension>
            <ns3:atemp>28.0</ns3:atemp>
            <ns3:hr>97</ns3:hr>
          </ns3:TrackPointExtension>
        </extensions>
      </trkpt>
      <trkpt lat="36.863292641937732696533203125" lon="-118.52409970946609973907470703125">
        <ele>2111.800048828125</ele>
        <time>2021-06-28T15:47:32.000Z</time>
        <extensions>
          <ns3:TrackPointExtension>
            <ns3:atemp>28.0</ns3:atemp>
            <ns3:hr>94</ns3:hr>
          </ns3:TrackPointExtension>
        </extensions>
      </trkpt>
      <trkpt lat="36.86322567053139209747314453125" lon="-118.5241933353245258331298828125">
        <ele>2111.199951171875</ele>
        <time>2021-06-28T15:47:38.000Z</time>
        <extensions>
          <ns3:TrackPointExtension>
            <ns3:atemp>28.0</ns3:atemp>
            <ns3:hr>92</ns3:hr>
          </ns3:TrackPointExtension>
        </extensions>
      </trkpt>
      <trkpt lat="36.86318811960518360137939453125" lon="-118.524269275367259979248046875">
        <ele>2110.800048828125</ele>
        <time>2021-06-28T15:47:43.000Z</time>
        <extensions>
          <ns3:TrackPointExtension>
            <ns3:atemp>28.0</ns3:atemp>
            <ns3:hr>91</ns3:hr>
          </ns3:TrackPointExtension>
        </extensions>
      </trkpt>
      <trkpt lat="36.86316146515309810638427734375" lon="-118.52432065643370151519775390625">
        <ele>2110.199951171875</ele>
        <time>2021-06-28T15:47:47.000Z</time>
        <extensions>
          <ns3:TrackPointExtension>
            <ns3:atemp>28.0</ns3:atemp>
            <ns3:hr>92</ns3:hr>
          </ns3:TrackPointExtension>
        </extensions>
      </trkpt>
      <trkpt lat="36.8631523288786411285400390625" lon="-118.5243700258433818817138671875">
        <ele>2109.60009765625</ele>
        <time>2021-06-28T15:47:51.000Z</time>
        <extensions>
          <ns3:TrackPointExtension>
            <ns3:atemp>28.0</ns3:atemp>
            <ns3:hr>91</ns3:hr>
          </ns3:TrackPointExtension>
        </extensions>
      </trkpt>
      <trkpt lat="36.86313229613006114959716796875" lon="-118.5243760608136653900146484375">
        <ele>2109.199951171875</ele>
        <time>2021-06-28T15:47:52.000Z</time>
        <extensions>
          <ns3:TrackPointExtension>
            <ns3:atemp>28.0</ns3:atemp>
            <ns3:hr>91</ns3:hr>
          </ns3:TrackPointExtension>
        </extensions>
      </trkpt>
      <trkpt lat="36.86309139244258403778076171875" lon="-118.5244035534560680389404296875">
        <ele>2108.60009765625</ele>
        <time>2021-06-28T15:47:57.000Z</time>
        <extensions>
          <ns3:TrackPointExtension>
            <ns3:atemp>28.0</ns3:atemp>
            <ns3:hr>91</ns3:hr>
          </ns3:TrackPointExtension>
        </extensions>
      </trkpt>
      <trkpt lat="36.86304328031837940216064453125" lon="-118.52444638498127460479736328125">
        <ele>2107.800048828125</ele>
        <time>2021-06-28T15:48:03.000Z</time>
        <extensions>
          <ns3:TrackPointExtension>
            <ns3:atemp>28.0</ns3:atemp>
            <ns3:hr>91</ns3:hr>
          </ns3:TrackPointExtension>
        </extensions>
      </trkpt>
      <trkpt lat="36.863002963364124298095703125" lon="-118.5244578681886196136474609375">
        <ele>2107.60009765625</ele>
        <time>2021-06-28T15:48:07.000Z</time>
        <extensions>
          <ns3:TrackPointExtension>
            <ns3:atemp>28.0</ns3:atemp>
            <ns3:hr>91</ns3:hr>
          </ns3:TrackPointExtension>
        </extensions>
      </trkpt>
      <trkpt lat="36.86290564946830272674560546875" lon="-118.52450254373252391815185546875">
        <ele>2106.60009765625</ele>
        <time>2021-06-28T15:48:16.000Z</time>
        <extensions>
          <ns3:TrackPointExtension>
            <ns3:atemp>28.0</ns3:atemp>
            <ns3:hr>90</ns3:hr>
          </ns3:TrackPointExtension>
        </extensions>
      </trkpt>
      <trkpt lat="36.86289475299417972564697265625" lon="-118.524507321417331695556640625">
        <ele>2106.39990234375</ele>
        <time>2021-06-28T15:48:17.000Z</time>
        <extensions>
          <ns3:TrackPointExtension>
            <ns3:atemp>28.0</ns3:atemp>
            <ns3:hr>89</ns3:hr>
          </ns3:TrackPointExtension>
        </extensions>
      </trkpt>
      <trkpt lat="36.8628720380365848541259765625" lon="-118.5245554335415363311767578125">
        <ele>2106</ele>
        <time>2021-06-28T15:48:20.000Z</time>
        <extensions>
          <ns3:TrackPointExtension>
            <ns3:atemp>28.0</ns3:atemp>
            <ns3:hr>87</ns3:hr>
          </ns3:TrackPointExtension>
        </extensions>
      </trkpt>
      <trkpt lat="36.8628643266856670379638671875" lon="-118.524573706090450286865234375">
        <ele>2105.39990234375</ele>
        <time>2021-06-28T15:48:22.000Z</time>
        <extensions>
          <ns3:TrackPointExtension>
            <ns3:atemp>28.0</ns3:atemp>
            <ns3:hr>86</ns3:hr>
          </ns3:TrackPointExtension>
        </extensions>
      </trkpt>
      <trkpt lat="36.862852759659290313720703125" lon="-118.524591140449047088623046875">
        <ele>2105.39990234375</ele>
        <time>2021-06-28T15:48:23.000Z</time>
        <extensions>
          <ns3:TrackPointExtension>
            <ns3:atemp>28.0</ns3:atemp>
            <ns3:hr>85</ns3:hr>
          </ns3:TrackPointExtension>
        </extensions>
      </trkpt>
      <trkpt lat="36.86284010298550128936767578125" lon="-118.524588458240032196044921875">
        <ele>2105.199951171875</ele>
        <time>2021-06-28T15:48:24.000Z</time>
        <extensions>
          <ns3:TrackPointExtension>
            <ns3:atemp>28.0</ns3:atemp>
            <ns3:hr>84</ns3:hr>
          </ns3:TrackPointExtension>
        </extensions>
      </trkpt>
      <trkpt lat="36.86277355067431926727294921875" lon="-118.52457546629011631011962890625">
        <ele>2104.60009765625</ele>
        <time>2021-06-28T15:48:30.000Z</time>
        <extensions>
          <ns3:TrackPointExtension>
            <ns3:atemp>28.0</ns3:atemp>
            <ns3:hr>84</ns3:hr>
          </ns3:TrackPointExtension>
        </extensions>
      </trkpt>
      <trkpt lat="36.862770617008209228515625" lon="-118.5245765559375286102294921875">
        <ele>2104.39990234375</ele>
        <time>2021-06-28T15:48:32.000Z</time>
        <extensions>
          <ns3:TrackPointExtension>
            <ns3:atemp>28.0</ns3:atemp>
            <ns3:hr>82</ns3:hr>
          </ns3:TrackPointExtension>
        </extensions>
      </trkpt>
      <trkpt lat="36.86274840496480464935302734375" lon="-118.5245715267956256866455078125">
        <ele>2104.39990234375</ele>
        <time>2021-06-28T15:48:35.000Z</time>
        <extensions>
          <ns3:TrackPointExtension>
            <ns3:atemp>28.0</ns3:atemp>
            <ns3:hr>82</ns3:hr>
          </ns3:TrackPointExtension>
        </extensions>
      </trkpt>
      <trkpt lat="36.8626995384693145751953125" lon="-118.52451595477759838104248046875">
        <ele>2104</ele>
        <time>2021-06-28T15:48:39.000Z</time>
        <extensions>
          <ns3:TrackPointExtension>
            <ns3:atemp>28.0</ns3:atemp>
            <ns3:hr>82</ns3:hr>
          </ns3:TrackPointExtension>
        </extensions>
      </trkpt>
      <trkpt lat="36.86267749406397342681884765625" lon="-118.524511344730854034423828125">
        <ele>2103.800048828125</ele>
        <time>2021-06-28T15:48:41.000Z</time>
        <extensions>
          <ns3:TrackPointExtension>
            <ns3:atemp>28.0</ns3:atemp>
            <ns3:hr>80</ns3:hr>
          </ns3:TrackPointExtension>
        </extensions>
      </trkpt>
      <trkpt lat="36.862616054713726043701171875" lon="-118.52449097670614719390869140625">
        <ele>2102.800048828125</ele>
        <time>2021-06-28T15:48:47.000Z</time>
        <extensions>
          <ns3:TrackPointExtension>
            <ns3:atemp>28.0</ns3:atemp>
            <ns3:hr>78</ns3:hr>
          </ns3:TrackPointExtension>
        </extensions>
      </trkpt>
      <trkpt lat="36.8625927530229091644287109375" lon="-118.52450899779796600341796875">
        <ele>2102.60009765625</ele>
        <time>2021-06-28T15:48:49.000Z</time>
        <extensions>
          <ns3:TrackPointExtension>
            <ns3:atemp>28.0</ns3:atemp>
            <ns3:hr>78</ns3:hr>
          </ns3:TrackPointExtension>
        </extensions>
      </trkpt>
      <trkpt lat="36.86256743967533111572265625" lon="-118.5245416872203350067138671875">
        <ele>2101.60009765625</ele>
        <time>2021-06-28T15:48:53.000Z</time>
        <extensions>
          <ns3:TrackPointExtension>
            <ns3:atemp>28.0</ns3:atemp>
            <ns3:hr>77</ns3:hr>
          </ns3:TrackPointExtension>
        </extensions>
      </trkpt>
      <trkpt lat="36.8625649251043796539306640625" lon="-118.5245458781719207763671875">
        <ele>2101.60009765625</ele>
        <time>2021-06-28T15:48:54.000Z</time>
        <extensions>
          <ns3:TrackPointExtension>
            <ns3:atemp>28.0</ns3:atemp>
            <ns3:hr>77</ns3:hr>
          </ns3:TrackPointExtension>
        </extensions>
      </trkpt>
      <trkpt lat="36.86245612800121307373046875" lon="-118.5246154479682445526123046875">
        <ele>2101.199951171875</ele>
        <time>2021-06-28T15:49:03.000Z</time>
        <extensions>
          <ns3:TrackPointExtension>
            <ns3:atemp>28.0</ns3:atemp>
            <ns3:hr>80</ns3:hr>
          </ns3:TrackPointExtension>
        </extensions>
      </trkpt>
      <trkpt lat="36.8624412082135677337646484375" lon="-118.52464453317224979400634765625">
        <ele>2101.199951171875</ele>
        <time>2021-06-28T15:49:05.000Z</time>
        <extensions>
          <ns3:TrackPointExtension>
            <ns3:atemp>28.0</ns3:atemp>
            <ns3:hr>81</ns3:hr>
          </ns3:TrackPointExtension>
        </extensions>
      </trkpt>
      <trkpt lat="36.862422265112400054931640625" lon="-118.5246853530406951904296875">
        <ele>2101.199951171875</ele>
        <time>2021-06-28T15:49:09.000Z</time>
        <extensions>
          <ns3:TrackPointExtension>
            <ns3:atemp>28.0</ns3:atemp>
            <ns3:hr>81</ns3:hr>
          </ns3:TrackPointExtension>
        </extensions>
      </trkpt>
      <trkpt lat="36.86241857707500457763671875" lon="-118.5246955789625644683837890625">
        <ele>2101.199951171875</ele>
        <time>2021-06-28T15:49:10.000Z</time>
        <extensions>
          <ns3:TrackPointExtension>
            <ns3:atemp>28.0</ns3:atemp>
            <ns3:hr>78</ns3:hr>
          </ns3:TrackPointExtension>
        </extensions>
      </trkpt>
      <trkpt lat="36.8624150566756725311279296875" lon="-118.524716198444366455078125">
        <ele>2101</ele>
        <time>2021-06-28T15:49:11.000Z</time>
        <extensions>
          <ns3:TrackPointExtension>
            <ns3:atemp>28.0</ns3:atemp>
            <ns3:hr>78</ns3:hr>
          </ns3:TrackPointExtension>
        </extensions>
      </trkpt>
      <trkpt lat="36.8624150566756725311279296875" lon="-118.524716198444366455078125">
        <ele>2100.60009765625</ele>
        <time>2021-06-28T15:49:12.000Z</time>
        <extensions>
          <ns3:TrackPointExtension>
            <ns3:atemp>28.0</ns3:atemp>
            <ns3:hr>81</ns3:hr>
          </ns3:TrackPointExtension>
        </extensions>
      </trkpt>
      <trkpt lat="36.86241799034178256988525390625" lon="-118.524757437407970428466796875">
        <ele>2100.39990234375</ele>
        <time>2021-06-28T15:49:14.000Z</time>
        <extensions>
          <ns3:TrackPointExtension>
            <ns3:atemp>28.0</ns3:atemp>
            <ns3:hr>83</ns3:hr>
          </ns3:TrackPointExtension>
        </extensions>
      </trkpt>
      <trkpt lat="36.86241799034178256988525390625" lon="-118.524757437407970428466796875">
        <ele>2100.39990234375</ele>
        <time>2021-06-28T15:49:15.000Z</time>
        <extensions>
          <ns3:TrackPointExtension>
            <ns3:atemp>28.0</ns3:atemp>
            <ns3:hr>84</ns3:hr>
          </ns3:TrackPointExtension>
        </extensions>
      </trkpt>
      <trkpt lat="36.86245906166732311248779296875" lon="-118.52480948902666568756103515625">
        <ele>2099.800048828125</ele>
        <time>2021-06-28T15:49:24.000Z</time>
        <extensions>
          <ns3:TrackPointExtension>
            <ns3:atemp>28.0</ns3:atemp>
            <ns3:hr>83</ns3:hr>
          </ns3:TrackPointExtension>
        </extensions>
      </trkpt>
      <trkpt lat="36.86245755292475223541259765625" lon="-118.5248491354286670684814453125">
        <ele>2099.800048828125</ele>
        <time>2021-06-28T15:49:27.000Z</time>
        <extensions>
          <ns3:TrackPointExtension>
            <ns3:atemp>28.0</ns3:atemp>
            <ns3:hr>80</ns3:hr>
          </ns3:TrackPointExtension>
        </extensions>
      </trkpt>
      <trkpt lat="36.86245839111506938934326171875" lon="-118.52488584816455841064453125">
        <ele>2099.800048828125</ele>
        <time>2021-06-28T15:49:28.000Z</time>
        <extensions>
          <ns3:TrackPointExtension>
            <ns3:atemp>28.0</ns3:atemp>
            <ns3:hr>79</ns3:hr>
          </ns3:TrackPointExtension>
        </extensions>
      </trkpt>
      <trkpt lat="36.86245076358318328857421875" lon="-118.5249240696430206298828125">
        <ele>2099.60009765625</ele>
        <time>2021-06-28T15:49:31.000Z</time>
        <extensions>
          <ns3:TrackPointExtension>
            <ns3:atemp>28.0</ns3:atemp>
            <ns3:hr>76</ns3:hr>
          </ns3:TrackPointExtension>
        </extensions>
      </trkpt>
      <trkpt lat="36.8624495901167392730712890625" lon="-118.52493546903133392333984375">
        <ele>2099.39990234375</ele>
        <time>2021-06-28T15:49:33.000Z</time>
        <extensions>
          <ns3:TrackPointExtension>
            <ns3:atemp>28.0</ns3:atemp>
            <ns3:hr>76</ns3:hr>
          </ns3:TrackPointExtension>
        </extensions>
      </trkpt>
      <trkpt lat="36.8624495901167392730712890625" lon="-118.52493546903133392333984375">
        <ele>2099.199951171875</ele>
        <time>2021-06-28T15:49:34.000Z</time>
        <extensions>
          <ns3:TrackPointExtension>
            <ns3:atemp>28.0</ns3:atemp>
            <ns3:hr>76</ns3:hr>
          </ns3:TrackPointExtension>
        </extensions>
      </trkpt>
      <trkpt lat="36.8624398671090602874755859375" lon="-118.5250201262533664703369140625">
        <ele>2098.60009765625</ele>
        <time>2021-06-28T15:49:40.000Z</time>
        <extensions>
          <ns3:TrackPointExtension>
            <ns3:atemp>28.0</ns3:atemp>
            <ns3:hr>77</ns3:hr>
          </ns3:TrackPointExtension>
        </extensions>
      </trkpt>
      <trkpt lat="36.8624341674149036407470703125" lon="-118.52503529749810695648193359375">
        <ele>2098.39990234375</ele>
        <time>2021-06-28T15:49:41.000Z</time>
        <extensions>
          <ns3:TrackPointExtension>
            <ns3:atemp>28.0</ns3:atemp>
            <ns3:hr>78</ns3:hr>
          </ns3:TrackPointExtension>
        </extensions>
      </trkpt>
      <trkpt lat="36.8624180741608142852783203125" lon="-118.5250469483435153961181640625">
        <ele>2097.60009765625</ele>
        <time>2021-06-28T15:49:42.000Z</time>
        <extensions>
          <ns3:TrackPointExtension>
            <ns3:atemp>28.0</ns3:atemp>
            <ns3:hr>78</ns3:hr>
          </ns3:TrackPointExtension>
        </extensions>
      </trkpt>
      <trkpt lat="36.8624180741608142852783203125" lon="-118.5250469483435153961181640625">
        <ele>2097.39990234375</ele>
        <time>2021-06-28T15:49:43.000Z</time>
        <extensions>
          <ns3:TrackPointExtension>
            <ns3:atemp>28.0</ns3:atemp>
            <ns3:hr>79</ns3:hr>
          </ns3:TrackPointExtension>
        </extensions>
      </trkpt>
      <trkpt lat="36.86239452101290225982666015625" lon="-118.5250888578593730926513671875">
        <ele>2097.199951171875</ele>
        <time>2021-06-28T15:49:46.000Z</time>
        <extensions>
          <ns3:TrackPointExtension>
            <ns3:atemp>28.0</ns3:atemp>
            <ns3:hr>79</ns3:hr>
          </ns3:TrackPointExtension>
        </extensions>
      </trkpt>
      <trkpt lat="36.86236769892275333404541015625" lon="-118.52513127028942108154296875">
        <ele>2096.60009765625</ele>
        <time>2021-06-28T15:49:50.000Z</time>
        <extensions>
          <ns3:TrackPointExtension>
            <ns3:atemp>28.0</ns3:atemp>
            <ns3:hr>81</ns3:hr>
          </ns3:TrackPointExtension>
        </extensions>
      </trkpt>
      <trkpt lat="36.86233668588101863861083984375" lon="-118.52518717758357524871826171875">
        <ele>2095.800048828125</ele>
        <time>2021-06-28T15:49:53.000Z</time>
        <extensions>
          <ns3:TrackPointExtension>
            <ns3:atemp>28.0</ns3:atemp>
            <ns3:hr>83</ns3:hr>
          </ns3:TrackPointExtension>
        </extensions>
      </trkpt>
      <trkpt lat="36.8623079359531402587890625" lon="-118.5251998342573642730712890625">
        <ele>2095.39990234375</ele>
        <time>2021-06-28T15:49:55.000Z</time>
        <extensions>
          <ns3:TrackPointExtension>
            <ns3:atemp>28.0</ns3:atemp>
            <ns3:hr>86</ns3:hr>
          </ns3:TrackPointExtension>
        </extensions>
      </trkpt>
      <trkpt lat="36.8623079359531402587890625" lon="-118.5251998342573642730712890625">
        <ele>2095.199951171875</ele>
        <time>2021-06-28T15:49:56.000Z</time>
        <extensions>
          <ns3:TrackPointExtension>
            <ns3:atemp>28.0</ns3:atemp>
            <ns3:hr>87</ns3:hr>
          </ns3:TrackPointExtension>
        </extensions>
      </trkpt>
      <trkpt lat="36.86229494400322437286376953125" lon="-118.5252112336456775665283203125">
        <ele>2094.60009765625</ele>
        <time>2021-06-28T15:49:57.000Z</time>
        <extensions>
          <ns3:TrackPointExtension>
            <ns3:atemp>28.0</ns3:atemp>
            <ns3:hr>88</ns3:hr>
          </ns3:TrackPointExtension>
        </extensions>
      </trkpt>
      <trkpt lat="36.86228890903294086456298828125" lon="-118.52520679123699665069580078125">
        <ele>2094.60009765625</ele>
        <time>2021-06-28T15:49:58.000Z</time>
        <extensions>
          <ns3:TrackPointExtension>
            <ns3:atemp>28.0</ns3:atemp>
            <ns3:hr>89</ns3:hr>
          </ns3:TrackPointExtension>
        </extensions>
      </trkpt>
      <trkpt lat="36.86226158402860164642333984375" lon="-118.52518516592681407928466796875">
        <ele>2094.199951171875</ele>
        <time>2021-06-28T15:50:01.000Z</time>
        <extensions>
          <ns3:TrackPointExtension>
            <ns3:atemp>28.0</ns3:atemp>
            <ns3:hr>88</ns3:hr>
          </ns3:TrackPointExtension>
        </extensions>
      </trkpt>
      <trkpt lat="36.86222202144563198089599609375" lon="-118.52514174766838550567626953125">
        <ele>2093.60009765625</ele>
        <time>2021-06-28T15:50:05.000Z</time>
        <extensions>
          <ns3:TrackPointExtension>
            <ns3:atemp>28.0</ns3:atemp>
            <ns3:hr>85</ns3:hr>
          </ns3:TrackPointExtension>
        </extensions>
      </trkpt>
      <trkpt lat="36.8622034974396228790283203125" lon="-118.5251287557184696197509765625">
        <ele>2093.199951171875</ele>
        <time>2021-06-28T15:50:08.000Z</time>
        <extensions>
          <ns3:TrackPointExtension>
            <ns3:atemp>28.0</ns3:atemp>
            <ns3:hr>83</ns3:hr>
          </ns3:TrackPointExtension>
        </extensions>
      </trkpt>
      <trkpt lat="36.86215647496283054351806640625" lon="-118.5250850021839141845703125">
        <ele>2093.199951171875</ele>
        <time>2021-06-28T15:50:10.000Z</time>
        <extensions>
          <ns3:TrackPointExtension>
            <ns3:atemp>28.0</ns3:atemp>
            <ns3:hr>83</ns3:hr>
          </ns3:TrackPointExtension>
        </extensions>
      </trkpt>
      <trkpt lat="36.862119175493717193603515625" lon="-118.52509296499192714691162109375">
        <ele>2093</ele>
        <time>2021-06-28T15:50:14.000Z</time>
        <extensions>
          <ns3:TrackPointExtension>
            <ns3:atemp>28.0</ns3:atemp>
            <ns3:hr>86</ns3:hr>
          </ns3:TrackPointExtension>
        </extensions>
      </trkpt>
      <trkpt lat="36.86207366175949573516845703125" lon="-118.52510184980928897857666015625">
        <ele>2093</ele>
        <time>2021-06-28T15:50:16.000Z</time>
        <extensions>
          <ns3:TrackPointExtension>
            <ns3:atemp>28.0</ns3:atemp>
            <ns3:hr>86</ns3:hr>
          </ns3:TrackPointExtension>
        </extensions>
      </trkpt>
      <trkpt lat="36.8620583228766918182373046875" lon="-118.52511190809309482574462890625">
        <ele>2092.60009765625</ele>
        <time>2021-06-28T15:50:17.000Z</time>
        <extensions>
          <ns3:TrackPointExtension>
            <ns3:atemp>28.0</ns3:atemp>
            <ns3:hr>86</ns3:hr>
          </ns3:TrackPointExtension>
        </extensions>
      </trkpt>
      <trkpt lat="36.8619550578296184539794921875" lon="-118.525264374911785125732421875">
        <ele>2092</ele>
        <time>2021-06-28T15:50:26.000Z</time>
        <extensions>
          <ns3:TrackPointExtension>
            <ns3:atemp>28.0</ns3:atemp>
            <ns3:hr>88</ns3:hr>
          </ns3:TrackPointExtension>
        </extensions>
      </trkpt>
      <trkpt lat="36.8619550578296184539794921875" lon="-118.525264374911785125732421875">
        <ele>2092</ele>
        <time>2021-06-28T15:50:27.000Z</time>
        <extensions>
          <ns3:TrackPointExtension>
            <ns3:atemp>28.0</ns3:atemp>
            <ns3:hr>88</ns3:hr>
          </ns3:TrackPointExtension>
        </extensions>
      </trkpt>
      <trkpt lat="36.86184466816484928131103515625" lon="-118.52537241764366626739501953125">
        <ele>2091.800048828125</ele>
        <time>2021-06-28T15:50:36.000Z</time>
        <extensions>
          <ns3:TrackPointExtension>
            <ns3:atemp>28.0</ns3:atemp>
            <ns3:hr>89</ns3:hr>
          </ns3:TrackPointExtension>
        </extensions>
      </trkpt>
      <trkpt lat="36.86183628626167774200439453125" lon="-118.5253934562206268310546875">
        <ele>2092</ele>
        <time>2021-06-28T15:50:40.000Z</time>
        <extensions>
          <ns3:TrackPointExtension>
            <ns3:atemp>28.0</ns3:atemp>
            <ns3:hr>90</ns3:hr>
          </ns3:TrackPointExtension>
        </extensions>
      </trkpt>
      <trkpt lat="36.86182790435850620269775390625" lon="-118.525416590273380279541015625">
        <ele>2091.60009765625</ele>
        <time>2021-06-28T15:50:44.000Z</time>
        <extensions>
          <ns3:TrackPointExtension>
            <ns3:atemp>28.0</ns3:atemp>
            <ns3:hr>88</ns3:hr>
          </ns3:TrackPointExtension>
        </extensions>
      </trkpt>
      <trkpt lat="36.86183209531009197235107421875" lon="-118.52544684894382953643798828125">
        <ele>2091.60009765625</ele>
        <time>2021-06-28T15:50:45.000Z</time>
        <extensions>
          <ns3:TrackPointExtension>
            <ns3:atemp>28.0</ns3:atemp>
            <ns3:hr>88</ns3:hr>
          </ns3:TrackPointExtension>
        </extensions>
      </trkpt>
      <trkpt lat="36.86183578334748744964599609375" lon="-118.52550669573247432708740234375">
        <ele>2092.39990234375</ele>
        <time>2021-06-28T15:50:51.000Z</time>
        <extensions>
          <ns3:TrackPointExtension>
            <ns3:atemp>28.0</ns3:atemp>
            <ns3:hr>87</ns3:hr>
          </ns3:TrackPointExtension>
        </extensions>
      </trkpt>
      <trkpt lat="36.86183578334748744964599609375" lon="-118.52550669573247432708740234375">
        <ele>2092.60009765625</ele>
        <time>2021-06-28T15:50:52.000Z</time>
        <extensions>
          <ns3:TrackPointExtension>
            <ns3:atemp>28.0</ns3:atemp>
            <ns3:hr>86</ns3:hr>
          </ns3:TrackPointExtension>
        </extensions>
      </trkpt>
      <trkpt lat="36.86183930374681949615478515625" lon="-118.5256165824830532073974609375">
        <ele>2092.800048828125</ele>
        <time>2021-06-28T15:50:59.000Z</time>
        <extensions>
          <ns3:TrackPointExtension>
            <ns3:atemp>29.0</ns3:atemp>
            <ns3:hr>86</ns3:hr>
          </ns3:TrackPointExtension>
        </extensions>
      </trkpt>
      <trkpt lat="36.8618397228419780731201171875" lon="-118.52563661523163318634033203125">
        <ele>2093.199951171875</ele>
        <time>2021-06-28T15:51:01.000Z</time>
        <extensions>
          <ns3:TrackPointExtension>
            <ns3:atemp>29.0</ns3:atemp>
            <ns3:hr>85</ns3:hr>
          </ns3:TrackPointExtension>
        </extensions>
      </trkpt>
      <trkpt lat="36.8618340231478214263916015625" lon="-118.52567232213914394378662109375">
        <ele>2093.199951171875</ele>
        <time>2021-06-28T15:51:02.000Z</time>
        <extensions>
          <ns3:TrackPointExtension>
            <ns3:atemp>29.0</ns3:atemp>
            <ns3:hr>85</ns3:hr>
          </ns3:TrackPointExtension>
        </extensions>
      </trkpt>
      <trkpt lat="36.86182220466434955596923828125" lon="-118.52568707428872585296630859375">
        <ele>2093.199951171875</ele>
        <time>2021-06-28T15:51:05.000Z</time>
        <extensions>
          <ns3:TrackPointExtension>
            <ns3:atemp>29.0</ns3:atemp>
            <ns3:hr>85</ns3:hr>
          </ns3:TrackPointExtension>
        </extensions>
      </trkpt>
      <trkpt lat="36.86182220466434955596923828125" lon="-118.52568707428872585296630859375">
        <ele>2093.199951171875</ele>
        <time>2021-06-28T15:51:06.000Z</time>
        <extensions>
          <ns3:TrackPointExtension>
            <ns3:atemp>29.0</ns3:atemp>
            <ns3:hr>84</ns3:hr>
          </ns3:TrackPointExtension>
        </extensions>
      </trkpt>
      <trkpt lat="36.86180527321994304656982421875" lon="-118.52570333518087863922119140625">
        <ele>2093.800048828125</ele>
        <time>2021-06-28T15:51:08.000Z</time>
        <extensions>
          <ns3:TrackPointExtension>
            <ns3:atemp>29.0</ns3:atemp>
            <ns3:hr>84</ns3:hr>
          </ns3:TrackPointExtension>
        </extensions>
      </trkpt>
      <trkpt lat="36.86177375726401805877685546875" lon="-118.525724709033966064453125">
        <ele>2094.39990234375</ele>
        <time>2021-06-28T15:51:12.000Z</time>
        <extensions>
          <ns3:TrackPointExtension>
            <ns3:atemp>29.0</ns3:atemp>
            <ns3:hr>84</ns3:hr>
          </ns3:TrackPointExtension>
        </extensions>
      </trkpt>
      <trkpt lat="36.86175950802862644195556640625" lon="-118.525783382356166839599609375">
        <ele>2094.800048828125</ele>
        <time>2021-06-28T15:51:14.000Z</time>
        <extensions>
          <ns3:TrackPointExtension>
            <ns3:atemp>29.0</ns3:atemp>
            <ns3:hr>87</ns3:hr>
          </ns3:TrackPointExtension>
        </extensions>
      </trkpt>
      <trkpt lat="36.8617636151611804962158203125" lon="-118.525857813656330108642578125">
        <ele>2094.60009765625</ele>
        <time>2021-06-28T15:51:19.000Z</time>
        <extensions>
          <ns3:TrackPointExtension>
            <ns3:atemp>29.0</ns3:atemp>
            <ns3:hr>91</ns3:hr>
          </ns3:TrackPointExtension>
        </extensions>
      </trkpt>
      <trkpt lat="36.8617688119411468505859375" lon="-118.52587231434881687164306640625">
        <ele>2094.800048828125</ele>
        <time>2021-06-28T15:51:21.000Z</time>
        <extensions>
          <ns3:TrackPointExtension>
            <ns3:atemp>29.0</ns3:atemp>
            <ns3:hr>93</ns3:hr>
          </ns3:TrackPointExtension>
        </extensions>
      </trkpt>
      <trkpt lat="36.86178213916718959808349609375" lon="-118.5258901678025722503662109375">
        <ele>2094.800048828125</ele>
        <time>2021-06-28T15:51:22.000Z</time>
        <extensions>
          <ns3:TrackPointExtension>
            <ns3:atemp>29.0</ns3:atemp>
            <ns3:hr>94</ns3:hr>
          </ns3:TrackPointExtension>
        </extensions>
      </trkpt>
      <trkpt lat="36.86178498901426792144775390625" lon="-118.5258972086012363433837890625">
        <ele>2095</ele>
        <time>2021-06-28T15:51:24.000Z</time>
        <extensions>
          <ns3:TrackPointExtension>
            <ns3:atemp>29.0</ns3:atemp>
            <ns3:hr>96</ns3:hr>
          </ns3:TrackPointExtension>
        </extensions>
      </trkpt>
      <trkpt lat="36.86178096570074558258056640625" lon="-118.525928221642971038818359375">
        <ele>2095.39990234375</ele>
        <time>2021-06-28T15:51:26.000Z</time>
        <extensions>
          <ns3:TrackPointExtension>
            <ns3:atemp>29.0</ns3:atemp>
            <ns3:hr>96</ns3:hr>
          </ns3:TrackPointExtension>
        </extensions>
      </trkpt>
      <trkpt lat="36.8617795407772064208984375" lon="-118.52593886665999889373779296875">
        <ele>2095.39990234375</ele>
        <time>2021-06-28T15:51:28.000Z</time>
        <extensions>
          <ns3:TrackPointExtension>
            <ns3:atemp>29.0</ns3:atemp>
            <ns3:hr>99</ns3:hr>
          </ns3:TrackPointExtension>
        </extensions>
      </trkpt>
      <trkpt lat="36.86177484691143035888671875" lon="-118.52598379366099834442138671875">
        <ele>2095.60009765625</ele>
        <time>2021-06-28T15:51:31.000Z</time>
        <extensions>
          <ns3:TrackPointExtension>
            <ns3:atemp>29.0</ns3:atemp>
            <ns3:hr>100</ns3:hr>
          </ns3:TrackPointExtension>
        </extensions>
      </trkpt>
      <trkpt lat="36.861767135560512542724609375" lon="-118.526060990989208221435546875">
        <ele>2095.800048828125</ele>
        <time>2021-06-28T15:51:35.000Z</time>
        <extensions>
          <ns3:TrackPointExtension>
            <ns3:atemp>29.0</ns3:atemp>
            <ns3:hr>103</ns3:hr>
          </ns3:TrackPointExtension>
        </extensions>
      </trkpt>
      <trkpt lat="36.8617669679224491119384765625" lon="-118.52609694935381412506103515625">
        <ele>2096.199951171875</ele>
        <time>2021-06-28T15:51:38.000Z</time>
        <extensions>
          <ns3:TrackPointExtension>
            <ns3:atemp>29.0</ns3:atemp>
            <ns3:hr>103</ns3:hr>
          </ns3:TrackPointExtension>
        </extensions>
      </trkpt>
      <trkpt lat="36.86175741255283355712890625" lon="-118.5261127911508083343505859375">
        <ele>2096.39990234375</ele>
        <time>2021-06-28T15:51:41.000Z</time>
        <extensions>
          <ns3:TrackPointExtension>
            <ns3:atemp>29.0</ns3:atemp>
            <ns3:hr>105</ns3:hr>
          </ns3:TrackPointExtension>
        </extensions>
      </trkpt>
      <trkpt lat="36.86174827627837657928466796875" lon="-118.52612880058586597442626953125">
        <ele>2096.60009765625</ele>
        <time>2021-06-28T15:51:43.000Z</time>
        <extensions>
          <ns3:TrackPointExtension>
            <ns3:atemp>29.0</ns3:atemp>
            <ns3:hr>106</ns3:hr>
          </ns3:TrackPointExtension>
        </extensions>
      </trkpt>
      <trkpt lat="36.86174425296485424041748046875" lon="-118.5261820256710052490234375">
        <ele>2096.800048828125</ele>
        <time>2021-06-28T15:51:45.000Z</time>
        <extensions>
          <ns3:TrackPointExtension>
            <ns3:atemp>29.0</ns3:atemp>
            <ns3:hr>108</ns3:hr>
          </ns3:TrackPointExtension>
        </extensions>
      </trkpt>
      <trkpt lat="36.86174425296485424041748046875" lon="-118.5261820256710052490234375">
        <ele>2097</ele>
        <time>2021-06-28T15:51:46.000Z</time>
        <extensions>
          <ns3:TrackPointExtension>
            <ns3:atemp>29.0</ns3:atemp>
            <ns3:hr>108</ns3:hr>
          </ns3:TrackPointExtension>
        </extensions>
      </trkpt>
      <trkpt lat="36.8617411516606807708740234375" lon="-118.5261989571154117584228515625">
        <ele>2097</ele>
        <time>2021-06-28T15:51:47.000Z</time>
        <extensions>
          <ns3:TrackPointExtension>
            <ns3:atemp>29.0</ns3:atemp>
            <ns3:hr>108</ns3:hr>
          </ns3:TrackPointExtension>
        </extensions>
      </trkpt>
      <trkpt lat="36.86172933317720890045166015625" lon="-118.52622116915881633758544921875">
        <ele>2097</ele>
        <time>2021-06-28T15:51:49.000Z</time>
        <extensions>
          <ns3:TrackPointExtension>
            <ns3:atemp>29.0</ns3:atemp>
            <ns3:hr>108</ns3:hr>
          </ns3:TrackPointExtension>
        </extensions>
      </trkpt>
      <trkpt lat="36.86168239451944828033447265625" lon="-118.52627716027200222015380859375">
        <ele>2096.60009765625</ele>
        <time>2021-06-28T15:51:55.000Z</time>
        <extensions>
          <ns3:TrackPointExtension>
            <ns3:atemp>29.0</ns3:atemp>
            <ns3:hr>108</ns3:hr>
          </ns3:TrackPointExtension>
        </extensions>
      </trkpt>
      <trkpt lat="36.86168490909039974212646484375" lon="-118.52630532346665859222412109375">
        <ele>2095.60009765625</ele>
        <time>2021-06-28T15:51:58.000Z</time>
        <extensions>
          <ns3:TrackPointExtension>
            <ns3:atemp>29.0</ns3:atemp>
            <ns3:hr>107</ns3:hr>
          </ns3:TrackPointExtension>
        </extensions>
      </trkpt>
      <trkpt lat="36.86168759129941463470458984375" lon="-118.52631320245563983917236328125">
        <ele>2095.60009765625</ele>
        <time>2021-06-28T15:51:59.000Z</time>
        <extensions>
          <ns3:TrackPointExtension>
            <ns3:atemp>29.0</ns3:atemp>
            <ns3:hr>106</ns3:hr>
          </ns3:TrackPointExtension>
        </extensions>
      </trkpt>
      <trkpt lat="36.86168901622295379638671875" lon="-118.5263322293758392333984375">
        <ele>2094.800048828125</ele>
        <time>2021-06-28T15:52:02.000Z</time>
        <extensions>
          <ns3:TrackPointExtension>
            <ns3:atemp>29.0</ns3:atemp>
            <ns3:hr>103</ns3:hr>
          </ns3:TrackPointExtension>
        </extensions>
      </trkpt>
      <trkpt lat="36.8616848252713680267333984375" lon="-118.52634119801223278045654296875">
        <ele>2094.60009765625</ele>
        <time>2021-06-28T15:52:05.000Z</time>
        <extensions>
          <ns3:TrackPointExtension>
            <ns3:atemp>29.0</ns3:atemp>
            <ns3:hr>102</ns3:hr>
          </ns3:TrackPointExtension>
        </extensions>
      </trkpt>
      <trkpt lat="36.86168759129941463470458984375" lon="-118.5263429582118988037109375">
        <ele>2094.39990234375</ele>
        <time>2021-06-28T15:52:06.000Z</time>
        <extensions>
          <ns3:TrackPointExtension>
            <ns3:atemp>29.0</ns3:atemp>
            <ns3:hr>102</ns3:hr>
          </ns3:TrackPointExtension>
        </extensions>
      </trkpt>
      <trkpt lat="36.86168842948973178863525390625" lon="-118.5263511724770069122314453125">
        <ele>2093.39990234375</ele>
        <time>2021-06-28T15:52:08.000Z</time>
        <extensions>
          <ns3:TrackPointExtension>
            <ns3:atemp>29.0</ns3:atemp>
            <ns3:hr>102</ns3:hr>
          </ns3:TrackPointExtension>
        </extensions>
      </trkpt>
      <trkpt lat="36.861674599349498748779296875" lon="-118.52632828988134860992431640625">
        <ele>2092.199951171875</ele>
        <time>2021-06-28T15:52:13.000Z</time>
        <extensions>
          <ns3:TrackPointExtension>
            <ns3:atemp>29.0</ns3:atemp>
            <ns3:hr>102</ns3:hr>
          </ns3:TrackPointExtension>
        </extensions>
      </trkpt>
      <trkpt lat="36.86167853884398937225341796875" lon="-118.52628755383193492889404296875">
        <ele>2091.60009765625</ele>
        <time>2021-06-28T15:52:16.000Z</time>
        <extensions>
          <ns3:TrackPointExtension>
            <ns3:atemp>29.0</ns3:atemp>
            <ns3:hr>101</ns3:hr>
          </ns3:TrackPointExtension>
        </extensions>
      </trkpt>
      <trkpt lat="36.8616735935211181640625" lon="-118.52628185413777828216552734375">
        <ele>2091</ele>
        <time>2021-06-28T15:52:18.000Z</time>
        <extensions>
          <ns3:TrackPointExtension>
            <ns3:atemp>29.0</ns3:atemp>
            <ns3:hr>101</ns3:hr>
          </ns3:TrackPointExtension>
        </extensions>
      </trkpt>
      <trkpt lat="36.861677952110767364501953125" lon="-118.52626676671206951141357421875">
        <ele>2091</ele>
        <time>2021-06-28T15:52:19.000Z</time>
        <extensions>
          <ns3:TrackPointExtension>
            <ns3:atemp>29.0</ns3:atemp>
            <ns3:hr>101</ns3:hr>
          </ns3:TrackPointExtension>
        </extensions>
      </trkpt>
      <trkpt lat="36.861679963767528533935546875" lon="-118.52625922299921512603759765625">
        <ele>2090.800048828125</ele>
        <time>2021-06-28T15:52:20.000Z</time>
        <extensions>
          <ns3:TrackPointExtension>
            <ns3:atemp>29.0</ns3:atemp>
            <ns3:hr>102</ns3:hr>
          </ns3:TrackPointExtension>
        </extensions>
      </trkpt>
      <trkpt lat="36.86168105341494083404541015625" lon="-118.52625234983861446380615234375">
        <ele>2090.60009765625</ele>
        <time>2021-06-28T15:52:24.000Z</time>
        <extensions>
          <ns3:TrackPointExtension>
            <ns3:atemp>29.0</ns3:atemp>
            <ns3:hr>99</ns3:hr>
          </ns3:TrackPointExtension>
        </extensions>
      </trkpt>
      <trkpt lat="36.86169010587036609649658203125" lon="-118.5262710414826869964599609375">
        <ele>2090.39990234375</ele>
        <time>2021-06-28T15:52:29.000Z</time>
        <extensions>
          <ns3:TrackPointExtension>
            <ns3:atemp>29.0</ns3:atemp>
            <ns3:hr>98</ns3:hr>
          </ns3:TrackPointExtension>
        </extensions>
      </trkpt>
      <trkpt lat="36.86168440617620944976806640625" lon="-118.52626777254045009613037109375">
        <ele>2090</ele>
        <time>2021-06-28T15:52:32.000Z</time>
        <extensions>
          <ns3:TrackPointExtension>
            <ns3:atemp>29.0</ns3:atemp>
            <ns3:hr>96</ns3:hr>
          </ns3:TrackPointExtension>
        </extensions>
      </trkpt>
      <trkpt lat="36.86168440617620944976806640625" lon="-118.52626777254045009613037109375">
        <ele>2090</ele>
        <time>2021-06-28T15:52:37.000Z</time>
        <extensions>
          <ns3:TrackPointExtension>
            <ns3:atemp>30.0</ns3:atemp>
            <ns3:hr>94</ns3:hr>
          </ns3:TrackPointExtension>
        </extensions>
      </trkpt>
      <trkpt lat="36.861668564379215240478515625" lon="-118.5262331552803516387939453125">
        <ele>2089.800048828125</ele>
        <time>2021-06-28T15:53:03.000Z</time>
        <extensions>
          <ns3:TrackPointExtension>
            <ns3:atemp>30.0</ns3:atemp>
            <ns3:hr>91</ns3:hr>
          </ns3:TrackPointExtension>
        </extensions>
      </trkpt>
      <trkpt lat="36.86166110448539257049560546875" lon="-118.52622284553945064544677734375">
        <ele>2089.60009765625</ele>
        <time>2021-06-28T15:53:07.000Z</time>
        <extensions>
          <ns3:TrackPointExtension>
            <ns3:atemp>30.0</ns3:atemp>
            <ns3:hr>92</ns3:hr>
          </ns3:TrackPointExtension>
        </extensions>
      </trkpt>
      <trkpt lat="36.86165775172412395477294921875" lon="-118.5262200795114040374755859375">
        <ele>2089.39990234375</ele>
        <time>2021-06-28T15:53:12.000Z</time>
        <extensions>
          <ns3:TrackPointExtension>
            <ns3:atemp>30.0</ns3:atemp>
            <ns3:hr>89</ns3:hr>
          </ns3:TrackPointExtension>
        </extensions>
      </trkpt>
      <trkpt lat="36.86165138147771358489990234375" lon="-118.52620272897183895111083984375">
        <ele>2089.39990234375</ele>
        <time>2021-06-28T15:53:17.000Z</time>
        <extensions>
          <ns3:TrackPointExtension>
            <ns3:atemp>30.0</ns3:atemp>
            <ns3:hr>85</ns3:hr>
          </ns3:TrackPointExtension>
        </extensions>
      </trkpt>
      <trkpt lat="36.8616212904453277587890625" lon="-118.52619786746799945831298828125">
        <ele>2089.39990234375</ele>
        <time>2021-06-28T15:53:24.000Z</time>
        <extensions>
          <ns3:TrackPointExtension>
            <ns3:atemp>30.0</ns3:atemp>
            <ns3:hr>82</ns3:hr>
          </ns3:TrackPointExtension>
        </extensions>
      </trkpt>
      <trkpt lat="36.86161047779023647308349609375" lon="-118.52620004676282405853271484375">
        <ele>2089.39990234375</ele>
        <time>2021-06-28T15:53:25.000Z</time>
        <extensions>
          <ns3:TrackPointExtension>
            <ns3:atemp>30.0</ns3:atemp>
            <ns3:hr>85</ns3:hr>
          </ns3:TrackPointExtension>
        </extensions>
      </trkpt>
      <trkpt lat="36.86159782111644744873046875" lon="-118.52620390243828296661376953125">
        <ele>2088.800048828125</ele>
        <time>2021-06-28T15:53:26.000Z</time>
        <extensions>
          <ns3:TrackPointExtension>
            <ns3:atemp>30.0</ns3:atemp>
            <ns3:hr>83</ns3:hr>
          </ns3:TrackPointExtension>
        </extensions>
      </trkpt>
      <trkpt lat="36.86158684082329273223876953125" lon="-118.5262023098766803741455078125">
        <ele>2088.800048828125</ele>
        <time>2021-06-28T15:53:27.000Z</time>
        <extensions>
          <ns3:TrackPointExtension>
            <ns3:atemp>30.0</ns3:atemp>
            <ns3:hr>84</ns3:hr>
          </ns3:TrackPointExtension>
        </extensions>
      </trkpt>
      <trkpt lat="36.861531436443328857421875" lon="-118.52617993019521236419677734375">
        <ele>2087.800048828125</ele>
        <time>2021-06-28T15:53:32.000Z</time>
        <extensions>
          <ns3:TrackPointExtension>
            <ns3:atemp>30.0</ns3:atemp>
            <ns3:hr>83</ns3:hr>
          </ns3:TrackPointExtension>
        </extensions>
      </trkpt>
      <trkpt lat="36.8615104816854000091552734375" lon="-118.526154868304729461669921875">
        <ele>2087.39990234375</ele>
        <time>2021-06-28T15:53:35.000Z</time>
        <extensions>
          <ns3:TrackPointExtension>
            <ns3:atemp>30.0</ns3:atemp>
            <ns3:hr>83</ns3:hr>
          </ns3:TrackPointExtension>
        </extensions>
      </trkpt>
      <trkpt lat="36.8615024350583553314208984375" lon="-118.52618579752743244171142578125">
        <ele>2087.199951171875</ele>
        <time>2021-06-28T15:53:38.000Z</time>
        <extensions>
          <ns3:TrackPointExtension>
            <ns3:atemp>30.0</ns3:atemp>
            <ns3:hr>86</ns3:hr>
          </ns3:TrackPointExtension>
        </extensions>
      </trkpt>
      <trkpt lat="36.8615027703344821929931640625" lon="-118.52619300596415996551513671875">
        <ele>2086.39990234375</ele>
        <time>2021-06-28T15:53:39.000Z</time>
        <extensions>
          <ns3:TrackPointExtension>
            <ns3:atemp>30.0</ns3:atemp>
            <ns3:hr>86</ns3:hr>
          </ns3:TrackPointExtension>
        </extensions>
      </trkpt>
      <trkpt lat="36.86150101013481616973876953125" lon="-118.5262086801230907440185546875">
        <ele>2086.39990234375</ele>
        <time>2021-06-28T15:53:41.000Z</time>
        <extensions>
          <ns3:TrackPointExtension>
            <ns3:atemp>30.0</ns3:atemp>
            <ns3:hr>89</ns3:hr>
          </ns3:TrackPointExtension>
        </extensions>
      </trkpt>
      <trkpt lat="36.86150335706770420074462890625" lon="-118.5262378491461277008056640625">
        <ele>2085.39990234375</ele>
        <time>2021-06-28T15:53:43.000Z</time>
        <extensions>
          <ns3:TrackPointExtension>
            <ns3:atemp>30.0</ns3:atemp>
            <ns3:hr>92</ns3:hr>
          </ns3:TrackPointExtension>
        </extensions>
      </trkpt>
      <trkpt lat="36.861518360674381256103515625" lon="-118.52628436870872974395751953125">
        <ele>2085.199951171875</ele>
        <time>2021-06-28T15:53:47.000Z</time>
        <extensions>
          <ns3:TrackPointExtension>
            <ns3:atemp>30.0</ns3:atemp>
            <ns3:hr>92</ns3:hr>
          </ns3:TrackPointExtension>
        </extensions>
      </trkpt>
      <trkpt lat="36.8615577556192874908447265625" lon="-118.526330552995204925537109375">
        <ele>2084.199951171875</ele>
        <time>2021-06-28T15:53:54.000Z</time>
        <extensions>
          <ns3:TrackPointExtension>
            <ns3:atemp>30.0</ns3:atemp>
            <ns3:hr>89</ns3:hr>
          </ns3:TrackPointExtension>
        </extensions>
      </trkpt>
      <trkpt lat="36.8615590967237949371337890625" lon="-118.52633717469871044158935546875">
        <ele>2084.199951171875</ele>
        <time>2021-06-28T15:53:55.000Z</time>
        <extensions>
          <ns3:TrackPointExtension>
            <ns3:atemp>30.0</ns3:atemp>
            <ns3:hr>89</ns3:hr>
          </ns3:TrackPointExtension>
        </extensions>
      </trkpt>
      <trkpt lat="36.86156454496085643768310546875" lon="-118.52637849748134613037109375">
        <ele>2083.199951171875</ele>
        <time>2021-06-28T15:53:59.000Z</time>
        <extensions>
          <ns3:TrackPointExtension>
            <ns3:atemp>30.0</ns3:atemp>
            <ns3:hr>87</ns3:hr>
          </ns3:TrackPointExtension>
        </extensions>
      </trkpt>
      <trkpt lat="36.86155381612479686737060546875" lon="-118.52639819495379924774169921875">
        <ele>2082.60009765625</ele>
        <time>2021-06-28T15:54:01.000Z</time>
        <extensions>
          <ns3:TrackPointExtension>
            <ns3:atemp>30.0</ns3:atemp>
            <ns3:hr>87</ns3:hr>
          </ns3:TrackPointExtension>
        </extensions>
      </trkpt>
      <trkpt lat="36.86153721995651721954345703125" lon="-118.52643524296581745147705078125">
        <ele>2082.39990234375</ele>
        <time>2021-06-28T15:54:03.000Z</time>
        <extensions>
          <ns3:TrackPointExtension>
            <ns3:atemp>30.0</ns3:atemp>
            <ns3:hr>88</ns3:hr>
          </ns3:TrackPointExtension>
        </extensions>
      </trkpt>
      <trkpt lat="36.86151961795985698699951171875" lon="-118.52645921520888805389404296875">
        <ele>2082</ele>
        <time>2021-06-28T15:54:05.000Z</time>
        <extensions>
          <ns3:TrackPointExtension>
            <ns3:atemp>30.0</ns3:atemp>
            <ns3:hr>87</ns3:hr>
          </ns3:TrackPointExtension>
        </extensions>
      </trkpt>
      <trkpt lat="36.8614796362817287445068359375" lon="-118.5264926590025424957275390625">
        <ele>2081.60009765625</ele>
        <time>2021-06-28T15:54:09.000Z</time>
        <extensions>
          <ns3:TrackPointExtension>
            <ns3:atemp>30.0</ns3:atemp>
            <ns3:hr>88</ns3:hr>
          </ns3:TrackPointExtension>
        </extensions>
      </trkpt>
      <trkpt lat="36.86146748252213001251220703125" lon="-118.52652073837816715240478515625">
        <ele>2081</ele>
        <time>2021-06-28T15:54:12.000Z</time>
        <extensions>
          <ns3:TrackPointExtension>
            <ns3:atemp>30.0</ns3:atemp>
            <ns3:hr>87</ns3:hr>
          </ns3:TrackPointExtension>
        </extensions>
      </trkpt>
      <trkpt lat="36.8614414148032665252685546875" lon="-118.52654823102056980133056640625">
        <ele>2081</ele>
        <time>2021-06-28T15:54:16.000Z</time>
        <extensions>
          <ns3:TrackPointExtension>
            <ns3:atemp>30.0</ns3:atemp>
            <ns3:hr>89</ns3:hr>
          </ns3:TrackPointExtension>
        </extensions>
      </trkpt>
      <trkpt lat="36.86143529601395130157470703125" lon="-118.52655443362891674041748046875">
        <ele>2080.800048828125</ele>
        <time>2021-06-28T15:54:17.000Z</time>
        <extensions>
          <ns3:TrackPointExtension>
            <ns3:atemp>30.0</ns3:atemp>
            <ns3:hr>90</ns3:hr>
          </ns3:TrackPointExtension>
        </extensions>
      </trkpt>
      <trkpt lat="36.8614263273775577545166015625" lon="-118.5265543498098850250244140625">
        <ele>2080.800048828125</ele>
        <time>2021-06-28T15:54:18.000Z</time>
        <extensions>
          <ns3:TrackPointExtension>
            <ns3:atemp>30.0</ns3:atemp>
            <ns3:hr>91</ns3:hr>
          </ns3:TrackPointExtension>
        </extensions>
      </trkpt>
      <trkpt lat="36.8613986670970916748046875" lon="-118.52655963040888309478759765625">
        <ele>2080.199951171875</ele>
        <time>2021-06-28T15:54:21.000Z</time>
        <extensions>
          <ns3:TrackPointExtension>
            <ns3:atemp>30.0</ns3:atemp>
            <ns3:hr>89</ns3:hr>
          </ns3:TrackPointExtension>
        </extensions>
      </trkpt>
      <trkpt lat="36.8613879382610321044921875" lon="-118.526561558246612548828125">
        <ele>2080.199951171875</ele>
        <time>2021-06-28T15:54:22.000Z</time>
        <extensions>
          <ns3:TrackPointExtension>
            <ns3:atemp>30.0</ns3:atemp>
            <ns3:hr>89</ns3:hr>
          </ns3:TrackPointExtension>
        </extensions>
      </trkpt>
      <trkpt lat="36.8613713420927524566650390625" lon="-118.52658125571906566619873046875">
        <ele>2080</ele>
        <time>2021-06-28T15:54:24.000Z</time>
        <extensions>
          <ns3:TrackPointExtension>
            <ns3:atemp>30.0</ns3:atemp>
            <ns3:hr>88</ns3:hr>
          </ns3:TrackPointExtension>
        </extensions>
      </trkpt>
      <trkpt lat="36.86134929768741130828857421875" lon="-118.52661511860787868499755859375">
        <ele>2079.800048828125</ele>
        <time>2021-06-28T15:54:27.000Z</time>
        <extensions>
          <ns3:TrackPointExtension>
            <ns3:atemp>30.0</ns3:atemp>
            <ns3:hr>89</ns3:hr>
          </ns3:TrackPointExtension>
        </extensions>
      </trkpt>
      <trkpt lat="36.861333958804607391357421875" lon="-118.52663774974644184112548828125">
        <ele>2079.60009765625</ele>
        <time>2021-06-28T15:54:29.000Z</time>
        <extensions>
          <ns3:TrackPointExtension>
            <ns3:atemp>30.0</ns3:atemp>
            <ns3:hr>89</ns3:hr>
          </ns3:TrackPointExtension>
        </extensions>
      </trkpt>
      <trkpt lat="36.8613140098750591278076171875" lon="-118.52665501646697521209716796875">
        <ele>2079.39990234375</ele>
        <time>2021-06-28T15:54:31.000Z</time>
        <extensions>
          <ns3:TrackPointExtension>
            <ns3:atemp>30.0</ns3:atemp>
            <ns3:hr>90</ns3:hr>
          </ns3:TrackPointExtension>
        </extensions>
      </trkpt>
      <trkpt lat="36.86128802597522735595703125" lon="-118.52668351493775844573974609375">
        <ele>2079.199951171875</ele>
        <time>2021-06-28T15:54:34.000Z</time>
        <extensions>
          <ns3:TrackPointExtension>
            <ns3:atemp>30.0</ns3:atemp>
            <ns3:hr>91</ns3:hr>
          </ns3:TrackPointExtension>
        </extensions>
      </trkpt>
      <trkpt lat="36.86128207482397556304931640625" lon="-118.5266924835741519927978515625">
        <ele>2079.199951171875</ele>
        <time>2021-06-28T15:54:35.000Z</time>
        <extensions>
          <ns3:TrackPointExtension>
            <ns3:atemp>30.0</ns3:atemp>
            <ns3:hr>92</ns3:hr>
          </ns3:TrackPointExtension>
        </extensions>
      </trkpt>
      <trkpt lat="36.86121166683733463287353515625" lon="-118.5267665795981884002685546875">
        <ele>2079.199951171875</ele>
        <time>2021-06-28T15:54:43.000Z</time>
        <extensions>
          <ns3:TrackPointExtension>
            <ns3:atemp>30.0</ns3:atemp>
            <ns3:hr>89</ns3:hr>
          </ns3:TrackPointExtension>
        </extensions>
      </trkpt>
      <trkpt lat="36.8612080626189708709716796875" lon="-118.52681167423725128173828125">
        <ele>2079.800048828125</ele>
        <time>2021-06-28T15:54:46.000Z</time>
        <extensions>
          <ns3:TrackPointExtension>
            <ns3:atemp>30.0</ns3:atemp>
            <ns3:hr>89</ns3:hr>
          </ns3:TrackPointExtension>
        </extensions>
      </trkpt>
      <trkpt lat="36.8611929751932621002197265625" lon="-118.52685819379985332489013671875">
        <ele>2080</ele>
        <time>2021-06-28T15:54:49.000Z</time>
        <extensions>
          <ns3:TrackPointExtension>
            <ns3:atemp>30.0</ns3:atemp>
            <ns3:hr>90</ns3:hr>
          </ns3:TrackPointExtension>
        </extensions>
      </trkpt>
      <trkpt lat="36.86116573400795459747314453125" lon="-118.52687311358749866485595703125">
        <ele>2080</ele>
        <time>2021-06-28T15:54:52.000Z</time>
        <extensions>
          <ns3:TrackPointExtension>
            <ns3:atemp>30.0</ns3:atemp>
            <ns3:hr>90</ns3:hr>
          </ns3:TrackPointExtension>
        </extensions>
      </trkpt>
      <trkpt lat="36.8611312843859195709228515625" lon="-118.5269087366759777069091796875">
        <ele>2080</ele>
        <time>2021-06-28T15:54:56.000Z</time>
        <extensions>
          <ns3:TrackPointExtension>
            <ns3:atemp>30.0</ns3:atemp>
            <ns3:hr>91</ns3:hr>
          </ns3:TrackPointExtension>
        </extensions>
      </trkpt>
      <trkpt lat="36.8610687553882598876953125" lon="-118.52698056958615779876708984375">
        <ele>2080</ele>
        <time>2021-06-28T15:55:04.000Z</time>
        <extensions>
          <ns3:TrackPointExtension>
            <ns3:atemp>31.0</ns3:atemp>
            <ns3:hr>92</ns3:hr>
          </ns3:TrackPointExtension>
        </extensions>
      </trkpt>
      <trkpt lat="36.8610568530857563018798828125" lon="-118.526985347270965576171875">
        <ele>2080</ele>
        <time>2021-06-28T15:55:05.000Z</time>
        <extensions>
          <ns3:TrackPointExtension>
            <ns3:atemp>31.0</ns3:atemp>
            <ns3:hr>93</ns3:hr>
          </ns3:TrackPointExtension>
        </extensions>
      </trkpt>
      <trkpt lat="36.86097831465303897857666015625" lon="-118.5270405001938343048095703125">
        <ele>2079.39990234375</ele>
        <time>2021-06-28T15:55:12.000Z</time>
        <extensions>
          <ns3:TrackPointExtension>
            <ns3:atemp>31.0</ns3:atemp>
            <ns3:hr>94</ns3:hr>
          </ns3:TrackPointExtension>
        </extensions>
      </trkpt>
      <trkpt lat="36.8609358184039592742919921875" lon="-118.5271011851727962493896484375">
        <ele>2078.39990234375</ele>
        <time>2021-06-28T15:55:17.000Z</time>
        <extensions>
          <ns3:TrackPointExtension>
            <ns3:atemp>31.0</ns3:atemp>
            <ns3:hr>93</ns3:hr>
          </ns3:TrackPointExtension>
        </extensions>
      </trkpt>
      <trkpt lat="36.8609301187098026275634765625" lon="-118.52712138555943965911865234375">
        <ele>2078.39990234375</ele>
        <time>2021-06-28T15:55:18.000Z</time>
        <extensions>
          <ns3:TrackPointExtension>
            <ns3:atemp>31.0</ns3:atemp>
            <ns3:hr>94</ns3:hr>
          </ns3:TrackPointExtension>
        </extensions>
      </trkpt>
      <trkpt lat="36.8609292805194854736328125" lon="-118.5271404124796390533447265625">
        <ele>2078.39990234375</ele>
        <time>2021-06-28T15:55:19.000Z</time>
        <extensions>
          <ns3:TrackPointExtension>
            <ns3:atemp>31.0</ns3:atemp>
            <ns3:hr>92</ns3:hr>
          </ns3:TrackPointExtension>
        </extensions>
      </trkpt>
      <trkpt lat="36.86092793941497802734375" lon="-118.527210988104343414306640625">
        <ele>2078.199951171875</ele>
        <time>2021-06-28T15:55:25.000Z</time>
        <extensions>
          <ns3:TrackPointExtension>
            <ns3:atemp>31.0</ns3:atemp>
            <ns3:hr>89</ns3:hr>
          </ns3:TrackPointExtension>
        </extensions>
      </trkpt>
      <trkpt lat="36.86093573458492755889892578125" lon="-118.52724342606961727142333984375">
        <ele>2078.199951171875</ele>
        <time>2021-06-28T15:55:27.000Z</time>
        <extensions>
          <ns3:TrackPointExtension>
            <ns3:atemp>31.0</ns3:atemp>
            <ns3:hr>88</ns3:hr>
          </ns3:TrackPointExtension>
        </extensions>
      </trkpt>
      <trkpt lat="36.86093238182365894317626953125" lon="-118.52723856456577777862548828125">
        <ele>2077.800048828125</ele>
        <time>2021-06-28T15:55:28.000Z</time>
        <extensions>
          <ns3:TrackPointExtension>
            <ns3:atemp>31.0</ns3:atemp>
            <ns3:hr>88</ns3:hr>
          </ns3:TrackPointExtension>
        </extensions>
      </trkpt>
      <trkpt lat="36.86091846786439418792724609375" lon="-118.5272299312055110931396484375">
        <ele>2077</ele>
        <time>2021-06-28T15:55:30.000Z</time>
        <extensions>
          <ns3:TrackPointExtension>
            <ns3:atemp>31.0</ns3:atemp>
            <ns3:hr>87</ns3:hr>
          </ns3:TrackPointExtension>
        </extensions>
      </trkpt>
      <trkpt lat="36.8609106726944446563720703125" lon="-118.52722599171102046966552734375">
        <ele>2076.800048828125</ele>
        <time>2021-06-28T15:55:31.000Z</time>
        <extensions>
          <ns3:TrackPointExtension>
            <ns3:atemp>31.0</ns3:atemp>
            <ns3:hr>88</ns3:hr>
          </ns3:TrackPointExtension>
        </extensions>
      </trkpt>
      <trkpt lat="36.8608932383358478546142578125" lon="-118.5272205434739589691162109375">
        <ele>2076.60009765625</ele>
        <time>2021-06-28T15:55:33.000Z</time>
        <extensions>
          <ns3:TrackPointExtension>
            <ns3:atemp>31.0</ns3:atemp>
            <ns3:hr>88</ns3:hr>
          </ns3:TrackPointExtension>
        </extensions>
      </trkpt>
      <trkpt lat="36.86087488196790218353271484375" lon="-118.5272275842726230621337890625">
        <ele>2076</ele>
        <time>2021-06-28T15:55:35.000Z</time>
        <extensions>
          <ns3:TrackPointExtension>
            <ns3:atemp>31.0</ns3:atemp>
            <ns3:hr>88</ns3:hr>
          </ns3:TrackPointExtension>
        </extensions>
      </trkpt>
      <trkpt lat="36.86084839515388011932373046875" lon="-118.527210652828216552734375">
        <ele>2075.39990234375</ele>
        <time>2021-06-28T15:55:38.000Z</time>
        <extensions>
          <ns3:TrackPointExtension>
            <ns3:atemp>31.0</ns3:atemp>
            <ns3:hr>87</ns3:hr>
          </ns3:TrackPointExtension>
        </extensions>
      </trkpt>
      <trkpt lat="36.86083079315721988677978515625" lon="-118.52720352821052074432373046875">
        <ele>2075</ele>
        <time>2021-06-28T15:55:40.000Z</time>
        <extensions>
          <ns3:TrackPointExtension>
            <ns3:atemp>31.0</ns3:atemp>
            <ns3:hr>87</ns3:hr>
          </ns3:TrackPointExtension>
        </extensions>
      </trkpt>
      <trkpt lat="36.8608208186924457550048828125" lon="-118.52719833143055438995361328125">
        <ele>2074.60009765625</ele>
        <time>2021-06-28T15:55:41.000Z</time>
        <extensions>
          <ns3:TrackPointExtension>
            <ns3:atemp>31.0</ns3:atemp>
            <ns3:hr>86</ns3:hr>
          </ns3:TrackPointExtension>
        </extensions>
      </trkpt>
      <trkpt lat="36.86078133992850780487060546875" lon="-118.52716346271336078643798828125">
        <ele>2073.800048828125</ele>
        <time>2021-06-28T15:55:45.000Z</time>
        <extensions>
          <ns3:TrackPointExtension>
            <ns3:atemp>31.0</ns3:atemp>
            <ns3:hr>85</ns3:hr>
          </ns3:TrackPointExtension>
        </extensions>
      </trkpt>
      <trkpt lat="36.8607711978256702423095703125" lon="-118.52716346271336078643798828125">
        <ele>2073.60009765625</ele>
        <time>2021-06-28T15:55:46.000Z</time>
        <extensions>
          <ns3:TrackPointExtension>
            <ns3:atemp>31.0</ns3:atemp>
            <ns3:hr>85</ns3:hr>
          </ns3:TrackPointExtension>
        </extensions>
      </trkpt>
      <trkpt lat="36.8607178889214992523193359375" lon="-118.52714820764958858489990234375">
        <ele>2072.800048828125</ele>
        <time>2021-06-28T15:55:51.000Z</time>
        <extensions>
          <ns3:TrackPointExtension>
            <ns3:atemp>31.0</ns3:atemp>
            <ns3:hr>82</ns3:hr>
          </ns3:TrackPointExtension>
        </extensions>
      </trkpt>
      <trkpt lat="36.86070808209478855133056640625" lon="-118.5271528176963329315185546875">
        <ele>2072.199951171875</ele>
        <time>2021-06-28T15:55:52.000Z</time>
        <extensions>
          <ns3:TrackPointExtension>
            <ns3:atemp>31.0</ns3:atemp>
            <ns3:hr>81</ns3:hr>
          </ns3:TrackPointExtension>
        </extensions>
      </trkpt>
      <trkpt lat="36.860678158700466156005859375" lon="-118.527171425521373748779296875">
        <ele>2072.199951171875</ele>
        <time>2021-06-28T15:55:55.000Z</time>
        <extensions>
          <ns3:TrackPointExtension>
            <ns3:atemp>31.0</ns3:atemp>
            <ns3:hr>80</ns3:hr>
          </ns3:TrackPointExtension>
        </extensions>
      </trkpt>
      <trkpt lat="36.86066332273185253143310546875" lon="-118.52719162590801715850830078125">
        <ele>2071.199951171875</ele>
        <time>2021-06-28T15:55:57.000Z</time>
        <extensions>
          <ns3:TrackPointExtension>
            <ns3:atemp>31.0</ns3:atemp>
            <ns3:hr>79</ns3:hr>
          </ns3:TrackPointExtension>
        </extensions>
      </trkpt>
      <trkpt lat="36.86065913178026676177978515625" lon="-118.5272012650966644287109375">
        <ele>2071.199951171875</ele>
        <time>2021-06-28T15:55:58.000Z</time>
        <extensions>
          <ns3:TrackPointExtension>
            <ns3:atemp>31.0</ns3:atemp>
            <ns3:hr>79</ns3:hr>
          </ns3:TrackPointExtension>
        </extensions>
      </trkpt>
      <trkpt lat="36.86065427027642726898193359375" lon="-118.527226410806179046630859375">
        <ele>2070.800048828125</ele>
        <time>2021-06-28T15:56:01.000Z</time>
        <extensions>
          <ns3:TrackPointExtension>
            <ns3:atemp>31.0</ns3:atemp>
            <ns3:hr>76</ns3:hr>
          </ns3:TrackPointExtension>
        </extensions>
      </trkpt>
      <trkpt lat="36.860646307468414306640625" lon="-118.52723638527095317840576171875">
        <ele>2070.60009765625</ele>
        <time>2021-06-28T15:56:03.000Z</time>
        <extensions>
          <ns3:TrackPointExtension>
            <ns3:atemp>31.0</ns3:atemp>
            <ns3:hr>76</ns3:hr>
          </ns3:TrackPointExtension>
        </extensions>
      </trkpt>
      <trkpt lat="36.86062325723469257354736328125" lon="-118.527246527373790740966796875">
        <ele>2070.199951171875</ele>
        <time>2021-06-28T15:56:06.000Z</time>
        <extensions>
          <ns3:TrackPointExtension>
            <ns3:atemp>31.0</ns3:atemp>
            <ns3:hr>75</ns3:hr>
          </ns3:TrackPointExtension>
        </extensions>
      </trkpt>
      <trkpt lat="36.86060347594320774078369140625" lon="-118.527251221239566802978515625">
        <ele>2069.39990234375</ele>
        <time>2021-06-28T15:56:09.000Z</time>
        <extensions>
          <ns3:TrackPointExtension>
            <ns3:atemp>31.0</ns3:atemp>
            <ns3:hr>71</ns3:hr>
          </ns3:TrackPointExtension>
        </extensions>
      </trkpt>
      <trkpt lat="36.8605717085301876068115234375" lon="-118.52724376134574413299560546875">
        <ele>2068.800048828125</ele>
        <time>2021-06-28T15:56:12.000Z</time>
        <extensions>
          <ns3:TrackPointExtension>
            <ns3:atemp>31.0</ns3:atemp>
            <ns3:hr>73</ns3:hr>
          </ns3:TrackPointExtension>
        </extensions>
      </trkpt>
      <trkpt lat="36.860543377697467803955078125" lon="-118.52724946103990077972412109375">
        <ele>2068.39990234375</ele>
        <time>2021-06-28T15:56:14.000Z</time>
        <extensions>
          <ns3:TrackPointExtension>
            <ns3:atemp>31.0</ns3:atemp>
            <ns3:hr>75</ns3:hr>
          </ns3:TrackPointExtension>
        </extensions>
      </trkpt>
      <trkpt lat="36.86053239740431308746337890625" lon="-118.52726471610367298126220703125">
        <ele>2068.39990234375</ele>
        <time>2021-06-28T15:56:15.000Z</time>
        <extensions>
          <ns3:TrackPointExtension>
            <ns3:atemp>31.0</ns3:atemp>
            <ns3:hr>72</ns3:hr>
          </ns3:TrackPointExtension>
        </extensions>
      </trkpt>
      <trkpt lat="36.8604974448680877685546875" lon="-118.52730494923889636993408203125">
        <ele>2068.60009765625</ele>
        <time>2021-06-28T15:56:20.000Z</time>
        <extensions>
          <ns3:TrackPointExtension>
            <ns3:atemp>31.0</ns3:atemp>
            <ns3:hr>75</ns3:hr>
          </ns3:TrackPointExtension>
        </extensions>
      </trkpt>
      <trkpt lat="36.86048336327075958251953125" lon="-118.5274096392095088958740234375">
        <ele>2068</ele>
        <time>2021-06-28T15:56:26.000Z</time>
        <extensions>
          <ns3:TrackPointExtension>
            <ns3:atemp>31.0</ns3:atemp>
            <ns3:hr>77</ns3:hr>
          </ns3:TrackPointExtension>
        </extensions>
      </trkpt>
      <trkpt lat="36.86047875322401523590087890625" lon="-118.52743000723421573638916015625">
        <ele>2067.60009765625</ele>
        <time>2021-06-28T15:56:27.000Z</time>
        <extensions>
          <ns3:TrackPointExtension>
            <ns3:atemp>31.0</ns3:atemp>
            <ns3:hr>79</ns3:hr>
          </ns3:TrackPointExtension>
        </extensions>
      </trkpt>
      <trkpt lat="36.8604691140353679656982421875" lon="-118.5274337790906429290771484375">
        <ele>2067.60009765625</ele>
        <time>2021-06-28T15:56:28.000Z</time>
        <extensions>
          <ns3:TrackPointExtension>
            <ns3:atemp>31.0</ns3:atemp>
            <ns3:hr>80</ns3:hr>
          </ns3:TrackPointExtension>
        </extensions>
      </trkpt>
      <trkpt lat="36.86045712791383266448974609375" lon="-118.52743956260383129119873046875">
        <ele>2067.60009765625</ele>
        <time>2021-06-28T15:56:29.000Z</time>
        <extensions>
          <ns3:TrackPointExtension>
            <ns3:atemp>31.0</ns3:atemp>
            <ns3:hr>82</ns3:hr>
          </ns3:TrackPointExtension>
        </extensions>
      </trkpt>
      <trkpt lat="36.8603873066604137420654296875" lon="-118.52749052457511425018310546875">
        <ele>2067</ele>
        <time>2021-06-28T15:56:36.000Z</time>
        <extensions>
          <ns3:TrackPointExtension>
            <ns3:atemp>31.0</ns3:atemp>
            <ns3:hr>84</ns3:hr>
          </ns3:TrackPointExtension>
        </extensions>
      </trkpt>
      <trkpt lat="36.86038286425173282623291015625" lon="-118.52750376798212528228759765625">
        <ele>2067</ele>
        <time>2021-06-28T15:56:37.000Z</time>
        <extensions>
          <ns3:TrackPointExtension>
            <ns3:atemp>31.0</ns3:atemp>
            <ns3:hr>83</ns3:hr>
          </ns3:TrackPointExtension>
        </extensions>
      </trkpt>
      <trkpt lat="36.86037280596792697906494140625" lon="-118.527559675276279449462890625">
        <ele>2067</ele>
        <time>2021-06-28T15:56:41.000Z</time>
        <extensions>
          <ns3:TrackPointExtension>
            <ns3:atemp>31.0</ns3:atemp>
            <ns3:hr>82</ns3:hr>
          </ns3:TrackPointExtension>
        </extensions>
      </trkpt>
      <trkpt lat="36.86036241240799427032470703125" lon="-118.52755607105791568756103515625">
        <ele>2067</ele>
        <time>2021-06-28T15:56:42.000Z</time>
        <extensions>
          <ns3:TrackPointExtension>
            <ns3:atemp>31.0</ns3:atemp>
            <ns3:hr>81</ns3:hr>
          </ns3:TrackPointExtension>
        </extensions>
      </trkpt>
      <trkpt lat="36.86035989783704280853271484375" lon="-118.527576439082622528076171875">
        <ele>2066.60009765625</ele>
        <time>2021-06-28T15:56:44.000Z</time>
        <extensions>
          <ns3:TrackPointExtension>
            <ns3:atemp>31.0</ns3:atemp>
            <ns3:hr>80</ns3:hr>
          </ns3:TrackPointExtension>
        </extensions>
      </trkpt>
      <trkpt lat="36.86034916900098323822021484375" lon="-118.52756679989397525787353515625">
        <ele>2066.39990234375</ele>
        <time>2021-06-28T15:56:46.000Z</time>
        <extensions>
          <ns3:TrackPointExtension>
            <ns3:atemp>31.0</ns3:atemp>
            <ns3:hr>78</ns3:hr>
          </ns3:TrackPointExtension>
        </extensions>
      </trkpt>
      <trkpt lat="36.86033978126943111419677734375" lon="-118.52756545878946781158447265625">
        <ele>2066.199951171875</ele>
        <time>2021-06-28T15:56:47.000Z</time>
        <extensions>
          <ns3:TrackPointExtension>
            <ns3:atemp>31.0</ns3:atemp>
            <ns3:hr>76</ns3:hr>
          </ns3:TrackPointExtension>
        </extensions>
      </trkpt>
      <trkpt lat="36.86031279154121875762939453125" lon="-118.5276020877063274383544921875">
        <ele>2065.800048828125</ele>
        <time>2021-06-28T15:56:51.000Z</time>
        <extensions>
          <ns3:TrackPointExtension>
            <ns3:atemp>31.0</ns3:atemp>
            <ns3:hr>76</ns3:hr>
          </ns3:TrackPointExtension>
        </extensions>
      </trkpt>
      <trkpt lat="36.8603068403899669647216796875" lon="-118.5276057757437229156494140625">
        <ele>2065.39990234375</ele>
        <time>2021-06-28T15:56:52.000Z</time>
        <extensions>
          <ns3:TrackPointExtension>
            <ns3:atemp>31.0</ns3:atemp>
            <ns3:hr>76</ns3:hr>
          </ns3:TrackPointExtension>
        </extensions>
      </trkpt>
      <trkpt lat="36.86030038632452487945556640625" lon="-118.5275990702211856842041015625">
        <ele>2065</ele>
        <time>2021-06-28T15:56:53.000Z</time>
        <extensions>
          <ns3:TrackPointExtension>
            <ns3:atemp>31.0</ns3:atemp>
            <ns3:hr>76</ns3:hr>
          </ns3:TrackPointExtension>
        </extensions>
      </trkpt>
      <trkpt lat="36.86027976684272289276123046875" lon="-118.52757283486425876617431640625">
        <ele>2064.60009765625</ele>
        <time>2021-06-28T15:56:56.000Z</time>
        <extensions>
          <ns3:TrackPointExtension>
            <ns3:atemp>31.0</ns3:atemp>
            <ns3:hr>76</ns3:hr>
          </ns3:TrackPointExtension>
        </extensions>
      </trkpt>
      <trkpt lat="36.86026853509247303009033203125" lon="-118.52755196392536163330078125">
        <ele>2064.39990234375</ele>
        <time>2021-06-28T15:56:59.000Z</time>
        <extensions>
          <ns3:TrackPointExtension>
            <ns3:atemp>31.0</ns3:atemp>
            <ns3:hr>76</ns3:hr>
          </ns3:TrackPointExtension>
        </extensions>
      </trkpt>
      <trkpt lat="36.8602354265749454498291015625" lon="-118.52752354927361011505126953125">
        <ele>2063.199951171875</ele>
        <time>2021-06-28T15:57:04.000Z</time>
        <extensions>
          <ns3:TrackPointExtension>
            <ns3:atemp>31.0</ns3:atemp>
            <ns3:hr>77</ns3:hr>
          </ns3:TrackPointExtension>
        </extensions>
      </trkpt>
      <trkpt lat="36.86021204106509685516357421875" lon="-118.52754182182252407073974609375">
        <ele>2062.800048828125</ele>
        <time>2021-06-28T15:57:06.000Z</time>
        <extensions>
          <ns3:TrackPointExtension>
            <ns3:atemp>31.0</ns3:atemp>
            <ns3:hr>77</ns3:hr>
          </ns3:TrackPointExtension>
        </extensions>
      </trkpt>
      <trkpt lat="36.86017868109047412872314453125" lon="-118.5275551490485668182373046875">
        <ele>2062.39990234375</ele>
        <time>2021-06-28T15:57:09.000Z</time>
        <extensions>
          <ns3:TrackPointExtension>
            <ns3:atemp>31.0</ns3:atemp>
            <ns3:hr>78</ns3:hr>
          </ns3:TrackPointExtension>
        </extensions>
      </trkpt>
      <trkpt lat="36.860172562301158905029296875" lon="-118.52755154483020305633544921875">
        <ele>2062.199951171875</ele>
        <time>2021-06-28T15:57:10.000Z</time>
        <extensions>
          <ns3:TrackPointExtension>
            <ns3:atemp>31.0</ns3:atemp>
            <ns3:hr>78</ns3:hr>
          </ns3:TrackPointExtension>
        </extensions>
      </trkpt>
      <trkpt lat="36.860168874263763427734375" lon="-118.52754718624055385589599609375">
        <ele>2062</ele>
        <time>2021-06-28T15:57:11.000Z</time>
        <extensions>
          <ns3:TrackPointExtension>
            <ns3:atemp>31.0</ns3:atemp>
            <ns3:hr>78</ns3:hr>
          </ns3:TrackPointExtension>
        </extensions>
      </trkpt>
      <trkpt lat="36.8601563014090061187744140625" lon="-118.52753561921417713165283203125">
        <ele>2061.800048828125</ele>
        <time>2021-06-28T15:57:13.000Z</time>
        <extensions>
          <ns3:TrackPointExtension>
            <ns3:atemp>31.0</ns3:atemp>
            <ns3:hr>78</ns3:hr>
          </ns3:TrackPointExtension>
        </extensions>
      </trkpt>
      <trkpt lat="36.86010458506643772125244140625" lon="-118.5275095514953136444091796875">
        <ele>2060.800048828125</ele>
        <time>2021-06-28T15:57:18.000Z</time>
        <extensions>
          <ns3:TrackPointExtension>
            <ns3:atemp>31.0</ns3:atemp>
            <ns3:hr>76</ns3:hr>
          </ns3:TrackPointExtension>
        </extensions>
      </trkpt>
      <trkpt lat="36.8600708059966564178466796875" lon="-118.5275011695921421051025390625">
        <ele>2060.199951171875</ele>
        <time>2021-06-28T15:57:21.000Z</time>
        <extensions>
          <ns3:TrackPointExtension>
            <ns3:atemp>31.0</ns3:atemp>
            <ns3:hr>73</ns3:hr>
          </ns3:TrackPointExtension>
        </extensions>
      </trkpt>
      <trkpt lat="36.860061585903167724609375" lon="-118.52750745601952075958251953125">
        <ele>2060</ele>
        <time>2021-06-28T15:57:22.000Z</time>
        <extensions>
          <ns3:TrackPointExtension>
            <ns3:atemp>31.0</ns3:atemp>
            <ns3:hr>72</ns3:hr>
          </ns3:TrackPointExtension>
        </extensions>
      </trkpt>
      <trkpt lat="36.860051862895488739013671875" lon="-118.52751684375107288360595703125">
        <ele>2060</ele>
        <time>2021-06-28T15:57:23.000Z</time>
        <extensions>
          <ns3:TrackPointExtension>
            <ns3:atemp>31.0</ns3:atemp>
            <ns3:hr>71</ns3:hr>
          </ns3:TrackPointExtension>
        </extensions>
      </trkpt>
      <trkpt lat="36.8600253760814666748046875" lon="-118.52752975188195705413818359375">
        <ele>2059.800048828125</ele>
        <time>2021-06-28T15:57:25.000Z</time>
        <extensions>
          <ns3:TrackPointExtension>
            <ns3:atemp>31.0</ns3:atemp>
            <ns3:hr>71</ns3:hr>
          </ns3:TrackPointExtension>
        </extensions>
      </trkpt>
      <trkpt lat="36.85997751541435718536376953125" lon="-118.52754115127027034759521484375">
        <ele>2059.39990234375</ele>
        <time>2021-06-28T15:57:29.000Z</time>
        <extensions>
          <ns3:TrackPointExtension>
            <ns3:atemp>31.0</ns3:atemp>
            <ns3:hr>70</ns3:hr>
          </ns3:TrackPointExtension>
        </extensions>
      </trkpt>
      <trkpt lat="36.85995840467512607574462890625" lon="-118.527568392455577850341796875">
        <ele>2059</ele>
        <time>2021-06-28T15:57:31.000Z</time>
        <extensions>
          <ns3:TrackPointExtension>
            <ns3:atemp>31.0</ns3:atemp>
            <ns3:hr>70</ns3:hr>
          </ns3:TrackPointExtension>
        </extensions>
      </trkpt>
      <trkpt lat="36.8599504418671131134033203125" lon="-118.52758339606225490570068359375">
        <ele>2058.800048828125</ele>
        <time>2021-06-28T15:57:33.000Z</time>
        <extensions>
          <ns3:TrackPointExtension>
            <ns3:atemp>31.0</ns3:atemp>
            <ns3:hr>69</ns3:hr>
          </ns3:TrackPointExtension>
        </extensions>
      </trkpt>
      <trkpt lat="36.8599314987659454345703125" lon="-118.527602255344390869140625">
        <ele>2058.39990234375</ele>
        <time>2021-06-28T15:57:35.000Z</time>
        <extensions>
          <ns3:TrackPointExtension>
            <ns3:atemp>31.0</ns3:atemp>
            <ns3:hr>71</ns3:hr>
          </ns3:TrackPointExtension>
        </extensions>
      </trkpt>
      <trkpt lat="36.85991029255092144012451171875" lon="-118.527624718844890594482421875">
        <ele>2058.199951171875</ele>
        <time>2021-06-28T15:57:37.000Z</time>
        <extensions>
          <ns3:TrackPointExtension>
            <ns3:atemp>31.0</ns3:atemp>
            <ns3:hr>72</ns3:hr>
          </ns3:TrackPointExtension>
        </extensions>
      </trkpt>
      <trkpt lat="36.859896294772624969482421875" lon="-118.5276277363300323486328125">
        <ele>2057.800048828125</ele>
        <time>2021-06-28T15:57:38.000Z</time>
        <extensions>
          <ns3:TrackPointExtension>
            <ns3:atemp>31.0</ns3:atemp>
            <ns3:hr>72</ns3:hr>
          </ns3:TrackPointExtension>
        </extensions>
      </trkpt>
      <trkpt lat="36.8598565645515918731689453125" lon="-118.527628071606159210205078125">
        <ele>2057</ele>
        <time>2021-06-28T15:57:41.000Z</time>
        <extensions>
          <ns3:TrackPointExtension>
            <ns3:atemp>31.0</ns3:atemp>
            <ns3:hr>72</ns3:hr>
          </ns3:TrackPointExtension>
        </extensions>
      </trkpt>
      <trkpt lat="36.85983267612755298614501953125" lon="-118.52768163196742534637451171875">
        <ele>2056.800048828125</ele>
        <time>2021-06-28T15:57:44.000Z</time>
        <extensions>
          <ns3:TrackPointExtension>
            <ns3:atemp>31.0</ns3:atemp>
            <ns3:hr>71</ns3:hr>
          </ns3:TrackPointExtension>
        </extensions>
      </trkpt>
      <trkpt lat="36.8597646988928318023681640625" lon="-118.52772873826324939727783203125">
        <ele>2056.800048828125</ele>
        <time>2021-06-28T15:57:51.000Z</time>
        <extensions>
          <ns3:TrackPointExtension>
            <ns3:atemp>31.0</ns3:atemp>
            <ns3:hr>72</ns3:hr>
          </ns3:TrackPointExtension>
        </extensions>
      </trkpt>
      <trkpt lat="36.8597532995045185089111328125" lon="-118.52775455452501773834228515625">
        <ele>2056.800048828125</ele>
        <time>2021-06-28T15:57:53.000Z</time>
        <extensions>
          <ns3:TrackPointExtension>
            <ns3:atemp>31.0</ns3:atemp>
            <ns3:hr>70</ns3:hr>
          </ns3:TrackPointExtension>
        </extensions>
      </trkpt>
      <trkpt lat="36.8597472645342350006103515625" lon="-118.52776679210364818572998046875">
        <ele>2056.800048828125</ele>
        <time>2021-06-28T15:57:54.000Z</time>
        <extensions>
          <ns3:TrackPointExtension>
            <ns3:atemp>31.0</ns3:atemp>
            <ns3:hr>71</ns3:hr>
          </ns3:TrackPointExtension>
        </extensions>
      </trkpt>
      <trkpt lat="36.85972773469984531402587890625" lon="-118.52779093198478221893310546875">
        <ele>2056.800048828125</ele>
        <time>2021-06-28T15:57:56.000Z</time>
        <extensions>
          <ns3:TrackPointExtension>
            <ns3:atemp>31.0</ns3:atemp>
            <ns3:hr>74</ns3:hr>
          </ns3:TrackPointExtension>
        </extensions>
      </trkpt>
      <trkpt lat="36.859703846275806427001953125" lon="-118.52783569134771823883056640625">
        <ele>2056.60009765625</ele>
        <time>2021-06-28T15:57:59.000Z</time>
        <extensions>
          <ns3:TrackPointExtension>
            <ns3:atemp>31.0</ns3:atemp>
            <ns3:hr>71</ns3:hr>
          </ns3:TrackPointExtension>
        </extensions>
      </trkpt>
      <trkpt lat="36.85968766920268535614013671875" lon="-118.5278330929577350616455078125">
        <ele>2056.39990234375</ele>
        <time>2021-06-28T15:58:00.000Z</time>
        <extensions>
          <ns3:TrackPointExtension>
            <ns3:atemp>31.0</ns3:atemp>
            <ns3:hr>71</ns3:hr>
          </ns3:TrackPointExtension>
        </extensions>
      </trkpt>
      <trkpt lat="36.859622038900852203369140625" lon="-118.527882881462574005126953125">
        <ele>2056</ele>
        <time>2021-06-28T15:58:06.000Z</time>
        <extensions>
          <ns3:TrackPointExtension>
            <ns3:atemp>31.0</ns3:atemp>
            <ns3:hr>72</ns3:hr>
          </ns3:TrackPointExtension>
        </extensions>
      </trkpt>
      <trkpt lat="36.8596114777028560638427734375" lon="-118.5278837196528911590576171875">
        <ele>2055.800048828125</ele>
        <time>2021-06-28T15:58:07.000Z</time>
        <extensions>
          <ns3:TrackPointExtension>
            <ns3:atemp>31.0</ns3:atemp>
            <ns3:hr>72</ns3:hr>
          </ns3:TrackPointExtension>
        </extensions>
      </trkpt>
      <trkpt lat="36.859547607600688934326171875" lon="-118.52791934274137020111083984375">
        <ele>2055.60009765625</ele>
        <time>2021-06-28T15:58:12.000Z</time>
        <extensions>
          <ns3:TrackPointExtension>
            <ns3:atemp>31.0</ns3:atemp>
            <ns3:hr>72</ns3:hr>
          </ns3:TrackPointExtension>
        </extensions>
      </trkpt>
      <trkpt lat="36.85951617546379566192626953125" lon="-118.52792772464454174041748046875">
        <ele>2056</ele>
        <time>2021-06-28T15:58:14.000Z</time>
        <extensions>
          <ns3:TrackPointExtension>
            <ns3:atemp>31.0</ns3:atemp>
            <ns3:hr>71</ns3:hr>
          </ns3:TrackPointExtension>
        </extensions>
      </trkpt>
      <trkpt lat="36.85948013328015804290771484375" lon="-118.52794465608894824981689453125">
        <ele>2056</ele>
        <time>2021-06-28T15:58:17.000Z</time>
        <extensions>
          <ns3:TrackPointExtension>
            <ns3:atemp>31.0</ns3:atemp>
            <ns3:hr>70</ns3:hr>
          </ns3:TrackPointExtension>
        </extensions>
      </trkpt>
      <trkpt lat="36.85941341333091259002685546875" lon="-118.52800718508660793304443359375">
        <ele>2056</ele>
        <time>2021-06-28T15:58:24.000Z</time>
        <extensions>
          <ns3:TrackPointExtension>
            <ns3:atemp>31.0</ns3:atemp>
            <ns3:hr>72</ns3:hr>
          </ns3:TrackPointExtension>
        </extensions>
      </trkpt>
      <trkpt lat="36.85937519185245037078857421875" lon="-118.52802109904587268829345703125">
        <ele>2056</ele>
        <time>2021-06-28T15:58:28.000Z</time>
        <extensions>
          <ns3:TrackPointExtension>
            <ns3:atemp>31.0</ns3:atemp>
            <ns3:hr>76</ns3:hr>
          </ns3:TrackPointExtension>
        </extensions>
      </trkpt>
      <trkpt lat="36.85935574583709239959716796875" lon="-118.5280208475887775421142578125">
        <ele>2055.60009765625</ele>
        <time>2021-06-28T15:58:30.000Z</time>
        <extensions>
          <ns3:TrackPointExtension>
            <ns3:atemp>31.0</ns3:atemp>
            <ns3:hr>80</ns3:hr>
          </ns3:TrackPointExtension>
        </extensions>
      </trkpt>
      <trkpt lat="36.85932439751923084259033203125" lon="-118.52805462665855884552001953125">
        <ele>2055.199951171875</ele>
        <time>2021-06-28T15:58:34.000Z</time>
        <extensions>
          <ns3:TrackPointExtension>
            <ns3:atemp>31.0</ns3:atemp>
            <ns3:hr>82</ns3:hr>
          </ns3:TrackPointExtension>
        </extensions>
      </trkpt>
      <trkpt lat="36.8592993356287479400634765625" lon="-118.52806694805622100830078125">
        <ele>2054.60009765625</ele>
        <time>2021-06-28T15:58:36.000Z</time>
        <extensions>
          <ns3:TrackPointExtension>
            <ns3:atemp>31.0</ns3:atemp>
            <ns3:hr>84</ns3:hr>
          </ns3:TrackPointExtension>
        </extensions>
      </trkpt>
      <trkpt lat="36.8592497147619724273681640625" lon="-118.52805487811565399169921875">
        <ele>2053.199951171875</ele>
        <time>2021-06-28T15:58:40.000Z</time>
        <extensions>
          <ns3:TrackPointExtension>
            <ns3:atemp>31.0</ns3:atemp>
            <ns3:hr>86</ns3:hr>
          </ns3:TrackPointExtension>
        </extensions>
      </trkpt>
      <trkpt lat="36.85921660624444484710693359375" lon="-118.52807499468326568603515625">
        <ele>2053.199951171875</ele>
        <time>2021-06-28T15:58:43.000Z</time>
        <extensions>
          <ns3:TrackPointExtension>
            <ns3:atemp>31.0</ns3:atemp>
            <ns3:hr>86</ns3:hr>
          </ns3:TrackPointExtension>
        </extensions>
      </trkpt>
      <trkpt lat="36.8591605313122272491455078125" lon="-118.52816208265721797943115234375">
        <ele>2052.60009765625</ele>
        <time>2021-06-28T15:58:51.000Z</time>
        <extensions>
          <ns3:TrackPointExtension>
            <ns3:atemp>31.0</ns3:atemp>
            <ns3:hr>85</ns3:hr>
          </ns3:TrackPointExtension>
        </extensions>
      </trkpt>
      <trkpt lat="36.8591417558491230010986328125" lon="-118.5281827859580516815185546875">
        <ele>2052.60009765625</ele>
        <time>2021-06-28T15:58:54.000Z</time>
        <extensions>
          <ns3:TrackPointExtension>
            <ns3:atemp>31.0</ns3:atemp>
            <ns3:hr>84</ns3:hr>
          </ns3:TrackPointExtension>
        </extensions>
      </trkpt>
      <trkpt lat="36.8591290153563022613525390625" lon="-118.52819326333701610565185546875">
        <ele>2052.60009765625</ele>
        <time>2021-06-28T15:58:56.000Z</time>
        <extensions>
          <ns3:TrackPointExtension>
            <ns3:atemp>31.0</ns3:atemp>
            <ns3:hr>79</ns3:hr>
          </ns3:TrackPointExtension>
        </extensions>
      </trkpt>
      <trkpt lat="36.859126500785350799560546875" lon="-118.52821354754269123077392578125">
        <ele>2052.60009765625</ele>
        <time>2021-06-28T15:58:57.000Z</time>
        <extensions>
          <ns3:TrackPointExtension>
            <ns3:atemp>31.0</ns3:atemp>
            <ns3:hr>82</ns3:hr>
          </ns3:TrackPointExtension>
        </extensions>
      </trkpt>
      <trkpt lat="36.85910713858902454376220703125" lon="-118.5282293893396854400634765625">
        <ele>2052.60009765625</ele>
        <time>2021-06-28T15:58:58.000Z</time>
        <extensions>
          <ns3:TrackPointExtension>
            <ns3:atemp>31.0</ns3:atemp>
            <ns3:hr>81</ns3:hr>
          </ns3:TrackPointExtension>
        </extensions>
      </trkpt>
      <trkpt lat="36.85904192738234996795654296875" lon="-118.52829351089894771575927734375">
        <ele>2052.199951171875</ele>
        <time>2021-06-28T15:59:04.000Z</time>
        <extensions>
          <ns3:TrackPointExtension>
            <ns3:atemp>31.0</ns3:atemp>
            <ns3:hr>80</ns3:hr>
          </ns3:TrackPointExtension>
        </extensions>
      </trkpt>
      <trkpt lat="36.85902432538568973541259765625" lon="-118.52832267992198467254638671875">
        <ele>2052.199951171875</ele>
        <time>2021-06-28T15:59:07.000Z</time>
        <extensions>
          <ns3:TrackPointExtension>
            <ns3:atemp>31.0</ns3:atemp>
            <ns3:hr>80</ns3:hr>
          </ns3:TrackPointExtension>
        </extensions>
      </trkpt>
      <trkpt lat="36.85900278389453887939453125" lon="-118.52834380231797695159912109375">
        <ele>2052.199951171875</ele>
        <time>2021-06-28T15:59:09.000Z</time>
        <extensions>
          <ns3:TrackPointExtension>
            <ns3:atemp>31.0</ns3:atemp>
            <ns3:hr>81</ns3:hr>
          </ns3:TrackPointExtension>
        </extensions>
      </trkpt>
      <trkpt lat="36.85896934010088443756103515625" lon="-118.5283832810819149017333984375">
        <ele>2052.39990234375</ele>
        <time>2021-06-28T15:59:14.000Z</time>
        <extensions>
          <ns3:TrackPointExtension>
            <ns3:atemp>31.0</ns3:atemp>
            <ns3:hr>78</ns3:hr>
          </ns3:TrackPointExtension>
        </extensions>
      </trkpt>
      <trkpt lat="36.85895358212292194366455078125" lon="-118.5284055769443511962890625">
        <ele>2052.39990234375</ele>
        <time>2021-06-28T15:59:16.000Z</time>
        <extensions>
          <ns3:TrackPointExtension>
            <ns3:atemp>31.0</ns3:atemp>
            <ns3:hr>81</ns3:hr>
          </ns3:TrackPointExtension>
        </extensions>
      </trkpt>
      <trkpt lat="36.8589417636394500732421875" lon="-118.5284275375306606292724609375">
        <ele>2052.39990234375</ele>
        <time>2021-06-28T15:59:18.000Z</time>
        <extensions>
          <ns3:TrackPointExtension>
            <ns3:atemp>31.0</ns3:atemp>
            <ns3:hr>82</ns3:hr>
          </ns3:TrackPointExtension>
        </extensions>
      </trkpt>
      <trkpt lat="36.85891301371157169342041015625" lon="-118.5284660942852497100830078125">
        <ele>2052.199951171875</ele>
        <time>2021-06-28T15:59:22.000Z</time>
        <extensions>
          <ns3:TrackPointExtension>
            <ns3:atemp>31.0</ns3:atemp>
            <ns3:hr>83</ns3:hr>
          </ns3:TrackPointExtension>
        </extensions>
      </trkpt>
      <trkpt lat="36.8588671647012233734130859375" lon="-118.5285143740475177764892578125">
        <ele>2052.39990234375</ele>
        <time>2021-06-28T15:59:28.000Z</time>
        <extensions>
          <ns3:TrackPointExtension>
            <ns3:atemp>31.0</ns3:atemp>
            <ns3:hr>85</ns3:hr>
          </ns3:TrackPointExtension>
        </extensions>
      </trkpt>
      <trkpt lat="36.8588500656187534332275390625" lon="-118.52851512841880321502685546875">
        <ele>2052.39990234375</ele>
        <time>2021-06-28T15:59:30.000Z</time>
        <extensions>
          <ns3:TrackPointExtension>
            <ns3:atemp>31.0</ns3:atemp>
            <ns3:hr>89</ns3:hr>
          </ns3:TrackPointExtension>
        </extensions>
      </trkpt>
      <trkpt lat="36.85882869176566600799560546875" lon="-118.5285187326371669769287109375">
        <ele>2052.39990234375</ele>
        <time>2021-06-28T15:59:31.000Z</time>
        <extensions>
          <ns3:TrackPointExtension>
            <ns3:atemp>31.0</ns3:atemp>
            <ns3:hr>87</ns3:hr>
          </ns3:TrackPointExtension>
        </extensions>
      </trkpt>
      <trkpt lat="36.85879415832459926605224609375" lon="-118.528544045984745025634765625">
        <ele>2052.199951171875</ele>
        <time>2021-06-28T15:59:34.000Z</time>
        <extensions>
          <ns3:TrackPointExtension>
            <ns3:atemp>31.0</ns3:atemp>
            <ns3:hr>88</ns3:hr>
          </ns3:TrackPointExtension>
        </extensions>
      </trkpt>
      <trkpt lat="36.85878728516399860382080078125" lon="-118.528558798134326934814453125">
        <ele>2052.199951171875</ele>
        <time>2021-06-28T15:59:35.000Z</time>
        <extensions>
          <ns3:TrackPointExtension>
            <ns3:atemp>31.0</ns3:atemp>
            <ns3:hr>88</ns3:hr>
          </ns3:TrackPointExtension>
        </extensions>
      </trkpt>
      <trkpt lat="36.85878728516399860382080078125" lon="-118.528558798134326934814453125">
        <ele>2052</ele>
        <time>2021-06-28T15:59:36.000Z</time>
        <extensions>
          <ns3:TrackPointExtension>
            <ns3:atemp>31.0</ns3:atemp>
            <ns3:hr>91</ns3:hr>
          </ns3:TrackPointExtension>
        </extensions>
      </trkpt>
      <trkpt lat="36.85874990187585353851318359375" lon="-118.52857849560678005218505859375">
        <ele>2052</ele>
        <time>2021-06-28T15:59:40.000Z</time>
        <extensions>
          <ns3:TrackPointExtension>
            <ns3:atemp>31.0</ns3:atemp>
            <ns3:hr>87</ns3:hr>
          </ns3:TrackPointExtension>
        </extensions>
      </trkpt>
      <trkpt lat="36.8587374128401279449462890625" lon="-118.5286162979900836944580078125">
        <ele>2052</ele>
        <time>2021-06-28T15:59:43.000Z</time>
        <extensions>
          <ns3:TrackPointExtension>
            <ns3:atemp>31.0</ns3:atemp>
            <ns3:hr>84</ns3:hr>
          </ns3:TrackPointExtension>
        </extensions>
      </trkpt>
      <trkpt lat="36.8587149493396282196044921875" lon="-118.5286830179393291473388671875">
        <ele>2052.199951171875</ele>
        <time>2021-06-28T15:59:44.000Z</time>
        <extensions>
          <ns3:TrackPointExtension>
            <ns3:atemp>31.0</ns3:atemp>
            <ns3:hr>83</ns3:hr>
          </ns3:TrackPointExtension>
        </extensions>
      </trkpt>
      <trkpt lat="36.8586837686598300933837890625" lon="-118.52872383780777454376220703125">
        <ele>2052.199951171875</ele>
        <time>2021-06-28T15:59:48.000Z</time>
        <extensions>
          <ns3:TrackPointExtension>
            <ns3:atemp>31.0</ns3:atemp>
            <ns3:hr>83</ns3:hr>
          </ns3:TrackPointExtension>
        </extensions>
      </trkpt>
      <trkpt lat="36.85865200124680995941162109375" lon="-118.52875585667788982391357421875">
        <ele>2052.199951171875</ele>
        <time>2021-06-28T15:59:53.000Z</time>
        <extensions>
          <ns3:TrackPointExtension>
            <ns3:atemp>31.0</ns3:atemp>
            <ns3:hr>83</ns3:hr>
          </ns3:TrackPointExtension>
        </extensions>
      </trkpt>
      <trkpt lat="36.858616210520267486572265625" lon="-118.528792150318622589111328125">
        <ele>2052.60009765625</ele>
        <time>2021-06-28T15:59:59.000Z</time>
        <extensions>
          <ns3:TrackPointExtension>
            <ns3:atemp>31.0</ns3:atemp>
            <ns3:hr>83</ns3:hr>
          </ns3:TrackPointExtension>
        </extensions>
      </trkpt>
      <trkpt lat="36.8585823476314544677734375" lon="-118.528822325170040130615234375">
        <ele>2053.199951171875</ele>
        <time>2021-06-28T16:00:02.000Z</time>
        <extensions>
          <ns3:TrackPointExtension>
            <ns3:atemp>31.0</ns3:atemp>
            <ns3:hr>83</ns3:hr>
          </ns3:TrackPointExtension>
        </extensions>
      </trkpt>
      <trkpt lat="36.85855678282678127288818359375" lon="-118.5288213193416595458984375">
        <ele>2053.39990234375</ele>
        <time>2021-06-28T16:00:04.000Z</time>
        <extensions>
          <ns3:TrackPointExtension>
            <ns3:atemp>31.0</ns3:atemp>
            <ns3:hr>83</ns3:hr>
          </ns3:TrackPointExtension>
        </extensions>
      </trkpt>
      <trkpt lat="36.85851118527352809906005859375" lon="-118.52885057218372821807861328125">
        <ele>2053.60009765625</ele>
        <time>2021-06-28T16:00:08.000Z</time>
        <extensions>
          <ns3:TrackPointExtension>
            <ns3:atemp>31.0</ns3:atemp>
            <ns3:hr>84</ns3:hr>
          </ns3:TrackPointExtension>
        </extensions>
      </trkpt>
      <trkpt lat="36.85849995352327823638916015625" lon="-118.52885509841144084930419921875">
        <ele>2053.60009765625</ele>
        <time>2021-06-28T16:00:09.000Z</time>
        <extensions>
          <ns3:TrackPointExtension>
            <ns3:atemp>31.0</ns3:atemp>
            <ns3:hr>85</ns3:hr>
          </ns3:TrackPointExtension>
        </extensions>
      </trkpt>
      <trkpt lat="36.85847598128020763397216796875" lon="-118.52888057939708232879638671875">
        <ele>2053.60009765625</ele>
        <time>2021-06-28T16:00:11.000Z</time>
        <extensions>
          <ns3:TrackPointExtension>
            <ns3:atemp>31.0</ns3:atemp>
            <ns3:hr>91</ns3:hr>
          </ns3:TrackPointExtension>
        </extensions>
      </trkpt>
      <trkpt lat="36.85845921747386455535888671875" lon="-118.52889583446085453033447265625">
        <ele>2053.60009765625</ele>
        <time>2021-06-28T16:00:12.000Z</time>
        <extensions>
          <ns3:TrackPointExtension>
            <ns3:atemp>31.0</ns3:atemp>
            <ns3:hr>88</ns3:hr>
          </ns3:TrackPointExtension>
        </extensions>
      </trkpt>
      <trkpt lat="36.85841579921543598175048828125" lon="-118.52890706621110439300537109375">
        <ele>2053.60009765625</ele>
        <time>2021-06-28T16:00:16.000Z</time>
        <extensions>
          <ns3:TrackPointExtension>
            <ns3:atemp>31.0</ns3:atemp>
            <ns3:hr>91</ns3:hr>
          </ns3:TrackPointExtension>
        </extensions>
      </trkpt>
      <trkpt lat="36.85840305872261524200439453125" lon="-118.52889684028923511505126953125">
        <ele>2053.60009765625</ele>
        <time>2021-06-28T16:00:18.000Z</time>
        <extensions>
          <ns3:TrackPointExtension>
            <ns3:atemp>31.0</ns3:atemp>
            <ns3:hr>92</ns3:hr>
          </ns3:TrackPointExtension>
        </extensions>
      </trkpt>
      <trkpt lat="36.85840154998004436492919921875" lon="-118.52890354581177234649658203125">
        <ele>2053.39990234375</ele>
        <time>2021-06-28T16:00:20.000Z</time>
        <extensions>
          <ns3:TrackPointExtension>
            <ns3:atemp>31.0</ns3:atemp>
            <ns3:hr>91</ns3:hr>
          </ns3:TrackPointExtension>
        </extensions>
      </trkpt>
      <trkpt lat="36.85837992466986179351806640625" lon="-118.52893439121544361114501953125">
        <ele>2053.199951171875</ele>
        <time>2021-06-28T16:00:23.000Z</time>
        <extensions>
          <ns3:TrackPointExtension>
            <ns3:atemp>31.0</ns3:atemp>
            <ns3:hr>91</ns3:hr>
          </ns3:TrackPointExtension>
        </extensions>
      </trkpt>
      <trkpt lat="36.85837489552795886993408203125" lon="-118.528937995433807373046875">
        <ele>2053.199951171875</ele>
        <time>2021-06-28T16:00:24.000Z</time>
        <extensions>
          <ns3:TrackPointExtension>
            <ns3:atemp>31.0</ns3:atemp>
            <ns3:hr>91</ns3:hr>
          </ns3:TrackPointExtension>
        </extensions>
      </trkpt>
      <trkpt lat="36.85835368931293487548828125" lon="-118.5289448685944080352783203125">
        <ele>2052.800048828125</ele>
        <time>2021-06-28T16:00:26.000Z</time>
        <extensions>
          <ns3:TrackPointExtension>
            <ns3:atemp>31.0</ns3:atemp>
            <ns3:hr>90</ns3:hr>
          </ns3:TrackPointExtension>
        </extensions>
      </trkpt>
      <trkpt lat="36.85832594521343708038330078125" lon="-118.52893925271928310394287109375">
        <ele>2052.199951171875</ele>
        <time>2021-06-28T16:00:28.000Z</time>
        <extensions>
          <ns3:TrackPointExtension>
            <ns3:atemp>31.0</ns3:atemp>
            <ns3:hr>90</ns3:hr>
          </ns3:TrackPointExtension>
        </extensions>
      </trkpt>
      <trkpt lat="36.8582854606211185455322265625" lon="-118.5289408452808856964111328125">
        <ele>2052.199951171875</ele>
        <time>2021-06-28T16:00:31.000Z</time>
        <extensions>
          <ns3:TrackPointExtension>
            <ns3:atemp>31.0</ns3:atemp>
            <ns3:hr>90</ns3:hr>
          </ns3:TrackPointExtension>
        </extensions>
      </trkpt>
      <trkpt lat="36.8582854606211185455322265625" lon="-118.5289408452808856964111328125">
        <ele>2052.199951171875</ele>
        <time>2021-06-28T16:00:32.000Z</time>
        <extensions>
          <ns3:TrackPointExtension>
            <ns3:atemp>31.0</ns3:atemp>
            <ns3:hr>90</ns3:hr>
          </ns3:TrackPointExtension>
        </extensions>
      </trkpt>
      <trkpt lat="36.85828135348856449127197265625" lon="-118.5289502330124378204345703125">
        <ele>2052</ele>
        <time>2021-06-28T16:00:33.000Z</time>
        <extensions>
          <ns3:TrackPointExtension>
            <ns3:atemp>31.0</ns3:atemp>
            <ns3:hr>90</ns3:hr>
          </ns3:TrackPointExtension>
        </extensions>
      </trkpt>
      <trkpt lat="36.8582673557102680206298828125" lon="-118.52896749973297119140625">
        <ele>2052.199951171875</ele>
        <time>2021-06-28T16:00:36.000Z</time>
        <extensions>
          <ns3:TrackPointExtension>
            <ns3:atemp>31.0</ns3:atemp>
            <ns3:hr>91</ns3:hr>
          </ns3:TrackPointExtension>
        </extensions>
      </trkpt>
      <trkpt lat="36.85821765102446079254150390625" lon="-118.5290119238197803497314453125">
        <ele>2052.39990234375</ele>
        <time>2021-06-28T16:00:41.000Z</time>
        <extensions>
          <ns3:TrackPointExtension>
            <ns3:atemp>31.0</ns3:atemp>
            <ns3:hr>90</ns3:hr>
          </ns3:TrackPointExtension>
        </extensions>
      </trkpt>
      <trkpt lat="36.85818345285952091217041015625" lon="-118.52902810089290142059326171875">
        <ele>2052.800048828125</ele>
        <time>2021-06-28T16:00:46.000Z</time>
        <extensions>
          <ns3:TrackPointExtension>
            <ns3:atemp>30.0</ns3:atemp>
            <ns3:hr>91</ns3:hr>
          </ns3:TrackPointExtension>
        </extensions>
      </trkpt>
      <trkpt lat="36.8581734783947467803955078125" lon="-118.529035560786724090576171875">
        <ele>2052.800048828125</ele>
        <time>2021-06-28T16:00:47.000Z</time>
        <extensions>
          <ns3:TrackPointExtension>
            <ns3:atemp>31.0</ns3:atemp>
            <ns3:hr>90</ns3:hr>
          </ns3:TrackPointExtension>
        </extensions>
      </trkpt>
      <trkpt lat="36.85806543566286563873291015625" lon="-118.52902810089290142059326171875">
        <ele>2052.60009765625</ele>
        <time>2021-06-28T16:00:53.000Z</time>
        <extensions>
          <ns3:TrackPointExtension>
            <ns3:atemp>30.0</ns3:atemp>
            <ns3:hr>89</ns3:hr>
          </ns3:TrackPointExtension>
        </extensions>
      </trkpt>
      <trkpt lat="36.85805261135101318359375" lon="-118.5290461219847202301025390625">
        <ele>2052.60009765625</ele>
        <time>2021-06-28T16:00:54.000Z</time>
        <extensions>
          <ns3:TrackPointExtension>
            <ns3:atemp>30.0</ns3:atemp>
            <ns3:hr>90</ns3:hr>
          </ns3:TrackPointExtension>
        </extensions>
      </trkpt>
      <trkpt lat="36.8580110371112823486328125" lon="-118.5291047953069210052490234375">
        <ele>2052.39990234375</ele>
        <time>2021-06-28T16:00:58.000Z</time>
        <extensions>
          <ns3:TrackPointExtension>
            <ns3:atemp>30.0</ns3:atemp>
            <ns3:hr>89</ns3:hr>
          </ns3:TrackPointExtension>
        </extensions>
      </trkpt>
      <trkpt lat="36.8579766713082790374755859375" lon="-118.52916053496301174163818359375">
        <ele>2052.199951171875</ele>
        <time>2021-06-28T16:01:00.000Z</time>
        <extensions>
          <ns3:TrackPointExtension>
            <ns3:atemp>30.0</ns3:atemp>
            <ns3:hr>88</ns3:hr>
          </ns3:TrackPointExtension>
        </extensions>
      </trkpt>
      <trkpt lat="36.857930906116962432861328125" lon="-118.52921904064714908599853515625">
        <ele>2052.60009765625</ele>
        <time>2021-06-28T16:01:04.000Z</time>
        <extensions>
          <ns3:TrackPointExtension>
            <ns3:atemp>30.0</ns3:atemp>
            <ns3:hr>88</ns3:hr>
          </ns3:TrackPointExtension>
        </extensions>
      </trkpt>
      <trkpt lat="36.85788991861045360565185546875" lon="-118.5292244888842105865478515625">
        <ele>2052.60009765625</ele>
        <time>2021-06-28T16:01:07.000Z</time>
        <extensions>
          <ns3:TrackPointExtension>
            <ns3:atemp>30.0</ns3:atemp>
            <ns3:hr>88</ns3:hr>
          </ns3:TrackPointExtension>
        </extensions>
      </trkpt>
      <trkpt lat="36.85782034881412982940673828125" lon="-118.52927234955132007598876953125">
        <ele>2052.199951171875</ele>
        <time>2021-06-28T16:01:13.000Z</time>
        <extensions>
          <ns3:TrackPointExtension>
            <ns3:atemp>30.0</ns3:atemp>
            <ns3:hr>85</ns3:hr>
          </ns3:TrackPointExtension>
        </extensions>
      </trkpt>
      <trkpt lat="36.85781179927289485931396484375" lon="-118.52928492240607738494873046875">
        <ele>2052.199951171875</ele>
        <time>2021-06-28T16:01:15.000Z</time>
        <extensions>
          <ns3:TrackPointExtension>
            <ns3:atemp>30.0</ns3:atemp>
            <ns3:hr>84</ns3:hr>
          </ns3:TrackPointExtension>
        </extensions>
      </trkpt>
      <trkpt lat="36.85776494443416595458984375" lon="-118.52931409142911434173583984375">
        <ele>2052.60009765625</ele>
        <time>2021-06-28T16:01:20.000Z</time>
        <extensions>
          <ns3:TrackPointExtension>
            <ns3:atemp>30.0</ns3:atemp>
            <ns3:hr>81</ns3:hr>
          </ns3:TrackPointExtension>
        </extensions>
      </trkpt>
      <trkpt lat="36.85775287449359893798828125" lon="-118.52931560017168521881103515625">
        <ele>2052.60009765625</ele>
        <time>2021-06-28T16:01:21.000Z</time>
        <extensions>
          <ns3:TrackPointExtension>
            <ns3:atemp>30.0</ns3:atemp>
            <ns3:hr>81</ns3:hr>
          </ns3:TrackPointExtension>
        </extensions>
      </trkpt>
      <trkpt lat="36.8576769344508647918701171875" lon="-118.52937594987452030181884765625">
        <ele>2052.800048828125</ele>
        <time>2021-06-28T16:01:27.000Z</time>
        <extensions>
          <ns3:TrackPointExtension>
            <ns3:atemp>30.0</ns3:atemp>
            <ns3:hr>81</ns3:hr>
          </ns3:TrackPointExtension>
        </extensions>
      </trkpt>
      <trkpt lat="36.85764315538108348846435546875" lon="-118.52939656935632228851318359375">
        <ele>2052.800048828125</ele>
        <time>2021-06-28T16:01:29.000Z</time>
        <extensions>
          <ns3:TrackPointExtension>
            <ns3:atemp>30.0</ns3:atemp>
            <ns3:hr>81</ns3:hr>
          </ns3:TrackPointExtension>
        </extensions>
      </trkpt>
      <trkpt lat="36.85756034217774868011474609375" lon="-118.5294937156140804290771484375">
        <ele>2052.39990234375</ele>
        <time>2021-06-28T16:01:37.000Z</time>
        <extensions>
          <ns3:TrackPointExtension>
            <ns3:atemp>30.0</ns3:atemp>
            <ns3:hr>83</ns3:hr>
          </ns3:TrackPointExtension>
        </extensions>
      </trkpt>
      <trkpt lat="36.85756403021514415740966796875" lon="-118.52952472865581512451171875">
        <ele>2052.39990234375</ele>
        <time>2021-06-28T16:01:38.000Z</time>
        <extensions>
          <ns3:TrackPointExtension>
            <ns3:atemp>30.0</ns3:atemp>
            <ns3:hr>84</ns3:hr>
          </ns3:TrackPointExtension>
        </extensions>
      </trkpt>
      <trkpt lat="36.85756268911063671112060546875" lon="-118.52953906171023845672607421875">
        <ele>2052.199951171875</ele>
        <time>2021-06-28T16:01:39.000Z</time>
        <extensions>
          <ns3:TrackPointExtension>
            <ns3:atemp>30.0</ns3:atemp>
            <ns3:hr>86</ns3:hr>
          </ns3:TrackPointExtension>
        </extensions>
      </trkpt>
      <trkpt lat="36.857550702989101409912109375" lon="-118.5295865871012210845947265625">
        <ele>2052</ele>
        <time>2021-06-28T16:01:42.000Z</time>
        <extensions>
          <ns3:TrackPointExtension>
            <ns3:atemp>30.0</ns3:atemp>
            <ns3:hr>88</ns3:hr>
          </ns3:TrackPointExtension>
        </extensions>
      </trkpt>
      <trkpt lat="36.8575336039066314697265625" lon="-118.5295889340341091156005859375">
        <ele>2052</ele>
        <time>2021-06-28T16:01:43.000Z</time>
        <extensions>
          <ns3:TrackPointExtension>
            <ns3:atemp>30.0</ns3:atemp>
            <ns3:hr>88</ns3:hr>
          </ns3:TrackPointExtension>
        </extensions>
      </trkpt>
      <trkpt lat="36.8575336039066314697265625" lon="-118.5295889340341091156005859375">
        <ele>2051.39990234375</ele>
        <time>2021-06-28T16:01:44.000Z</time>
        <extensions>
          <ns3:TrackPointExtension>
            <ns3:atemp>30.0</ns3:atemp>
            <ns3:hr>89</ns3:hr>
          </ns3:TrackPointExtension>
        </extensions>
      </trkpt>
      <trkpt lat="36.85749278403818607330322265625" lon="-118.529616259038448333740234375">
        <ele>2052</ele>
        <time>2021-06-28T16:01:49.000Z</time>
        <extensions>
          <ns3:TrackPointExtension>
            <ns3:atemp>30.0</ns3:atemp>
            <ns3:hr>89</ns3:hr>
          </ns3:TrackPointExtension>
        </extensions>
      </trkpt>
      <trkpt lat="36.857464201748371124267578125" lon="-118.52959304116666316986083984375">
        <ele>2052</ele>
        <time>2021-06-28T16:01:51.000Z</time>
        <extensions>
          <ns3:TrackPointExtension>
            <ns3:atemp>30.0</ns3:atemp>
            <ns3:hr>89</ns3:hr>
          </ns3:TrackPointExtension>
        </extensions>
      </trkpt>
      <trkpt lat="36.857422627508640289306640625" lon="-118.52956504561007022857666015625">
        <ele>2051.800048828125</ele>
        <time>2021-06-28T16:01:54.000Z</time>
        <extensions>
          <ns3:TrackPointExtension>
            <ns3:atemp>30.0</ns3:atemp>
            <ns3:hr>89</ns3:hr>
          </ns3:TrackPointExtension>
        </extensions>
      </trkpt>
      <trkpt lat="36.85738675296306610107421875" lon="-118.5295714996755123138427734375">
        <ele>2051.800048828125</ele>
        <time>2021-06-28T16:01:58.000Z</time>
        <extensions>
          <ns3:TrackPointExtension>
            <ns3:atemp>30.0</ns3:atemp>
            <ns3:hr>89</ns3:hr>
          </ns3:TrackPointExtension>
        </extensions>
      </trkpt>
      <trkpt lat="36.857331097126007080078125" lon="-118.529598154127597808837890625">
        <ele>2052</ele>
        <time>2021-06-28T16:02:04.000Z</time>
        <extensions>
          <ns3:TrackPointExtension>
            <ns3:atemp>30.0</ns3:atemp>
            <ns3:hr>88</ns3:hr>
          </ns3:TrackPointExtension>
        </extensions>
      </trkpt>
      <trkpt lat="36.857331097126007080078125" lon="-118.529598154127597808837890625">
        <ele>2052</ele>
        <time>2021-06-28T16:02:05.000Z</time>
        <extensions>
          <ns3:TrackPointExtension>
            <ns3:atemp>30.0</ns3:atemp>
            <ns3:hr>87</ns3:hr>
          </ns3:TrackPointExtension>
        </extensions>
      </trkpt>
      <trkpt lat="36.857309639453887939453125" lon="-118.52962740696966648101806640625">
        <ele>2051.800048828125</ele>
        <time>2021-06-28T16:02:07.000Z</time>
        <extensions>
          <ns3:TrackPointExtension>
            <ns3:atemp>30.0</ns3:atemp>
            <ns3:hr>84</ns3:hr>
          </ns3:TrackPointExtension>
        </extensions>
      </trkpt>
      <trkpt lat="36.857309639453887939453125" lon="-118.52962740696966648101806640625">
        <ele>2051.800048828125</ele>
        <time>2021-06-28T16:02:08.000Z</time>
        <extensions>
          <ns3:TrackPointExtension>
            <ns3:atemp>30.0</ns3:atemp>
            <ns3:hr>87</ns3:hr>
          </ns3:TrackPointExtension>
        </extensions>
      </trkpt>
      <trkpt lat="36.8572930432856082916259765625" lon="-118.5296690650284290313720703125">
        <ele>2051.800048828125</ele>
        <time>2021-06-28T16:02:12.000Z</time>
        <extensions>
          <ns3:TrackPointExtension>
            <ns3:atemp>30.0</ns3:atemp>
            <ns3:hr>87</ns3:hr>
          </ns3:TrackPointExtension>
        </extensions>
      </trkpt>
      <trkpt lat="36.85726110823452472686767578125" lon="-118.52969513274729251861572265625">
        <ele>2051.800048828125</ele>
        <time>2021-06-28T16:02:15.000Z</time>
        <extensions>
          <ns3:TrackPointExtension>
            <ns3:atemp>30.0</ns3:atemp>
            <ns3:hr>91</ns3:hr>
          </ns3:TrackPointExtension>
        </extensions>
      </trkpt>
      <trkpt lat="36.857254318892955780029296875" lon="-118.52970753796398639678955078125">
        <ele>2051.800048828125</ele>
        <time>2021-06-28T16:02:16.000Z</time>
        <extensions>
          <ns3:TrackPointExtension>
            <ns3:atemp>30.0</ns3:atemp>
            <ns3:hr>90</ns3:hr>
          </ns3:TrackPointExtension>
        </extensions>
      </trkpt>
      <trkpt lat="36.85713739134371280670166015625" lon="-118.52976344525814056396484375">
        <ele>2052.800048828125</ele>
        <time>2021-06-28T16:02:24.000Z</time>
        <extensions>
          <ns3:TrackPointExtension>
            <ns3:atemp>30.0</ns3:atemp>
            <ns3:hr>88</ns3:hr>
          </ns3:TrackPointExtension>
        </extensions>
      </trkpt>
      <trkpt lat="36.85711191035807132720947265625" lon="-118.52976084686815738677978515625">
        <ele>2053.199951171875</ele>
        <time>2021-06-28T16:02:27.000Z</time>
        <extensions>
          <ns3:TrackPointExtension>
            <ns3:atemp>30.0</ns3:atemp>
            <ns3:hr>89</ns3:hr>
          </ns3:TrackPointExtension>
        </extensions>
      </trkpt>
      <trkpt lat="36.85707519762217998504638671875" lon="-118.52974978275597095489501953125">
        <ele>2053.39990234375</ele>
        <time>2021-06-28T16:02:30.000Z</time>
        <extensions>
          <ns3:TrackPointExtension>
            <ns3:atemp>30.0</ns3:atemp>
            <ns3:hr>92</ns3:hr>
          </ns3:TrackPointExtension>
        </extensions>
      </trkpt>
      <trkpt lat="36.85705223120748996734619140625" lon="-118.5297595895826816558837890625">
        <ele>2053.39990234375</ele>
        <time>2021-06-28T16:02:32.000Z</time>
        <extensions>
          <ns3:TrackPointExtension>
            <ns3:atemp>30.0</ns3:atemp>
            <ns3:hr>94</ns3:hr>
          </ns3:TrackPointExtension>
        </extensions>
      </trkpt>
      <trkpt lat="36.85703865252435207366943359375" lon="-118.52975581772625446319580078125">
        <ele>2053.39990234375</ele>
        <time>2021-06-28T16:02:33.000Z</time>
        <extensions>
          <ns3:TrackPointExtension>
            <ns3:atemp>30.0</ns3:atemp>
            <ns3:hr>95</ns3:hr>
          </ns3:TrackPointExtension>
        </extensions>
      </trkpt>
      <trkpt lat="36.85698467306792736053466796875" lon="-118.52975900284945964813232421875">
        <ele>2053.199951171875</ele>
        <time>2021-06-28T16:02:36.000Z</time>
        <extensions>
          <ns3:TrackPointExtension>
            <ns3:atemp>30.0</ns3:atemp>
            <ns3:hr>98</ns3:hr>
          </ns3:TrackPointExtension>
        </extensions>
      </trkpt>
      <trkpt lat="36.856977380812168121337890625" lon="-118.529778532683849334716796875">
        <ele>2053</ele>
        <time>2021-06-28T16:02:37.000Z</time>
        <extensions>
          <ns3:TrackPointExtension>
            <ns3:atemp>30.0</ns3:atemp>
            <ns3:hr>98</ns3:hr>
          </ns3:TrackPointExtension>
        </extensions>
      </trkpt>
      <trkpt lat="36.85692407190799713134765625" lon="-118.52981700561940670013427734375">
        <ele>2052.39990234375</ele>
        <time>2021-06-28T16:02:42.000Z</time>
        <extensions>
          <ns3:TrackPointExtension>
            <ns3:atemp>30.0</ns3:atemp>
            <ns3:hr>97</ns3:hr>
          </ns3:TrackPointExtension>
        </extensions>
      </trkpt>
      <trkpt lat="36.8569011054933071136474609375" lon="-118.52984257042407989501953125">
        <ele>2052.39990234375</ele>
        <time>2021-06-28T16:02:45.000Z</time>
        <extensions>
          <ns3:TrackPointExtension>
            <ns3:atemp>30.0</ns3:atemp>
            <ns3:hr>97</ns3:hr>
          </ns3:TrackPointExtension>
        </extensions>
      </trkpt>
      <trkpt lat="36.856892891228199005126953125" lon="-118.52984927594661712646484375">
        <ele>2052.39990234375</ele>
        <time>2021-06-28T16:02:46.000Z</time>
        <extensions>
          <ns3:TrackPointExtension>
            <ns3:atemp>30.0</ns3:atemp>
            <ns3:hr>96</ns3:hr>
          </ns3:TrackPointExtension>
        </extensions>
      </trkpt>
      <trkpt lat="36.85684570111334323883056640625" lon="-118.52988255210220813751220703125">
        <ele>2052.39990234375</ele>
        <time>2021-06-28T16:02:50.000Z</time>
        <extensions>
          <ns3:TrackPointExtension>
            <ns3:atemp>30.0</ns3:atemp>
            <ns3:hr>93</ns3:hr>
          </ns3:TrackPointExtension>
        </extensions>
      </trkpt>
      <trkpt lat="36.85684570111334323883056640625" lon="-118.52988255210220813751220703125">
        <ele>2052.199951171875</ele>
        <time>2021-06-28T16:02:51.000Z</time>
        <extensions>
          <ns3:TrackPointExtension>
            <ns3:atemp>30.0</ns3:atemp>
            <ns3:hr>94</ns3:hr>
          </ns3:TrackPointExtension>
        </extensions>
      </trkpt>
      <trkpt lat="36.85682726092636585235595703125" lon="-118.52988104335963726043701171875">
        <ele>2052.199951171875</ele>
        <time>2021-06-28T16:02:52.000Z</time>
        <extensions>
          <ns3:TrackPointExtension>
            <ns3:atemp>30.0</ns3:atemp>
            <ns3:hr>94</ns3:hr>
          </ns3:TrackPointExtension>
        </extensions>
      </trkpt>
      <trkpt lat="36.8567753769457340240478515625" lon="-118.529858328402042388916015625">
        <ele>2051.60009765625</ele>
        <time>2021-06-28T16:02:54.000Z</time>
        <extensions>
          <ns3:TrackPointExtension>
            <ns3:atemp>30.0</ns3:atemp>
            <ns3:hr>93</ns3:hr>
          </ns3:TrackPointExtension>
        </extensions>
      </trkpt>
      <trkpt lat="36.8567257560789585113525390625" lon="-118.52989043109118938446044921875">
        <ele>2051.39990234375</ele>
        <time>2021-06-28T16:02:58.000Z</time>
        <extensions>
          <ns3:TrackPointExtension>
            <ns3:atemp>30.0</ns3:atemp>
            <ns3:hr>91</ns3:hr>
          </ns3:TrackPointExtension>
        </extensions>
      </trkpt>
      <trkpt lat="36.85671125538647174835205078125" lon="-118.52989663369953632354736328125">
        <ele>2051.39990234375</ele>
        <time>2021-06-28T16:03:00.000Z</time>
        <extensions>
          <ns3:TrackPointExtension>
            <ns3:atemp>30.0</ns3:atemp>
            <ns3:hr>91</ns3:hr>
          </ns3:TrackPointExtension>
        </extensions>
      </trkpt>
      <trkpt lat="36.856642775237560272216796875" lon="-118.5299745015799999237060546875">
        <ele>2051.800048828125</ele>
        <time>2021-06-28T16:03:06.000Z</time>
        <extensions>
          <ns3:TrackPointExtension>
            <ns3:atemp>30.0</ns3:atemp>
            <ns3:hr>91</ns3:hr>
          </ns3:TrackPointExtension>
        </extensions>
      </trkpt>
      <trkpt lat="36.8566162884235382080078125" lon="-118.530015908181667327880859375">
        <ele>2052</ele>
        <time>2021-06-28T16:03:09.000Z</time>
        <extensions>
          <ns3:TrackPointExtension>
            <ns3:atemp>30.0</ns3:atemp>
            <ns3:hr>91</ns3:hr>
          </ns3:TrackPointExtension>
        </extensions>
      </trkpt>
      <trkpt lat="36.85658879578113555908203125" lon="-118.5300524532794952392578125">
        <ele>2052.199951171875</ele>
        <time>2021-06-28T16:03:12.000Z</time>
        <extensions>
          <ns3:TrackPointExtension>
            <ns3:atemp>30.0</ns3:atemp>
            <ns3:hr>93</ns3:hr>
          </ns3:TrackPointExtension>
        </extensions>
      </trkpt>
      <trkpt lat="36.8565795756876468658447265625" lon="-118.53007097728550434112548828125">
        <ele>2052</ele>
        <time>2021-06-28T16:03:13.000Z</time>
        <extensions>
          <ns3:TrackPointExtension>
            <ns3:atemp>30.0</ns3:atemp>
            <ns3:hr>93</ns3:hr>
          </ns3:TrackPointExtension>
        </extensions>
      </trkpt>
      <trkpt lat="36.8565510772168636322021484375" lon="-118.53007617406547069549560546875">
        <ele>2052</ele>
        <time>2021-06-28T16:03:15.000Z</time>
        <extensions>
          <ns3:TrackPointExtension>
            <ns3:atemp>30.0</ns3:atemp>
            <ns3:hr>93</ns3:hr>
          </ns3:TrackPointExtension>
        </extensions>
      </trkpt>
      <trkpt lat="36.856538839638233184814453125" lon="-118.53006728924810886383056640625">
        <ele>2052</ele>
        <time>2021-06-28T16:03:17.000Z</time>
        <extensions>
          <ns3:TrackPointExtension>
            <ns3:atemp>30.0</ns3:atemp>
            <ns3:hr>93</ns3:hr>
          </ns3:TrackPointExtension>
        </extensions>
      </trkpt>
      <trkpt lat="36.85648829676210880279541015625" lon="-118.5300576500594615936279296875">
        <ele>2052.199951171875</ele>
        <time>2021-06-28T16:03:20.000Z</time>
        <extensions>
          <ns3:TrackPointExtension>
            <ns3:atemp>30.0</ns3:atemp>
            <ns3:hr>93</ns3:hr>
          </ns3:TrackPointExtension>
        </extensions>
      </trkpt>
      <trkpt lat="36.85647555626928806304931640625" lon="-118.5300546325743198394775390625">
        <ele>2052.39990234375</ele>
        <time>2021-06-28T16:03:22.000Z</time>
        <extensions>
          <ns3:TrackPointExtension>
            <ns3:atemp>30.0</ns3:atemp>
            <ns3:hr>92</ns3:hr>
          </ns3:TrackPointExtension>
        </extensions>
      </trkpt>
      <trkpt lat="36.8564592115581035614013671875" lon="-118.53004968725144863128662109375">
        <ele>2052.39990234375</ele>
        <time>2021-06-28T16:03:24.000Z</time>
        <extensions>
          <ns3:TrackPointExtension>
            <ns3:atemp>30.0</ns3:atemp>
            <ns3:hr>91</ns3:hr>
          </ns3:TrackPointExtension>
        </extensions>
      </trkpt>
      <trkpt lat="36.8564280308783054351806640625" lon="-118.53005019016563892364501953125">
        <ele>2052.39990234375</ele>
        <time>2021-06-28T16:03:27.000Z</time>
        <extensions>
          <ns3:TrackPointExtension>
            <ns3:atemp>30.0</ns3:atemp>
            <ns3:hr>91</ns3:hr>
          </ns3:TrackPointExtension>
        </extensions>
      </trkpt>
      <trkpt lat="36.85640866868197917938232421875" lon="-118.53006628341972827911376953125">
        <ele>2052.39990234375</ele>
        <time>2021-06-28T16:03:30.000Z</time>
        <extensions>
          <ns3:TrackPointExtension>
            <ns3:atemp>30.0</ns3:atemp>
            <ns3:hr>92</ns3:hr>
          </ns3:TrackPointExtension>
        </extensions>
      </trkpt>
      <trkpt lat="36.8563877977430820465087890625" lon="-118.530087657272815704345703125">
        <ele>2052.39990234375</ele>
        <time>2021-06-28T16:03:32.000Z</time>
        <extensions>
          <ns3:TrackPointExtension>
            <ns3:atemp>30.0</ns3:atemp>
            <ns3:hr>94</ns3:hr>
          </ns3:TrackPointExtension>
        </extensions>
      </trkpt>
      <trkpt lat="36.8563660047948360443115234375" lon="-118.53009947575628757476806640625">
        <ele>2052.39990234375</ele>
        <time>2021-06-28T16:03:34.000Z</time>
        <extensions>
          <ns3:TrackPointExtension>
            <ns3:atemp>30.0</ns3:atemp>
            <ns3:hr>95</ns3:hr>
          </ns3:TrackPointExtension>
        </extensions>
      </trkpt>
      <trkpt lat="36.85632937587797641754150390625" lon="-118.53013635613024234771728515625">
        <ele>2052.39990234375</ele>
        <time>2021-06-28T16:03:40.000Z</time>
        <extensions>
          <ns3:TrackPointExtension>
            <ns3:atemp>30.0</ns3:atemp>
            <ns3:hr>95</ns3:hr>
          </ns3:TrackPointExtension>
        </extensions>
      </trkpt>
      <trkpt lat="36.856305487453937530517578125" lon="-118.5301414690911769866943359375">
        <ele>2052.60009765625</ele>
        <time>2021-06-28T16:03:42.000Z</time>
        <extensions>
          <ns3:TrackPointExtension>
            <ns3:atemp>30.0</ns3:atemp>
            <ns3:hr>95</ns3:hr>
          </ns3:TrackPointExtension>
        </extensions>
      </trkpt>
      <trkpt lat="36.8562687747180461883544921875" lon="-118.5301374457776546478271484375">
        <ele>2052.60009765625</ele>
        <time>2021-06-28T16:03:47.000Z</time>
        <extensions>
          <ns3:TrackPointExtension>
            <ns3:atemp>30.0</ns3:atemp>
            <ns3:hr>96</ns3:hr>
          </ns3:TrackPointExtension>
        </extensions>
      </trkpt>
      <trkpt lat="36.85620364733040332794189453125" lon="-118.53012378327548503875732421875">
        <ele>2052.199951171875</ele>
        <time>2021-06-28T16:03:53.000Z</time>
        <extensions>
          <ns3:TrackPointExtension>
            <ns3:atemp>30.0</ns3:atemp>
            <ns3:hr>96</ns3:hr>
          </ns3:TrackPointExtension>
        </extensions>
      </trkpt>
      <trkpt lat="36.85618621297180652618408203125" lon="-118.53011121042072772979736328125">
        <ele>2052</ele>
        <time>2021-06-28T16:03:55.000Z</time>
        <extensions>
          <ns3:TrackPointExtension>
            <ns3:atemp>30.0</ns3:atemp>
            <ns3:hr>96</ns3:hr>
          </ns3:TrackPointExtension>
        </extensions>
      </trkpt>
      <trkpt lat="36.85613659210503101348876953125" lon="-118.53005890734493732452392578125">
        <ele>2051.199951171875</ele>
        <time>2021-06-28T16:04:00.000Z</time>
        <extensions>
          <ns3:TrackPointExtension>
            <ns3:atemp>30.0</ns3:atemp>
            <ns3:hr>93</ns3:hr>
          </ns3:TrackPointExtension>
        </extensions>
      </trkpt>
      <trkpt lat="36.8561267852783203125" lon="-118.53006393648684024810791015625">
        <ele>2051.199951171875</ele>
        <time>2021-06-28T16:04:01.000Z</time>
        <extensions>
          <ns3:TrackPointExtension>
            <ns3:atemp>30.0</ns3:atemp>
            <ns3:hr>93</ns3:hr>
          </ns3:TrackPointExtension>
        </extensions>
      </trkpt>
      <trkpt lat="36.85611094348132610321044921875" lon="-118.53006192483007907867431640625">
        <ele>2051</ele>
        <time>2021-06-28T16:04:02.000Z</time>
        <extensions>
          <ns3:TrackPointExtension>
            <ns3:atemp>30.0</ns3:atemp>
            <ns3:hr>92</ns3:hr>
          </ns3:TrackPointExtension>
        </extensions>
      </trkpt>
      <trkpt lat="36.85609116218984127044677734375" lon="-118.530048094689846038818359375">
        <ele>2051</ele>
        <time>2021-06-28T16:04:03.000Z</time>
        <extensions>
          <ns3:TrackPointExtension>
            <ns3:atemp>30.0</ns3:atemp>
            <ns3:hr>94</ns3:hr>
          </ns3:TrackPointExtension>
        </extensions>
      </trkpt>
      <trkpt lat="36.85605176724493503570556640625" lon="-118.5300737433135509490966796875">
        <ele>2050.199951171875</ele>
        <time>2021-06-28T16:04:06.000Z</time>
        <extensions>
          <ns3:TrackPointExtension>
            <ns3:atemp>30.0</ns3:atemp>
            <ns3:hr>92</ns3:hr>
          </ns3:TrackPointExtension>
        </extensions>
      </trkpt>
      <trkpt lat="36.85603936202824115753173828125" lon="-118.5300846397876739501953125">
        <ele>2050</ele>
        <time>2021-06-28T16:04:07.000Z</time>
        <extensions>
          <ns3:TrackPointExtension>
            <ns3:atemp>30.0</ns3:atemp>
            <ns3:hr>92</ns3:hr>
          </ns3:TrackPointExtension>
        </extensions>
      </trkpt>
      <trkpt lat="36.85602159239351749420166015625" lon="-118.53009763173758983612060546875">
        <ele>2050</ele>
        <time>2021-06-28T16:04:08.000Z</time>
        <extensions>
          <ns3:TrackPointExtension>
            <ns3:atemp>30.0</ns3:atemp>
            <ns3:hr>91</ns3:hr>
          </ns3:TrackPointExtension>
        </extensions>
      </trkpt>
      <trkpt lat="36.85600717552006244659423828125" lon="-118.53009562008082866668701171875">
        <ele>2050</ele>
        <time>2021-06-28T16:04:10.000Z</time>
        <extensions>
          <ns3:TrackPointExtension>
            <ns3:atemp>30.0</ns3:atemp>
            <ns3:hr>90</ns3:hr>
          </ns3:TrackPointExtension>
        </extensions>
      </trkpt>
      <trkpt lat="36.85596191324293613433837890625" lon="-118.53008707053959369659423828125">
        <ele>2050</ele>
        <time>2021-06-28T16:04:13.000Z</time>
        <extensions>
          <ns3:TrackPointExtension>
            <ns3:atemp>30.0</ns3:atemp>
            <ns3:hr>90</ns3:hr>
          </ns3:TrackPointExtension>
        </extensions>
      </trkpt>
      <trkpt lat="36.85593090020120143890380859375" lon="-118.53009595535695552825927734375">
        <ele>2050</ele>
        <time>2021-06-28T16:04:16.000Z</time>
        <extensions>
          <ns3:TrackPointExtension>
            <ns3:atemp>30.0</ns3:atemp>
            <ns3:hr>90</ns3:hr>
          </ns3:TrackPointExtension>
        </extensions>
      </trkpt>
      <trkpt lat="36.85589955188333988189697265625" lon="-118.53009830228984355926513671875">
        <ele>2050</ele>
        <time>2021-06-28T16:04:20.000Z</time>
        <extensions>
          <ns3:TrackPointExtension>
            <ns3:atemp>30.0</ns3:atemp>
            <ns3:hr>89</ns3:hr>
          </ns3:TrackPointExtension>
        </extensions>
      </trkpt>
      <trkpt lat="36.85587641783058643341064453125" lon="-118.5301025770604610443115234375">
        <ele>2050</ele>
        <time>2021-06-28T16:04:23.000Z</time>
        <extensions>
          <ns3:TrackPointExtension>
            <ns3:atemp>30.0</ns3:atemp>
            <ns3:hr>89</ns3:hr>
          </ns3:TrackPointExtension>
        </extensions>
      </trkpt>
      <trkpt lat="36.85585252940654754638671875" lon="-118.53011992760002613067626953125">
        <ele>2049.199951171875</ele>
        <time>2021-06-28T16:04:26.000Z</time>
        <extensions>
          <ns3:TrackPointExtension>
            <ns3:atemp>30.0</ns3:atemp>
            <ns3:hr>90</ns3:hr>
          </ns3:TrackPointExtension>
        </extensions>
      </trkpt>
      <trkpt lat="36.85582579113543033599853515625" lon="-118.5301468335092067718505859375">
        <ele>2048.800048828125</ele>
        <time>2021-06-28T16:04:27.000Z</time>
        <extensions>
          <ns3:TrackPointExtension>
            <ns3:atemp>30.0</ns3:atemp>
            <ns3:hr>90</ns3:hr>
          </ns3:TrackPointExtension>
        </extensions>
      </trkpt>
      <trkpt lat="36.8558017350733280181884765625" lon="-118.53016703389585018157958984375">
        <ele>2048.800048828125</ele>
        <time>2021-06-28T16:04:30.000Z</time>
        <extensions>
          <ns3:TrackPointExtension>
            <ns3:atemp>30.0</ns3:atemp>
            <ns3:hr>92</ns3:hr>
          </ns3:TrackPointExtension>
        </extensions>
      </trkpt>
      <trkpt lat="36.85574264265596866607666015625" lon="-118.530176840722560882568359375">
        <ele>2049</ele>
        <time>2021-06-28T16:04:34.000Z</time>
        <extensions>
          <ns3:TrackPointExtension>
            <ns3:atemp>30.0</ns3:atemp>
            <ns3:hr>93</ns3:hr>
          </ns3:TrackPointExtension>
        </extensions>
      </trkpt>
      <trkpt lat="36.8556894175708293914794921875" lon="-118.53019301779568195343017578125">
        <ele>2048.800048828125</ele>
        <time>2021-06-28T16:04:38.000Z</time>
        <extensions>
          <ns3:TrackPointExtension>
            <ns3:atemp>30.0</ns3:atemp>
            <ns3:hr>89</ns3:hr>
          </ns3:TrackPointExtension>
        </extensions>
      </trkpt>
      <trkpt lat="36.8556770123541355133056640625" lon="-118.530198298394680023193359375">
        <ele>2048.800048828125</ele>
        <time>2021-06-28T16:04:40.000Z</time>
        <extensions>
          <ns3:TrackPointExtension>
            <ns3:atemp>30.0</ns3:atemp>
            <ns3:hr>90</ns3:hr>
          </ns3:TrackPointExtension>
        </extensions>
      </trkpt>
      <trkpt lat="36.85560844838619232177734375" lon="-118.53025906719267368316650390625">
        <ele>2048.800048828125</ele>
        <time>2021-06-28T16:04:47.000Z</time>
        <extensions>
          <ns3:TrackPointExtension>
            <ns3:atemp>30.0</ns3:atemp>
            <ns3:hr>93</ns3:hr>
          </ns3:TrackPointExtension>
        </extensions>
      </trkpt>
      <trkpt lat="36.855592690408229827880859375" lon="-118.530304245650768280029296875">
        <ele>2049</ele>
        <time>2021-06-28T16:04:49.000Z</time>
        <extensions>
          <ns3:TrackPointExtension>
            <ns3:atemp>30.0</ns3:atemp>
            <ns3:hr>96</ns3:hr>
          </ns3:TrackPointExtension>
        </extensions>
      </trkpt>
      <trkpt lat="36.8555975519120693206787109375" lon="-118.53044698946177959442138671875">
        <ele>2049.60009765625</ele>
        <time>2021-06-28T16:04:56.000Z</time>
        <extensions>
          <ns3:TrackPointExtension>
            <ns3:atemp>30.0</ns3:atemp>
            <ns3:hr>96</ns3:hr>
          </ns3:TrackPointExtension>
        </extensions>
      </trkpt>
      <trkpt lat="36.8555916845798492431640625" lon="-118.53047146461904048919677734375">
        <ele>2049.800048828125</ele>
        <time>2021-06-28T16:04:59.000Z</time>
        <extensions>
          <ns3:TrackPointExtension>
            <ns3:atemp>30.0</ns3:atemp>
            <ns3:hr>96</ns3:hr>
          </ns3:TrackPointExtension>
        </extensions>
      </trkpt>
      <trkpt lat="36.85558606870472431182861328125" lon="-118.530492670834064483642578125">
        <ele>2049.800048828125</ele>
        <time>2021-06-28T16:05:00.000Z</time>
        <extensions>
          <ns3:TrackPointExtension>
            <ns3:atemp>30.0</ns3:atemp>
            <ns3:hr>97</ns3:hr>
          </ns3:TrackPointExtension>
        </extensions>
      </trkpt>
      <trkpt lat="36.855597384274005889892578125" lon="-118.530585877597332000732421875">
        <ele>2050.800048828125</ele>
        <time>2021-06-28T16:05:07.000Z</time>
        <extensions>
          <ns3:TrackPointExtension>
            <ns3:atemp>30.0</ns3:atemp>
            <ns3:hr>100</ns3:hr>
          </ns3:TrackPointExtension>
        </extensions>
      </trkpt>
      <trkpt lat="36.855599395930767059326171875" lon="-118.53063658811151981353759765625">
        <ele>2050.800048828125</ele>
        <time>2021-06-28T16:05:11.000Z</time>
        <extensions>
          <ns3:TrackPointExtension>
            <ns3:atemp>30.0</ns3:atemp>
            <ns3:hr>102</ns3:hr>
          </ns3:TrackPointExtension>
        </extensions>
      </trkpt>
      <trkpt lat="36.85559570789337158203125" lon="-118.53070355951786041259765625">
        <ele>2051</ele>
        <time>2021-06-28T16:05:15.000Z</time>
        <extensions>
          <ns3:TrackPointExtension>
            <ns3:atemp>30.0</ns3:atemp>
            <ns3:hr>104</ns3:hr>
          </ns3:TrackPointExtension>
        </extensions>
      </trkpt>
      <trkpt lat="36.85559864155948162078857421875" lon="-118.5307389311492443084716796875">
        <ele>2051</ele>
        <time>2021-06-28T16:05:17.000Z</time>
        <extensions>
          <ns3:TrackPointExtension>
            <ns3:atemp>30.0</ns3:atemp>
            <ns3:hr>105</ns3:hr>
          </ns3:TrackPointExtension>
        </extensions>
      </trkpt>
      <trkpt lat="36.85559445060789585113525390625" lon="-118.53076885454356670379638671875">
        <ele>2050.800048828125</ele>
        <time>2021-06-28T16:05:21.000Z</time>
        <extensions>
          <ns3:TrackPointExtension>
            <ns3:atemp>30.0</ns3:atemp>
            <ns3:hr>105</ns3:hr>
          </ns3:TrackPointExtension>
        </extensions>
      </trkpt>
      <trkpt lat="36.85561758466064929962158203125" lon="-118.5308150388300418853759765625">
        <ele>2050.60009765625</ele>
        <time>2021-06-28T16:05:23.000Z</time>
        <extensions>
          <ns3:TrackPointExtension>
            <ns3:atemp>30.0</ns3:atemp>
            <ns3:hr>105</ns3:hr>
          </ns3:TrackPointExtension>
        </extensions>
      </trkpt>
      <trkpt lat="36.85561993159353733062744140625" lon="-118.53081285953521728515625">
        <ele>2050.60009765625</ele>
        <time>2021-06-28T16:05:25.000Z</time>
        <extensions>
          <ns3:TrackPointExtension>
            <ns3:atemp>30.0</ns3:atemp>
            <ns3:hr>105</ns3:hr>
          </ns3:TrackPointExtension>
        </extensions>
      </trkpt>
      <trkpt lat="36.85560786165297031402587890625" lon="-118.53083272464573383331298828125">
        <ele>2050.60009765625</ele>
        <time>2021-06-28T16:05:30.000Z</time>
        <extensions>
          <ns3:TrackPointExtension>
            <ns3:atemp>30.0</ns3:atemp>
            <ns3:hr>104</ns3:hr>
          </ns3:TrackPointExtension>
        </extensions>
      </trkpt>
      <trkpt lat="36.85559009201824665069580078125" lon="-118.53085971437394618988037109375">
        <ele>2050.60009765625</ele>
        <time>2021-06-28T16:05:32.000Z</time>
        <extensions>
          <ns3:TrackPointExtension>
            <ns3:atemp>30.0</ns3:atemp>
            <ns3:hr>105</ns3:hr>
          </ns3:TrackPointExtension>
        </extensions>
      </trkpt>
      <trkpt lat="36.855516247451305389404296875" lon="-118.5308559425175189971923828125">
        <ele>2050</ele>
        <time>2021-06-28T16:05:42.000Z</time>
        <extensions>
          <ns3:TrackPointExtension>
            <ns3:atemp>30.0</ns3:atemp>
            <ns3:hr>104</ns3:hr>
          </ns3:TrackPointExtension>
        </extensions>
      </trkpt>
      <trkpt lat="36.8555040098726749420166015625" lon="-118.53086625225841999053955078125">
        <ele>2050</ele>
        <time>2021-06-28T16:05:44.000Z</time>
        <extensions>
          <ns3:TrackPointExtension>
            <ns3:atemp>30.0</ns3:atemp>
            <ns3:hr>104</ns3:hr>
          </ns3:TrackPointExtension>
        </extensions>
      </trkpt>
      <trkpt lat="36.855476014316082000732421875" lon="-118.530912436544895172119140625">
        <ele>2050</ele>
        <time>2021-06-28T16:05:50.000Z</time>
        <extensions>
          <ns3:TrackPointExtension>
            <ns3:atemp>30.0</ns3:atemp>
            <ns3:hr>104</ns3:hr>
          </ns3:TrackPointExtension>
        </extensions>
      </trkpt>
      <trkpt lat="36.855449192225933074951171875" lon="-118.5309402644634246826171875">
        <ele>2049.800048828125</ele>
        <time>2021-06-28T16:05:55.000Z</time>
        <extensions>
          <ns3:TrackPointExtension>
            <ns3:atemp>30.0</ns3:atemp>
            <ns3:hr>108</ns3:hr>
          </ns3:TrackPointExtension>
        </extensions>
      </trkpt>
      <trkpt lat="36.85544122941792011260986328125" lon="-118.5309672541916370391845703125">
        <ele>2049.60009765625</ele>
        <time>2021-06-28T16:05:59.000Z</time>
        <extensions>
          <ns3:TrackPointExtension>
            <ns3:atemp>30.0</ns3:atemp>
            <ns3:hr>110</ns3:hr>
          </ns3:TrackPointExtension>
        </extensions>
      </trkpt>
      <trkpt lat="36.855437457561492919921875" lon="-118.53095526807010173797607421875">
        <ele>2049.199951171875</ele>
        <time>2021-06-28T16:06:06.000Z</time>
        <extensions>
          <ns3:TrackPointExtension>
            <ns3:atemp>30.0</ns3:atemp>
            <ns3:hr>107</ns3:hr>
          </ns3:TrackPointExtension>
        </extensions>
      </trkpt>
      <trkpt lat="36.855437457561492919921875" lon="-118.53095526807010173797607421875">
        <ele>2048.800048828125</ele>
        <time>2021-06-28T16:06:07.000Z</time>
        <extensions>
          <ns3:TrackPointExtension>
            <ns3:atemp>30.0</ns3:atemp>
            <ns3:hr>107</ns3:hr>
          </ns3:TrackPointExtension>
        </extensions>
      </trkpt>
      <trkpt lat="36.8554307520389556884765625" lon="-118.53096381761133670806884765625">
        <ele>2048.800048828125</ele>
        <time>2021-06-28T16:06:10.000Z</time>
        <extensions>
          <ns3:TrackPointExtension>
            <ns3:atemp>30.0</ns3:atemp>
            <ns3:hr>107</ns3:hr>
          </ns3:TrackPointExtension>
        </extensions>
      </trkpt>
      <trkpt lat="36.85542630963027477264404296875" lon="-118.53094520978629589080810546875">
        <ele>2048.800048828125</ele>
        <time>2021-06-28T16:06:18.000Z</time>
        <extensions>
          <ns3:TrackPointExtension>
            <ns3:atemp>30.0</ns3:atemp>
            <ns3:hr>103</ns3:hr>
          </ns3:TrackPointExtension>
        </extensions>
      </trkpt>
      <trkpt lat="36.85542630963027477264404296875" lon="-118.53094520978629589080810546875">
        <ele>2048.800048828125</ele>
        <time>2021-06-28T16:06:23.000Z</time>
        <extensions>
          <ns3:TrackPointExtension>
            <ns3:atemp>30.0</ns3:atemp>
            <ns3:hr>100</ns3:hr>
          </ns3:TrackPointExtension>
        </extensions>
      </trkpt>
      <trkpt lat="36.85542630963027477264404296875" lon="-118.53094520978629589080810546875">
        <ele>2048.800048828125</ele>
        <time>2021-06-28T16:06:24.000Z</time>
        <extensions>
          <ns3:TrackPointExtension>
            <ns3:atemp>30.0</ns3:atemp>
            <ns3:hr>98</ns3:hr>
          </ns3:TrackPointExtension>
        </extensions>
      </trkpt>
      <trkpt lat="36.85542630963027477264404296875" lon="-118.53094520978629589080810546875">
        <ele>2048.800048828125</ele>
        <time>2021-06-28T16:06:26.000Z</time>
        <extensions>
          <ns3:TrackPointExtension>
            <ns3:atemp>30.0</ns3:atemp>
            <ns3:hr>95</ns3:hr>
          </ns3:TrackPointExtension>
        </extensions>
      </trkpt>
      <trkpt lat="36.85542471706867218017578125" lon="-118.53094520978629589080810546875">
        <ele>2048.800048828125</ele>
        <time>2021-06-28T16:06:28.000Z</time>
        <extensions>
          <ns3:TrackPointExtension>
            <ns3:atemp>30.0</ns3:atemp>
            <ns3:hr>90</ns3:hr>
          </ns3:TrackPointExtension>
        </extensions>
      </trkpt>
      <trkpt lat="36.8554238788783550262451171875" lon="-118.5309461317956447601318359375">
        <ele>2048.800048828125</ele>
        <time>2021-06-28T16:06:32.000Z</time>
        <extensions>
          <ns3:TrackPointExtension>
            <ns3:atemp>30.0</ns3:atemp>
            <ns3:hr>87</ns3:hr>
          </ns3:TrackPointExtension>
        </extensions>
      </trkpt>
      <trkpt lat="36.855408959090709686279296875" lon="-118.53094738908112049102783203125">
        <ele>2048.800048828125</ele>
        <time>2021-06-28T16:06:36.000Z</time>
        <extensions>
          <ns3:TrackPointExtension>
            <ns3:atemp>30.0</ns3:atemp>
            <ns3:hr>84</ns3:hr>
          </ns3:TrackPointExtension>
        </extensions>
      </trkpt>
      <trkpt lat="36.85540351085364818572998046875" lon="-118.53101310320198535919189453125">
        <ele>2049.39990234375</ele>
        <time>2021-06-28T16:06:43.000Z</time>
        <extensions>
          <ns3:TrackPointExtension>
            <ns3:atemp>30.0</ns3:atemp>
            <ns3:hr>84</ns3:hr>
          </ns3:TrackPointExtension>
        </extensions>
      </trkpt>
      <trkpt lat="36.8553812988102436065673828125" lon="-118.53114101104438304901123046875">
        <ele>2049.800048828125</ele>
        <time>2021-06-28T16:06:51.000Z</time>
        <extensions>
          <ns3:TrackPointExtension>
            <ns3:atemp>30.0</ns3:atemp>
            <ns3:hr>85</ns3:hr>
          </ns3:TrackPointExtension>
        </extensions>
      </trkpt>
      <trkpt lat="36.8553943745791912078857421875" lon="-118.53122659027576446533203125">
        <ele>2050.800048828125</ele>
        <time>2021-06-28T16:06:56.000Z</time>
        <extensions>
          <ns3:TrackPointExtension>
            <ns3:atemp>30.0</ns3:atemp>
            <ns3:hr>87</ns3:hr>
          </ns3:TrackPointExtension>
        </extensions>
      </trkpt>
      <trkpt lat="36.855392865836620330810546875" lon="-118.53123673237860202789306640625">
        <ele>2051</ele>
        <time>2021-06-28T16:06:58.000Z</time>
        <extensions>
          <ns3:TrackPointExtension>
            <ns3:atemp>30.0</ns3:atemp>
            <ns3:hr>89</ns3:hr>
          </ns3:TrackPointExtension>
        </extensions>
      </trkpt>
      <trkpt lat="36.8553940393030643463134765625" lon="-118.53126556612551212310791015625">
        <ele>2051</ele>
        <time>2021-06-28T16:07:01.000Z</time>
        <extensions>
          <ns3:TrackPointExtension>
            <ns3:atemp>30.0</ns3:atemp>
            <ns3:hr>94</ns3:hr>
          </ns3:TrackPointExtension>
        </extensions>
      </trkpt>
      <trkpt lat="36.85537903569638729095458984375" lon="-118.53129138238728046417236328125">
        <ele>2051.199951171875</ele>
        <time>2021-06-28T16:07:03.000Z</time>
        <extensions>
          <ns3:TrackPointExtension>
            <ns3:atemp>30.0</ns3:atemp>
            <ns3:hr>98</ns3:hr>
          </ns3:TrackPointExtension>
        </extensions>
      </trkpt>
      <trkpt lat="36.8553581647574901580810546875" lon="-118.531301356852054595947265625">
        <ele>2051.199951171875</ele>
        <time>2021-06-28T16:07:05.000Z</time>
        <extensions>
          <ns3:TrackPointExtension>
            <ns3:atemp>30.0</ns3:atemp>
            <ns3:hr>102</ns3:hr>
          </ns3:TrackPointExtension>
        </extensions>
      </trkpt>
      <trkpt lat="36.85534852556884288787841796875" lon="-118.53131686337292194366455078125">
        <ele>2051.199951171875</ele>
        <time>2021-06-28T16:07:07.000Z</time>
        <extensions>
          <ns3:TrackPointExtension>
            <ns3:atemp>30.0</ns3:atemp>
            <ns3:hr>106</ns3:hr>
          </ns3:TrackPointExtension>
        </extensions>
      </trkpt>
      <trkpt lat="36.85531868599355220794677734375" lon="-118.5313394106924533843994140625">
        <ele>2051.199951171875</ele>
        <time>2021-06-28T16:07:11.000Z</time>
        <extensions>
          <ns3:TrackPointExtension>
            <ns3:atemp>30.0</ns3:atemp>
            <ns3:hr>109</ns3:hr>
          </ns3:TrackPointExtension>
        </extensions>
      </trkpt>
      <trkpt lat="36.85531080700457096099853515625" lon="-118.53134754113852977752685546875">
        <ele>2051.199951171875</ele>
        <time>2021-06-28T16:07:12.000Z</time>
        <extensions>
          <ns3:TrackPointExtension>
            <ns3:atemp>30.0</ns3:atemp>
            <ns3:hr>111</ns3:hr>
          </ns3:TrackPointExtension>
        </extensions>
      </trkpt>
      <trkpt lat="36.855266131460666656494140625" lon="-118.531399257481098175048828125">
        <ele>2051.39990234375</ele>
        <time>2021-06-28T16:07:18.000Z</time>
        <extensions>
          <ns3:TrackPointExtension>
            <ns3:atemp>30.0</ns3:atemp>
            <ns3:hr>113</ns3:hr>
          </ns3:TrackPointExtension>
        </extensions>
      </trkpt>
      <trkpt lat="36.85524676926434040069580078125" lon="-118.5313937254250049591064453125">
        <ele>2051</ele>
        <time>2021-06-28T16:07:20.000Z</time>
        <extensions>
          <ns3:TrackPointExtension>
            <ns3:atemp>30.0</ns3:atemp>
            <ns3:hr>113</ns3:hr>
          </ns3:TrackPointExtension>
        </extensions>
      </trkpt>
      <trkpt lat="36.85523562133312225341796875" lon="-118.531398586928844451904296875">
        <ele>2050.800048828125</ele>
        <time>2021-06-28T16:07:21.000Z</time>
        <extensions>
          <ns3:TrackPointExtension>
            <ns3:atemp>30.0</ns3:atemp>
            <ns3:hr>112</ns3:hr>
          </ns3:TrackPointExtension>
        </extensions>
      </trkpt>
      <trkpt lat="36.85516026802361011505126953125" lon="-118.53138542734086513519287109375">
        <ele>2050.199951171875</ele>
        <time>2021-06-28T16:07:26.000Z</time>
        <extensions>
          <ns3:TrackPointExtension>
            <ns3:atemp>30.0</ns3:atemp>
            <ns3:hr>109</ns3:hr>
          </ns3:TrackPointExtension>
        </extensions>
      </trkpt>
      <trkpt lat="36.855141408741474151611328125" lon="-118.53138349950313568115234375">
        <ele>2050.199951171875</ele>
        <time>2021-06-28T16:07:28.000Z</time>
        <extensions>
          <ns3:TrackPointExtension>
            <ns3:atemp>30.0</ns3:atemp>
            <ns3:hr>107</ns3:hr>
          </ns3:TrackPointExtension>
        </extensions>
      </trkpt>
      <trkpt lat="36.85504677705466747283935546875" lon="-118.53136430494487285614013671875">
        <ele>2050.39990234375</ele>
        <time>2021-06-28T16:07:36.000Z</time>
        <extensions>
          <ns3:TrackPointExtension>
            <ns3:atemp>30.0</ns3:atemp>
            <ns3:hr>106</ns3:hr>
          </ns3:TrackPointExtension>
        </extensions>
      </trkpt>
      <trkpt lat="36.855036132037639617919921875" lon="-118.5313729383051395416259765625">
        <ele>2050.39990234375</ele>
        <time>2021-06-28T16:07:37.000Z</time>
        <extensions>
          <ns3:TrackPointExtension>
            <ns3:atemp>31.0</ns3:atemp>
            <ns3:hr>106</ns3:hr>
          </ns3:TrackPointExtension>
        </extensions>
      </trkpt>
      <trkpt lat="36.854964382946491241455078125" lon="-118.53139732964336872100830078125">
        <ele>2050.199951171875</ele>
        <time>2021-06-28T16:07:43.000Z</time>
        <extensions>
          <ns3:TrackPointExtension>
            <ns3:atemp>31.0</ns3:atemp>
            <ns3:hr>107</ns3:hr>
          </ns3:TrackPointExtension>
        </extensions>
      </trkpt>
      <trkpt lat="36.85488517396152019500732421875" lon="-118.53142783977091312408447265625">
        <ele>2050.60009765625</ele>
        <time>2021-06-28T16:07:51.000Z</time>
        <extensions>
          <ns3:TrackPointExtension>
            <ns3:atemp>31.0</ns3:atemp>
            <ns3:hr>107</ns3:hr>
          </ns3:TrackPointExtension>
        </extensions>
      </trkpt>
      <trkpt lat="36.85479397885501384735107421875" lon="-118.531443513929843902587890625">
        <ele>2050.800048828125</ele>
        <time>2021-06-28T16:07:59.000Z</time>
        <extensions>
          <ns3:TrackPointExtension>
            <ns3:atemp>31.0</ns3:atemp>
            <ns3:hr>106</ns3:hr>
          </ns3:TrackPointExtension>
        </extensions>
      </trkpt>
      <trkpt lat="36.85472466051578521728515625" lon="-118.5314798913896083831787109375">
        <ele>2050.60009765625</ele>
        <time>2021-06-28T16:08:05.000Z</time>
        <extensions>
          <ns3:TrackPointExtension>
            <ns3:atemp>31.0</ns3:atemp>
            <ns3:hr>103</ns3:hr>
          </ns3:TrackPointExtension>
        </extensions>
      </trkpt>
      <trkpt lat="36.8547020293772220611572265625" lon="-118.53148148395121097564697265625">
        <ele>2050.60009765625</ele>
        <time>2021-06-28T16:08:07.000Z</time>
        <extensions>
          <ns3:TrackPointExtension>
            <ns3:atemp>31.0</ns3:atemp>
            <ns3:hr>101</ns3:hr>
          </ns3:TrackPointExtension>
        </extensions>
      </trkpt>
      <trkpt lat="36.85468400828540325164794921875" lon="-118.53149204514920711517333984375">
        <ele>2050.60009765625</ele>
        <time>2021-06-28T16:08:09.000Z</time>
        <extensions>
          <ns3:TrackPointExtension>
            <ns3:atemp>31.0</ns3:atemp>
            <ns3:hr>104</ns3:hr>
          </ns3:TrackPointExtension>
        </extensions>
      </trkpt>
      <trkpt lat="36.85465383343398571014404296875" lon="-118.53153177537024021148681640625">
        <ele>2050.199951171875</ele>
        <time>2021-06-28T16:08:13.000Z</time>
        <extensions>
          <ns3:TrackPointExtension>
            <ns3:atemp>31.0</ns3:atemp>
            <ns3:hr>101</ns3:hr>
          </ns3:TrackPointExtension>
        </extensions>
      </trkpt>
      <trkpt lat="36.8546099960803985595703125" lon="-118.53153395466506481170654296875">
        <ele>2050.199951171875</ele>
        <time>2021-06-28T16:08:17.000Z</time>
        <extensions>
          <ns3:TrackPointExtension>
            <ns3:atemp>31.0</ns3:atemp>
            <ns3:hr>99</ns3:hr>
          </ns3:TrackPointExtension>
        </extensions>
      </trkpt>
      <trkpt lat="36.8545880354940891265869140625" lon="-118.53155775927007198333740234375">
        <ele>2050.199951171875</ele>
        <time>2021-06-28T16:08:18.000Z</time>
        <extensions>
          <ns3:TrackPointExtension>
            <ns3:atemp>31.0</ns3:atemp>
            <ns3:hr>98</ns3:hr>
          </ns3:TrackPointExtension>
        </extensions>
      </trkpt>
      <trkpt lat="36.8545880354940891265869140625" lon="-118.53155775927007198333740234375">
        <ele>2050</ele>
        <time>2021-06-28T16:08:19.000Z</time>
        <extensions>
          <ns3:TrackPointExtension>
            <ns3:atemp>31.0</ns3:atemp>
            <ns3:hr>98</ns3:hr>
          </ns3:TrackPointExtension>
        </extensions>
      </trkpt>
      <trkpt lat="36.85450530610978603363037109375" lon="-118.5316322743892669677734375">
        <ele>2049.60009765625</ele>
        <time>2021-06-28T16:08:27.000Z</time>
        <extensions>
          <ns3:TrackPointExtension>
            <ns3:atemp>31.0</ns3:atemp>
            <ns3:hr>100</ns3:hr>
          </ns3:TrackPointExtension>
        </extensions>
      </trkpt>
      <trkpt lat="36.854480914771556854248046875" lon="-118.53163621388375759124755859375">
        <ele>2049.60009765625</ele>
        <time>2021-06-28T16:08:29.000Z</time>
        <extensions>
          <ns3:TrackPointExtension>
            <ns3:atemp>31.0</ns3:atemp>
            <ns3:hr>101</ns3:hr>
          </ns3:TrackPointExtension>
        </extensions>
      </trkpt>
      <trkpt lat="36.85444830916821956634521484375" lon="-118.531648702919483184814453125">
        <ele>2049.60009765625</ele>
        <time>2021-06-28T16:08:32.000Z</time>
        <extensions>
          <ns3:TrackPointExtension>
            <ns3:atemp>31.0</ns3:atemp>
            <ns3:hr>102</ns3:hr>
          </ns3:TrackPointExtension>
        </extensions>
      </trkpt>
      <trkpt lat="36.8544274382293224334716796875" lon="-118.53166018612682819366455078125">
        <ele>2049.39990234375</ele>
        <time>2021-06-28T16:08:34.000Z</time>
        <extensions>
          <ns3:TrackPointExtension>
            <ns3:atemp>31.0</ns3:atemp>
            <ns3:hr>103</ns3:hr>
          </ns3:TrackPointExtension>
        </extensions>
      </trkpt>
      <trkpt lat="36.85439952649176120758056640625" lon="-118.53169706650078296661376953125">
        <ele>2049</ele>
        <time>2021-06-28T16:08:38.000Z</time>
        <extensions>
          <ns3:TrackPointExtension>
            <ns3:atemp>31.0</ns3:atemp>
            <ns3:hr>106</ns3:hr>
          </ns3:TrackPointExtension>
        </extensions>
      </trkpt>
      <trkpt lat="36.85437991283833980560302734375" lon="-118.531696312129497528076171875">
        <ele>2048.800048828125</ele>
        <time>2021-06-28T16:08:40.000Z</time>
        <extensions>
          <ns3:TrackPointExtension>
            <ns3:atemp>31.0</ns3:atemp>
            <ns3:hr>106</ns3:hr>
          </ns3:TrackPointExtension>
        </extensions>
      </trkpt>
      <trkpt lat="36.85437086038291454315185546875" lon="-118.53170402348041534423828125">
        <ele>2049.199951171875</ele>
        <time>2021-06-28T16:08:41.000Z</time>
        <extensions>
          <ns3:TrackPointExtension>
            <ns3:atemp>31.0</ns3:atemp>
            <ns3:hr>106</ns3:hr>
          </ns3:TrackPointExtension>
        </extensions>
      </trkpt>
      <trkpt lat="36.854352168738842010498046875" lon="-118.5317102260887622833251953125">
        <ele>2049.199951171875</ele>
        <time>2021-06-28T16:08:42.000Z</time>
        <extensions>
          <ns3:TrackPointExtension>
            <ns3:atemp>31.0</ns3:atemp>
            <ns3:hr>107</ns3:hr>
          </ns3:TrackPointExtension>
        </extensions>
      </trkpt>
      <trkpt lat="36.8542943336069583892822265625" lon="-118.531725145876407623291015625">
        <ele>2048.800048828125</ele>
        <time>2021-06-28T16:08:48.000Z</time>
        <extensions>
          <ns3:TrackPointExtension>
            <ns3:atemp>31.0</ns3:atemp>
            <ns3:hr>107</ns3:hr>
          </ns3:TrackPointExtension>
        </extensions>
      </trkpt>
      <trkpt lat="36.85426407493650913238525390625" lon="-118.53175372816622257232666015625">
        <ele>2048.800048828125</ele>
        <time>2021-06-28T16:08:51.000Z</time>
        <extensions>
          <ns3:TrackPointExtension>
            <ns3:atemp>32.0</ns3:atemp>
            <ns3:hr>105</ns3:hr>
          </ns3:TrackPointExtension>
        </extensions>
      </trkpt>
      <trkpt lat="36.85425234027206897735595703125" lon="-118.5317973978817462921142578125">
        <ele>2048.800048828125</ele>
        <time>2021-06-28T16:08:54.000Z</time>
        <extensions>
          <ns3:TrackPointExtension>
            <ns3:atemp>31.0</ns3:atemp>
            <ns3:hr>104</ns3:hr>
          </ns3:TrackPointExtension>
        </extensions>
      </trkpt>
      <trkpt lat="36.8542385101318359375" lon="-118.53182782419025897979736328125">
        <ele>2048.39990234375</ele>
        <time>2021-06-28T16:08:56.000Z</time>
        <extensions>
          <ns3:TrackPointExtension>
            <ns3:atemp>31.0</ns3:atemp>
            <ns3:hr>103</ns3:hr>
          </ns3:TrackPointExtension>
        </extensions>
      </trkpt>
      <trkpt lat="36.854230128228664398193359375" lon="-118.5318349488079547882080078125">
        <ele>2048.39990234375</ele>
        <time>2021-06-28T16:08:57.000Z</time>
        <extensions>
          <ns3:TrackPointExtension>
            <ns3:atemp>32.0</ns3:atemp>
            <ns3:hr>106</ns3:hr>
          </ns3:TrackPointExtension>
        </extensions>
      </trkpt>
      <trkpt lat="36.85420439578592777252197265625" lon="-118.53186503984034061431884765625">
        <ele>2048.199951171875</ele>
        <time>2021-06-28T16:09:00.000Z</time>
        <extensions>
          <ns3:TrackPointExtension>
            <ns3:atemp>32.0</ns3:atemp>
            <ns3:hr>106</ns3:hr>
          </ns3:TrackPointExtension>
        </extensions>
      </trkpt>
      <trkpt lat="36.85416768305003643035888671875" lon="-118.5318698175251483917236328125">
        <ele>2048</ele>
        <time>2021-06-28T16:09:03.000Z</time>
        <extensions>
          <ns3:TrackPointExtension>
            <ns3:atemp>32.0</ns3:atemp>
            <ns3:hr>108</ns3:hr>
          </ns3:TrackPointExtension>
        </extensions>
      </trkpt>
      <trkpt lat="36.85413968749344348907470703125" lon="-118.53185665793716907501220703125">
        <ele>2047.4000244140625</ele>
        <time>2021-06-28T16:09:05.000Z</time>
        <extensions>
          <ns3:TrackPointExtension>
            <ns3:atemp>32.0</ns3:atemp>
            <ns3:hr>109</ns3:hr>
          </ns3:TrackPointExtension>
        </extensions>
      </trkpt>
      <trkpt lat="36.85413214378058910369873046875" lon="-118.531856238842010498046875">
        <ele>2047.4000244140625</ele>
        <time>2021-06-28T16:09:06.000Z</time>
        <extensions>
          <ns3:TrackPointExtension>
            <ns3:atemp>32.0</ns3:atemp>
            <ns3:hr>110</ns3:hr>
          </ns3:TrackPointExtension>
        </extensions>
      </trkpt>
      <trkpt lat="36.85411202721297740936279296875" lon="-118.531868644058704376220703125">
        <ele>2047.4000244140625</ele>
        <time>2021-06-28T16:09:07.000Z</time>
        <extensions>
          <ns3:TrackPointExtension>
            <ns3:atemp>32.0</ns3:atemp>
            <ns3:hr>112</ns3:hr>
          </ns3:TrackPointExtension>
        </extensions>
      </trkpt>
      <trkpt lat="36.8540314771234989166259765625" lon="-118.53190527297556400299072265625">
        <ele>2046.4000244140625</ele>
        <time>2021-06-28T16:09:15.000Z</time>
        <extensions>
          <ns3:TrackPointExtension>
            <ns3:atemp>32.0</ns3:atemp>
            <ns3:hr>109</ns3:hr>
          </ns3:TrackPointExtension>
        </extensions>
      </trkpt>
      <trkpt lat="36.8540180660784244537353515625" lon="-118.531933017075061798095703125">
        <ele>2046.4000244140625</ele>
        <time>2021-06-28T16:09:16.000Z</time>
        <extensions>
          <ns3:TrackPointExtension>
            <ns3:atemp>32.0</ns3:atemp>
            <ns3:hr>109</ns3:hr>
          </ns3:TrackPointExtension>
        </extensions>
      </trkpt>
      <trkpt lat="36.8540137074887752532958984375" lon="-118.5319479368627071380615234375">
        <ele>2046.4000244140625</ele>
        <time>2021-06-28T16:09:17.000Z</time>
        <extensions>
          <ns3:TrackPointExtension>
            <ns3:atemp>32.0</ns3:atemp>
            <ns3:hr>109</ns3:hr>
          </ns3:TrackPointExtension>
        </extensions>
      </trkpt>
      <trkpt lat="36.85398663394153118133544921875" lon="-118.532044999301433563232421875">
        <ele>2046.5999755859375</ele>
        <time>2021-06-28T16:09:24.000Z</time>
        <extensions>
          <ns3:TrackPointExtension>
            <ns3:atemp>32.0</ns3:atemp>
            <ns3:hr>106</ns3:hr>
          </ns3:TrackPointExtension>
        </extensions>
      </trkpt>
      <trkpt lat="36.85396718792617321014404296875" lon="-118.53206335566937923431396484375">
        <ele>2047</ele>
        <time>2021-06-28T16:09:28.000Z</time>
        <extensions>
          <ns3:TrackPointExtension>
            <ns3:atemp>32.0</ns3:atemp>
            <ns3:hr>104</ns3:hr>
          </ns3:TrackPointExtension>
        </extensions>
      </trkpt>
      <trkpt lat="36.85392410494387149810791015625" lon="-118.5321195982396602630615234375">
        <ele>2047.4000244140625</ele>
        <time>2021-06-28T16:09:33.000Z</time>
        <extensions>
          <ns3:TrackPointExtension>
            <ns3:atemp>32.0</ns3:atemp>
            <ns3:hr>107</ns3:hr>
          </ns3:TrackPointExtension>
        </extensions>
      </trkpt>
      <trkpt lat="36.85390080325305461883544921875" lon="-118.53211842477321624755859375">
        <ele>2047.800048828125</ele>
        <time>2021-06-28T16:09:36.000Z</time>
        <extensions>
          <ns3:TrackPointExtension>
            <ns3:atemp>32.0</ns3:atemp>
            <ns3:hr>106</ns3:hr>
          </ns3:TrackPointExtension>
        </extensions>
      </trkpt>
      <trkpt lat="36.85381933115422725677490234375" lon="-118.53210057131946086883544921875">
        <ele>2047.800048828125</ele>
        <time>2021-06-28T16:09:45.000Z</time>
        <extensions>
          <ns3:TrackPointExtension>
            <ns3:atemp>32.0</ns3:atemp>
            <ns3:hr>108</ns3:hr>
          </ns3:TrackPointExtension>
        </extensions>
      </trkpt>
      <trkpt lat="36.8538135476410388946533203125" lon="-118.53209872730076313018798828125">
        <ele>2047.199951171875</ele>
        <time>2021-06-28T16:09:47.000Z</time>
        <extensions>
          <ns3:TrackPointExtension>
            <ns3:atemp>32.0</ns3:atemp>
            <ns3:hr>109</ns3:hr>
          </ns3:TrackPointExtension>
        </extensions>
      </trkpt>
      <trkpt lat="36.85382268391549587249755859375" lon="-118.5321189276874065399169921875">
        <ele>2047</ele>
        <time>2021-06-28T16:09:49.000Z</time>
        <extensions>
          <ns3:TrackPointExtension>
            <ns3:atemp>32.0</ns3:atemp>
            <ns3:hr>108</ns3:hr>
          </ns3:TrackPointExtension>
        </extensions>
      </trkpt>
      <trkpt lat="36.85382335446774959564208984375" lon="-118.53212177753448486328125">
        <ele>2047</ele>
        <time>2021-06-28T16:09:56.000Z</time>
        <extensions>
          <ns3:TrackPointExtension>
            <ns3:atemp>32.0</ns3:atemp>
            <ns3:hr>108</ns3:hr>
          </ns3:TrackPointExtension>
        </extensions>
      </trkpt>
      <trkpt lat="36.85383148491382598876953125" lon="-118.532108031213283538818359375">
        <ele>2047</ele>
        <time>2021-06-28T16:10:01.000Z</time>
        <extensions>
          <ns3:TrackPointExtension>
            <ns3:atemp>32.0</ns3:atemp>
            <ns3:hr>104</ns3:hr>
          </ns3:TrackPointExtension>
        </extensions>
      </trkpt>
      <trkpt lat="36.85383148491382598876953125" lon="-118.532108031213283538818359375">
        <ele>2047</ele>
        <time>2021-06-28T16:10:02.000Z</time>
        <extensions>
          <ns3:TrackPointExtension>
            <ns3:atemp>32.0</ns3:atemp>
            <ns3:hr>108</ns3:hr>
          </ns3:TrackPointExtension>
        </extensions>
      </trkpt>
      <trkpt lat="36.85383148491382598876953125" lon="-118.532108031213283538818359375">
        <ele>2047</ele>
        <time>2021-06-28T16:10:06.000Z</time>
        <extensions>
          <ns3:TrackPointExtension>
            <ns3:atemp>33.0</ns3:atemp>
            <ns3:hr>105</ns3:hr>
          </ns3:TrackPointExtension>
        </extensions>
      </trkpt>
      <trkpt lat="36.8538313172757625579833984375" lon="-118.532108031213283538818359375">
        <ele>2047</ele>
        <time>2021-06-28T16:10:11.000Z</time>
        <extensions>
          <ns3:TrackPointExtension>
            <ns3:atemp>33.0</ns3:atemp>
            <ns3:hr>104</ns3:hr>
          </ns3:TrackPointExtension>
        </extensions>
      </trkpt>
      <trkpt lat="36.8538293056190013885498046875" lon="-118.53211515583097934722900390625">
        <ele>2047</ele>
        <time>2021-06-28T16:10:23.000Z</time>
        <extensions>
          <ns3:TrackPointExtension>
            <ns3:atemp>33.0</ns3:atemp>
            <ns3:hr>108</ns3:hr>
          </ns3:TrackPointExtension>
        </extensions>
      </trkpt>
      <trkpt lat="36.85382134281098842620849609375" lon="-118.53210945613682270050048828125">
        <ele>2047</ele>
        <time>2021-06-28T16:10:29.000Z</time>
        <extensions>
          <ns3:TrackPointExtension>
            <ns3:atemp>33.0</ns3:atemp>
            <ns3:hr>104</ns3:hr>
          </ns3:TrackPointExtension>
        </extensions>
      </trkpt>
      <trkpt lat="36.85379284434020519256591796875" lon="-118.53210727684199810028076171875">
        <ele>2047</ele>
        <time>2021-06-28T16:10:31.000Z</time>
        <extensions>
          <ns3:TrackPointExtension>
            <ns3:atemp>33.0</ns3:atemp>
            <ns3:hr>107</ns3:hr>
          </ns3:TrackPointExtension>
        </extensions>
      </trkpt>
      <trkpt lat="36.85377557761967182159423828125" lon="-118.5320949554443359375">
        <ele>2047</ele>
        <time>2021-06-28T16:10:32.000Z</time>
        <extensions>
          <ns3:TrackPointExtension>
            <ns3:atemp>33.0</ns3:atemp>
            <ns3:hr>106</ns3:hr>
          </ns3:TrackPointExtension>
        </extensions>
      </trkpt>
      <trkpt lat="36.8536698818206787109375" lon="-118.53208917193114757537841796875">
        <ele>2047</ele>
        <time>2021-06-28T16:10:39.000Z</time>
        <extensions>
          <ns3:TrackPointExtension>
            <ns3:atemp>33.0</ns3:atemp>
            <ns3:hr>104</ns3:hr>
          </ns3:TrackPointExtension>
        </extensions>
      </trkpt>
      <trkpt lat="36.85363434255123138427734375" lon="-118.5321014933288097381591796875">
        <ele>2046.5999755859375</ele>
        <time>2021-06-28T16:10:42.000Z</time>
        <extensions>
          <ns3:TrackPointExtension>
            <ns3:atemp>33.0</ns3:atemp>
            <ns3:hr>101</ns3:hr>
          </ns3:TrackPointExtension>
        </extensions>
      </trkpt>
      <trkpt lat="36.8536224402487277984619140625" lon="-118.53212085552513599395751953125">
        <ele>2046.4000244140625</ele>
        <time>2021-06-28T16:10:44.000Z</time>
        <extensions>
          <ns3:TrackPointExtension>
            <ns3:atemp>33.0</ns3:atemp>
            <ns3:hr>100</ns3:hr>
          </ns3:TrackPointExtension>
        </extensions>
      </trkpt>
      <trkpt lat="36.85361045412719249725341796875" lon="-118.532142899930477142333984375">
        <ele>2046.4000244140625</ele>
        <time>2021-06-28T16:10:46.000Z</time>
        <extensions>
          <ns3:TrackPointExtension>
            <ns3:atemp>33.0</ns3:atemp>
            <ns3:hr>99</ns3:hr>
          </ns3:TrackPointExtension>
        </extensions>
      </trkpt>
      <trkpt lat="36.85360391624271869659423828125" lon="-118.53215463459491729736328125">
        <ele>2046.5999755859375</ele>
        <time>2021-06-28T16:10:47.000Z</time>
        <extensions>
          <ns3:TrackPointExtension>
            <ns3:atemp>33.0</ns3:atemp>
            <ns3:hr>100</ns3:hr>
          </ns3:TrackPointExtension>
        </extensions>
      </trkpt>
      <trkpt lat="36.853545494377613067626953125" lon="-118.53221825323998928070068359375">
        <ele>2046.4000244140625</ele>
        <time>2021-06-28T16:10:53.000Z</time>
        <extensions>
          <ns3:TrackPointExtension>
            <ns3:atemp>33.0</ns3:atemp>
            <ns3:hr>97</ns3:hr>
          </ns3:TrackPointExtension>
        </extensions>
      </trkpt>
      <trkpt lat="36.85352395288646221160888671875" lon="-118.532233424484729766845703125">
        <ele>2046.199951171875</ele>
        <time>2021-06-28T16:10:55.000Z</time>
        <extensions>
          <ns3:TrackPointExtension>
            <ns3:atemp>33.0</ns3:atemp>
            <ns3:hr>95</ns3:hr>
          </ns3:TrackPointExtension>
        </extensions>
      </trkpt>
      <trkpt lat="36.8535138107836246490478515625" lon="-118.5322577320039272308349609375">
        <ele>2046.199951171875</ele>
        <time>2021-06-28T16:10:57.000Z</time>
        <extensions>
          <ns3:TrackPointExtension>
            <ns3:atemp>33.0</ns3:atemp>
            <ns3:hr>94</ns3:hr>
          </ns3:TrackPointExtension>
        </extensions>
      </trkpt>
      <trkpt lat="36.85350500978529453277587890625" lon="-118.5322912596166133880615234375">
        <ele>2046.199951171875</ele>
        <time>2021-06-28T16:10:59.000Z</time>
        <extensions>
          <ns3:TrackPointExtension>
            <ns3:atemp>33.0</ns3:atemp>
            <ns3:hr>91</ns3:hr>
          </ns3:TrackPointExtension>
        </extensions>
      </trkpt>
      <trkpt lat="36.85348103754222393035888671875" lon="-118.532313890755176544189453125">
        <ele>2046.4000244140625</ele>
        <time>2021-06-28T16:11:02.000Z</time>
        <extensions>
          <ns3:TrackPointExtension>
            <ns3:atemp>33.0</ns3:atemp>
            <ns3:hr>90</ns3:hr>
          </ns3:TrackPointExtension>
        </extensions>
      </trkpt>
      <trkpt lat="36.85347315855324268341064453125" lon="-118.5323216021060943603515625">
        <ele>2046.4000244140625</ele>
        <time>2021-06-28T16:11:03.000Z</time>
        <extensions>
          <ns3:TrackPointExtension>
            <ns3:atemp>33.0</ns3:atemp>
            <ns3:hr>89</ns3:hr>
          </ns3:TrackPointExtension>
        </extensions>
      </trkpt>
      <trkpt lat="36.85346578247845172882080078125" lon="-118.5323308221995830535888671875">
        <ele>2046.4000244140625</ele>
        <time>2021-06-28T16:11:04.000Z</time>
        <extensions>
          <ns3:TrackPointExtension>
            <ns3:atemp>33.0</ns3:atemp>
            <ns3:hr>88</ns3:hr>
          </ns3:TrackPointExtension>
        </extensions>
      </trkpt>
      <trkpt lat="36.85344717465341091156005859375" lon="-118.53244322352111339569091796875">
        <ele>2046.199951171875</ele>
        <time>2021-06-28T16:19:41.000Z</time>
        <extensions>
          <ns3:TrackPointExtension>
            <ns3:atemp>32.0</ns3:atemp>
            <ns3:hr>70</ns3:hr>
          </ns3:TrackPointExtension>
        </extensions>
      </trkpt>
      <trkpt lat="36.85344717465341091156005859375" lon="-118.5324431397020816802978515625">
        <ele>2046.199951171875</ele>
        <time>2021-06-28T16:19:42.000Z</time>
        <extensions>
          <ns3:TrackPointExtension>
            <ns3:atemp>32.0</ns3:atemp>
            <ns3:hr>70</ns3:hr>
          </ns3:TrackPointExtension>
        </extensions>
      </trkpt>
      <trkpt lat="36.85344717465341091156005859375" lon="-118.5324431397020816802978515625">
        <ele>2046.199951171875</ele>
        <time>2021-06-28T16:19:43.000Z</time>
        <extensions>
          <ns3:TrackPointExtension>
            <ns3:atemp>32.0</ns3:atemp>
            <ns3:hr>70</ns3:hr>
          </ns3:TrackPointExtension>
        </extensions>
      </trkpt>
      <trkpt lat="36.85344717465341091156005859375" lon="-118.5324423015117645263671875">
        <ele>2045.800048828125</ele>
        <time>2021-06-28T16:20:02.000Z</time>
        <extensions>
          <ns3:TrackPointExtension>
            <ns3:atemp>32.0</ns3:atemp>
            <ns3:hr>73</ns3:hr>
          </ns3:TrackPointExtension>
        </extensions>
      </trkpt>
      <trkpt lat="36.85344717465341091156005859375" lon="-118.5324421338737010955810546875">
        <ele>2045.5999755859375</ele>
        <time>2021-06-28T16:20:07.000Z</time>
        <extensions>
          <ns3:TrackPointExtension>
            <ns3:atemp>32.0</ns3:atemp>
            <ns3:hr>76</ns3:hr>
          </ns3:TrackPointExtension>
        </extensions>
      </trkpt>
      <trkpt lat="36.8533895909786224365234375" lon="-118.53243358433246612548828125">
        <ele>2046.199951171875</ele>
        <time>2021-06-28T16:20:24.000Z</time>
        <extensions>
          <ns3:TrackPointExtension>
            <ns3:atemp>32.0</ns3:atemp>
            <ns3:hr>78</ns3:hr>
          </ns3:TrackPointExtension>
        </extensions>
      </trkpt>
      <trkpt lat="36.85330736450850963592529296875" lon="-118.53241371922194957733154296875">
        <ele>2045.800048828125</ele>
        <time>2021-06-28T16:20:29.000Z</time>
        <extensions>
          <ns3:TrackPointExtension>
            <ns3:atemp>32.0</ns3:atemp>
            <ns3:hr>79</ns3:hr>
          </ns3:TrackPointExtension>
        </extensions>
      </trkpt>
      <trkpt lat="36.85328640975058078765869140625" lon="-118.5324062593281269073486328125">
        <ele>2045.800048828125</ele>
        <time>2021-06-28T16:20:30.000Z</time>
        <extensions>
          <ns3:TrackPointExtension>
            <ns3:atemp>32.0</ns3:atemp>
            <ns3:hr>79</ns3:hr>
          </ns3:TrackPointExtension>
        </extensions>
      </trkpt>
      <trkpt lat="36.8532727472484111785888671875" lon="-118.53240433149039745330810546875">
        <ele>2045.5999755859375</ele>
        <time>2021-06-28T16:20:31.000Z</time>
        <extensions>
          <ns3:TrackPointExtension>
            <ns3:atemp>32.0</ns3:atemp>
            <ns3:hr>79</ns3:hr>
          </ns3:TrackPointExtension>
        </extensions>
      </trkpt>
      <trkpt lat="36.8532318435609340667724609375" lon="-118.53241824544966220855712890625">
        <ele>2045.5999755859375</ele>
        <time>2021-06-28T16:20:34.000Z</time>
        <extensions>
          <ns3:TrackPointExtension>
            <ns3:atemp>32.0</ns3:atemp>
            <ns3:hr>80</ns3:hr>
          </ns3:TrackPointExtension>
        </extensions>
      </trkpt>
      <trkpt lat="36.853196807205677032470703125" lon="-118.53244188241660594940185546875">
        <ele>2045.4000244140625</ele>
        <time>2021-06-28T16:20:36.000Z</time>
        <extensions>
          <ns3:TrackPointExtension>
            <ns3:atemp>32.0</ns3:atemp>
            <ns3:hr>79</ns3:hr>
          </ns3:TrackPointExtension>
        </extensions>
      </trkpt>
      <trkpt lat="36.853196807205677032470703125" lon="-118.53244188241660594940185546875">
        <ele>2045.199951171875</ele>
        <time>2021-06-28T16:20:37.000Z</time>
        <extensions>
          <ns3:TrackPointExtension>
            <ns3:atemp>32.0</ns3:atemp>
            <ns3:hr>80</ns3:hr>
          </ns3:TrackPointExtension>
        </extensions>
      </trkpt>
      <trkpt lat="36.85316872783005237579345703125" lon="-118.53244364261627197265625">
        <ele>2045.199951171875</ele>
        <time>2021-06-28T16:20:38.000Z</time>
        <extensions>
          <ns3:TrackPointExtension>
            <ns3:atemp>32.0</ns3:atemp>
            <ns3:hr>81</ns3:hr>
          </ns3:TrackPointExtension>
        </extensions>
      </trkpt>
      <trkpt lat="36.85309982858598232269287109375" lon="-118.5324136354029178619384765625">
        <ele>2045.4000244140625</ele>
        <time>2021-06-28T16:20:43.000Z</time>
        <extensions>
          <ns3:TrackPointExtension>
            <ns3:atemp>32.0</ns3:atemp>
            <ns3:hr>78</ns3:hr>
          </ns3:TrackPointExtension>
        </extensions>
      </trkpt>
      <trkpt lat="36.8530328571796417236328125" lon="-118.53245328180491924285888671875">
        <ele>2045</ele>
        <time>2021-06-28T16:20:51.000Z</time>
        <extensions>
          <ns3:TrackPointExtension>
            <ns3:atemp>32.0</ns3:atemp>
            <ns3:hr>79</ns3:hr>
          </ns3:TrackPointExtension>
        </extensions>
      </trkpt>
      <trkpt lat="36.85293302871286869049072265625" lon="-118.5324592329561710357666015625">
        <ele>2044.5999755859375</ele>
        <time>2021-06-28T16:20:58.000Z</time>
        <extensions>
          <ns3:TrackPointExtension>
            <ns3:atemp>32.0</ns3:atemp>
            <ns3:hr>79</ns3:hr>
          </ns3:TrackPointExtension>
        </extensions>
      </trkpt>
      <trkpt lat="36.85288064181804656982421875" lon="-118.5324478335678577423095703125">
        <ele>2044.199951171875</ele>
        <time>2021-06-28T16:21:03.000Z</time>
        <extensions>
          <ns3:TrackPointExtension>
            <ns3:atemp>32.0</ns3:atemp>
            <ns3:hr>79</ns3:hr>
          </ns3:TrackPointExtension>
        </extensions>
      </trkpt>
      <trkpt lat="36.85284920968115329742431640625" lon="-118.532423861324787139892578125">
        <ele>2044</ele>
        <time>2021-06-28T16:21:04.000Z</time>
        <extensions>
          <ns3:TrackPointExtension>
            <ns3:atemp>32.0</ns3:atemp>
            <ns3:hr>80</ns3:hr>
          </ns3:TrackPointExtension>
        </extensions>
      </trkpt>
      <trkpt lat="36.85284099541604518890380859375" lon="-118.53241522796452045440673828125">
        <ele>2043.4000244140625</ele>
        <time>2021-06-28T16:21:07.000Z</time>
        <extensions>
          <ns3:TrackPointExtension>
            <ns3:atemp>32.0</ns3:atemp>
            <ns3:hr>80</ns3:hr>
          </ns3:TrackPointExtension>
        </extensions>
      </trkpt>
      <trkpt lat="36.85280679725110530853271484375" lon="-118.53243132121860980987548828125">
        <ele>2043.4000244140625</ele>
        <time>2021-06-28T16:21:11.000Z</time>
        <extensions>
          <ns3:TrackPointExtension>
            <ns3:atemp>32.0</ns3:atemp>
            <ns3:hr>81</ns3:hr>
          </ns3:TrackPointExtension>
        </extensions>
      </trkpt>
      <trkpt lat="36.85279372148215770721435546875" lon="-118.53245370090007781982421875">
        <ele>2043</ele>
        <time>2021-06-28T16:21:14.000Z</time>
        <extensions>
          <ns3:TrackPointExtension>
            <ns3:atemp>32.0</ns3:atemp>
            <ns3:hr>82</ns3:hr>
          </ns3:TrackPointExtension>
        </extensions>
      </trkpt>
      <trkpt lat="36.8527882732450962066650390625" lon="-118.53245772421360015869140625">
        <ele>2043</ele>
        <time>2021-06-28T16:21:15.000Z</time>
        <extensions>
          <ns3:TrackPointExtension>
            <ns3:atemp>32.0</ns3:atemp>
            <ns3:hr>83</ns3:hr>
          </ns3:TrackPointExtension>
        </extensions>
      </trkpt>
      <trkpt lat="36.8527255766093730926513671875" lon="-118.53242863900959491729736328125">
        <ele>2042.199951171875</ele>
        <time>2021-06-28T16:21:22.000Z</time>
        <extensions>
          <ns3:TrackPointExtension>
            <ns3:atemp>32.0</ns3:atemp>
            <ns3:hr>83</ns3:hr>
          </ns3:TrackPointExtension>
        </extensions>
      </trkpt>
      <trkpt lat="36.85271090827882289886474609375" lon="-118.53243358433246612548828125">
        <ele>2042.199951171875</ele>
        <time>2021-06-28T16:21:23.000Z</time>
        <extensions>
          <ns3:TrackPointExtension>
            <ns3:atemp>32.0</ns3:atemp>
            <ns3:hr>83</ns3:hr>
          </ns3:TrackPointExtension>
        </extensions>
      </trkpt>
      <trkpt lat="36.8526722677052021026611328125" lon="-118.5324307344853878021240234375">
        <ele>2042</ele>
        <time>2021-06-28T16:21:26.000Z</time>
        <extensions>
          <ns3:TrackPointExtension>
            <ns3:atemp>32.0</ns3:atemp>
            <ns3:hr>84</ns3:hr>
          </ns3:TrackPointExtension>
        </extensions>
      </trkpt>
      <trkpt lat="36.85266128741204738616943359375" lon="-118.53243433870375156402587890625">
        <ele>2042.199951171875</ele>
        <time>2021-06-28T16:21:27.000Z</time>
        <extensions>
          <ns3:TrackPointExtension>
            <ns3:atemp>32.0</ns3:atemp>
            <ns3:hr>84</ns3:hr>
          </ns3:TrackPointExtension>
        </extensions>
      </trkpt>
      <trkpt lat="36.85257755219936370849609375" lon="-118.53245898149907588958740234375">
        <ele>2042.199951171875</ele>
        <time>2021-06-28T16:21:30.000Z</time>
        <extensions>
          <ns3:TrackPointExtension>
            <ns3:atemp>32.0</ns3:atemp>
            <ns3:hr>84</ns3:hr>
          </ns3:TrackPointExtension>
        </extensions>
      </trkpt>
      <trkpt lat="36.85256271623075008392333984375" lon="-118.5324622504413127899169921875">
        <ele>2042.199951171875</ele>
        <time>2021-06-28T16:21:32.000Z</time>
        <extensions>
          <ns3:TrackPointExtension>
            <ns3:atemp>32.0</ns3:atemp>
            <ns3:hr>86</ns3:hr>
          </ns3:TrackPointExtension>
        </extensions>
      </trkpt>
      <trkpt lat="36.8525133468210697174072265625" lon="-118.53245646692812442779541015625">
        <ele>2042.199951171875</ele>
        <time>2021-06-28T16:21:35.000Z</time>
        <extensions>
          <ns3:TrackPointExtension>
            <ns3:atemp>32.0</ns3:atemp>
            <ns3:hr>89</ns3:hr>
          </ns3:TrackPointExtension>
        </extensions>
      </trkpt>
      <trkpt lat="36.852487362921237945556640625" lon="-118.5324639268219470977783203125">
        <ele>2042.4000244140625</ele>
        <time>2021-06-28T16:21:36.000Z</time>
        <extensions>
          <ns3:TrackPointExtension>
            <ns3:atemp>32.0</ns3:atemp>
            <ns3:hr>89</ns3:hr>
          </ns3:TrackPointExtension>
        </extensions>
      </trkpt>
      <trkpt lat="36.8524533323943614959716796875" lon="-118.53244808502495288848876953125">
        <ele>2042.4000244140625</ele>
        <time>2021-06-28T16:21:38.000Z</time>
        <extensions>
          <ns3:TrackPointExtension>
            <ns3:atemp>32.0</ns3:atemp>
            <ns3:hr>91</ns3:hr>
          </ns3:TrackPointExtension>
        </extensions>
      </trkpt>
      <trkpt lat="36.85242994688451290130615234375" lon="-118.53248228318989276885986328125">
        <ele>2042.5999755859375</ele>
        <time>2021-06-28T16:21:41.000Z</time>
        <extensions>
          <ns3:TrackPointExtension>
            <ns3:atemp>32.0</ns3:atemp>
            <ns3:hr>91</ns3:hr>
          </ns3:TrackPointExtension>
        </extensions>
      </trkpt>
      <trkpt lat="36.85240245424211025238037109375" lon="-118.53248949162662029266357421875">
        <ele>2042.4000244140625</ele>
        <time>2021-06-28T16:21:44.000Z</time>
        <extensions>
          <ns3:TrackPointExtension>
            <ns3:atemp>32.0</ns3:atemp>
            <ns3:hr>90</ns3:hr>
          </ns3:TrackPointExtension>
        </extensions>
      </trkpt>
      <trkpt lat="36.8523892946541309356689453125" lon="-118.5324900783598423004150390625">
        <ele>2042.199951171875</ele>
        <time>2021-06-28T16:21:45.000Z</time>
        <extensions>
          <ns3:TrackPointExtension>
            <ns3:atemp>32.0</ns3:atemp>
            <ns3:hr>88</ns3:hr>
          </ns3:TrackPointExtension>
        </extensions>
      </trkpt>
      <trkpt lat="36.8523463793098926544189453125" lon="-118.53251011110842227935791015625">
        <ele>2042</ele>
        <time>2021-06-28T16:21:48.000Z</time>
        <extensions>
          <ns3:TrackPointExtension>
            <ns3:atemp>32.0</ns3:atemp>
            <ns3:hr>85</ns3:hr>
          </ns3:TrackPointExtension>
        </extensions>
      </trkpt>
      <trkpt lat="36.8522991053760051727294921875" lon="-118.53255587629973888397216796875">
        <ele>2042</ele>
        <time>2021-06-28T16:21:53.000Z</time>
        <extensions>
          <ns3:TrackPointExtension>
            <ns3:atemp>32.0</ns3:atemp>
            <ns3:hr>85</ns3:hr>
          </ns3:TrackPointExtension>
        </extensions>
      </trkpt>
      <trkpt lat="36.85229080729186534881591796875" lon="-118.53255738504230976104736328125">
        <ele>2042</ele>
        <time>2021-06-28T16:21:54.000Z</time>
        <extensions>
          <ns3:TrackPointExtension>
            <ns3:atemp>32.0</ns3:atemp>
            <ns3:hr>85</ns3:hr>
          </ns3:TrackPointExtension>
        </extensions>
      </trkpt>
      <trkpt lat="36.85222056694328784942626953125" lon="-118.53257029317319393157958984375">
        <ele>2042</ele>
        <time>2021-06-28T16:21:59.000Z</time>
        <extensions>
          <ns3:TrackPointExtension>
            <ns3:atemp>32.0</ns3:atemp>
            <ns3:hr>87</ns3:hr>
          </ns3:TrackPointExtension>
        </extensions>
      </trkpt>
      <trkpt lat="36.85220480896532535552978515625" lon="-118.53261119686067104339599609375">
        <ele>2041.800048828125</ele>
        <time>2021-06-28T16:22:01.000Z</time>
        <extensions>
          <ns3:TrackPointExtension>
            <ns3:atemp>32.0</ns3:atemp>
            <ns3:hr>86</ns3:hr>
          </ns3:TrackPointExtension>
        </extensions>
      </trkpt>
      <trkpt lat="36.85217262245714664459228515625" lon="-118.53265411220490932464599609375">
        <ele>2042</ele>
        <time>2021-06-28T16:22:05.000Z</time>
        <extensions>
          <ns3:TrackPointExtension>
            <ns3:atemp>32.0</ns3:atemp>
            <ns3:hr>86</ns3:hr>
          </ns3:TrackPointExtension>
        </extensions>
      </trkpt>
      <trkpt lat="36.8521678447723388671875" lon="-118.53266182355582714080810546875">
        <ele>2042</ele>
        <time>2021-06-28T16:22:06.000Z</time>
        <extensions>
          <ns3:TrackPointExtension>
            <ns3:atemp>32.0</ns3:atemp>
            <ns3:hr>84</ns3:hr>
          </ns3:TrackPointExtension>
        </extensions>
      </trkpt>
      <trkpt lat="36.8521683476865291595458984375" lon="-118.5326729714870452880859375">
        <ele>2042</ele>
        <time>2021-06-28T16:22:08.000Z</time>
        <extensions>
          <ns3:TrackPointExtension>
            <ns3:atemp>32.0</ns3:atemp>
            <ns3:hr>85</ns3:hr>
          </ns3:TrackPointExtension>
        </extensions>
      </trkpt>
      <trkpt lat="36.85217320919036865234375" lon="-118.53268998675048351287841796875">
        <ele>2042</ele>
        <time>2021-06-28T16:22:10.000Z</time>
        <extensions>
          <ns3:TrackPointExtension>
            <ns3:atemp>32.0</ns3:atemp>
            <ns3:hr>85</ns3:hr>
          </ns3:TrackPointExtension>
        </extensions>
      </trkpt>
      <trkpt lat="36.8521670065820217132568359375" lon="-118.532774560153484344482421875">
        <ele>2043</ele>
        <time>2021-06-28T16:22:18.000Z</time>
        <extensions>
          <ns3:TrackPointExtension>
            <ns3:atemp>32.0</ns3:atemp>
            <ns3:hr>86</ns3:hr>
          </ns3:TrackPointExtension>
        </extensions>
      </trkpt>
      <trkpt lat="36.85216206125915050506591796875" lon="-118.53279191069304943084716796875">
        <ele>2043</ele>
        <time>2021-06-28T16:22:19.000Z</time>
        <extensions>
          <ns3:TrackPointExtension>
            <ns3:atemp>32.0</ns3:atemp>
            <ns3:hr>87</ns3:hr>
          </ns3:TrackPointExtension>
        </extensions>
      </trkpt>
      <trkpt lat="36.85216139070689678192138671875" lon="-118.5328070819377899169921875">
        <ele>2043.199951171875</ele>
        <time>2021-06-28T16:22:20.000Z</time>
        <extensions>
          <ns3:TrackPointExtension>
            <ns3:atemp>32.0</ns3:atemp>
            <ns3:hr>87</ns3:hr>
          </ns3:TrackPointExtension>
        </extensions>
      </trkpt>
      <trkpt lat="36.85214948840439319610595703125" lon="-118.5328525118529796600341796875">
        <ele>2043.5999755859375</ele>
        <time>2021-06-28T16:22:23.000Z</time>
        <extensions>
          <ns3:TrackPointExtension>
            <ns3:atemp>32.0</ns3:atemp>
            <ns3:hr>87</ns3:hr>
          </ns3:TrackPointExtension>
        </extensions>
      </trkpt>
      <trkpt lat="36.8521423637866973876953125" lon="-118.532901294529438018798828125">
        <ele>2043.5999755859375</ele>
        <time>2021-06-28T16:22:25.000Z</time>
        <extensions>
          <ns3:TrackPointExtension>
            <ns3:atemp>32.0</ns3:atemp>
            <ns3:hr>87</ns3:hr>
          </ns3:TrackPointExtension>
        </extensions>
      </trkpt>
      <trkpt lat="36.852152086794376373291015625" lon="-118.53298804722726345062255859375">
        <ele>2043.800048828125</ele>
        <time>2021-06-28T16:22:27.000Z</time>
        <extensions>
          <ns3:TrackPointExtension>
            <ns3:atemp>32.0</ns3:atemp>
            <ns3:hr>88</ns3:hr>
          </ns3:TrackPointExtension>
        </extensions>
      </trkpt>
      <trkpt lat="36.8521834351122379302978515625" lon="-118.53307404555380344390869140625">
        <ele>2044</ele>
        <time>2021-06-28T16:22:31.000Z</time>
        <extensions>
          <ns3:TrackPointExtension>
            <ns3:atemp>32.0</ns3:atemp>
            <ns3:hr>90</ns3:hr>
          </ns3:TrackPointExtension>
        </extensions>
      </trkpt>
      <trkpt lat="36.85220296494662761688232421875" lon="-118.533137999475002288818359375">
        <ele>2045</ele>
        <time>2021-06-28T16:22:39.000Z</time>
        <extensions>
          <ns3:TrackPointExtension>
            <ns3:atemp>32.0</ns3:atemp>
            <ns3:hr>92</ns3:hr>
          </ns3:TrackPointExtension>
        </extensions>
      </trkpt>
      <trkpt lat="36.85220162384212017059326171875" lon="-118.5331532545387744903564453125">
        <ele>2045.199951171875</ele>
        <time>2021-06-28T16:22:40.000Z</time>
        <extensions>
          <ns3:TrackPointExtension>
            <ns3:atemp>32.0</ns3:atemp>
            <ns3:hr>92</ns3:hr>
          </ns3:TrackPointExtension>
        </extensions>
      </trkpt>
      <trkpt lat="36.852218471467494964599609375" lon="-118.533171527087688446044921875">
        <ele>2045.5999755859375</ele>
        <time>2021-06-28T16:22:44.000Z</time>
        <extensions>
          <ns3:TrackPointExtension>
            <ns3:atemp>32.0</ns3:atemp>
            <ns3:hr>95</ns3:hr>
          </ns3:TrackPointExtension>
        </extensions>
      </trkpt>
      <trkpt lat="36.852215118706226348876953125" lon="-118.53318250738084316253662109375">
        <ele>2045.5999755859375</ele>
        <time>2021-06-28T16:22:46.000Z</time>
        <extensions>
          <ns3:TrackPointExtension>
            <ns3:atemp>32.0</ns3:atemp>
            <ns3:hr>97</ns3:hr>
          </ns3:TrackPointExtension>
        </extensions>
      </trkpt>
      <trkpt lat="36.85224269516766071319580078125" lon="-118.5332984291017055511474609375">
        <ele>2045.800048828125</ele>
        <time>2021-06-28T16:22:57.000Z</time>
        <extensions>
          <ns3:TrackPointExtension>
            <ns3:atemp>32.0</ns3:atemp>
            <ns3:hr>97</ns3:hr>
          </ns3:TrackPointExtension>
        </extensions>
      </trkpt>
      <trkpt lat="36.85223867185413837432861328125" lon="-118.533363975584506988525390625">
        <ele>2045.800048828125</ele>
        <time>2021-06-28T16:23:04.000Z</time>
        <extensions>
          <ns3:TrackPointExtension>
            <ns3:atemp>32.0</ns3:atemp>
            <ns3:hr>98</ns3:hr>
          </ns3:TrackPointExtension>
        </extensions>
      </trkpt>
      <trkpt lat="36.85221067629754543304443359375" lon="-118.533521555364131927490234375">
        <ele>2045.800048828125</ele>
        <time>2021-06-28T16:23:11.000Z</time>
        <extensions>
          <ns3:TrackPointExtension>
            <ns3:atemp>32.0</ns3:atemp>
            <ns3:hr>99</ns3:hr>
          </ns3:TrackPointExtension>
        </extensions>
      </trkpt>
      <trkpt lat="36.85218888334929943084716796875" lon="-118.53356874547898769378662109375">
        <ele>2046</ele>
        <time>2021-06-28T16:23:15.000Z</time>
        <extensions>
          <ns3:TrackPointExtension>
            <ns3:atemp>32.0</ns3:atemp>
            <ns3:hr>98</ns3:hr>
          </ns3:TrackPointExtension>
        </extensions>
      </trkpt>
      <trkpt lat="36.85218888334929943084716796875" lon="-118.53356874547898769378662109375">
        <ele>2046</ele>
        <time>2021-06-28T16:23:16.000Z</time>
        <extensions>
          <ns3:TrackPointExtension>
            <ns3:atemp>32.0</ns3:atemp>
            <ns3:hr>99</ns3:hr>
          </ns3:TrackPointExtension>
        </extensions>
      </trkpt>
      <trkpt lat="36.85217781923711299896240234375" lon="-118.5335807316005229949951171875">
        <ele>2046</ele>
        <time>2021-06-28T16:23:17.000Z</time>
        <extensions>
          <ns3:TrackPointExtension>
            <ns3:atemp>32.0</ns3:atemp>
            <ns3:hr>99</ns3:hr>
          </ns3:TrackPointExtension>
        </extensions>
      </trkpt>
      <trkpt lat="36.8521532602608203887939453125" lon="-118.53359959088265895843505859375">
        <ele>2045.4000244140625</ele>
        <time>2021-06-28T16:23:20.000Z</time>
        <extensions>
          <ns3:TrackPointExtension>
            <ns3:atemp>32.0</ns3:atemp>
            <ns3:hr>98</ns3:hr>
          </ns3:TrackPointExtension>
        </extensions>
      </trkpt>
      <trkpt lat="36.85214227996766567230224609375" lon="-118.53360411711037158966064453125">
        <ele>2045</ele>
        <time>2021-06-28T16:23:22.000Z</time>
        <extensions>
          <ns3:TrackPointExtension>
            <ns3:atemp>32.0</ns3:atemp>
            <ns3:hr>100</ns3:hr>
          </ns3:TrackPointExtension>
        </extensions>
      </trkpt>
      <trkpt lat="36.85211596079170703887939453125" lon="-118.53360512293875217437744140625">
        <ele>2044.800048828125</ele>
        <time>2021-06-28T16:23:25.000Z</time>
        <extensions>
          <ns3:TrackPointExtension>
            <ns3:atemp>32.0</ns3:atemp>
            <ns3:hr>100</ns3:hr>
          </ns3:TrackPointExtension>
        </extensions>
      </trkpt>
      <trkpt lat="36.852110512554645538330078125" lon="-118.53359707631170749664306640625">
        <ele>2044.5999755859375</ele>
        <time>2021-06-28T16:23:26.000Z</time>
        <extensions>
          <ns3:TrackPointExtension>
            <ns3:atemp>32.0</ns3:atemp>
            <ns3:hr>96</ns3:hr>
          </ns3:TrackPointExtension>
        </extensions>
      </trkpt>
      <trkpt lat="36.85205795802175998687744140625" lon="-118.533580563962459564208984375">
        <ele>2043.800048828125</ele>
        <time>2021-06-28T16:23:32.000Z</time>
        <extensions>
          <ns3:TrackPointExtension>
            <ns3:atemp>32.0</ns3:atemp>
            <ns3:hr>94</ns3:hr>
          </ns3:TrackPointExtension>
        </extensions>
      </trkpt>
      <trkpt lat="36.852049492299556732177734375" lon="-118.53358416818082332611083984375">
        <ele>2043.800048828125</ele>
        <time>2021-06-28T16:23:33.000Z</time>
        <extensions>
          <ns3:TrackPointExtension>
            <ns3:atemp>32.0</ns3:atemp>
            <ns3:hr>93</ns3:hr>
          </ns3:TrackPointExtension>
        </extensions>
      </trkpt>
      <trkpt lat="36.85200263746082782745361328125" lon="-118.5335857607424259185791015625">
        <ele>2043.800048828125</ele>
        <time>2021-06-28T16:23:36.000Z</time>
        <extensions>
          <ns3:TrackPointExtension>
            <ns3:atemp>32.0</ns3:atemp>
            <ns3:hr>95</ns3:hr>
          </ns3:TrackPointExtension>
        </extensions>
      </trkpt>
      <trkpt lat="36.85200263746082782745361328125" lon="-118.5335857607424259185791015625">
        <ele>2043.5999755859375</ele>
        <time>2021-06-28T16:23:37.000Z</time>
        <extensions>
          <ns3:TrackPointExtension>
            <ns3:atemp>32.0</ns3:atemp>
            <ns3:hr>92</ns3:hr>
          </ns3:TrackPointExtension>
        </extensions>
      </trkpt>
      <trkpt lat="36.8519715406000614166259765625" lon="-118.5335968248546123504638671875">
        <ele>2043.5999755859375</ele>
        <time>2021-06-28T16:23:39.000Z</time>
        <extensions>
          <ns3:TrackPointExtension>
            <ns3:atemp>32.0</ns3:atemp>
            <ns3:hr>91</ns3:hr>
          </ns3:TrackPointExtension>
        </extensions>
      </trkpt>
      <trkpt lat="36.8519715406000614166259765625" lon="-118.5335968248546123504638671875">
        <ele>2043.4000244140625</ele>
        <time>2021-06-28T16:23:40.000Z</time>
        <extensions>
          <ns3:TrackPointExtension>
            <ns3:atemp>31.0</ns3:atemp>
            <ns3:hr>91</ns3:hr>
          </ns3:TrackPointExtension>
        </extensions>
      </trkpt>
      <trkpt lat="36.85194815509021282196044921875" lon="-118.53363211266696453094482421875">
        <ele>2043.199951171875</ele>
        <time>2021-06-28T16:23:42.000Z</time>
        <extensions>
          <ns3:TrackPointExtension>
            <ns3:atemp>31.0</ns3:atemp>
            <ns3:hr>91</ns3:hr>
          </ns3:TrackPointExtension>
        </extensions>
      </trkpt>
      <trkpt lat="36.851905994117259979248046875" lon="-118.53366849012672901153564453125">
        <ele>2042.800048828125</ele>
        <time>2021-06-28T16:23:46.000Z</time>
        <extensions>
          <ns3:TrackPointExtension>
            <ns3:atemp>31.0</ns3:atemp>
            <ns3:hr>93</ns3:hr>
          </ns3:TrackPointExtension>
        </extensions>
      </trkpt>
      <trkpt lat="36.8518967740237712860107421875" lon="-118.53368223644793033599853515625">
        <ele>2042.800048828125</ele>
        <time>2021-06-28T16:23:48.000Z</time>
        <extensions>
          <ns3:TrackPointExtension>
            <ns3:atemp>31.0</ns3:atemp>
            <ns3:hr>93</ns3:hr>
          </ns3:TrackPointExtension>
        </extensions>
      </trkpt>
      <trkpt lat="36.851853020489215850830078125" lon="-118.53375331498682498931884765625">
        <ele>2043</ele>
        <time>2021-06-28T16:23:53.000Z</time>
        <extensions>
          <ns3:TrackPointExtension>
            <ns3:atemp>31.0</ns3:atemp>
            <ns3:hr>91</ns3:hr>
          </ns3:TrackPointExtension>
        </extensions>
      </trkpt>
      <trkpt lat="36.85181178152561187744140625" lon="-118.53374644182622432708740234375">
        <ele>2043.5999755859375</ele>
        <time>2021-06-28T16:23:55.000Z</time>
        <extensions>
          <ns3:TrackPointExtension>
            <ns3:atemp>31.0</ns3:atemp>
            <ns3:hr>94</ns3:hr>
          </ns3:TrackPointExtension>
        </extensions>
      </trkpt>
      <trkpt lat="36.85181178152561187744140625" lon="-118.53374644182622432708740234375">
        <ele>2043.800048828125</ele>
        <time>2021-06-28T16:23:56.000Z</time>
        <extensions>
          <ns3:TrackPointExtension>
            <ns3:atemp>31.0</ns3:atemp>
            <ns3:hr>94</ns3:hr>
          </ns3:TrackPointExtension>
        </extensions>
      </trkpt>
      <trkpt lat="36.85180373489856719970703125" lon="-118.53374811820685863494873046875">
        <ele>2044.199951171875</ele>
        <time>2021-06-28T16:23:57.000Z</time>
        <extensions>
          <ns3:TrackPointExtension>
            <ns3:atemp>31.0</ns3:atemp>
            <ns3:hr>94</ns3:hr>
          </ns3:TrackPointExtension>
        </extensions>
      </trkpt>
      <trkpt lat="36.8517593108117580413818359375" lon="-118.53377577848732471466064453125">
        <ele>2044.5999755859375</ele>
        <time>2021-06-28T16:24:01.000Z</time>
        <extensions>
          <ns3:TrackPointExtension>
            <ns3:atemp>31.0</ns3:atemp>
            <ns3:hr>96</ns3:hr>
          </ns3:TrackPointExtension>
        </extensions>
      </trkpt>
      <trkpt lat="36.85174682177603244781494140625" lon="-118.53378583677113056182861328125">
        <ele>2044.800048828125</ele>
        <time>2021-06-28T16:24:02.000Z</time>
        <extensions>
          <ns3:TrackPointExtension>
            <ns3:atemp>31.0</ns3:atemp>
            <ns3:hr>96</ns3:hr>
          </ns3:TrackPointExtension>
        </extensions>
      </trkpt>
      <trkpt lat="36.85173357836902141571044921875" lon="-118.53379321284592151641845703125">
        <ele>2045.199951171875</ele>
        <time>2021-06-28T16:24:03.000Z</time>
        <extensions>
          <ns3:TrackPointExtension>
            <ns3:atemp>31.0</ns3:atemp>
            <ns3:hr>96</ns3:hr>
          </ns3:TrackPointExtension>
        </extensions>
      </trkpt>
      <trkpt lat="36.85171480290591716766357421875" lon="-118.53378407657146453857421875">
        <ele>2045.4000244140625</ele>
        <time>2021-06-28T16:24:06.000Z</time>
        <extensions>
          <ns3:TrackPointExtension>
            <ns3:atemp>31.0</ns3:atemp>
            <ns3:hr>99</ns3:hr>
          </ns3:TrackPointExtension>
        </extensions>
      </trkpt>
      <trkpt lat="36.8517093546688556671142578125" lon="-118.53379388339817523956298828125">
        <ele>2045.5999755859375</ele>
        <time>2021-06-28T16:24:08.000Z</time>
        <extensions>
          <ns3:TrackPointExtension>
            <ns3:atemp>31.0</ns3:atemp>
            <ns3:hr>100</ns3:hr>
          </ns3:TrackPointExtension>
        </extensions>
      </trkpt>
      <trkpt lat="36.851675994694232940673828125" lon="-118.533827997744083404541015625">
        <ele>2045.199951171875</ele>
        <time>2021-06-28T16:24:13.000Z</time>
        <extensions>
          <ns3:TrackPointExtension>
            <ns3:atemp>31.0</ns3:atemp>
            <ns3:hr>103</ns3:hr>
          </ns3:TrackPointExtension>
        </extensions>
      </trkpt>
      <trkpt lat="36.85164523310959339141845703125" lon="-118.5339022614061832427978515625">
        <ele>2045.4000244140625</ele>
        <time>2021-06-28T16:24:18.000Z</time>
        <extensions>
          <ns3:TrackPointExtension>
            <ns3:atemp>31.0</ns3:atemp>
            <ns3:hr>104</ns3:hr>
          </ns3:TrackPointExtension>
        </extensions>
      </trkpt>
      <trkpt lat="36.851643137633800506591796875" lon="-118.53390770964324474334716796875">
        <ele>2045.4000244140625</ele>
        <time>2021-06-28T16:24:19.000Z</time>
        <extensions>
          <ns3:TrackPointExtension>
            <ns3:atemp>31.0</ns3:atemp>
            <ns3:hr>103</ns3:hr>
          </ns3:TrackPointExtension>
        </extensions>
      </trkpt>
      <trkpt lat="36.851608268916606903076171875" lon="-118.533937297761440277099609375">
        <ele>2044.800048828125</ele>
        <time>2021-06-28T16:24:23.000Z</time>
        <extensions>
          <ns3:TrackPointExtension>
            <ns3:atemp>31.0</ns3:atemp>
            <ns3:hr>101</ns3:hr>
          </ns3:TrackPointExtension>
        </extensions>
      </trkpt>
      <trkpt lat="36.85156409628689289093017578125" lon="-118.53394769132137298583984375">
        <ele>2044.800048828125</ele>
        <time>2021-06-28T16:24:25.000Z</time>
        <extensions>
          <ns3:TrackPointExtension>
            <ns3:atemp>31.0</ns3:atemp>
            <ns3:hr>100</ns3:hr>
          </ns3:TrackPointExtension>
        </extensions>
      </trkpt>
      <trkpt lat="36.851483546197414398193359375" lon="-118.5340115614235401153564453125">
        <ele>2045</ele>
        <time>2021-06-28T16:24:31.000Z</time>
        <extensions>
          <ns3:TrackPointExtension>
            <ns3:atemp>31.0</ns3:atemp>
            <ns3:hr>97</ns3:hr>
          </ns3:TrackPointExtension>
        </extensions>
      </trkpt>
      <trkpt lat="36.851421184837818145751953125" lon="-118.53406411595642566680908203125">
        <ele>2046</ele>
        <time>2021-06-28T16:24:37.000Z</time>
        <extensions>
          <ns3:TrackPointExtension>
            <ns3:atemp>31.0</ns3:atemp>
            <ns3:hr>95</ns3:hr>
          </ns3:TrackPointExtension>
        </extensions>
      </trkpt>
      <trkpt lat="36.8514153175055980682373046875" lon="-118.5340709052979946136474609375">
        <ele>2046</ele>
        <time>2021-06-28T16:24:38.000Z</time>
        <extensions>
          <ns3:TrackPointExtension>
            <ns3:atemp>31.0</ns3:atemp>
            <ns3:hr>94</ns3:hr>
          </ns3:TrackPointExtension>
        </extensions>
      </trkpt>
      <trkpt lat="36.85141540132462978363037109375" lon="-118.5341211967170238494873046875">
        <ele>2046.5999755859375</ele>
        <time>2021-06-28T16:24:40.000Z</time>
        <extensions>
          <ns3:TrackPointExtension>
            <ns3:atemp>31.0</ns3:atemp>
            <ns3:hr>94</ns3:hr>
          </ns3:TrackPointExtension>
        </extensions>
      </trkpt>
      <trkpt lat="36.8514169938862323760986328125" lon="-118.5341339372098445892333984375">
        <ele>2046.800048828125</ele>
        <time>2021-06-28T16:24:41.000Z</time>
        <extensions>
          <ns3:TrackPointExtension>
            <ns3:atemp>31.0</ns3:atemp>
            <ns3:hr>94</ns3:hr>
          </ns3:TrackPointExtension>
        </extensions>
      </trkpt>
      <trkpt lat="36.8514169938862323760986328125" lon="-118.5341339372098445892333984375">
        <ele>2047</ele>
        <time>2021-06-28T16:24:42.000Z</time>
        <extensions>
          <ns3:TrackPointExtension>
            <ns3:atemp>31.0</ns3:atemp>
            <ns3:hr>94</ns3:hr>
          </ns3:TrackPointExtension>
        </extensions>
      </trkpt>
      <trkpt lat="36.8514072708785533905029296875" lon="-118.5341750085353851318359375">
        <ele>2047.800048828125</ele>
        <time>2021-06-28T16:24:45.000Z</time>
        <extensions>
          <ns3:TrackPointExtension>
            <ns3:atemp>31.0</ns3:atemp>
            <ns3:hr>96</ns3:hr>
          </ns3:TrackPointExtension>
        </extensions>
      </trkpt>
      <trkpt lat="36.85139830224215984344482421875" lon="-118.53417861275374889373779296875">
        <ele>2048</ele>
        <time>2021-06-28T16:24:46.000Z</time>
        <extensions>
          <ns3:TrackPointExtension>
            <ns3:atemp>31.0</ns3:atemp>
            <ns3:hr>97</ns3:hr>
          </ns3:TrackPointExtension>
        </extensions>
      </trkpt>
      <trkpt lat="36.85137835331261157989501953125" lon="-118.534180037677288055419921875">
        <ele>2048.199951171875</ele>
        <time>2021-06-28T16:24:48.000Z</time>
        <extensions>
          <ns3:TrackPointExtension>
            <ns3:atemp>31.0</ns3:atemp>
            <ns3:hr>99</ns3:hr>
          </ns3:TrackPointExtension>
        </extensions>
      </trkpt>
      <trkpt lat="36.85136117041110992431640625" lon="-118.53418867103755474090576171875">
        <ele>2048.199951171875</ele>
        <time>2021-06-28T16:24:49.000Z</time>
        <extensions>
          <ns3:TrackPointExtension>
            <ns3:atemp>31.0</ns3:atemp>
            <ns3:hr>100</ns3:hr>
          </ns3:TrackPointExtension>
        </extensions>
      </trkpt>
      <trkpt lat="36.851338706910610198974609375" lon="-118.53420694358646869659423828125">
        <ele>2048.800048828125</ele>
        <time>2021-06-28T16:24:52.000Z</time>
        <extensions>
          <ns3:TrackPointExtension>
            <ns3:atemp>31.0</ns3:atemp>
            <ns3:hr>103</ns3:hr>
          </ns3:TrackPointExtension>
        </extensions>
      </trkpt>
      <trkpt lat="36.851338706910610198974609375" lon="-118.53420694358646869659423828125">
        <ele>2049.199951171875</ele>
        <time>2021-06-28T16:24:53.000Z</time>
        <extensions>
          <ns3:TrackPointExtension>
            <ns3:atemp>31.0</ns3:atemp>
            <ns3:hr>102</ns3:hr>
          </ns3:TrackPointExtension>
        </extensions>
      </trkpt>
      <trkpt lat="36.851328648626804351806640625" lon="-118.53421314619481563568115234375">
        <ele>2049.199951171875</ele>
        <time>2021-06-28T16:24:54.000Z</time>
        <extensions>
          <ns3:TrackPointExtension>
            <ns3:atemp>31.0</ns3:atemp>
            <ns3:hr>104</ns3:hr>
          </ns3:TrackPointExtension>
        </extensions>
      </trkpt>
      <trkpt lat="36.85129973106086254119873046875" lon="-118.53424114175140857696533203125">
        <ele>2049.199951171875</ele>
        <time>2021-06-28T16:24:56.000Z</time>
        <extensions>
          <ns3:TrackPointExtension>
            <ns3:atemp>31.0</ns3:atemp>
            <ns3:hr>106</ns3:hr>
          </ns3:TrackPointExtension>
        </extensions>
      </trkpt>
      <trkpt lat="36.85127760283648967742919921875" lon="-118.5342858172953128814697265625">
        <ele>2049</ele>
        <time>2021-06-28T16:25:01.000Z</time>
        <extensions>
          <ns3:TrackPointExtension>
            <ns3:atemp>31.0</ns3:atemp>
            <ns3:hr>106</ns3:hr>
          </ns3:TrackPointExtension>
        </extensions>
      </trkpt>
      <trkpt lat="36.85126461088657379150390625" lon="-118.53429696522653102874755859375">
        <ele>2049.199951171875</ele>
        <time>2021-06-28T16:25:02.000Z</time>
        <extensions>
          <ns3:TrackPointExtension>
            <ns3:atemp>31.0</ns3:atemp>
            <ns3:hr>107</ns3:hr>
          </ns3:TrackPointExtension>
        </extensions>
      </trkpt>
      <trkpt lat="36.8512335978448390960693359375" lon="-118.534338288009166717529296875">
        <ele>2049.800048828125</ele>
        <time>2021-06-28T16:25:09.000Z</time>
        <extensions>
          <ns3:TrackPointExtension>
            <ns3:atemp>31.0</ns3:atemp>
            <ns3:hr>110</ns3:hr>
          </ns3:TrackPointExtension>
        </extensions>
      </trkpt>
      <trkpt lat="36.8512275628745555877685546875" lon="-118.534330911934375762939453125">
        <ele>2050</ele>
        <time>2021-06-28T16:25:10.000Z</time>
        <extensions>
          <ns3:TrackPointExtension>
            <ns3:atemp>31.0</ns3:atemp>
            <ns3:hr>109</ns3:hr>
          </ns3:TrackPointExtension>
        </extensions>
      </trkpt>
      <trkpt lat="36.85121457092463970184326171875" lon="-118.53432730771601200103759765625">
        <ele>2050.199951171875</ele>
        <time>2021-06-28T16:25:12.000Z</time>
        <extensions>
          <ns3:TrackPointExtension>
            <ns3:atemp>31.0</ns3:atemp>
            <ns3:hr>109</ns3:hr>
          </ns3:TrackPointExtension>
        </extensions>
      </trkpt>
      <trkpt lat="36.85118439607322216033935546875" lon="-118.534333594143390655517578125">
        <ele>2050.199951171875</ele>
        <time>2021-06-28T16:25:15.000Z</time>
        <extensions>
          <ns3:TrackPointExtension>
            <ns3:atemp>31.0</ns3:atemp>
            <ns3:hr>108</ns3:hr>
          </ns3:TrackPointExtension>
        </extensions>
      </trkpt>
      <trkpt lat="36.8511289916932582855224609375" lon="-118.5342998988926410675048828125">
        <ele>2049</ele>
        <time>2021-06-28T16:25:20.000Z</time>
        <extensions>
          <ns3:TrackPointExtension>
            <ns3:atemp>31.0</ns3:atemp>
            <ns3:hr>107</ns3:hr>
          </ns3:TrackPointExtension>
        </extensions>
      </trkpt>
      <trkpt lat="36.85111683793365955352783203125" lon="-118.534296043217182159423828125">
        <ele>2049</ele>
        <time>2021-06-28T16:25:21.000Z</time>
        <extensions>
          <ns3:TrackPointExtension>
            <ns3:atemp>31.0</ns3:atemp>
            <ns3:hr>106</ns3:hr>
          </ns3:TrackPointExtension>
        </extensions>
      </trkpt>
      <trkpt lat="36.851097308099269866943359375" lon="-118.5342760942876338958740234375">
        <ele>2049</ele>
        <time>2021-06-28T16:25:23.000Z</time>
        <extensions>
          <ns3:TrackPointExtension>
            <ns3:atemp>31.0</ns3:atemp>
            <ns3:hr>105</ns3:hr>
          </ns3:TrackPointExtension>
        </extensions>
      </trkpt>
      <trkpt lat="36.851061768829822540283203125" lon="-118.53423862718045711517333984375">
        <ele>2048.60009765625</ele>
        <time>2021-06-28T16:25:28.000Z</time>
        <extensions>
          <ns3:TrackPointExtension>
            <ns3:atemp>31.0</ns3:atemp>
            <ns3:hr>102</ns3:hr>
          </ns3:TrackPointExtension>
        </extensions>
      </trkpt>
      <trkpt lat="36.85101072303950786590576171875" lon="-118.53422337211668491363525390625">
        <ele>2048.60009765625</ele>
        <time>2021-06-28T16:25:31.000Z</time>
        <extensions>
          <ns3:TrackPointExtension>
            <ns3:atemp>32.0</ns3:atemp>
            <ns3:hr>100</ns3:hr>
          </ns3:TrackPointExtension>
        </extensions>
      </trkpt>
      <trkpt lat="36.85100577771663665771484375" lon="-118.5342207737267017364501953125">
        <ele>2048.60009765625</ele>
        <time>2021-06-28T16:25:32.000Z</time>
        <extensions>
          <ns3:TrackPointExtension>
            <ns3:atemp>32.0</ns3:atemp>
            <ns3:hr>100</ns3:hr>
          </ns3:TrackPointExtension>
        </extensions>
      </trkpt>
      <trkpt lat="36.85099211521446704864501953125" lon="-118.53421985171735286712646484375">
        <ele>2048.60009765625</ele>
        <time>2021-06-28T16:25:34.000Z</time>
        <extensions>
          <ns3:TrackPointExtension>
            <ns3:atemp>32.0</ns3:atemp>
            <ns3:hr>99</ns3:hr>
          </ns3:TrackPointExtension>
        </extensions>
      </trkpt>
      <trkpt lat="36.85093604028224945068359375" lon="-118.5342318378388881683349609375">
        <ele>2048.39990234375</ele>
        <time>2021-06-28T16:25:40.000Z</time>
        <extensions>
          <ns3:TrackPointExtension>
            <ns3:atemp>32.0</ns3:atemp>
            <ns3:hr>100</ns3:hr>
          </ns3:TrackPointExtension>
        </extensions>
      </trkpt>
      <trkpt lat="36.850874684751033782958984375" lon="-118.534296043217182159423828125">
        <ele>2049.800048828125</ele>
        <time>2021-06-28T16:25:46.000Z</time>
        <extensions>
          <ns3:TrackPointExtension>
            <ns3:atemp>32.0</ns3:atemp>
            <ns3:hr>99</ns3:hr>
          </ns3:TrackPointExtension>
        </extensions>
      </trkpt>
      <trkpt lat="36.8508510477840900421142578125" lon="-118.5343320854008197784423828125">
        <ele>2050.39990234375</ele>
        <time>2021-06-28T16:25:51.000Z</time>
        <extensions>
          <ns3:TrackPointExtension>
            <ns3:atemp>32.0</ns3:atemp>
            <ns3:hr>99</ns3:hr>
          </ns3:TrackPointExtension>
        </extensions>
      </trkpt>
      <trkpt lat="36.85080234892666339874267578125" lon="-118.53431406430900096893310546875">
        <ele>2050.199951171875</ele>
        <time>2021-06-28T16:25:55.000Z</time>
        <extensions>
          <ns3:TrackPointExtension>
            <ns3:atemp>32.0</ns3:atemp>
            <ns3:hr>102</ns3:hr>
          </ns3:TrackPointExtension>
        </extensions>
      </trkpt>
      <trkpt lat="36.85075390152633190155029296875" lon="-118.53430685587227344512939453125">
        <ele>2050.199951171875</ele>
        <time>2021-06-28T16:25:58.000Z</time>
        <extensions>
          <ns3:TrackPointExtension>
            <ns3:atemp>32.0</ns3:atemp>
            <ns3:hr>100</ns3:hr>
          </ns3:TrackPointExtension>
        </extensions>
      </trkpt>
      <trkpt lat="36.8507154285907745361328125" lon="-118.53429227136075496673583984375">
        <ele>2050.39990234375</ele>
        <time>2021-06-28T16:26:02.000Z</time>
        <extensions>
          <ns3:TrackPointExtension>
            <ns3:atemp>32.0</ns3:atemp>
            <ns3:hr>103</ns3:hr>
          </ns3:TrackPointExtension>
        </extensions>
      </trkpt>
      <trkpt lat="36.85070528648793697357177734375" lon="-118.5342838056385517120361328125">
        <ele>2050.60009765625</ele>
        <time>2021-06-28T16:26:03.000Z</time>
        <extensions>
          <ns3:TrackPointExtension>
            <ns3:atemp>32.0</ns3:atemp>
            <ns3:hr>104</ns3:hr>
          </ns3:TrackPointExtension>
        </extensions>
      </trkpt>
      <trkpt lat="36.85066823847591876983642578125" lon="-118.53427550755441188812255859375">
        <ele>2050.800048828125</ele>
        <time>2021-06-28T16:26:05.000Z</time>
        <extensions>
          <ns3:TrackPointExtension>
            <ns3:atemp>32.0</ns3:atemp>
            <ns3:hr>105</ns3:hr>
          </ns3:TrackPointExtension>
        </extensions>
      </trkpt>
      <trkpt lat="36.85064896009862422943115234375" lon="-118.53427584283053874969482421875">
        <ele>2051</ele>
        <time>2021-06-28T16:26:07.000Z</time>
        <extensions>
          <ns3:TrackPointExtension>
            <ns3:atemp>32.0</ns3:atemp>
            <ns3:hr>106</ns3:hr>
          </ns3:TrackPointExtension>
        </extensions>
      </trkpt>
      <trkpt lat="36.850619874894618988037109375" lon="-118.53426980786025524139404296875">
        <ele>2051</ele>
        <time>2021-06-28T16:26:08.000Z</time>
        <extensions>
          <ns3:TrackPointExtension>
            <ns3:atemp>32.0</ns3:atemp>
            <ns3:hr>106</ns3:hr>
          </ns3:TrackPointExtension>
        </extensions>
      </trkpt>
      <trkpt lat="36.850535385310649871826171875" lon="-118.53427626192569732666015625">
        <ele>2050.60009765625</ele>
        <time>2021-06-28T16:26:14.000Z</time>
        <extensions>
          <ns3:TrackPointExtension>
            <ns3:atemp>32.0</ns3:atemp>
            <ns3:hr>105</ns3:hr>
          </ns3:TrackPointExtension>
        </extensions>
      </trkpt>
      <trkpt lat="36.85050730593502521514892578125" lon="-118.53428707458078861236572265625">
        <ele>2050.60009765625</ele>
        <time>2021-06-28T16:26:17.000Z</time>
        <extensions>
          <ns3:TrackPointExtension>
            <ns3:atemp>32.0</ns3:atemp>
            <ns3:hr>107</ns3:hr>
          </ns3:TrackPointExtension>
        </extensions>
      </trkpt>
      <trkpt lat="36.85044997371733188629150390625" lon="-118.5343009047210216522216796875">
        <ele>2051.60009765625</ele>
        <time>2021-06-28T16:26:22.000Z</time>
        <extensions>
          <ns3:TrackPointExtension>
            <ns3:atemp>32.0</ns3:atemp>
            <ns3:hr>106</ns3:hr>
          </ns3:TrackPointExtension>
        </extensions>
      </trkpt>
      <trkpt lat="36.850436143577098846435546875" lon="-118.53431423194706439971923828125">
        <ele>2052</ele>
        <time>2021-06-28T16:26:24.000Z</time>
        <extensions>
          <ns3:TrackPointExtension>
            <ns3:atemp>32.0</ns3:atemp>
            <ns3:hr>106</ns3:hr>
          </ns3:TrackPointExtension>
        </extensions>
      </trkpt>
      <trkpt lat="36.8503853492438793182373046875" lon="-118.534345328807830810546875">
        <ele>2052.800048828125</ele>
        <time>2021-06-28T16:26:30.000Z</time>
        <extensions>
          <ns3:TrackPointExtension>
            <ns3:atemp>32.0</ns3:atemp>
            <ns3:hr>108</ns3:hr>
          </ns3:TrackPointExtension>
        </extensions>
      </trkpt>
      <trkpt lat="36.850380487740039825439453125" lon="-118.53436133824288845062255859375">
        <ele>2052.800048828125</ele>
        <time>2021-06-28T16:26:31.000Z</time>
        <extensions>
          <ns3:TrackPointExtension>
            <ns3:atemp>32.0</ns3:atemp>
            <ns3:hr>109</ns3:hr>
          </ns3:TrackPointExtension>
        </extensions>
      </trkpt>
      <trkpt lat="36.850365735590457916259765625" lon="-118.53437240235507488250732421875">
        <ele>2053</ele>
        <time>2021-06-28T16:26:34.000Z</time>
        <extensions>
          <ns3:TrackPointExtension>
            <ns3:atemp>32.0</ns3:atemp>
            <ns3:hr>109</ns3:hr>
          </ns3:TrackPointExtension>
        </extensions>
      </trkpt>
      <trkpt lat="36.85035073198378086090087890625" lon="-118.53436804376542568206787109375">
        <ele>2053</ele>
        <time>2021-06-28T16:26:37.000Z</time>
        <extensions>
          <ns3:TrackPointExtension>
            <ns3:atemp>32.0</ns3:atemp>
            <ns3:hr>109</ns3:hr>
          </ns3:TrackPointExtension>
        </extensions>
      </trkpt>
      <trkpt lat="36.8503357283771038055419921875" lon="-118.5343612544238567352294921875">
        <ele>2052.800048828125</ele>
        <time>2021-06-28T16:26:39.000Z</time>
        <extensions>
          <ns3:TrackPointExtension>
            <ns3:atemp>32.0</ns3:atemp>
            <ns3:hr>109</ns3:hr>
          </ns3:TrackPointExtension>
        </extensions>
      </trkpt>
      <trkpt lat="36.8503089062869548797607421875" lon="-118.53436217643320560455322265625">
        <ele>2052.39990234375</ele>
        <time>2021-06-28T16:26:43.000Z</time>
        <extensions>
          <ns3:TrackPointExtension>
            <ns3:atemp>32.0</ns3:atemp>
            <ns3:hr>108</ns3:hr>
          </ns3:TrackPointExtension>
        </extensions>
      </trkpt>
      <trkpt lat="36.85028367675840854644775390625" lon="-118.5343547165393829345703125">
        <ele>2051.60009765625</ele>
        <time>2021-06-28T16:26:46.000Z</time>
        <extensions>
          <ns3:TrackPointExtension>
            <ns3:atemp>32.0</ns3:atemp>
            <ns3:hr>107</ns3:hr>
          </ns3:TrackPointExtension>
        </extensions>
      </trkpt>
      <trkpt lat="36.85023791156709194183349609375" lon="-118.5343592427670955657958984375">
        <ele>2051</ele>
        <time>2021-06-28T16:26:50.000Z</time>
        <extensions>
          <ns3:TrackPointExtension>
            <ns3:atemp>32.0</ns3:atemp>
            <ns3:hr>107</ns3:hr>
          </ns3:TrackPointExtension>
        </extensions>
      </trkpt>
      <trkpt lat="36.85022902674973011016845703125" lon="-118.53436720557510852813720703125">
        <ele>2050.60009765625</ele>
        <time>2021-06-28T16:26:52.000Z</time>
        <extensions>
          <ns3:TrackPointExtension>
            <ns3:atemp>32.0</ns3:atemp>
            <ns3:hr>105</ns3:hr>
          </ns3:TrackPointExtension>
        </extensions>
      </trkpt>
      <trkpt lat="36.850174963474273681640625" lon="-118.53441171348094940185546875">
        <ele>2050.199951171875</ele>
        <time>2021-06-28T16:26:55.000Z</time>
        <extensions>
          <ns3:TrackPointExtension>
            <ns3:atemp>32.0</ns3:atemp>
            <ns3:hr>103</ns3:hr>
          </ns3:TrackPointExtension>
        </extensions>
      </trkpt>
      <trkpt lat="36.8501701019704341888427734375" lon="-118.53442269377410411834716796875">
        <ele>2050</ele>
        <time>2021-06-28T16:26:57.000Z</time>
        <extensions>
          <ns3:TrackPointExtension>
            <ns3:atemp>32.0</ns3:atemp>
            <ns3:hr>102</ns3:hr>
          </ns3:TrackPointExtension>
        </extensions>
      </trkpt>
      <trkpt lat="36.8501030467450618743896484375" lon="-118.5343917645514011383056640625">
        <ele>2049.60009765625</ele>
        <time>2021-06-28T16:27:01.000Z</time>
        <extensions>
          <ns3:TrackPointExtension>
            <ns3:atemp>32.0</ns3:atemp>
            <ns3:hr>100</ns3:hr>
          </ns3:TrackPointExtension>
        </extensions>
      </trkpt>
      <trkpt lat="36.8500477261841297149658203125" lon="-118.53438665159046649932861328125">
        <ele>2049.60009765625</ele>
        <time>2021-06-28T16:27:04.000Z</time>
        <extensions>
          <ns3:TrackPointExtension>
            <ns3:atemp>32.0</ns3:atemp>
            <ns3:hr>99</ns3:hr>
          </ns3:TrackPointExtension>
        </extensions>
      </trkpt>
      <trkpt lat="36.85003892518579959869384765625" lon="-118.53439159691333770751953125">
        <ele>2049.199951171875</ele>
        <time>2021-06-28T16:27:05.000Z</time>
        <extensions>
          <ns3:TrackPointExtension>
            <ns3:atemp>32.0</ns3:atemp>
            <ns3:hr>100</ns3:hr>
          </ns3:TrackPointExtension>
        </extensions>
      </trkpt>
      <trkpt lat="36.8499984405934810638427734375" lon="-118.534381873905658721923828125">
        <ele>2049</ele>
        <time>2021-06-28T16:27:09.000Z</time>
        <extensions>
          <ns3:TrackPointExtension>
            <ns3:atemp>32.0</ns3:atemp>
            <ns3:hr>97</ns3:hr>
          </ns3:TrackPointExtension>
        </extensions>
      </trkpt>
      <trkpt lat="36.84999064542353153228759765625" lon="-118.53438849560916423797607421875">
        <ele>2049</ele>
        <time>2021-06-28T16:27:10.000Z</time>
        <extensions>
          <ns3:TrackPointExtension>
            <ns3:atemp>32.0</ns3:atemp>
            <ns3:hr>96</ns3:hr>
          </ns3:TrackPointExtension>
        </extensions>
      </trkpt>
      <trkpt lat="36.8499843589961528778076171875" lon="-118.53439687751233577728271484375">
        <ele>2049</ele>
        <time>2021-06-28T16:27:11.000Z</time>
        <extensions>
          <ns3:TrackPointExtension>
            <ns3:atemp>32.0</ns3:atemp>
            <ns3:hr>95</ns3:hr>
          </ns3:TrackPointExtension>
        </extensions>
      </trkpt>
      <trkpt lat="36.8499548546969890594482421875" lon="-118.53443308733403682708740234375">
        <ele>2048.60009765625</ele>
        <time>2021-06-28T16:27:14.000Z</time>
        <extensions>
          <ns3:TrackPointExtension>
            <ns3:atemp>32.0</ns3:atemp>
            <ns3:hr>92</ns3:hr>
          </ns3:TrackPointExtension>
        </extensions>
      </trkpt>
      <trkpt lat="36.84992610476911067962646484375" lon="-118.534484468400478363037109375">
        <ele>2048.800048828125</ele>
        <time>2021-06-28T16:27:19.000Z</time>
        <extensions>
          <ns3:TrackPointExtension>
            <ns3:atemp>32.0</ns3:atemp>
            <ns3:hr>90</ns3:hr>
          </ns3:TrackPointExtension>
        </extensions>
      </trkpt>
      <trkpt lat="36.8498968519270420074462890625" lon="-118.5344987176358699798583984375">
        <ele>2048.800048828125</ele>
        <time>2021-06-28T16:27:21.000Z</time>
        <extensions>
          <ns3:TrackPointExtension>
            <ns3:atemp>32.0</ns3:atemp>
            <ns3:hr>91</ns3:hr>
          </ns3:TrackPointExtension>
        </extensions>
      </trkpt>
      <trkpt lat="36.84985904954373836517333984375" lon="-118.53450550697743892669677734375">
        <ele>2049</ele>
        <time>2021-06-28T16:27:24.000Z</time>
        <extensions>
          <ns3:TrackPointExtension>
            <ns3:atemp>32.0</ns3:atemp>
            <ns3:hr>94</ns3:hr>
          </ns3:TrackPointExtension>
        </extensions>
      </trkpt>
      <trkpt lat="36.84984580613672733306884765625" lon="-118.5345076024532318115234375">
        <ele>2049</ele>
        <time>2021-06-28T16:27:25.000Z</time>
        <extensions>
          <ns3:TrackPointExtension>
            <ns3:atemp>32.0</ns3:atemp>
            <ns3:hr>95</ns3:hr>
          </ns3:TrackPointExtension>
        </extensions>
      </trkpt>
      <trkpt lat="36.84984580613672733306884765625" lon="-118.5345076024532318115234375">
        <ele>2049</ele>
        <time>2021-06-28T16:27:26.000Z</time>
        <extensions>
          <ns3:TrackPointExtension>
            <ns3:atemp>32.0</ns3:atemp>
            <ns3:hr>97</ns3:hr>
          </ns3:TrackPointExtension>
        </extensions>
      </trkpt>
      <trkpt lat="36.84981009922921657562255859375" lon="-118.5345084406435489654541015625">
        <ele>2048.60009765625</ele>
        <time>2021-06-28T16:27:29.000Z</time>
        <extensions>
          <ns3:TrackPointExtension>
            <ns3:atemp>32.0</ns3:atemp>
            <ns3:hr>98</ns3:hr>
          </ns3:TrackPointExtension>
        </extensions>
      </trkpt>
      <trkpt lat="36.84981009922921657562255859375" lon="-118.5345084406435489654541015625">
        <ele>2048.199951171875</ele>
        <time>2021-06-28T16:27:30.000Z</time>
        <extensions>
          <ns3:TrackPointExtension>
            <ns3:atemp>32.0</ns3:atemp>
            <ns3:hr>98</ns3:hr>
          </ns3:TrackPointExtension>
        </extensions>
      </trkpt>
      <trkpt lat="36.8497979454696178436279296875" lon="-118.53452042676508426666259765625">
        <ele>2048</ele>
        <time>2021-06-28T16:27:32.000Z</time>
        <extensions>
          <ns3:TrackPointExtension>
            <ns3:atemp>32.0</ns3:atemp>
            <ns3:hr>97</ns3:hr>
          </ns3:TrackPointExtension>
        </extensions>
      </trkpt>
      <trkpt lat="36.84976835735142230987548828125" lon="-118.53454607538878917694091796875">
        <ele>2047.199951171875</ele>
        <time>2021-06-28T16:27:36.000Z</time>
        <extensions>
          <ns3:TrackPointExtension>
            <ns3:atemp>32.0</ns3:atemp>
            <ns3:hr>97</ns3:hr>
          </ns3:TrackPointExtension>
        </extensions>
      </trkpt>
      <trkpt lat="36.84974740259349346160888671875" lon="-118.53455881588160991668701171875">
        <ele>2046</ele>
        <time>2021-06-28T16:27:40.000Z</time>
        <extensions>
          <ns3:TrackPointExtension>
            <ns3:atemp>32.0</ns3:atemp>
            <ns3:hr>95</ns3:hr>
          </ns3:TrackPointExtension>
        </extensions>
      </trkpt>
      <trkpt lat="36.8497364223003387451171875" lon="-118.5345580615103244781494140625">
        <ele>2046</ele>
        <time>2021-06-28T16:27:41.000Z</time>
        <extensions>
          <ns3:TrackPointExtension>
            <ns3:atemp>32.0</ns3:atemp>
            <ns3:hr>95</ns3:hr>
          </ns3:TrackPointExtension>
        </extensions>
      </trkpt>
      <trkpt lat="36.84971270151436328887939453125" lon="-118.53456099517643451690673828125">
        <ele>2045.5999755859375</ele>
        <time>2021-06-28T16:27:42.000Z</time>
        <extensions>
          <ns3:TrackPointExtension>
            <ns3:atemp>32.0</ns3:atemp>
            <ns3:hr>94</ns3:hr>
          </ns3:TrackPointExtension>
        </extensions>
      </trkpt>
      <trkpt lat="36.84964128769934177398681640625" lon="-118.5345858894288539886474609375">
        <ele>2045.199951171875</ele>
        <time>2021-06-28T16:27:48.000Z</time>
        <extensions>
          <ns3:TrackPointExtension>
            <ns3:atemp>32.0</ns3:atemp>
            <ns3:hr>91</ns3:hr>
          </ns3:TrackPointExtension>
        </extensions>
      </trkpt>
      <trkpt lat="36.84959049336612224578857421875" lon="-118.53459703736007213592529296875">
        <ele>2045.199951171875</ele>
        <time>2021-06-28T16:27:53.000Z</time>
        <extensions>
          <ns3:TrackPointExtension>
            <ns3:atemp>32.0</ns3:atemp>
            <ns3:hr>93</ns3:hr>
          </ns3:TrackPointExtension>
        </extensions>
      </trkpt>
      <trkpt lat="36.849504075944423675537109375" lon="-118.53462637402117252349853515625">
        <ele>2045.199951171875</ele>
        <time>2021-06-28T16:27:58.000Z</time>
        <extensions>
          <ns3:TrackPointExtension>
            <ns3:atemp>32.0</ns3:atemp>
            <ns3:hr>96</ns3:hr>
          </ns3:TrackPointExtension>
        </extensions>
      </trkpt>
      <trkpt lat="36.84949309565126895904541015625" lon="-118.53462092578411102294921875">
        <ele>2045</ele>
        <time>2021-06-28T16:28:00.000Z</time>
        <extensions>
          <ns3:TrackPointExtension>
            <ns3:atemp>32.0</ns3:atemp>
            <ns3:hr>97</ns3:hr>
          </ns3:TrackPointExtension>
        </extensions>
      </trkpt>
      <trkpt lat="36.8494710512459278106689453125" lon="-118.534618578851222991943359375">
        <ele>2045</ele>
        <time>2021-06-28T16:28:02.000Z</time>
        <extensions>
          <ns3:TrackPointExtension>
            <ns3:atemp>32.0</ns3:atemp>
            <ns3:hr>99</ns3:hr>
          </ns3:TrackPointExtension>
        </extensions>
      </trkpt>
      <trkpt lat="36.8494333326816558837890625" lon="-118.53463836014270782470703125">
        <ele>2045</ele>
        <time>2021-06-28T16:28:04.000Z</time>
        <extensions>
          <ns3:TrackPointExtension>
            <ns3:atemp>32.0</ns3:atemp>
            <ns3:hr>101</ns3:hr>
          </ns3:TrackPointExtension>
        </extensions>
      </trkpt>
      <trkpt lat="36.849423944950103759765625" lon="-118.5346443951129913330078125">
        <ele>2045</ele>
        <time>2021-06-28T16:28:06.000Z</time>
        <extensions>
          <ns3:TrackPointExtension>
            <ns3:atemp>32.0</ns3:atemp>
            <ns3:hr>102</ns3:hr>
          </ns3:TrackPointExtension>
        </extensions>
      </trkpt>
      <trkpt lat="36.8493889085948467254638671875" lon="-118.5346207581460475921630859375">
        <ele>2045.199951171875</ele>
        <time>2021-06-28T16:28:08.000Z</time>
        <extensions>
          <ns3:TrackPointExtension>
            <ns3:atemp>32.0</ns3:atemp>
            <ns3:hr>101</ns3:hr>
          </ns3:TrackPointExtension>
        </extensions>
      </trkpt>
      <trkpt lat="36.84936954639852046966552734375" lon="-118.5345934331417083740234375">
        <ele>2045.199951171875</ele>
        <time>2021-06-28T16:28:10.000Z</time>
        <extensions>
          <ns3:TrackPointExtension>
            <ns3:atemp>32.0</ns3:atemp>
            <ns3:hr>101</ns3:hr>
          </ns3:TrackPointExtension>
        </extensions>
      </trkpt>
      <trkpt lat="36.84934289194643497467041015625" lon="-118.534579686820507049560546875">
        <ele>2045.5999755859375</ele>
        <time>2021-06-28T16:28:13.000Z</time>
        <extensions>
          <ns3:TrackPointExtension>
            <ns3:atemp>32.0</ns3:atemp>
            <ns3:hr>99</ns3:hr>
          </ns3:TrackPointExtension>
        </extensions>
      </trkpt>
      <trkpt lat="36.8493045866489410400390625" lon="-118.534619919955730438232421875">
        <ele>2045.800048828125</ele>
        <time>2021-06-28T16:28:19.000Z</time>
        <extensions>
          <ns3:TrackPointExtension>
            <ns3:atemp>32.0</ns3:atemp>
            <ns3:hr>96</ns3:hr>
          </ns3:TrackPointExtension>
        </extensions>
      </trkpt>
      <trkpt lat="36.84925639070570468902587890625" lon="-118.53462922386825084686279296875">
        <ele>2046.199951171875</ele>
        <time>2021-06-28T16:28:22.000Z</time>
        <extensions>
          <ns3:TrackPointExtension>
            <ns3:atemp>32.0</ns3:atemp>
            <ns3:hr>96</ns3:hr>
          </ns3:TrackPointExtension>
        </extensions>
      </trkpt>
      <trkpt lat="36.84924080036580562591552734375" lon="-118.53463743813335895538330078125">
        <ele>2047</ele>
        <time>2021-06-28T16:28:25.000Z</time>
        <extensions>
          <ns3:TrackPointExtension>
            <ns3:atemp>32.0</ns3:atemp>
            <ns3:hr>95</ns3:hr>
          </ns3:TrackPointExtension>
        </extensions>
      </trkpt>
      <trkpt lat="36.84914491139352321624755859375" lon="-118.5346536152064800262451171875">
        <ele>2047.5999755859375</ele>
        <time>2021-06-28T16:28:32.000Z</time>
        <extensions>
          <ns3:TrackPointExtension>
            <ns3:atemp>32.0</ns3:atemp>
            <ns3:hr>96</ns3:hr>
          </ns3:TrackPointExtension>
        </extensions>
      </trkpt>
      <trkpt lat="36.84905170463025569915771484375" lon="-118.5346740670502185821533203125">
        <ele>2048.199951171875</ele>
        <time>2021-06-28T16:28:38.000Z</time>
        <extensions>
          <ns3:TrackPointExtension>
            <ns3:atemp>32.0</ns3:atemp>
            <ns3:hr>96</ns3:hr>
          </ns3:TrackPointExtension>
        </extensions>
      </trkpt>
      <trkpt lat="36.84901893138885498046875" lon="-118.5346619971096515655517578125">
        <ele>2048.39990234375</ele>
        <time>2021-06-28T16:28:40.000Z</time>
        <extensions>
          <ns3:TrackPointExtension>
            <ns3:atemp>32.0</ns3:atemp>
            <ns3:hr>98</ns3:hr>
          </ns3:TrackPointExtension>
        </extensions>
      </trkpt>
      <trkpt lat="36.84894181787967681884765625" lon="-118.534669540822505950927734375">
        <ele>2048.39990234375</ele>
        <time>2021-06-28T16:28:46.000Z</time>
        <extensions>
          <ns3:TrackPointExtension>
            <ns3:atemp>32.0</ns3:atemp>
            <ns3:hr>100</ns3:hr>
          </ns3:TrackPointExtension>
        </extensions>
      </trkpt>
      <trkpt lat="36.8489282391965389251708984375" lon="-118.5347065888345241546630859375">
        <ele>2048.199951171875</ele>
        <time>2021-06-28T16:28:48.000Z</time>
        <extensions>
          <ns3:TrackPointExtension>
            <ns3:atemp>32.0</ns3:atemp>
            <ns3:hr>101</ns3:hr>
          </ns3:TrackPointExtension>
        </extensions>
      </trkpt>
      <trkpt lat="36.848907954990863800048828125" lon="-118.5347377695143222808837890625">
        <ele>2047.5999755859375</ele>
        <time>2021-06-28T16:28:50.000Z</time>
        <extensions>
          <ns3:TrackPointExtension>
            <ns3:atemp>32.0</ns3:atemp>
            <ns3:hr>101</ns3:hr>
          </ns3:TrackPointExtension>
        </extensions>
      </trkpt>
      <trkpt lat="36.84889278374612331390380859375" lon="-118.53478051722049713134765625">
        <ele>2047.800048828125</ele>
        <time>2021-06-28T16:28:54.000Z</time>
        <extensions>
          <ns3:TrackPointExtension>
            <ns3:atemp>32.0</ns3:atemp>
            <ns3:hr>103</ns3:hr>
          </ns3:TrackPointExtension>
        </extensions>
      </trkpt>
      <trkpt lat="36.84887945652008056640625" lon="-118.53481748141348361968994140625">
        <ele>2048</ele>
        <time>2021-06-28T16:28:56.000Z</time>
        <extensions>
          <ns3:TrackPointExtension>
            <ns3:atemp>32.0</ns3:atemp>
            <ns3:hr>104</ns3:hr>
          </ns3:TrackPointExtension>
        </extensions>
      </trkpt>
      <trkpt lat="36.8488524667918682098388671875" lon="-118.534868694841861724853515625">
        <ele>2048.199951171875</ele>
        <time>2021-06-28T16:29:00.000Z</time>
        <extensions>
          <ns3:TrackPointExtension>
            <ns3:atemp>32.0</ns3:atemp>
            <ns3:hr>105</ns3:hr>
          </ns3:TrackPointExtension>
        </extensions>
      </trkpt>
      <trkpt lat="36.84883830137550830841064453125" lon="-118.5349045693874359130859375">
        <ele>2048.199951171875</ele>
        <time>2021-06-28T16:29:03.000Z</time>
        <extensions>
          <ns3:TrackPointExtension>
            <ns3:atemp>32.0</ns3:atemp>
            <ns3:hr>107</ns3:hr>
          </ns3:TrackPointExtension>
        </extensions>
      </trkpt>
      <trkpt lat="36.8488152511417865753173828125" lon="-118.53493851609528064727783203125">
        <ele>2048.39990234375</ele>
        <time>2021-06-28T16:29:05.000Z</time>
        <extensions>
          <ns3:TrackPointExtension>
            <ns3:atemp>32.0</ns3:atemp>
            <ns3:hr>107</ns3:hr>
          </ns3:TrackPointExtension>
        </extensions>
      </trkpt>
      <trkpt lat="36.84879303909838199615478515625" lon="-118.534947820007801055908203125">
        <ele>2049</ele>
        <time>2021-06-28T16:29:08.000Z</time>
        <extensions>
          <ns3:TrackPointExtension>
            <ns3:atemp>32.0</ns3:atemp>
            <ns3:hr>105</ns3:hr>
          </ns3:TrackPointExtension>
        </extensions>
      </trkpt>
      <trkpt lat="36.848761104047298431396484375" lon="-118.5349647514522075653076171875">
        <ele>2049</ele>
        <time>2021-06-28T16:29:09.000Z</time>
        <extensions>
          <ns3:TrackPointExtension>
            <ns3:atemp>32.0</ns3:atemp>
            <ns3:hr>106</ns3:hr>
          </ns3:TrackPointExtension>
        </extensions>
      </trkpt>
      <trkpt lat="36.84874693863093852996826171875" lon="-118.53498243726789951324462890625">
        <ele>2049.199951171875</ele>
        <time>2021-06-28T16:29:11.000Z</time>
        <extensions>
          <ns3:TrackPointExtension>
            <ns3:atemp>32.0</ns3:atemp>
            <ns3:hr>105</ns3:hr>
          </ns3:TrackPointExtension>
        </extensions>
      </trkpt>
      <trkpt lat="36.84872464276850223541259765625" lon="-118.53501646779477596282958984375">
        <ele>2049.199951171875</ele>
        <time>2021-06-28T16:29:15.000Z</time>
        <extensions>
          <ns3:TrackPointExtension>
            <ns3:atemp>32.0</ns3:atemp>
            <ns3:hr>102</ns3:hr>
          </ns3:TrackPointExtension>
        </extensions>
      </trkpt>
      <trkpt lat="36.84868340380489826202392578125" lon="-118.5350613109767436981201171875">
        <ele>2049.199951171875</ele>
        <time>2021-06-28T16:29:18.000Z</time>
        <extensions>
          <ns3:TrackPointExtension>
            <ns3:atemp>32.0</ns3:atemp>
            <ns3:hr>105</ns3:hr>
          </ns3:TrackPointExtension>
        </extensions>
      </trkpt>
      <trkpt lat="36.848661862313747406005859375" lon="-118.53513482026755809783935546875">
        <ele>2048.199951171875</ele>
        <time>2021-06-28T16:29:23.000Z</time>
        <extensions>
          <ns3:TrackPointExtension>
            <ns3:atemp>32.0</ns3:atemp>
            <ns3:hr>102</ns3:hr>
          </ns3:TrackPointExtension>
        </extensions>
      </trkpt>
      <trkpt lat="36.84865482151508331298828125" lon="-118.5351618938148021697998046875">
        <ele>2048</ele>
        <time>2021-06-28T16:29:24.000Z</time>
        <extensions>
          <ns3:TrackPointExtension>
            <ns3:atemp>32.0</ns3:atemp>
            <ns3:hr>102</ns3:hr>
          </ns3:TrackPointExtension>
        </extensions>
      </trkpt>
      <trkpt lat="36.84864945709705352783203125" lon="-118.5351756401360034942626953125">
        <ele>2048</ele>
        <time>2021-06-28T16:29:25.000Z</time>
        <extensions>
          <ns3:TrackPointExtension>
            <ns3:atemp>32.0</ns3:atemp>
            <ns3:hr>101</ns3:hr>
          </ns3:TrackPointExtension>
        </extensions>
      </trkpt>
      <trkpt lat="36.8486419133841991424560546875" lon="-118.535185195505619049072265625">
        <ele>2047.5999755859375</ele>
        <time>2021-06-28T16:29:27.000Z</time>
        <extensions>
          <ns3:TrackPointExtension>
            <ns3:atemp>32.0</ns3:atemp>
            <ns3:hr>100</ns3:hr>
          </ns3:TrackPointExtension>
        </extensions>
      </trkpt>
      <trkpt lat="36.8486251495778560638427734375" lon="-118.5352105088531970977783203125">
        <ele>2047</ele>
        <time>2021-06-28T16:29:29.000Z</time>
        <extensions>
          <ns3:TrackPointExtension>
            <ns3:atemp>32.0</ns3:atemp>
            <ns3:hr>100</ns3:hr>
          </ns3:TrackPointExtension>
        </extensions>
      </trkpt>
      <trkpt lat="36.84860561974346637725830078125" lon="-118.53522978723049163818359375">
        <ele>2046.5999755859375</ele>
        <time>2021-06-28T16:29:31.000Z</time>
        <extensions>
          <ns3:TrackPointExtension>
            <ns3:atemp>32.0</ns3:atemp>
            <ns3:hr>100</ns3:hr>
          </ns3:TrackPointExtension>
        </extensions>
      </trkpt>
      <trkpt lat="36.8485778756439685821533203125" lon="-118.53524646721780300140380859375">
        <ele>2046.199951171875</ele>
        <time>2021-06-28T16:29:33.000Z</time>
        <extensions>
          <ns3:TrackPointExtension>
            <ns3:atemp>32.0</ns3:atemp>
            <ns3:hr>99</ns3:hr>
          </ns3:TrackPointExtension>
        </extensions>
      </trkpt>
      <trkpt lat="36.848540492355823516845703125" lon="-118.53526658378541469573974609375">
        <ele>2046</ele>
        <time>2021-06-28T16:29:36.000Z</time>
        <extensions>
          <ns3:TrackPointExtension>
            <ns3:atemp>32.0</ns3:atemp>
            <ns3:hr>98</ns3:hr>
          </ns3:TrackPointExtension>
        </extensions>
      </trkpt>
      <trkpt lat="36.8485051207244396209716796875" lon="-118.53528720326721668243408203125">
        <ele>2046</ele>
        <time>2021-06-28T16:29:37.000Z</time>
        <extensions>
          <ns3:TrackPointExtension>
            <ns3:atemp>32.0</ns3:atemp>
            <ns3:hr>98</ns3:hr>
          </ns3:TrackPointExtension>
        </extensions>
      </trkpt>
      <trkpt lat="36.84843479655683040618896484375" lon="-118.5353268496692180633544921875">
        <ele>2045.4000244140625</ele>
        <time>2021-06-28T16:29:42.000Z</time>
        <extensions>
          <ns3:TrackPointExtension>
            <ns3:atemp>32.0</ns3:atemp>
            <ns3:hr>95</ns3:hr>
          </ns3:TrackPointExtension>
        </extensions>
      </trkpt>
      <trkpt lat="36.84841719456017017364501953125" lon="-118.53533866815268993377685546875">
        <ele>2045.199951171875</ele>
        <time>2021-06-28T16:29:45.000Z</time>
        <extensions>
          <ns3:TrackPointExtension>
            <ns3:atemp>32.0</ns3:atemp>
            <ns3:hr>95</ns3:hr>
          </ns3:TrackPointExtension>
        </extensions>
      </trkpt>
      <trkpt lat="36.84839070774614810943603515625" lon="-118.5353436134755611419677734375">
        <ele>2045.199951171875</ele>
        <time>2021-06-28T16:29:47.000Z</time>
        <extensions>
          <ns3:TrackPointExtension>
            <ns3:atemp>32.0</ns3:atemp>
            <ns3:hr>93</ns3:hr>
          </ns3:TrackPointExtension>
        </extensions>
      </trkpt>
      <trkpt lat="36.84839070774614810943603515625" lon="-118.5353436134755611419677734375">
        <ele>2044.800048828125</ele>
        <time>2021-06-28T16:29:48.000Z</time>
        <extensions>
          <ns3:TrackPointExtension>
            <ns3:atemp>32.0</ns3:atemp>
            <ns3:hr>93</ns3:hr>
          </ns3:TrackPointExtension>
        </extensions>
      </trkpt>
      <trkpt lat="36.848374865949153900146484375" lon="-118.5353372432291507720947265625">
        <ele>2044.800048828125</ele>
        <time>2021-06-28T16:29:49.000Z</time>
        <extensions>
          <ns3:TrackPointExtension>
            <ns3:atemp>32.0</ns3:atemp>
            <ns3:hr>91</ns3:hr>
          </ns3:TrackPointExtension>
        </extensions>
      </trkpt>
      <trkpt lat="36.84835030697286128997802734375" lon="-118.5353117622435092926025390625">
        <ele>2044.800048828125</ele>
        <time>2021-06-28T16:29:50.000Z</time>
        <extensions>
          <ns3:TrackPointExtension>
            <ns3:atemp>32.0</ns3:atemp>
            <ns3:hr>91</ns3:hr>
          </ns3:TrackPointExtension>
        </extensions>
      </trkpt>
      <trkpt lat="36.84829565696418285369873046875" lon="-118.53532911278307437896728515625">
        <ele>2044.4000244140625</ele>
        <time>2021-06-28T16:29:55.000Z</time>
        <extensions>
          <ns3:TrackPointExtension>
            <ns3:atemp>32.0</ns3:atemp>
            <ns3:hr>91</ns3:hr>
          </ns3:TrackPointExtension>
        </extensions>
      </trkpt>
      <trkpt lat="36.8482674099504947662353515625" lon="-118.53533749468624591827392578125">
        <ele>2043.5999755859375</ele>
        <time>2021-06-28T16:29:57.000Z</time>
        <extensions>
          <ns3:TrackPointExtension>
            <ns3:atemp>32.0</ns3:atemp>
            <ns3:hr>94</ns3:hr>
          </ns3:TrackPointExtension>
        </extensions>
      </trkpt>
      <trkpt lat="36.8482674099504947662353515625" lon="-118.53533749468624591827392578125">
        <ele>2043.4000244140625</ele>
        <time>2021-06-28T16:29:58.000Z</time>
        <extensions>
          <ns3:TrackPointExtension>
            <ns3:atemp>32.0</ns3:atemp>
            <ns3:hr>91</ns3:hr>
          </ns3:TrackPointExtension>
        </extensions>
      </trkpt>
      <trkpt lat="36.8482482992112636566162109375" lon="-118.5353449545800685882568359375">
        <ele>2043.4000244140625</ele>
        <time>2021-06-28T16:29:59.000Z</time>
        <extensions>
          <ns3:TrackPointExtension>
            <ns3:atemp>32.0</ns3:atemp>
            <ns3:hr>92</ns3:hr>
          </ns3:TrackPointExtension>
        </extensions>
      </trkpt>
      <trkpt lat="36.84823849238455295562744140625" lon="-118.53535006754100322723388671875">
        <ele>2043.199951171875</ele>
        <time>2021-06-28T16:30:00.000Z</time>
        <extensions>
          <ns3:TrackPointExtension>
            <ns3:atemp>32.0</ns3:atemp>
            <ns3:hr>93</ns3:hr>
          </ns3:TrackPointExtension>
        </extensions>
      </trkpt>
      <trkpt lat="36.84817646630108356475830078125" lon="-118.5353587009012699127197265625">
        <ele>2042.199951171875</ele>
        <time>2021-06-28T16:30:05.000Z</time>
        <extensions>
          <ns3:TrackPointExtension>
            <ns3:atemp>32.0</ns3:atemp>
            <ns3:hr>93</ns3:hr>
          </ns3:TrackPointExtension>
        </extensions>
      </trkpt>
      <trkpt lat="36.84816305525600910186767578125" lon="-118.53536431677639484405517578125">
        <ele>2042.199951171875</ele>
        <time>2021-06-28T16:30:06.000Z</time>
        <extensions>
          <ns3:TrackPointExtension>
            <ns3:atemp>32.0</ns3:atemp>
            <ns3:hr>93</ns3:hr>
          </ns3:TrackPointExtension>
        </extensions>
      </trkpt>
      <trkpt lat="36.848132126033306121826171875" lon="-118.53536666370928287506103515625">
        <ele>2042</ele>
        <time>2021-06-28T16:30:08.000Z</time>
        <extensions>
          <ns3:TrackPointExtension>
            <ns3:atemp>32.0</ns3:atemp>
            <ns3:hr>93</ns3:hr>
          </ns3:TrackPointExtension>
        </extensions>
      </trkpt>
      <trkpt lat="36.848081164062023162841796875" lon="-118.53534386493265628814697265625">
        <ele>2041.199951171875</ele>
        <time>2021-06-28T16:30:12.000Z</time>
        <extensions>
          <ns3:TrackPointExtension>
            <ns3:atemp>32.0</ns3:atemp>
            <ns3:hr>92</ns3:hr>
          </ns3:TrackPointExtension>
        </extensions>
      </trkpt>
      <trkpt lat="36.84806071221828460693359375" lon="-118.535356186330318450927734375">
        <ele>2041.199951171875</ele>
        <time>2021-06-28T16:30:13.000Z</time>
        <extensions>
          <ns3:TrackPointExtension>
            <ns3:atemp>32.0</ns3:atemp>
            <ns3:hr>92</ns3:hr>
          </ns3:TrackPointExtension>
        </extensions>
      </trkpt>
      <trkpt lat="36.8480474688112735748291015625" lon="-118.53536121547222137451171875">
        <ele>2041</ele>
        <time>2021-06-28T16:30:15.000Z</time>
        <extensions>
          <ns3:TrackPointExtension>
            <ns3:atemp>32.0</ns3:atemp>
            <ns3:hr>92</ns3:hr>
          </ns3:TrackPointExtension>
        </extensions>
      </trkpt>
      <trkpt lat="36.84802341274917125701904296875" lon="-118.5353704355657100677490234375">
        <ele>2040.800048828125</ele>
        <time>2021-06-28T16:30:16.000Z</time>
        <extensions>
          <ns3:TrackPointExtension>
            <ns3:atemp>32.0</ns3:atemp>
            <ns3:hr>93</ns3:hr>
          </ns3:TrackPointExtension>
        </extensions>
      </trkpt>
      <trkpt lat="36.8480035476386547088623046875" lon="-118.5353764705359935760498046875">
        <ele>2040.4000244140625</ele>
        <time>2021-06-28T16:30:18.000Z</time>
        <extensions>
          <ns3:TrackPointExtension>
            <ns3:atemp>32.0</ns3:atemp>
            <ns3:hr>93</ns3:hr>
          </ns3:TrackPointExtension>
        </extensions>
      </trkpt>
      <trkpt lat="36.84798250906169414520263671875" lon="-118.53538242168724536895751953125">
        <ele>2040.199951171875</ele>
        <time>2021-06-28T16:30:21.000Z</time>
        <extensions>
          <ns3:TrackPointExtension>
            <ns3:atemp>32.0</ns3:atemp>
            <ns3:hr>92</ns3:hr>
          </ns3:TrackPointExtension>
        </extensions>
      </trkpt>
      <trkpt lat="36.84796490706503391265869140625" lon="-118.5353922285139560699462890625">
        <ele>2040</ele>
        <time>2021-06-28T16:30:22.000Z</time>
        <extensions>
          <ns3:TrackPointExtension>
            <ns3:atemp>32.0</ns3:atemp>
            <ns3:hr>92</ns3:hr>
          </ns3:TrackPointExtension>
        </extensions>
      </trkpt>
      <trkpt lat="36.84796490706503391265869140625" lon="-118.5353922285139560699462890625">
        <ele>2039.800048828125</ele>
        <time>2021-06-28T16:30:23.000Z</time>
        <extensions>
          <ns3:TrackPointExtension>
            <ns3:atemp>32.0</ns3:atemp>
            <ns3:hr>95</ns3:hr>
          </ns3:TrackPointExtension>
        </extensions>
      </trkpt>
      <trkpt lat="36.8479556031525135040283203125" lon="-118.53539046831429004669189453125">
        <ele>2039.800048828125</ele>
        <time>2021-06-28T16:30:24.000Z</time>
        <extensions>
          <ns3:TrackPointExtension>
            <ns3:atemp>32.0</ns3:atemp>
            <ns3:hr>93</ns3:hr>
          </ns3:TrackPointExtension>
        </extensions>
      </trkpt>
      <trkpt lat="36.84792551212012767791748046875" lon="-118.53542835451662540435791015625">
        <ele>2039.5999755859375</ele>
        <time>2021-06-28T16:30:28.000Z</time>
        <extensions>
          <ns3:TrackPointExtension>
            <ns3:atemp>32.0</ns3:atemp>
            <ns3:hr>93</ns3:hr>
          </ns3:TrackPointExtension>
        </extensions>
      </trkpt>
      <trkpt lat="36.84790321625769138336181640625" lon="-118.53551384992897510528564453125">
        <ele>2039</ele>
        <time>2021-06-28T16:30:33.000Z</time>
        <extensions>
          <ns3:TrackPointExtension>
            <ns3:atemp>32.0</ns3:atemp>
            <ns3:hr>96</ns3:hr>
          </ns3:TrackPointExtension>
        </extensions>
      </trkpt>
      <trkpt lat="36.8478965945541858673095703125" lon="-118.53556833229959011077880859375">
        <ele>2038.4000244140625</ele>
        <time>2021-06-28T16:30:36.000Z</time>
        <extensions>
          <ns3:TrackPointExtension>
            <ns3:atemp>32.0</ns3:atemp>
            <ns3:hr>99</ns3:hr>
          </ns3:TrackPointExtension>
        </extensions>
      </trkpt>
      <trkpt lat="36.8478763103485107421875" lon="-118.53560303337872028350830078125">
        <ele>2037.800048828125</ele>
        <time>2021-06-28T16:30:39.000Z</time>
        <extensions>
          <ns3:TrackPointExtension>
            <ns3:atemp>32.0</ns3:atemp>
            <ns3:hr>99</ns3:hr>
          </ns3:TrackPointExtension>
        </extensions>
      </trkpt>
      <trkpt lat="36.8478342331945896148681640625" lon="-118.53563211858272552490234375">
        <ele>2037.4000244140625</ele>
        <time>2021-06-28T16:30:43.000Z</time>
        <extensions>
          <ns3:TrackPointExtension>
            <ns3:atemp>32.0</ns3:atemp>
            <ns3:hr>99</ns3:hr>
          </ns3:TrackPointExtension>
        </extensions>
      </trkpt>
      <trkpt lat="36.84782844968140125274658203125" lon="-118.535644523799419403076171875">
        <ele>2037.199951171875</ele>
        <time>2021-06-28T16:30:45.000Z</time>
        <extensions>
          <ns3:TrackPointExtension>
            <ns3:atemp>32.0</ns3:atemp>
            <ns3:hr>97</ns3:hr>
          </ns3:TrackPointExtension>
        </extensions>
      </trkpt>
      <trkpt lat="36.847814954817295074462890625" lon="-118.535666652023792266845703125">
        <ele>2037.199951171875</ele>
        <time>2021-06-28T16:30:47.000Z</time>
        <extensions>
          <ns3:TrackPointExtension>
            <ns3:atemp>32.0</ns3:atemp>
            <ns3:hr>94</ns3:hr>
          </ns3:TrackPointExtension>
        </extensions>
      </trkpt>
      <trkpt lat="36.8477849476039409637451171875" lon="-118.53568098507821559906005859375">
        <ele>2037.199951171875</ele>
        <time>2021-06-28T16:30:49.000Z</time>
        <extensions>
          <ns3:TrackPointExtension>
            <ns3:atemp>32.0</ns3:atemp>
            <ns3:hr>91</ns3:hr>
          </ns3:TrackPointExtension>
        </extensions>
      </trkpt>
      <trkpt lat="36.84772233478724956512451171875" lon="-118.53567662648856639862060546875">
        <ele>2036.5999755859375</ele>
        <time>2021-06-28T16:30:55.000Z</time>
        <extensions>
          <ns3:TrackPointExtension>
            <ns3:atemp>32.0</ns3:atemp>
            <ns3:hr>90</ns3:hr>
          </ns3:TrackPointExtension>
        </extensions>
      </trkpt>
      <trkpt lat="36.84769484214484691619873046875" lon="-118.53568182326853275299072265625">
        <ele>2036.5999755859375</ele>
        <time>2021-06-28T16:30:57.000Z</time>
        <extensions>
          <ns3:TrackPointExtension>
            <ns3:atemp>32.0</ns3:atemp>
            <ns3:hr>89</ns3:hr>
          </ns3:TrackPointExtension>
        </extensions>
      </trkpt>
      <trkpt lat="36.84766969643533229827880859375" lon="-118.535700850188732147216796875">
        <ele>2036.4000244140625</ele>
        <time>2021-06-28T16:30:59.000Z</time>
        <extensions>
          <ns3:TrackPointExtension>
            <ns3:atemp>32.0</ns3:atemp>
            <ns3:hr>89</ns3:hr>
          </ns3:TrackPointExtension>
        </extensions>
      </trkpt>
      <trkpt lat="36.84760716743767261505126953125" lon="-118.53570596314966678619384765625">
        <ele>2035.5999755859375</ele>
        <time>2021-06-28T16:31:04.000Z</time>
        <extensions>
          <ns3:TrackPointExtension>
            <ns3:atemp>32.0</ns3:atemp>
            <ns3:hr>89</ns3:hr>
          </ns3:TrackPointExtension>
        </extensions>
      </trkpt>
      <trkpt lat="36.8475120328366756439208984375" lon="-118.5357318632304668426513671875">
        <ele>2035.4000244140625</ele>
        <time>2021-06-28T16:31:07.000Z</time>
        <extensions>
          <ns3:TrackPointExtension>
            <ns3:atemp>32.0</ns3:atemp>
            <ns3:hr>88</ns3:hr>
          </ns3:TrackPointExtension>
        </extensions>
      </trkpt>
      <trkpt lat="36.847495101392269134521484375" lon="-118.53574954904615879058837890625">
        <ele>2035.199951171875</ele>
        <time>2021-06-28T16:31:08.000Z</time>
        <extensions>
          <ns3:TrackPointExtension>
            <ns3:atemp>32.0</ns3:atemp>
            <ns3:hr>88</ns3:hr>
          </ns3:TrackPointExtension>
        </extensions>
      </trkpt>
      <trkpt lat="36.84747322462499141693115234375" lon="-118.535778634250164031982421875">
        <ele>2035</ele>
        <time>2021-06-28T16:31:10.000Z</time>
        <extensions>
          <ns3:TrackPointExtension>
            <ns3:atemp>32.0</ns3:atemp>
            <ns3:hr>89</ns3:hr>
          </ns3:TrackPointExtension>
        </extensions>
      </trkpt>
      <trkpt lat="36.84745059348642826080322265625" lon="-118.5357972420752048492431640625">
        <ele>2034.800048828125</ele>
        <time>2021-06-28T16:31:13.000Z</time>
        <extensions>
          <ns3:TrackPointExtension>
            <ns3:atemp>32.0</ns3:atemp>
            <ns3:hr>88</ns3:hr>
          </ns3:TrackPointExtension>
        </extensions>
      </trkpt>
      <trkpt lat="36.8474010564386844635009765625" lon="-118.5358190350234508514404296875">
        <ele>2034.800048828125</ele>
        <time>2021-06-28T16:31:17.000Z</time>
        <extensions>
          <ns3:TrackPointExtension>
            <ns3:atemp>32.0</ns3:atemp>
            <ns3:hr>91</ns3:hr>
          </ns3:TrackPointExtension>
        </extensions>
      </trkpt>
      <trkpt lat="36.84738990850746631622314453125" lon="-118.5358300991356372833251953125">
        <ele>2034.5999755859375</ele>
        <time>2021-06-28T16:31:18.000Z</time>
        <extensions>
          <ns3:TrackPointExtension>
            <ns3:atemp>32.0</ns3:atemp>
            <ns3:hr>89</ns3:hr>
          </ns3:TrackPointExtension>
        </extensions>
      </trkpt>
      <trkpt lat="36.8473490886390209197998046875" lon="-118.53584510274231433868408203125">
        <ele>2034.800048828125</ele>
        <time>2021-06-28T16:31:20.000Z</time>
        <extensions>
          <ns3:TrackPointExtension>
            <ns3:atemp>32.0</ns3:atemp>
            <ns3:hr>89</ns3:hr>
          </ns3:TrackPointExtension>
        </extensions>
      </trkpt>
      <trkpt lat="36.84733559377491474151611328125" lon="-118.5358461923897266387939453125">
        <ele>2034.5999755859375</ele>
        <time>2021-06-28T16:31:22.000Z</time>
        <extensions>
          <ns3:TrackPointExtension>
            <ns3:atemp>32.0</ns3:atemp>
            <ns3:hr>86</ns3:hr>
          </ns3:TrackPointExtension>
        </extensions>
      </trkpt>
      <trkpt lat="36.84732042253017425537109375" lon="-118.53588030673563480377197265625">
        <ele>2034.5999755859375</ele>
        <time>2021-06-28T16:31:23.000Z</time>
        <extensions>
          <ns3:TrackPointExtension>
            <ns3:atemp>32.0</ns3:atemp>
            <ns3:hr>89</ns3:hr>
          </ns3:TrackPointExtension>
        </extensions>
      </trkpt>
      <trkpt lat="36.8473038263618946075439453125" lon="-118.5359142534434795379638671875">
        <ele>2034.5999755859375</ele>
        <time>2021-06-28T16:31:25.000Z</time>
        <extensions>
          <ns3:TrackPointExtension>
            <ns3:atemp>32.0</ns3:atemp>
            <ns3:hr>90</ns3:hr>
          </ns3:TrackPointExtension>
        </extensions>
      </trkpt>
      <trkpt lat="36.84729083441197872161865234375" lon="-118.53597049601376056671142578125">
        <ele>2034.5999755859375</ele>
        <time>2021-06-28T16:31:28.000Z</time>
        <extensions>
          <ns3:TrackPointExtension>
            <ns3:atemp>32.0</ns3:atemp>
            <ns3:hr>91</ns3:hr>
          </ns3:TrackPointExtension>
        </extensions>
      </trkpt>
      <trkpt lat="36.8472642637789249420166015625" lon="-118.53600368835031986236572265625">
        <ele>2034.4000244140625</ele>
        <time>2021-06-28T16:31:32.000Z</time>
        <extensions>
          <ns3:TrackPointExtension>
            <ns3:atemp>32.0</ns3:atemp>
            <ns3:hr>88</ns3:hr>
          </ns3:TrackPointExtension>
        </extensions>
      </trkpt>
      <trkpt lat="36.84724993072450160980224609375" lon="-118.5360238887369632720947265625">
        <ele>2034.199951171875</ele>
        <time>2021-06-28T16:31:34.000Z</time>
        <extensions>
          <ns3:TrackPointExtension>
            <ns3:atemp>32.0</ns3:atemp>
            <ns3:hr>87</ns3:hr>
          </ns3:TrackPointExtension>
        </extensions>
      </trkpt>
      <trkpt lat="36.84723903425037860870361328125" lon="-118.5360500402748584747314453125">
        <ele>2034</ele>
        <time>2021-06-28T16:31:36.000Z</time>
        <extensions>
          <ns3:TrackPointExtension>
            <ns3:atemp>32.0</ns3:atemp>
            <ns3:hr>85</ns3:hr>
          </ns3:TrackPointExtension>
        </extensions>
      </trkpt>
      <trkpt lat="36.84723584912717342376708984375" lon="-118.5360778681933879852294921875">
        <ele>2034</ele>
        <time>2021-06-28T16:31:37.000Z</time>
        <extensions>
          <ns3:TrackPointExtension>
            <ns3:atemp>32.0</ns3:atemp>
            <ns3:hr>85</ns3:hr>
          </ns3:TrackPointExtension>
        </extensions>
      </trkpt>
      <trkpt lat="36.847167871892452239990234375" lon="-118.53613427840173244476318359375">
        <ele>2034.199951171875</ele>
        <time>2021-06-28T16:31:45.000Z</time>
        <extensions>
          <ns3:TrackPointExtension>
            <ns3:atemp>32.0</ns3:atemp>
            <ns3:hr>85</ns3:hr>
          </ns3:TrackPointExtension>
        </extensions>
      </trkpt>
      <trkpt lat="36.84709033928811550140380859375" lon="-118.53610360063612461090087890625">
        <ele>2034.199951171875</ele>
        <time>2021-06-28T16:31:51.000Z</time>
        <extensions>
          <ns3:TrackPointExtension>
            <ns3:atemp>32.0</ns3:atemp>
            <ns3:hr>82</ns3:hr>
          </ns3:TrackPointExtension>
        </extensions>
      </trkpt>
      <trkpt lat="36.84709033928811550140380859375" lon="-118.53610360063612461090087890625">
        <ele>2034.199951171875</ele>
        <time>2021-06-28T16:31:52.000Z</time>
        <extensions>
          <ns3:TrackPointExtension>
            <ns3:atemp>32.0</ns3:atemp>
            <ns3:hr>82</ns3:hr>
          </ns3:TrackPointExtension>
        </extensions>
      </trkpt>
      <trkpt lat="36.84700702317059040069580078125" lon="-118.53599865920841693878173828125">
        <ele>2034.800048828125</ele>
        <time>2021-06-28T16:32:00.000Z</time>
        <extensions>
          <ns3:TrackPointExtension>
            <ns3:atemp>32.0</ns3:atemp>
            <ns3:hr>82</ns3:hr>
          </ns3:TrackPointExtension>
        </extensions>
      </trkpt>
      <trkpt lat="36.84698137454688549041748046875" lon="-118.53599681518971920013427734375">
        <ele>2034.800048828125</ele>
        <time>2021-06-28T16:32:02.000Z</time>
        <extensions>
          <ns3:TrackPointExtension>
            <ns3:atemp>32.0</ns3:atemp>
            <ns3:hr>84</ns3:hr>
          </ns3:TrackPointExtension>
        </extensions>
      </trkpt>
      <trkpt lat="36.84693745337426662445068359375" lon="-118.53601676411926746368408203125">
        <ele>2034.800048828125</ele>
        <time>2021-06-28T16:32:05.000Z</time>
        <extensions>
          <ns3:TrackPointExtension>
            <ns3:atemp>32.0</ns3:atemp>
            <ns3:hr>85</ns3:hr>
          </ns3:TrackPointExtension>
        </extensions>
      </trkpt>
      <trkpt lat="36.846896968781948089599609375" lon="-118.53605926036834716796875">
        <ele>2034.800048828125</ele>
        <time>2021-06-28T16:32:08.000Z</time>
        <extensions>
          <ns3:TrackPointExtension>
            <ns3:atemp>32.0</ns3:atemp>
            <ns3:hr>88</ns3:hr>
          </ns3:TrackPointExtension>
        </extensions>
      </trkpt>
      <trkpt lat="36.8468843959271907806396484375" lon="-118.53606688790023326873779296875">
        <ele>2034.800048828125</ele>
        <time>2021-06-28T16:32:09.000Z</time>
        <extensions>
          <ns3:TrackPointExtension>
            <ns3:atemp>32.0</ns3:atemp>
            <ns3:hr>89</ns3:hr>
          </ns3:TrackPointExtension>
        </extensions>
      </trkpt>
      <trkpt lat="36.84679043479263782501220703125" lon="-118.5360661335289478302001953125">
        <ele>2034.800048828125</ele>
        <time>2021-06-28T16:32:14.000Z</time>
        <extensions>
          <ns3:TrackPointExtension>
            <ns3:atemp>32.0</ns3:atemp>
            <ns3:hr>92</ns3:hr>
          </ns3:TrackPointExtension>
        </extensions>
      </trkpt>
      <trkpt lat="36.84671717695891857147216796875" lon="-118.5361583344638347625732421875">
        <ele>2035.199951171875</ele>
        <time>2021-06-28T16:32:23.000Z</time>
        <extensions>
          <ns3:TrackPointExtension>
            <ns3:atemp>32.0</ns3:atemp>
            <ns3:hr>95</ns3:hr>
          </ns3:TrackPointExtension>
        </extensions>
      </trkpt>
      <trkpt lat="36.8467113934457302093505859375" lon="-118.53616462089121341705322265625">
        <ele>2035.199951171875</ele>
        <time>2021-06-28T16:32:24.000Z</time>
        <extensions>
          <ns3:TrackPointExtension>
            <ns3:atemp>32.0</ns3:atemp>
            <ns3:hr>95</ns3:hr>
          </ns3:TrackPointExtension>
        </extensions>
      </trkpt>
      <trkpt lat="36.84669706039130687713623046875" lon="-118.5362019203603267669677734375">
        <ele>2035.199951171875</ele>
        <time>2021-06-28T16:32:27.000Z</time>
        <extensions>
          <ns3:TrackPointExtension>
            <ns3:atemp>32.0</ns3:atemp>
            <ns3:hr>94</ns3:hr>
          </ns3:TrackPointExtension>
        </extensions>
      </trkpt>
      <trkpt lat="36.84668817557394504547119140625" lon="-118.5362334363162517547607421875">
        <ele>2035.199951171875</ele>
        <time>2021-06-28T16:32:28.000Z</time>
        <extensions>
          <ns3:TrackPointExtension>
            <ns3:atemp>32.0</ns3:atemp>
            <ns3:hr>93</ns3:hr>
          </ns3:TrackPointExtension>
        </extensions>
      </trkpt>
      <trkpt lat="36.8466396443545818328857421875" lon="-118.5362518765032291412353515625">
        <ele>2035.199951171875</ele>
        <time>2021-06-28T16:32:31.000Z</time>
        <extensions>
          <ns3:TrackPointExtension>
            <ns3:atemp>32.0</ns3:atemp>
            <ns3:hr>92</ns3:hr>
          </ns3:TrackPointExtension>
        </extensions>
      </trkpt>
      <trkpt lat="36.84659932740032672882080078125" lon="-118.5362599231302738189697265625">
        <ele>2035.199951171875</ele>
        <time>2021-06-28T16:32:34.000Z</time>
        <extensions>
          <ns3:TrackPointExtension>
            <ns3:atemp>32.0</ns3:atemp>
            <ns3:hr>96</ns3:hr>
          </ns3:TrackPointExtension>
        </extensions>
      </trkpt>
      <trkpt lat="36.84658189304172992706298828125" lon="-118.53625707328319549560546875">
        <ele>2035.199951171875</ele>
        <time>2021-06-28T16:32:36.000Z</time>
        <extensions>
          <ns3:TrackPointExtension>
            <ns3:atemp>32.0</ns3:atemp>
            <ns3:hr>96</ns3:hr>
          </ns3:TrackPointExtension>
        </extensions>
      </trkpt>
      <trkpt lat="36.846525482833385467529296875" lon="-118.5362743400037288665771484375">
        <ele>2035.4000244140625</ele>
        <time>2021-06-28T16:32:40.000Z</time>
        <extensions>
          <ns3:TrackPointExtension>
            <ns3:atemp>32.0</ns3:atemp>
            <ns3:hr>95</ns3:hr>
          </ns3:TrackPointExtension>
        </extensions>
      </trkpt>
      <trkpt lat="36.84651031158864498138427734375" lon="-118.536288253962993621826171875">
        <ele>2035.800048828125</ele>
        <time>2021-06-28T16:32:42.000Z</time>
        <extensions>
          <ns3:TrackPointExtension>
            <ns3:atemp>32.0</ns3:atemp>
            <ns3:hr>94</ns3:hr>
          </ns3:TrackPointExtension>
        </extensions>
      </trkpt>
      <trkpt lat="36.8464649654924869537353515625" lon="-118.5363615117967128753662109375">
        <ele>2036.199951171875</ele>
        <time>2021-06-28T16:32:48.000Z</time>
        <extensions>
          <ns3:TrackPointExtension>
            <ns3:atemp>32.0</ns3:atemp>
            <ns3:hr>93</ns3:hr>
          </ns3:TrackPointExtension>
        </extensions>
      </trkpt>
      <trkpt lat="36.8464649654924869537353515625" lon="-118.5363615117967128753662109375">
        <ele>2036.199951171875</ele>
        <time>2021-06-28T16:32:49.000Z</time>
        <extensions>
          <ns3:TrackPointExtension>
            <ns3:atemp>32.0</ns3:atemp>
            <ns3:hr>93</ns3:hr>
          </ns3:TrackPointExtension>
        </extensions>
      </trkpt>
      <trkpt lat="36.84644292108714580535888671875" lon="-118.5363782756030559539794921875">
        <ele>2036.199951171875</ele>
        <time>2021-06-28T16:32:51.000Z</time>
        <extensions>
          <ns3:TrackPointExtension>
            <ns3:atemp>32.0</ns3:atemp>
            <ns3:hr>93</ns3:hr>
          </ns3:TrackPointExtension>
        </extensions>
      </trkpt>
      <trkpt lat="36.846388019621372222900390625" lon="-118.5363906808197498321533203125">
        <ele>2036</ele>
        <time>2021-06-28T16:32:56.000Z</time>
        <extensions>
          <ns3:TrackPointExtension>
            <ns3:atemp>32.0</ns3:atemp>
            <ns3:hr>95</ns3:hr>
          </ns3:TrackPointExtension>
        </extensions>
      </trkpt>
      <trkpt lat="36.8463777936995029449462890625" lon="-118.53638850152492523193359375">
        <ele>2036</ele>
        <time>2021-06-28T16:32:58.000Z</time>
        <extensions>
          <ns3:TrackPointExtension>
            <ns3:atemp>32.0</ns3:atemp>
            <ns3:hr>93</ns3:hr>
          </ns3:TrackPointExtension>
        </extensions>
      </trkpt>
      <trkpt lat="36.84636446647346019744873046875" lon="-118.53641398251056671142578125">
        <ele>2036</ele>
        <time>2021-06-28T16:33:00.000Z</time>
        <extensions>
          <ns3:TrackPointExtension>
            <ns3:atemp>32.0</ns3:atemp>
            <ns3:hr>91</ns3:hr>
          </ns3:TrackPointExtension>
        </extensions>
      </trkpt>
      <trkpt lat="36.846359185874462127685546875" lon="-118.53642362169921398162841796875">
        <ele>2036</ele>
        <time>2021-06-28T16:33:02.000Z</time>
        <extensions>
          <ns3:TrackPointExtension>
            <ns3:atemp>32.0</ns3:atemp>
            <ns3:hr>90</ns3:hr>
          </ns3:TrackPointExtension>
        </extensions>
      </trkpt>
      <trkpt lat="36.84634367935359477996826171875" lon="-118.53643150068819522857666015625">
        <ele>2036</ele>
        <time>2021-06-28T16:33:03.000Z</time>
        <extensions>
          <ns3:TrackPointExtension>
            <ns3:atemp>32.0</ns3:atemp>
            <ns3:hr>89</ns3:hr>
          </ns3:TrackPointExtension>
        </extensions>
      </trkpt>
      <trkpt lat="36.846312582492828369140625" lon="-118.5364307463169097900390625">
        <ele>2036.199951171875</ele>
        <time>2021-06-28T16:33:06.000Z</time>
        <extensions>
          <ns3:TrackPointExtension>
            <ns3:atemp>32.0</ns3:atemp>
            <ns3:hr>88</ns3:hr>
          </ns3:TrackPointExtension>
        </extensions>
      </trkpt>
      <trkpt lat="36.84627712704241275787353515625" lon="-118.53646184317767620086669921875">
        <ele>2036.4000244140625</ele>
        <time>2021-06-28T16:33:11.000Z</time>
        <extensions>
          <ns3:TrackPointExtension>
            <ns3:atemp>32.0</ns3:atemp>
            <ns3:hr>88</ns3:hr>
          </ns3:TrackPointExtension>
        </extensions>
      </trkpt>
      <trkpt lat="36.8462433479726314544677734375" lon="-118.53648078627884387969970703125">
        <ele>2036.800048828125</ele>
        <time>2021-06-28T16:33:14.000Z</time>
        <extensions>
          <ns3:TrackPointExtension>
            <ns3:atemp>32.0</ns3:atemp>
            <ns3:hr>88</ns3:hr>
          </ns3:TrackPointExtension>
        </extensions>
      </trkpt>
      <trkpt lat="36.84619632549583911895751953125" lon="-118.5364966280758380889892578125">
        <ele>2037</ele>
        <time>2021-06-28T16:33:19.000Z</time>
        <extensions>
          <ns3:TrackPointExtension>
            <ns3:atemp>32.0</ns3:atemp>
            <ns3:hr>90</ns3:hr>
          </ns3:TrackPointExtension>
        </extensions>
      </trkpt>
      <trkpt lat="36.8461798131465911865234375" lon="-118.536498807370662689208984375">
        <ele>2037</ele>
        <time>2021-06-28T16:33:20.000Z</time>
        <extensions>
          <ns3:TrackPointExtension>
            <ns3:atemp>32.0</ns3:atemp>
            <ns3:hr>91</ns3:hr>
          </ns3:TrackPointExtension>
        </extensions>
      </trkpt>
      <trkpt lat="36.8460894562304019927978515625" lon="-118.5365559719502925872802734375">
        <ele>2037.4000244140625</ele>
        <time>2021-06-28T16:33:26.000Z</time>
        <extensions>
          <ns3:TrackPointExtension>
            <ns3:atemp>32.0</ns3:atemp>
            <ns3:hr>96</ns3:hr>
          </ns3:TrackPointExtension>
        </extensions>
      </trkpt>
      <trkpt lat="36.84608216397464275360107421875" lon="-118.5365650244057178497314453125">
        <ele>2037.5999755859375</ele>
        <time>2021-06-28T16:33:28.000Z</time>
        <extensions>
          <ns3:TrackPointExtension>
            <ns3:atemp>32.0</ns3:atemp>
            <ns3:hr>95</ns3:hr>
          </ns3:TrackPointExtension>
        </extensions>
      </trkpt>
      <trkpt lat="36.84604771435260772705078125" lon="-118.536594025790691375732421875">
        <ele>2037.800048828125</ele>
        <time>2021-06-28T16:33:30.000Z</time>
        <extensions>
          <ns3:TrackPointExtension>
            <ns3:atemp>32.0</ns3:atemp>
            <ns3:hr>96</ns3:hr>
          </ns3:TrackPointExtension>
        </extensions>
      </trkpt>
      <trkpt lat="36.84603824280202388763427734375" lon="-118.53660299442708492279052734375">
        <ele>2037.800048828125</ele>
        <time>2021-06-28T16:33:31.000Z</time>
        <extensions>
          <ns3:TrackPointExtension>
            <ns3:atemp>32.0</ns3:atemp>
            <ns3:hr>97</ns3:hr>
          </ns3:TrackPointExtension>
        </extensions>
      </trkpt>
      <trkpt lat="36.846028603613376617431640625" lon="-118.536604084074497222900390625">
        <ele>2037.800048828125</ele>
        <time>2021-06-28T16:33:32.000Z</time>
        <extensions>
          <ns3:TrackPointExtension>
            <ns3:atemp>32.0</ns3:atemp>
            <ns3:hr>97</ns3:hr>
          </ns3:TrackPointExtension>
        </extensions>
      </trkpt>
      <trkpt lat="36.8460163660347461700439453125" lon="-118.536598049104213714599609375">
        <ele>2038</ele>
        <time>2021-06-28T16:33:34.000Z</time>
        <extensions>
          <ns3:TrackPointExtension>
            <ns3:atemp>32.0</ns3:atemp>
            <ns3:hr>99</ns3:hr>
          </ns3:TrackPointExtension>
        </extensions>
      </trkpt>
      <trkpt lat="36.84598912484943866729736328125" lon="-118.5366086103022098541259765625">
        <ele>2037.800048828125</ele>
        <time>2021-06-28T16:33:39.000Z</time>
        <extensions>
          <ns3:TrackPointExtension>
            <ns3:atemp>32.0</ns3:atemp>
            <ns3:hr>101</ns3:hr>
          </ns3:TrackPointExtension>
        </extensions>
      </trkpt>
      <trkpt lat="36.84588602744042873382568359375" lon="-118.53661774657666683197021484375">
        <ele>2038.4000244140625</ele>
        <time>2021-06-28T16:33:49.000Z</time>
        <extensions>
          <ns3:TrackPointExtension>
            <ns3:atemp>32.0</ns3:atemp>
            <ns3:hr>99</ns3:hr>
          </ns3:TrackPointExtension>
        </extensions>
      </trkpt>
      <trkpt lat="36.84587412513792514801025390625" lon="-118.53661774657666683197021484375">
        <ele>2038.4000244140625</ele>
        <time>2021-06-28T16:33:50.000Z</time>
        <extensions>
          <ns3:TrackPointExtension>
            <ns3:atemp>32.0</ns3:atemp>
            <ns3:hr>99</ns3:hr>
          </ns3:TrackPointExtension>
        </extensions>
      </trkpt>
      <trkpt lat="36.84583992697298526763916015625" lon="-118.5366223566234111785888671875">
        <ele>2038.199951171875</ele>
        <time>2021-06-28T16:33:52.000Z</time>
        <extensions>
          <ns3:TrackPointExtension>
            <ns3:atemp>32.0</ns3:atemp>
            <ns3:hr>98</ns3:hr>
          </ns3:TrackPointExtension>
        </extensions>
      </trkpt>
      <trkpt lat="36.8458177149295806884765625" lon="-118.536624200642108917236328125">
        <ele>2038</ele>
        <time>2021-06-28T16:33:55.000Z</time>
        <extensions>
          <ns3:TrackPointExtension>
            <ns3:atemp>32.0</ns3:atemp>
            <ns3:hr>97</ns3:hr>
          </ns3:TrackPointExtension>
        </extensions>
      </trkpt>
      <trkpt lat="36.84580170549452304840087890625" lon="-118.53663031943142414093017578125">
        <ele>2038.4000244140625</ele>
        <time>2021-06-28T16:33:59.000Z</time>
        <extensions>
          <ns3:TrackPointExtension>
            <ns3:atemp>32.0</ns3:atemp>
            <ns3:hr>96</ns3:hr>
          </ns3:TrackPointExtension>
        </extensions>
      </trkpt>
      <trkpt lat="36.8457260169088840484619140625" lon="-118.536636270582675933837890625">
        <ele>2038.5999755859375</ele>
        <time>2021-06-28T16:34:06.000Z</time>
        <extensions>
          <ns3:TrackPointExtension>
            <ns3:atemp>32.0</ns3:atemp>
            <ns3:hr>94</ns3:hr>
          </ns3:TrackPointExtension>
        </extensions>
      </trkpt>
      <trkpt lat="36.84571788646280765533447265625" lon="-118.536630235612392425537109375">
        <ele>2038.4000244140625</ele>
        <time>2021-06-28T16:34:07.000Z</time>
        <extensions>
          <ns3:TrackPointExtension>
            <ns3:atemp>32.0</ns3:atemp>
            <ns3:hr>93</ns3:hr>
          </ns3:TrackPointExtension>
        </extensions>
      </trkpt>
      <trkpt lat="36.84563155286014080047607421875" lon="-118.5365894995629787445068359375">
        <ele>2037.800048828125</ele>
        <time>2021-06-28T16:34:14.000Z</time>
        <extensions>
          <ns3:TrackPointExtension>
            <ns3:atemp>32.0</ns3:atemp>
            <ns3:hr>90</ns3:hr>
          </ns3:TrackPointExtension>
        </extensions>
      </trkpt>
      <trkpt lat="36.84558092616498470306396484375" lon="-118.5366424731910228729248046875">
        <ele>2036.5999755859375</ele>
        <time>2021-06-28T16:34:20.000Z</time>
        <extensions>
          <ns3:TrackPointExtension>
            <ns3:atemp>32.0</ns3:atemp>
            <ns3:hr>88</ns3:hr>
          </ns3:TrackPointExtension>
        </extensions>
      </trkpt>
      <trkpt lat="36.8455278687179088592529296875" lon="-118.53664691559970378875732421875">
        <ele>2036.4000244140625</ele>
        <time>2021-06-28T16:34:23.000Z</time>
        <extensions>
          <ns3:TrackPointExtension>
            <ns3:atemp>32.0</ns3:atemp>
            <ns3:hr>87</ns3:hr>
          </ns3:TrackPointExtension>
        </extensions>
      </trkpt>
      <trkpt lat="36.8455278687179088592529296875" lon="-118.53664691559970378875732421875">
        <ele>2036.4000244140625</ele>
        <time>2021-06-28T16:34:24.000Z</time>
        <extensions>
          <ns3:TrackPointExtension>
            <ns3:atemp>32.0</ns3:atemp>
            <ns3:hr>91</ns3:hr>
          </ns3:TrackPointExtension>
        </extensions>
      </trkpt>
      <trkpt lat="36.84550045989453792572021484375" lon="-118.53664171881973743438720703125">
        <ele>2036.4000244140625</ele>
        <time>2021-06-28T16:34:25.000Z</time>
        <extensions>
          <ns3:TrackPointExtension>
            <ns3:atemp>32.0</ns3:atemp>
            <ns3:hr>88</ns3:hr>
          </ns3:TrackPointExtension>
        </extensions>
      </trkpt>
      <trkpt lat="36.84541781432926654815673828125" lon="-118.53669117204844951629638671875">
        <ele>2036.4000244140625</ele>
        <time>2021-06-28T16:34:31.000Z</time>
        <extensions>
          <ns3:TrackPointExtension>
            <ns3:atemp>32.0</ns3:atemp>
            <ns3:hr>86</ns3:hr>
          </ns3:TrackPointExtension>
        </extensions>
      </trkpt>
      <trkpt lat="36.845358051359653472900390625" lon="-118.53668513707816600799560546875">
        <ele>2036.199951171875</ele>
        <time>2021-06-28T16:34:34.000Z</time>
        <extensions>
          <ns3:TrackPointExtension>
            <ns3:atemp>32.0</ns3:atemp>
            <ns3:hr>86</ns3:hr>
          </ns3:TrackPointExtension>
        </extensions>
      </trkpt>
      <trkpt lat="36.84531538747251033782958984375" lon="-118.53676057420670986175537109375">
        <ele>2035.800048828125</ele>
        <time>2021-06-28T16:34:38.000Z</time>
        <extensions>
          <ns3:TrackPointExtension>
            <ns3:atemp>32.0</ns3:atemp>
            <ns3:hr>86</ns3:hr>
          </ns3:TrackPointExtension>
        </extensions>
      </trkpt>
      <trkpt lat="36.84531236998736858367919921875" lon="-118.536775745451450347900390625">
        <ele>2035.800048828125</ele>
        <time>2021-06-28T16:34:39.000Z</time>
        <extensions>
          <ns3:TrackPointExtension>
            <ns3:atemp>32.0</ns3:atemp>
            <ns3:hr>85</ns3:hr>
          </ns3:TrackPointExtension>
        </extensions>
      </trkpt>
      <trkpt lat="36.8452971987426280975341796875" lon="-118.53681421838700771331787109375">
        <ele>2035.800048828125</ele>
        <time>2021-06-28T16:34:42.000Z</time>
        <extensions>
          <ns3:TrackPointExtension>
            <ns3:atemp>32.0</ns3:atemp>
            <ns3:hr>84</ns3:hr>
          </ns3:TrackPointExtension>
        </extensions>
      </trkpt>
      <trkpt lat="36.84527230449020862579345703125" lon="-118.5368245281279087066650390625">
        <ele>2035.5999755859375</ele>
        <time>2021-06-28T16:34:44.000Z</time>
        <extensions>
          <ns3:TrackPointExtension>
            <ns3:atemp>32.0</ns3:atemp>
            <ns3:hr>83</ns3:hr>
          </ns3:TrackPointExtension>
        </extensions>
      </trkpt>
      <trkpt lat="36.8452517688274383544921875" lon="-118.53682192973792552947998046875">
        <ele>2035.199951171875</ele>
        <time>2021-06-28T16:34:47.000Z</time>
        <extensions>
          <ns3:TrackPointExtension>
            <ns3:atemp>32.0</ns3:atemp>
            <ns3:hr>82</ns3:hr>
          </ns3:TrackPointExtension>
        </extensions>
      </trkpt>
      <trkpt lat="36.84519535861909389495849609375" lon="-118.53679711930453777313232421875">
        <ele>2035.199951171875</ele>
        <time>2021-06-28T16:34:51.000Z</time>
        <extensions>
          <ns3:TrackPointExtension>
            <ns3:atemp>32.0</ns3:atemp>
            <ns3:hr>83</ns3:hr>
          </ns3:TrackPointExtension>
        </extensions>
      </trkpt>
      <trkpt lat="36.8451721407473087310791015625" lon="-118.53679141961038112640380859375">
        <ele>2035.199951171875</ele>
        <time>2021-06-28T16:34:54.000Z</time>
        <extensions>
          <ns3:TrackPointExtension>
            <ns3:atemp>32.0</ns3:atemp>
            <ns3:hr>84</ns3:hr>
          </ns3:TrackPointExtension>
        </extensions>
      </trkpt>
      <trkpt lat="36.84516082517802715301513671875" lon="-118.53679326362907886505126953125">
        <ele>2034.800048828125</ele>
        <time>2021-06-28T16:34:56.000Z</time>
        <extensions>
          <ns3:TrackPointExtension>
            <ns3:atemp>32.0</ns3:atemp>
            <ns3:hr>84</ns3:hr>
          </ns3:TrackPointExtension>
        </extensions>
      </trkpt>
      <trkpt lat="36.84512746520340442657470703125" lon="-118.5368228517472743988037109375">
        <ele>2034.5999755859375</ele>
        <time>2021-06-28T16:34:58.000Z</time>
        <extensions>
          <ns3:TrackPointExtension>
            <ns3:atemp>32.0</ns3:atemp>
            <ns3:hr>85</ns3:hr>
          </ns3:TrackPointExtension>
        </extensions>
      </trkpt>
      <trkpt lat="36.84512746520340442657470703125" lon="-118.5368228517472743988037109375">
        <ele>2034.5999755859375</ele>
        <time>2021-06-28T16:34:59.000Z</time>
        <extensions>
          <ns3:TrackPointExtension>
            <ns3:atemp>32.0</ns3:atemp>
            <ns3:hr>83</ns3:hr>
          </ns3:TrackPointExtension>
        </extensions>
      </trkpt>
      <trkpt lat="36.84509678743779659271240234375" lon="-118.5368426330387592315673828125">
        <ele>2034.199951171875</ele>
        <time>2021-06-28T16:35:04.000Z</time>
        <extensions>
          <ns3:TrackPointExtension>
            <ns3:atemp>32.0</ns3:atemp>
            <ns3:hr>84</ns3:hr>
          </ns3:TrackPointExtension>
        </extensions>
      </trkpt>
      <trkpt lat="36.84508656151592731475830078125" lon="-118.5368560440838336944580078125">
        <ele>2034.199951171875</ele>
        <time>2021-06-28T16:35:07.000Z</time>
        <extensions>
          <ns3:TrackPointExtension>
            <ns3:atemp>32.0</ns3:atemp>
            <ns3:hr>85</ns3:hr>
          </ns3:TrackPointExtension>
        </extensions>
      </trkpt>
      <trkpt lat="36.84506845660507678985595703125" lon="-118.5368634201586246490478515625">
        <ele>2034</ele>
        <time>2021-06-28T16:35:10.000Z</time>
        <extensions>
          <ns3:TrackPointExtension>
            <ns3:atemp>32.0</ns3:atemp>
            <ns3:hr>87</ns3:hr>
          </ns3:TrackPointExtension>
        </extensions>
      </trkpt>
      <trkpt lat="36.8450653553009033203125" lon="-118.5368679463863372802734375">
        <ele>2034</ele>
        <time>2021-06-28T16:35:12.000Z</time>
        <extensions>
          <ns3:TrackPointExtension>
            <ns3:atemp>32.0</ns3:atemp>
            <ns3:hr>90</ns3:hr>
          </ns3:TrackPointExtension>
        </extensions>
      </trkpt>
      <trkpt lat="36.8450360186398029327392578125" lon="-118.53689233772456645965576171875">
        <ele>2034</ele>
        <time>2021-06-28T16:35:15.000Z</time>
        <extensions>
          <ns3:TrackPointExtension>
            <ns3:atemp>32.0</ns3:atemp>
            <ns3:hr>93</ns3:hr>
          </ns3:TrackPointExtension>
        </extensions>
      </trkpt>
      <trkpt lat="36.84501481242477893829345703125" lon="-118.536903820931911468505859375">
        <ele>2034</ele>
        <time>2021-06-28T16:35:16.000Z</time>
        <extensions>
          <ns3:TrackPointExtension>
            <ns3:atemp>32.0</ns3:atemp>
            <ns3:hr>93</ns3:hr>
          </ns3:TrackPointExtension>
        </extensions>
      </trkpt>
      <trkpt lat="36.84501481242477893829345703125" lon="-118.536903820931911468505859375">
        <ele>2034</ele>
        <time>2021-06-28T16:35:17.000Z</time>
        <extensions>
          <ns3:TrackPointExtension>
            <ns3:atemp>32.0</ns3:atemp>
            <ns3:hr>92</ns3:hr>
          </ns3:TrackPointExtension>
        </extensions>
      </trkpt>
      <trkpt lat="36.844950020313262939453125" lon="-118.5369140468537807464599609375">
        <ele>2034.199951171875</ele>
        <time>2021-06-28T16:35:21.000Z</time>
        <extensions>
          <ns3:TrackPointExtension>
            <ns3:atemp>32.0</ns3:atemp>
            <ns3:hr>89</ns3:hr>
          </ns3:TrackPointExtension>
        </extensions>
      </trkpt>
      <trkpt lat="36.84492697007954120635986328125" lon="-118.53692251257598400115966796875">
        <ele>2034.199951171875</ele>
        <time>2021-06-28T16:35:22.000Z</time>
        <extensions>
          <ns3:TrackPointExtension>
            <ns3:atemp>32.0</ns3:atemp>
            <ns3:hr>89</ns3:hr>
          </ns3:TrackPointExtension>
        </extensions>
      </trkpt>
      <trkpt lat="36.84492697007954120635986328125" lon="-118.53692251257598400115966796875">
        <ele>2034.4000244140625</ele>
        <time>2021-06-28T16:35:23.000Z</time>
        <extensions>
          <ns3:TrackPointExtension>
            <ns3:atemp>32.0</ns3:atemp>
            <ns3:hr>89</ns3:hr>
          </ns3:TrackPointExtension>
        </extensions>
      </trkpt>
      <trkpt lat="36.844881959259510040283203125" lon="-118.536927960813045501708984375">
        <ele>2034.4000244140625</ele>
        <time>2021-06-28T16:35:25.000Z</time>
        <extensions>
          <ns3:TrackPointExtension>
            <ns3:atemp>32.0</ns3:atemp>
            <ns3:hr>88</ns3:hr>
          </ns3:TrackPointExtension>
        </extensions>
      </trkpt>
      <trkpt lat="36.84482705779373645782470703125" lon="-118.53695444762706756591796875">
        <ele>2034.4000244140625</ele>
        <time>2021-06-28T16:35:28.000Z</time>
        <extensions>
          <ns3:TrackPointExtension>
            <ns3:atemp>32.0</ns3:atemp>
            <ns3:hr>84</ns3:hr>
          </ns3:TrackPointExtension>
        </extensions>
      </trkpt>
      <trkpt lat="36.84479034505784511566162109375" lon="-118.5369666852056980133056640625">
        <ele>2034.4000244140625</ele>
        <time>2021-06-28T16:35:29.000Z</time>
        <extensions>
          <ns3:TrackPointExtension>
            <ns3:atemp>32.0</ns3:atemp>
            <ns3:hr>88</ns3:hr>
          </ns3:TrackPointExtension>
        </extensions>
      </trkpt>
      <trkpt lat="36.8447305820882320404052734375" lon="-118.53697498328983783721923828125">
        <ele>2034.4000244140625</ele>
        <time>2021-06-28T16:35:33.000Z</time>
        <extensions>
          <ns3:TrackPointExtension>
            <ns3:atemp>32.0</ns3:atemp>
            <ns3:hr>91</ns3:hr>
          </ns3:TrackPointExtension>
        </extensions>
      </trkpt>
      <trkpt lat="36.84471222572028636932373046875" lon="-118.5369686968624591827392578125">
        <ele>2034.4000244140625</ele>
        <time>2021-06-28T16:35:35.000Z</time>
        <extensions>
          <ns3:TrackPointExtension>
            <ns3:atemp>32.0</ns3:atemp>
            <ns3:hr>93</ns3:hr>
          </ns3:TrackPointExtension>
        </extensions>
      </trkpt>
      <trkpt lat="36.8446866609156131744384765625" lon="-118.53700314648449420928955078125">
        <ele>2034.4000244140625</ele>
        <time>2021-06-28T16:35:38.000Z</time>
        <extensions>
          <ns3:TrackPointExtension>
            <ns3:atemp>32.0</ns3:atemp>
            <ns3:hr>95</ns3:hr>
          </ns3:TrackPointExtension>
        </extensions>
      </trkpt>
      <trkpt lat="36.84463477693498134613037109375" lon="-118.5370035655796527862548828125">
        <ele>2034</ele>
        <time>2021-06-28T16:35:42.000Z</time>
        <extensions>
          <ns3:TrackPointExtension>
            <ns3:atemp>32.0</ns3:atemp>
            <ns3:hr>95</ns3:hr>
          </ns3:TrackPointExtension>
        </extensions>
      </trkpt>
      <trkpt lat="36.84459722600877285003662109375" lon="-118.53698705323040485382080078125">
        <ele>2034</ele>
        <time>2021-06-28T16:35:45.000Z</time>
        <extensions>
          <ns3:TrackPointExtension>
            <ns3:atemp>32.0</ns3:atemp>
            <ns3:hr>94</ns3:hr>
          </ns3:TrackPointExtension>
        </extensions>
      </trkpt>
      <trkpt lat="36.8445629440248012542724609375" lon="-118.53699174709618091583251953125">
        <ele>2034.199951171875</ele>
        <time>2021-06-28T16:35:48.000Z</time>
        <extensions>
          <ns3:TrackPointExtension>
            <ns3:atemp>32.0</ns3:atemp>
            <ns3:hr>91</ns3:hr>
          </ns3:TrackPointExtension>
        </extensions>
      </trkpt>
      <trkpt lat="36.84453335590660572052001953125" lon="-118.5369891487061977386474609375">
        <ele>2034.5999755859375</ele>
        <time>2021-06-28T16:35:50.000Z</time>
        <extensions>
          <ns3:TrackPointExtension>
            <ns3:atemp>32.0</ns3:atemp>
            <ns3:hr>90</ns3:hr>
          </ns3:TrackPointExtension>
        </extensions>
      </trkpt>
      <trkpt lat="36.84450401924550533294677734375" lon="-118.536989986896514892578125">
        <ele>2034.800048828125</ele>
        <time>2021-06-28T16:35:53.000Z</time>
        <extensions>
          <ns3:TrackPointExtension>
            <ns3:atemp>32.0</ns3:atemp>
            <ns3:hr>89</ns3:hr>
          </ns3:TrackPointExtension>
        </extensions>
      </trkpt>
      <trkpt lat="36.8444516323506832122802734375" lon="-118.53701789863407611846923828125">
        <ele>2034.5999755859375</ele>
        <time>2021-06-28T16:35:57.000Z</time>
        <extensions>
          <ns3:TrackPointExtension>
            <ns3:atemp>32.0</ns3:atemp>
            <ns3:hr>88</ns3:hr>
          </ns3:TrackPointExtension>
        </extensions>
      </trkpt>
      <trkpt lat="36.84442187659442424774169921875" lon="-118.5370261967182159423828125">
        <ele>2034.199951171875</ele>
        <time>2021-06-28T16:36:01.000Z</time>
        <extensions>
          <ns3:TrackPointExtension>
            <ns3:atemp>32.0</ns3:atemp>
            <ns3:hr>88</ns3:hr>
          </ns3:TrackPointExtension>
        </extensions>
      </trkpt>
      <trkpt lat="36.8443943001329898834228515625" lon="-118.53702058084309101104736328125">
        <ele>2034</ele>
        <time>2021-06-28T16:36:04.000Z</time>
        <extensions>
          <ns3:TrackPointExtension>
            <ns3:atemp>32.0</ns3:atemp>
            <ns3:hr>91</ns3:hr>
          </ns3:TrackPointExtension>
        </extensions>
      </trkpt>
      <trkpt lat="36.84435926377773284912109375" lon="-118.5370186530053615570068359375">
        <ele>2034</ele>
        <time>2021-06-28T16:36:06.000Z</time>
        <extensions>
          <ns3:TrackPointExtension>
            <ns3:atemp>32.0</ns3:atemp>
            <ns3:hr>94</ns3:hr>
          </ns3:TrackPointExtension>
        </extensions>
      </trkpt>
      <trkpt lat="36.84427988715469837188720703125" lon="-118.53702074848115444183349609375">
        <ele>2033.800048828125</ele>
        <time>2021-06-28T16:36:09.000Z</time>
        <extensions>
          <ns3:TrackPointExtension>
            <ns3:atemp>32.0</ns3:atemp>
            <ns3:hr>97</ns3:hr>
          </ns3:TrackPointExtension>
        </extensions>
      </trkpt>
      <trkpt lat="36.844209730625152587890625" lon="-118.537014462053775787353515625">
        <ele>2033.5999755859375</ele>
        <time>2021-06-28T16:36:12.000Z</time>
        <extensions>
          <ns3:TrackPointExtension>
            <ns3:atemp>32.0</ns3:atemp>
            <ns3:hr>96</ns3:hr>
          </ns3:TrackPointExtension>
        </extensions>
      </trkpt>
      <trkpt lat="36.84418165124952793121337890625" lon="-118.537051342427730560302734375">
        <ele>2033.5999755859375</ele>
        <time>2021-06-28T16:36:15.000Z</time>
        <extensions>
          <ns3:TrackPointExtension>
            <ns3:atemp>32.0</ns3:atemp>
            <ns3:hr>96</ns3:hr>
          </ns3:TrackPointExtension>
        </extensions>
      </trkpt>
      <trkpt lat="36.8441606126725673675537109375" lon="-118.5370843671262264251708984375">
        <ele>2033.5999755859375</ele>
        <time>2021-06-28T16:36:17.000Z</time>
        <extensions>
          <ns3:TrackPointExtension>
            <ns3:atemp>32.0</ns3:atemp>
            <ns3:hr>93</ns3:hr>
          </ns3:TrackPointExtension>
        </extensions>
      </trkpt>
      <trkpt lat="36.8441606126725673675537109375" lon="-118.5370843671262264251708984375">
        <ele>2033.5999755859375</ele>
        <time>2021-06-28T16:36:18.000Z</time>
        <extensions>
          <ns3:TrackPointExtension>
            <ns3:atemp>32.0</ns3:atemp>
            <ns3:hr>94</ns3:hr>
          </ns3:TrackPointExtension>
        </extensions>
      </trkpt>
      <trkpt lat="36.8440952338278293609619140625" lon="-118.5372027195990085601806640625">
        <ele>2034.199951171875</ele>
        <time>2021-06-28T16:36:26.000Z</time>
        <extensions>
          <ns3:TrackPointExtension>
            <ns3:atemp>32.0</ns3:atemp>
            <ns3:hr>92</ns3:hr>
          </ns3:TrackPointExtension>
        </extensions>
      </trkpt>
      <trkpt lat="36.844057850539684295654296875" lon="-118.5372302122414112091064453125">
        <ele>2034.199951171875</ele>
        <time>2021-06-28T16:36:28.000Z</time>
        <extensions>
          <ns3:TrackPointExtension>
            <ns3:atemp>32.0</ns3:atemp>
            <ns3:hr>92</ns3:hr>
          </ns3:TrackPointExtension>
        </extensions>
      </trkpt>
      <trkpt lat="36.8440566770732402801513671875" lon="-118.53725058026611804962158203125">
        <ele>2034.4000244140625</ele>
        <time>2021-06-28T16:36:30.000Z</time>
        <extensions>
          <ns3:TrackPointExtension>
            <ns3:atemp>32.0</ns3:atemp>
            <ns3:hr>91</ns3:hr>
          </ns3:TrackPointExtension>
        </extensions>
      </trkpt>
      <trkpt lat="36.8440523184835910797119140625" lon="-118.537269271910190582275390625">
        <ele>2034.4000244140625</ele>
        <time>2021-06-28T16:36:31.000Z</time>
        <extensions>
          <ns3:TrackPointExtension>
            <ns3:atemp>32.0</ns3:atemp>
            <ns3:hr>91</ns3:hr>
          </ns3:TrackPointExtension>
        </extensions>
      </trkpt>
      <trkpt lat="36.84403681196272373199462890625" lon="-118.53728771209716796875">
        <ele>2034.4000244140625</ele>
        <time>2021-06-28T16:36:33.000Z</time>
        <extensions>
          <ns3:TrackPointExtension>
            <ns3:atemp>32.0</ns3:atemp>
            <ns3:hr>91</ns3:hr>
          </ns3:TrackPointExtension>
        </extensions>
      </trkpt>
      <trkpt lat="36.84401954524219036102294921875" lon="-118.537300117313861846923828125">
        <ele>2034.4000244140625</ele>
        <time>2021-06-28T16:36:35.000Z</time>
        <extensions>
          <ns3:TrackPointExtension>
            <ns3:atemp>32.0</ns3:atemp>
            <ns3:hr>91</ns3:hr>
          </ns3:TrackPointExtension>
        </extensions>
      </trkpt>
      <trkpt lat="36.84398869983851909637451171875" lon="-118.5373341478407382965087890625">
        <ele>2034.5999755859375</ele>
        <time>2021-06-28T16:36:37.000Z</time>
        <extensions>
          <ns3:TrackPointExtension>
            <ns3:atemp>32.0</ns3:atemp>
            <ns3:hr>89</ns3:hr>
          </ns3:TrackPointExtension>
        </extensions>
      </trkpt>
      <trkpt lat="36.8439577706158161163330078125" lon="-118.537356443703174591064453125">
        <ele>2034.199951171875</ele>
        <time>2021-06-28T16:36:40.000Z</time>
        <extensions>
          <ns3:TrackPointExtension>
            <ns3:atemp>32.0</ns3:atemp>
            <ns3:hr>88</ns3:hr>
          </ns3:TrackPointExtension>
        </extensions>
      </trkpt>
      <trkpt lat="36.84393941424787044525146484375" lon="-118.5373653285205364227294921875">
        <ele>2034</ele>
        <time>2021-06-28T16:36:42.000Z</time>
        <extensions>
          <ns3:TrackPointExtension>
            <ns3:atemp>32.0</ns3:atemp>
            <ns3:hr>88</ns3:hr>
          </ns3:TrackPointExtension>
        </extensions>
      </trkpt>
      <trkpt lat="36.84392097406089305877685546875" lon="-118.53738519363105297088623046875">
        <ele>2034</ele>
        <time>2021-06-28T16:36:44.000Z</time>
        <extensions>
          <ns3:TrackPointExtension>
            <ns3:atemp>32.0</ns3:atemp>
            <ns3:hr>88</ns3:hr>
          </ns3:TrackPointExtension>
        </extensions>
      </trkpt>
      <trkpt lat="36.84391460381448268890380859375" lon="-118.5374177992343902587890625">
        <ele>2034.199951171875</ele>
        <time>2021-06-28T16:36:46.000Z</time>
        <extensions>
          <ns3:TrackPointExtension>
            <ns3:atemp>32.0</ns3:atemp>
            <ns3:hr>88</ns3:hr>
          </ns3:TrackPointExtension>
        </extensions>
      </trkpt>
      <trkpt lat="36.843907646834850311279296875" lon="-118.5374417714774608612060546875">
        <ele>2034</ele>
        <time>2021-06-28T16:36:49.000Z</time>
        <extensions>
          <ns3:TrackPointExtension>
            <ns3:atemp>32.0</ns3:atemp>
            <ns3:hr>87</ns3:hr>
          </ns3:TrackPointExtension>
        </extensions>
      </trkpt>
      <trkpt lat="36.84387839399278163909912109375" lon="-118.53750958107411861419677734375">
        <ele>2034.199951171875</ele>
        <time>2021-06-28T16:36:53.000Z</time>
        <extensions>
          <ns3:TrackPointExtension>
            <ns3:atemp>32.0</ns3:atemp>
            <ns3:hr>87</ns3:hr>
          </ns3:TrackPointExtension>
        </extensions>
      </trkpt>
      <trkpt lat="36.8438645638525485992431640625" lon="-118.5375255905091762542724609375">
        <ele>2034.4000244140625</ele>
        <time>2021-06-28T16:36:54.000Z</time>
        <extensions>
          <ns3:TrackPointExtension>
            <ns3:atemp>32.0</ns3:atemp>
            <ns3:hr>87</ns3:hr>
          </ns3:TrackPointExtension>
        </extensions>
      </trkpt>
      <trkpt lat="36.84380932711064815521240234375" lon="-118.5376053862273693084716796875">
        <ele>2034.800048828125</ele>
        <time>2021-06-28T16:37:00.000Z</time>
        <extensions>
          <ns3:TrackPointExtension>
            <ns3:atemp>32.0</ns3:atemp>
            <ns3:hr>86</ns3:hr>
          </ns3:TrackPointExtension>
        </extensions>
      </trkpt>
      <trkpt lat="36.84377990663051605224609375" lon="-118.537649475038051605224609375">
        <ele>2034.4000244140625</ele>
        <time>2021-06-28T16:37:02.000Z</time>
        <extensions>
          <ns3:TrackPointExtension>
            <ns3:atemp>32.0</ns3:atemp>
            <ns3:hr>86</ns3:hr>
          </ns3:TrackPointExtension>
        </extensions>
      </trkpt>
      <trkpt lat="36.843771524727344512939453125" lon="-118.53769063018262386322021484375">
        <ele>2034</ele>
        <time>2021-06-28T16:37:04.000Z</time>
        <extensions>
          <ns3:TrackPointExtension>
            <ns3:atemp>32.0</ns3:atemp>
            <ns3:hr>86</ns3:hr>
          </ns3:TrackPointExtension>
        </extensions>
      </trkpt>
      <trkpt lat="36.84378032572567462921142578125" lon="-118.5377530753612518310546875">
        <ele>2034</ele>
        <time>2021-06-28T16:37:06.000Z</time>
        <extensions>
          <ns3:TrackPointExtension>
            <ns3:atemp>32.0</ns3:atemp>
            <ns3:hr>86</ns3:hr>
          </ns3:TrackPointExtension>
        </extensions>
      </trkpt>
      <trkpt lat="36.84378501959145069122314453125" lon="-118.53779389522969722747802734375">
        <ele>2033.800048828125</ele>
        <time>2021-06-28T16:37:08.000Z</time>
        <extensions>
          <ns3:TrackPointExtension>
            <ns3:atemp>32.0</ns3:atemp>
            <ns3:hr>86</ns3:hr>
          </ns3:TrackPointExtension>
        </extensions>
      </trkpt>
      <trkpt lat="36.843769513070583343505859375" lon="-118.53782557882368564605712890625">
        <ele>2033.800048828125</ele>
        <time>2021-06-28T16:37:11.000Z</time>
        <extensions>
          <ns3:TrackPointExtension>
            <ns3:atemp>32.0</ns3:atemp>
            <ns3:hr>86</ns3:hr>
          </ns3:TrackPointExtension>
        </extensions>
      </trkpt>
      <trkpt lat="36.84376859106123447418212890625" lon="-118.53783630765974521636962890625">
        <ele>2033.4000244140625</ele>
        <time>2021-06-28T16:37:12.000Z</time>
        <extensions>
          <ns3:TrackPointExtension>
            <ns3:atemp>32.0</ns3:atemp>
            <ns3:hr>87</ns3:hr>
          </ns3:TrackPointExtension>
        </extensions>
      </trkpt>
      <trkpt lat="36.84376574121415615081787109375" lon="-118.5378380678594112396240234375">
        <ele>2033.4000244140625</ele>
        <time>2021-06-28T16:37:13.000Z</time>
        <extensions>
          <ns3:TrackPointExtension>
            <ns3:atemp>32.0</ns3:atemp>
            <ns3:hr>87</ns3:hr>
          </ns3:TrackPointExtension>
        </extensions>
      </trkpt>
      <trkpt lat="36.84374109841883182525634765625" lon="-118.5378367267549037933349609375">
        <ele>2033.4000244140625</ele>
        <time>2021-06-28T16:37:15.000Z</time>
        <extensions>
          <ns3:TrackPointExtension>
            <ns3:atemp>32.0</ns3:atemp>
            <ns3:hr>87</ns3:hr>
          </ns3:TrackPointExtension>
        </extensions>
      </trkpt>
      <trkpt lat="36.843710839748382568359375" lon="-118.537835218012332916259765625">
        <ele>2033</ele>
        <time>2021-06-28T16:37:17.000Z</time>
        <extensions>
          <ns3:TrackPointExtension>
            <ns3:atemp>32.0</ns3:atemp>
            <ns3:hr>88</ns3:hr>
          </ns3:TrackPointExtension>
        </extensions>
      </trkpt>
      <trkpt lat="36.84369768016040325164794921875" lon="-118.53783463127911090850830078125">
        <ele>2033</ele>
        <time>2021-06-28T16:37:18.000Z</time>
        <extensions>
          <ns3:TrackPointExtension>
            <ns3:atemp>32.0</ns3:atemp>
            <ns3:hr>87</ns3:hr>
          </ns3:TrackPointExtension>
        </extensions>
      </trkpt>
      <trkpt lat="36.843689382076263427734375" lon="-118.5378695838153362274169921875">
        <ele>2033</ele>
        <time>2021-06-28T16:37:21.000Z</time>
        <extensions>
          <ns3:TrackPointExtension>
            <ns3:atemp>32.0</ns3:atemp>
            <ns3:hr>88</ns3:hr>
          </ns3:TrackPointExtension>
        </extensions>
      </trkpt>
      <trkpt lat="36.84369130991399288177490234375" lon="-118.53790252469480037689208984375">
        <ele>2033.4000244140625</ele>
        <time>2021-06-28T16:37:23.000Z</time>
        <extensions>
          <ns3:TrackPointExtension>
            <ns3:atemp>32.0</ns3:atemp>
            <ns3:hr>87</ns3:hr>
          </ns3:TrackPointExtension>
        </extensions>
      </trkpt>
      <trkpt lat="36.84366515837609767913818359375" lon="-118.5379195399582386016845703125">
        <ele>2033.800048828125</ele>
        <time>2021-06-28T16:37:26.000Z</time>
        <extensions>
          <ns3:TrackPointExtension>
            <ns3:atemp>32.0</ns3:atemp>
            <ns3:hr>87</ns3:hr>
          </ns3:TrackPointExtension>
        </extensions>
      </trkpt>
      <trkpt lat="36.8436432816088199615478515625" lon="-118.53793077170848846435546875">
        <ele>2033.800048828125</ele>
        <time>2021-06-28T16:37:29.000Z</time>
        <extensions>
          <ns3:TrackPointExtension>
            <ns3:atemp>32.0</ns3:atemp>
            <ns3:hr>86</ns3:hr>
          </ns3:TrackPointExtension>
        </extensions>
      </trkpt>
      <trkpt lat="36.8435990251600742340087890625" lon="-118.53795499540865421295166015625">
        <ele>2034.199951171875</ele>
        <time>2021-06-28T16:37:32.000Z</time>
        <extensions>
          <ns3:TrackPointExtension>
            <ns3:atemp>32.0</ns3:atemp>
            <ns3:hr>84</ns3:hr>
          </ns3:TrackPointExtension>
        </extensions>
      </trkpt>
      <trkpt lat="36.84357513673603534698486328125" lon="-118.5379654727876186370849609375">
        <ele>2034</ele>
        <time>2021-06-28T16:37:35.000Z</time>
        <extensions>
          <ns3:TrackPointExtension>
            <ns3:atemp>32.0</ns3:atemp>
            <ns3:hr>83</ns3:hr>
          </ns3:TrackPointExtension>
        </extensions>
      </trkpt>
      <trkpt lat="36.84354512952268123626708984375" lon="-118.538014590740203857421875">
        <ele>2033.800048828125</ele>
        <time>2021-06-28T16:37:39.000Z</time>
        <extensions>
          <ns3:TrackPointExtension>
            <ns3:atemp>32.0</ns3:atemp>
            <ns3:hr>80</ns3:hr>
          </ns3:TrackPointExtension>
        </extensions>
      </trkpt>
      <trkpt lat="36.84352015145123004913330078125" lon="-118.53804476559162139892578125">
        <ele>2033.800048828125</ele>
        <time>2021-06-28T16:37:41.000Z</time>
        <extensions>
          <ns3:TrackPointExtension>
            <ns3:atemp>32.0</ns3:atemp>
            <ns3:hr>83</ns3:hr>
          </ns3:TrackPointExtension>
        </extensions>
      </trkpt>
      <trkpt lat="36.84348997659981250762939453125" lon="-118.53805423714220523834228515625">
        <ele>2033.800048828125</ele>
        <time>2021-06-28T16:37:43.000Z</time>
        <extensions>
          <ns3:TrackPointExtension>
            <ns3:atemp>32.0</ns3:atemp>
            <ns3:hr>83</ns3:hr>
          </ns3:TrackPointExtension>
        </extensions>
      </trkpt>
      <trkpt lat="36.84348997659981250762939453125" lon="-118.53805423714220523834228515625">
        <ele>2033.5999755859375</ele>
        <time>2021-06-28T16:37:44.000Z</time>
        <extensions>
          <ns3:TrackPointExtension>
            <ns3:atemp>32.0</ns3:atemp>
            <ns3:hr>86</ns3:hr>
          </ns3:TrackPointExtension>
        </extensions>
      </trkpt>
      <trkpt lat="36.843479834496974945068359375" lon="-118.538064546883106231689453125">
        <ele>2033.5999755859375</ele>
        <time>2021-06-28T16:37:45.000Z</time>
        <extensions>
          <ns3:TrackPointExtension>
            <ns3:atemp>32.0</ns3:atemp>
            <ns3:hr>83</ns3:hr>
          </ns3:TrackPointExtension>
        </extensions>
      </trkpt>
      <trkpt lat="36.8434734642505645751953125" lon="-118.5380945540964603424072265625">
        <ele>2033.5999755859375</ele>
        <time>2021-06-28T16:37:46.000Z</time>
        <extensions>
          <ns3:TrackPointExtension>
            <ns3:atemp>32.0</ns3:atemp>
            <ns3:hr>83</ns3:hr>
          </ns3:TrackPointExtension>
        </extensions>
      </trkpt>
      <trkpt lat="36.84347103349864482879638671875" lon="-118.53810804896056652069091796875">
        <ele>2033.5999755859375</ele>
        <time>2021-06-28T16:37:47.000Z</time>
        <extensions>
          <ns3:TrackPointExtension>
            <ns3:atemp>32.0</ns3:atemp>
            <ns3:hr>83</ns3:hr>
          </ns3:TrackPointExtension>
        </extensions>
      </trkpt>
      <trkpt lat="36.84347103349864482879638671875" lon="-118.53810804896056652069091796875">
        <ele>2033.5999755859375</ele>
        <time>2021-06-28T16:37:48.000Z</time>
        <extensions>
          <ns3:TrackPointExtension>
            <ns3:atemp>32.0</ns3:atemp>
            <ns3:hr>84</ns3:hr>
          </ns3:TrackPointExtension>
        </extensions>
      </trkpt>
      <trkpt lat="36.84346868656575679779052734375" lon="-118.53813386522233486175537109375">
        <ele>2033.800048828125</ele>
        <time>2021-06-28T16:37:50.000Z</time>
        <extensions>
          <ns3:TrackPointExtension>
            <ns3:atemp>32.0</ns3:atemp>
            <ns3:hr>81</ns3:hr>
          </ns3:TrackPointExtension>
        </extensions>
      </trkpt>
      <trkpt lat="36.8434732966125011444091796875" lon="-118.53814207948744297027587890625">
        <ele>2034</ele>
        <time>2021-06-28T16:37:51.000Z</time>
        <extensions>
          <ns3:TrackPointExtension>
            <ns3:atemp>32.0</ns3:atemp>
            <ns3:hr>81</ns3:hr>
          </ns3:TrackPointExtension>
        </extensions>
      </trkpt>
      <trkpt lat="36.843460388481616973876953125" lon="-118.53815180249512195587158203125">
        <ele>2033.800048828125</ele>
        <time>2021-06-28T16:37:53.000Z</time>
        <extensions>
          <ns3:TrackPointExtension>
            <ns3:atemp>32.0</ns3:atemp>
            <ns3:hr>81</ns3:hr>
          </ns3:TrackPointExtension>
        </extensions>
      </trkpt>
      <trkpt lat="36.843445636332035064697265625" lon="-118.5381589271128177642822265625">
        <ele>2033.5999755859375</ele>
        <time>2021-06-28T16:37:55.000Z</time>
        <extensions>
          <ns3:TrackPointExtension>
            <ns3:atemp>32.0</ns3:atemp>
            <ns3:hr>83</ns3:hr>
          </ns3:TrackPointExtension>
        </extensions>
      </trkpt>
      <trkpt lat="36.84341185726225376129150390625" lon="-118.53819639421999454498291015625">
        <ele>2033.5999755859375</ele>
        <time>2021-06-28T16:37:58.000Z</time>
        <extensions>
          <ns3:TrackPointExtension>
            <ns3:atemp>32.0</ns3:atemp>
            <ns3:hr>87</ns3:hr>
          </ns3:TrackPointExtension>
        </extensions>
      </trkpt>
      <trkpt lat="36.8433995358645915985107421875" lon="-118.5382460989058017730712890625">
        <ele>2033.800048828125</ele>
        <time>2021-06-28T16:38:01.000Z</time>
        <extensions>
          <ns3:TrackPointExtension>
            <ns3:atemp>32.0</ns3:atemp>
            <ns3:hr>89</ns3:hr>
          </ns3:TrackPointExtension>
        </extensions>
      </trkpt>
      <trkpt lat="36.84334228746592998504638671875" lon="-118.53827015496790409088134765625">
        <ele>2034</ele>
        <time>2021-06-28T16:38:07.000Z</time>
        <extensions>
          <ns3:TrackPointExtension>
            <ns3:atemp>32.0</ns3:atemp>
            <ns3:hr>85</ns3:hr>
          </ns3:TrackPointExtension>
        </extensions>
      </trkpt>
      <trkpt lat="36.84324589557945728302001953125" lon="-118.5383788682520389556884765625">
        <ele>2033.4000244140625</ele>
        <time>2021-06-28T16:38:13.000Z</time>
        <extensions>
          <ns3:TrackPointExtension>
            <ns3:atemp>32.0</ns3:atemp>
            <ns3:hr>86</ns3:hr>
          </ns3:TrackPointExtension>
        </extensions>
      </trkpt>
      <trkpt lat="36.8432523496448993682861328125" lon="-118.53845556266605854034423828125">
        <ele>2033</ele>
        <time>2021-06-28T16:38:15.000Z</time>
        <extensions>
          <ns3:TrackPointExtension>
            <ns3:atemp>32.0</ns3:atemp>
            <ns3:hr>86</ns3:hr>
          </ns3:TrackPointExtension>
        </extensions>
      </trkpt>
      <trkpt lat="36.84322594664990901947021484375" lon="-118.53863409720361232757568359375">
        <ele>2032.800048828125</ele>
        <time>2021-06-28T16:38:24.000Z</time>
        <extensions>
          <ns3:TrackPointExtension>
            <ns3:atemp>32.0</ns3:atemp>
            <ns3:hr>85</ns3:hr>
          </ns3:TrackPointExtension>
        </extensions>
      </trkpt>
      <trkpt lat="36.84322829358279705047607421875" lon="-118.53866946883499622344970703125">
        <ele>2032.800048828125</ele>
        <time>2021-06-28T16:38:27.000Z</time>
        <extensions>
          <ns3:TrackPointExtension>
            <ns3:atemp>32.0</ns3:atemp>
            <ns3:hr>85</ns3:hr>
          </ns3:TrackPointExtension>
        </extensions>
      </trkpt>
      <trkpt lat="36.8432325683534145355224609375" lon="-118.53875999338924884796142578125">
        <ele>2033.4000244140625</ele>
        <time>2021-06-28T16:38:30.000Z</time>
        <extensions>
          <ns3:TrackPointExtension>
            <ns3:atemp>32.0</ns3:atemp>
            <ns3:hr>84</ns3:hr>
          </ns3:TrackPointExtension>
        </extensions>
      </trkpt>
      <trkpt lat="36.843230724334716796875" lon="-118.53879000060260295867919921875">
        <ele>2034</ele>
        <time>2021-06-28T16:38:33.000Z</time>
        <extensions>
          <ns3:TrackPointExtension>
            <ns3:atemp>32.0</ns3:atemp>
            <ns3:hr>84</ns3:hr>
          </ns3:TrackPointExtension>
        </extensions>
      </trkpt>
      <trkpt lat="36.84322007931768894195556640625" lon="-118.53881665505468845367431640625">
        <ele>2034.5999755859375</ele>
        <time>2021-06-28T16:38:36.000Z</time>
        <extensions>
          <ns3:TrackPointExtension>
            <ns3:atemp>32.0</ns3:atemp>
            <ns3:hr>86</ns3:hr>
          </ns3:TrackPointExtension>
        </extensions>
      </trkpt>
      <trkpt lat="36.8431864678859710693359375" lon="-118.53885236196219921112060546875">
        <ele>2035.4000244140625</ele>
        <time>2021-06-28T16:38:39.000Z</time>
        <extensions>
          <ns3:TrackPointExtension>
            <ns3:atemp>32.0</ns3:atemp>
            <ns3:hr>89</ns3:hr>
          </ns3:TrackPointExtension>
        </extensions>
      </trkpt>
      <trkpt lat="36.84318101964890956878662109375" lon="-118.5388626717031002044677734375">
        <ele>2035.4000244140625</ele>
        <time>2021-06-28T16:38:41.000Z</time>
        <extensions>
          <ns3:TrackPointExtension>
            <ns3:atemp>32.0</ns3:atemp>
            <ns3:hr>92</ns3:hr>
          </ns3:TrackPointExtension>
        </extensions>
      </trkpt>
      <trkpt lat="36.84317171573638916015625" lon="-118.53886627592146396636962890625">
        <ele>2036</ele>
        <time>2021-06-28T16:38:42.000Z</time>
        <extensions>
          <ns3:TrackPointExtension>
            <ns3:atemp>32.0</ns3:atemp>
            <ns3:hr>93</ns3:hr>
          </ns3:TrackPointExtension>
        </extensions>
      </trkpt>
      <trkpt lat="36.84315092861652374267578125" lon="-118.538891337811946868896484375">
        <ele>2036.5999755859375</ele>
        <time>2021-06-28T16:38:44.000Z</time>
        <extensions>
          <ns3:TrackPointExtension>
            <ns3:atemp>32.0</ns3:atemp>
            <ns3:hr>96</ns3:hr>
          </ns3:TrackPointExtension>
        </extensions>
      </trkpt>
      <trkpt lat="36.84313156642019748687744140625" lon="-118.5389163158833980560302734375">
        <ele>2037</ele>
        <time>2021-06-28T16:38:48.000Z</time>
        <extensions>
          <ns3:TrackPointExtension>
            <ns3:atemp>32.0</ns3:atemp>
            <ns3:hr>98</ns3:hr>
          </ns3:TrackPointExtension>
        </extensions>
      </trkpt>
      <trkpt lat="36.84310792945325374603271484375" lon="-118.53894590400159358978271484375">
        <ele>2037.5999755859375</ele>
        <time>2021-06-28T16:38:51.000Z</time>
        <extensions>
          <ns3:TrackPointExtension>
            <ns3:atemp>32.0</ns3:atemp>
            <ns3:hr>100</ns3:hr>
          </ns3:TrackPointExtension>
        </extensions>
      </trkpt>
      <trkpt lat="36.843103654682636260986328125" lon="-118.53898043744266033172607421875">
        <ele>2037.5999755859375</ele>
        <time>2021-06-28T16:38:53.000Z</time>
        <extensions>
          <ns3:TrackPointExtension>
            <ns3:atemp>32.0</ns3:atemp>
            <ns3:hr>101</ns3:hr>
          </ns3:TrackPointExtension>
        </extensions>
      </trkpt>
      <trkpt lat="36.84310005046427249908447265625" lon="-118.53899284265935420989990234375">
        <ele>2038</ele>
        <time>2021-06-28T16:38:55.000Z</time>
        <extensions>
          <ns3:TrackPointExtension>
            <ns3:atemp>32.0</ns3:atemp>
            <ns3:hr>102</ns3:hr>
          </ns3:TrackPointExtension>
        </extensions>
      </trkpt>
      <trkpt lat="36.843099296092987060546875" lon="-118.53900633752346038818359375">
        <ele>2038.199951171875</ele>
        <time>2021-06-28T16:38:56.000Z</time>
        <extensions>
          <ns3:TrackPointExtension>
            <ns3:atemp>32.0</ns3:atemp>
            <ns3:hr>102</ns3:hr>
          </ns3:TrackPointExtension>
        </extensions>
      </trkpt>
      <trkpt lat="36.843082867562770843505859375" lon="-118.5390229336917400360107421875">
        <ele>2038.5999755859375</ele>
        <time>2021-06-28T16:38:59.000Z</time>
        <extensions>
          <ns3:TrackPointExtension>
            <ns3:atemp>32.0</ns3:atemp>
            <ns3:hr>105</ns3:hr>
          </ns3:TrackPointExtension>
        </extensions>
      </trkpt>
      <trkpt lat="36.84307088144123554229736328125" lon="-118.5390271246433258056640625">
        <ele>2038.800048828125</ele>
        <time>2021-06-28T16:39:01.000Z</time>
        <extensions>
          <ns3:TrackPointExtension>
            <ns3:atemp>32.0</ns3:atemp>
            <ns3:hr>108</ns3:hr>
          </ns3:TrackPointExtension>
        </extensions>
      </trkpt>
      <trkpt lat="36.8430371023714542388916015625" lon="-118.53904388844966888427734375">
        <ele>2039</ele>
        <time>2021-06-28T16:39:03.000Z</time>
        <extensions>
          <ns3:TrackPointExtension>
            <ns3:atemp>32.0</ns3:atemp>
            <ns3:hr>110</ns3:hr>
          </ns3:TrackPointExtension>
        </extensions>
      </trkpt>
      <trkpt lat="36.84301078319549560546875" lon="-118.53907180018723011016845703125">
        <ele>2039.4000244140625</ele>
        <time>2021-06-28T16:39:06.000Z</time>
        <extensions>
          <ns3:TrackPointExtension>
            <ns3:atemp>32.0</ns3:atemp>
            <ns3:hr>113</ns3:hr>
          </ns3:TrackPointExtension>
        </extensions>
      </trkpt>
      <trkpt lat="36.84299108572304248809814453125" lon="-118.53910633362829685211181640625">
        <ele>2039.4000244140625</ele>
        <time>2021-06-28T16:39:10.000Z</time>
        <extensions>
          <ns3:TrackPointExtension>
            <ns3:atemp>32.0</ns3:atemp>
            <ns3:hr>115</ns3:hr>
          </ns3:TrackPointExtension>
        </extensions>
      </trkpt>
      <trkpt lat="36.84297951869666576385498046875" lon="-118.5391050763428211212158203125">
        <ele>2039.5999755859375</ele>
        <time>2021-06-28T16:39:11.000Z</time>
        <extensions>
          <ns3:TrackPointExtension>
            <ns3:atemp>32.0</ns3:atemp>
            <ns3:hr>115</ns3:hr>
          </ns3:TrackPointExtension>
        </extensions>
      </trkpt>
      <trkpt lat="36.8429127149283885955810546875" lon="-118.5391198284924030303955078125">
        <ele>2038.800048828125</ele>
        <time>2021-06-28T16:39:17.000Z</time>
        <extensions>
          <ns3:TrackPointExtension>
            <ns3:atemp>32.0</ns3:atemp>
            <ns3:hr>115</ns3:hr>
          </ns3:TrackPointExtension>
        </extensions>
      </trkpt>
      <trkpt lat="36.84285228140652179718017578125" lon="-118.53912762366235256195068359375">
        <ele>2038.4000244140625</ele>
        <time>2021-06-28T16:39:23.000Z</time>
        <extensions>
          <ns3:TrackPointExtension>
            <ns3:atemp>32.0</ns3:atemp>
            <ns3:hr>114</ns3:hr>
          </ns3:TrackPointExtension>
        </extensions>
      </trkpt>
      <trkpt lat="36.8428302370011806488037109375" lon="-118.53911069221794605255126953125">
        <ele>2038</ele>
        <time>2021-06-28T16:39:25.000Z</time>
        <extensions>
          <ns3:TrackPointExtension>
            <ns3:atemp>32.0</ns3:atemp>
            <ns3:hr>114</ns3:hr>
          </ns3:TrackPointExtension>
        </extensions>
      </trkpt>
      <trkpt lat="36.84277717955410480499267578125" lon="-118.53907112963497638702392578125">
        <ele>2037.199951171875</ele>
        <time>2021-06-28T16:39:32.000Z</time>
        <extensions>
          <ns3:TrackPointExtension>
            <ns3:atemp>32.0</ns3:atemp>
            <ns3:hr>115</ns3:hr>
          </ns3:TrackPointExtension>
        </extensions>
      </trkpt>
      <trkpt lat="36.842763684689998626708984375" lon="-118.5390593111515045166015625">
        <ele>2037</ele>
        <time>2021-06-28T16:39:33.000Z</time>
        <extensions>
          <ns3:TrackPointExtension>
            <ns3:atemp>32.0</ns3:atemp>
            <ns3:hr>115</ns3:hr>
          </ns3:TrackPointExtension>
        </extensions>
      </trkpt>
      <trkpt lat="36.8427397124469280242919921875" lon="-118.5390339978039264678955078125">
        <ele>2036.4000244140625</ele>
        <time>2021-06-28T16:39:37.000Z</time>
        <extensions>
          <ns3:TrackPointExtension>
            <ns3:atemp>32.0</ns3:atemp>
            <ns3:hr>113</ns3:hr>
          </ns3:TrackPointExtension>
        </extensions>
      </trkpt>
      <trkpt lat="36.84271062724292278289794921875" lon="-118.53902134113013744354248046875">
        <ele>2036</ele>
        <time>2021-06-28T16:39:39.000Z</time>
        <extensions>
          <ns3:TrackPointExtension>
            <ns3:atemp>32.0</ns3:atemp>
            <ns3:hr>113</ns3:hr>
          </ns3:TrackPointExtension>
        </extensions>
      </trkpt>
      <trkpt lat="36.842697970569133758544921875" lon="-118.5390098579227924346923828125">
        <ele>2036</ele>
        <time>2021-06-28T16:39:40.000Z</time>
        <extensions>
          <ns3:TrackPointExtension>
            <ns3:atemp>32.0</ns3:atemp>
            <ns3:hr>113</ns3:hr>
          </ns3:TrackPointExtension>
        </extensions>
      </trkpt>
      <trkpt lat="36.84269553981721401214599609375" lon="-118.53901170194149017333984375">
        <ele>2035.800048828125</ele>
        <time>2021-06-28T16:39:42.000Z</time>
        <extensions>
          <ns3:TrackPointExtension>
            <ns3:atemp>32.0</ns3:atemp>
            <ns3:hr>113</ns3:hr>
          </ns3:TrackPointExtension>
        </extensions>
      </trkpt>
      <trkpt lat="36.8426773510873317718505859375" lon="-118.53900633752346038818359375">
        <ele>2035</ele>
        <time>2021-06-28T16:39:44.000Z</time>
        <extensions>
          <ns3:TrackPointExtension>
            <ns3:atemp>32.0</ns3:atemp>
            <ns3:hr>112</ns3:hr>
          </ns3:TrackPointExtension>
        </extensions>
      </trkpt>
      <trkpt lat="36.84265195392072200775146484375" lon="-118.5390038229525089263916015625">
        <ele>2034.800048828125</ele>
        <time>2021-06-28T16:39:45.000Z</time>
        <extensions>
          <ns3:TrackPointExtension>
            <ns3:atemp>32.0</ns3:atemp>
            <ns3:hr>112</ns3:hr>
          </ns3:TrackPointExtension>
        </extensions>
      </trkpt>
      <trkpt lat="36.8426371179521083831787109375" lon="-118.53900432586669921875">
        <ele>2034.5999755859375</ele>
        <time>2021-06-28T16:39:47.000Z</time>
        <extensions>
          <ns3:TrackPointExtension>
            <ns3:atemp>32.0</ns3:atemp>
            <ns3:hr>113</ns3:hr>
          </ns3:TrackPointExtension>
        </extensions>
      </trkpt>
      <trkpt lat="36.8425848148763179779052734375" lon="-118.5389984585344791412353515625">
        <ele>2034.4000244140625</ele>
        <time>2021-06-28T16:39:51.000Z</time>
        <extensions>
          <ns3:TrackPointExtension>
            <ns3:atemp>32.0</ns3:atemp>
            <ns3:hr>116</ns3:hr>
          </ns3:TrackPointExtension>
        </extensions>
      </trkpt>
      <trkpt lat="36.84256712906062602996826171875" lon="-118.5389944352209568023681640625">
        <ele>2034.199951171875</ele>
        <time>2021-06-28T16:39:53.000Z</time>
        <extensions>
          <ns3:TrackPointExtension>
            <ns3:atemp>32.0</ns3:atemp>
            <ns3:hr>116</ns3:hr>
          </ns3:TrackPointExtension>
        </extensions>
      </trkpt>
      <trkpt lat="36.84256712906062602996826171875" lon="-118.5389944352209568023681640625">
        <ele>2034</ele>
        <time>2021-06-28T16:39:54.000Z</time>
        <extensions>
          <ns3:TrackPointExtension>
            <ns3:atemp>32.0</ns3:atemp>
            <ns3:hr>115</ns3:hr>
          </ns3:TrackPointExtension>
        </extensions>
      </trkpt>
      <trkpt lat="36.8425341881811618804931640625" lon="-118.53897624649107456207275390625">
        <ele>2034</ele>
        <time>2021-06-28T16:39:55.000Z</time>
        <extensions>
          <ns3:TrackPointExtension>
            <ns3:atemp>32.0</ns3:atemp>
            <ns3:hr>116</ns3:hr>
          </ns3:TrackPointExtension>
        </extensions>
      </trkpt>
      <trkpt lat="36.84243653900921344757080078125" lon="-118.53896400891244411468505859375">
        <ele>2034</ele>
        <time>2021-06-28T16:40:00.000Z</time>
        <extensions>
          <ns3:TrackPointExtension>
            <ns3:atemp>32.0</ns3:atemp>
            <ns3:hr>116</ns3:hr>
          </ns3:TrackPointExtension>
        </extensions>
      </trkpt>
      <trkpt lat="36.8424128182232379913330078125" lon="-118.53895730338990688323974609375">
        <ele>2034.199951171875</ele>
        <time>2021-06-28T16:40:02.000Z</time>
        <extensions>
          <ns3:TrackPointExtension>
            <ns3:atemp>32.0</ns3:atemp>
            <ns3:hr>114</ns3:hr>
          </ns3:TrackPointExtension>
        </extensions>
      </trkpt>
      <trkpt lat="36.842382140457630157470703125" lon="-118.53894732892513275146484375">
        <ele>2034.5999755859375</ele>
        <time>2021-06-28T16:40:06.000Z</time>
        <extensions>
          <ns3:TrackPointExtension>
            <ns3:atemp>32.0</ns3:atemp>
            <ns3:hr>115</ns3:hr>
          </ns3:TrackPointExtension>
        </extensions>
      </trkpt>
      <trkpt lat="36.84235003776848316192626953125" lon="-118.53892662562429904937744140625">
        <ele>2034.5999755859375</ele>
        <time>2021-06-28T16:40:08.000Z</time>
        <extensions>
          <ns3:TrackPointExtension>
            <ns3:atemp>32.0</ns3:atemp>
            <ns3:hr>113</ns3:hr>
          </ns3:TrackPointExtension>
        </extensions>
      </trkpt>
      <trkpt lat="36.84234249405562877655029296875" lon="-118.53892511688172817230224609375">
        <ele>2034.5999755859375</ele>
        <time>2021-06-28T16:40:09.000Z</time>
        <extensions>
          <ns3:TrackPointExtension>
            <ns3:atemp>32.0</ns3:atemp>
            <ns3:hr>113</ns3:hr>
          </ns3:TrackPointExtension>
        </extensions>
      </trkpt>
      <trkpt lat="36.84232103638350963592529296875" lon="-118.53892394341528415679931640625">
        <ele>2034.800048828125</ele>
        <time>2021-06-28T16:40:12.000Z</time>
        <extensions>
          <ns3:TrackPointExtension>
            <ns3:atemp>32.0</ns3:atemp>
            <ns3:hr>112</ns3:hr>
          </ns3:TrackPointExtension>
        </extensions>
      </trkpt>
      <trkpt lat="36.84230661951005458831787109375" lon="-118.53892846964299678802490234375">
        <ele>2035</ele>
        <time>2021-06-28T16:40:13.000Z</time>
        <extensions>
          <ns3:TrackPointExtension>
            <ns3:atemp>32.0</ns3:atemp>
            <ns3:hr>111</ns3:hr>
          </ns3:TrackPointExtension>
        </extensions>
      </trkpt>
      <trkpt lat="36.84229723177850246429443359375" lon="-118.5389359295368194580078125">
        <ele>2035</ele>
        <time>2021-06-28T16:40:14.000Z</time>
        <extensions>
          <ns3:TrackPointExtension>
            <ns3:atemp>32.0</ns3:atemp>
            <ns3:hr>110</ns3:hr>
          </ns3:TrackPointExtension>
        </extensions>
      </trkpt>
      <trkpt lat="36.8422864191234111785888671875" lon="-118.5389444790780544281005859375">
        <ele>2035</ele>
        <time>2021-06-28T16:40:15.000Z</time>
        <extensions>
          <ns3:TrackPointExtension>
            <ns3:atemp>32.0</ns3:atemp>
            <ns3:hr>109</ns3:hr>
          </ns3:TrackPointExtension>
        </extensions>
      </trkpt>
      <trkpt lat="36.84228516183793544769287109375" lon="-118.53896677494049072265625">
        <ele>2035.199951171875</ele>
        <time>2021-06-28T16:40:16.000Z</time>
        <extensions>
          <ns3:TrackPointExtension>
            <ns3:atemp>32.0</ns3:atemp>
            <ns3:hr>108</ns3:hr>
          </ns3:TrackPointExtension>
        </extensions>
      </trkpt>
      <trkpt lat="36.84227652847766876220703125" lon="-118.5389739833772182464599609375">
        <ele>2035.199951171875</ele>
        <time>2021-06-28T16:40:17.000Z</time>
        <extensions>
          <ns3:TrackPointExtension>
            <ns3:atemp>32.0</ns3:atemp>
            <ns3:hr>105</ns3:hr>
          </ns3:TrackPointExtension>
        </extensions>
      </trkpt>
      <trkpt lat="36.84227652847766876220703125" lon="-118.5389739833772182464599609375">
        <ele>2035.4000244140625</ele>
        <time>2021-06-28T16:40:18.000Z</time>
        <extensions>
          <ns3:TrackPointExtension>
            <ns3:atemp>32.0</ns3:atemp>
            <ns3:hr>107</ns3:hr>
          </ns3:TrackPointExtension>
        </extensions>
      </trkpt>
      <trkpt lat="36.84224777854979038238525390625" lon="-118.53897415101528167724609375">
        <ele>2035.5999755859375</ele>
        <time>2021-06-28T16:40:19.000Z</time>
        <extensions>
          <ns3:TrackPointExtension>
            <ns3:atemp>32.0</ns3:atemp>
            <ns3:hr>106</ns3:hr>
          </ns3:TrackPointExtension>
        </extensions>
      </trkpt>
      <trkpt lat="36.842228583991527557373046875" lon="-118.5389976203441619873046875">
        <ele>2035.800048828125</ele>
        <time>2021-06-28T16:40:21.000Z</time>
        <extensions>
          <ns3:TrackPointExtension>
            <ns3:atemp>32.0</ns3:atemp>
            <ns3:hr>104</ns3:hr>
          </ns3:TrackPointExtension>
        </extensions>
      </trkpt>
      <trkpt lat="36.842228583991527557373046875" lon="-118.5389976203441619873046875">
        <ele>2035.800048828125</ele>
        <time>2021-06-28T16:40:22.000Z</time>
        <extensions>
          <ns3:TrackPointExtension>
            <ns3:atemp>32.0</ns3:atemp>
            <ns3:hr>102</ns3:hr>
          </ns3:TrackPointExtension>
        </extensions>
      </trkpt>
      <trkpt lat="36.8421985767781734466552734375" lon="-118.53899896144866943359375">
        <ele>2035.800048828125</ele>
        <time>2021-06-28T16:40:23.000Z</time>
        <extensions>
          <ns3:TrackPointExtension>
            <ns3:atemp>32.0</ns3:atemp>
            <ns3:hr>101</ns3:hr>
          </ns3:TrackPointExtension>
        </extensions>
      </trkpt>
      <trkpt lat="36.8421865068376064300537109375" lon="-118.53899896144866943359375">
        <ele>2036</ele>
        <time>2021-06-28T16:40:25.000Z</time>
        <extensions>
          <ns3:TrackPointExtension>
            <ns3:atemp>32.0</ns3:atemp>
            <ns3:hr>98</ns3:hr>
          </ns3:TrackPointExtension>
        </extensions>
      </trkpt>
      <trkpt lat="36.842171587049961090087890625" lon="-118.5389924235641956329345703125">
        <ele>2036.199951171875</ele>
        <time>2021-06-28T16:40:26.000Z</time>
        <extensions>
          <ns3:TrackPointExtension>
            <ns3:atemp>32.0</ns3:atemp>
            <ns3:hr>97</ns3:hr>
          </ns3:TrackPointExtension>
        </extensions>
      </trkpt>
      <trkpt lat="36.842140071094036102294921875" lon="-118.5389713011682033538818359375">
        <ele>2036.199951171875</ele>
        <time>2021-06-28T16:40:28.000Z</time>
        <extensions>
          <ns3:TrackPointExtension>
            <ns3:atemp>32.0</ns3:atemp>
            <ns3:hr>97</ns3:hr>
          </ns3:TrackPointExtension>
        </extensions>
      </trkpt>
      <trkpt lat="36.8421001732349395751953125" lon="-118.53895428590476512908935546875">
        <ele>2036.199951171875</ele>
        <time>2021-06-28T16:40:31.000Z</time>
        <extensions>
          <ns3:TrackPointExtension>
            <ns3:atemp>32.0</ns3:atemp>
            <ns3:hr>97</ns3:hr>
          </ns3:TrackPointExtension>
        </extensions>
      </trkpt>
      <trkpt lat="36.84209723956882953643798828125" lon="-118.53896602056920528411865234375">
        <ele>2036</ele>
        <time>2021-06-28T16:40:32.000Z</time>
        <extensions>
          <ns3:TrackPointExtension>
            <ns3:atemp>32.0</ns3:atemp>
            <ns3:hr>97</ns3:hr>
          </ns3:TrackPointExtension>
        </extensions>
      </trkpt>
      <trkpt lat="36.84208718128502368927001953125" lon="-118.53895596228539943695068359375">
        <ele>2035.800048828125</ele>
        <time>2021-06-28T16:40:33.000Z</time>
        <extensions>
          <ns3:TrackPointExtension>
            <ns3:atemp>32.0</ns3:atemp>
            <ns3:hr>97</ns3:hr>
          </ns3:TrackPointExtension>
        </extensions>
      </trkpt>
      <trkpt lat="36.84207544662058353424072265625" lon="-118.53893567807972431182861328125">
        <ele>2035.4000244140625</ele>
        <time>2021-06-28T16:40:36.000Z</time>
        <extensions>
          <ns3:TrackPointExtension>
            <ns3:atemp>32.0</ns3:atemp>
            <ns3:hr>97</ns3:hr>
          </ns3:TrackPointExtension>
        </extensions>
      </trkpt>
      <trkpt lat="36.84203445911407470703125" lon="-118.538879938423633575439453125">
        <ele>2034.800048828125</ele>
        <time>2021-06-28T16:40:39.000Z</time>
        <extensions>
          <ns3:TrackPointExtension>
            <ns3:atemp>32.0</ns3:atemp>
            <ns3:hr>96</ns3:hr>
          </ns3:TrackPointExtension>
        </extensions>
      </trkpt>
      <trkpt lat="36.8420208804309368133544921875" lon="-118.53886292316019535064697265625">
        <ele>2034.5999755859375</ele>
        <time>2021-06-28T16:40:42.000Z</time>
        <extensions>
          <ns3:TrackPointExtension>
            <ns3:atemp>32.0</ns3:atemp>
            <ns3:hr>96</ns3:hr>
          </ns3:TrackPointExtension>
        </extensions>
      </trkpt>
      <trkpt lat="36.84197939001023769378662109375" lon="-118.53883123956620693206787109375">
        <ele>2034</ele>
        <time>2021-06-28T16:40:46.000Z</time>
        <extensions>
          <ns3:TrackPointExtension>
            <ns3:atemp>32.0</ns3:atemp>
            <ns3:hr>95</ns3:hr>
          </ns3:TrackPointExtension>
        </extensions>
      </trkpt>
      <trkpt lat="36.8419652245938777923583984375" lon="-118.53882604278624057769775390625">
        <ele>2034</ele>
        <time>2021-06-28T16:40:48.000Z</time>
        <extensions>
          <ns3:TrackPointExtension>
            <ns3:atemp>32.0</ns3:atemp>
            <ns3:hr>95</ns3:hr>
          </ns3:TrackPointExtension>
        </extensions>
      </trkpt>
      <trkpt lat="36.84191166423261165618896484375" lon="-118.53881095536053180694580078125">
        <ele>2033.800048828125</ele>
        <time>2021-06-28T16:40:53.000Z</time>
        <extensions>
          <ns3:TrackPointExtension>
            <ns3:atemp>32.0</ns3:atemp>
            <ns3:hr>97</ns3:hr>
          </ns3:TrackPointExtension>
        </extensions>
      </trkpt>
      <trkpt lat="36.84185399673879146575927734375" lon="-118.53881246410310268402099609375">
        <ele>2033.4000244140625</ele>
        <time>2021-06-28T16:40:55.000Z</time>
        <extensions>
          <ns3:TrackPointExtension>
            <ns3:atemp>32.0</ns3:atemp>
            <ns3:hr>97</ns3:hr>
          </ns3:TrackPointExtension>
        </extensions>
      </trkpt>
      <trkpt lat="36.8418455310165882110595703125" lon="-118.53881514631211757659912109375">
        <ele>2033.4000244140625</ele>
        <time>2021-06-28T16:40:56.000Z</time>
        <extensions>
          <ns3:TrackPointExtension>
            <ns3:atemp>32.0</ns3:atemp>
            <ns3:hr>96</ns3:hr>
          </ns3:TrackPointExtension>
        </extensions>
      </trkpt>
      <trkpt lat="36.8418358080089092254638671875" lon="-118.53880626149475574493408203125">
        <ele>2033.4000244140625</ele>
        <time>2021-06-28T16:40:57.000Z</time>
        <extensions>
          <ns3:TrackPointExtension>
            <ns3:atemp>32.0</ns3:atemp>
            <ns3:hr>96</ns3:hr>
          </ns3:TrackPointExtension>
        </extensions>
      </trkpt>
      <trkpt lat="36.84180186130106449127197265625" lon="-118.53880726732313632965087890625">
        <ele>2033.4000244140625</ele>
        <time>2021-06-28T16:41:01.000Z</time>
        <extensions>
          <ns3:TrackPointExtension>
            <ns3:atemp>32.0</ns3:atemp>
            <ns3:hr>95</ns3:hr>
          </ns3:TrackPointExtension>
        </extensions>
      </trkpt>
      <trkpt lat="36.8417392484843730926513671875" lon="-118.538857139647006988525390625">
        <ele>2033</ele>
        <time>2021-06-28T16:41:09.000Z</time>
        <extensions>
          <ns3:TrackPointExtension>
            <ns3:atemp>32.0</ns3:atemp>
            <ns3:hr>96</ns3:hr>
          </ns3:TrackPointExtension>
        </extensions>
      </trkpt>
      <trkpt lat="36.84172508306801319122314453125" lon="-118.53886879049241542816162109375">
        <ele>2032.800048828125</ele>
        <time>2021-06-28T16:41:10.000Z</time>
        <extensions>
          <ns3:TrackPointExtension>
            <ns3:atemp>32.0</ns3:atemp>
            <ns3:hr>95</ns3:hr>
          </ns3:TrackPointExtension>
        </extensions>
      </trkpt>
      <trkpt lat="36.8416983447968959808349609375" lon="-118.538951016962528228759765625">
        <ele>2032.4000244140625</ele>
        <time>2021-06-28T16:41:14.000Z</time>
        <extensions>
          <ns3:TrackPointExtension>
            <ns3:atemp>32.0</ns3:atemp>
            <ns3:hr>96</ns3:hr>
          </ns3:TrackPointExtension>
        </extensions>
      </trkpt>
      <trkpt lat="36.8416926451027393341064453125" lon="-118.53896434418857097625732421875">
        <ele>2032.199951171875</ele>
        <time>2021-06-28T16:41:15.000Z</time>
        <extensions>
          <ns3:TrackPointExtension>
            <ns3:atemp>32.0</ns3:atemp>
            <ns3:hr>98</ns3:hr>
          </ns3:TrackPointExtension>
        </extensions>
      </trkpt>
      <trkpt lat="36.84168132953345775604248046875" lon="-118.53895562700927257537841796875">
        <ele>2032.199951171875</ele>
        <time>2021-06-28T16:41:17.000Z</time>
        <extensions>
          <ns3:TrackPointExtension>
            <ns3:atemp>32.0</ns3:atemp>
            <ns3:hr>98</ns3:hr>
          </ns3:TrackPointExtension>
        </extensions>
      </trkpt>
      <trkpt lat="36.8416710197925567626953125" lon="-118.538950346410274505615234375">
        <ele>2032.199951171875</ele>
        <time>2021-06-28T16:41:18.000Z</time>
        <extensions>
          <ns3:TrackPointExtension>
            <ns3:atemp>32.0</ns3:atemp>
            <ns3:hr>95</ns3:hr>
          </ns3:TrackPointExtension>
        </extensions>
      </trkpt>
      <trkpt lat="36.841658614575862884521484375" lon="-118.538944981992244720458984375">
        <ele>2032.199951171875</ele>
        <time>2021-06-28T16:41:20.000Z</time>
        <extensions>
          <ns3:TrackPointExtension>
            <ns3:atemp>32.0</ns3:atemp>
            <ns3:hr>93</ns3:hr>
          </ns3:TrackPointExtension>
        </extensions>
      </trkpt>
      <trkpt lat="36.8416208960115909576416015625" lon="-118.5389441438019275665283203125">
        <ele>2032.199951171875</ele>
        <time>2021-06-28T16:41:22.000Z</time>
        <extensions>
          <ns3:TrackPointExtension>
            <ns3:atemp>32.0</ns3:atemp>
            <ns3:hr>92</ns3:hr>
          </ns3:TrackPointExtension>
        </extensions>
      </trkpt>
      <trkpt lat="36.8416145257651805877685546875" lon="-118.53895269334316253662109375">
        <ele>2032.4000244140625</ele>
        <time>2021-06-28T16:41:24.000Z</time>
        <extensions>
          <ns3:TrackPointExtension>
            <ns3:atemp>32.0</ns3:atemp>
            <ns3:hr>92</ns3:hr>
          </ns3:TrackPointExtension>
        </extensions>
      </trkpt>
      <trkpt lat="36.8415535055100917816162109375" lon="-118.53897524066269397735595703125">
        <ele>2032.800048828125</ele>
        <time>2021-06-28T16:41:29.000Z</time>
        <extensions>
          <ns3:TrackPointExtension>
            <ns3:atemp>32.0</ns3:atemp>
            <ns3:hr>94</ns3:hr>
          </ns3:TrackPointExtension>
        </extensions>
      </trkpt>
      <trkpt lat="36.8415166251361370086669921875" lon="-118.53898487985134124755859375">
        <ele>2032.4000244140625</ele>
        <time>2021-06-28T16:41:32.000Z</time>
        <extensions>
          <ns3:TrackPointExtension>
            <ns3:atemp>32.0</ns3:atemp>
            <ns3:hr>96</ns3:hr>
          </ns3:TrackPointExtension>
        </extensions>
      </trkpt>
      <trkpt lat="36.8414810858666896820068359375" lon="-118.5389873944222927093505859375">
        <ele>2032.4000244140625</ele>
        <time>2021-06-28T16:41:35.000Z</time>
        <extensions>
          <ns3:TrackPointExtension>
            <ns3:atemp>32.0</ns3:atemp>
            <ns3:hr>97</ns3:hr>
          </ns3:TrackPointExtension>
        </extensions>
      </trkpt>
      <trkpt lat="36.8414680100977420806884765625" lon="-118.5389907471835613250732421875">
        <ele>2032.4000244140625</ele>
        <time>2021-06-28T16:41:37.000Z</time>
        <extensions>
          <ns3:TrackPointExtension>
            <ns3:atemp>32.0</ns3:atemp>
            <ns3:hr>97</ns3:hr>
          </ns3:TrackPointExtension>
        </extensions>
      </trkpt>
      <trkpt lat="36.84140506200492382049560546875" lon="-118.53896585293114185333251953125">
        <ele>2032</ele>
        <time>2021-06-28T16:41:43.000Z</time>
        <extensions>
          <ns3:TrackPointExtension>
            <ns3:atemp>32.0</ns3:atemp>
            <ns3:hr>96</ns3:hr>
          </ns3:TrackPointExtension>
        </extensions>
      </trkpt>
      <trkpt lat="36.8413999490439891815185546875" lon="-118.538969121873378753662109375">
        <ele>2032</ele>
        <time>2021-06-28T16:41:46.000Z</time>
        <extensions>
          <ns3:TrackPointExtension>
            <ns3:atemp>32.0</ns3:atemp>
            <ns3:hr>95</ns3:hr>
          </ns3:TrackPointExtension>
        </extensions>
      </trkpt>
      <trkpt lat="36.8413972668349742889404296875" lon="-118.5389662720263004302978515625">
        <ele>2031.800048828125</ele>
        <time>2021-06-28T16:41:48.000Z</time>
        <extensions>
          <ns3:TrackPointExtension>
            <ns3:atemp>32.0</ns3:atemp>
            <ns3:hr>96</ns3:hr>
          </ns3:TrackPointExtension>
        </extensions>
      </trkpt>
      <trkpt lat="36.84139567427337169647216796875" lon="-118.538965769112110137939453125">
        <ele>2032</ele>
        <time>2021-06-28T16:41:49.000Z</time>
        <extensions>
          <ns3:TrackPointExtension>
            <ns3:atemp>32.0</ns3:atemp>
            <ns3:hr>97</ns3:hr>
          </ns3:TrackPointExtension>
        </extensions>
      </trkpt>
      <trkpt lat="36.84138528071343898773193359375" lon="-118.5389528609812259674072265625">
        <ele>2032</ele>
        <time>2021-06-28T16:41:51.000Z</time>
        <extensions>
          <ns3:TrackPointExtension>
            <ns3:atemp>32.0</ns3:atemp>
            <ns3:hr>94</ns3:hr>
          </ns3:TrackPointExtension>
        </extensions>
      </trkpt>
      <trkpt lat="36.84138528071343898773193359375" lon="-118.5389528609812259674072265625">
        <ele>2032</ele>
        <time>2021-06-28T16:41:52.000Z</time>
        <extensions>
          <ns3:TrackPointExtension>
            <ns3:atemp>32.0</ns3:atemp>
            <ns3:hr>94</ns3:hr>
          </ns3:TrackPointExtension>
        </extensions>
      </trkpt>
      <trkpt lat="36.8413771502673625946044921875" lon="-118.53894255124032497406005859375">
        <ele>2032.199951171875</ele>
        <time>2021-06-28T16:41:53.000Z</time>
        <extensions>
          <ns3:TrackPointExtension>
            <ns3:atemp>32.0</ns3:atemp>
            <ns3:hr>94</ns3:hr>
          </ns3:TrackPointExtension>
        </extensions>
      </trkpt>
      <trkpt lat="36.84134253300726413726806640625" lon="-118.53891723789274692535400390625">
        <ele>2032</ele>
        <time>2021-06-28T16:41:55.000Z</time>
        <extensions>
          <ns3:TrackPointExtension>
            <ns3:atemp>32.0</ns3:atemp>
            <ns3:hr>95</ns3:hr>
          </ns3:TrackPointExtension>
        </extensions>
      </trkpt>
      <trkpt lat="36.841319985687732696533203125" lon="-118.5389102809131145477294921875">
        <ele>2032</ele>
        <time>2021-06-28T16:41:58.000Z</time>
        <extensions>
          <ns3:TrackPointExtension>
            <ns3:atemp>32.0</ns3:atemp>
            <ns3:hr>96</ns3:hr>
          </ns3:TrackPointExtension>
        </extensions>
      </trkpt>
      <trkpt lat="36.84131721965968608856201171875" lon="-118.53891070000827312469482421875">
        <ele>2032</ele>
        <time>2021-06-28T16:41:59.000Z</time>
        <extensions>
          <ns3:TrackPointExtension>
            <ns3:atemp>32.0</ns3:atemp>
            <ns3:hr>95</ns3:hr>
          </ns3:TrackPointExtension>
        </extensions>
      </trkpt>
      <trkpt lat="36.84128117747604846954345703125" lon="-118.5388827882707118988037109375">
        <ele>2032.199951171875</ele>
        <time>2021-06-28T16:42:03.000Z</time>
        <extensions>
          <ns3:TrackPointExtension>
            <ns3:atemp>32.0</ns3:atemp>
            <ns3:hr>93</ns3:hr>
          </ns3:TrackPointExtension>
        </extensions>
      </trkpt>
      <trkpt lat="36.8412406928837299346923828125" lon="-118.53885957039892673492431640625">
        <ele>2032.199951171875</ele>
        <time>2021-06-28T16:42:05.000Z</time>
        <extensions>
          <ns3:TrackPointExtension>
            <ns3:atemp>32.0</ns3:atemp>
            <ns3:hr>92</ns3:hr>
          </ns3:TrackPointExtension>
        </extensions>
      </trkpt>
      <trkpt lat="36.8412406928837299346923828125" lon="-118.53885957039892673492431640625">
        <ele>2032.5999755859375</ele>
        <time>2021-06-28T16:42:06.000Z</time>
        <extensions>
          <ns3:TrackPointExtension>
            <ns3:atemp>32.0</ns3:atemp>
            <ns3:hr>91</ns3:hr>
          </ns3:TrackPointExtension>
        </extensions>
      </trkpt>
      <trkpt lat="36.84121169149875640869140625" lon="-118.53887599892914295196533203125">
        <ele>2032.5999755859375</ele>
        <time>2021-06-28T16:42:08.000Z</time>
        <extensions>
          <ns3:TrackPointExtension>
            <ns3:atemp>32.0</ns3:atemp>
            <ns3:hr>90</ns3:hr>
          </ns3:TrackPointExtension>
        </extensions>
      </trkpt>
      <trkpt lat="36.8411957658827304840087890625" lon="-118.53889158926904201507568359375">
        <ele>2032.4000244140625</ele>
        <time>2021-06-28T16:42:10.000Z</time>
        <extensions>
          <ns3:TrackPointExtension>
            <ns3:atemp>32.0</ns3:atemp>
            <ns3:hr>93</ns3:hr>
          </ns3:TrackPointExtension>
        </extensions>
      </trkpt>
      <trkpt lat="36.841177828609943389892578125" lon="-118.5388975404202938079833984375">
        <ele>2032.199951171875</ele>
        <time>2021-06-28T16:42:12.000Z</time>
        <extensions>
          <ns3:TrackPointExtension>
            <ns3:atemp>32.0</ns3:atemp>
            <ns3:hr>90</ns3:hr>
          </ns3:TrackPointExtension>
        </extensions>
      </trkpt>
      <trkpt lat="36.841127872467041015625" lon="-118.53889695368707180023193359375">
        <ele>2032.4000244140625</ele>
        <time>2021-06-28T16:42:17.000Z</time>
        <extensions>
          <ns3:TrackPointExtension>
            <ns3:atemp>32.0</ns3:atemp>
            <ns3:hr>93</ns3:hr>
          </ns3:TrackPointExtension>
        </extensions>
      </trkpt>
      <trkpt lat="36.8411230109632015228271484375" lon="-118.5389106161892414093017578125">
        <ele>2032.4000244140625</ele>
        <time>2021-06-28T16:42:19.000Z</time>
        <extensions>
          <ns3:TrackPointExtension>
            <ns3:atemp>32.0</ns3:atemp>
            <ns3:hr>93</ns3:hr>
          </ns3:TrackPointExtension>
        </extensions>
      </trkpt>
      <trkpt lat="36.841113455593585968017578125" lon="-118.53891505859792232513427734375">
        <ele>2032.199951171875</ele>
        <time>2021-06-28T16:42:22.000Z</time>
        <extensions>
          <ns3:TrackPointExtension>
            <ns3:atemp>32.0</ns3:atemp>
            <ns3:hr>93</ns3:hr>
          </ns3:TrackPointExtension>
        </extensions>
      </trkpt>
      <trkpt lat="36.84108420275151729583740234375" lon="-118.538899384438991546630859375">
        <ele>2031.800048828125</ele>
        <time>2021-06-28T16:42:25.000Z</time>
        <extensions>
          <ns3:TrackPointExtension>
            <ns3:atemp>32.0</ns3:atemp>
            <ns3:hr>90</ns3:hr>
          </ns3:TrackPointExtension>
        </extensions>
      </trkpt>
      <trkpt lat="36.84107431210577487945556640625" lon="-118.538899384438991546630859375">
        <ele>2032</ele>
        <time>2021-06-28T16:42:26.000Z</time>
        <extensions>
          <ns3:TrackPointExtension>
            <ns3:atemp>32.0</ns3:atemp>
            <ns3:hr>93</ns3:hr>
          </ns3:TrackPointExtension>
        </extensions>
      </trkpt>
      <trkpt lat="36.84105687774717807769775390625" lon="-118.53888656012713909149169921875">
        <ele>2031.4000244140625</ele>
        <time>2021-06-28T16:42:29.000Z</time>
        <extensions>
          <ns3:TrackPointExtension>
            <ns3:atemp>32.0</ns3:atemp>
            <ns3:hr>93</ns3:hr>
          </ns3:TrackPointExtension>
        </extensions>
      </trkpt>
      <trkpt lat="36.8410301394760608673095703125" lon="-118.53887935169041156768798828125">
        <ele>2031.4000244140625</ele>
        <time>2021-06-28T16:42:31.000Z</time>
        <extensions>
          <ns3:TrackPointExtension>
            <ns3:atemp>32.0</ns3:atemp>
            <ns3:hr>93</ns3:hr>
          </ns3:TrackPointExtension>
        </extensions>
      </trkpt>
      <trkpt lat="36.840990744531154632568359375" lon="-118.5388801060616970062255859375">
        <ele>2031.4000244140625</ele>
        <time>2021-06-28T16:42:36.000Z</time>
        <extensions>
          <ns3:TrackPointExtension>
            <ns3:atemp>32.0</ns3:atemp>
            <ns3:hr>92</ns3:hr>
          </ns3:TrackPointExtension>
        </extensions>
      </trkpt>
      <trkpt lat="36.840920336544513702392578125" lon="-118.53881045244634151458740234375">
        <ele>2031.199951171875</ele>
        <time>2021-06-28T16:42:39.000Z</time>
        <extensions>
          <ns3:TrackPointExtension>
            <ns3:atemp>32.0</ns3:atemp>
            <ns3:hr>89</ns3:hr>
          </ns3:TrackPointExtension>
        </extensions>
      </trkpt>
      <trkpt lat="36.84089276008307933807373046875" lon="-118.5387937724590301513671875">
        <ele>2031.199951171875</ele>
        <time>2021-06-28T16:42:41.000Z</time>
        <extensions>
          <ns3:TrackPointExtension>
            <ns3:atemp>32.0</ns3:atemp>
            <ns3:hr>88</ns3:hr>
          </ns3:TrackPointExtension>
        </extensions>
      </trkpt>
      <trkpt lat="36.84087499044835567474365234375" lon="-118.53879553265869617462158203125">
        <ele>2031.199951171875</ele>
        <time>2021-06-28T16:42:42.000Z</time>
        <extensions>
          <ns3:TrackPointExtension>
            <ns3:atemp>32.0</ns3:atemp>
            <ns3:hr>89</ns3:hr>
          </ns3:TrackPointExtension>
        </extensions>
      </trkpt>
      <trkpt lat="36.840852610766887664794921875" lon="-118.53880609385669231414794921875">
        <ele>2030.4000244140625</ele>
        <time>2021-06-28T16:42:45.000Z</time>
        <extensions>
          <ns3:TrackPointExtension>
            <ns3:atemp>32.0</ns3:atemp>
            <ns3:hr>89</ns3:hr>
          </ns3:TrackPointExtension>
        </extensions>
      </trkpt>
      <trkpt lat="36.8408376909792423248291015625" lon="-118.5388237796723842620849609375">
        <ele>2030.4000244140625</ele>
        <time>2021-06-28T16:42:47.000Z</time>
        <extensions>
          <ns3:TrackPointExtension>
            <ns3:atemp>32.0</ns3:atemp>
            <ns3:hr>89</ns3:hr>
          </ns3:TrackPointExtension>
        </extensions>
      </trkpt>
      <trkpt lat="36.8408299796283245086669921875" lon="-118.5388281382620334625244140625">
        <ele>2030.199951171875</ele>
        <time>2021-06-28T16:42:48.000Z</time>
        <extensions>
          <ns3:TrackPointExtension>
            <ns3:atemp>32.0</ns3:atemp>
            <ns3:hr>89</ns3:hr>
          </ns3:TrackPointExtension>
        </extensions>
      </trkpt>
      <trkpt lat="36.840794943273067474365234375" lon="-118.53883861564099788665771484375">
        <ele>2030.5999755859375</ele>
        <time>2021-06-28T16:42:50.000Z</time>
        <extensions>
          <ns3:TrackPointExtension>
            <ns3:atemp>32.0</ns3:atemp>
            <ns3:hr>90</ns3:hr>
          </ns3:TrackPointExtension>
        </extensions>
      </trkpt>
      <trkpt lat="36.840723194181919097900390625" lon="-118.5388527810573577880859375">
        <ele>2030.5999755859375</ele>
        <time>2021-06-28T16:42:55.000Z</time>
        <extensions>
          <ns3:TrackPointExtension>
            <ns3:atemp>32.0</ns3:atemp>
            <ns3:hr>90</ns3:hr>
          </ns3:TrackPointExtension>
        </extensions>
      </trkpt>
      <trkpt lat="36.840723194181919097900390625" lon="-118.5388527810573577880859375">
        <ele>2030.800048828125</ele>
        <time>2021-06-28T16:42:56.000Z</time>
        <extensions>
          <ns3:TrackPointExtension>
            <ns3:atemp>32.0</ns3:atemp>
            <ns3:hr>92</ns3:hr>
          </ns3:TrackPointExtension>
        </extensions>
      </trkpt>
      <trkpt lat="36.84071942232549190521240234375" lon="-118.53886225260794162750244140625">
        <ele>2030.800048828125</ele>
        <time>2021-06-28T16:42:57.000Z</time>
        <extensions>
          <ns3:TrackPointExtension>
            <ns3:atemp>32.0</ns3:atemp>
            <ns3:hr>90</ns3:hr>
          </ns3:TrackPointExtension>
        </extensions>
      </trkpt>
      <trkpt lat="36.84072243981063365936279296875" lon="-118.53889946825802326202392578125">
        <ele>2030.800048828125</ele>
        <time>2021-06-28T16:43:00.000Z</time>
        <extensions>
          <ns3:TrackPointExtension>
            <ns3:atemp>32.0</ns3:atemp>
            <ns3:hr>90</ns3:hr>
          </ns3:TrackPointExtension>
        </extensions>
      </trkpt>
      <trkpt lat="36.84068170376121997833251953125" lon="-118.53896669112145900726318359375">
        <ele>2030.5999755859375</ele>
        <time>2021-06-28T16:43:05.000Z</time>
        <extensions>
          <ns3:TrackPointExtension>
            <ns3:atemp>32.0</ns3:atemp>
            <ns3:hr>91</ns3:hr>
          </ns3:TrackPointExtension>
        </extensions>
      </trkpt>
      <trkpt lat="36.84065789915621280670166015625" lon="-118.5390356741845607757568359375">
        <ele>2030.5999755859375</ele>
        <time>2021-06-28T16:43:10.000Z</time>
        <extensions>
          <ns3:TrackPointExtension>
            <ns3:atemp>32.0</ns3:atemp>
            <ns3:hr>91</ns3:hr>
          </ns3:TrackPointExtension>
        </extensions>
      </trkpt>
      <trkpt lat="36.840615235269069671630859375" lon="-118.539051599800586700439453125">
        <ele>2030.4000244140625</ele>
        <time>2021-06-28T16:43:14.000Z</time>
        <extensions>
          <ns3:TrackPointExtension>
            <ns3:atemp>32.0</ns3:atemp>
            <ns3:hr>93</ns3:hr>
          </ns3:TrackPointExtension>
        </extensions>
      </trkpt>
      <trkpt lat="36.84061766602098941802978515625" lon="-118.539111949503421783447265625">
        <ele>2030.4000244140625</ele>
        <time>2021-06-28T16:43:19.000Z</time>
        <extensions>
          <ns3:TrackPointExtension>
            <ns3:atemp>32.0</ns3:atemp>
            <ns3:hr>92</ns3:hr>
          </ns3:TrackPointExtension>
        </extensions>
      </trkpt>
      <trkpt lat="36.84062487445771694183349609375" lon="-118.5391295515000820159912109375">
        <ele>2030.4000244140625</ele>
        <time>2021-06-28T16:43:20.000Z</time>
        <extensions>
          <ns3:TrackPointExtension>
            <ns3:atemp>32.0</ns3:atemp>
            <ns3:hr>91</ns3:hr>
          </ns3:TrackPointExtension>
        </extensions>
      </trkpt>
      <trkpt lat="36.84062101878225803375244140625" lon="-118.53917020373046398162841796875">
        <ele>2030.800048828125</ele>
        <time>2021-06-28T16:43:23.000Z</time>
        <extensions>
          <ns3:TrackPointExtension>
            <ns3:atemp>32.0</ns3:atemp>
            <ns3:hr>94</ns3:hr>
          </ns3:TrackPointExtension>
        </extensions>
      </trkpt>
      <trkpt lat="36.8405741639435291290283203125" lon="-118.53917657397687435150146484375">
        <ele>2030.800048828125</ele>
        <time>2021-06-28T16:43:27.000Z</time>
        <extensions>
          <ns3:TrackPointExtension>
            <ns3:atemp>32.0</ns3:atemp>
            <ns3:hr>92</ns3:hr>
          </ns3:TrackPointExtension>
        </extensions>
      </trkpt>
      <trkpt lat="36.84056083671748638153076171875" lon="-118.539180345833301544189453125">
        <ele>2030.5999755859375</ele>
        <time>2021-06-28T16:43:29.000Z</time>
        <extensions>
          <ns3:TrackPointExtension>
            <ns3:atemp>32.0</ns3:atemp>
            <ns3:hr>89</ns3:hr>
          </ns3:TrackPointExtension>
        </extensions>
      </trkpt>
      <trkpt lat="36.84054608456790447235107421875" lon="-118.539189063012599945068359375">
        <ele>2030.5999755859375</ele>
        <time>2021-06-28T16:43:30.000Z</time>
        <extensions>
          <ns3:TrackPointExtension>
            <ns3:atemp>32.0</ns3:atemp>
            <ns3:hr>92</ns3:hr>
          </ns3:TrackPointExtension>
        </extensions>
      </trkpt>
      <trkpt lat="36.84050719253718852996826171875" lon="-118.5392023064196109771728515625">
        <ele>2030.800048828125</ele>
        <time>2021-06-28T16:43:31.000Z</time>
        <extensions>
          <ns3:TrackPointExtension>
            <ns3:atemp>32.0</ns3:atemp>
            <ns3:hr>92</ns3:hr>
          </ns3:TrackPointExtension>
        </extensions>
      </trkpt>
      <trkpt lat="36.8404571525752544403076171875" lon="-118.53921295143663883209228515625">
        <ele>2030.800048828125</ele>
        <time>2021-06-28T16:43:35.000Z</time>
        <extensions>
          <ns3:TrackPointExtension>
            <ns3:atemp>32.0</ns3:atemp>
            <ns3:hr>91</ns3:hr>
          </ns3:TrackPointExtension>
        </extensions>
      </trkpt>
      <trkpt lat="36.8404387123882770538330078125" lon="-118.53923390619456768035888671875">
        <ele>2030.800048828125</ele>
        <time>2021-06-28T16:43:37.000Z</time>
        <extensions>
          <ns3:TrackPointExtension>
            <ns3:atemp>32.0</ns3:atemp>
            <ns3:hr>91</ns3:hr>
          </ns3:TrackPointExtension>
        </extensions>
      </trkpt>
      <trkpt lat="36.84042102657258510589599609375" lon="-118.53925184346735477447509765625">
        <ele>2030.800048828125</ele>
        <time>2021-06-28T16:43:39.000Z</time>
        <extensions>
          <ns3:TrackPointExtension>
            <ns3:atemp>32.0</ns3:atemp>
            <ns3:hr>91</ns3:hr>
          </ns3:TrackPointExtension>
        </extensions>
      </trkpt>
      <trkpt lat="36.84038850478827953338623046875" lon="-118.5392861254513263702392578125">
        <ele>2030.800048828125</ele>
        <time>2021-06-28T16:43:41.000Z</time>
        <extensions>
          <ns3:TrackPointExtension>
            <ns3:atemp>32.0</ns3:atemp>
            <ns3:hr>91</ns3:hr>
          </ns3:TrackPointExtension>
        </extensions>
      </trkpt>
      <trkpt lat="36.840378530323505401611328125" lon="-118.5392965190112590789794921875">
        <ele>2030.800048828125</ele>
        <time>2021-06-28T16:43:42.000Z</time>
        <extensions>
          <ns3:TrackPointExtension>
            <ns3:atemp>32.0</ns3:atemp>
            <ns3:hr>91</ns3:hr>
          </ns3:TrackPointExtension>
        </extensions>
      </trkpt>
      <trkpt lat="36.84037928469479084014892578125" lon="-118.5393303819000720977783203125">
        <ele>2030.800048828125</ele>
        <time>2021-06-28T16:43:44.000Z</time>
        <extensions>
          <ns3:TrackPointExtension>
            <ns3:atemp>32.0</ns3:atemp>
            <ns3:hr>90</ns3:hr>
          </ns3:TrackPointExtension>
        </extensions>
      </trkpt>
      <trkpt lat="36.84038154780864715576171875" lon="-118.53939752094447612762451171875">
        <ele>2030.800048828125</ele>
        <time>2021-06-28T16:43:48.000Z</time>
        <extensions>
          <ns3:TrackPointExtension>
            <ns3:atemp>32.0</ns3:atemp>
            <ns3:hr>93</ns3:hr>
          </ns3:TrackPointExtension>
        </extensions>
      </trkpt>
      <trkpt lat="36.84037081897258758544921875" lon="-118.53947547264397144317626953125">
        <ele>2030.800048828125</ele>
        <time>2021-06-28T16:43:53.000Z</time>
        <extensions>
          <ns3:TrackPointExtension>
            <ns3:atemp>32.0</ns3:atemp>
            <ns3:hr>92</ns3:hr>
          </ns3:TrackPointExtension>
        </extensions>
      </trkpt>
      <trkpt lat="36.84034533798694610595703125" lon="-118.5395027138292789459228515625">
        <ele>2030.800048828125</ele>
        <time>2021-06-28T16:43:54.000Z</time>
        <extensions>
          <ns3:TrackPointExtension>
            <ns3:atemp>32.0</ns3:atemp>
            <ns3:hr>93</ns3:hr>
          </ns3:TrackPointExtension>
        </extensions>
      </trkpt>
      <trkpt lat="36.840331256389617919921875" lon="-118.5395137779414653778076171875">
        <ele>2030.800048828125</ele>
        <time>2021-06-28T16:43:55.000Z</time>
        <extensions>
          <ns3:TrackPointExtension>
            <ns3:atemp>32.0</ns3:atemp>
            <ns3:hr>92</ns3:hr>
          </ns3:TrackPointExtension>
        </extensions>
      </trkpt>
      <trkpt lat="36.840277947485446929931640625" lon="-118.53958167135715484619140625">
        <ele>2030.4000244140625</ele>
        <time>2021-06-28T16:44:01.000Z</time>
        <extensions>
          <ns3:TrackPointExtension>
            <ns3:atemp>32.0</ns3:atemp>
            <ns3:hr>91</ns3:hr>
          </ns3:TrackPointExtension>
        </extensions>
      </trkpt>
      <trkpt lat="36.84023075737059116363525390625" lon="-118.5395828448235988616943359375">
        <ele>2030.4000244140625</ele>
        <time>2021-06-28T16:44:02.000Z</time>
        <extensions>
          <ns3:TrackPointExtension>
            <ns3:atemp>32.0</ns3:atemp>
            <ns3:hr>91</ns3:hr>
          </ns3:TrackPointExtension>
        </extensions>
      </trkpt>
      <trkpt lat="36.8401503749191761016845703125" lon="-118.53959885425865650177001953125">
        <ele>2030.4000244140625</ele>
        <time>2021-06-28T16:44:06.000Z</time>
        <extensions>
          <ns3:TrackPointExtension>
            <ns3:atemp>32.0</ns3:atemp>
            <ns3:hr>91</ns3:hr>
          </ns3:TrackPointExtension>
        </extensions>
      </trkpt>
      <trkpt lat="36.84005607850849628448486328125" lon="-118.53965752758085727691650390625">
        <ele>2030.4000244140625</ele>
        <time>2021-06-28T16:44:13.000Z</time>
        <extensions>
          <ns3:TrackPointExtension>
            <ns3:atemp>32.0</ns3:atemp>
            <ns3:hr>91</ns3:hr>
          </ns3:TrackPointExtension>
        </extensions>
      </trkpt>
      <trkpt lat="36.84003126807510852813720703125" lon="-118.53968250565230846405029296875">
        <ele>2030.4000244140625</ele>
        <time>2021-06-28T16:44:15.000Z</time>
        <extensions>
          <ns3:TrackPointExtension>
            <ns3:atemp>32.0</ns3:atemp>
            <ns3:hr>91</ns3:hr>
          </ns3:TrackPointExtension>
        </extensions>
      </trkpt>
      <trkpt lat="36.83997192420065402984619140625" lon="-118.53970061056315898895263671875">
        <ele>2030.5999755859375</ele>
        <time>2021-06-28T16:44:21.000Z</time>
        <extensions>
          <ns3:TrackPointExtension>
            <ns3:atemp>32.0</ns3:atemp>
            <ns3:hr>94</ns3:hr>
          </ns3:TrackPointExtension>
        </extensions>
      </trkpt>
      <trkpt lat="36.8399490416049957275390625" lon="-118.53968619368970394134521484375">
        <ele>2030.5999755859375</ele>
        <time>2021-06-28T16:44:22.000Z</time>
        <extensions>
          <ns3:TrackPointExtension>
            <ns3:atemp>32.0</ns3:atemp>
            <ns3:hr>92</ns3:hr>
          </ns3:TrackPointExtension>
        </extensions>
      </trkpt>
      <trkpt lat="36.83992230333387851715087890625" lon="-118.53968359529972076416015625">
        <ele>2030.5999755859375</ele>
        <time>2021-06-28T16:44:25.000Z</time>
        <extensions>
          <ns3:TrackPointExtension>
            <ns3:atemp>32.0</ns3:atemp>
            <ns3:hr>90</ns3:hr>
          </ns3:TrackPointExtension>
        </extensions>
      </trkpt>
      <trkpt lat="36.83989900164306163787841796875" lon="-118.5397082380950450897216796875">
        <ele>2030.4000244140625</ele>
        <time>2021-06-28T16:44:29.000Z</time>
        <extensions>
          <ns3:TrackPointExtension>
            <ns3:atemp>32.0</ns3:atemp>
            <ns3:hr>89</ns3:hr>
          </ns3:TrackPointExtension>
        </extensions>
      </trkpt>
      <trkpt lat="36.83985047042369842529296875" lon="-118.53972190059721469879150390625">
        <ele>2030</ele>
        <time>2021-06-28T16:44:34.000Z</time>
        <extensions>
          <ns3:TrackPointExtension>
            <ns3:atemp>32.0</ns3:atemp>
            <ns3:hr>86</ns3:hr>
          </ns3:TrackPointExtension>
        </extensions>
      </trkpt>
      <trkpt lat="36.8398516438901424407958984375" lon="-118.53973011486232280731201171875">
        <ele>2030</ele>
        <time>2021-06-28T16:44:36.000Z</time>
        <extensions>
          <ns3:TrackPointExtension>
            <ns3:atemp>32.0</ns3:atemp>
            <ns3:hr>85</ns3:hr>
          </ns3:TrackPointExtension>
        </extensions>
      </trkpt>
      <trkpt lat="36.83985122479498386383056640625" lon="-118.53973782621324062347412109375">
        <ele>2030</ele>
        <time>2021-06-28T16:44:37.000Z</time>
        <extensions>
          <ns3:TrackPointExtension>
            <ns3:atemp>32.0</ns3:atemp>
            <ns3:hr>84</ns3:hr>
          </ns3:TrackPointExtension>
        </extensions>
      </trkpt>
      <trkpt lat="36.839810572564601898193359375" lon="-118.5398185439407825469970703125">
        <ele>2029.800048828125</ele>
        <time>2021-06-28T16:44:42.000Z</time>
        <extensions>
          <ns3:TrackPointExtension>
            <ns3:atemp>32.0</ns3:atemp>
            <ns3:hr>82</ns3:hr>
          </ns3:TrackPointExtension>
        </extensions>
      </trkpt>
      <trkpt lat="36.83978785760700702667236328125" lon="-118.53987260721623897552490234375">
        <ele>2029.800048828125</ele>
        <time>2021-06-28T16:44:44.000Z</time>
        <extensions>
          <ns3:TrackPointExtension>
            <ns3:atemp>32.0</ns3:atemp>
            <ns3:hr>80</ns3:hr>
          </ns3:TrackPointExtension>
        </extensions>
      </trkpt>
      <trkpt lat="36.8397720158100128173828125" lon="-118.53991719894111156463623046875">
        <ele>2029.5999755859375</ele>
        <time>2021-06-28T16:44:47.000Z</time>
        <extensions>
          <ns3:TrackPointExtension>
            <ns3:atemp>32.0</ns3:atemp>
            <ns3:hr>83</ns3:hr>
          </ns3:TrackPointExtension>
        </extensions>
      </trkpt>
      <trkpt lat="36.839754916727542877197265625" lon="-118.53994318284094333648681640625">
        <ele>2029.5999755859375</ele>
        <time>2021-06-28T16:44:49.000Z</time>
        <extensions>
          <ns3:TrackPointExtension>
            <ns3:atemp>32.0</ns3:atemp>
            <ns3:hr>85</ns3:hr>
          </ns3:TrackPointExtension>
        </extensions>
      </trkpt>
      <trkpt lat="36.8396283499896526336669921875" lon="-118.54002817533910274505615234375">
        <ele>2029.800048828125</ele>
        <time>2021-06-28T16:45:00.000Z</time>
        <extensions>
          <ns3:TrackPointExtension>
            <ns3:atemp>32.0</ns3:atemp>
            <ns3:hr>87</ns3:hr>
          </ns3:TrackPointExtension>
        </extensions>
      </trkpt>
      <trkpt lat="36.8394918926060199737548828125" lon="-118.54001191444694995880126953125">
        <ele>2030</ele>
        <time>2021-06-28T16:45:10.000Z</time>
        <extensions>
          <ns3:TrackPointExtension>
            <ns3:atemp>32.0</ns3:atemp>
            <ns3:hr>87</ns3:hr>
          </ns3:TrackPointExtension>
        </extensions>
      </trkpt>
      <trkpt lat="36.8394382484257221221923828125" lon="-118.540055416524410247802734375">
        <ele>2029.5999755859375</ele>
        <time>2021-06-28T16:45:16.000Z</time>
        <extensions>
          <ns3:TrackPointExtension>
            <ns3:atemp>32.0</ns3:atemp>
            <ns3:hr>87</ns3:hr>
          </ns3:TrackPointExtension>
        </extensions>
      </trkpt>
      <trkpt lat="36.83941368944942951202392578125" lon="-118.54006991721689701080322265625">
        <ele>2029.5999755859375</ele>
        <time>2021-06-28T16:45:18.000Z</time>
        <extensions>
          <ns3:TrackPointExtension>
            <ns3:atemp>32.0</ns3:atemp>
            <ns3:hr>87</ns3:hr>
          </ns3:TrackPointExtension>
        </extensions>
      </trkpt>
      <trkpt lat="36.83937597088515758514404296875" lon="-118.54009355418384075164794921875">
        <ele>2029.199951171875</ele>
        <time>2021-06-28T16:45:22.000Z</time>
        <extensions>
          <ns3:TrackPointExtension>
            <ns3:atemp>32.0</ns3:atemp>
            <ns3:hr>88</ns3:hr>
          </ns3:TrackPointExtension>
        </extensions>
      </trkpt>
      <trkpt lat="36.83930707164108753204345703125" lon="-118.5401668958365917205810546875">
        <ele>2029</ele>
        <time>2021-06-28T16:45:29.000Z</time>
        <extensions>
          <ns3:TrackPointExtension>
            <ns3:atemp>32.0</ns3:atemp>
            <ns3:hr>86</ns3:hr>
          </ns3:TrackPointExtension>
        </extensions>
      </trkpt>
      <trkpt lat="36.83927974663674831390380859375" lon="-118.54017837904393672943115234375">
        <ele>2029.199951171875</ele>
        <time>2021-06-28T16:45:31.000Z</time>
        <extensions>
          <ns3:TrackPointExtension>
            <ns3:atemp>32.0</ns3:atemp>
            <ns3:hr>86</ns3:hr>
          </ns3:TrackPointExtension>
        </extensions>
      </trkpt>
      <trkpt lat="36.83925661258399486541748046875" lon="-118.5402074642479419708251953125">
        <ele>2029.199951171875</ele>
        <time>2021-06-28T16:45:35.000Z</time>
        <extensions>
          <ns3:TrackPointExtension>
            <ns3:atemp>32.0</ns3:atemp>
            <ns3:hr>87</ns3:hr>
          </ns3:TrackPointExtension>
        </extensions>
      </trkpt>
      <trkpt lat="36.83925309218466281890869140625" lon="-118.540232442319393157958984375">
        <ele>2029.199951171875</ele>
        <time>2021-06-28T16:45:36.000Z</time>
        <extensions>
          <ns3:TrackPointExtension>
            <ns3:atemp>32.0</ns3:atemp>
            <ns3:hr>86</ns3:hr>
          </ns3:TrackPointExtension>
        </extensions>
      </trkpt>
      <trkpt lat="36.839247979223728179931640625" lon="-118.5402341187000274658203125">
        <ele>2029.199951171875</ele>
        <time>2021-06-28T16:45:37.000Z</time>
        <extensions>
          <ns3:TrackPointExtension>
            <ns3:atemp>32.0</ns3:atemp>
            <ns3:hr>87</ns3:hr>
          </ns3:TrackPointExtension>
        </extensions>
      </trkpt>
      <trkpt lat="36.83921520598232746124267578125" lon="-118.54026353918015956878662109375">
        <ele>2029.199951171875</ele>
        <time>2021-06-28T16:45:42.000Z</time>
        <extensions>
          <ns3:TrackPointExtension>
            <ns3:atemp>32.0</ns3:atemp>
            <ns3:hr>88</ns3:hr>
          </ns3:TrackPointExtension>
        </extensions>
      </trkpt>
      <trkpt lat="36.8392065726220607757568359375" lon="-118.54027904570102691650390625">
        <ele>2029.199951171875</ele>
        <time>2021-06-28T16:45:43.000Z</time>
        <extensions>
          <ns3:TrackPointExtension>
            <ns3:atemp>32.0</ns3:atemp>
            <ns3:hr>88</ns3:hr>
          </ns3:TrackPointExtension>
        </extensions>
      </trkpt>
      <trkpt lat="36.8391765654087066650390625" lon="-118.540386669337749481201171875">
        <ele>2029.5999755859375</ele>
        <time>2021-06-28T16:45:49.000Z</time>
        <extensions>
          <ns3:TrackPointExtension>
            <ns3:atemp>32.0</ns3:atemp>
            <ns3:hr>88</ns3:hr>
          </ns3:TrackPointExtension>
        </extensions>
      </trkpt>
      <trkpt lat="36.8391623161733150482177734375" lon="-118.540414832532405853271484375">
        <ele>2029.800048828125</ele>
        <time>2021-06-28T16:45:53.000Z</time>
        <extensions>
          <ns3:TrackPointExtension>
            <ns3:atemp>32.0</ns3:atemp>
            <ns3:hr>89</ns3:hr>
          </ns3:TrackPointExtension>
        </extensions>
      </trkpt>
      <trkpt lat="36.83915016241371631622314453125" lon="-118.54045204818248748779296875">
        <ele>2029.800048828125</ele>
        <time>2021-06-28T16:45:55.000Z</time>
        <extensions>
          <ns3:TrackPointExtension>
            <ns3:atemp>32.0</ns3:atemp>
            <ns3:hr>89</ns3:hr>
          </ns3:TrackPointExtension>
        </extensions>
      </trkpt>
      <trkpt lat="36.839046478271484375" lon="-118.54050678201019763946533203125">
        <ele>2028.5999755859375</ele>
        <time>2021-06-28T16:46:02.000Z</time>
        <extensions>
          <ns3:TrackPointExtension>
            <ns3:atemp>32.0</ns3:atemp>
            <ns3:hr>88</ns3:hr>
          </ns3:TrackPointExtension>
        </extensions>
      </trkpt>
      <trkpt lat="36.83902627788484096527099609375" lon="-118.54058087803423404693603515625">
        <ele>2029</ele>
        <time>2021-06-28T16:46:08.000Z</time>
        <extensions>
          <ns3:TrackPointExtension>
            <ns3:atemp>32.0</ns3:atemp>
            <ns3:hr>87</ns3:hr>
          </ns3:TrackPointExtension>
        </extensions>
      </trkpt>
      <trkpt lat="36.839017309248447418212890625" lon="-118.54061708785593509674072265625">
        <ele>2029</ele>
        <time>2021-06-28T16:46:10.000Z</time>
        <extensions>
          <ns3:TrackPointExtension>
            <ns3:atemp>32.0</ns3:atemp>
            <ns3:hr>87</ns3:hr>
          </ns3:TrackPointExtension>
        </extensions>
      </trkpt>
      <trkpt lat="36.839005239307880401611328125" lon="-118.5406587459146976470947265625">
        <ele>2029</ele>
        <time>2021-06-28T16:46:13.000Z</time>
        <extensions>
          <ns3:TrackPointExtension>
            <ns3:atemp>32.0</ns3:atemp>
            <ns3:hr>87</ns3:hr>
          </ns3:TrackPointExtension>
        </extensions>
      </trkpt>
      <trkpt lat="36.83899878524243831634521484375" lon="-118.5406681336462497711181640625">
        <ele>2029</ele>
        <time>2021-06-28T16:46:14.000Z</time>
        <extensions>
          <ns3:TrackPointExtension>
            <ns3:atemp>32.0</ns3:atemp>
            <ns3:hr>87</ns3:hr>
          </ns3:TrackPointExtension>
        </extensions>
      </trkpt>
      <trkpt lat="36.83899576775729656219482421875" lon="-118.54070258326828479766845703125">
        <ele>2029.199951171875</ele>
        <time>2021-06-28T16:46:16.000Z</time>
        <extensions>
          <ns3:TrackPointExtension>
            <ns3:atemp>32.0</ns3:atemp>
            <ns3:hr>88</ns3:hr>
          </ns3:TrackPointExtension>
        </extensions>
      </trkpt>
      <trkpt lat="36.838967688381671905517578125" lon="-118.54068816639482975006103515625">
        <ele>2029.199951171875</ele>
        <time>2021-06-28T16:46:18.000Z</time>
        <extensions>
          <ns3:TrackPointExtension>
            <ns3:atemp>32.0</ns3:atemp>
            <ns3:hr>89</ns3:hr>
          </ns3:TrackPointExtension>
        </extensions>
      </trkpt>
      <trkpt lat="36.83890557847917079925537109375" lon="-118.540683723986148834228515625">
        <ele>2029.199951171875</ele>
        <time>2021-06-28T16:46:22.000Z</time>
        <extensions>
          <ns3:TrackPointExtension>
            <ns3:atemp>32.0</ns3:atemp>
            <ns3:hr>92</ns3:hr>
          </ns3:TrackPointExtension>
        </extensions>
      </trkpt>
      <trkpt lat="36.83890138752758502960205078125" lon="-118.54070576839148998260498046875">
        <ele>2029</ele>
        <time>2021-06-28T16:46:24.000Z</time>
        <extensions>
          <ns3:TrackPointExtension>
            <ns3:atemp>32.0</ns3:atemp>
            <ns3:hr>93</ns3:hr>
          </ns3:TrackPointExtension>
        </extensions>
      </trkpt>
      <trkpt lat="36.83886048384010791778564453125" lon="-118.5407227836549282073974609375">
        <ele>2029</ele>
        <time>2021-06-28T16:46:28.000Z</time>
        <extensions>
          <ns3:TrackPointExtension>
            <ns3:atemp>32.0</ns3:atemp>
            <ns3:hr>93</ns3:hr>
          </ns3:TrackPointExtension>
        </extensions>
      </trkpt>
      <trkpt lat="36.83882326819002628326416015625" lon="-118.5407348535954952239990234375">
        <ele>2030</ele>
        <time>2021-06-28T16:46:32.000Z</time>
        <extensions>
          <ns3:TrackPointExtension>
            <ns3:atemp>32.0</ns3:atemp>
            <ns3:hr>92</ns3:hr>
          </ns3:TrackPointExtension>
        </extensions>
      </trkpt>
      <trkpt lat="36.83880164287984371185302734375" lon="-118.540729321539402008056640625">
        <ele>2030</ele>
        <time>2021-06-28T16:46:33.000Z</time>
        <extensions>
          <ns3:TrackPointExtension>
            <ns3:atemp>32.0</ns3:atemp>
            <ns3:hr>92</ns3:hr>
          </ns3:TrackPointExtension>
        </extensions>
      </trkpt>
      <trkpt lat="36.83875286020338535308837890625" lon="-118.54070275090634822845458984375">
        <ele>2030</ele>
        <time>2021-06-28T16:46:35.000Z</time>
        <extensions>
          <ns3:TrackPointExtension>
            <ns3:atemp>32.0</ns3:atemp>
            <ns3:hr>91</ns3:hr>
          </ns3:TrackPointExtension>
        </extensions>
      </trkpt>
      <trkpt lat="36.8387187458574771881103515625" lon="-118.54070476256310939788818359375">
        <ele>2030.199951171875</ele>
        <time>2021-06-28T16:46:37.000Z</time>
        <extensions>
          <ns3:TrackPointExtension>
            <ns3:atemp>32.0</ns3:atemp>
            <ns3:hr>89</ns3:hr>
          </ns3:TrackPointExtension>
        </extensions>
      </trkpt>
      <trkpt lat="36.8387187458574771881103515625" lon="-118.54070476256310939788818359375">
        <ele>2030.199951171875</ele>
        <time>2021-06-28T16:46:38.000Z</time>
        <extensions>
          <ns3:TrackPointExtension>
            <ns3:atemp>32.0</ns3:atemp>
            <ns3:hr>88</ns3:hr>
          </ns3:TrackPointExtension>
        </extensions>
      </trkpt>
      <trkpt lat="36.83870382606983184814453125" lon="-118.54070845060050487518310546875">
        <ele>2030.4000244140625</ele>
        <time>2021-06-28T16:46:39.000Z</time>
        <extensions>
          <ns3:TrackPointExtension>
            <ns3:atemp>32.0</ns3:atemp>
            <ns3:hr>87</ns3:hr>
          </ns3:TrackPointExtension>
        </extensions>
      </trkpt>
      <trkpt lat="36.83866485022008419036865234375" lon="-118.540745079517364501953125">
        <ele>2030.800048828125</ele>
        <time>2021-06-28T16:46:43.000Z</time>
        <extensions>
          <ns3:TrackPointExtension>
            <ns3:atemp>32.0</ns3:atemp>
            <ns3:hr>87</ns3:hr>
          </ns3:TrackPointExtension>
        </extensions>
      </trkpt>
      <trkpt lat="36.83865512721240520477294921875" lon="-118.54078422300517559051513671875">
        <ele>2030.800048828125</ele>
        <time>2021-06-28T16:46:45.000Z</time>
        <extensions>
          <ns3:TrackPointExtension>
            <ns3:atemp>32.0</ns3:atemp>
            <ns3:hr>90</ns3:hr>
          </ns3:TrackPointExtension>
        </extensions>
      </trkpt>
      <trkpt lat="36.8386173248291015625" lon="-118.54080819524824619293212890625">
        <ele>2031.199951171875</ele>
        <time>2021-06-28T16:46:49.000Z</time>
        <extensions>
          <ns3:TrackPointExtension>
            <ns3:atemp>32.0</ns3:atemp>
            <ns3:hr>92</ns3:hr>
          </ns3:TrackPointExtension>
        </extensions>
      </trkpt>
      <trkpt lat="36.8386173248291015625" lon="-118.54080819524824619293212890625">
        <ele>2031.4000244140625</ele>
        <time>2021-06-28T16:46:50.000Z</time>
        <extensions>
          <ns3:TrackPointExtension>
            <ns3:atemp>32.0</ns3:atemp>
            <ns3:hr>92</ns3:hr>
          </ns3:TrackPointExtension>
        </extensions>
      </trkpt>
      <trkpt lat="36.83861556462943553924560546875" lon="-118.54084038175642490386962890625">
        <ele>2031.4000244140625</ele>
        <time>2021-06-28T16:46:51.000Z</time>
        <extensions>
          <ns3:TrackPointExtension>
            <ns3:atemp>32.0</ns3:atemp>
            <ns3:hr>93</ns3:hr>
          </ns3:TrackPointExtension>
        </extensions>
      </trkpt>
      <trkpt lat="36.83861556462943553924560546875" lon="-118.54084038175642490386962890625">
        <ele>2031.5999755859375</ele>
        <time>2021-06-28T16:46:52.000Z</time>
        <extensions>
          <ns3:TrackPointExtension>
            <ns3:atemp>32.0</ns3:atemp>
            <ns3:hr>93</ns3:hr>
          </ns3:TrackPointExtension>
        </extensions>
      </trkpt>
      <trkpt lat="36.83860332705080509185791015625" lon="-118.54085597209632396697998046875">
        <ele>2031.5999755859375</ele>
        <time>2021-06-28T16:46:53.000Z</time>
        <extensions>
          <ns3:TrackPointExtension>
            <ns3:atemp>32.0</ns3:atemp>
            <ns3:hr>94</ns3:hr>
          </ns3:TrackPointExtension>
        </extensions>
      </trkpt>
      <trkpt lat="36.83859293349087238311767578125" lon="-118.54085949249565601348876953125">
        <ele>2031.800048828125</ele>
        <time>2021-06-28T16:46:54.000Z</time>
        <extensions>
          <ns3:TrackPointExtension>
            <ns3:atemp>32.0</ns3:atemp>
            <ns3:hr>91</ns3:hr>
          </ns3:TrackPointExtension>
        </extensions>
      </trkpt>
      <trkpt lat="36.83858178555965423583984375" lon="-118.54085647501051425933837890625">
        <ele>2031.800048828125</ele>
        <time>2021-06-28T16:46:55.000Z</time>
        <extensions>
          <ns3:TrackPointExtension>
            <ns3:atemp>32.0</ns3:atemp>
            <ns3:hr>96</ns3:hr>
          </ns3:TrackPointExtension>
        </extensions>
      </trkpt>
      <trkpt lat="36.838569380342960357666015625" lon="-118.5408488474786281585693359375">
        <ele>2032</ele>
        <time>2021-06-28T16:46:56.000Z</time>
        <extensions>
          <ns3:TrackPointExtension>
            <ns3:atemp>32.0</ns3:atemp>
            <ns3:hr>96</ns3:hr>
          </ns3:TrackPointExtension>
        </extensions>
      </trkpt>
      <trkpt lat="36.8384833820164203643798828125" lon="-118.5408376157283782958984375">
        <ele>2031.800048828125</ele>
        <time>2021-06-28T16:47:01.000Z</time>
        <extensions>
          <ns3:TrackPointExtension>
            <ns3:atemp>32.0</ns3:atemp>
            <ns3:hr>97</ns3:hr>
          </ns3:TrackPointExtension>
        </extensions>
      </trkpt>
      <trkpt lat="36.838416159152984619140625" lon="-118.54084272868931293487548828125">
        <ele>2031.800048828125</ele>
        <time>2021-06-28T16:47:06.000Z</time>
        <extensions>
          <ns3:TrackPointExtension>
            <ns3:atemp>32.0</ns3:atemp>
            <ns3:hr>94</ns3:hr>
          </ns3:TrackPointExtension>
        </extensions>
      </trkpt>
      <trkpt lat="36.83838640339672565460205078125" lon="-118.54086217470467090606689453125">
        <ele>2031.800048828125</ele>
        <time>2021-06-28T16:47:09.000Z</time>
        <extensions>
          <ns3:TrackPointExtension>
            <ns3:atemp>32.0</ns3:atemp>
            <ns3:hr>92</ns3:hr>
          </ns3:TrackPointExtension>
        </extensions>
      </trkpt>
      <trkpt lat="36.83838355354964733123779296875" lon="-118.54088162072002887725830078125">
        <ele>2031.800048828125</ele>
        <time>2021-06-28T16:47:10.000Z</time>
        <extensions>
          <ns3:TrackPointExtension>
            <ns3:atemp>32.0</ns3:atemp>
            <ns3:hr>92</ns3:hr>
          </ns3:TrackPointExtension>
        </extensions>
      </trkpt>
      <trkpt lat="36.83835924603044986724853515625" lon="-118.5409313254058361053466796875">
        <ele>2031.800048828125</ele>
        <time>2021-06-28T16:47:13.000Z</time>
        <extensions>
          <ns3:TrackPointExtension>
            <ns3:atemp>32.0</ns3:atemp>
            <ns3:hr>93</ns3:hr>
          </ns3:TrackPointExtension>
        </extensions>
      </trkpt>
      <trkpt lat="36.83834977447986602783203125" lon="-118.5409475862979888916015625">
        <ele>2031.800048828125</ele>
        <time>2021-06-28T16:47:14.000Z</time>
        <extensions>
          <ns3:TrackPointExtension>
            <ns3:atemp>32.0</ns3:atemp>
            <ns3:hr>94</ns3:hr>
          </ns3:TrackPointExtension>
        </extensions>
      </trkpt>
      <trkpt lat="36.83833711780607700347900390625" lon="-118.5409717261791229248046875">
        <ele>2032.199951171875</ele>
        <time>2021-06-28T16:47:17.000Z</time>
        <extensions>
          <ns3:TrackPointExtension>
            <ns3:atemp>32.0</ns3:atemp>
            <ns3:hr>94</ns3:hr>
          </ns3:TrackPointExtension>
        </extensions>
      </trkpt>
      <trkpt lat="36.8383170850574970245361328125" lon="-118.54098714888095855712890625">
        <ele>2032.4000244140625</ele>
        <time>2021-06-28T16:47:20.000Z</time>
        <extensions>
          <ns3:TrackPointExtension>
            <ns3:atemp>32.0</ns3:atemp>
            <ns3:hr>96</ns3:hr>
          </ns3:TrackPointExtension>
        </extensions>
      </trkpt>
      <trkpt lat="36.8382952921092510223388671875" lon="-118.5410178266465663909912109375">
        <ele>2032.4000244140625</ele>
        <time>2021-06-28T16:47:21.000Z</time>
        <extensions>
          <ns3:TrackPointExtension>
            <ns3:atemp>32.0</ns3:atemp>
            <ns3:hr>97</ns3:hr>
          </ns3:TrackPointExtension>
        </extensions>
      </trkpt>
      <trkpt lat="36.838248856365680694580078125" lon="-118.54106090962886810302734375">
        <ele>2032.4000244140625</ele>
        <time>2021-06-28T16:47:26.000Z</time>
        <extensions>
          <ns3:TrackPointExtension>
            <ns3:atemp>32.0</ns3:atemp>
            <ns3:hr>97</ns3:hr>
          </ns3:TrackPointExtension>
        </extensions>
      </trkpt>
      <trkpt lat="36.83820535428822040557861328125" lon="-118.54108915664255619049072265625">
        <ele>2032.5999755859375</ele>
        <time>2021-06-28T16:47:28.000Z</time>
        <extensions>
          <ns3:TrackPointExtension>
            <ns3:atemp>32.0</ns3:atemp>
            <ns3:hr>97</ns3:hr>
          </ns3:TrackPointExtension>
        </extensions>
      </trkpt>
      <trkpt lat="36.838184483349323272705078125" lon="-118.541131652891635894775390625">
        <ele>2033</ele>
        <time>2021-06-28T16:47:31.000Z</time>
        <extensions>
          <ns3:TrackPointExtension>
            <ns3:atemp>32.0</ns3:atemp>
            <ns3:hr>98</ns3:hr>
          </ns3:TrackPointExtension>
        </extensions>
      </trkpt>
      <trkpt lat="36.8381859920918941497802734375" lon="-118.54115554131567478179931640625">
        <ele>2033.199951171875</ele>
        <time>2021-06-28T16:47:33.000Z</time>
        <extensions>
          <ns3:TrackPointExtension>
            <ns3:atemp>32.0</ns3:atemp>
            <ns3:hr>101</ns3:hr>
          </ns3:TrackPointExtension>
        </extensions>
      </trkpt>
      <trkpt lat="36.83818280696868896484375" lon="-118.541200049221515655517578125">
        <ele>2033.4000244140625</ele>
        <time>2021-06-28T16:47:34.000Z</time>
        <extensions>
          <ns3:TrackPointExtension>
            <ns3:atemp>32.0</ns3:atemp>
            <ns3:hr>104</ns3:hr>
          </ns3:TrackPointExtension>
        </extensions>
      </trkpt>
      <trkpt lat="36.8381655402481555938720703125" lon="-118.54122729040682315826416015625">
        <ele>2033.4000244140625</ele>
        <time>2021-06-28T16:47:36.000Z</time>
        <extensions>
          <ns3:TrackPointExtension>
            <ns3:atemp>32.0</ns3:atemp>
            <ns3:hr>106</ns3:hr>
          </ns3:TrackPointExtension>
        </extensions>
      </trkpt>
      <trkpt lat="36.83815455995500087738037109375" lon="-118.5412401147186756134033203125">
        <ele>2033.199951171875</ele>
        <time>2021-06-28T16:47:38.000Z</time>
        <extensions>
          <ns3:TrackPointExtension>
            <ns3:atemp>32.0</ns3:atemp>
            <ns3:hr>107</ns3:hr>
          </ns3:TrackPointExtension>
        </extensions>
      </trkpt>
      <trkpt lat="36.83806453831493854522705078125" lon="-118.54131513275206089019775390625">
        <ele>2033</ele>
        <time>2021-06-28T16:47:44.000Z</time>
        <extensions>
          <ns3:TrackPointExtension>
            <ns3:atemp>32.0</ns3:atemp>
            <ns3:hr>106</ns3:hr>
          </ns3:TrackPointExtension>
        </extensions>
      </trkpt>
      <trkpt lat="36.83807124383747577667236328125" lon="-118.5413691960275173187255859375">
        <ele>2033</ele>
        <time>2021-06-28T16:47:48.000Z</time>
        <extensions>
          <ns3:TrackPointExtension>
            <ns3:atemp>32.0</ns3:atemp>
            <ns3:hr>105</ns3:hr>
          </ns3:TrackPointExtension>
        </extensions>
      </trkpt>
      <trkpt lat="36.8380552344024181365966796875" lon="-118.54138889349997043609619140625">
        <ele>2032.4000244140625</ele>
        <time>2021-06-28T16:47:53.000Z</time>
        <extensions>
          <ns3:TrackPointExtension>
            <ns3:atemp>32.0</ns3:atemp>
            <ns3:hr>104</ns3:hr>
          </ns3:TrackPointExtension>
        </extensions>
      </trkpt>
      <trkpt lat="36.83804593048989772796630859375" lon="-118.541440777480602264404296875">
        <ele>2032.4000244140625</ele>
        <time>2021-06-28T16:47:58.000Z</time>
        <extensions>
          <ns3:TrackPointExtension>
            <ns3:atemp>32.0</ns3:atemp>
            <ns3:hr>102</ns3:hr>
          </ns3:TrackPointExtension>
        </extensions>
      </trkpt>
      <trkpt lat="36.838034950196743011474609375" lon="-118.541467599570751190185546875">
        <ele>2032.199951171875</ele>
        <time>2021-06-28T16:48:01.000Z</time>
        <extensions>
          <ns3:TrackPointExtension>
            <ns3:atemp>32.0</ns3:atemp>
            <ns3:hr>99</ns3:hr>
          </ns3:TrackPointExtension>
        </extensions>
      </trkpt>
      <trkpt lat="36.83802522718906402587890625" lon="-118.541474975645542144775390625">
        <ele>2032.4000244140625</ele>
        <time>2021-06-28T16:48:05.000Z</time>
        <extensions>
          <ns3:TrackPointExtension>
            <ns3:atemp>32.0</ns3:atemp>
            <ns3:hr>96</ns3:hr>
          </ns3:TrackPointExtension>
        </extensions>
      </trkpt>
      <trkpt lat="36.838026903569698333740234375" lon="-118.54147740639746189117431640625">
        <ele>2032.4000244140625</ele>
        <time>2021-06-28T16:48:08.000Z</time>
        <extensions>
          <ns3:TrackPointExtension>
            <ns3:atemp>32.0</ns3:atemp>
            <ns3:hr>95</ns3:hr>
          </ns3:TrackPointExtension>
        </extensions>
      </trkpt>
      <trkpt lat="36.83800921775400638580322265625" lon="-118.5415028035640716552734375">
        <ele>2032.199951171875</ele>
        <time>2021-06-28T16:48:13.000Z</time>
        <extensions>
          <ns3:TrackPointExtension>
            <ns3:atemp>32.0</ns3:atemp>
            <ns3:hr>93</ns3:hr>
          </ns3:TrackPointExtension>
        </extensions>
      </trkpt>
      <trkpt lat="36.83798088692128658294677734375" lon="-118.5415250994265079498291015625">
        <ele>2031.4000244140625</ele>
        <time>2021-06-28T16:48:19.000Z</time>
        <extensions>
          <ns3:TrackPointExtension>
            <ns3:atemp>32.0</ns3:atemp>
            <ns3:hr>92</ns3:hr>
          </ns3:TrackPointExtension>
        </extensions>
      </trkpt>
      <trkpt lat="36.8379559926688671112060546875" lon="-118.54155988432466983795166015625">
        <ele>2031.4000244140625</ele>
        <time>2021-06-28T16:48:24.000Z</time>
        <extensions>
          <ns3:TrackPointExtension>
            <ns3:atemp>32.0</ns3:atemp>
            <ns3:hr>92</ns3:hr>
          </ns3:TrackPointExtension>
        </extensions>
      </trkpt>
      <trkpt lat="36.837849877774715423583984375" lon="-118.54159064590930938720703125">
        <ele>2031</ele>
        <time>2021-06-28T16:48:33.000Z</time>
        <extensions>
          <ns3:TrackPointExtension>
            <ns3:atemp>32.0</ns3:atemp>
            <ns3:hr>91</ns3:hr>
          </ns3:TrackPointExtension>
        </extensions>
      </trkpt>
      <trkpt lat="36.83776530437171459197998046875" lon="-118.5415898077189922332763671875">
        <ele>2031.4000244140625</ele>
        <time>2021-06-28T16:48:38.000Z</time>
        <extensions>
          <ns3:TrackPointExtension>
            <ns3:atemp>32.0</ns3:atemp>
            <ns3:hr>91</ns3:hr>
          </ns3:TrackPointExtension>
        </extensions>
      </trkpt>
      <trkpt lat="36.8377394042909145355224609375" lon="-118.54160229675471782684326171875">
        <ele>2031.4000244140625</ele>
        <time>2021-06-28T16:48:40.000Z</time>
        <extensions>
          <ns3:TrackPointExtension>
            <ns3:atemp>32.0</ns3:atemp>
            <ns3:hr>89</ns3:hr>
          </ns3:TrackPointExtension>
        </extensions>
      </trkpt>
      <trkpt lat="36.83773227967321872711181640625" lon="-118.54162693955004215240478515625">
        <ele>2031.4000244140625</ele>
        <time>2021-06-28T16:48:42.000Z</time>
        <extensions>
          <ns3:TrackPointExtension>
            <ns3:atemp>32.0</ns3:atemp>
            <ns3:hr>88</ns3:hr>
          </ns3:TrackPointExtension>
        </extensions>
      </trkpt>
      <trkpt lat="36.83771668933331966400146484375" lon="-118.5416288673877716064453125">
        <ele>2031.4000244140625</ele>
        <time>2021-06-28T16:48:44.000Z</time>
        <extensions>
          <ns3:TrackPointExtension>
            <ns3:atemp>32.0</ns3:atemp>
            <ns3:hr>87</ns3:hr>
          </ns3:TrackPointExtension>
        </extensions>
      </trkpt>
      <trkpt lat="36.83771182782948017120361328125" lon="-118.5416337288916110992431640625">
        <ele>2031.5999755859375</ele>
        <time>2021-06-28T16:48:46.000Z</time>
        <extensions>
          <ns3:TrackPointExtension>
            <ns3:atemp>32.0</ns3:atemp>
            <ns3:hr>85</ns3:hr>
          </ns3:TrackPointExtension>
        </extensions>
      </trkpt>
      <trkpt lat="36.83769674040377140045166015625" lon="-118.54164303280413150787353515625">
        <ele>2031.5999755859375</ele>
        <time>2021-06-28T16:48:48.000Z</time>
        <extensions>
          <ns3:TrackPointExtension>
            <ns3:atemp>32.0</ns3:atemp>
            <ns3:hr>83</ns3:hr>
          </ns3:TrackPointExtension>
        </extensions>
      </trkpt>
      <trkpt lat="36.83766044676303863525390625" lon="-118.54165946133434772491455078125">
        <ele>2031.800048828125</ele>
        <time>2021-06-28T16:48:51.000Z</time>
        <extensions>
          <ns3:TrackPointExtension>
            <ns3:atemp>32.0</ns3:atemp>
            <ns3:hr>82</ns3:hr>
          </ns3:TrackPointExtension>
        </extensions>
      </trkpt>
      <trkpt lat="36.837648041546344757080078125" lon="-118.541664071381092071533203125">
        <ele>2031.800048828125</ele>
        <time>2021-06-28T16:48:52.000Z</time>
        <extensions>
          <ns3:TrackPointExtension>
            <ns3:atemp>32.0</ns3:atemp>
            <ns3:hr>82</ns3:hr>
          </ns3:TrackPointExtension>
        </extensions>
      </trkpt>
      <trkpt lat="36.83763085864484310150146484375" lon="-118.5416481457650661468505859375">
        <ele>2031.800048828125</ele>
        <time>2021-06-28T16:48:55.000Z</time>
        <extensions>
          <ns3:TrackPointExtension>
            <ns3:atemp>32.0</ns3:atemp>
            <ns3:hr>82</ns3:hr>
          </ns3:TrackPointExtension>
        </extensions>
      </trkpt>
      <trkpt lat="36.83760638348758220672607421875" lon="-118.54163532145321369171142578125">
        <ele>2031.800048828125</ele>
        <time>2021-06-28T16:48:57.000Z</time>
        <extensions>
          <ns3:TrackPointExtension>
            <ns3:atemp>32.0</ns3:atemp>
            <ns3:hr>82</ns3:hr>
          </ns3:TrackPointExtension>
        </extensions>
      </trkpt>
      <trkpt lat="36.837512589991092681884765625" lon="-118.54159844107925891876220703125">
        <ele>2032</ele>
        <time>2021-06-28T16:49:03.000Z</time>
        <extensions>
          <ns3:TrackPointExtension>
            <ns3:atemp>31.0</ns3:atemp>
            <ns3:hr>83</ns3:hr>
          </ns3:TrackPointExtension>
        </extensions>
      </trkpt>
      <trkpt lat="36.8374980054795742034912109375" lon="-118.54159911163151264190673828125">
        <ele>2032</ele>
        <time>2021-06-28T16:49:04.000Z</time>
        <extensions>
          <ns3:TrackPointExtension>
            <ns3:atemp>31.0</ns3:atemp>
            <ns3:hr>84</ns3:hr>
          </ns3:TrackPointExtension>
        </extensions>
      </trkpt>
      <trkpt lat="36.83749414980411529541015625" lon="-118.5415824316442012786865234375">
        <ele>2032.4000244140625</ele>
        <time>2021-06-28T16:49:07.000Z</time>
        <extensions>
          <ns3:TrackPointExtension>
            <ns3:atemp>31.0</ns3:atemp>
            <ns3:hr>84</ns3:hr>
          </ns3:TrackPointExtension>
        </extensions>
      </trkpt>
      <trkpt lat="36.83749842457473278045654296875" lon="-118.54158016853034496307373046875">
        <ele>2032.4000244140625</ele>
        <time>2021-06-28T16:49:08.000Z</time>
        <extensions>
          <ns3:TrackPointExtension>
            <ns3:atemp>31.0</ns3:atemp>
            <ns3:hr>84</ns3:hr>
          </ns3:TrackPointExtension>
        </extensions>
      </trkpt>
      <trkpt lat="36.83750781230628490447998046875" lon="-118.54156876914203166961669921875">
        <ele>2032.4000244140625</ele>
        <time>2021-06-28T16:49:11.000Z</time>
        <extensions>
          <ns3:TrackPointExtension>
            <ns3:atemp>31.0</ns3:atemp>
            <ns3:hr>85</ns3:hr>
          </ns3:TrackPointExtension>
        </extensions>
      </trkpt>
      <trkpt lat="36.83748601935803890228271484375" lon="-118.541564829647541046142578125">
        <ele>2032.5999755859375</ele>
        <time>2021-06-28T16:49:16.000Z</time>
        <extensions>
          <ns3:TrackPointExtension>
            <ns3:atemp>31.0</ns3:atemp>
            <ns3:hr>85</ns3:hr>
          </ns3:TrackPointExtension>
        </extensions>
      </trkpt>
      <trkpt lat="36.8374477140605449676513671875" lon="-118.54158435948193073272705078125">
        <ele>2032.800048828125</ele>
        <time>2021-06-28T16:49:25.000Z</time>
        <extensions>
          <ns3:TrackPointExtension>
            <ns3:atemp>31.0</ns3:atemp>
            <ns3:hr>84</ns3:hr>
          </ns3:TrackPointExtension>
        </extensions>
      </trkpt>
      <trkpt lat="36.83743488974869251251220703125" lon="-118.5415797494351863861083984375">
        <ele>2032.5999755859375</ele>
        <time>2021-06-28T16:49:28.000Z</time>
        <extensions>
          <ns3:TrackPointExtension>
            <ns3:atemp>31.0</ns3:atemp>
            <ns3:hr>85</ns3:hr>
          </ns3:TrackPointExtension>
        </extensions>
      </trkpt>
      <trkpt lat="36.837392561137676239013671875" lon="-118.54157664813101291656494140625">
        <ele>2032.4000244140625</ele>
        <time>2021-06-28T16:49:32.000Z</time>
        <extensions>
          <ns3:TrackPointExtension>
            <ns3:atemp>31.0</ns3:atemp>
            <ns3:hr>86</ns3:hr>
          </ns3:TrackPointExtension>
        </extensions>
      </trkpt>
      <trkpt lat="36.8373312056064605712890625" lon="-118.54156290180981159210205078125">
        <ele>2032.199951171875</ele>
        <time>2021-06-28T16:49:36.000Z</time>
        <extensions>
          <ns3:TrackPointExtension>
            <ns3:atemp>31.0</ns3:atemp>
            <ns3:hr>89</ns3:hr>
          </ns3:TrackPointExtension>
        </extensions>
      </trkpt>
      <trkpt lat="36.83732106350362300872802734375" lon="-118.54156650602817535400390625">
        <ele>2032.199951171875</ele>
        <time>2021-06-28T16:49:37.000Z</time>
        <extensions>
          <ns3:TrackPointExtension>
            <ns3:atemp>31.0</ns3:atemp>
            <ns3:hr>88</ns3:hr>
          </ns3:TrackPointExtension>
        </extensions>
      </trkpt>
      <trkpt lat="36.83728418312966823577880859375" lon="-118.5415847785770893096923828125">
        <ele>2032</ele>
        <time>2021-06-28T16:49:41.000Z</time>
        <extensions>
          <ns3:TrackPointExtension>
            <ns3:atemp>31.0</ns3:atemp>
            <ns3:hr>85</ns3:hr>
          </ns3:TrackPointExtension>
        </extensions>
      </trkpt>
      <trkpt lat="36.83728099800646305084228515625" lon="-118.541589640080928802490234375">
        <ele>2032</ele>
        <time>2021-06-28T16:49:42.000Z</time>
        <extensions>
          <ns3:TrackPointExtension>
            <ns3:atemp>31.0</ns3:atemp>
            <ns3:hr>85</ns3:hr>
          </ns3:TrackPointExtension>
        </extensions>
      </trkpt>
      <trkpt lat="36.83726155199110507965087890625" lon="-118.5415888018906116485595703125">
        <ele>2032</ele>
        <time>2021-06-28T16:49:45.000Z</time>
        <extensions>
          <ns3:TrackPointExtension>
            <ns3:atemp>31.0</ns3:atemp>
            <ns3:hr>84</ns3:hr>
          </ns3:TrackPointExtension>
        </extensions>
      </trkpt>
      <trkpt lat="36.83724143542349338531494140625" lon="-118.54159676469862461090087890625">
        <ele>2031.800048828125</ele>
        <time>2021-06-28T16:49:47.000Z</time>
        <extensions>
          <ns3:TrackPointExtension>
            <ns3:atemp>31.0</ns3:atemp>
            <ns3:hr>84</ns3:hr>
          </ns3:TrackPointExtension>
        </extensions>
      </trkpt>
      <trkpt lat="36.83721528388559818267822265625" lon="-118.54162073694169521331787109375">
        <ele>2032</ele>
        <time>2021-06-28T16:49:50.000Z</time>
        <extensions>
          <ns3:TrackPointExtension>
            <ns3:atemp>31.0</ns3:atemp>
            <ns3:hr>82</ns3:hr>
          </ns3:TrackPointExtension>
        </extensions>
      </trkpt>
      <trkpt lat="36.83714169077575206756591796875" lon="-118.5416018776595592498779296875">
        <ele>2032.4000244140625</ele>
        <time>2021-06-28T16:49:56.000Z</time>
        <extensions>
          <ns3:TrackPointExtension>
            <ns3:atemp>31.0</ns3:atemp>
            <ns3:hr>80</ns3:hr>
          </ns3:TrackPointExtension>
        </extensions>
      </trkpt>
      <trkpt lat="36.8371338956058025360107421875" lon="-118.54160179384052753448486328125">
        <ele>2032.5999755859375</ele>
        <time>2021-06-28T16:49:57.000Z</time>
        <extensions>
          <ns3:TrackPointExtension>
            <ns3:atemp>31.0</ns3:atemp>
            <ns3:hr>79</ns3:hr>
          </ns3:TrackPointExtension>
        </extensions>
      </trkpt>
      <trkpt lat="36.83711721561849117279052734375" lon="-118.54159332811832427978515625">
        <ele>2032.5999755859375</ele>
        <time>2021-06-28T16:49:59.000Z</time>
        <extensions>
          <ns3:TrackPointExtension>
            <ns3:atemp>31.0</ns3:atemp>
            <ns3:hr>79</ns3:hr>
          </ns3:TrackPointExtension>
        </extensions>
      </trkpt>
      <trkpt lat="36.83709626086056232452392578125" lon="-118.5415770672261714935302734375">
        <ele>2032.800048828125</ele>
        <time>2021-06-28T16:50:02.000Z</time>
        <extensions>
          <ns3:TrackPointExtension>
            <ns3:atemp>31.0</ns3:atemp>
            <ns3:hr>79</ns3:hr>
          </ns3:TrackPointExtension>
        </extensions>
      </trkpt>
      <trkpt lat="36.8370386771857738494873046875" lon="-118.5415395162999629974365234375">
        <ele>2033.199951171875</ele>
        <time>2021-06-28T16:50:06.000Z</time>
        <extensions>
          <ns3:TrackPointExtension>
            <ns3:atemp>31.0</ns3:atemp>
            <ns3:hr>82</ns3:hr>
          </ns3:TrackPointExtension>
        </extensions>
      </trkpt>
      <trkpt lat="36.836996935307979583740234375" lon="-118.5415321402251720428466796875">
        <ele>2033.4000244140625</ele>
        <time>2021-06-28T16:50:09.000Z</time>
        <extensions>
          <ns3:TrackPointExtension>
            <ns3:atemp>31.0</ns3:atemp>
            <ns3:hr>83</ns3:hr>
          </ns3:TrackPointExtension>
        </extensions>
      </trkpt>
      <trkpt lat="36.8369434587657451629638671875" lon="-118.5415188968181610107421875">
        <ele>2033.5999755859375</ele>
        <time>2021-06-28T16:50:11.000Z</time>
        <extensions>
          <ns3:TrackPointExtension>
            <ns3:atemp>31.0</ns3:atemp>
            <ns3:hr>84</ns3:hr>
          </ns3:TrackPointExtension>
        </extensions>
      </trkpt>
      <trkpt lat="36.836921162903308868408203125" lon="-118.5415133647620677947998046875">
        <ele>2033.5999755859375</ele>
        <time>2021-06-28T16:50:12.000Z</time>
        <extensions>
          <ns3:TrackPointExtension>
            <ns3:atemp>31.0</ns3:atemp>
            <ns3:hr>84</ns3:hr>
          </ns3:TrackPointExtension>
        </extensions>
      </trkpt>
      <trkpt lat="36.83690465055406093597412109375" lon="-118.54150758124887943267822265625">
        <ele>2033.800048828125</ele>
        <time>2021-06-28T16:50:14.000Z</time>
        <extensions>
          <ns3:TrackPointExtension>
            <ns3:atemp>31.0</ns3:atemp>
            <ns3:hr>85</ns3:hr>
          </ns3:TrackPointExtension>
        </extensions>
      </trkpt>
      <trkpt lat="36.83689509518444538116455078125" lon="-118.5415012948215007781982421875">
        <ele>2034.199951171875</ele>
        <time>2021-06-28T16:50:17.000Z</time>
        <extensions>
          <ns3:TrackPointExtension>
            <ns3:atemp>31.0</ns3:atemp>
            <ns3:hr>86</ns3:hr>
          </ns3:TrackPointExtension>
        </extensions>
      </trkpt>
      <trkpt lat="36.83684715069830417633056640625" lon="-118.541525267064571380615234375">
        <ele>2034.5999755859375</ele>
        <time>2021-06-28T16:50:20.000Z</time>
        <extensions>
          <ns3:TrackPointExtension>
            <ns3:atemp>31.0</ns3:atemp>
            <ns3:hr>87</ns3:hr>
          </ns3:TrackPointExtension>
        </extensions>
      </trkpt>
      <trkpt lat="36.83683390729129314422607421875" lon="-118.54153239168226718902587890625">
        <ele>2034.800048828125</ele>
        <time>2021-06-28T16:50:21.000Z</time>
        <extensions>
          <ns3:TrackPointExtension>
            <ns3:atemp>31.0</ns3:atemp>
            <ns3:hr>88</ns3:hr>
          </ns3:TrackPointExtension>
        </extensions>
      </trkpt>
      <trkpt lat="36.8368241004645824432373046875" lon="-118.54153591208159923553466796875">
        <ele>2034.800048828125</ele>
        <time>2021-06-28T16:50:22.000Z</time>
        <extensions>
          <ns3:TrackPointExtension>
            <ns3:atemp>31.0</ns3:atemp>
            <ns3:hr>89</ns3:hr>
          </ns3:TrackPointExtension>
        </extensions>
      </trkpt>
      <trkpt lat="36.83679551817476749420166015625" lon="-118.54153742082417011260986328125">
        <ele>2035.4000244140625</ele>
        <time>2021-06-28T16:50:26.000Z</time>
        <extensions>
          <ns3:TrackPointExtension>
            <ns3:atemp>31.0</ns3:atemp>
            <ns3:hr>92</ns3:hr>
          </ns3:TrackPointExtension>
        </extensions>
      </trkpt>
      <trkpt lat="36.8367899022996425628662109375" lon="-118.5415371693670749664306640625">
        <ele>2035.4000244140625</ele>
        <time>2021-06-28T16:50:27.000Z</time>
        <extensions>
          <ns3:TrackPointExtension>
            <ns3:atemp>31.0</ns3:atemp>
            <ns3:hr>93</ns3:hr>
          </ns3:TrackPointExtension>
        </extensions>
      </trkpt>
      <trkpt lat="36.836787723004817962646484375" lon="-118.54153708554804325103759765625">
        <ele>2035.4000244140625</ele>
        <time>2021-06-28T16:50:28.000Z</time>
        <extensions>
          <ns3:TrackPointExtension>
            <ns3:atemp>31.0</ns3:atemp>
            <ns3:hr>93</ns3:hr>
          </ns3:TrackPointExtension>
        </extensions>
      </trkpt>
      <trkpt lat="36.8367721326649188995361328125" lon="-118.54152970947325229644775390625">
        <ele>2035.4000244140625</ele>
        <time>2021-06-28T16:50:31.000Z</time>
        <extensions>
          <ns3:TrackPointExtension>
            <ns3:atemp>31.0</ns3:atemp>
            <ns3:hr>94</ns3:hr>
          </ns3:TrackPointExtension>
        </extensions>
      </trkpt>
      <trkpt lat="36.8367255292832851409912109375" lon="-118.541533984243869781494140625">
        <ele>2035.5999755859375</ele>
        <time>2021-06-28T16:50:33.000Z</time>
        <extensions>
          <ns3:TrackPointExtension>
            <ns3:atemp>31.0</ns3:atemp>
            <ns3:hr>94</ns3:hr>
          </ns3:TrackPointExtension>
        </extensions>
      </trkpt>
      <trkpt lat="36.83670113794505596160888671875" lon="-118.54153624735772609710693359375">
        <ele>2035.800048828125</ele>
        <time>2021-06-28T16:50:35.000Z</time>
        <extensions>
          <ns3:TrackPointExtension>
            <ns3:atemp>31.0</ns3:atemp>
            <ns3:hr>94</ns3:hr>
          </ns3:TrackPointExtension>
        </extensions>
      </trkpt>
      <trkpt lat="36.8366928398609161376953125" lon="-118.541540019214153289794921875">
        <ele>2036</ele>
        <time>2021-06-28T16:50:39.000Z</time>
        <extensions>
          <ns3:TrackPointExtension>
            <ns3:atemp>31.0</ns3:atemp>
            <ns3:hr>95</ns3:hr>
          </ns3:TrackPointExtension>
        </extensions>
      </trkpt>
      <trkpt lat="36.8366869725286960601806640625" lon="-118.54153775610029697418212890625">
        <ele>2036.199951171875</ele>
        <time>2021-06-28T16:50:40.000Z</time>
        <extensions>
          <ns3:TrackPointExtension>
            <ns3:atemp>31.0</ns3:atemp>
            <ns3:hr>95</ns3:hr>
          </ns3:TrackPointExtension>
        </extensions>
      </trkpt>
      <trkpt lat="36.836657635867595672607421875" lon="-118.5415224172174930572509765625">
        <ele>2036.5999755859375</ele>
        <time>2021-06-28T16:50:42.000Z</time>
        <extensions>
          <ns3:TrackPointExtension>
            <ns3:atemp>31.0</ns3:atemp>
            <ns3:hr>94</ns3:hr>
          </ns3:TrackPointExtension>
        </extensions>
      </trkpt>
      <trkpt lat="36.8366517685353755950927734375" lon="-118.54152099229395389556884765625">
        <ele>2036.800048828125</ele>
        <time>2021-06-28T16:50:43.000Z</time>
        <extensions>
          <ns3:TrackPointExtension>
            <ns3:atemp>31.0</ns3:atemp>
            <ns3:hr>95</ns3:hr>
          </ns3:TrackPointExtension>
        </extensions>
      </trkpt>
      <trkpt lat="36.83664699085056781768798828125" lon="-118.54152199812233448028564453125">
        <ele>2037</ele>
        <time>2021-06-28T16:50:46.000Z</time>
        <extensions>
          <ns3:TrackPointExtension>
            <ns3:atemp>31.0</ns3:atemp>
            <ns3:hr>97</ns3:hr>
          </ns3:TrackPointExtension>
        </extensions>
      </trkpt>
      <trkpt lat="36.83663726784288883209228515625" lon="-118.5415287874639034271240234375">
        <ele>2037</ele>
        <time>2021-06-28T16:50:47.000Z</time>
        <extensions>
          <ns3:TrackPointExtension>
            <ns3:atemp>31.0</ns3:atemp>
            <ns3:hr>98</ns3:hr>
          </ns3:TrackPointExtension>
        </extensions>
      </trkpt>
      <trkpt lat="36.83663324452936649322509765625" lon="-118.54154169559478759765625">
        <ele>2036.800048828125</ele>
        <time>2021-06-28T16:50:50.000Z</time>
        <extensions>
          <ns3:TrackPointExtension>
            <ns3:atemp>31.0</ns3:atemp>
            <ns3:hr>100</ns3:hr>
          </ns3:TrackPointExtension>
        </extensions>
      </trkpt>
      <trkpt lat="36.8366028182208538055419921875" lon="-118.5415364988148212432861328125">
        <ele>2036.5999755859375</ele>
        <time>2021-06-28T16:50:53.000Z</time>
        <extensions>
          <ns3:TrackPointExtension>
            <ns3:atemp>31.0</ns3:atemp>
            <ns3:hr>100</ns3:hr>
          </ns3:TrackPointExtension>
        </extensions>
      </trkpt>
      <trkpt lat="36.8365964479744434356689453125" lon="-118.54153540916740894317626953125">
        <ele>2036.5999755859375</ele>
        <time>2021-06-28T16:50:54.000Z</time>
        <extensions>
          <ns3:TrackPointExtension>
            <ns3:atemp>31.0</ns3:atemp>
            <ns3:hr>100</ns3:hr>
          </ns3:TrackPointExtension>
        </extensions>
      </trkpt>
      <trkpt lat="36.8365676142275333404541015625" lon="-118.54152887128293514251708984375">
        <ele>2036.4000244140625</ele>
        <time>2021-06-28T16:50:59.000Z</time>
        <extensions>
          <ns3:TrackPointExtension>
            <ns3:atemp>31.0</ns3:atemp>
            <ns3:hr>99</ns3:hr>
          </ns3:TrackPointExtension>
        </extensions>
      </trkpt>
      <trkpt lat="36.83653752319514751434326171875" lon="-118.54152400977909564971923828125">
        <ele>2036.199951171875</ele>
        <time>2021-06-28T16:51:02.000Z</time>
        <extensions>
          <ns3:TrackPointExtension>
            <ns3:atemp>31.0</ns3:atemp>
            <ns3:hr>99</ns3:hr>
          </ns3:TrackPointExtension>
        </extensions>
      </trkpt>
      <trkpt lat="36.83648563921451568603515625" lon="-118.54153021238744258880615234375">
        <ele>2036</ele>
        <time>2021-06-28T16:51:06.000Z</time>
        <extensions>
          <ns3:TrackPointExtension>
            <ns3:atemp>31.0</ns3:atemp>
            <ns3:hr>99</ns3:hr>
          </ns3:TrackPointExtension>
        </extensions>
      </trkpt>
      <trkpt lat="36.8364492617547512054443359375" lon="-118.54154513217508792877197265625">
        <ele>2035.800048828125</ele>
        <time>2021-06-28T16:51:09.000Z</time>
        <extensions>
          <ns3:TrackPointExtension>
            <ns3:atemp>31.0</ns3:atemp>
            <ns3:hr>98</ns3:hr>
          </ns3:TrackPointExtension>
        </extensions>
      </trkpt>
      <trkpt lat="36.83643911965191364288330078125" lon="-118.5415532626211643218994140625">
        <ele>2035.800048828125</ele>
        <time>2021-06-28T16:51:10.000Z</time>
        <extensions>
          <ns3:TrackPointExtension>
            <ns3:atemp>31.0</ns3:atemp>
            <ns3:hr>96</ns3:hr>
          </ns3:TrackPointExtension>
        </extensions>
      </trkpt>
      <trkpt lat="36.83640274219214916229248046875" lon="-118.54156918823719024658203125">
        <ele>2036</ele>
        <time>2021-06-28T16:51:13.000Z</time>
        <extensions>
          <ns3:TrackPointExtension>
            <ns3:atemp>31.0</ns3:atemp>
            <ns3:hr>97</ns3:hr>
          </ns3:TrackPointExtension>
        </extensions>
      </trkpt>
      <trkpt lat="36.83635932393372058868408203125" lon="-118.5415733791887760162353515625">
        <ele>2036.199951171875</ele>
        <time>2021-06-28T16:51:18.000Z</time>
        <extensions>
          <ns3:TrackPointExtension>
            <ns3:atemp>31.0</ns3:atemp>
            <ns3:hr>96</ns3:hr>
          </ns3:TrackPointExtension>
        </extensions>
      </trkpt>
      <trkpt lat="36.83634624816477298736572265625" lon="-118.54156784713268280029296875">
        <ele>2036.800048828125</ele>
        <time>2021-06-28T16:51:20.000Z</time>
        <extensions>
          <ns3:TrackPointExtension>
            <ns3:atemp>31.0</ns3:atemp>
            <ns3:hr>96</ns3:hr>
          </ns3:TrackPointExtension>
        </extensions>
      </trkpt>
      <trkpt lat="36.83633669279515743255615234375" lon="-118.5415656678378582000732421875">
        <ele>2036.800048828125</ele>
        <time>2021-06-28T16:51:21.000Z</time>
        <extensions>
          <ns3:TrackPointExtension>
            <ns3:atemp>31.0</ns3:atemp>
            <ns3:hr>96</ns3:hr>
          </ns3:TrackPointExtension>
        </extensions>
      </trkpt>
      <trkpt lat="36.8363148160278797149658203125" lon="-118.54154898785054683685302734375">
        <ele>2036.800048828125</ele>
        <time>2021-06-28T16:51:23.000Z</time>
        <extensions>
          <ns3:TrackPointExtension>
            <ns3:atemp>31.0</ns3:atemp>
            <ns3:hr>95</ns3:hr>
          </ns3:TrackPointExtension>
        </extensions>
      </trkpt>
      <trkpt lat="36.83630517683923244476318359375" lon="-118.54154999367892742156982421875">
        <ele>2036.800048828125</ele>
        <time>2021-06-28T16:51:25.000Z</time>
        <extensions>
          <ns3:TrackPointExtension>
            <ns3:atemp>31.0</ns3:atemp>
            <ns3:hr>95</ns3:hr>
          </ns3:TrackPointExtension>
        </extensions>
      </trkpt>
      <trkpt lat="36.83626779355108737945556640625" lon="-118.54155183769762516021728515625">
        <ele>2036.800048828125</ele>
        <time>2021-06-28T16:51:28.000Z</time>
        <extensions>
          <ns3:TrackPointExtension>
            <ns3:atemp>31.0</ns3:atemp>
            <ns3:hr>95</ns3:hr>
          </ns3:TrackPointExtension>
        </extensions>
      </trkpt>
      <trkpt lat="36.8362470902502536773681640625" lon="-118.54157111607491970062255859375">
        <ele>2036.5999755859375</ele>
        <time>2021-06-28T16:51:31.000Z</time>
        <extensions>
          <ns3:TrackPointExtension>
            <ns3:atemp>31.0</ns3:atemp>
            <ns3:hr>96</ns3:hr>
          </ns3:TrackPointExtension>
        </extensions>
      </trkpt>
      <trkpt lat="36.8362336792051792144775390625" lon="-118.54157723486423492431640625">
        <ele>2036.5999755859375</ele>
        <time>2021-06-28T16:51:33.000Z</time>
        <extensions>
          <ns3:TrackPointExtension>
            <ns3:atemp>31.0</ns3:atemp>
            <ns3:hr>98</ns3:hr>
          </ns3:TrackPointExtension>
        </extensions>
      </trkpt>
      <trkpt lat="36.83616687543690204620361328125" lon="-118.5415939986705780029296875">
        <ele>2037.4000244140625</ele>
        <time>2021-06-28T16:51:41.000Z</time>
        <extensions>
          <ns3:TrackPointExtension>
            <ns3:atemp>31.0</ns3:atemp>
            <ns3:hr>98</ns3:hr>
          </ns3:TrackPointExtension>
        </extensions>
      </trkpt>
      <trkpt lat="36.83615631423890590667724609375" lon="-118.54159240610897541046142578125">
        <ele>2037.5999755859375</ele>
        <time>2021-06-28T16:51:43.000Z</time>
        <extensions>
          <ns3:TrackPointExtension>
            <ns3:atemp>31.0</ns3:atemp>
            <ns3:hr>95</ns3:hr>
          </ns3:TrackPointExtension>
        </extensions>
      </trkpt>
      <trkpt lat="36.83604885824024677276611328125" lon="-118.541627861559391021728515625">
        <ele>2037.5999755859375</ele>
        <time>2021-06-28T16:51:49.000Z</time>
        <extensions>
          <ns3:TrackPointExtension>
            <ns3:atemp>31.0</ns3:atemp>
            <ns3:hr>94</ns3:hr>
          </ns3:TrackPointExtension>
        </extensions>
      </trkpt>
      <trkpt lat="36.835979707539081573486328125" lon="-118.541617132723331451416015625">
        <ele>2037</ele>
        <time>2021-06-28T16:51:54.000Z</time>
        <extensions>
          <ns3:TrackPointExtension>
            <ns3:atemp>31.0</ns3:atemp>
            <ns3:hr>95</ns3:hr>
          </ns3:TrackPointExtension>
        </extensions>
      </trkpt>
      <trkpt lat="36.83596738614141941070556640625" lon="-118.54161671362817287445068359375">
        <ele>2037</ele>
        <time>2021-06-28T16:51:56.000Z</time>
        <extensions>
          <ns3:TrackPointExtension>
            <ns3:atemp>31.0</ns3:atemp>
            <ns3:hr>94</ns3:hr>
          </ns3:TrackPointExtension>
        </extensions>
      </trkpt>
      <trkpt lat="36.83591055683791637420654296875" lon="-118.54159466922283172607421875">
        <ele>2037.199951171875</ele>
        <time>2021-06-28T16:52:00.000Z</time>
        <extensions>
          <ns3:TrackPointExtension>
            <ns3:atemp>31.0</ns3:atemp>
            <ns3:hr>91</ns3:hr>
          </ns3:TrackPointExtension>
        </extensions>
      </trkpt>
      <trkpt lat="36.83591055683791637420654296875" lon="-118.54159466922283172607421875">
        <ele>2037.199951171875</ele>
        <time>2021-06-28T16:52:01.000Z</time>
        <extensions>
          <ns3:TrackPointExtension>
            <ns3:atemp>31.0</ns3:atemp>
            <ns3:hr>93</ns3:hr>
          </ns3:TrackPointExtension>
        </extensions>
      </trkpt>
      <trkpt lat="36.8358631990849971771240234375" lon="-118.5415733791887760162353515625">
        <ele>2037.199951171875</ele>
        <time>2021-06-28T16:52:04.000Z</time>
        <extensions>
          <ns3:TrackPointExtension>
            <ns3:atemp>31.0</ns3:atemp>
            <ns3:hr>93</ns3:hr>
          </ns3:TrackPointExtension>
        </extensions>
      </trkpt>
      <trkpt lat="36.8358202837407588958740234375" lon="-118.54155242443084716796875">
        <ele>2037</ele>
        <time>2021-06-28T16:52:06.000Z</time>
        <extensions>
          <ns3:TrackPointExtension>
            <ns3:atemp>31.0</ns3:atemp>
            <ns3:hr>92</ns3:hr>
          </ns3:TrackPointExtension>
        </extensions>
      </trkpt>
      <trkpt lat="36.83579497039318084716796875" lon="-118.54154731146991252899169921875">
        <ele>2036.800048828125</ele>
        <time>2021-06-28T16:52:07.000Z</time>
        <extensions>
          <ns3:TrackPointExtension>
            <ns3:atemp>31.0</ns3:atemp>
            <ns3:hr>92</ns3:hr>
          </ns3:TrackPointExtension>
        </extensions>
      </trkpt>
      <trkpt lat="36.83575901202857494354248046875" lon="-118.54155586101114749908447265625">
        <ele>2036.800048828125</ele>
        <time>2021-06-28T16:52:09.000Z</time>
        <extensions>
          <ns3:TrackPointExtension>
            <ns3:atemp>31.0</ns3:atemp>
            <ns3:hr>89</ns3:hr>
          </ns3:TrackPointExtension>
        </extensions>
      </trkpt>
      <trkpt lat="36.835751049220561981201171875" lon="-118.5415824316442012786865234375">
        <ele>2036.800048828125</ele>
        <time>2021-06-28T16:52:11.000Z</time>
        <extensions>
          <ns3:TrackPointExtension>
            <ns3:atemp>31.0</ns3:atemp>
            <ns3:hr>88</ns3:hr>
          </ns3:TrackPointExtension>
        </extensions>
      </trkpt>
      <trkpt lat="36.83571584522724151611328125" lon="-118.5416209883987903594970703125">
        <ele>2037</ele>
        <time>2021-06-28T16:52:16.000Z</time>
        <extensions>
          <ns3:TrackPointExtension>
            <ns3:atemp>31.0</ns3:atemp>
            <ns3:hr>86</ns3:hr>
          </ns3:TrackPointExtension>
        </extensions>
      </trkpt>
      <trkpt lat="36.83569933287799358367919921875" lon="-118.5416273586452007293701171875">
        <ele>2037</ele>
        <time>2021-06-28T16:52:17.000Z</time>
        <extensions>
          <ns3:TrackPointExtension>
            <ns3:atemp>31.0</ns3:atemp>
            <ns3:hr>85</ns3:hr>
          </ns3:TrackPointExtension>
        </extensions>
      </trkpt>
      <trkpt lat="36.83563278056681156158447265625" lon="-118.5416243411600589752197265625">
        <ele>2037</ele>
        <time>2021-06-28T16:52:22.000Z</time>
        <extensions>
          <ns3:TrackPointExtension>
            <ns3:atemp>31.0</ns3:atemp>
            <ns3:hr>84</ns3:hr>
          </ns3:TrackPointExtension>
        </extensions>
      </trkpt>
      <trkpt lat="36.83558919467031955718994140625" lon="-118.54164655320346355438232421875">
        <ele>2037.199951171875</ele>
        <time>2021-06-28T16:52:27.000Z</time>
        <extensions>
          <ns3:TrackPointExtension>
            <ns3:atemp>31.0</ns3:atemp>
            <ns3:hr>84</ns3:hr>
          </ns3:TrackPointExtension>
        </extensions>
      </trkpt>
      <trkpt lat="36.83557779528200626373291015625" lon="-118.5416696034371852874755859375">
        <ele>2037.199951171875</ele>
        <time>2021-06-28T16:52:28.000Z</time>
        <extensions>
          <ns3:TrackPointExtension>
            <ns3:atemp>31.0</ns3:atemp>
            <ns3:hr>85</ns3:hr>
          </ns3:TrackPointExtension>
        </extensions>
      </trkpt>
      <trkpt lat="36.83557779528200626373291015625" lon="-118.5416696034371852874755859375">
        <ele>2037</ele>
        <time>2021-06-28T16:52:29.000Z</time>
        <extensions>
          <ns3:TrackPointExtension>
            <ns3:atemp>31.0</ns3:atemp>
            <ns3:hr>85</ns3:hr>
          </ns3:TrackPointExtension>
        </extensions>
      </trkpt>
      <trkpt lat="36.8355057947337627410888671875" lon="-118.5417245887219905853271484375">
        <ele>2037.199951171875</ele>
        <time>2021-06-28T16:52:35.000Z</time>
        <extensions>
          <ns3:TrackPointExtension>
            <ns3:atemp>31.0</ns3:atemp>
            <ns3:hr>84</ns3:hr>
          </ns3:TrackPointExtension>
        </extensions>
      </trkpt>
      <trkpt lat="36.8353857658803462982177734375" lon="-118.541731126606464385986328125">
        <ele>2036.800048828125</ele>
        <time>2021-06-28T16:52:42.000Z</time>
        <extensions>
          <ns3:TrackPointExtension>
            <ns3:atemp>31.0</ns3:atemp>
            <ns3:hr>85</ns3:hr>
          </ns3:TrackPointExtension>
        </extensions>
      </trkpt>
      <trkpt lat="36.8353646434843540191650390625" lon="-118.54175333864986896514892578125">
        <ele>2036.199951171875</ele>
        <time>2021-06-28T16:52:45.000Z</time>
        <extensions>
          <ns3:TrackPointExtension>
            <ns3:atemp>31.0</ns3:atemp>
            <ns3:hr>87</ns3:hr>
          </ns3:TrackPointExtension>
        </extensions>
      </trkpt>
      <trkpt lat="36.8353646434843540191650390625" lon="-118.54175333864986896514892578125">
        <ele>2036.199951171875</ele>
        <time>2021-06-28T16:52:46.000Z</time>
        <extensions>
          <ns3:TrackPointExtension>
            <ns3:atemp>31.0</ns3:atemp>
            <ns3:hr>87</ns3:hr>
          </ns3:TrackPointExtension>
        </extensions>
      </trkpt>
      <trkpt lat="36.83536715805530548095703125" lon="-118.54177010245621204376220703125">
        <ele>2036.199951171875</ele>
        <time>2021-06-28T16:52:48.000Z</time>
        <extensions>
          <ns3:TrackPointExtension>
            <ns3:atemp>31.0</ns3:atemp>
            <ns3:hr>86</ns3:hr>
          </ns3:TrackPointExtension>
        </extensions>
      </trkpt>
      <trkpt lat="36.83537059463560581207275390625" lon="-118.54178921319544315338134765625">
        <ele>2036.4000244140625</ele>
        <time>2021-06-28T16:52:50.000Z</time>
        <extensions>
          <ns3:TrackPointExtension>
            <ns3:atemp>31.0</ns3:atemp>
            <ns3:hr>89</ns3:hr>
          </ns3:TrackPointExtension>
        </extensions>
      </trkpt>
      <trkpt lat="36.8353664875030517578125" lon="-118.54180631227791309356689453125">
        <ele>2036.4000244140625</ele>
        <time>2021-06-28T16:52:52.000Z</time>
        <extensions>
          <ns3:TrackPointExtension>
            <ns3:atemp>31.0</ns3:atemp>
            <ns3:hr>86</ns3:hr>
          </ns3:TrackPointExtension>
        </extensions>
      </trkpt>
      <trkpt lat="36.8353683315217494964599609375" lon="-118.54180379770696163177490234375">
        <ele>2036.199951171875</ele>
        <time>2021-06-28T16:52:53.000Z</time>
        <extensions>
          <ns3:TrackPointExtension>
            <ns3:atemp>31.0</ns3:atemp>
            <ns3:hr>84</ns3:hr>
          </ns3:TrackPointExtension>
        </extensions>
      </trkpt>
      <trkpt lat="36.83537193574011325836181640625" lon="-118.5418110899627208709716796875">
        <ele>2036</ele>
        <time>2021-06-28T16:52:55.000Z</time>
        <extensions>
          <ns3:TrackPointExtension>
            <ns3:atemp>31.0</ns3:atemp>
            <ns3:hr>86</ns3:hr>
          </ns3:TrackPointExtension>
        </extensions>
      </trkpt>
      <trkpt lat="36.835368163883686065673828125" lon="-118.5418224893510341644287109375">
        <ele>2036</ele>
        <time>2021-06-28T16:52:57.000Z</time>
        <extensions>
          <ns3:TrackPointExtension>
            <ns3:atemp>31.0</ns3:atemp>
            <ns3:hr>83</ns3:hr>
          </ns3:TrackPointExtension>
        </extensions>
      </trkpt>
      <trkpt lat="36.83536372147500514984130859375" lon="-118.54182743467390537261962890625">
        <ele>2036</ele>
        <time>2021-06-28T16:52:58.000Z</time>
        <extensions>
          <ns3:TrackPointExtension>
            <ns3:atemp>31.0</ns3:atemp>
            <ns3:hr>86</ns3:hr>
          </ns3:TrackPointExtension>
        </extensions>
      </trkpt>
      <trkpt lat="36.83536372147500514984130859375" lon="-118.54182743467390537261962890625">
        <ele>2036</ele>
        <time>2021-06-28T16:52:59.000Z</time>
        <extensions>
          <ns3:TrackPointExtension>
            <ns3:atemp>31.0</ns3:atemp>
            <ns3:hr>82</ns3:hr>
          </ns3:TrackPointExtension>
        </extensions>
      </trkpt>
      <trkpt lat="36.8353606201708316802978515625" lon="-118.54183070361614227294921875">
        <ele>2036</ele>
        <time>2021-06-28T16:53:00.000Z</time>
        <extensions>
          <ns3:TrackPointExtension>
            <ns3:atemp>31.0</ns3:atemp>
            <ns3:hr>86</ns3:hr>
          </ns3:TrackPointExtension>
        </extensions>
      </trkpt>
      <trkpt lat="36.8353515677154064178466796875" lon="-118.5418273508548736572265625">
        <ele>2036</ele>
        <time>2021-06-28T16:53:04.000Z</time>
        <extensions>
          <ns3:TrackPointExtension>
            <ns3:atemp>31.0</ns3:atemp>
            <ns3:hr>87</ns3:hr>
          </ns3:TrackPointExtension>
        </extensions>
      </trkpt>
      <trkpt lat="36.83535383082926273345947265625" lon="-118.54180044494569301605224609375">
        <ele>2035.800048828125</ele>
        <time>2021-06-28T16:53:12.000Z</time>
        <extensions>
          <ns3:TrackPointExtension>
            <ns3:atemp>31.0</ns3:atemp>
            <ns3:hr>86</ns3:hr>
          </ns3:TrackPointExtension>
        </extensions>
      </trkpt>
      <trkpt lat="36.83534435927867889404296875" lon="-118.541786111891269683837890625">
        <ele>2035.800048828125</ele>
        <time>2021-06-28T16:53:13.000Z</time>
        <extensions>
          <ns3:TrackPointExtension>
            <ns3:atemp>31.0</ns3:atemp>
            <ns3:hr>85</ns3:hr>
          </ns3:TrackPointExtension>
        </extensions>
      </trkpt>
      <trkpt lat="36.83533874340355396270751953125" lon="-118.541798181831836700439453125">
        <ele>2035.800048828125</ele>
        <time>2021-06-28T16:53:15.000Z</time>
        <extensions>
          <ns3:TrackPointExtension>
            <ns3:atemp>31.0</ns3:atemp>
            <ns3:hr>82</ns3:hr>
          </ns3:TrackPointExtension>
        </extensions>
      </trkpt>
      <trkpt lat="36.83536179363727569580078125" lon="-118.54181536473333835601806640625">
        <ele>2035.800048828125</ele>
        <time>2021-06-28T16:53:20.000Z</time>
        <extensions>
          <ns3:TrackPointExtension>
            <ns3:atemp>31.0</ns3:atemp>
            <ns3:hr>79</ns3:hr>
          </ns3:TrackPointExtension>
        </extensions>
      </trkpt>
      <trkpt lat="36.83536179363727569580078125" lon="-118.54181536473333835601806640625">
        <ele>2035.5999755859375</ele>
        <time>2021-06-28T16:53:23.000Z</time>
        <extensions>
          <ns3:TrackPointExtension>
            <ns3:atemp>31.0</ns3:atemp>
            <ns3:hr>80</ns3:hr>
          </ns3:TrackPointExtension>
        </extensions>
      </trkpt>
      <trkpt lat="36.83536179363727569580078125" lon="-118.54181536473333835601806640625">
        <ele>2035.5999755859375</ele>
        <time>2021-06-28T16:53:28.000Z</time>
        <extensions>
          <ns3:TrackPointExtension>
            <ns3:atemp>31.0</ns3:atemp>
            <ns3:hr>83</ns3:hr>
          </ns3:TrackPointExtension>
        </extensions>
      </trkpt>
      <trkpt lat="36.835377551615238189697265625" lon="-118.54182190261781215667724609375">
        <ele>2035.5999755859375</ele>
        <time>2021-06-28T16:53:35.000Z</time>
        <extensions>
          <ns3:TrackPointExtension>
            <ns3:atemp>31.0</ns3:atemp>
            <ns3:hr>86</ns3:hr>
          </ns3:TrackPointExtension>
        </extensions>
      </trkpt>
      <trkpt lat="36.83539624325931072235107421875" lon="-118.5418291948735713958740234375">
        <ele>2035.4000244140625</ele>
        <time>2021-06-28T16:53:41.000Z</time>
        <extensions>
          <ns3:TrackPointExtension>
            <ns3:atemp>31.0</ns3:atemp>
            <ns3:hr>89</ns3:hr>
          </ns3:TrackPointExtension>
        </extensions>
      </trkpt>
      <trkpt lat="36.83541066013276576995849609375" lon="-118.54184905998408794403076171875">
        <ele>2036</ele>
        <time>2021-06-28T16:53:47.000Z</time>
        <extensions>
          <ns3:TrackPointExtension>
            <ns3:atemp>31.0</ns3:atemp>
            <ns3:hr>92</ns3:hr>
          </ns3:TrackPointExtension>
        </extensions>
      </trkpt>
      <trkpt lat="36.83533857576549053192138671875" lon="-118.54189314879477024078369140625">
        <ele>2035</ele>
        <time>2021-06-28T16:53:56.000Z</time>
        <extensions>
          <ns3:TrackPointExtension>
            <ns3:atemp>31.0</ns3:atemp>
            <ns3:hr>91</ns3:hr>
          </ns3:TrackPointExtension>
        </extensions>
      </trkpt>
      <trkpt lat="36.8353009410202503204345703125" lon="-118.5419103316962718963623046875">
        <ele>2035.199951171875</ele>
        <time>2021-06-28T16:53:58.000Z</time>
        <extensions>
          <ns3:TrackPointExtension>
            <ns3:atemp>31.0</ns3:atemp>
            <ns3:hr>91</ns3:hr>
          </ns3:TrackPointExtension>
        </extensions>
      </trkpt>
      <trkpt lat="36.8352256715297698974609375" lon="-118.5419324599206447601318359375">
        <ele>2035.5999755859375</ele>
        <time>2021-06-28T16:54:03.000Z</time>
        <extensions>
          <ns3:TrackPointExtension>
            <ns3:atemp>31.0</ns3:atemp>
            <ns3:hr>91</ns3:hr>
          </ns3:TrackPointExtension>
        </extensions>
      </trkpt>
      <trkpt lat="36.83518745005130767822265625" lon="-118.54193120263516902923583984375">
        <ele>2035.800048828125</ele>
        <time>2021-06-28T16:54:04.000Z</time>
        <extensions>
          <ns3:TrackPointExtension>
            <ns3:atemp>31.0</ns3:atemp>
            <ns3:hr>90</ns3:hr>
          </ns3:TrackPointExtension>
        </extensions>
      </trkpt>
      <trkpt lat="36.8351524136960506439208984375" lon="-118.54193069972097873687744140625">
        <ele>2036</ele>
        <time>2021-06-28T16:54:07.000Z</time>
        <extensions>
          <ns3:TrackPointExtension>
            <ns3:atemp>31.0</ns3:atemp>
            <ns3:hr>88</ns3:hr>
          </ns3:TrackPointExtension>
        </extensions>
      </trkpt>
      <trkpt lat="36.83504889719188213348388671875" lon="-118.5419398359954357147216796875">
        <ele>2036.199951171875</ele>
        <time>2021-06-28T16:54:15.000Z</time>
        <extensions>
          <ns3:TrackPointExtension>
            <ns3:atemp>31.0</ns3:atemp>
            <ns3:hr>86</ns3:hr>
          </ns3:TrackPointExtension>
        </extensions>
      </trkpt>
      <trkpt lat="36.8350286968052387237548828125" lon="-118.54193924926221370697021484375">
        <ele>2036.199951171875</ele>
        <time>2021-06-28T16:54:17.000Z</time>
        <extensions>
          <ns3:TrackPointExtension>
            <ns3:atemp>31.0</ns3:atemp>
            <ns3:hr>86</ns3:hr>
          </ns3:TrackPointExtension>
        </extensions>
      </trkpt>
      <trkpt lat="36.8350038863718509674072265625" lon="-118.5419485531747341156005859375">
        <ele>2036.199951171875</ele>
        <time>2021-06-28T16:54:20.000Z</time>
        <extensions>
          <ns3:TrackPointExtension>
            <ns3:atemp>31.0</ns3:atemp>
            <ns3:hr>85</ns3:hr>
          </ns3:TrackPointExtension>
        </extensions>
      </trkpt>
      <trkpt lat="36.8349378369748592376708984375" lon="-118.54202742688357830047607421875">
        <ele>2036</ele>
        <time>2021-06-28T16:54:28.000Z</time>
        <extensions>
          <ns3:TrackPointExtension>
            <ns3:atemp>31.0</ns3:atemp>
            <ns3:hr>84</ns3:hr>
          </ns3:TrackPointExtension>
        </extensions>
      </trkpt>
      <trkpt lat="36.834907829761505126953125" lon="-118.54203346185386180877685546875">
        <ele>2036.199951171875</ele>
        <time>2021-06-28T16:54:32.000Z</time>
        <extensions>
          <ns3:TrackPointExtension>
            <ns3:atemp>31.0</ns3:atemp>
            <ns3:hr>84</ns3:hr>
          </ns3:TrackPointExtension>
        </extensions>
      </trkpt>
      <trkpt lat="36.8348898924887180328369140625" lon="-118.54201602749526500701904296875">
        <ele>2036.199951171875</ele>
        <time>2021-06-28T16:54:34.000Z</time>
        <extensions>
          <ns3:TrackPointExtension>
            <ns3:atemp>31.0</ns3:atemp>
            <ns3:hr>85</ns3:hr>
          </ns3:TrackPointExtension>
        </extensions>
      </trkpt>
      <trkpt lat="36.8348845280706882476806640625" lon="-118.54200580157339572906494140625">
        <ele>2036.199951171875</ele>
        <time>2021-06-28T16:54:35.000Z</time>
        <extensions>
          <ns3:TrackPointExtension>
            <ns3:atemp>31.0</ns3:atemp>
            <ns3:hr>86</ns3:hr>
          </ns3:TrackPointExtension>
        </extensions>
      </trkpt>
      <trkpt lat="36.8348583765327930450439453125" lon="-118.5420042090117931365966796875">
        <ele>2036.4000244140625</ele>
        <time>2021-06-28T16:54:37.000Z</time>
        <extensions>
          <ns3:TrackPointExtension>
            <ns3:atemp>31.0</ns3:atemp>
            <ns3:hr>87</ns3:hr>
          </ns3:TrackPointExtension>
        </extensions>
      </trkpt>
      <trkpt lat="36.834833063185214996337890625" lon="-118.5420380719006061553955078125">
        <ele>2036.199951171875</ele>
        <time>2021-06-28T16:54:39.000Z</time>
        <extensions>
          <ns3:TrackPointExtension>
            <ns3:atemp>31.0</ns3:atemp>
            <ns3:hr>87</ns3:hr>
          </ns3:TrackPointExtension>
        </extensions>
      </trkpt>
      <trkpt lat="36.8348308838903903961181640625" lon="-118.54205466806888580322265625">
        <ele>2036.199951171875</ele>
        <time>2021-06-28T16:54:40.000Z</time>
        <extensions>
          <ns3:TrackPointExtension>
            <ns3:atemp>31.0</ns3:atemp>
            <ns3:hr>88</ns3:hr>
          </ns3:TrackPointExtension>
        </extensions>
      </trkpt>
      <trkpt lat="36.834810264408588409423828125" lon="-118.54207268916070461273193359375">
        <ele>2035.800048828125</ele>
        <time>2021-06-28T16:54:43.000Z</time>
        <extensions>
          <ns3:TrackPointExtension>
            <ns3:atemp>31.0</ns3:atemp>
            <ns3:hr>89</ns3:hr>
          </ns3:TrackPointExtension>
        </extensions>
      </trkpt>
      <trkpt lat="36.83477648533880710601806640625" lon="-118.542075455188751220703125">
        <ele>2035.199951171875</ele>
        <time>2021-06-28T16:54:46.000Z</time>
        <extensions>
          <ns3:TrackPointExtension>
            <ns3:atemp>31.0</ns3:atemp>
            <ns3:hr>93</ns3:hr>
          </ns3:TrackPointExtension>
        </extensions>
      </trkpt>
      <trkpt lat="36.83476709760725498199462890625" lon="-118.54207721538841724395751953125">
        <ele>2034.800048828125</ele>
        <time>2021-06-28T16:54:48.000Z</time>
        <extensions>
          <ns3:TrackPointExtension>
            <ns3:atemp>31.0</ns3:atemp>
            <ns3:hr>93</ns3:hr>
          </ns3:TrackPointExtension>
        </extensions>
      </trkpt>
      <trkpt lat="36.8347594700753688812255859375" lon="-118.5420856811106204986572265625">
        <ele>2034.800048828125</ele>
        <time>2021-06-28T16:54:49.000Z</time>
        <extensions>
          <ns3:TrackPointExtension>
            <ns3:atemp>31.0</ns3:atemp>
            <ns3:hr>93</ns3:hr>
          </ns3:TrackPointExtension>
        </extensions>
      </trkpt>
      <trkpt lat="36.83472904376685619354248046875" lon="-118.5421223938465118408203125">
        <ele>2034.4000244140625</ele>
        <time>2021-06-28T16:54:53.000Z</time>
        <extensions>
          <ns3:TrackPointExtension>
            <ns3:atemp>31.0</ns3:atemp>
            <ns3:hr>91</ns3:hr>
          </ns3:TrackPointExtension>
        </extensions>
      </trkpt>
      <trkpt lat="36.8346870504319667816162109375" lon="-118.54213513433933258056640625">
        <ele>2034.4000244140625</ele>
        <time>2021-06-28T16:54:55.000Z</time>
        <extensions>
          <ns3:TrackPointExtension>
            <ns3:atemp>31.0</ns3:atemp>
            <ns3:hr>90</ns3:hr>
          </ns3:TrackPointExtension>
        </extensions>
      </trkpt>
      <trkpt lat="36.834662072360515594482421875" lon="-118.54213169775903224945068359375">
        <ele>2034.4000244140625</ele>
        <time>2021-06-28T16:54:58.000Z</time>
        <extensions>
          <ns3:TrackPointExtension>
            <ns3:atemp>31.0</ns3:atemp>
            <ns3:hr>91</ns3:hr>
          </ns3:TrackPointExtension>
        </extensions>
      </trkpt>
      <trkpt lat="36.83464354835450649261474609375" lon="-118.5421319492161273956298828125">
        <ele>2034.4000244140625</ele>
        <time>2021-06-28T16:55:00.000Z</time>
        <extensions>
          <ns3:TrackPointExtension>
            <ns3:atemp>31.0</ns3:atemp>
            <ns3:hr>88</ns3:hr>
          </ns3:TrackPointExtension>
        </extensions>
      </trkpt>
      <trkpt lat="36.83461203239858150482177734375" lon="-118.5421453602612018585205078125">
        <ele>2033.4000244140625</ele>
        <time>2021-06-28T16:55:04.000Z</time>
        <extensions>
          <ns3:TrackPointExtension>
            <ns3:atemp>31.0</ns3:atemp>
            <ns3:hr>88</ns3:hr>
          </ns3:TrackPointExtension>
        </extensions>
      </trkpt>
      <trkpt lat="36.8346028961241245269775390625" lon="-118.54215030558407306671142578125">
        <ele>2033.199951171875</ele>
        <time>2021-06-28T16:55:05.000Z</time>
        <extensions>
          <ns3:TrackPointExtension>
            <ns3:atemp>31.0</ns3:atemp>
            <ns3:hr>87</ns3:hr>
          </ns3:TrackPointExtension>
        </extensions>
      </trkpt>
      <trkpt lat="36.8346028961241245269775390625" lon="-118.54215030558407306671142578125">
        <ele>2033.199951171875</ele>
        <time>2021-06-28T16:55:06.000Z</time>
        <extensions>
          <ns3:TrackPointExtension>
            <ns3:atemp>31.0</ns3:atemp>
            <ns3:hr>87</ns3:hr>
          </ns3:TrackPointExtension>
        </extensions>
      </trkpt>
      <trkpt lat="36.83449267409741878509521484375" lon="-118.54218668304383754730224609375">
        <ele>2032.800048828125</ele>
        <time>2021-06-28T16:55:15.000Z</time>
        <extensions>
          <ns3:TrackPointExtension>
            <ns3:atemp>31.0</ns3:atemp>
            <ns3:hr>84</ns3:hr>
          </ns3:TrackPointExtension>
        </extensions>
      </trkpt>
      <trkpt lat="36.8344788439571857452392578125" lon="-118.54218768887221813201904296875">
        <ele>2032.800048828125</ele>
        <time>2021-06-28T16:55:16.000Z</time>
        <extensions>
          <ns3:TrackPointExtension>
            <ns3:atemp>31.0</ns3:atemp>
            <ns3:hr>84</ns3:hr>
          </ns3:TrackPointExtension>
        </extensions>
      </trkpt>
      <trkpt lat="36.83445260860025882720947265625" lon="-118.54221761226654052734375">
        <ele>2033</ele>
        <time>2021-06-28T16:55:20.000Z</time>
        <extensions>
          <ns3:TrackPointExtension>
            <ns3:atemp>31.0</ns3:atemp>
            <ns3:hr>85</ns3:hr>
          </ns3:TrackPointExtension>
        </extensions>
      </trkpt>
      <trkpt lat="36.8344433046877384185791015625" lon="-118.54222540743649005889892578125">
        <ele>2033</ele>
        <time>2021-06-28T16:55:21.000Z</time>
        <extensions>
          <ns3:TrackPointExtension>
            <ns3:atemp>31.0</ns3:atemp>
            <ns3:hr>83</ns3:hr>
          </ns3:TrackPointExtension>
        </extensions>
      </trkpt>
      <trkpt lat="36.83437432162463665008544921875" lon="-118.5422439314424991607666015625">
        <ele>2032.4000244140625</ele>
        <time>2021-06-28T16:55:29.000Z</time>
        <extensions>
          <ns3:TrackPointExtension>
            <ns3:atemp>31.0</ns3:atemp>
            <ns3:hr>83</ns3:hr>
          </ns3:TrackPointExtension>
        </extensions>
      </trkpt>
      <trkpt lat="36.83434548787772655487060546875" lon="-118.54223546572029590606689453125">
        <ele>2032.4000244140625</ele>
        <time>2021-06-28T16:55:30.000Z</time>
        <extensions>
          <ns3:TrackPointExtension>
            <ns3:atemp>31.0</ns3:atemp>
            <ns3:hr>83</ns3:hr>
          </ns3:TrackPointExtension>
        </extensions>
      </trkpt>
      <trkpt lat="36.83429519645869731903076171875" lon="-118.54223932139575481414794921875">
        <ele>2032.4000244140625</ele>
        <time>2021-06-28T16:55:33.000Z</time>
        <extensions>
          <ns3:TrackPointExtension>
            <ns3:atemp>31.0</ns3:atemp>
            <ns3:hr>84</ns3:hr>
          </ns3:TrackPointExtension>
        </extensions>
      </trkpt>
      <trkpt lat="36.83424289338290691375732421875" lon="-118.54222758673131465911865234375">
        <ele>2032.4000244140625</ele>
        <time>2021-06-28T16:55:36.000Z</time>
        <extensions>
          <ns3:TrackPointExtension>
            <ns3:atemp>31.0</ns3:atemp>
            <ns3:hr>81</ns3:hr>
          </ns3:TrackPointExtension>
        </extensions>
      </trkpt>
      <trkpt lat="36.83421271853148937225341796875" lon="-118.54224787093698978424072265625">
        <ele>2032.199951171875</ele>
        <time>2021-06-28T16:55:39.000Z</time>
        <extensions>
          <ns3:TrackPointExtension>
            <ns3:atemp>31.0</ns3:atemp>
            <ns3:hr>79</ns3:hr>
          </ns3:TrackPointExtension>
        </extensions>
      </trkpt>
      <trkpt lat="36.83415136300027370452880859375" lon="-118.5422606952488422393798828125">
        <ele>2032</ele>
        <time>2021-06-28T16:55:41.000Z</time>
        <extensions>
          <ns3:TrackPointExtension>
            <ns3:atemp>31.0</ns3:atemp>
            <ns3:hr>79</ns3:hr>
          </ns3:TrackPointExtension>
        </extensions>
      </trkpt>
      <trkpt lat="36.8341123871505260467529296875" lon="-118.54225709103047847747802734375">
        <ele>2031.800048828125</ele>
        <time>2021-06-28T16:55:43.000Z</time>
        <extensions>
          <ns3:TrackPointExtension>
            <ns3:atemp>31.0</ns3:atemp>
            <ns3:hr>80</ns3:hr>
          </ns3:TrackPointExtension>
        </extensions>
      </trkpt>
      <trkpt lat="36.83409386314451694488525390625" lon="-118.542250804603099822998046875">
        <ele>2031.800048828125</ele>
        <time>2021-06-28T16:55:45.000Z</time>
        <extensions>
          <ns3:TrackPointExtension>
            <ns3:atemp>31.0</ns3:atemp>
            <ns3:hr>80</ns3:hr>
          </ns3:TrackPointExtension>
        </extensions>
      </trkpt>
      <trkpt lat="36.8340731598436832427978515625" lon="-118.54224887676537036895751953125">
        <ele>2031.800048828125</ele>
        <time>2021-06-28T16:55:46.000Z</time>
        <extensions>
          <ns3:TrackPointExtension>
            <ns3:atemp>31.0</ns3:atemp>
            <ns3:hr>83</ns3:hr>
          </ns3:TrackPointExtension>
        </extensions>
      </trkpt>
      <trkpt lat="36.834061928093433380126953125" lon="-118.5422566719353199005126953125">
        <ele>2031.800048828125</ele>
        <time>2021-06-28T16:55:47.000Z</time>
        <extensions>
          <ns3:TrackPointExtension>
            <ns3:atemp>31.0</ns3:atemp>
            <ns3:hr>80</ns3:hr>
          </ns3:TrackPointExtension>
        </extensions>
      </trkpt>
      <trkpt lat="36.83402077294886112213134765625" lon="-118.54229330085217952728271484375">
        <ele>2031.4000244140625</ele>
        <time>2021-06-28T16:55:50.000Z</time>
        <extensions>
          <ns3:TrackPointExtension>
            <ns3:atemp>31.0</ns3:atemp>
            <ns3:hr>83</ns3:hr>
          </ns3:TrackPointExtension>
        </extensions>
      </trkpt>
      <trkpt lat="36.8339983932673931121826171875" lon="-118.54236002080142498016357421875">
        <ele>2031.4000244140625</ele>
        <time>2021-06-28T16:55:53.000Z</time>
        <extensions>
          <ns3:TrackPointExtension>
            <ns3:atemp>31.0</ns3:atemp>
            <ns3:hr>85</ns3:hr>
          </ns3:TrackPointExtension>
        </extensions>
      </trkpt>
      <trkpt lat="36.83397886343300342559814453125" lon="-118.54241249151527881622314453125">
        <ele>2031.199951171875</ele>
        <time>2021-06-28T16:55:58.000Z</time>
        <extensions>
          <ns3:TrackPointExtension>
            <ns3:atemp>31.0</ns3:atemp>
            <ns3:hr>87</ns3:hr>
          </ns3:TrackPointExtension>
        </extensions>
      </trkpt>
      <trkpt lat="36.83393594808876514434814453125" lon="-118.54243713431060314178466796875">
        <ele>2031</ele>
        <time>2021-06-28T16:56:03.000Z</time>
        <extensions>
          <ns3:TrackPointExtension>
            <ns3:atemp>31.0</ns3:atemp>
            <ns3:hr>84</ns3:hr>
          </ns3:TrackPointExtension>
        </extensions>
      </trkpt>
      <trkpt lat="36.833919100463390350341796875" lon="-118.54245699942111968994140625">
        <ele>2030.800048828125</ele>
        <time>2021-06-28T16:56:04.000Z</time>
        <extensions>
          <ns3:TrackPointExtension>
            <ns3:atemp>31.0</ns3:atemp>
            <ns3:hr>82</ns3:hr>
          </ns3:TrackPointExtension>
        </extensions>
      </trkpt>
      <trkpt lat="36.83389822952449321746826171875" lon="-118.5424702428281307220458984375">
        <ele>2030.5999755859375</ele>
        <time>2021-06-28T16:56:06.000Z</time>
        <extensions>
          <ns3:TrackPointExtension>
            <ns3:atemp>31.0</ns3:atemp>
            <ns3:hr>79</ns3:hr>
          </ns3:TrackPointExtension>
        </extensions>
      </trkpt>
      <trkpt lat="36.833877526223659515380859375" lon="-118.54248759336769580841064453125">
        <ele>2030.4000244140625</ele>
        <time>2021-06-28T16:56:08.000Z</time>
        <extensions>
          <ns3:TrackPointExtension>
            <ns3:atemp>31.0</ns3:atemp>
            <ns3:hr>76</ns3:hr>
          </ns3:TrackPointExtension>
        </extensions>
      </trkpt>
      <trkpt lat="36.83387584984302520751953125" lon="-118.542504943907260894775390625">
        <ele>2030.5999755859375</ele>
        <time>2021-06-28T16:56:10.000Z</time>
        <extensions>
          <ns3:TrackPointExtension>
            <ns3:atemp>31.0</ns3:atemp>
            <ns3:hr>74</ns3:hr>
          </ns3:TrackPointExtension>
        </extensions>
      </trkpt>
      <trkpt lat="36.83385816402733325958251953125" lon="-118.5425319336354732513427734375">
        <ele>2030.5999755859375</ele>
        <time>2021-06-28T16:56:11.000Z</time>
        <extensions>
          <ns3:TrackPointExtension>
            <ns3:atemp>31.0</ns3:atemp>
            <ns3:hr>74</ns3:hr>
          </ns3:TrackPointExtension>
        </extensions>
      </trkpt>
      <trkpt lat="36.8338451720774173736572265625" lon="-118.54254593141376972198486328125">
        <ele>2030.5999755859375</ele>
        <time>2021-06-28T16:56:12.000Z</time>
        <extensions>
          <ns3:TrackPointExtension>
            <ns3:atemp>31.0</ns3:atemp>
            <ns3:hr>74</ns3:hr>
          </ns3:TrackPointExtension>
        </extensions>
      </trkpt>
      <trkpt lat="36.83383033610880374908447265625" lon="-118.54255364276468753814697265625">
        <ele>2030.5999755859375</ele>
        <time>2021-06-28T16:56:13.000Z</time>
        <extensions>
          <ns3:TrackPointExtension>
            <ns3:atemp>31.0</ns3:atemp>
            <ns3:hr>75</ns3:hr>
          </ns3:TrackPointExtension>
        </extensions>
      </trkpt>
      <trkpt lat="36.83379270136356353759765625" lon="-118.5425570793449878692626953125">
        <ele>2030.199951171875</ele>
        <time>2021-06-28T16:56:16.000Z</time>
        <extensions>
          <ns3:TrackPointExtension>
            <ns3:atemp>31.0</ns3:atemp>
            <ns3:hr>75</ns3:hr>
          </ns3:TrackPointExtension>
        </extensions>
      </trkpt>
      <trkpt lat="36.83379270136356353759765625" lon="-118.5425570793449878692626953125">
        <ele>2030.199951171875</ele>
        <time>2021-06-28T16:56:17.000Z</time>
        <extensions>
          <ns3:TrackPointExtension>
            <ns3:atemp>31.0</ns3:atemp>
            <ns3:hr>75</ns3:hr>
          </ns3:TrackPointExtension>
        </extensions>
      </trkpt>
      <trkpt lat="36.83377132751047611236572265625" lon="-118.54256001301109790802001953125">
        <ele>2030.199951171875</ele>
        <time>2021-06-28T16:56:20.000Z</time>
        <extensions>
          <ns3:TrackPointExtension>
            <ns3:atemp>31.0</ns3:atemp>
            <ns3:hr>77</ns3:hr>
          </ns3:TrackPointExtension>
        </extensions>
      </trkpt>
      <trkpt lat="36.8337556533515453338623046875" lon="-118.5425604321062564849853515625">
        <ele>2030.199951171875</ele>
        <time>2021-06-28T16:56:22.000Z</time>
        <extensions>
          <ns3:TrackPointExtension>
            <ns3:atemp>31.0</ns3:atemp>
            <ns3:hr>77</ns3:hr>
          </ns3:TrackPointExtension>
        </extensions>
      </trkpt>
      <trkpt lat="36.83373729698359966278076171875" lon="-118.54258180595934391021728515625">
        <ele>2030.199951171875</ele>
        <time>2021-06-28T16:56:23.000Z</time>
        <extensions>
          <ns3:TrackPointExtension>
            <ns3:atemp>31.0</ns3:atemp>
            <ns3:hr>77</ns3:hr>
          </ns3:TrackPointExtension>
        </extensions>
      </trkpt>
      <trkpt lat="36.8337397277355194091796875" lon="-118.54260628111660480499267578125">
        <ele>2030</ele>
        <time>2021-06-28T16:56:25.000Z</time>
        <extensions>
          <ns3:TrackPointExtension>
            <ns3:atemp>31.0</ns3:atemp>
            <ns3:hr>77</ns3:hr>
          </ns3:TrackPointExtension>
        </extensions>
      </trkpt>
      <trkpt lat="36.83372355066239833831787109375" lon="-118.54261835105717182159423828125">
        <ele>2030.199951171875</ele>
        <time>2021-06-28T16:56:28.000Z</time>
        <extensions>
          <ns3:TrackPointExtension>
            <ns3:atemp>31.0</ns3:atemp>
            <ns3:hr>76</ns3:hr>
          </ns3:TrackPointExtension>
        </extensions>
      </trkpt>
      <trkpt lat="36.83372355066239833831787109375" lon="-118.54261835105717182159423828125">
        <ele>2030.199951171875</ele>
        <time>2021-06-28T16:56:29.000Z</time>
        <extensions>
          <ns3:TrackPointExtension>
            <ns3:atemp>31.0</ns3:atemp>
            <ns3:hr>75</ns3:hr>
          </ns3:TrackPointExtension>
        </extensions>
      </trkpt>
      <trkpt lat="36.83371030725538730621337890625" lon="-118.5426157526671886444091796875">
        <ele>2030.199951171875</ele>
        <time>2021-06-28T16:56:30.000Z</time>
        <extensions>
          <ns3:TrackPointExtension>
            <ns3:atemp>30.0</ns3:atemp>
            <ns3:hr>75</ns3:hr>
          </ns3:TrackPointExtension>
        </extensions>
      </trkpt>
      <trkpt lat="36.8336403183639049530029296875" lon="-118.5426105558872222900390625">
        <ele>2029.800048828125</ele>
        <time>2021-06-28T16:56:35.000Z</time>
        <extensions>
          <ns3:TrackPointExtension>
            <ns3:atemp>31.0</ns3:atemp>
            <ns3:hr>75</ns3:hr>
          </ns3:TrackPointExtension>
        </extensions>
      </trkpt>
      <trkpt lat="36.8336403183639049530029296875" lon="-118.5426105558872222900390625">
        <ele>2029.800048828125</ele>
        <time>2021-06-28T16:56:36.000Z</time>
        <extensions>
          <ns3:TrackPointExtension>
            <ns3:atemp>30.0</ns3:atemp>
            <ns3:hr>74</ns3:hr>
          </ns3:TrackPointExtension>
        </extensions>
      </trkpt>
      <trkpt lat="36.83361710049211978912353515625" lon="-118.5425998270511627197265625">
        <ele>2029.4000244140625</ele>
        <time>2021-06-28T16:56:38.000Z</time>
        <extensions>
          <ns3:TrackPointExtension>
            <ns3:atemp>30.0</ns3:atemp>
            <ns3:hr>73</ns3:hr>
          </ns3:TrackPointExtension>
        </extensions>
      </trkpt>
      <trkpt lat="36.83356815017759799957275390625" lon="-118.54260183870792388916015625">
        <ele>2029.199951171875</ele>
        <time>2021-06-28T16:56:41.000Z</time>
        <extensions>
          <ns3:TrackPointExtension>
            <ns3:atemp>30.0</ns3:atemp>
            <ns3:hr>72</ns3:hr>
          </ns3:TrackPointExtension>
        </extensions>
      </trkpt>
      <trkpt lat="36.8335370533168315887451171875" lon="-118.5425989888608455657958984375">
        <ele>2029</ele>
        <time>2021-06-28T16:56:43.000Z</time>
        <extensions>
          <ns3:TrackPointExtension>
            <ns3:atemp>31.0</ns3:atemp>
            <ns3:hr>72</ns3:hr>
          </ns3:TrackPointExtension>
        </extensions>
      </trkpt>
      <trkpt lat="36.83347578160464763641357421875" lon="-118.54257778264582157135009765625">
        <ele>2029</ele>
        <time>2021-06-28T16:56:46.000Z</time>
        <extensions>
          <ns3:TrackPointExtension>
            <ns3:atemp>30.0</ns3:atemp>
            <ns3:hr>73</ns3:hr>
          </ns3:TrackPointExtension>
        </extensions>
      </trkpt>
      <trkpt lat="36.8334461934864521026611328125" lon="-118.54257107712328433990478515625">
        <ele>2029</ele>
        <time>2021-06-28T16:56:48.000Z</time>
        <extensions>
          <ns3:TrackPointExtension>
            <ns3:atemp>30.0</ns3:atemp>
            <ns3:hr>72</ns3:hr>
          </ns3:TrackPointExtension>
        </extensions>
      </trkpt>
      <trkpt lat="36.83338458649814128875732421875" lon="-118.54254391975700855255126953125">
        <ele>2028.800048828125</ele>
        <time>2021-06-28T16:56:52.000Z</time>
        <extensions>
          <ns3:TrackPointExtension>
            <ns3:atemp>30.0</ns3:atemp>
            <ns3:hr>74</ns3:hr>
          </ns3:TrackPointExtension>
        </extensions>
      </trkpt>
      <trkpt lat="36.83337561786174774169921875" lon="-118.5425396449863910675048828125">
        <ele>2029</ele>
        <time>2021-06-28T16:56:54.000Z</time>
        <extensions>
          <ns3:TrackPointExtension>
            <ns3:atemp>30.0</ns3:atemp>
            <ns3:hr>74</ns3:hr>
          </ns3:TrackPointExtension>
        </extensions>
      </trkpt>
      <trkpt lat="36.83324678801000118255615234375" lon="-118.54253285564482212066650390625">
        <ele>2029.199951171875</ele>
        <time>2021-06-28T16:57:00.000Z</time>
        <extensions>
          <ns3:TrackPointExtension>
            <ns3:atemp>30.0</ns3:atemp>
            <ns3:hr>77</ns3:hr>
          </ns3:TrackPointExtension>
        </extensions>
      </trkpt>
      <trkpt lat="36.833243183791637420654296875" lon="-118.5425515472888946533203125">
        <ele>2029</ele>
        <time>2021-06-28T16:57:01.000Z</time>
        <extensions>
          <ns3:TrackPointExtension>
            <ns3:atemp>30.0</ns3:atemp>
            <ns3:hr>78</ns3:hr>
          </ns3:TrackPointExtension>
        </extensions>
      </trkpt>
      <trkpt lat="36.83322851546108722686767578125" lon="-118.54256696999073028564453125">
        <ele>2029.199951171875</ele>
        <time>2021-06-28T16:57:03.000Z</time>
        <extensions>
          <ns3:TrackPointExtension>
            <ns3:atemp>30.0</ns3:atemp>
            <ns3:hr>80</ns3:hr>
          </ns3:TrackPointExtension>
        </extensions>
      </trkpt>
      <trkpt lat="36.833203621208667755126953125" lon="-118.5426020063459873199462890625">
        <ele>2029</ele>
        <time>2021-06-28T16:57:06.000Z</time>
        <extensions>
          <ns3:TrackPointExtension>
            <ns3:atemp>30.0</ns3:atemp>
            <ns3:hr>81</ns3:hr>
          </ns3:TrackPointExtension>
        </extensions>
      </trkpt>
      <trkpt lat="36.8331952393054962158203125" lon="-118.54261617176234722137451171875">
        <ele>2029</ele>
        <time>2021-06-28T16:57:07.000Z</time>
        <extensions>
          <ns3:TrackPointExtension>
            <ns3:atemp>30.0</ns3:atemp>
            <ns3:hr>82</ns3:hr>
          </ns3:TrackPointExtension>
        </extensions>
      </trkpt>
      <trkpt lat="36.833188869059085845947265625" lon="-118.54262941516935825347900390625">
        <ele>2029</ele>
        <time>2021-06-28T16:57:08.000Z</time>
        <extensions>
          <ns3:TrackPointExtension>
            <ns3:atemp>30.0</ns3:atemp>
            <ns3:hr>82</ns3:hr>
          </ns3:TrackPointExtension>
        </extensions>
      </trkpt>
      <trkpt lat="36.8331638909876346588134765625" lon="-118.54269764386117458343505859375">
        <ele>2028.800048828125</ele>
        <time>2021-06-28T16:57:13.000Z</time>
        <extensions>
          <ns3:TrackPointExtension>
            <ns3:atemp>30.0</ns3:atemp>
            <ns3:hr>82</ns3:hr>
          </ns3:TrackPointExtension>
        </extensions>
      </trkpt>
      <trkpt lat="36.83315676636993885040283203125" lon="-118.5427062772214412689208984375">
        <ele>2028.5999755859375</ele>
        <time>2021-06-28T16:57:14.000Z</time>
        <extensions>
          <ns3:TrackPointExtension>
            <ns3:atemp>30.0</ns3:atemp>
            <ns3:hr>82</ns3:hr>
          </ns3:TrackPointExtension>
        </extensions>
      </trkpt>
      <trkpt lat="36.83309105224907398223876953125" lon="-118.54279152117669582366943359375">
        <ele>2028.5999755859375</ele>
        <time>2021-06-28T16:57:19.000Z</time>
        <extensions>
          <ns3:TrackPointExtension>
            <ns3:atemp>30.0</ns3:atemp>
            <ns3:hr>82</ns3:hr>
          </ns3:TrackPointExtension>
        </extensions>
      </trkpt>
      <trkpt lat="36.83305316604673862457275390625" lon="-118.542837202548980712890625">
        <ele>2028.800048828125</ele>
        <time>2021-06-28T16:57:22.000Z</time>
        <extensions>
          <ns3:TrackPointExtension>
            <ns3:atemp>30.0</ns3:atemp>
            <ns3:hr>85</ns3:hr>
          </ns3:TrackPointExtension>
        </extensions>
      </trkpt>
      <trkpt lat="36.8330396711826324462890625" lon="-118.54284382425248622894287109375">
        <ele>2028.800048828125</ele>
        <time>2021-06-28T16:57:23.000Z</time>
        <extensions>
          <ns3:TrackPointExtension>
            <ns3:atemp>30.0</ns3:atemp>
            <ns3:hr>82</ns3:hr>
          </ns3:TrackPointExtension>
        </extensions>
      </trkpt>
      <trkpt lat="36.83302751742303371429443359375" lon="-118.54285170324146747589111328125">
        <ele>2028.800048828125</ele>
        <time>2021-06-28T16:57:24.000Z</time>
        <extensions>
          <ns3:TrackPointExtension>
            <ns3:atemp>30.0</ns3:atemp>
            <ns3:hr>84</ns3:hr>
          </ns3:TrackPointExtension>
        </extensions>
      </trkpt>
      <trkpt lat="36.83300320990383625030517578125" lon="-118.54286243207752704620361328125">
        <ele>2028.5999755859375</ele>
        <time>2021-06-28T16:57:26.000Z</time>
        <extensions>
          <ns3:TrackPointExtension>
            <ns3:atemp>30.0</ns3:atemp>
            <ns3:hr>85</ns3:hr>
          </ns3:TrackPointExtension>
        </extensions>
      </trkpt>
      <trkpt lat="36.8329764716327190399169921875" lon="-118.54286276735365390777587890625">
        <ele>2028.800048828125</ele>
        <time>2021-06-28T16:57:28.000Z</time>
        <extensions>
          <ns3:TrackPointExtension>
            <ns3:atemp>30.0</ns3:atemp>
            <ns3:hr>84</ns3:hr>
          </ns3:TrackPointExtension>
        </extensions>
      </trkpt>
      <trkpt lat="36.832943446934223175048828125" lon="-118.54289822280406951904296875">
        <ele>2028.800048828125</ele>
        <time>2021-06-28T16:57:32.000Z</time>
        <extensions>
          <ns3:TrackPointExtension>
            <ns3:atemp>30.0</ns3:atemp>
            <ns3:hr>84</ns3:hr>
          </ns3:TrackPointExtension>
        </extensions>
      </trkpt>
      <trkpt lat="36.832943446934223175048828125" lon="-118.54289822280406951904296875">
        <ele>2028.800048828125</ele>
        <time>2021-06-28T16:57:33.000Z</time>
        <extensions>
          <ns3:TrackPointExtension>
            <ns3:atemp>30.0</ns3:atemp>
            <ns3:hr>87</ns3:hr>
          </ns3:TrackPointExtension>
        </extensions>
      </trkpt>
      <trkpt lat="36.83294034563004970550537109375" lon="-118.54291305877268314361572265625">
        <ele>2028.800048828125</ele>
        <time>2021-06-28T16:57:34.000Z</time>
        <extensions>
          <ns3:TrackPointExtension>
            <ns3:atemp>30.0</ns3:atemp>
            <ns3:hr>84</ns3:hr>
          </ns3:TrackPointExtension>
        </extensions>
      </trkpt>
      <trkpt lat="36.8329297006130218505859375" lon="-118.54293351061642169952392578125">
        <ele>2028.800048828125</ele>
        <time>2021-06-28T16:57:35.000Z</time>
        <extensions>
          <ns3:TrackPointExtension>
            <ns3:atemp>30.0</ns3:atemp>
            <ns3:hr>84</ns3:hr>
          </ns3:TrackPointExtension>
        </extensions>
      </trkpt>
      <trkpt lat="36.8329191394150257110595703125" lon="-118.5429396294057369232177734375">
        <ele>2029</ele>
        <time>2021-06-28T16:57:37.000Z</time>
        <extensions>
          <ns3:TrackPointExtension>
            <ns3:atemp>30.0</ns3:atemp>
            <ns3:hr>86</ns3:hr>
          </ns3:TrackPointExtension>
        </extensions>
      </trkpt>
      <trkpt lat="36.8328795768320560455322265625" lon="-118.5429570637643337249755859375">
        <ele>2029</ele>
        <time>2021-06-28T16:57:39.000Z</time>
        <extensions>
          <ns3:TrackPointExtension>
            <ns3:atemp>30.0</ns3:atemp>
            <ns3:hr>87</ns3:hr>
          </ns3:TrackPointExtension>
        </extensions>
      </trkpt>
      <trkpt lat="36.8328514136373996734619140625" lon="-118.54296301491558551788330078125">
        <ele>2028.800048828125</ele>
        <time>2021-06-28T16:57:41.000Z</time>
        <extensions>
          <ns3:TrackPointExtension>
            <ns3:atemp>30.0</ns3:atemp>
            <ns3:hr>87</ns3:hr>
          </ns3:TrackPointExtension>
        </extensions>
      </trkpt>
      <trkpt lat="36.83275326155126094818115234375" lon="-118.5429962910711765289306640625">
        <ele>2028.800048828125</ele>
        <time>2021-06-28T16:57:49.000Z</time>
        <extensions>
          <ns3:TrackPointExtension>
            <ns3:atemp>30.0</ns3:atemp>
            <ns3:hr>86</ns3:hr>
          </ns3:TrackPointExtension>
        </extensions>
      </trkpt>
      <trkpt lat="36.832732222974300384521484375" lon="-118.5429875738918781280517578125">
        <ele>2028.800048828125</ele>
        <time>2021-06-28T16:57:50.000Z</time>
        <extensions>
          <ns3:TrackPointExtension>
            <ns3:atemp>30.0</ns3:atemp>
            <ns3:hr>86</ns3:hr>
          </ns3:TrackPointExtension>
        </extensions>
      </trkpt>
      <trkpt lat="36.83265821076929569244384765625" lon="-118.542993105947971343994140625">
        <ele>2028.5999755859375</ele>
        <time>2021-06-28T16:57:54.000Z</time>
        <extensions>
          <ns3:TrackPointExtension>
            <ns3:atemp>30.0</ns3:atemp>
            <ns3:hr>86</ns3:hr>
          </ns3:TrackPointExtension>
        </extensions>
      </trkpt>
      <trkpt lat="36.8326515890657901763916015625" lon="-118.54300693608820438385009765625">
        <ele>2028.5999755859375</ele>
        <time>2021-06-28T16:57:55.000Z</time>
        <extensions>
          <ns3:TrackPointExtension>
            <ns3:atemp>30.0</ns3:atemp>
            <ns3:hr>86</ns3:hr>
          </ns3:TrackPointExtension>
        </extensions>
      </trkpt>
      <trkpt lat="36.832605488598346710205078125" lon="-118.54301464743912220001220703125">
        <ele>2028.4000244140625</ele>
        <time>2021-06-28T16:57:59.000Z</time>
        <extensions>
          <ns3:TrackPointExtension>
            <ns3:atemp>30.0</ns3:atemp>
            <ns3:hr>86</ns3:hr>
          </ns3:TrackPointExtension>
        </extensions>
      </trkpt>
      <trkpt lat="36.83258210308849811553955078125" lon="-118.5430316627025604248046875">
        <ele>2028.4000244140625</ele>
        <time>2021-06-28T16:58:02.000Z</time>
        <extensions>
          <ns3:TrackPointExtension>
            <ns3:atemp>30.0</ns3:atemp>
            <ns3:hr>87</ns3:hr>
          </ns3:TrackPointExtension>
        </extensions>
      </trkpt>
      <trkpt lat="36.8325515091419219970703125" lon="-118.5430522821843624114990234375">
        <ele>2029</ele>
        <time>2021-06-28T16:58:05.000Z</time>
        <extensions>
          <ns3:TrackPointExtension>
            <ns3:atemp>30.0</ns3:atemp>
            <ns3:hr>86</ns3:hr>
          </ns3:TrackPointExtension>
        </extensions>
      </trkpt>
      <trkpt lat="36.832488812506198883056640625" lon="-118.5430304892361164093017578125">
        <ele>2029.5999755859375</ele>
        <time>2021-06-28T16:58:09.000Z</time>
        <extensions>
          <ns3:TrackPointExtension>
            <ns3:atemp>31.0</ns3:atemp>
            <ns3:hr>85</ns3:hr>
          </ns3:TrackPointExtension>
        </extensions>
      </trkpt>
      <trkpt lat="36.83248378336429595947265625" lon="-118.54303023777902126312255859375">
        <ele>2029.5999755859375</ele>
        <time>2021-06-28T16:58:10.000Z</time>
        <extensions>
          <ns3:TrackPointExtension>
            <ns3:atemp>31.0</ns3:atemp>
            <ns3:hr>85</ns3:hr>
          </ns3:TrackPointExtension>
        </extensions>
      </trkpt>
      <trkpt lat="36.8324497528374195098876953125" lon="-118.54303459636867046356201171875">
        <ele>2030.199951171875</ele>
        <time>2021-06-28T16:58:14.000Z</time>
        <extensions>
          <ns3:TrackPointExtension>
            <ns3:atemp>31.0</ns3:atemp>
            <ns3:hr>86</ns3:hr>
          </ns3:TrackPointExtension>
        </extensions>
      </trkpt>
      <trkpt lat="36.832449920475482940673828125" lon="-118.54303945787250995635986328125">
        <ele>2030.4000244140625</ele>
        <time>2021-06-28T16:58:15.000Z</time>
        <extensions>
          <ns3:TrackPointExtension>
            <ns3:atemp>31.0</ns3:atemp>
            <ns3:hr>87</ns3:hr>
          </ns3:TrackPointExtension>
        </extensions>
      </trkpt>
      <trkpt lat="36.832449920475482940673828125" lon="-118.54304172098636627197265625">
        <ele>2030.800048828125</ele>
        <time>2021-06-28T16:58:17.000Z</time>
        <extensions>
          <ns3:TrackPointExtension>
            <ns3:atemp>31.0</ns3:atemp>
            <ns3:hr>89</ns3:hr>
          </ns3:TrackPointExtension>
        </extensions>
      </trkpt>
      <trkpt lat="36.83244531042873859405517578125" lon="-118.54304113425314426422119140625">
        <ele>2030.800048828125</ele>
        <time>2021-06-28T16:58:18.000Z</time>
        <extensions>
          <ns3:TrackPointExtension>
            <ns3:atemp>31.0</ns3:atemp>
            <ns3:hr>92</ns3:hr>
          </ns3:TrackPointExtension>
        </extensions>
      </trkpt>
      <trkpt lat="36.83243206702172756195068359375" lon="-118.54303359054028987884521484375">
        <ele>2030.800048828125</ele>
        <time>2021-06-28T16:58:20.000Z</time>
        <extensions>
          <ns3:TrackPointExtension>
            <ns3:atemp>31.0</ns3:atemp>
            <ns3:hr>91</ns3:hr>
          </ns3:TrackPointExtension>
        </extensions>
      </trkpt>
      <trkpt lat="36.83242334984242916107177734375" lon="-118.5430284775793552398681640625">
        <ele>2030.800048828125</ele>
        <time>2021-06-28T16:58:21.000Z</time>
        <extensions>
          <ns3:TrackPointExtension>
            <ns3:atemp>31.0</ns3:atemp>
            <ns3:hr>92</ns3:hr>
          </ns3:TrackPointExtension>
        </extensions>
      </trkpt>
      <trkpt lat="36.8324075080454349517822265625" lon="-118.54302906431257724761962890625">
        <ele>2030.5999755859375</ele>
        <time>2021-06-28T16:58:24.000Z</time>
        <extensions>
          <ns3:TrackPointExtension>
            <ns3:atemp>31.0</ns3:atemp>
            <ns3:hr>95</ns3:hr>
          </ns3:TrackPointExtension>
        </extensions>
      </trkpt>
      <trkpt lat="36.832386888563632965087890625" lon="-118.543034680187702178955078125">
        <ele>2030.5999755859375</ele>
        <time>2021-06-28T16:58:27.000Z</time>
        <extensions>
          <ns3:TrackPointExtension>
            <ns3:atemp>31.0</ns3:atemp>
            <ns3:hr>97</ns3:hr>
          </ns3:TrackPointExtension>
        </extensions>
      </trkpt>
      <trkpt lat="36.832386888563632965087890625" lon="-118.543034680187702178955078125">
        <ele>2030.5999755859375</ele>
        <time>2021-06-28T16:58:28.000Z</time>
        <extensions>
          <ns3:TrackPointExtension>
            <ns3:atemp>31.0</ns3:atemp>
            <ns3:hr>98</ns3:hr>
          </ns3:TrackPointExtension>
        </extensions>
      </trkpt>
      <trkpt lat="36.8323753215372562408447265625" lon="-118.54302453808486461639404296875">
        <ele>2030.199951171875</ele>
        <time>2021-06-28T16:58:30.000Z</time>
        <extensions>
          <ns3:TrackPointExtension>
            <ns3:atemp>31.0</ns3:atemp>
            <ns3:hr>98</ns3:hr>
          </ns3:TrackPointExtension>
        </extensions>
      </trkpt>
      <trkpt lat="36.83237456716597080230712890625" lon="-118.5430029965937137603759765625">
        <ele>2029.800048828125</ele>
        <time>2021-06-28T16:58:33.000Z</time>
        <extensions>
          <ns3:TrackPointExtension>
            <ns3:atemp>31.0</ns3:atemp>
            <ns3:hr>98</ns3:hr>
          </ns3:TrackPointExtension>
        </extensions>
      </trkpt>
      <trkpt lat="36.8323773331940174102783203125" lon="-118.54299201630055904388427734375">
        <ele>2029.199951171875</ele>
        <time>2021-06-28T16:58:35.000Z</time>
        <extensions>
          <ns3:TrackPointExtension>
            <ns3:atemp>31.0</ns3:atemp>
            <ns3:hr>99</ns3:hr>
          </ns3:TrackPointExtension>
        </extensions>
      </trkpt>
      <trkpt lat="36.8323719687759876251220703125" lon="-118.54296661913394927978515625">
        <ele>2028.4000244140625</ele>
        <time>2021-06-28T16:58:36.000Z</time>
        <extensions>
          <ns3:TrackPointExtension>
            <ns3:atemp>31.0</ns3:atemp>
            <ns3:hr>100</ns3:hr>
          </ns3:TrackPointExtension>
        </extensions>
      </trkpt>
      <trkpt lat="36.83235897682607173919677734375" lon="-118.54295278899371623992919921875">
        <ele>2028.4000244140625</ele>
        <time>2021-06-28T16:58:37.000Z</time>
        <extensions>
          <ns3:TrackPointExtension>
            <ns3:atemp>31.0</ns3:atemp>
            <ns3:hr>100</ns3:hr>
          </ns3:TrackPointExtension>
        </extensions>
      </trkpt>
      <trkpt lat="36.8323233537375926971435546875" lon="-118.5429352708160877227783203125">
        <ele>2028.199951171875</ele>
        <time>2021-06-28T16:58:39.000Z</time>
        <extensions>
          <ns3:TrackPointExtension>
            <ns3:atemp>31.0</ns3:atemp>
            <ns3:hr>100</ns3:hr>
          </ns3:TrackPointExtension>
        </extensions>
      </trkpt>
      <trkpt lat="36.8322951905429363250732421875" lon="-118.5429500229656696319580078125">
        <ele>2028.199951171875</ele>
        <time>2021-06-28T16:58:42.000Z</time>
        <extensions>
          <ns3:TrackPointExtension>
            <ns3:atemp>31.0</ns3:atemp>
            <ns3:hr>100</ns3:hr>
          </ns3:TrackPointExtension>
        </extensions>
      </trkpt>
      <trkpt lat="36.832246072590351104736328125" lon="-118.54298598133027553558349609375">
        <ele>2028.4000244140625</ele>
        <time>2021-06-28T16:58:50.000Z</time>
        <extensions>
          <ns3:TrackPointExtension>
            <ns3:atemp>31.0</ns3:atemp>
            <ns3:hr>100</ns3:hr>
          </ns3:TrackPointExtension>
        </extensions>
      </trkpt>
      <trkpt lat="36.8321912549436092376708984375" lon="-118.54299603961408138275146484375">
        <ele>2028.800048828125</ele>
        <time>2021-06-28T16:58:56.000Z</time>
        <extensions>
          <ns3:TrackPointExtension>
            <ns3:atemp>31.0</ns3:atemp>
            <ns3:hr>100</ns3:hr>
          </ns3:TrackPointExtension>
        </extensions>
      </trkpt>
      <trkpt lat="36.83212763629853725433349609375" lon="-118.54298816062510013580322265625">
        <ele>2028.4000244140625</ele>
        <time>2021-06-28T16:59:00.000Z</time>
        <extensions>
          <ns3:TrackPointExtension>
            <ns3:atemp>31.0</ns3:atemp>
            <ns3:hr>99</ns3:hr>
          </ns3:TrackPointExtension>
        </extensions>
      </trkpt>
      <trkpt lat="36.83211137540638446807861328125" lon="-118.54298631660640239715576171875">
        <ele>2028.4000244140625</ele>
        <time>2021-06-28T16:59:02.000Z</time>
        <extensions>
          <ns3:TrackPointExtension>
            <ns3:atemp>31.0</ns3:atemp>
            <ns3:hr>99</ns3:hr>
          </ns3:TrackPointExtension>
        </extensions>
      </trkpt>
      <trkpt lat="36.83207466267049312591552734375" lon="-118.54298480786383152008056640625">
        <ele>2029</ele>
        <time>2021-06-28T16:59:05.000Z</time>
        <extensions>
          <ns3:TrackPointExtension>
            <ns3:atemp>31.0</ns3:atemp>
            <ns3:hr>96</ns3:hr>
          </ns3:TrackPointExtension>
        </extensions>
      </trkpt>
      <trkpt lat="36.83206829242408275604248046875" lon="-118.5429895855486392974853515625">
        <ele>2029.199951171875</ele>
        <time>2021-06-28T16:59:06.000Z</time>
        <extensions>
          <ns3:TrackPointExtension>
            <ns3:atemp>31.0</ns3:atemp>
            <ns3:hr>95</ns3:hr>
          </ns3:TrackPointExtension>
        </extensions>
      </trkpt>
      <trkpt lat="36.8320648558437824249267578125" lon="-118.54299746453762054443359375">
        <ele>2029.199951171875</ele>
        <time>2021-06-28T16:59:07.000Z</time>
        <extensions>
          <ns3:TrackPointExtension>
            <ns3:atemp>31.0</ns3:atemp>
            <ns3:hr>95</ns3:hr>
          </ns3:TrackPointExtension>
        </extensions>
      </trkpt>
      <trkpt lat="36.83203359134495258331298828125" lon="-118.543009869754314422607421875">
        <ele>2029.4000244140625</ele>
        <time>2021-06-28T16:59:11.000Z</time>
        <extensions>
          <ns3:TrackPointExtension>
            <ns3:atemp>31.0</ns3:atemp>
            <ns3:hr>91</ns3:hr>
          </ns3:TrackPointExtension>
        </extensions>
      </trkpt>
      <trkpt lat="36.8319934420287609100341796875" lon="-118.5430194251239299774169921875">
        <ele>2029.800048828125</ele>
        <time>2021-06-28T16:59:14.000Z</time>
        <extensions>
          <ns3:TrackPointExtension>
            <ns3:atemp>31.0</ns3:atemp>
            <ns3:hr>90</ns3:hr>
          </ns3:TrackPointExtension>
        </extensions>
      </trkpt>
      <trkpt lat="36.8319823779165744781494140625" lon="-118.54301816783845424652099609375">
        <ele>2029.800048828125</ele>
        <time>2021-06-28T16:59:15.000Z</time>
        <extensions>
          <ns3:TrackPointExtension>
            <ns3:atemp>31.0</ns3:atemp>
            <ns3:hr>91</ns3:hr>
          </ns3:TrackPointExtension>
        </extensions>
      </trkpt>
      <trkpt lat="36.8319480121135711669921875" lon="-118.54303157888352870941162109375">
        <ele>2030.199951171875</ele>
        <time>2021-06-28T16:59:18.000Z</time>
        <extensions>
          <ns3:TrackPointExtension>
            <ns3:atemp>31.0</ns3:atemp>
            <ns3:hr>93</ns3:hr>
          </ns3:TrackPointExtension>
        </extensions>
      </trkpt>
      <trkpt lat="36.831926219165325164794921875" lon="-118.54304172098636627197265625">
        <ele>2030.199951171875</ele>
        <time>2021-06-28T16:59:20.000Z</time>
        <extensions>
          <ns3:TrackPointExtension>
            <ns3:atemp>31.0</ns3:atemp>
            <ns3:hr>94</ns3:hr>
          </ns3:TrackPointExtension>
        </extensions>
      </trkpt>
      <trkpt lat="36.83188573457300662994384765625" lon="-118.5430217720568180084228515625">
        <ele>2030.199951171875</ele>
        <time>2021-06-28T16:59:23.000Z</time>
        <extensions>
          <ns3:TrackPointExtension>
            <ns3:atemp>31.0</ns3:atemp>
            <ns3:hr>95</ns3:hr>
          </ns3:TrackPointExtension>
        </extensions>
      </trkpt>
      <trkpt lat="36.83187433518469333648681640625" lon="-118.5429922677576541900634765625">
        <ele>2029.4000244140625</ele>
        <time>2021-06-28T16:59:26.000Z</time>
        <extensions>
          <ns3:TrackPointExtension>
            <ns3:atemp>31.0</ns3:atemp>
            <ns3:hr>94</ns3:hr>
          </ns3:TrackPointExtension>
        </extensions>
      </trkpt>
      <trkpt lat="36.83182504959404468536376953125" lon="-118.5429265536367893218994140625">
        <ele>2028.4000244140625</ele>
        <time>2021-06-28T16:59:32.000Z</time>
        <extensions>
          <ns3:TrackPointExtension>
            <ns3:atemp>31.0</ns3:atemp>
            <ns3:hr>94</ns3:hr>
          </ns3:TrackPointExtension>
        </extensions>
      </trkpt>
      <trkpt lat="36.8317895941436290740966796875" lon="-118.5429111309349536895751953125">
        <ele>2028.199951171875</ele>
        <time>2021-06-28T16:59:34.000Z</time>
        <extensions>
          <ns3:TrackPointExtension>
            <ns3:atemp>31.0</ns3:atemp>
            <ns3:hr>96</ns3:hr>
          </ns3:TrackPointExtension>
        </extensions>
      </trkpt>
      <trkpt lat="36.83177827857434749603271484375" lon="-118.5429107956588268280029296875">
        <ele>2028.199951171875</ele>
        <time>2021-06-28T16:59:36.000Z</time>
        <extensions>
          <ns3:TrackPointExtension>
            <ns3:atemp>31.0</ns3:atemp>
            <ns3:hr>97</ns3:hr>
          </ns3:TrackPointExtension>
        </extensions>
      </trkpt>
      <trkpt lat="36.83175916783511638641357421875" lon="-118.54291163384914398193359375">
        <ele>2028.5999755859375</ele>
        <time>2021-06-28T16:59:38.000Z</time>
        <extensions>
          <ns3:TrackPointExtension>
            <ns3:atemp>31.0</ns3:atemp>
            <ns3:hr>98</ns3:hr>
          </ns3:TrackPointExtension>
        </extensions>
      </trkpt>
      <trkpt lat="36.83175128884613513946533203125" lon="-118.5429101251065731048583984375">
        <ele>2028.800048828125</ele>
        <time>2021-06-28T16:59:39.000Z</time>
        <extensions>
          <ns3:TrackPointExtension>
            <ns3:atemp>31.0</ns3:atemp>
            <ns3:hr>98</ns3:hr>
          </ns3:TrackPointExtension>
        </extensions>
      </trkpt>
      <trkpt lat="36.83172203600406646728515625" lon="-118.54293317534029483795166015625">
        <ele>2029</ele>
        <time>2021-06-28T16:59:42.000Z</time>
        <extensions>
          <ns3:TrackPointExtension>
            <ns3:atemp>31.0</ns3:atemp>
            <ns3:hr>95</ns3:hr>
          </ns3:TrackPointExtension>
        </extensions>
      </trkpt>
      <trkpt lat="36.83172203600406646728515625" lon="-118.54293317534029483795166015625">
        <ele>2029.199951171875</ele>
        <time>2021-06-28T16:59:43.000Z</time>
        <extensions>
          <ns3:TrackPointExtension>
            <ns3:atemp>31.0</ns3:atemp>
            <ns3:hr>94</ns3:hr>
          </ns3:TrackPointExtension>
        </extensions>
      </trkpt>
      <trkpt lat="36.83171457611024379730224609375" lon="-118.542936779558658599853515625">
        <ele>2029.199951171875</ele>
        <time>2021-06-28T16:59:44.000Z</time>
        <extensions>
          <ns3:TrackPointExtension>
            <ns3:atemp>31.0</ns3:atemp>
            <ns3:hr>97</ns3:hr>
          </ns3:TrackPointExtension>
        </extensions>
      </trkpt>
      <trkpt lat="36.831704936921596527099609375" lon="-118.5429399646818637847900390625">
        <ele>2029.4000244140625</ele>
        <time>2021-06-28T16:59:45.000Z</time>
        <extensions>
          <ns3:TrackPointExtension>
            <ns3:atemp>32.0</ns3:atemp>
            <ns3:hr>96</ns3:hr>
          </ns3:TrackPointExtension>
        </extensions>
      </trkpt>
      <trkpt lat="36.83167635463178157806396484375" lon="-118.5429429821670055389404296875">
        <ele>2029.4000244140625</ele>
        <time>2021-06-28T16:59:46.000Z</time>
        <extensions>
          <ns3:TrackPointExtension>
            <ns3:atemp>31.0</ns3:atemp>
            <ns3:hr>96</ns3:hr>
          </ns3:TrackPointExtension>
        </extensions>
      </trkpt>
      <trkpt lat="36.83162371627986431121826171875" lon="-118.54294558055698871612548828125">
        <ele>2030</ele>
        <time>2021-06-28T16:59:51.000Z</time>
        <extensions>
          <ns3:TrackPointExtension>
            <ns3:atemp>32.0</ns3:atemp>
            <ns3:hr>99</ns3:hr>
          </ns3:TrackPointExtension>
        </extensions>
      </trkpt>
      <trkpt lat="36.83160946704447269439697265625" lon="-118.54294373653829097747802734375">
        <ele>2030</ele>
        <time>2021-06-28T16:59:52.000Z</time>
        <extensions>
          <ns3:TrackPointExtension>
            <ns3:atemp>32.0</ns3:atemp>
            <ns3:hr>97</ns3:hr>
          </ns3:TrackPointExtension>
        </extensions>
      </trkpt>
      <trkpt lat="36.83156554587185382843017578125" lon="-118.5429218597710132598876953125">
        <ele>2030</ele>
        <time>2021-06-28T16:59:53.000Z</time>
        <extensions>
          <ns3:TrackPointExtension>
            <ns3:atemp>32.0</ns3:atemp>
            <ns3:hr>97</ns3:hr>
          </ns3:TrackPointExtension>
        </extensions>
      </trkpt>
      <trkpt lat="36.83153436519205570220947265625" lon="-118.54292906820774078369140625">
        <ele>2030</ele>
        <time>2021-06-28T16:59:55.000Z</time>
        <extensions>
          <ns3:TrackPointExtension>
            <ns3:atemp>32.0</ns3:atemp>
            <ns3:hr>96</ns3:hr>
          </ns3:TrackPointExtension>
        </extensions>
      </trkpt>
      <trkpt lat="36.83150938712060451507568359375" lon="-118.5429362766444683074951171875">
        <ele>2029.800048828125</ele>
        <time>2021-06-28T16:59:58.000Z</time>
        <extensions>
          <ns3:TrackPointExtension>
            <ns3:atemp>32.0</ns3:atemp>
            <ns3:hr>97</ns3:hr>
          </ns3:TrackPointExtension>
        </extensions>
      </trkpt>
      <trkpt lat="36.83149245567619800567626953125" lon="-118.5429419763386249542236328125">
        <ele>2029.199951171875</ele>
        <time>2021-06-28T17:00:02.000Z</time>
        <extensions>
          <ns3:TrackPointExtension>
            <ns3:atemp>32.0</ns3:atemp>
            <ns3:hr>99</ns3:hr>
          </ns3:TrackPointExtension>
        </extensions>
      </trkpt>
      <trkpt lat="36.83149815537035465240478515625" lon="-118.54293552227318286895751953125">
        <ele>2028.4000244140625</ele>
        <time>2021-06-28T17:00:04.000Z</time>
        <extensions>
          <ns3:TrackPointExtension>
            <ns3:atemp>32.0</ns3:atemp>
            <ns3:hr>97</ns3:hr>
          </ns3:TrackPointExtension>
        </extensions>
      </trkpt>
      <trkpt lat="36.8314911983907222747802734375" lon="-118.5429268889129161834716796875">
        <ele>2028.4000244140625</ele>
        <time>2021-06-28T17:00:05.000Z</time>
        <extensions>
          <ns3:TrackPointExtension>
            <ns3:atemp>32.0</ns3:atemp>
            <ns3:hr>98</ns3:hr>
          </ns3:TrackPointExtension>
        </extensions>
      </trkpt>
      <trkpt lat="36.83146320283412933349609375" lon="-118.5429030843079090118408203125">
        <ele>2028.199951171875</ele>
        <time>2021-06-28T17:00:08.000Z</time>
        <extensions>
          <ns3:TrackPointExtension>
            <ns3:atemp>32.0</ns3:atemp>
            <ns3:hr>98</ns3:hr>
          </ns3:TrackPointExtension>
        </extensions>
      </trkpt>
      <trkpt lat="36.83146320283412933349609375" lon="-118.5429030843079090118408203125">
        <ele>2028.199951171875</ele>
        <time>2021-06-28T17:00:09.000Z</time>
        <extensions>
          <ns3:TrackPointExtension>
            <ns3:atemp>32.0</ns3:atemp>
            <ns3:hr>98</ns3:hr>
          </ns3:TrackPointExtension>
        </extensions>
      </trkpt>
      <trkpt lat="36.83144451119005680084228515625" lon="-118.54287969879806041717529296875">
        <ele>2028</ele>
        <time>2021-06-28T17:00:11.000Z</time>
        <extensions>
          <ns3:TrackPointExtension>
            <ns3:atemp>32.0</ns3:atemp>
            <ns3:hr>96</ns3:hr>
          </ns3:TrackPointExtension>
        </extensions>
      </trkpt>
      <trkpt lat="36.83143260888755321502685546875" lon="-118.5428574867546558380126953125">
        <ele>2027.800048828125</ele>
        <time>2021-06-28T17:00:13.000Z</time>
        <extensions>
          <ns3:TrackPointExtension>
            <ns3:atemp>32.0</ns3:atemp>
            <ns3:hr>96</ns3:hr>
          </ns3:TrackPointExtension>
        </extensions>
      </trkpt>
      <trkpt lat="36.83134946040809154510498046875" lon="-118.54286075569689273834228515625">
        <ele>2027.4000244140625</ele>
        <time>2021-06-28T17:00:21.000Z</time>
        <extensions>
          <ns3:TrackPointExtension>
            <ns3:atemp>32.0</ns3:atemp>
            <ns3:hr>95</ns3:hr>
          </ns3:TrackPointExtension>
        </extensions>
      </trkpt>
      <trkpt lat="36.83133688755333423614501953125" lon="-118.5428578220307826995849609375">
        <ele>2027</ele>
        <time>2021-06-28T17:00:24.000Z</time>
        <extensions>
          <ns3:TrackPointExtension>
            <ns3:atemp>32.0</ns3:atemp>
            <ns3:hr>96</ns3:hr>
          </ns3:TrackPointExtension>
        </extensions>
      </trkpt>
      <trkpt lat="36.83129045180976390838623046875" lon="-118.5428467579185962677001953125">
        <ele>2027.199951171875</ele>
        <time>2021-06-28T17:00:29.000Z</time>
        <extensions>
          <ns3:TrackPointExtension>
            <ns3:atemp>32.0</ns3:atemp>
            <ns3:hr>96</ns3:hr>
          </ns3:TrackPointExtension>
        </extensions>
      </trkpt>
      <trkpt lat="36.83128123171627521514892578125" lon="-118.54283074848353862762451171875">
        <ele>2027.199951171875</ele>
        <time>2021-06-28T17:00:31.000Z</time>
        <extensions>
          <ns3:TrackPointExtension>
            <ns3:atemp>32.0</ns3:atemp>
            <ns3:hr>95</ns3:hr>
          </ns3:TrackPointExtension>
        </extensions>
      </trkpt>
      <trkpt lat="36.8312533199787139892578125" lon="-118.54280945844948291778564453125">
        <ele>2027.199951171875</ele>
        <time>2021-06-28T17:00:35.000Z</time>
        <extensions>
          <ns3:TrackPointExtension>
            <ns3:atemp>32.0</ns3:atemp>
            <ns3:hr>92</ns3:hr>
          </ns3:TrackPointExtension>
        </extensions>
      </trkpt>
      <trkpt lat="36.8312357179820537567138671875" lon="-118.5428130626678466796875">
        <ele>2027.199951171875</ele>
        <time>2021-06-28T17:00:36.000Z</time>
        <extensions>
          <ns3:TrackPointExtension>
            <ns3:atemp>32.0</ns3:atemp>
            <ns3:hr>93</ns3:hr>
          </ns3:TrackPointExtension>
        </extensions>
      </trkpt>
      <trkpt lat="36.8312263302505016326904296875" lon="-118.54281649924814701080322265625">
        <ele>2026.800048828125</ele>
        <time>2021-06-28T17:00:37.000Z</time>
        <extensions>
          <ns3:TrackPointExtension>
            <ns3:atemp>32.0</ns3:atemp>
            <ns3:hr>93</ns3:hr>
          </ns3:TrackPointExtension>
        </extensions>
      </trkpt>
      <trkpt lat="36.83115349151194095611572265625" lon="-118.54283728636801242828369140625">
        <ele>2026.5999755859375</ele>
        <time>2021-06-28T17:00:45.000Z</time>
        <extensions>
          <ns3:TrackPointExtension>
            <ns3:atemp>32.0</ns3:atemp>
            <ns3:hr>92</ns3:hr>
          </ns3:TrackPointExtension>
        </extensions>
      </trkpt>
      <trkpt lat="36.83114678598940372467041015625" lon="-118.542844243347644805908203125">
        <ele>2027</ele>
        <time>2021-06-28T17:00:47.000Z</time>
        <extensions>
          <ns3:TrackPointExtension>
            <ns3:atemp>32.0</ns3:atemp>
            <ns3:hr>92</ns3:hr>
          </ns3:TrackPointExtension>
        </extensions>
      </trkpt>
      <trkpt lat="36.83115248568356037139892578125" lon="-118.5428430698812007904052734375">
        <ele>2027</ele>
        <time>2021-06-28T17:00:50.000Z</time>
        <extensions>
          <ns3:TrackPointExtension>
            <ns3:atemp>32.0</ns3:atemp>
            <ns3:hr>91</ns3:hr>
          </ns3:TrackPointExtension>
        </extensions>
      </trkpt>
      <trkpt lat="36.83114578016102313995361328125" lon="-118.54284457862377166748046875">
        <ele>2027</ele>
        <time>2021-06-28T17:00:54.000Z</time>
        <extensions>
          <ns3:TrackPointExtension>
            <ns3:atemp>32.0</ns3:atemp>
            <ns3:hr>87</ns3:hr>
          </ns3:TrackPointExtension>
        </extensions>
      </trkpt>
      <trkpt lat="36.83110537938773632049560546875" lon="-118.54287215508520603179931640625">
        <ele>2027</ele>
        <time>2021-06-28T17:00:57.000Z</time>
        <extensions>
          <ns3:TrackPointExtension>
            <ns3:atemp>32.0</ns3:atemp>
            <ns3:hr>85</ns3:hr>
          </ns3:TrackPointExtension>
        </extensions>
      </trkpt>
      <trkpt lat="36.83101720176637172698974609375" lon="-118.54289126582443714141845703125">
        <ele>2026.800048828125</ele>
        <time>2021-06-28T17:01:05.000Z</time>
        <extensions>
          <ns3:TrackPointExtension>
            <ns3:atemp>32.0</ns3:atemp>
            <ns3:hr>87</ns3:hr>
          </ns3:TrackPointExtension>
        </extensions>
      </trkpt>
      <trkpt lat="36.8310105800628662109375" lon="-118.54287676513195037841796875">
        <ele>2026.800048828125</ele>
        <time>2021-06-28T17:01:06.000Z</time>
        <extensions>
          <ns3:TrackPointExtension>
            <ns3:atemp>32.0</ns3:atemp>
            <ns3:hr>87</ns3:hr>
          </ns3:TrackPointExtension>
        </extensions>
      </trkpt>
      <trkpt lat="36.83099976740777492523193359375" lon="-118.54286125861108303070068359375">
        <ele>2026.800048828125</ele>
        <time>2021-06-28T17:01:08.000Z</time>
        <extensions>
          <ns3:TrackPointExtension>
            <ns3:atemp>32.0</ns3:atemp>
            <ns3:hr>87</ns3:hr>
          </ns3:TrackPointExtension>
        </extensions>
      </trkpt>
      <trkpt lat="36.83097914792597293853759765625" lon="-118.542869053781032562255859375">
        <ele>2026.4000244140625</ele>
        <time>2021-06-28T17:01:11.000Z</time>
        <extensions>
          <ns3:TrackPointExtension>
            <ns3:atemp>32.0</ns3:atemp>
            <ns3:hr>88</ns3:hr>
          </ns3:TrackPointExtension>
        </extensions>
      </trkpt>
      <trkpt lat="36.83091376908123493194580078125" lon="-118.54291674681007862091064453125">
        <ele>2026.5999755859375</ele>
        <time>2021-06-28T17:01:17.000Z</time>
        <extensions>
          <ns3:TrackPointExtension>
            <ns3:atemp>32.0</ns3:atemp>
            <ns3:hr>89</ns3:hr>
          </ns3:TrackPointExtension>
        </extensions>
      </trkpt>
      <trkpt lat="36.8308538384735584259033203125" lon="-118.54294105432927608489990234375">
        <ele>2027.4000244140625</ele>
        <time>2021-06-28T17:01:23.000Z</time>
        <extensions>
          <ns3:TrackPointExtension>
            <ns3:atemp>32.0</ns3:atemp>
            <ns3:hr>91</ns3:hr>
          </ns3:TrackPointExtension>
        </extensions>
      </trkpt>
      <trkpt lat="36.8307713605463504791259765625" lon="-118.5429389588534832000732421875">
        <ele>2027.800048828125</ele>
        <time>2021-06-28T17:01:30.000Z</time>
        <extensions>
          <ns3:TrackPointExtension>
            <ns3:atemp>32.0</ns3:atemp>
            <ns3:hr>91</ns3:hr>
          </ns3:TrackPointExtension>
        </extensions>
      </trkpt>
      <trkpt lat="36.83075417764484882354736328125" lon="-118.54292848147451877593994140625">
        <ele>2027.4000244140625</ele>
        <time>2021-06-28T17:01:32.000Z</time>
        <extensions>
          <ns3:TrackPointExtension>
            <ns3:atemp>32.0</ns3:atemp>
            <ns3:hr>92</ns3:hr>
          </ns3:TrackPointExtension>
        </extensions>
      </trkpt>
      <trkpt lat="36.83074177242815494537353515625" lon="-118.54293418116867542266845703125">
        <ele>2026.800048828125</ele>
        <time>2021-06-28T17:01:34.000Z</time>
        <extensions>
          <ns3:TrackPointExtension>
            <ns3:atemp>32.0</ns3:atemp>
            <ns3:hr>93</ns3:hr>
          </ns3:TrackPointExtension>
        </extensions>
      </trkpt>
      <trkpt lat="36.83071243576705455780029296875" lon="-118.542966283857822418212890625">
        <ele>2026.4000244140625</ele>
        <time>2021-06-28T17:01:38.000Z</time>
        <extensions>
          <ns3:TrackPointExtension>
            <ns3:atemp>32.0</ns3:atemp>
            <ns3:hr>93</ns3:hr>
          </ns3:TrackPointExtension>
        </extensions>
      </trkpt>
      <trkpt lat="36.83069835416972637176513671875" lon="-118.54296200908720493316650390625">
        <ele>2026.4000244140625</ele>
        <time>2021-06-28T17:01:39.000Z</time>
        <extensions>
          <ns3:TrackPointExtension>
            <ns3:atemp>32.0</ns3:atemp>
            <ns3:hr>93</ns3:hr>
          </ns3:TrackPointExtension>
        </extensions>
      </trkpt>
      <trkpt lat="36.83069114573299884796142578125" lon="-118.54296485893428325653076171875">
        <ele>2025.800048828125</ele>
        <time>2021-06-28T17:01:40.000Z</time>
        <extensions>
          <ns3:TrackPointExtension>
            <ns3:atemp>32.0</ns3:atemp>
            <ns3:hr>93</ns3:hr>
          </ns3:TrackPointExtension>
        </extensions>
      </trkpt>
      <trkpt lat="36.8306620605289936065673828125" lon="-118.54297508485615253448486328125">
        <ele>2025.5999755859375</ele>
        <time>2021-06-28T17:01:43.000Z</time>
        <extensions>
          <ns3:TrackPointExtension>
            <ns3:atemp>32.0</ns3:atemp>
            <ns3:hr>93</ns3:hr>
          </ns3:TrackPointExtension>
        </extensions>
      </trkpt>
      <trkpt lat="36.83065577410161495208740234375" lon="-118.54298547841608524322509765625">
        <ele>2025.5999755859375</ele>
        <time>2021-06-28T17:01:45.000Z</time>
        <extensions>
          <ns3:TrackPointExtension>
            <ns3:atemp>32.0</ns3:atemp>
            <ns3:hr>93</ns3:hr>
          </ns3:TrackPointExtension>
        </extensions>
      </trkpt>
      <trkpt lat="36.83062174357473850250244140625" lon="-118.54299738071858882904052734375">
        <ele>2026</ele>
        <time>2021-06-28T17:01:47.000Z</time>
        <extensions>
          <ns3:TrackPointExtension>
            <ns3:atemp>32.0</ns3:atemp>
            <ns3:hr>93</ns3:hr>
          </ns3:TrackPointExtension>
        </extensions>
      </trkpt>
      <trkpt lat="36.83060766197741031646728515625" lon="-118.542995452880859375">
        <ele>2026.199951171875</ele>
        <time>2021-06-28T17:01:49.000Z</time>
        <extensions>
          <ns3:TrackPointExtension>
            <ns3:atemp>32.0</ns3:atemp>
            <ns3:hr>93</ns3:hr>
          </ns3:TrackPointExtension>
        </extensions>
      </trkpt>
      <trkpt lat="36.83059173636138439178466796875" lon="-118.5429922677576541900634765625">
        <ele>2026.199951171875</ele>
        <time>2021-06-28T17:01:50.000Z</time>
        <extensions>
          <ns3:TrackPointExtension>
            <ns3:atemp>32.0</ns3:atemp>
            <ns3:hr>93</ns3:hr>
          </ns3:TrackPointExtension>
        </extensions>
      </trkpt>
      <trkpt lat="36.830442957580089569091796875" lon="-118.5429805330932140350341796875">
        <ele>2026</ele>
        <time>2021-06-28T17:01:56.000Z</time>
        <extensions>
          <ns3:TrackPointExtension>
            <ns3:atemp>32.0</ns3:atemp>
            <ns3:hr>92</ns3:hr>
          </ns3:TrackPointExtension>
        </extensions>
      </trkpt>
      <trkpt lat="36.830363832414150238037109375" lon="-118.54298447258770465850830078125">
        <ele>2026.199951171875</ele>
        <time>2021-06-28T17:02:02.000Z</time>
        <extensions>
          <ns3:TrackPointExtension>
            <ns3:atemp>32.0</ns3:atemp>
            <ns3:hr>90</ns3:hr>
          </ns3:TrackPointExtension>
        </extensions>
      </trkpt>
      <trkpt lat="36.83034212328493595123291015625" lon="-118.54296871460974216461181640625">
        <ele>2026.4000244140625</ele>
        <time>2021-06-28T17:02:05.000Z</time>
        <extensions>
          <ns3:TrackPointExtension>
            <ns3:atemp>32.0</ns3:atemp>
            <ns3:hr>87</ns3:hr>
          </ns3:TrackPointExtension>
        </extensions>
      </trkpt>
      <trkpt lat="36.83033642359077930450439453125" lon="-118.54296930134296417236328125">
        <ele>2026.4000244140625</ele>
        <time>2021-06-28T17:02:06.000Z</time>
        <extensions>
          <ns3:TrackPointExtension>
            <ns3:atemp>32.0</ns3:atemp>
            <ns3:hr>88</ns3:hr>
          </ns3:TrackPointExtension>
        </extensions>
      </trkpt>
      <trkpt lat="36.83032435365021228790283203125" lon="-118.54297558777034282684326171875">
        <ele>2026.199951171875</ele>
        <time>2021-06-28T17:02:08.000Z</time>
        <extensions>
          <ns3:TrackPointExtension>
            <ns3:atemp>32.0</ns3:atemp>
            <ns3:hr>88</ns3:hr>
          </ns3:TrackPointExtension>
        </extensions>
      </trkpt>
      <trkpt lat="36.83029317297041416168212890625" lon="-118.54297558777034282684326171875">
        <ele>2026</ele>
        <time>2021-06-28T17:02:10.000Z</time>
        <extensions>
          <ns3:TrackPointExtension>
            <ns3:atemp>32.0</ns3:atemp>
            <ns3:hr>88</ns3:hr>
          </ns3:TrackPointExtension>
        </extensions>
      </trkpt>
      <trkpt lat="36.83026165701448917388916015625" lon="-118.54297877289354801177978515625">
        <ele>2025.800048828125</ele>
        <time>2021-06-28T17:02:12.000Z</time>
        <extensions>
          <ns3:TrackPointExtension>
            <ns3:atemp>32.0</ns3:atemp>
            <ns3:hr>87</ns3:hr>
          </ns3:TrackPointExtension>
        </extensions>
      </trkpt>
      <trkpt lat="36.8302040733397006988525390625" lon="-118.54294876568019390106201171875">
        <ele>2026</ele>
        <time>2021-06-28T17:02:15.000Z</time>
        <extensions>
          <ns3:TrackPointExtension>
            <ns3:atemp>32.0</ns3:atemp>
            <ns3:hr>87</ns3:hr>
          </ns3:TrackPointExtension>
        </extensions>
      </trkpt>
      <trkpt lat="36.8301893211901187896728515625" lon="-118.54295253753662109375">
        <ele>2026.199951171875</ele>
        <time>2021-06-28T17:02:17.000Z</time>
        <extensions>
          <ns3:TrackPointExtension>
            <ns3:atemp>32.0</ns3:atemp>
            <ns3:hr>87</ns3:hr>
          </ns3:TrackPointExtension>
        </extensions>
      </trkpt>
      <trkpt lat="36.8301775865256786346435546875" lon="-118.54296787641942501068115234375">
        <ele>2026.199951171875</ele>
        <time>2021-06-28T17:02:19.000Z</time>
        <extensions>
          <ns3:TrackPointExtension>
            <ns3:atemp>32.0</ns3:atemp>
            <ns3:hr>87</ns3:hr>
          </ns3:TrackPointExtension>
        </extensions>
      </trkpt>
      <trkpt lat="36.830158643424510955810546875" lon="-118.542981706559658050537109375">
        <ele>2026.199951171875</ele>
        <time>2021-06-28T17:02:21.000Z</time>
        <extensions>
          <ns3:TrackPointExtension>
            <ns3:atemp>32.0</ns3:atemp>
            <ns3:hr>86</ns3:hr>
          </ns3:TrackPointExtension>
        </extensions>
      </trkpt>
      <trkpt lat="36.83015135116875171661376953125" lon="-118.54299008846282958984375">
        <ele>2026</ele>
        <time>2021-06-28T17:02:23.000Z</time>
        <extensions>
          <ns3:TrackPointExtension>
            <ns3:atemp>32.0</ns3:atemp>
            <ns3:hr>85</ns3:hr>
          </ns3:TrackPointExtension>
        </extensions>
      </trkpt>
      <trkpt lat="36.83007608167827129364013671875" lon="-118.54305488057434558868408203125">
        <ele>2025.5999755859375</ele>
        <time>2021-06-28T17:02:30.000Z</time>
        <extensions>
          <ns3:TrackPointExtension>
            <ns3:atemp>32.0</ns3:atemp>
            <ns3:hr>85</ns3:hr>
          </ns3:TrackPointExtension>
        </extensions>
      </trkpt>
      <trkpt lat="36.83005881495773792266845703125" lon="-118.5430643521249294281005859375">
        <ele>2025.4000244140625</ele>
        <time>2021-06-28T17:02:31.000Z</time>
        <extensions>
          <ns3:TrackPointExtension>
            <ns3:atemp>32.0</ns3:atemp>
            <ns3:hr>85</ns3:hr>
          </ns3:TrackPointExtension>
        </extensions>
      </trkpt>
      <trkpt lat="36.83002511970698833465576171875" lon="-118.54309880174696445465087890625">
        <ele>2025.4000244140625</ele>
        <time>2021-06-28T17:02:35.000Z</time>
        <extensions>
          <ns3:TrackPointExtension>
            <ns3:atemp>32.0</ns3:atemp>
            <ns3:hr>87</ns3:hr>
          </ns3:TrackPointExtension>
        </extensions>
      </trkpt>
      <trkpt lat="36.830006428062915802001953125" lon="-118.5431330837309360504150390625">
        <ele>2024.5999755859375</ele>
        <time>2021-06-28T17:02:38.000Z</time>
        <extensions>
          <ns3:TrackPointExtension>
            <ns3:atemp>32.0</ns3:atemp>
            <ns3:hr>87</ns3:hr>
          </ns3:TrackPointExtension>
        </extensions>
      </trkpt>
      <trkpt lat="36.8300015665590763092041015625" lon="-118.54314272291958332061767578125">
        <ele>2024.4000244140625</ele>
        <time>2021-06-28T17:02:39.000Z</time>
        <extensions>
          <ns3:TrackPointExtension>
            <ns3:atemp>32.0</ns3:atemp>
            <ns3:hr>87</ns3:hr>
          </ns3:TrackPointExtension>
        </extensions>
      </trkpt>
      <trkpt lat="36.82996577583253383636474609375" lon="-118.543169461190700531005859375">
        <ele>2024</ele>
        <time>2021-06-28T17:02:43.000Z</time>
        <extensions>
          <ns3:TrackPointExtension>
            <ns3:atemp>32.0</ns3:atemp>
            <ns3:hr>86</ns3:hr>
          </ns3:TrackPointExtension>
        </extensions>
      </trkpt>
      <trkpt lat="36.8299499340355396270751953125" lon="-118.5431890748441219329833984375">
        <ele>2023.4000244140625</ele>
        <time>2021-06-28T17:02:46.000Z</time>
        <extensions>
          <ns3:TrackPointExtension>
            <ns3:atemp>32.0</ns3:atemp>
            <ns3:hr>86</ns3:hr>
          </ns3:TrackPointExtension>
        </extensions>
      </trkpt>
      <trkpt lat="36.82994230650365352630615234375" lon="-118.54319049976766109466552734375">
        <ele>2023.199951171875</ele>
        <time>2021-06-28T17:02:47.000Z</time>
        <extensions>
          <ns3:TrackPointExtension>
            <ns3:atemp>32.0</ns3:atemp>
            <ns3:hr>85</ns3:hr>
          </ns3:TrackPointExtension>
        </extensions>
      </trkpt>
      <trkpt lat="36.82985119521617889404296875" lon="-118.54320726357400417327880859375">
        <ele>2022.5999755859375</ele>
        <time>2021-06-28T17:02:53.000Z</time>
        <extensions>
          <ns3:TrackPointExtension>
            <ns3:atemp>32.0</ns3:atemp>
            <ns3:hr>82</ns3:hr>
          </ns3:TrackPointExtension>
        </extensions>
      </trkpt>
      <trkpt lat="36.82984272949397563934326171875" lon="-118.543215729296207427978515625">
        <ele>2022.5999755859375</ele>
        <time>2021-06-28T17:02:54.000Z</time>
        <extensions>
          <ns3:TrackPointExtension>
            <ns3:atemp>32.0</ns3:atemp>
            <ns3:hr>82</ns3:hr>
          </ns3:TrackPointExtension>
        </extensions>
      </trkpt>
      <trkpt lat="36.82983283884823322296142578125" lon="-118.54322436265647411346435546875">
        <ele>2022.4000244140625</ele>
        <time>2021-06-28T17:02:55.000Z</time>
        <extensions>
          <ns3:TrackPointExtension>
            <ns3:atemp>32.0</ns3:atemp>
            <ns3:hr>81</ns3:hr>
          </ns3:TrackPointExtension>
        </extensions>
      </trkpt>
      <trkpt lat="36.82979864068329334259033203125" lon="-118.54324095882475376129150390625">
        <ele>2021.800048828125</ele>
        <time>2021-06-28T17:03:00.000Z</time>
        <extensions>
          <ns3:TrackPointExtension>
            <ns3:atemp>32.0</ns3:atemp>
            <ns3:hr>78</ns3:hr>
          </ns3:TrackPointExtension>
        </extensions>
      </trkpt>
      <trkpt lat="36.8297861516475677490234375" lon="-118.54326643981039524078369140625">
        <ele>2021.5999755859375</ele>
        <time>2021-06-28T17:03:02.000Z</time>
        <extensions>
          <ns3:TrackPointExtension>
            <ns3:atemp>32.0</ns3:atemp>
            <ns3:hr>78</ns3:hr>
          </ns3:TrackPointExtension>
        </extensions>
      </trkpt>
      <trkpt lat="36.82977282442152500152587890625" lon="-118.54327046312391757965087890625">
        <ele>2021.199951171875</ele>
        <time>2021-06-28T17:03:04.000Z</time>
        <extensions>
          <ns3:TrackPointExtension>
            <ns3:atemp>32.0</ns3:atemp>
            <ns3:hr>78</ns3:hr>
          </ns3:TrackPointExtension>
        </extensions>
      </trkpt>
      <trkpt lat="36.829763352870941162109375" lon="-118.54326836764812469482421875">
        <ele>2021.199951171875</ele>
        <time>2021-06-28T17:03:05.000Z</time>
        <extensions>
          <ns3:TrackPointExtension>
            <ns3:atemp>32.0</ns3:atemp>
            <ns3:hr>78</ns3:hr>
          </ns3:TrackPointExtension>
        </extensions>
      </trkpt>
      <trkpt lat="36.82972806505858898162841796875" lon="-118.54325990192592144012451171875">
        <ele>2021</ele>
        <time>2021-06-28T17:03:08.000Z</time>
        <extensions>
          <ns3:TrackPointExtension>
            <ns3:atemp>32.0</ns3:atemp>
            <ns3:hr>75</ns3:hr>
          </ns3:TrackPointExtension>
        </extensions>
      </trkpt>
      <trkpt lat="36.82972806505858898162841796875" lon="-118.54325990192592144012451171875">
        <ele>2021</ele>
        <time>2021-06-28T17:03:09.000Z</time>
        <extensions>
          <ns3:TrackPointExtension>
            <ns3:atemp>32.0</ns3:atemp>
            <ns3:hr>78</ns3:hr>
          </ns3:TrackPointExtension>
        </extensions>
      </trkpt>
      <trkpt lat="36.82971666567027568817138671875" lon="-118.5432517714798450469970703125">
        <ele>2021</ele>
        <time>2021-06-28T17:03:10.000Z</time>
        <extensions>
          <ns3:TrackPointExtension>
            <ns3:atemp>32.0</ns3:atemp>
            <ns3:hr>78</ns3:hr>
          </ns3:TrackPointExtension>
        </extensions>
      </trkpt>
      <trkpt lat="36.82970325462520122528076171875" lon="-118.543257303535938262939453125">
        <ele>2020.800048828125</ele>
        <time>2021-06-28T17:03:12.000Z</time>
        <extensions>
          <ns3:TrackPointExtension>
            <ns3:atemp>32.0</ns3:atemp>
            <ns3:hr>78</ns3:hr>
          </ns3:TrackPointExtension>
        </extensions>
      </trkpt>
      <trkpt lat="36.82969219051301479339599609375" lon="-118.54326057247817516326904296875">
        <ele>2020.800048828125</ele>
        <time>2021-06-28T17:03:13.000Z</time>
        <extensions>
          <ns3:TrackPointExtension>
            <ns3:atemp>32.0</ns3:atemp>
            <ns3:hr>77</ns3:hr>
          </ns3:TrackPointExtension>
        </extensions>
      </trkpt>
      <trkpt lat="36.82968489825725555419921875" lon="-118.54326845146715641021728515625">
        <ele>2020.800048828125</ele>
        <time>2021-06-28T17:03:15.000Z</time>
        <extensions>
          <ns3:TrackPointExtension>
            <ns3:atemp>32.0</ns3:atemp>
            <ns3:hr>77</ns3:hr>
          </ns3:TrackPointExtension>
        </extensions>
      </trkpt>
      <trkpt lat="36.82965137064456939697265625" lon="-118.543268702924251556396484375">
        <ele>2020.5999755859375</ele>
        <time>2021-06-28T17:03:17.000Z</time>
        <extensions>
          <ns3:TrackPointExtension>
            <ns3:atemp>32.0</ns3:atemp>
            <ns3:hr>76</ns3:hr>
          </ns3:TrackPointExtension>
        </extensions>
      </trkpt>
      <trkpt lat="36.829636953771114349365234375" lon="-118.54327549226582050323486328125">
        <ele>2020.5999755859375</ele>
        <time>2021-06-28T17:03:19.000Z</time>
        <extensions>
          <ns3:TrackPointExtension>
            <ns3:atemp>32.0</ns3:atemp>
            <ns3:hr>75</ns3:hr>
          </ns3:TrackPointExtension>
        </extensions>
      </trkpt>
      <trkpt lat="36.82956218719482421875" lon="-118.5433020628988742828369140625">
        <ele>2020.4000244140625</ele>
        <time>2021-06-28T17:03:25.000Z</time>
        <extensions>
          <ns3:TrackPointExtension>
            <ns3:atemp>32.0</ns3:atemp>
            <ns3:hr>78</ns3:hr>
          </ns3:TrackPointExtension>
        </extensions>
      </trkpt>
      <trkpt lat="36.82955288328230381011962890625" lon="-118.5433245263993740081787109375">
        <ele>2020.4000244140625</ele>
        <time>2021-06-28T17:03:26.000Z</time>
        <extensions>
          <ns3:TrackPointExtension>
            <ns3:atemp>32.0</ns3:atemp>
            <ns3:hr>77</ns3:hr>
          </ns3:TrackPointExtension>
        </extensions>
      </trkpt>
      <trkpt lat="36.8295670486986637115478515625" lon="-118.54332528077065944671630859375">
        <ele>2020.4000244140625</ele>
        <time>2021-06-28T17:03:30.000Z</time>
        <extensions>
          <ns3:TrackPointExtension>
            <ns3:atemp>32.0</ns3:atemp>
            <ns3:hr>80</ns3:hr>
          </ns3:TrackPointExtension>
        </extensions>
      </trkpt>
      <trkpt lat="36.82956553995609283447265625" lon="-118.54331807233393192291259765625">
        <ele>2020.5999755859375</ele>
        <time>2021-06-28T17:03:31.000Z</time>
        <extensions>
          <ns3:TrackPointExtension>
            <ns3:atemp>32.0</ns3:atemp>
            <ns3:hr>81</ns3:hr>
          </ns3:TrackPointExtension>
        </extensions>
      </trkpt>
      <trkpt lat="36.82956227101385593414306640625" lon="-118.54331262409687042236328125">
        <ele>2020.5999755859375</ele>
        <time>2021-06-28T17:03:32.000Z</time>
        <extensions>
          <ns3:TrackPointExtension>
            <ns3:atemp>32.0</ns3:atemp>
            <ns3:hr>81</ns3:hr>
          </ns3:TrackPointExtension>
        </extensions>
      </trkpt>
      <trkpt lat="36.82955338619649410247802734375" lon="-118.54332377202808856964111328125">
        <ele>2020.5999755859375</ele>
        <time>2021-06-28T17:03:35.000Z</time>
        <extensions>
          <ns3:TrackPointExtension>
            <ns3:atemp>32.0</ns3:atemp>
            <ns3:hr>82</ns3:hr>
          </ns3:TrackPointExtension>
        </extensions>
      </trkpt>
      <trkpt lat="36.82950225658714771270751953125" lon="-118.54332779534161090850830078125">
        <ele>2020.4000244140625</ele>
        <time>2021-06-28T17:03:42.000Z</time>
        <extensions>
          <ns3:TrackPointExtension>
            <ns3:atemp>32.0</ns3:atemp>
            <ns3:hr>80</ns3:hr>
          </ns3:TrackPointExtension>
        </extensions>
      </trkpt>
      <trkpt lat="36.8294543959200382232666015625" lon="-118.54335998184978961944580078125">
        <ele>2020.4000244140625</ele>
        <time>2021-06-28T17:03:47.000Z</time>
        <extensions>
          <ns3:TrackPointExtension>
            <ns3:atemp>32.0</ns3:atemp>
            <ns3:hr>81</ns3:hr>
          </ns3:TrackPointExtension>
        </extensions>
      </trkpt>
      <trkpt lat="36.82943989522755146026611328125" lon="-118.543363250792026519775390625">
        <ele>2020.199951171875</ele>
        <time>2021-06-28T17:03:48.000Z</time>
        <extensions>
          <ns3:TrackPointExtension>
            <ns3:atemp>32.0</ns3:atemp>
            <ns3:hr>79</ns3:hr>
          </ns3:TrackPointExtension>
        </extensions>
      </trkpt>
      <trkpt lat="36.8293762765824794769287109375" lon="-118.54341379366815090179443359375">
        <ele>2020</ele>
        <time>2021-06-28T17:03:55.000Z</time>
        <extensions>
          <ns3:TrackPointExtension>
            <ns3:atemp>32.0</ns3:atemp>
            <ns3:hr>80</ns3:hr>
          </ns3:TrackPointExtension>
        </extensions>
      </trkpt>
      <trkpt lat="36.8293650448322296142578125" lon="-118.54341312311589717864990234375">
        <ele>2020</ele>
        <time>2021-06-28T17:03:56.000Z</time>
        <extensions>
          <ns3:TrackPointExtension>
            <ns3:atemp>32.0</ns3:atemp>
            <ns3:hr>80</ns3:hr>
          </ns3:TrackPointExtension>
        </extensions>
      </trkpt>
      <trkpt lat="36.8293196149170398712158203125" lon="-118.5434311442077159881591796875">
        <ele>2020</ele>
        <time>2021-06-28T17:04:01.000Z</time>
        <extensions>
          <ns3:TrackPointExtension>
            <ns3:atemp>32.0</ns3:atemp>
            <ns3:hr>80</ns3:hr>
          </ns3:TrackPointExtension>
        </extensions>
      </trkpt>
      <trkpt lat="36.82929891161620616912841796875" lon="-118.5434656776487827301025390625">
        <ele>2019.5999755859375</ele>
        <time>2021-06-28T17:04:04.000Z</time>
        <extensions>
          <ns3:TrackPointExtension>
            <ns3:atemp>32.0</ns3:atemp>
            <ns3:hr>80</ns3:hr>
          </ns3:TrackPointExtension>
        </extensions>
      </trkpt>
      <trkpt lat="36.8292629532516002655029296875" lon="-118.54347514919936656951904296875">
        <ele>2019</ele>
        <time>2021-06-28T17:04:06.000Z</time>
        <extensions>
          <ns3:TrackPointExtension>
            <ns3:atemp>32.0</ns3:atemp>
            <ns3:hr>81</ns3:hr>
          </ns3:TrackPointExtension>
        </extensions>
      </trkpt>
      <trkpt lat="36.8292523920536041259765625" lon="-118.54347615502774715423583984375">
        <ele>2018.800048828125</ele>
        <time>2021-06-28T17:04:08.000Z</time>
        <extensions>
          <ns3:TrackPointExtension>
            <ns3:atemp>32.0</ns3:atemp>
            <ns3:hr>82</ns3:hr>
          </ns3:TrackPointExtension>
        </extensions>
      </trkpt>
      <trkpt lat="36.8292270787060260772705078125" lon="-118.54348101653158664703369140625">
        <ele>2018.5999755859375</ele>
        <time>2021-06-28T17:04:09.000Z</time>
        <extensions>
          <ns3:TrackPointExtension>
            <ns3:atemp>32.0</ns3:atemp>
            <ns3:hr>83</ns3:hr>
          </ns3:TrackPointExtension>
        </extensions>
      </trkpt>
      <trkpt lat="36.829205453395843505859375" lon="-118.54347095824778079986572265625">
        <ele>2018</ele>
        <time>2021-06-28T17:04:12.000Z</time>
        <extensions>
          <ns3:TrackPointExtension>
            <ns3:atemp>32.0</ns3:atemp>
            <ns3:hr>84</ns3:hr>
          </ns3:TrackPointExtension>
        </extensions>
      </trkpt>
      <trkpt lat="36.8292009271681308746337890625" lon="-118.54346693493425846099853515625">
        <ele>2018</ele>
        <time>2021-06-28T17:04:13.000Z</time>
        <extensions>
          <ns3:TrackPointExtension>
            <ns3:atemp>32.0</ns3:atemp>
            <ns3:hr>84</ns3:hr>
          </ns3:TrackPointExtension>
        </extensions>
      </trkpt>
      <trkpt lat="36.8291955627501010894775390625" lon="-118.5434683598577976226806640625">
        <ele>2017.800048828125</ele>
        <time>2021-06-28T17:04:14.000Z</time>
        <extensions>
          <ns3:TrackPointExtension>
            <ns3:atemp>32.0</ns3:atemp>
            <ns3:hr>85</ns3:hr>
          </ns3:TrackPointExtension>
        </extensions>
      </trkpt>
      <trkpt lat="36.82917888276278972625732421875" lon="-118.54346877895295619964599609375">
        <ele>2017.5999755859375</ele>
        <time>2021-06-28T17:04:16.000Z</time>
        <extensions>
          <ns3:TrackPointExtension>
            <ns3:atemp>32.0</ns3:atemp>
            <ns3:hr>85</ns3:hr>
          </ns3:TrackPointExtension>
        </extensions>
      </trkpt>
      <trkpt lat="36.8291677348315715789794921875" lon="-118.543467186391353607177734375">
        <ele>2016.800048828125</ele>
        <time>2021-06-28T17:04:18.000Z</time>
        <extensions>
          <ns3:TrackPointExtension>
            <ns3:atemp>32.0</ns3:atemp>
            <ns3:hr>85</ns3:hr>
          </ns3:TrackPointExtension>
        </extensions>
      </trkpt>
      <trkpt lat="36.82913864962756633758544921875" lon="-118.5434527695178985595703125">
        <ele>2016.5999755859375</ele>
        <time>2021-06-28T17:04:19.000Z</time>
        <extensions>
          <ns3:TrackPointExtension>
            <ns3:atemp>32.0</ns3:atemp>
            <ns3:hr>85</ns3:hr>
          </ns3:TrackPointExtension>
        </extensions>
      </trkpt>
      <trkpt lat="36.82912641204893589019775390625" lon="-118.54343843646347522735595703125">
        <ele>2016.4000244140625</ele>
        <time>2021-06-28T17:04:20.000Z</time>
        <extensions>
          <ns3:TrackPointExtension>
            <ns3:atemp>32.0</ns3:atemp>
            <ns3:hr>85</ns3:hr>
          </ns3:TrackPointExtension>
        </extensions>
      </trkpt>
      <trkpt lat="36.82911803014576435089111328125" lon="-118.54343198239803314208984375">
        <ele>2015.5999755859375</ele>
        <time>2021-06-28T17:04:22.000Z</time>
        <extensions>
          <ns3:TrackPointExtension>
            <ns3:atemp>32.0</ns3:atemp>
            <ns3:hr>85</ns3:hr>
          </ns3:TrackPointExtension>
        </extensions>
      </trkpt>
      <trkpt lat="36.82911358773708343505859375" lon="-118.54344363324344158172607421875">
        <ele>2015.5999755859375</ele>
        <time>2021-06-28T17:04:23.000Z</time>
        <extensions>
          <ns3:TrackPointExtension>
            <ns3:atemp>32.0</ns3:atemp>
            <ns3:hr>85</ns3:hr>
          </ns3:TrackPointExtension>
        </extensions>
      </trkpt>
      <trkpt lat="36.82910528965294361114501953125" lon="-118.54345209896564483642578125">
        <ele>2015.5999755859375</ele>
        <time>2021-06-28T17:04:24.000Z</time>
        <extensions>
          <ns3:TrackPointExtension>
            <ns3:atemp>32.0</ns3:atemp>
            <ns3:hr>84</ns3:hr>
          </ns3:TrackPointExtension>
        </extensions>
      </trkpt>
      <trkpt lat="36.82910528965294361114501953125" lon="-118.54345209896564483642578125">
        <ele>2015</ele>
        <time>2021-06-28T17:04:25.000Z</time>
        <extensions>
          <ns3:TrackPointExtension>
            <ns3:atemp>32.0</ns3:atemp>
            <ns3:hr>83</ns3:hr>
          </ns3:TrackPointExtension>
        </extensions>
      </trkpt>
      <trkpt lat="36.82909523136913776397705078125" lon="-118.54345469735562801361083984375">
        <ele>2014.800048828125</ele>
        <time>2021-06-28T17:04:26.000Z</time>
        <extensions>
          <ns3:TrackPointExtension>
            <ns3:atemp>32.0</ns3:atemp>
            <ns3:hr>84</ns3:hr>
          </ns3:TrackPointExtension>
        </extensions>
      </trkpt>
      <trkpt lat="36.82908299379050731658935546875" lon="-118.54348562657833099365234375">
        <ele>2014.5999755859375</ele>
        <time>2021-06-28T17:04:28.000Z</time>
        <extensions>
          <ns3:TrackPointExtension>
            <ns3:atemp>32.0</ns3:atemp>
            <ns3:hr>84</ns3:hr>
          </ns3:TrackPointExtension>
        </extensions>
      </trkpt>
      <trkpt lat="36.82908299379050731658935546875" lon="-118.54348562657833099365234375">
        <ele>2014.4000244140625</ele>
        <time>2021-06-28T17:04:29.000Z</time>
        <extensions>
          <ns3:TrackPointExtension>
            <ns3:atemp>32.0</ns3:atemp>
            <ns3:hr>84</ns3:hr>
          </ns3:TrackPointExtension>
        </extensions>
      </trkpt>
      <trkpt lat="36.82908316142857074737548828125" lon="-118.543510772287845611572265625">
        <ele>2014</ele>
        <time>2021-06-28T17:04:30.000Z</time>
        <extensions>
          <ns3:TrackPointExtension>
            <ns3:atemp>32.0</ns3:atemp>
            <ns3:hr>83</ns3:hr>
          </ns3:TrackPointExtension>
        </extensions>
      </trkpt>
      <trkpt lat="36.8290607817471027374267578125" lon="-118.5435439646244049072265625">
        <ele>2013.5999755859375</ele>
        <time>2021-06-28T17:04:33.000Z</time>
        <extensions>
          <ns3:TrackPointExtension>
            <ns3:atemp>32.0</ns3:atemp>
            <ns3:hr>84</ns3:hr>
          </ns3:TrackPointExtension>
        </extensions>
      </trkpt>
      <trkpt lat="36.8290607817471027374267578125" lon="-118.5435439646244049072265625">
        <ele>2013.4000244140625</ele>
        <time>2021-06-28T17:04:34.000Z</time>
        <extensions>
          <ns3:TrackPointExtension>
            <ns3:atemp>32.0</ns3:atemp>
            <ns3:hr>83</ns3:hr>
          </ns3:TrackPointExtension>
        </extensions>
      </trkpt>
      <trkpt lat="36.82903907261788845062255859375" lon="-118.54355511255562305450439453125">
        <ele>2013.4000244140625</ele>
        <time>2021-06-28T17:04:35.000Z</time>
        <extensions>
          <ns3:TrackPointExtension>
            <ns3:atemp>32.0</ns3:atemp>
            <ns3:hr>83</ns3:hr>
          </ns3:TrackPointExtension>
        </extensions>
      </trkpt>
      <trkpt lat="36.82901660911738872528076171875" lon="-118.54354823939502239227294921875">
        <ele>2013.4000244140625</ele>
        <time>2021-06-28T17:04:38.000Z</time>
        <extensions>
          <ns3:TrackPointExtension>
            <ns3:atemp>32.0</ns3:atemp>
            <ns3:hr>83</ns3:hr>
          </ns3:TrackPointExtension>
        </extensions>
      </trkpt>
      <trkpt lat="36.8289927206933498382568359375" lon="-118.5435528494417667388916015625">
        <ele>2013.4000244140625</ele>
        <time>2021-06-28T17:04:41.000Z</time>
        <extensions>
          <ns3:TrackPointExtension>
            <ns3:atemp>32.0</ns3:atemp>
            <ns3:hr>82</ns3:hr>
          </ns3:TrackPointExtension>
        </extensions>
      </trkpt>
      <trkpt lat="36.8289622105658054351806640625" lon="-118.543577156960964202880859375">
        <ele>2012.4000244140625</ele>
        <time>2021-06-28T17:04:44.000Z</time>
        <extensions>
          <ns3:TrackPointExtension>
            <ns3:atemp>32.0</ns3:atemp>
            <ns3:hr>82</ns3:hr>
          </ns3:TrackPointExtension>
        </extensions>
      </trkpt>
      <trkpt lat="36.82894351892173290252685546875" lon="-118.54359132237732410430908203125">
        <ele>2012.199951171875</ele>
        <time>2021-06-28T17:04:46.000Z</time>
        <extensions>
          <ns3:TrackPointExtension>
            <ns3:atemp>32.0</ns3:atemp>
            <ns3:hr>82</ns3:hr>
          </ns3:TrackPointExtension>
        </extensions>
      </trkpt>
      <trkpt lat="36.82890177704393863677978515625" lon="-118.54363046586513519287109375">
        <ele>2011.800048828125</ele>
        <time>2021-06-28T17:04:52.000Z</time>
        <extensions>
          <ns3:TrackPointExtension>
            <ns3:atemp>32.0</ns3:atemp>
            <ns3:hr>80</ns3:hr>
          </ns3:TrackPointExtension>
        </extensions>
      </trkpt>
      <trkpt lat="36.8288928084075450897216796875" lon="-118.54363407008349895477294921875">
        <ele>2011.5999755859375</ele>
        <time>2021-06-28T17:04:53.000Z</time>
        <extensions>
          <ns3:TrackPointExtension>
            <ns3:atemp>32.0</ns3:atemp>
            <ns3:hr>81</ns3:hr>
          </ns3:TrackPointExtension>
        </extensions>
      </trkpt>
      <trkpt lat="36.82888400740921497344970703125" lon="-118.54363725520670413970947265625">
        <ele>2011.199951171875</ele>
        <time>2021-06-28T17:04:55.000Z</time>
        <extensions>
          <ns3:TrackPointExtension>
            <ns3:atemp>32.0</ns3:atemp>
            <ns3:hr>81</ns3:hr>
          </ns3:TrackPointExtension>
        </extensions>
      </trkpt>
      <trkpt lat="36.828861795365810394287109375" lon="-118.543673716485500335693359375">
        <ele>2010.4000244140625</ele>
        <time>2021-06-28T17:04:59.000Z</time>
        <extensions>
          <ns3:TrackPointExtension>
            <ns3:atemp>32.0</ns3:atemp>
            <ns3:hr>81</ns3:hr>
          </ns3:TrackPointExtension>
        </extensions>
      </trkpt>
      <trkpt lat="36.82884343899786472320556640625" lon="-118.54367463849484920501708984375">
        <ele>2010</ele>
        <time>2021-06-28T17:05:01.000Z</time>
        <extensions>
          <ns3:TrackPointExtension>
            <ns3:atemp>32.0</ns3:atemp>
            <ns3:hr>82</ns3:hr>
          </ns3:TrackPointExtension>
        </extensions>
      </trkpt>
      <trkpt lat="36.82873933576047420501708984375" lon="-118.54370020329952239990234375">
        <ele>2009.4000244140625</ele>
        <time>2021-06-28T17:05:10.000Z</time>
        <extensions>
          <ns3:TrackPointExtension>
            <ns3:atemp>32.0</ns3:atemp>
            <ns3:hr>80</ns3:hr>
          </ns3:TrackPointExtension>
        </extensions>
      </trkpt>
      <trkpt lat="36.82871351949870586395263671875" lon="-118.54369810782372951507568359375">
        <ele>2009</ele>
        <time>2021-06-28T17:05:12.000Z</time>
        <extensions>
          <ns3:TrackPointExtension>
            <ns3:atemp>32.0</ns3:atemp>
            <ns3:hr>79</ns3:hr>
          </ns3:TrackPointExtension>
        </extensions>
      </trkpt>
      <trkpt lat="36.82863590307533740997314453125" lon="-118.54370514862239360809326171875">
        <ele>2008.4000244140625</ele>
        <time>2021-06-28T17:05:16.000Z</time>
        <extensions>
          <ns3:TrackPointExtension>
            <ns3:atemp>32.0</ns3:atemp>
            <ns3:hr>79</ns3:hr>
          </ns3:TrackPointExtension>
        </extensions>
      </trkpt>
      <trkpt lat="36.82861494831740856170654296875" lon="-118.543703220784664154052734375">
        <ele>2007.800048828125</ele>
        <time>2021-06-28T17:05:18.000Z</time>
        <extensions>
          <ns3:TrackPointExtension>
            <ns3:atemp>32.0</ns3:atemp>
            <ns3:hr>78</ns3:hr>
          </ns3:TrackPointExtension>
        </extensions>
      </trkpt>
      <trkpt lat="36.82855476625263690948486328125" lon="-118.54371855966746807098388671875">
        <ele>2007.4000244140625</ele>
        <time>2021-06-28T17:05:21.000Z</time>
        <extensions>
          <ns3:TrackPointExtension>
            <ns3:atemp>32.0</ns3:atemp>
            <ns3:hr>75</ns3:hr>
          </ns3:TrackPointExtension>
        </extensions>
      </trkpt>
      <trkpt lat="36.82853934355080127716064453125" lon="-118.543738760054111480712890625">
        <ele>2006.800048828125</ele>
        <time>2021-06-28T17:05:23.000Z</time>
        <extensions>
          <ns3:TrackPointExtension>
            <ns3:atemp>32.0</ns3:atemp>
            <ns3:hr>75</ns3:hr>
          </ns3:TrackPointExtension>
        </extensions>
      </trkpt>
      <trkpt lat="36.82847522199153900146484375" lon="-118.5437959246337413787841796875">
        <ele>2005.800048828125</ele>
        <time>2021-06-28T17:05:29.000Z</time>
        <extensions>
          <ns3:TrackPointExtension>
            <ns3:atemp>32.0</ns3:atemp>
            <ns3:hr>72</ns3:hr>
          </ns3:TrackPointExtension>
        </extensions>
      </trkpt>
      <trkpt lat="36.8284569494426250457763671875" lon="-118.543808162212371826171875">
        <ele>2005.4000244140625</ele>
        <time>2021-06-28T17:05:32.000Z</time>
        <extensions>
          <ns3:TrackPointExtension>
            <ns3:atemp>33.0</ns3:atemp>
            <ns3:hr>72</ns3:hr>
          </ns3:TrackPointExtension>
        </extensions>
      </trkpt>
      <trkpt lat="36.8284324742853641510009765625" lon="-118.54383054189383983612060546875">
        <ele>2004.800048828125</ele>
        <time>2021-06-28T17:05:36.000Z</time>
        <extensions>
          <ns3:TrackPointExtension>
            <ns3:atemp>33.0</ns3:atemp>
            <ns3:hr>76</ns3:hr>
          </ns3:TrackPointExtension>
        </extensions>
      </trkpt>
      <trkpt lat="36.8284234218299388885498046875" lon="-118.54384370148181915283203125">
        <ele>2004.5999755859375</ele>
        <time>2021-06-28T17:05:37.000Z</time>
        <extensions>
          <ns3:TrackPointExtension>
            <ns3:atemp>33.0</ns3:atemp>
            <ns3:hr>77</ns3:hr>
          </ns3:TrackPointExtension>
        </extensions>
      </trkpt>
      <trkpt lat="36.82840741239488124847412109375" lon="-118.543853759765625">
        <ele>2004</ele>
        <time>2021-06-28T17:05:41.000Z</time>
        <extensions>
          <ns3:TrackPointExtension>
            <ns3:atemp>33.0</ns3:atemp>
            <ns3:hr>77</ns3:hr>
          </ns3:TrackPointExtension>
        </extensions>
      </trkpt>
      <trkpt lat="36.8283865414559841156005859375" lon="-118.54386356659233570098876953125">
        <ele>2003.4000244140625</ele>
        <time>2021-06-28T17:05:44.000Z</time>
        <extensions>
          <ns3:TrackPointExtension>
            <ns3:atemp>33.0</ns3:atemp>
            <ns3:hr>75</ns3:hr>
          </ns3:TrackPointExtension>
        </extensions>
      </trkpt>
      <trkpt lat="36.82836399413645267486572265625" lon="-118.54387010447680950164794921875">
        <ele>2003.4000244140625</ele>
        <time>2021-06-28T17:05:46.000Z</time>
        <extensions>
          <ns3:TrackPointExtension>
            <ns3:atemp>33.0</ns3:atemp>
            <ns3:hr>74</ns3:hr>
          </ns3:TrackPointExtension>
        </extensions>
      </trkpt>
      <trkpt lat="36.828318648040294647216796875" lon="-118.54387865401804447174072265625">
        <ele>2002.5999755859375</ele>
        <time>2021-06-28T17:05:49.000Z</time>
        <extensions>
          <ns3:TrackPointExtension>
            <ns3:atemp>33.0</ns3:atemp>
            <ns3:hr>72</ns3:hr>
          </ns3:TrackPointExtension>
        </extensions>
      </trkpt>
      <trkpt lat="36.828318648040294647216796875" lon="-118.54387865401804447174072265625">
        <ele>2002.4000244140625</ele>
        <time>2021-06-28T17:05:50.000Z</time>
        <extensions>
          <ns3:TrackPointExtension>
            <ns3:atemp>33.0</ns3:atemp>
            <ns3:hr>71</ns3:hr>
          </ns3:TrackPointExtension>
        </extensions>
      </trkpt>
      <trkpt lat="36.82823927141726016998291015625" lon="-118.54387857019901275634765625">
        <ele>2001.4000244140625</ele>
        <time>2021-06-28T17:05:56.000Z</time>
        <extensions>
          <ns3:TrackPointExtension>
            <ns3:atemp>33.0</ns3:atemp>
            <ns3:hr>72</ns3:hr>
          </ns3:TrackPointExtension>
        </extensions>
      </trkpt>
      <trkpt lat="36.82822049595415592193603515625" lon="-118.54389307089149951934814453125">
        <ele>2001.199951171875</ele>
        <time>2021-06-28T17:05:58.000Z</time>
        <extensions>
          <ns3:TrackPointExtension>
            <ns3:atemp>33.0</ns3:atemp>
            <ns3:hr>71</ns3:hr>
          </ns3:TrackPointExtension>
        </extensions>
      </trkpt>
      <trkpt lat="36.82820909656584262847900390625" lon="-118.54391469620168209075927734375">
        <ele>2000.199951171875</ele>
        <time>2021-06-28T17:06:00.000Z</time>
        <extensions>
          <ns3:TrackPointExtension>
            <ns3:atemp>33.0</ns3:atemp>
            <ns3:hr>72</ns3:hr>
          </ns3:TrackPointExtension>
        </extensions>
      </trkpt>
      <trkpt lat="36.82819400914013385772705078125" lon="-118.54393883608281612396240234375">
        <ele>2000.199951171875</ele>
        <time>2021-06-28T17:06:02.000Z</time>
        <extensions>
          <ns3:TrackPointExtension>
            <ns3:atemp>33.0</ns3:atemp>
            <ns3:hr>73</ns3:hr>
          </ns3:TrackPointExtension>
        </extensions>
      </trkpt>
      <trkpt lat="36.828186549246311187744140625" lon="-118.5439474694430828094482421875">
        <ele>2000.199951171875</ele>
        <time>2021-06-28T17:06:03.000Z</time>
        <extensions>
          <ns3:TrackPointExtension>
            <ns3:atemp>33.0</ns3:atemp>
            <ns3:hr>73</ns3:hr>
          </ns3:TrackPointExtension>
        </extensions>
      </trkpt>
      <trkpt lat="36.828186549246311187744140625" lon="-118.5439474694430828094482421875">
        <ele>2000</ele>
        <time>2021-06-28T17:06:04.000Z</time>
        <extensions>
          <ns3:TrackPointExtension>
            <ns3:atemp>33.0</ns3:atemp>
            <ns3:hr>73</ns3:hr>
          </ns3:TrackPointExtension>
        </extensions>
      </trkpt>
      <trkpt lat="36.8281500041484832763671875" lon="-118.543959371745586395263671875">
        <ele>1999.800048828125</ele>
        <time>2021-06-28T17:06:05.000Z</time>
        <extensions>
          <ns3:TrackPointExtension>
            <ns3:atemp>33.0</ns3:atemp>
            <ns3:hr>73</ns3:hr>
          </ns3:TrackPointExtension>
        </extensions>
      </trkpt>
      <trkpt lat="36.82811806909739971160888671875" lon="-118.54397873394191265106201171875">
        <ele>1999.5999755859375</ele>
        <time>2021-06-28T17:06:07.000Z</time>
        <extensions>
          <ns3:TrackPointExtension>
            <ns3:atemp>33.0</ns3:atemp>
            <ns3:hr>74</ns3:hr>
          </ns3:TrackPointExtension>
        </extensions>
      </trkpt>
      <trkpt lat="36.82808940298855304718017578125" lon="-118.54400672949850559234619140625">
        <ele>1999</ele>
        <time>2021-06-28T17:06:11.000Z</time>
        <extensions>
          <ns3:TrackPointExtension>
            <ns3:atemp>33.0</ns3:atemp>
            <ns3:hr>74</ns3:hr>
          </ns3:TrackPointExtension>
        </extensions>
      </trkpt>
      <trkpt lat="36.82803592644631862640380859375" lon="-118.5440544225275516510009765625">
        <ele>1997.800048828125</ele>
        <time>2021-06-28T17:06:16.000Z</time>
        <extensions>
          <ns3:TrackPointExtension>
            <ns3:atemp>33.0</ns3:atemp>
            <ns3:hr>75</ns3:hr>
          </ns3:TrackPointExtension>
        </extensions>
      </trkpt>
      <trkpt lat="36.82803089730441570281982421875" lon="-118.54406355880200862884521484375">
        <ele>1997.4000244140625</ele>
        <time>2021-06-28T17:06:17.000Z</time>
        <extensions>
          <ns3:TrackPointExtension>
            <ns3:atemp>33.0</ns3:atemp>
            <ns3:hr>76</ns3:hr>
          </ns3:TrackPointExtension>
        </extensions>
      </trkpt>
      <trkpt lat="36.828019581735134124755859375" lon="-118.54406607337296009063720703125">
        <ele>1997.199951171875</ele>
        <time>2021-06-28T17:06:18.000Z</time>
        <extensions>
          <ns3:TrackPointExtension>
            <ns3:atemp>33.0</ns3:atemp>
            <ns3:hr>74</ns3:hr>
          </ns3:TrackPointExtension>
        </extensions>
      </trkpt>
      <trkpt lat="36.827988736331462860107421875" lon="-118.5440654866397380828857421875">
        <ele>1996.800048828125</ele>
        <time>2021-06-28T17:06:20.000Z</time>
        <extensions>
          <ns3:TrackPointExtension>
            <ns3:atemp>33.0</ns3:atemp>
            <ns3:hr>75</ns3:hr>
          </ns3:TrackPointExtension>
        </extensions>
      </trkpt>
      <trkpt lat="36.827977336943149566650390625" lon="-118.54407437145709991455078125">
        <ele>1996.5999755859375</ele>
        <time>2021-06-28T17:06:22.000Z</time>
        <extensions>
          <ns3:TrackPointExtension>
            <ns3:atemp>33.0</ns3:atemp>
            <ns3:hr>75</ns3:hr>
          </ns3:TrackPointExtension>
        </extensions>
      </trkpt>
      <trkpt lat="36.82795110158622264862060546875" lon="-118.5440953262150287628173828125">
        <ele>1996.4000244140625</ele>
        <time>2021-06-28T17:06:23.000Z</time>
        <extensions>
          <ns3:TrackPointExtension>
            <ns3:atemp>33.0</ns3:atemp>
            <ns3:hr>75</ns3:hr>
          </ns3:TrackPointExtension>
        </extensions>
      </trkpt>
      <trkpt lat="36.8279416300356388092041015625" lon="-118.5441099107265472412109375">
        <ele>1996</ele>
        <time>2021-06-28T17:06:26.000Z</time>
        <extensions>
          <ns3:TrackPointExtension>
            <ns3:atemp>33.0</ns3:atemp>
            <ns3:hr>75</ns3:hr>
          </ns3:TrackPointExtension>
        </extensions>
      </trkpt>
      <trkpt lat="36.82791329920291900634765625" lon="-118.544100858271121978759765625">
        <ele>1996</ele>
        <time>2021-06-28T17:06:30.000Z</time>
        <extensions>
          <ns3:TrackPointExtension>
            <ns3:atemp>33.0</ns3:atemp>
            <ns3:hr>74</ns3:hr>
          </ns3:TrackPointExtension>
        </extensions>
      </trkpt>
      <trkpt lat="36.82788790203630924224853515625" lon="-118.5440752096474170684814453125">
        <ele>1996</ele>
        <time>2021-06-28T17:06:37.000Z</time>
        <extensions>
          <ns3:TrackPointExtension>
            <ns3:atemp>33.0</ns3:atemp>
            <ns3:hr>71</ns3:hr>
          </ns3:TrackPointExtension>
        </extensions>
      </trkpt>
      <trkpt lat="36.82785253040492534637451171875" lon="-118.54409541003406047821044921875">
        <ele>1996</ele>
        <time>2021-06-28T17:06:47.000Z</time>
        <extensions>
          <ns3:TrackPointExtension>
            <ns3:atemp>33.0</ns3:atemp>
            <ns3:hr>74</ns3:hr>
          </ns3:TrackPointExtension>
        </extensions>
      </trkpt>
      <trkpt lat="36.8278497643768787384033203125" lon="-118.54409457184374332427978515625">
        <ele>1996</ele>
        <time>2021-06-28T17:06:50.000Z</time>
        <extensions>
          <ns3:TrackPointExtension>
            <ns3:atemp>33.0</ns3:atemp>
            <ns3:hr>77</ns3:hr>
          </ns3:TrackPointExtension>
        </extensions>
      </trkpt>
      <trkpt lat="36.8278497643768787384033203125" lon="-118.54409457184374332427978515625">
        <ele>1996</ele>
        <time>2021-06-28T17:06:52.000Z</time>
        <extensions>
          <ns3:TrackPointExtension>
            <ns3:atemp>33.0</ns3:atemp>
            <ns3:hr>80</ns3:hr>
          </ns3:TrackPointExtension>
        </extensions>
      </trkpt>
      <trkpt lat="36.8278497643768787384033203125" lon="-118.54409457184374332427978515625">
        <ele>1996</ele>
        <time>2021-06-28T17:06:55.000Z</time>
        <extensions>
          <ns3:TrackPointExtension>
            <ns3:atemp>33.0</ns3:atemp>
            <ns3:hr>83</ns3:hr>
          </ns3:TrackPointExtension>
        </extensions>
      </trkpt>
      <trkpt lat="36.8278497643768787384033203125" lon="-118.54409457184374332427978515625">
        <ele>1996</ele>
        <time>2021-06-28T17:06:57.000Z</time>
        <extensions>
          <ns3:TrackPointExtension>
            <ns3:atemp>33.0</ns3:atemp>
            <ns3:hr>86</ns3:hr>
          </ns3:TrackPointExtension>
        </extensions>
      </trkpt>
      <trkpt lat="36.82782688178122043609619140625" lon="-118.54409239254891872406005859375">
        <ele>1996</ele>
        <time>2021-06-28T17:07:20.000Z</time>
        <extensions>
          <ns3:TrackPointExtension>
            <ns3:atemp>33.0</ns3:atemp>
            <ns3:hr>83</ns3:hr>
          </ns3:TrackPointExtension>
        </extensions>
      </trkpt>
      <trkpt lat="36.82782688178122043609619140625" lon="-118.54409272782504558563232421875">
        <ele>1995.800048828125</ele>
        <time>2021-06-28T17:07:22.000Z</time>
        <extensions>
          <ns3:TrackPointExtension>
            <ns3:atemp>33.0</ns3:atemp>
            <ns3:hr>80</ns3:hr>
          </ns3:TrackPointExtension>
        </extensions>
      </trkpt>
      <trkpt lat="36.82782688178122043609619140625" lon="-118.5440953262150287628173828125">
        <ele>1995.800048828125</ele>
        <time>2021-06-28T17:07:24.000Z</time>
        <extensions>
          <ns3:TrackPointExtension>
            <ns3:atemp>33.0</ns3:atemp>
            <ns3:hr>77</ns3:hr>
          </ns3:TrackPointExtension>
        </extensions>
      </trkpt>
      <trkpt lat="36.827827803790569305419921875" lon="-118.54410395957529544830322265625">
        <ele>1995.800048828125</ele>
        <time>2021-06-28T17:07:27.000Z</time>
        <extensions>
          <ns3:TrackPointExtension>
            <ns3:atemp>33.0</ns3:atemp>
            <ns3:hr>74</ns3:hr>
          </ns3:TrackPointExtension>
        </extensions>
      </trkpt>
      <trkpt lat="36.82783727534115314483642578125" lon="-118.5441244952380657196044921875">
        <ele>1995.800048828125</ele>
        <time>2021-06-28T17:07:44.000Z</time>
        <extensions>
          <ns3:TrackPointExtension>
            <ns3:atemp>33.0</ns3:atemp>
            <ns3:hr>71</ns3:hr>
          </ns3:TrackPointExtension>
        </extensions>
      </trkpt>
      <trkpt lat="36.82783744297921657562255859375" lon="-118.54411996901035308837890625">
        <ele>1995.800048828125</ele>
        <time>2021-06-28T17:07:54.000Z</time>
        <extensions>
          <ns3:TrackPointExtension>
            <ns3:atemp>33.0</ns3:atemp>
            <ns3:hr>74</ns3:hr>
          </ns3:TrackPointExtension>
        </extensions>
      </trkpt>
      <trkpt lat="36.82783844880759716033935546875" lon="-118.54411535896360874176025390625">
        <ele>1995.800048828125</ele>
        <time>2021-06-28T17:07:56.000Z</time>
        <extensions>
          <ns3:TrackPointExtension>
            <ns3:atemp>33.0</ns3:atemp>
            <ns3:hr>77</ns3:hr>
          </ns3:TrackPointExtension>
        </extensions>
      </trkpt>
      <trkpt lat="36.82783953845500946044921875" lon="-118.5441130958497524261474609375">
        <ele>1995.800048828125</ele>
        <time>2021-06-28T17:07:59.000Z</time>
        <extensions>
          <ns3:TrackPointExtension>
            <ns3:atemp>33.0</ns3:atemp>
            <ns3:hr>80</ns3:hr>
          </ns3:TrackPointExtension>
        </extensions>
      </trkpt>
      <trkpt lat="36.827810369431972503662109375" lon="-118.54413631372153759002685546875">
        <ele>1995.800048828125</ele>
        <time>2021-06-28T17:08:23.000Z</time>
        <extensions>
          <ns3:TrackPointExtension>
            <ns3:atemp>33.0</ns3:atemp>
            <ns3:hr>81</ns3:hr>
          </ns3:TrackPointExtension>
        </extensions>
      </trkpt>
      <trkpt lat="36.82774624787271022796630859375" lon="-118.54416565038263797760009765625">
        <ele>1995.800048828125</ele>
        <time>2021-06-28T17:08:29.000Z</time>
        <extensions>
          <ns3:TrackPointExtension>
            <ns3:atemp>33.0</ns3:atemp>
            <ns3:hr>81</ns3:hr>
          </ns3:TrackPointExtension>
        </extensions>
      </trkpt>
      <trkpt lat="36.8277089484035968780517578125" lon="-118.5441851802170276641845703125">
        <ele>1992.199951171875</ele>
        <time>2021-06-28T17:08:33.000Z</time>
        <extensions>
          <ns3:TrackPointExtension>
            <ns3:atemp>33.0</ns3:atemp>
            <ns3:hr>80</ns3:hr>
          </ns3:TrackPointExtension>
        </extensions>
      </trkpt>
      <trkpt lat="36.8277015723288059234619140625" lon="-118.5442026145756244659423828125">
        <ele>1992.199951171875</ele>
        <time>2021-06-28T17:08:35.000Z</time>
        <extensions>
          <ns3:TrackPointExtension>
            <ns3:atemp>33.0</ns3:atemp>
            <ns3:hr>79</ns3:hr>
          </ns3:TrackPointExtension>
        </extensions>
      </trkpt>
      <trkpt lat="36.82769780047237873077392578125" lon="-118.54421518743038177490234375">
        <ele>1992</ele>
        <time>2021-06-28T17:08:37.000Z</time>
        <extensions>
          <ns3:TrackPointExtension>
            <ns3:atemp>33.0</ns3:atemp>
            <ns3:hr>79</ns3:hr>
          </ns3:TrackPointExtension>
        </extensions>
      </trkpt>
      <trkpt lat="36.8276740796864032745361328125" lon="-118.54425516910851001739501953125">
        <ele>1991.800048828125</ele>
        <time>2021-06-28T17:08:40.000Z</time>
        <extensions>
          <ns3:TrackPointExtension>
            <ns3:atemp>33.0</ns3:atemp>
            <ns3:hr>81</ns3:hr>
          </ns3:TrackPointExtension>
        </extensions>
      </trkpt>
      <trkpt lat="36.82765957899391651153564453125" lon="-118.54430646635591983795166015625">
        <ele>1991.800048828125</ele>
        <time>2021-06-28T17:08:45.000Z</time>
        <extensions>
          <ns3:TrackPointExtension>
            <ns3:atemp>33.0</ns3:atemp>
            <ns3:hr>84</ns3:hr>
          </ns3:TrackPointExtension>
        </extensions>
      </trkpt>
      <trkpt lat="36.82763460092246532440185546875" lon="-118.54433731175959110260009765625">
        <ele>1991.5999755859375</ele>
        <time>2021-06-28T17:08:49.000Z</time>
        <extensions>
          <ns3:TrackPointExtension>
            <ns3:atemp>33.0</ns3:atemp>
            <ns3:hr>85</ns3:hr>
          </ns3:TrackPointExtension>
        </extensions>
      </trkpt>
      <trkpt lat="36.827605850994586944580078125" lon="-118.5443513095378875732421875">
        <ele>1991.4000244140625</ele>
        <time>2021-06-28T17:08:52.000Z</time>
        <extensions>
          <ns3:TrackPointExtension>
            <ns3:atemp>33.0</ns3:atemp>
            <ns3:hr>85</ns3:hr>
          </ns3:TrackPointExtension>
        </extensions>
      </trkpt>
      <trkpt lat="36.8275993131101131439208984375" lon="-118.544352985918521881103515625">
        <ele>1991</ele>
        <time>2021-06-28T17:08:54.000Z</time>
        <extensions>
          <ns3:TrackPointExtension>
            <ns3:atemp>33.0</ns3:atemp>
            <ns3:hr>84</ns3:hr>
          </ns3:TrackPointExtension>
        </extensions>
      </trkpt>
      <trkpt lat="36.82759352959692478179931640625" lon="-118.54437209665775299072265625">
        <ele>1991</ele>
        <time>2021-06-28T17:08:55.000Z</time>
        <extensions>
          <ns3:TrackPointExtension>
            <ns3:atemp>33.0</ns3:atemp>
            <ns3:hr>85</ns3:hr>
          </ns3:TrackPointExtension>
        </extensions>
      </trkpt>
      <trkpt lat="36.82758850045502185821533203125" lon="-118.54438793845474720001220703125">
        <ele>1991</ele>
        <time>2021-06-28T17:08:57.000Z</time>
        <extensions>
          <ns3:TrackPointExtension>
            <ns3:atemp>33.0</ns3:atemp>
            <ns3:hr>86</ns3:hr>
          </ns3:TrackPointExtension>
        </extensions>
      </trkpt>
      <trkpt lat="36.8275624327361583709716796875" lon="-118.5444393195211887359619140625">
        <ele>1990.800048828125</ele>
        <time>2021-06-28T17:09:00.000Z</time>
        <extensions>
          <ns3:TrackPointExtension>
            <ns3:atemp>33.0</ns3:atemp>
            <ns3:hr>85</ns3:hr>
          </ns3:TrackPointExtension>
        </extensions>
      </trkpt>
      <trkpt lat="36.82754172943532466888427734375" lon="-118.54443789459764957427978515625">
        <ele>1990.800048828125</ele>
        <time>2021-06-28T17:09:01.000Z</time>
        <extensions>
          <ns3:TrackPointExtension>
            <ns3:atemp>33.0</ns3:atemp>
            <ns3:hr>85</ns3:hr>
          </ns3:TrackPointExtension>
        </extensions>
      </trkpt>
      <trkpt lat="36.8275335989892482757568359375" lon="-118.5444399900734424591064453125">
        <ele>1991</ele>
        <time>2021-06-28T17:09:02.000Z</time>
        <extensions>
          <ns3:TrackPointExtension>
            <ns3:atemp>33.0</ns3:atemp>
            <ns3:hr>84</ns3:hr>
          </ns3:TrackPointExtension>
        </extensions>
      </trkpt>
      <trkpt lat="36.827533431351184844970703125" lon="-118.54444728232920169830322265625">
        <ele>1990.800048828125</ele>
        <time>2021-06-28T17:09:05.000Z</time>
        <extensions>
          <ns3:TrackPointExtension>
            <ns3:atemp>33.0</ns3:atemp>
            <ns3:hr>84</ns3:hr>
          </ns3:TrackPointExtension>
        </extensions>
      </trkpt>
      <trkpt lat="36.8275366164743900299072265625" lon="-118.5444718413054943084716796875">
        <ele>1990.800048828125</ele>
        <time>2021-06-28T17:09:06.000Z</time>
        <extensions>
          <ns3:TrackPointExtension>
            <ns3:atemp>33.0</ns3:atemp>
            <ns3:hr>84</ns3:hr>
          </ns3:TrackPointExtension>
        </extensions>
      </trkpt>
      <trkpt lat="36.82753150351345539093017578125" lon="-118.5444832406938076019287109375">
        <ele>1990.5999755859375</ele>
        <time>2021-06-28T17:09:07.000Z</time>
        <extensions>
          <ns3:TrackPointExtension>
            <ns3:atemp>33.0</ns3:atemp>
            <ns3:hr>84</ns3:hr>
          </ns3:TrackPointExtension>
        </extensions>
      </trkpt>
      <trkpt lat="36.82751633226871490478515625" lon="-118.54451919905841350555419921875">
        <ele>1990</ele>
        <time>2021-06-28T17:09:11.000Z</time>
        <extensions>
          <ns3:TrackPointExtension>
            <ns3:atemp>33.0</ns3:atemp>
            <ns3:hr>84</ns3:hr>
          </ns3:TrackPointExtension>
        </extensions>
      </trkpt>
      <trkpt lat="36.8275040946900844573974609375" lon="-118.5445456020534038543701171875">
        <ele>1989.5999755859375</ele>
        <time>2021-06-28T17:09:13.000Z</time>
        <extensions>
          <ns3:TrackPointExtension>
            <ns3:atemp>33.0</ns3:atemp>
            <ns3:hr>85</ns3:hr>
          </ns3:TrackPointExtension>
        </extensions>
      </trkpt>
      <trkpt lat="36.82745187543332576751708984375" lon="-118.54460989125072956085205078125">
        <ele>1989.199951171875</ele>
        <time>2021-06-28T17:09:18.000Z</time>
        <extensions>
          <ns3:TrackPointExtension>
            <ns3:atemp>33.0</ns3:atemp>
            <ns3:hr>83</ns3:hr>
          </ns3:TrackPointExtension>
        </extensions>
      </trkpt>
      <trkpt lat="36.8274377100169658660888671875" lon="-118.544632606208324432373046875">
        <ele>1989</ele>
        <time>2021-06-28T17:09:20.000Z</time>
        <extensions>
          <ns3:TrackPointExtension>
            <ns3:atemp>33.0</ns3:atemp>
            <ns3:hr>83</ns3:hr>
          </ns3:TrackPointExtension>
        </extensions>
      </trkpt>
      <trkpt lat="36.82742647826671600341796875" lon="-118.54463486932218074798583984375">
        <ele>1989</ele>
        <time>2021-06-28T17:09:21.000Z</time>
        <extensions>
          <ns3:TrackPointExtension>
            <ns3:atemp>33.0</ns3:atemp>
            <ns3:hr>82</ns3:hr>
          </ns3:TrackPointExtension>
        </extensions>
      </trkpt>
      <trkpt lat="36.827420108020305633544921875" lon="-118.544646687805652618408203125">
        <ele>1988.800048828125</ele>
        <time>2021-06-28T17:09:23.000Z</time>
        <extensions>
          <ns3:TrackPointExtension>
            <ns3:atemp>33.0</ns3:atemp>
            <ns3:hr>81</ns3:hr>
          </ns3:TrackPointExtension>
        </extensions>
      </trkpt>
      <trkpt lat="36.82740636169910430908203125" lon="-118.54467040859162807464599609375">
        <ele>1988.800048828125</ele>
        <time>2021-06-28T17:09:24.000Z</time>
        <extensions>
          <ns3:TrackPointExtension>
            <ns3:atemp>33.0</ns3:atemp>
            <ns3:hr>79</ns3:hr>
          </ns3:TrackPointExtension>
        </extensions>
      </trkpt>
      <trkpt lat="36.82739303447306156158447265625" lon="-118.54467510245740413665771484375">
        <ele>1988.4000244140625</ele>
        <time>2021-06-28T17:09:26.000Z</time>
        <extensions>
          <ns3:TrackPointExtension>
            <ns3:atemp>33.0</ns3:atemp>
            <ns3:hr>80</ns3:hr>
          </ns3:TrackPointExtension>
        </extensions>
      </trkpt>
      <trkpt lat="36.82738012634217739105224609375" lon="-118.54467996396124362945556640625">
        <ele>1988.4000244140625</ele>
        <time>2021-06-28T17:09:27.000Z</time>
        <extensions>
          <ns3:TrackPointExtension>
            <ns3:atemp>33.0</ns3:atemp>
            <ns3:hr>82</ns3:hr>
          </ns3:TrackPointExtension>
        </extensions>
      </trkpt>
      <trkpt lat="36.82736336253583431243896484375" lon="-118.5446892678737640380859375">
        <ele>1988.4000244140625</ele>
        <time>2021-06-28T17:09:28.000Z</time>
        <extensions>
          <ns3:TrackPointExtension>
            <ns3:atemp>33.0</ns3:atemp>
            <ns3:hr>81</ns3:hr>
          </ns3:TrackPointExtension>
        </extensions>
      </trkpt>
      <trkpt lat="36.82733771391212940216064453125" lon="-118.54469538666307926177978515625">
        <ele>1987.800048828125</ele>
        <time>2021-06-28T17:09:30.000Z</time>
        <extensions>
          <ns3:TrackPointExtension>
            <ns3:atemp>33.0</ns3:atemp>
            <ns3:hr>82</ns3:hr>
          </ns3:TrackPointExtension>
        </extensions>
      </trkpt>
      <trkpt lat="36.8273153342306613922119140625" lon="-118.5447028465569019317626953125">
        <ele>1987.800048828125</ele>
        <time>2021-06-28T17:09:32.000Z</time>
        <extensions>
          <ns3:TrackPointExtension>
            <ns3:atemp>33.0</ns3:atemp>
            <ns3:hr>83</ns3:hr>
          </ns3:TrackPointExtension>
        </extensions>
      </trkpt>
      <trkpt lat="36.8272911943495273590087890625" lon="-118.544734530150890350341796875">
        <ele>1988</ele>
        <time>2021-06-28T17:09:36.000Z</time>
        <extensions>
          <ns3:TrackPointExtension>
            <ns3:atemp>33.0</ns3:atemp>
            <ns3:hr>84</ns3:hr>
          </ns3:TrackPointExtension>
        </extensions>
      </trkpt>
      <trkpt lat="36.82726194150745868682861328125" lon="-118.54477166198194026947021484375">
        <ele>1988</ele>
        <time>2021-06-28T17:09:40.000Z</time>
        <extensions>
          <ns3:TrackPointExtension>
            <ns3:atemp>33.0</ns3:atemp>
            <ns3:hr>82</ns3:hr>
          </ns3:TrackPointExtension>
        </extensions>
      </trkpt>
      <trkpt lat="36.8272442556917667388916015625" lon="-118.544805943965911865234375">
        <ele>1988.800048828125</ele>
        <time>2021-06-28T17:09:44.000Z</time>
        <extensions>
          <ns3:TrackPointExtension>
            <ns3:atemp>33.0</ns3:atemp>
            <ns3:hr>82</ns3:hr>
          </ns3:TrackPointExtension>
        </extensions>
      </trkpt>
      <trkpt lat="36.82723394595086574554443359375" lon="-118.5448490269482135772705078125">
        <ele>1989</ele>
        <time>2021-06-28T17:09:47.000Z</time>
        <extensions>
          <ns3:TrackPointExtension>
            <ns3:atemp>33.0</ns3:atemp>
            <ns3:hr>82</ns3:hr>
          </ns3:TrackPointExtension>
        </extensions>
      </trkpt>
      <trkpt lat="36.82722690515220165252685546875" lon="-118.544858582317829132080078125">
        <ele>1989.800048828125</ele>
        <time>2021-06-28T17:09:49.000Z</time>
        <extensions>
          <ns3:TrackPointExtension>
            <ns3:atemp>33.0</ns3:atemp>
            <ns3:hr>82</ns3:hr>
          </ns3:TrackPointExtension>
        </extensions>
      </trkpt>
      <trkpt lat="36.8272127397358417510986328125" lon="-118.54487459175288677215576171875">
        <ele>1990</ele>
        <time>2021-06-28T17:09:51.000Z</time>
        <extensions>
          <ns3:TrackPointExtension>
            <ns3:atemp>33.0</ns3:atemp>
            <ns3:hr>83</ns3:hr>
          </ns3:TrackPointExtension>
        </extensions>
      </trkpt>
      <trkpt lat="36.82716940529644489288330078125" lon="-118.5449226200580596923828125">
        <ele>1990.800048828125</ele>
        <time>2021-06-28T17:09:58.000Z</time>
        <extensions>
          <ns3:TrackPointExtension>
            <ns3:atemp>33.0</ns3:atemp>
            <ns3:hr>85</ns3:hr>
          </ns3:TrackPointExtension>
        </extensions>
      </trkpt>
      <trkpt lat="36.82713545858860015869140625" lon="-118.5449548065662384033203125">
        <ele>1990.800048828125</ele>
        <time>2021-06-28T17:10:01.000Z</time>
        <extensions>
          <ns3:TrackPointExtension>
            <ns3:atemp>33.0</ns3:atemp>
            <ns3:hr>89</ns3:hr>
          </ns3:TrackPointExtension>
        </extensions>
      </trkpt>
      <trkpt lat="36.827120371162891387939453125" lon="-118.54497064836323261260986328125">
        <ele>1990.800048828125</ele>
        <time>2021-06-28T17:10:02.000Z</time>
        <extensions>
          <ns3:TrackPointExtension>
            <ns3:atemp>33.0</ns3:atemp>
            <ns3:hr>90</ns3:hr>
          </ns3:TrackPointExtension>
        </extensions>
      </trkpt>
      <trkpt lat="36.82710804976522922515869140625" lon="-118.54497517459094524383544921875">
        <ele>1991.199951171875</ele>
        <time>2021-06-28T17:10:03.000Z</time>
        <extensions>
          <ns3:TrackPointExtension>
            <ns3:atemp>33.0</ns3:atemp>
            <ns3:hr>91</ns3:hr>
          </ns3:TrackPointExtension>
        </extensions>
      </trkpt>
      <trkpt lat="36.8270689062774181365966796875" lon="-118.54498858563601970672607421875">
        <ele>1991.199951171875</ele>
        <time>2021-06-28T17:10:06.000Z</time>
        <extensions>
          <ns3:TrackPointExtension>
            <ns3:atemp>33.0</ns3:atemp>
            <ns3:hr>94</ns3:hr>
          </ns3:TrackPointExtension>
        </extensions>
      </trkpt>
      <trkpt lat="36.82704828679561614990234375" lon="-118.54498154483735561370849609375">
        <ele>1991.199951171875</ele>
        <time>2021-06-28T17:10:08.000Z</time>
        <extensions>
          <ns3:TrackPointExtension>
            <ns3:atemp>33.0</ns3:atemp>
            <ns3:hr>97</ns3:hr>
          </ns3:TrackPointExtension>
        </extensions>
      </trkpt>
      <trkpt lat="36.82702423073351383209228515625" lon="-118.54499294422566890716552734375">
        <ele>1991</ele>
        <time>2021-06-28T17:10:09.000Z</time>
        <extensions>
          <ns3:TrackPointExtension>
            <ns3:atemp>33.0</ns3:atemp>
            <ns3:hr>98</ns3:hr>
          </ns3:TrackPointExtension>
        </extensions>
      </trkpt>
      <trkpt lat="36.82702071033418178558349609375" lon="-118.545009791851043701171875">
        <ele>1991</ele>
        <time>2021-06-28T17:10:11.000Z</time>
        <extensions>
          <ns3:TrackPointExtension>
            <ns3:atemp>33.0</ns3:atemp>
            <ns3:hr>100</ns3:hr>
          </ns3:TrackPointExtension>
        </extensions>
      </trkpt>
      <trkpt lat="36.827001683413982391357421875" lon="-118.54506544768810272216796875">
        <ele>1991</ele>
        <time>2021-06-28T17:10:13.000Z</time>
        <extensions>
          <ns3:TrackPointExtension>
            <ns3:atemp>33.0</ns3:atemp>
            <ns3:hr>100</ns3:hr>
          </ns3:TrackPointExtension>
        </extensions>
      </trkpt>
      <trkpt lat="36.826950721442699432373046875" lon="-118.54507617652416229248046875">
        <ele>1991.199951171875</ele>
        <time>2021-06-28T17:10:17.000Z</time>
        <extensions>
          <ns3:TrackPointExtension>
            <ns3:atemp>33.0</ns3:atemp>
            <ns3:hr>101</ns3:hr>
          </ns3:TrackPointExtension>
        </extensions>
      </trkpt>
      <trkpt lat="36.826925575733184814453125" lon="-118.54508556425571441650390625">
        <ele>1991.199951171875</ele>
        <time>2021-06-28T17:10:20.000Z</time>
        <extensions>
          <ns3:TrackPointExtension>
            <ns3:atemp>33.0</ns3:atemp>
            <ns3:hr>104</ns3:hr>
          </ns3:TrackPointExtension>
        </extensions>
      </trkpt>
      <trkpt lat="36.82691643945872783660888671875" lon="-118.54508866555988788604736328125">
        <ele>1991.199951171875</ele>
        <time>2021-06-28T17:10:21.000Z</time>
        <extensions>
          <ns3:TrackPointExtension>
            <ns3:atemp>33.0</ns3:atemp>
            <ns3:hr>104</ns3:hr>
          </ns3:TrackPointExtension>
        </extensions>
      </trkpt>
      <trkpt lat="36.82691124267876148223876953125" lon="-118.54509294033050537109375">
        <ele>1991.199951171875</ele>
        <time>2021-06-28T17:10:22.000Z</time>
        <extensions>
          <ns3:TrackPointExtension>
            <ns3:atemp>33.0</ns3:atemp>
            <ns3:hr>105</ns3:hr>
          </ns3:TrackPointExtension>
        </extensions>
      </trkpt>
      <trkpt lat="36.82690269313752651214599609375" lon="-118.54510559700429439544677734375">
        <ele>1991.4000244140625</ele>
        <time>2021-06-28T17:10:24.000Z</time>
        <extensions>
          <ns3:TrackPointExtension>
            <ns3:atemp>33.0</ns3:atemp>
            <ns3:hr>106</ns3:hr>
          </ns3:TrackPointExtension>
        </extensions>
      </trkpt>
      <trkpt lat="36.82690118439495563507080078125" lon="-118.54511909186840057373046875">
        <ele>1991.4000244140625</ele>
        <time>2021-06-28T17:10:25.000Z</time>
        <extensions>
          <ns3:TrackPointExtension>
            <ns3:atemp>33.0</ns3:atemp>
            <ns3:hr>106</ns3:hr>
          </ns3:TrackPointExtension>
        </extensions>
      </trkpt>
      <trkpt lat="36.82690470479428768157958984375" lon="-118.54514180682599544525146484375">
        <ele>1991.199951171875</ele>
        <time>2021-06-28T17:10:26.000Z</time>
        <extensions>
          <ns3:TrackPointExtension>
            <ns3:atemp>33.0</ns3:atemp>
            <ns3:hr>107</ns3:hr>
          </ns3:TrackPointExtension>
        </extensions>
      </trkpt>
      <trkpt lat="36.8269056268036365509033203125" lon="-118.54517281986773014068603515625">
        <ele>1990.4000244140625</ele>
        <time>2021-06-28T17:10:29.000Z</time>
        <extensions>
          <ns3:TrackPointExtension>
            <ns3:atemp>33.0</ns3:atemp>
            <ns3:hr>108</ns3:hr>
          </ns3:TrackPointExtension>
        </extensions>
      </trkpt>
      <trkpt lat="36.826874278485774993896484375" lon="-118.54517885483801364898681640625">
        <ele>1990.199951171875</ele>
        <time>2021-06-28T17:10:31.000Z</time>
        <extensions>
          <ns3:TrackPointExtension>
            <ns3:atemp>33.0</ns3:atemp>
            <ns3:hr>108</ns3:hr>
          </ns3:TrackPointExtension>
        </extensions>
      </trkpt>
      <trkpt lat="36.82687126100063323974609375" lon="-118.54518824256956577301025390625">
        <ele>1990</ele>
        <time>2021-06-28T17:10:32.000Z</time>
        <extensions>
          <ns3:TrackPointExtension>
            <ns3:atemp>33.0</ns3:atemp>
            <ns3:hr>108</ns3:hr>
          </ns3:TrackPointExtension>
        </extensions>
      </trkpt>
      <trkpt lat="36.826860196888446807861328125" lon="-118.54521095752716064453125">
        <ele>1989.4000244140625</ele>
        <time>2021-06-28T17:10:34.000Z</time>
        <extensions>
          <ns3:TrackPointExtension>
            <ns3:atemp>33.0</ns3:atemp>
            <ns3:hr>107</ns3:hr>
          </ns3:TrackPointExtension>
        </extensions>
      </trkpt>
      <trkpt lat="36.82686028070747852325439453125" lon="-118.54522772133350372314453125">
        <ele>1989.199951171875</ele>
        <time>2021-06-28T17:10:35.000Z</time>
        <extensions>
          <ns3:TrackPointExtension>
            <ns3:atemp>33.0</ns3:atemp>
            <ns3:hr>106</ns3:hr>
          </ns3:TrackPointExtension>
        </extensions>
      </trkpt>
      <trkpt lat="36.826856844127178192138671875" lon="-118.5452379472553730010986328125">
        <ele>1988.800048828125</ele>
        <time>2021-06-28T17:10:37.000Z</time>
        <extensions>
          <ns3:TrackPointExtension>
            <ns3:atemp>33.0</ns3:atemp>
            <ns3:hr>106</ns3:hr>
          </ns3:TrackPointExtension>
        </extensions>
      </trkpt>
      <trkpt lat="36.82685458101332187652587890625" lon="-118.5452459938824176788330078125">
        <ele>1988.5999755859375</ele>
        <time>2021-06-28T17:10:38.000Z</time>
        <extensions>
          <ns3:TrackPointExtension>
            <ns3:atemp>33.0</ns3:atemp>
            <ns3:hr>105</ns3:hr>
          </ns3:TrackPointExtension>
        </extensions>
      </trkpt>
      <trkpt lat="36.82684938423335552215576171875" lon="-118.54525831528007984161376953125">
        <ele>1988.4000244140625</ele>
        <time>2021-06-28T17:10:41.000Z</time>
        <extensions>
          <ns3:TrackPointExtension>
            <ns3:atemp>33.0</ns3:atemp>
            <ns3:hr>102</ns3:hr>
          </ns3:TrackPointExtension>
        </extensions>
      </trkpt>
      <trkpt lat="36.82684301398694515228271484375" lon="-118.5452627576887607574462890625">
        <ele>1988</ele>
        <time>2021-06-28T17:10:42.000Z</time>
        <extensions>
          <ns3:TrackPointExtension>
            <ns3:atemp>33.0</ns3:atemp>
            <ns3:hr>99</ns3:hr>
          </ns3:TrackPointExtension>
        </extensions>
      </trkpt>
      <trkpt lat="36.8268412537872791290283203125" lon="-118.54526015929877758026123046875">
        <ele>1987.5999755859375</ele>
        <time>2021-06-28T17:10:43.000Z</time>
        <extensions>
          <ns3:TrackPointExtension>
            <ns3:atemp>33.0</ns3:atemp>
            <ns3:hr>105</ns3:hr>
          </ns3:TrackPointExtension>
        </extensions>
      </trkpt>
      <trkpt lat="36.82681870646774768829345703125" lon="-118.5452459938824176788330078125">
        <ele>1987.5999755859375</ele>
        <time>2021-06-28T17:10:46.000Z</time>
        <extensions>
          <ns3:TrackPointExtension>
            <ns3:atemp>33.0</ns3:atemp>
            <ns3:hr>104</ns3:hr>
          </ns3:TrackPointExtension>
        </extensions>
      </trkpt>
      <trkpt lat="36.82680412195622920989990234375" lon="-118.54526124894618988037109375">
        <ele>1987.4000244140625</ele>
        <time>2021-06-28T17:10:50.000Z</time>
        <extensions>
          <ns3:TrackPointExtension>
            <ns3:atemp>33.0</ns3:atemp>
            <ns3:hr>103</ns3:hr>
          </ns3:TrackPointExtension>
        </extensions>
      </trkpt>
      <trkpt lat="36.8268088996410369873046875" lon="-118.5452981293201446533203125">
        <ele>1987.5999755859375</ele>
        <time>2021-06-28T17:10:58.000Z</time>
        <extensions>
          <ns3:TrackPointExtension>
            <ns3:atemp>33.0</ns3:atemp>
            <ns3:hr>102</ns3:hr>
          </ns3:TrackPointExtension>
        </extensions>
      </trkpt>
      <trkpt lat="36.8267990089952945709228515625" lon="-118.54529821313917636871337890625">
        <ele>1987.5999755859375</ele>
        <time>2021-06-28T17:11:02.000Z</time>
        <extensions>
          <ns3:TrackPointExtension>
            <ns3:atemp>33.0</ns3:atemp>
            <ns3:hr>99</ns3:hr>
          </ns3:TrackPointExtension>
        </extensions>
      </trkpt>
      <trkpt lat="36.8267990089952945709228515625" lon="-118.54529821313917636871337890625">
        <ele>1987.4000244140625</ele>
        <time>2021-06-28T17:11:13.000Z</time>
        <extensions>
          <ns3:TrackPointExtension>
            <ns3:atemp>33.0</ns3:atemp>
            <ns3:hr>102</ns3:hr>
          </ns3:TrackPointExtension>
        </extensions>
      </trkpt>
      <trkpt lat="36.8267584405839443206787109375" lon="-118.54530709795653820037841796875">
        <ele>1986.800048828125</ele>
        <time>2021-06-28T17:11:24.000Z</time>
        <extensions>
          <ns3:TrackPointExtension>
            <ns3:atemp>33.0</ns3:atemp>
            <ns3:hr>100</ns3:hr>
          </ns3:TrackPointExtension>
        </extensions>
      </trkpt>
      <trkpt lat="36.8267564289271831512451171875" lon="-118.54531698860228061676025390625">
        <ele>1986.4000244140625</ele>
        <time>2021-06-28T17:11:25.000Z</time>
        <extensions>
          <ns3:TrackPointExtension>
            <ns3:atemp>33.0</ns3:atemp>
            <ns3:hr>99</ns3:hr>
          </ns3:TrackPointExtension>
        </extensions>
      </trkpt>
      <trkpt lat="36.82674385607242584228515625" lon="-118.5453365184366703033447265625">
        <ele>1985.800048828125</ele>
        <time>2021-06-28T17:11:29.000Z</time>
        <extensions>
          <ns3:TrackPointExtension>
            <ns3:atemp>33.0</ns3:atemp>
            <ns3:hr>97</ns3:hr>
          </ns3:TrackPointExtension>
        </extensions>
      </trkpt>
      <trkpt lat="36.82672063820064067840576171875" lon="-118.545329309999942779541015625">
        <ele>1985.4000244140625</ele>
        <time>2021-06-28T17:11:32.000Z</time>
        <extensions>
          <ns3:TrackPointExtension>
            <ns3:atemp>33.0</ns3:atemp>
            <ns3:hr>96</ns3:hr>
          </ns3:TrackPointExtension>
        </extensions>
      </trkpt>
      <trkpt lat="36.8267165310680866241455078125" lon="-118.545337356626987457275390625">
        <ele>1984.5999755859375</ele>
        <time>2021-06-28T17:11:37.000Z</time>
        <extensions>
          <ns3:TrackPointExtension>
            <ns3:atemp>33.0</ns3:atemp>
            <ns3:hr>95</ns3:hr>
          </ns3:TrackPointExtension>
        </extensions>
      </trkpt>
      <trkpt lat="36.8267069756984710693359375" lon="-118.54533098638057708740234375">
        <ele>1983.800048828125</ele>
        <time>2021-06-28T17:11:39.000Z</time>
        <extensions>
          <ns3:TrackPointExtension>
            <ns3:atemp>33.0</ns3:atemp>
            <ns3:hr>95</ns3:hr>
          </ns3:TrackPointExtension>
        </extensions>
      </trkpt>
      <trkpt lat="36.82667688466608524322509765625" lon="-118.54527734220027923583984375">
        <ele>1983</ele>
        <time>2021-06-28T17:11:44.000Z</time>
        <extensions>
          <ns3:TrackPointExtension>
            <ns3:atemp>33.0</ns3:atemp>
            <ns3:hr>95</ns3:hr>
          </ns3:TrackPointExtension>
        </extensions>
      </trkpt>
      <trkpt lat="36.82665945030748844146728515625" lon="-118.54530642740428447723388671875">
        <ele>1982.4000244140625</ele>
        <time>2021-06-28T17:11:46.000Z</time>
        <extensions>
          <ns3:TrackPointExtension>
            <ns3:atemp>33.0</ns3:atemp>
            <ns3:hr>95</ns3:hr>
          </ns3:TrackPointExtension>
        </extensions>
      </trkpt>
      <trkpt lat="36.82665945030748844146728515625" lon="-118.54530642740428447723388671875">
        <ele>1982.4000244140625</ele>
        <time>2021-06-28T17:11:47.000Z</time>
        <extensions>
          <ns3:TrackPointExtension>
            <ns3:atemp>33.0</ns3:atemp>
            <ns3:hr>94</ns3:hr>
          </ns3:TrackPointExtension>
        </extensions>
      </trkpt>
      <trkpt lat="36.82663883082568645477294921875" lon="-118.54532704688608646392822265625">
        <ele>1981.800048828125</ele>
        <time>2021-06-28T17:11:50.000Z</time>
        <extensions>
          <ns3:TrackPointExtension>
            <ns3:atemp>33.0</ns3:atemp>
            <ns3:hr>93</ns3:hr>
          </ns3:TrackPointExtension>
        </extensions>
      </trkpt>
      <trkpt lat="36.82658485136926174163818359375" lon="-118.54536183178424835205078125">
        <ele>1981.5999755859375</ele>
        <time>2021-06-28T17:11:57.000Z</time>
        <extensions>
          <ns3:TrackPointExtension>
            <ns3:atemp>33.0</ns3:atemp>
            <ns3:hr>91</ns3:hr>
          </ns3:TrackPointExtension>
        </extensions>
      </trkpt>
      <trkpt lat="36.82655534707009792327880859375" lon="-118.54536510072648525238037109375">
        <ele>1981.5999755859375</ele>
        <time>2021-06-28T17:11:58.000Z</time>
        <extensions>
          <ns3:TrackPointExtension>
            <ns3:atemp>33.0</ns3:atemp>
            <ns3:hr>91</ns3:hr>
          </ns3:TrackPointExtension>
        </extensions>
      </trkpt>
      <trkpt lat="36.826501451432704925537109375" lon="-118.54536510072648525238037109375">
        <ele>1981.5999755859375</ele>
        <time>2021-06-28T17:12:01.000Z</time>
        <extensions>
          <ns3:TrackPointExtension>
            <ns3:atemp>33.0</ns3:atemp>
            <ns3:hr>91</ns3:hr>
          </ns3:TrackPointExtension>
        </extensions>
      </trkpt>
      <trkpt lat="36.8264664150774478912353515625" lon="-118.54538773186504840850830078125">
        <ele>1981.800048828125</ele>
        <time>2021-06-28T17:12:03.000Z</time>
        <extensions>
          <ns3:TrackPointExtension>
            <ns3:atemp>33.0</ns3:atemp>
            <ns3:hr>92</ns3:hr>
          </ns3:TrackPointExtension>
        </extensions>
      </trkpt>
      <trkpt lat="36.82638452388346195220947265625" lon="-118.5453839600086212158203125">
        <ele>1982.4000244140625</ele>
        <time>2021-06-28T17:12:08.000Z</time>
        <extensions>
          <ns3:TrackPointExtension>
            <ns3:atemp>33.0</ns3:atemp>
            <ns3:hr>91</ns3:hr>
          </ns3:TrackPointExtension>
        </extensions>
      </trkpt>
      <trkpt lat="36.8263510800898075103759765625" lon="-118.54538907296955585479736328125">
        <ele>1982.5999755859375</ele>
        <time>2021-06-28T17:12:11.000Z</time>
        <extensions>
          <ns3:TrackPointExtension>
            <ns3:atemp>33.0</ns3:atemp>
            <ns3:hr>92</ns3:hr>
          </ns3:TrackPointExtension>
        </extensions>
      </trkpt>
      <trkpt lat="36.82631428353488445281982421875" lon="-118.54538354091346263885498046875">
        <ele>1982.4000244140625</ele>
        <time>2021-06-28T17:12:17.000Z</time>
        <extensions>
          <ns3:TrackPointExtension>
            <ns3:atemp>33.0</ns3:atemp>
            <ns3:hr>92</ns3:hr>
          </ns3:TrackPointExtension>
        </extensions>
      </trkpt>
      <trkpt lat="36.8262592144310474395751953125" lon="-118.5453200899064540863037109375">
        <ele>1981.800048828125</ele>
        <time>2021-06-28T17:12:23.000Z</time>
        <extensions>
          <ns3:TrackPointExtension>
            <ns3:atemp>33.0</ns3:atemp>
            <ns3:hr>92</ns3:hr>
          </ns3:TrackPointExtension>
        </extensions>
      </trkpt>
      <trkpt lat="36.8262161314487457275390625" lon="-118.545301817357540130615234375">
        <ele>1981.800048828125</ele>
        <time>2021-06-28T17:12:26.000Z</time>
        <extensions>
          <ns3:TrackPointExtension>
            <ns3:atemp>33.0</ns3:atemp>
            <ns3:hr>93</ns3:hr>
          </ns3:TrackPointExtension>
        </extensions>
      </trkpt>
      <trkpt lat="36.8261924944818019866943359375" lon="-118.5452954471111297607421875">
        <ele>1981.800048828125</ele>
        <time>2021-06-28T17:12:29.000Z</time>
        <extensions>
          <ns3:TrackPointExtension>
            <ns3:atemp>33.0</ns3:atemp>
            <ns3:hr>93</ns3:hr>
          </ns3:TrackPointExtension>
        </extensions>
      </trkpt>
      <trkpt lat="36.82612183503806591033935546875" lon="-118.5452825389802455902099609375">
        <ele>1982.199951171875</ele>
        <time>2021-06-28T17:12:37.000Z</time>
        <extensions>
          <ns3:TrackPointExtension>
            <ns3:atemp>33.0</ns3:atemp>
            <ns3:hr>90</ns3:hr>
          </ns3:TrackPointExtension>
        </extensions>
      </trkpt>
      <trkpt lat="36.82610414922237396240234375" lon="-118.5452828742563724517822265625">
        <ele>1982.4000244140625</ele>
        <time>2021-06-28T17:12:38.000Z</time>
        <extensions>
          <ns3:TrackPointExtension>
            <ns3:atemp>33.0</ns3:atemp>
            <ns3:hr>90</ns3:hr>
          </ns3:TrackPointExtension>
        </extensions>
      </trkpt>
      <trkpt lat="36.8260201625525951385498046875" lon="-118.5452781803905963897705078125">
        <ele>1982.4000244140625</ele>
        <time>2021-06-28T17:12:47.000Z</time>
        <extensions>
          <ns3:TrackPointExtension>
            <ns3:atemp>33.0</ns3:atemp>
            <ns3:hr>91</ns3:hr>
          </ns3:TrackPointExtension>
        </extensions>
      </trkpt>
      <trkpt lat="36.825995855033397674560546875" lon="-118.54526854120194911956787109375">
        <ele>1982.199951171875</ele>
        <time>2021-06-28T17:12:50.000Z</time>
        <extensions>
          <ns3:TrackPointExtension>
            <ns3:atemp>33.0</ns3:atemp>
            <ns3:hr>90</ns3:hr>
          </ns3:TrackPointExtension>
        </extensions>
      </trkpt>
      <trkpt lat="36.82589401490986347198486328125" lon="-118.54527373798191547393798828125">
        <ele>1981.5999755859375</ele>
        <time>2021-06-28T17:12:57.000Z</time>
        <extensions>
          <ns3:TrackPointExtension>
            <ns3:atemp>33.0</ns3:atemp>
            <ns3:hr>90</ns3:hr>
          </ns3:TrackPointExtension>
        </extensions>
      </trkpt>
      <trkpt lat="36.8258578889071941375732421875" lon="-118.5452744923532009124755859375">
        <ele>1982</ele>
        <time>2021-06-28T17:12:59.000Z</time>
        <extensions>
          <ns3:TrackPointExtension>
            <ns3:atemp>33.0</ns3:atemp>
            <ns3:hr>92</ns3:hr>
          </ns3:TrackPointExtension>
        </extensions>
      </trkpt>
      <trkpt lat="36.82583995163440704345703125" lon="-118.545290417969226837158203125">
        <ele>1982</ele>
        <time>2021-06-28T17:13:02.000Z</time>
        <extensions>
          <ns3:TrackPointExtension>
            <ns3:atemp>33.0</ns3:atemp>
            <ns3:hr>89</ns3:hr>
          </ns3:TrackPointExtension>
        </extensions>
      </trkpt>
      <trkpt lat="36.82580885477364063262939453125" lon="-118.5453021526336669921875">
        <ele>1981.5999755859375</ele>
        <time>2021-06-28T17:13:06.000Z</time>
        <extensions>
          <ns3:TrackPointExtension>
            <ns3:atemp>33.0</ns3:atemp>
            <ns3:hr>89</ns3:hr>
          </ns3:TrackPointExtension>
        </extensions>
      </trkpt>
      <trkpt lat="36.82580885477364063262939453125" lon="-118.5453021526336669921875">
        <ele>1981.4000244140625</ele>
        <time>2021-06-28T17:13:07.000Z</time>
        <extensions>
          <ns3:TrackPointExtension>
            <ns3:atemp>33.0</ns3:atemp>
            <ns3:hr>90</ns3:hr>
          </ns3:TrackPointExtension>
        </extensions>
      </trkpt>
      <trkpt lat="36.82578873820602893829345703125" lon="-118.54531011544167995452880859375">
        <ele>1981.199951171875</ele>
        <time>2021-06-28T17:13:08.000Z</time>
        <extensions>
          <ns3:TrackPointExtension>
            <ns3:atemp>33.0</ns3:atemp>
            <ns3:hr>88</ns3:hr>
          </ns3:TrackPointExtension>
        </extensions>
      </trkpt>
      <trkpt lat="36.82575034908950328826904296875" lon="-118.545311875641345977783203125">
        <ele>1980.800048828125</ele>
        <time>2021-06-28T17:13:11.000Z</time>
        <extensions>
          <ns3:TrackPointExtension>
            <ns3:atemp>33.0</ns3:atemp>
            <ns3:hr>91</ns3:hr>
          </ns3:TrackPointExtension>
        </extensions>
      </trkpt>
      <trkpt lat="36.8257319927215576171875" lon="-118.5453194193542003631591796875">
        <ele>1980</ele>
        <time>2021-06-28T17:13:14.000Z</time>
        <extensions>
          <ns3:TrackPointExtension>
            <ns3:atemp>33.0</ns3:atemp>
            <ns3:hr>90</ns3:hr>
          </ns3:TrackPointExtension>
        </extensions>
      </trkpt>
      <trkpt lat="36.8257076852023601531982421875" lon="-118.545336686074733734130859375">
        <ele>1980</ele>
        <time>2021-06-28T17:13:16.000Z</time>
        <extensions>
          <ns3:TrackPointExtension>
            <ns3:atemp>33.0</ns3:atemp>
            <ns3:hr>90</ns3:hr>
          </ns3:TrackPointExtension>
        </extensions>
      </trkpt>
      <trkpt lat="36.82570047676563262939453125" lon="-118.545342721045017242431640625">
        <ele>1979.800048828125</ele>
        <time>2021-06-28T17:13:17.000Z</time>
        <extensions>
          <ns3:TrackPointExtension>
            <ns3:atemp>33.0</ns3:atemp>
            <ns3:hr>91</ns3:hr>
          </ns3:TrackPointExtension>
        </extensions>
      </trkpt>
      <trkpt lat="36.82567340321838855743408203125" lon="-118.54536510072648525238037109375">
        <ele>1979.4000244140625</ele>
        <time>2021-06-28T17:13:22.000Z</time>
        <extensions>
          <ns3:TrackPointExtension>
            <ns3:atemp>33.0</ns3:atemp>
            <ns3:hr>88</ns3:hr>
          </ns3:TrackPointExtension>
        </extensions>
      </trkpt>
      <trkpt lat="36.8256453238427639007568359375" lon="-118.54537482373416423797607421875">
        <ele>1979</ele>
        <time>2021-06-28T17:13:24.000Z</time>
        <extensions>
          <ns3:TrackPointExtension>
            <ns3:atemp>33.0</ns3:atemp>
            <ns3:hr>92</ns3:hr>
          </ns3:TrackPointExtension>
        </extensions>
      </trkpt>
      <trkpt lat="36.82561724446713924407958984375" lon="-118.5453973710536956787109375">
        <ele>1978.4000244140625</ele>
        <time>2021-06-28T17:13:27.000Z</time>
        <extensions>
          <ns3:TrackPointExtension>
            <ns3:atemp>33.0</ns3:atemp>
            <ns3:hr>89</ns3:hr>
          </ns3:TrackPointExtension>
        </extensions>
      </trkpt>
      <trkpt lat="36.8255705572664737701416015625" lon="-118.54542913846671581268310546875">
        <ele>1978</ele>
        <time>2021-06-28T17:13:31.000Z</time>
        <extensions>
          <ns3:TrackPointExtension>
            <ns3:atemp>33.0</ns3:atemp>
            <ns3:hr>90</ns3:hr>
          </ns3:TrackPointExtension>
        </extensions>
      </trkpt>
      <trkpt lat="36.8255692161619663238525390625" lon="-118.54544573463499546051025390625">
        <ele>1977.800048828125</ele>
        <time>2021-06-28T17:13:32.000Z</time>
        <extensions>
          <ns3:TrackPointExtension>
            <ns3:atemp>33.0</ns3:atemp>
            <ns3:hr>89</ns3:hr>
          </ns3:TrackPointExtension>
        </extensions>
      </trkpt>
      <trkpt lat="36.82556645013391971588134765625" lon="-118.54545931331813335418701171875">
        <ele>1977.800048828125</ele>
        <time>2021-06-28T17:13:33.000Z</time>
        <extensions>
          <ns3:TrackPointExtension>
            <ns3:atemp>33.0</ns3:atemp>
            <ns3:hr>88</ns3:hr>
          </ns3:TrackPointExtension>
        </extensions>
      </trkpt>
      <trkpt lat="36.8255268037319183349609375" lon="-118.54551513679325580596923828125">
        <ele>1977.199951171875</ele>
        <time>2021-06-28T17:13:39.000Z</time>
        <extensions>
          <ns3:TrackPointExtension>
            <ns3:atemp>33.0</ns3:atemp>
            <ns3:hr>88</ns3:hr>
          </ns3:TrackPointExtension>
        </extensions>
      </trkpt>
      <trkpt lat="36.825511716306209564208984375" lon="-118.54553475044667720794677734375">
        <ele>1977.199951171875</ele>
        <time>2021-06-28T17:13:41.000Z</time>
        <extensions>
          <ns3:TrackPointExtension>
            <ns3:atemp>33.0</ns3:atemp>
            <ns3:hr>86</ns3:hr>
          </ns3:TrackPointExtension>
        </extensions>
      </trkpt>
      <trkpt lat="36.82550945319235324859619140625" lon="-118.54556324891746044158935546875">
        <ele>1977.199951171875</ele>
        <time>2021-06-28T17:13:44.000Z</time>
        <extensions>
          <ns3:TrackPointExtension>
            <ns3:atemp>33.0</ns3:atemp>
            <ns3:hr>83</ns3:hr>
          </ns3:TrackPointExtension>
        </extensions>
      </trkpt>
      <trkpt lat="36.82549805380403995513916015625" lon="-118.54556626640260219573974609375">
        <ele>1976.5999755859375</ele>
        <time>2021-06-28T17:13:45.000Z</time>
        <extensions>
          <ns3:TrackPointExtension>
            <ns3:atemp>33.0</ns3:atemp>
            <ns3:hr>82</ns3:hr>
          </ns3:TrackPointExtension>
        </extensions>
      </trkpt>
      <trkpt lat="36.8254796974360942840576171875" lon="-118.54557146318256855010986328125">
        <ele>1976.199951171875</ele>
        <time>2021-06-28T17:13:47.000Z</time>
        <extensions>
          <ns3:TrackPointExtension>
            <ns3:atemp>33.0</ns3:atemp>
            <ns3:hr>79</ns3:hr>
          </ns3:TrackPointExtension>
        </extensions>
      </trkpt>
      <trkpt lat="36.8254813738167285919189453125" lon="-118.5455668531358242034912109375">
        <ele>1976</ele>
        <time>2021-06-28T17:13:49.000Z</time>
        <extensions>
          <ns3:TrackPointExtension>
            <ns3:atemp>33.0</ns3:atemp>
            <ns3:hr>78</ns3:hr>
          </ns3:TrackPointExtension>
        </extensions>
      </trkpt>
      <trkpt lat="36.82547005824744701385498046875" lon="-118.545556962490081787109375">
        <ele>1975</ele>
        <time>2021-06-28T17:13:52.000Z</time>
        <extensions>
          <ns3:TrackPointExtension>
            <ns3:atemp>33.0</ns3:atemp>
            <ns3:hr>78</ns3:hr>
          </ns3:TrackPointExtension>
        </extensions>
      </trkpt>
      <trkpt lat="36.825468800961971282958984375" lon="-118.5455561242997646331787109375">
        <ele>1975</ele>
        <time>2021-06-28T17:13:53.000Z</time>
        <extensions>
          <ns3:TrackPointExtension>
            <ns3:atemp>33.0</ns3:atemp>
            <ns3:hr>77</ns3:hr>
          </ns3:TrackPointExtension>
        </extensions>
      </trkpt>
      <trkpt lat="36.82545346207916736602783203125" lon="-118.54555034078657627105712890625">
        <ele>1974.800048828125</ele>
        <time>2021-06-28T17:13:55.000Z</time>
        <extensions>
          <ns3:TrackPointExtension>
            <ns3:atemp>33.0</ns3:atemp>
            <ns3:hr>80</ns3:hr>
          </ns3:TrackPointExtension>
        </extensions>
      </trkpt>
      <trkpt lat="36.82544541545212268829345703125" lon="-118.54554288089275360107421875">
        <ele>1973.5999755859375</ele>
        <time>2021-06-28T17:13:57.000Z</time>
        <extensions>
          <ns3:TrackPointExtension>
            <ns3:atemp>33.0</ns3:atemp>
            <ns3:hr>77</ns3:hr>
          </ns3:TrackPointExtension>
        </extensions>
      </trkpt>
      <trkpt lat="36.825433932244777679443359375" lon="-118.54553424753248691558837890625">
        <ele>1973.199951171875</ele>
        <time>2021-06-28T17:13:58.000Z</time>
        <extensions>
          <ns3:TrackPointExtension>
            <ns3:atemp>33.0</ns3:atemp>
            <ns3:hr>80</ns3:hr>
          </ns3:TrackPointExtension>
        </extensions>
      </trkpt>
      <trkpt lat="36.82538154534995555877685546875" lon="-118.54553726501762866973876953125">
        <ele>1972</ele>
        <time>2021-06-28T17:14:01.000Z</time>
        <extensions>
          <ns3:TrackPointExtension>
            <ns3:atemp>33.0</ns3:atemp>
            <ns3:hr>81</ns3:hr>
          </ns3:TrackPointExtension>
        </extensions>
      </trkpt>
      <trkpt lat="36.82536528445780277252197265625" lon="-118.54554045014083385467529296875">
        <ele>1971.800048828125</ele>
        <time>2021-06-28T17:14:03.000Z</time>
        <extensions>
          <ns3:TrackPointExtension>
            <ns3:atemp>33.0</ns3:atemp>
            <ns3:hr>81</ns3:hr>
          </ns3:TrackPointExtension>
        </extensions>
      </trkpt>
      <trkpt lat="36.8253372050821781158447265625" lon="-118.5455437190830707550048828125">
        <ele>1971.800048828125</ele>
        <time>2021-06-28T17:14:04.000Z</time>
        <extensions>
          <ns3:TrackPointExtension>
            <ns3:atemp>33.0</ns3:atemp>
            <ns3:hr>81</ns3:hr>
          </ns3:TrackPointExtension>
        </extensions>
      </trkpt>
      <trkpt lat="36.82531884871423244476318359375" lon="-118.5455490835011005401611328125">
        <ele>1971.800048828125</ele>
        <time>2021-06-28T17:14:06.000Z</time>
        <extensions>
          <ns3:TrackPointExtension>
            <ns3:atemp>33.0</ns3:atemp>
            <ns3:hr>81</ns3:hr>
          </ns3:TrackPointExtension>
        </extensions>
      </trkpt>
      <trkpt lat="36.8253110535442829132080078125" lon="-118.54555629193782806396484375">
        <ele>1971.4000244140625</ele>
        <time>2021-06-28T17:14:08.000Z</time>
        <extensions>
          <ns3:TrackPointExtension>
            <ns3:atemp>33.0</ns3:atemp>
            <ns3:hr>81</ns3:hr>
          </ns3:TrackPointExtension>
        </extensions>
      </trkpt>
      <trkpt lat="36.8252470158040523529052734375" lon="-118.5456057451665401458740234375">
        <ele>1971.800048828125</ele>
        <time>2021-06-28T17:14:13.000Z</time>
        <extensions>
          <ns3:TrackPointExtension>
            <ns3:atemp>34.0</ns3:atemp>
            <ns3:hr>84</ns3:hr>
          </ns3:TrackPointExtension>
        </extensions>
      </trkpt>
      <trkpt lat="36.8252094648778438568115234375" lon="-118.54562938213348388671875">
        <ele>1972.4000244140625</ele>
        <time>2021-06-28T17:14:17.000Z</time>
        <extensions>
          <ns3:TrackPointExtension>
            <ns3:atemp>34.0</ns3:atemp>
            <ns3:hr>85</ns3:hr>
          </ns3:TrackPointExtension>
        </extensions>
      </trkpt>
      <trkpt lat="36.82520183734595775604248046875" lon="-118.545637428760528564453125">
        <ele>1972.4000244140625</ele>
        <time>2021-06-28T17:14:18.000Z</time>
        <extensions>
          <ns3:TrackPointExtension>
            <ns3:atemp>34.0</ns3:atemp>
            <ns3:hr>85</ns3:hr>
          </ns3:TrackPointExtension>
        </extensions>
      </trkpt>
      <trkpt lat="36.8251682259142398834228515625" lon="-118.54567036963999271392822265625">
        <ele>1973</ele>
        <time>2021-06-28T17:14:22.000Z</time>
        <extensions>
          <ns3:TrackPointExtension>
            <ns3:atemp>34.0</ns3:atemp>
            <ns3:hr>85</ns3:hr>
          </ns3:TrackPointExtension>
        </extensions>
      </trkpt>
      <trkpt lat="36.82516126893460750579833984375" lon="-118.54568193666636943817138671875">
        <ele>1973</ele>
        <time>2021-06-28T17:14:23.000Z</time>
        <extensions>
          <ns3:TrackPointExtension>
            <ns3:atemp>34.0</ns3:atemp>
            <ns3:hr>85</ns3:hr>
          </ns3:TrackPointExtension>
        </extensions>
      </trkpt>
      <trkpt lat="36.825137548148632049560546875" lon="-118.5456875525414943695068359375">
        <ele>1973.4000244140625</ele>
        <time>2021-06-28T17:14:25.000Z</time>
        <extensions>
          <ns3:TrackPointExtension>
            <ns3:atemp>34.0</ns3:atemp>
            <ns3:hr>82</ns3:hr>
          </ns3:TrackPointExtension>
        </extensions>
      </trkpt>
      <trkpt lat="36.82508951984345912933349609375" lon="-118.54568914510309696197509765625">
        <ele>1974.199951171875</ele>
        <time>2021-06-28T17:14:31.000Z</time>
        <extensions>
          <ns3:TrackPointExtension>
            <ns3:atemp>34.0</ns3:atemp>
            <ns3:hr>82</ns3:hr>
          </ns3:TrackPointExtension>
        </extensions>
      </trkpt>
      <trkpt lat="36.82506906799972057342529296875" lon="-118.5456875525414943695068359375">
        <ele>1974.199951171875</ele>
        <time>2021-06-28T17:14:34.000Z</time>
        <extensions>
          <ns3:TrackPointExtension>
            <ns3:atemp>34.0</ns3:atemp>
            <ns3:hr>85</ns3:hr>
          </ns3:TrackPointExtension>
        </extensions>
      </trkpt>
      <trkpt lat="36.825068481266498565673828125" lon="-118.54569635353982448577880859375">
        <ele>1974.199951171875</ele>
        <time>2021-06-28T17:14:35.000Z</time>
        <extensions>
          <ns3:TrackPointExtension>
            <ns3:atemp>34.0</ns3:atemp>
            <ns3:hr>91</ns3:hr>
          </ns3:TrackPointExtension>
        </extensions>
      </trkpt>
      <trkpt lat="36.8250673078000545501708984375" lon="-118.54569953866302967071533203125">
        <ele>1974.199951171875</ele>
        <time>2021-06-28T17:14:36.000Z</time>
        <extensions>
          <ns3:TrackPointExtension>
            <ns3:atemp>34.0</ns3:atemp>
            <ns3:hr>91</ns3:hr>
          </ns3:TrackPointExtension>
        </extensions>
      </trkpt>
      <trkpt lat="36.8250508792698383331298828125" lon="-118.5456932522356510162353515625">
        <ele>1974.199951171875</ele>
        <time>2021-06-28T17:14:38.000Z</time>
        <extensions>
          <ns3:TrackPointExtension>
            <ns3:atemp>34.0</ns3:atemp>
            <ns3:hr>93</ns3:hr>
          </ns3:TrackPointExtension>
        </extensions>
      </trkpt>
      <trkpt lat="36.8250465206801891326904296875" lon="-118.54569719173014163970947265625">
        <ele>1974.4000244140625</ele>
        <time>2021-06-28T17:14:40.000Z</time>
        <extensions>
          <ns3:TrackPointExtension>
            <ns3:atemp>34.0</ns3:atemp>
            <ns3:hr>94</ns3:hr>
          </ns3:TrackPointExtension>
        </extensions>
      </trkpt>
      <trkpt lat="36.82503352873027324676513671875" lon="-118.54569920338690280914306640625">
        <ele>1974.800048828125</ele>
        <time>2021-06-28T17:14:46.000Z</time>
        <extensions>
          <ns3:TrackPointExtension>
            <ns3:atemp>34.0</ns3:atemp>
            <ns3:hr>97</ns3:hr>
          </ns3:TrackPointExtension>
        </extensions>
      </trkpt>
      <trkpt lat="36.825052388012409210205078125" lon="-118.54570305906236171722412109375">
        <ele>1975.199951171875</ele>
        <time>2021-06-28T17:14:49.000Z</time>
        <extensions>
          <ns3:TrackPointExtension>
            <ns3:atemp>34.0</ns3:atemp>
            <ns3:hr>100</ns3:hr>
          </ns3:TrackPointExtension>
        </extensions>
      </trkpt>
      <trkpt lat="36.82504593394696712493896484375" lon="-118.5456935875117778778076171875">
        <ele>1975.199951171875</ele>
        <time>2021-06-28T17:14:51.000Z</time>
        <extensions>
          <ns3:TrackPointExtension>
            <ns3:atemp>34.0</ns3:atemp>
            <ns3:hr>103</ns3:hr>
          </ns3:TrackPointExtension>
        </extensions>
      </trkpt>
      <trkpt lat="36.82503989897668361663818359375" lon="-118.5456872172653675079345703125">
        <ele>1975.199951171875</ele>
        <time>2021-06-28T17:14:52.000Z</time>
        <extensions>
          <ns3:TrackPointExtension>
            <ns3:atemp>34.0</ns3:atemp>
            <ns3:hr>103</ns3:hr>
          </ns3:TrackPointExtension>
        </extensions>
      </trkpt>
      <trkpt lat="36.82503989897668361663818359375" lon="-118.5456872172653675079345703125">
        <ele>1974.5999755859375</ele>
        <time>2021-06-28T17:15:02.000Z</time>
        <extensions>
          <ns3:TrackPointExtension>
            <ns3:atemp>33.0</ns3:atemp>
            <ns3:hr>106</ns3:hr>
          </ns3:TrackPointExtension>
        </extensions>
      </trkpt>
      <trkpt lat="36.825069487094879150390625" lon="-118.545698113739490509033203125">
        <ele>1974.5999755859375</ele>
        <time>2021-06-28T17:15:20.000Z</time>
        <extensions>
          <ns3:TrackPointExtension>
            <ns3:atemp>33.0</ns3:atemp>
            <ns3:hr>110</ns3:hr>
          </ns3:TrackPointExtension>
        </extensions>
      </trkpt>
      <trkpt lat="36.82507418096065521240234375" lon="-118.54569970630109310150146484375">
        <ele>1974.5999755859375</ele>
        <time>2021-06-28T17:15:21.000Z</time>
        <extensions>
          <ns3:TrackPointExtension>
            <ns3:atemp>33.0</ns3:atemp>
            <ns3:hr>111</ns3:hr>
          </ns3:TrackPointExtension>
        </extensions>
      </trkpt>
      <trkpt lat="36.8250773660838603973388671875" lon="-118.5456982813775539398193359375">
        <ele>1974.4000244140625</ele>
        <time>2021-06-28T17:15:29.000Z</time>
        <extensions>
          <ns3:TrackPointExtension>
            <ns3:atemp>33.0</ns3:atemp>
            <ns3:hr>114</ns3:hr>
          </ns3:TrackPointExtension>
        </extensions>
      </trkpt>
      <trkpt lat="36.825083233416080474853515625" lon="-118.54569400660693645477294921875">
        <ele>1974.4000244140625</ele>
        <time>2021-06-28T17:15:33.000Z</time>
        <extensions>
          <ns3:TrackPointExtension>
            <ns3:atemp>33.0</ns3:atemp>
            <ns3:hr>113</ns3:hr>
          </ns3:TrackPointExtension>
        </extensions>
      </trkpt>
      <trkpt lat="36.82508490979671478271484375" lon="-118.54569786228239536285400390625">
        <ele>1974.4000244140625</ele>
        <time>2021-06-28T17:15:41.000Z</time>
        <extensions>
          <ns3:TrackPointExtension>
            <ns3:atemp>33.0</ns3:atemp>
            <ns3:hr>110</ns3:hr>
          </ns3:TrackPointExtension>
        </extensions>
      </trkpt>
      <trkpt lat="36.82508490979671478271484375" lon="-118.54569786228239536285400390625">
        <ele>1974.4000244140625</ele>
        <time>2021-06-28T17:15:43.000Z</time>
        <extensions>
          <ns3:TrackPointExtension>
            <ns3:atemp>33.0</ns3:atemp>
            <ns3:hr>111</ns3:hr>
          </ns3:TrackPointExtension>
        </extensions>
      </trkpt>
      <trkpt lat="36.825085580348968505859375" lon="-118.54570540599524974822998046875">
        <ele>1974.5999755859375</ele>
        <time>2021-06-28T17:15:47.000Z</time>
        <extensions>
          <ns3:TrackPointExtension>
            <ns3:atemp>33.0</ns3:atemp>
            <ns3:hr>108</ns3:hr>
          </ns3:TrackPointExtension>
        </extensions>
      </trkpt>
      <trkpt lat="36.825073845684528350830078125" lon="-118.54573524557054042816162109375">
        <ele>1974.800048828125</ele>
        <time>2021-06-28T17:15:52.000Z</time>
        <extensions>
          <ns3:TrackPointExtension>
            <ns3:atemp>33.0</ns3:atemp>
            <ns3:hr>104</ns3:hr>
          </ns3:TrackPointExtension>
        </extensions>
      </trkpt>
      <trkpt lat="36.8250555731356143951416015625" lon="-118.5457348264753818511962890625">
        <ele>1974.5999755859375</ele>
        <time>2021-06-28T17:15:54.000Z</time>
        <extensions>
          <ns3:TrackPointExtension>
            <ns3:atemp>33.0</ns3:atemp>
            <ns3:hr>102</ns3:hr>
          </ns3:TrackPointExtension>
        </extensions>
      </trkpt>
      <trkpt lat="36.8250096403062343597412109375" lon="-118.54577279649674892425537109375">
        <ele>1974</ele>
        <time>2021-06-28T17:15:59.000Z</time>
        <extensions>
          <ns3:TrackPointExtension>
            <ns3:atemp>33.0</ns3:atemp>
            <ns3:hr>100</ns3:hr>
          </ns3:TrackPointExtension>
        </extensions>
      </trkpt>
      <trkpt lat="36.824973262846469879150390625" lon="-118.54578427970409393310546875">
        <ele>1973.199951171875</ele>
        <time>2021-06-28T17:16:03.000Z</time>
        <extensions>
          <ns3:TrackPointExtension>
            <ns3:atemp>33.0</ns3:atemp>
            <ns3:hr>101</ns3:hr>
          </ns3:TrackPointExtension>
        </extensions>
      </trkpt>
      <trkpt lat="36.8249554932117462158203125" lon="-118.54580883868038654327392578125">
        <ele>1973</ele>
        <time>2021-06-28T17:16:05.000Z</time>
        <extensions>
          <ns3:TrackPointExtension>
            <ns3:atemp>33.0</ns3:atemp>
            <ns3:hr>100</ns3:hr>
          </ns3:TrackPointExtension>
        </extensions>
      </trkpt>
      <trkpt lat="36.8249206244945526123046875" lon="-118.545814789831638336181640625">
        <ele>1973</ele>
        <time>2021-06-28T17:16:07.000Z</time>
        <extensions>
          <ns3:TrackPointExtension>
            <ns3:atemp>33.0</ns3:atemp>
            <ns3:hr>99</ns3:hr>
          </ns3:TrackPointExtension>
        </extensions>
      </trkpt>
      <trkpt lat="36.82488416321575641632080078125" lon="-118.54583700187504291534423828125">
        <ele>1972.800048828125</ele>
        <time>2021-06-28T17:16:11.000Z</time>
        <extensions>
          <ns3:TrackPointExtension>
            <ns3:atemp>33.0</ns3:atemp>
            <ns3:hr>96</ns3:hr>
          </ns3:TrackPointExtension>
        </extensions>
      </trkpt>
      <trkpt lat="36.824867315590381622314453125" lon="-118.54584203101694583892822265625">
        <ele>1972.800048828125</ele>
        <time>2021-06-28T17:16:13.000Z</time>
        <extensions>
          <ns3:TrackPointExtension>
            <ns3:atemp>33.0</ns3:atemp>
            <ns3:hr>95</ns3:hr>
          </ns3:TrackPointExtension>
        </extensions>
      </trkpt>
      <trkpt lat="36.8248664774000644683837890625" lon="-118.5458337329328060150146484375">
        <ele>1972.199951171875</ele>
        <time>2021-06-28T17:16:15.000Z</time>
        <extensions>
          <ns3:TrackPointExtension>
            <ns3:atemp>33.0</ns3:atemp>
            <ns3:hr>94</ns3:hr>
          </ns3:TrackPointExtension>
        </extensions>
      </trkpt>
      <trkpt lat="36.82485834695398807525634765625" lon="-118.545814454555511474609375">
        <ele>1971.5999755859375</ele>
        <time>2021-06-28T17:16:19.000Z</time>
        <extensions>
          <ns3:TrackPointExtension>
            <ns3:atemp>33.0</ns3:atemp>
            <ns3:hr>94</ns3:hr>
          </ns3:TrackPointExtension>
        </extensions>
      </trkpt>
      <trkpt lat="36.8247846700251102447509765625" lon="-118.54580028913915157318115234375">
        <ele>1971.199951171875</ele>
        <time>2021-06-28T17:16:25.000Z</time>
        <extensions>
          <ns3:TrackPointExtension>
            <ns3:atemp>33.0</ns3:atemp>
            <ns3:hr>94</ns3:hr>
          </ns3:TrackPointExtension>
        </extensions>
      </trkpt>
      <trkpt lat="36.8247749470174312591552734375" lon="-118.5458035580813884735107421875">
        <ele>1971</ele>
        <time>2021-06-28T17:16:26.000Z</time>
        <extensions>
          <ns3:TrackPointExtension>
            <ns3:atemp>33.0</ns3:atemp>
            <ns3:hr>95</ns3:hr>
          </ns3:TrackPointExtension>
        </extensions>
      </trkpt>
      <trkpt lat="36.82474401779472827911376953125" lon="-118.54582526721060276031494140625">
        <ele>1970.4000244140625</ele>
        <time>2021-06-28T17:16:30.000Z</time>
        <extensions>
          <ns3:TrackPointExtension>
            <ns3:atemp>33.0</ns3:atemp>
            <ns3:hr>98</ns3:hr>
          </ns3:TrackPointExtension>
        </extensions>
      </trkpt>
      <trkpt lat="36.824718452990055084228515625" lon="-118.5458417795598506927490234375">
        <ele>1970.199951171875</ele>
        <time>2021-06-28T17:16:33.000Z</time>
        <extensions>
          <ns3:TrackPointExtension>
            <ns3:atemp>33.0</ns3:atemp>
            <ns3:hr>97</ns3:hr>
          </ns3:TrackPointExtension>
        </extensions>
      </trkpt>
      <trkpt lat="36.82471183128654956817626953125" lon="-118.54583549313247203826904296875">
        <ele>1970.199951171875</ele>
        <time>2021-06-28T17:16:34.000Z</time>
        <extensions>
          <ns3:TrackPointExtension>
            <ns3:atemp>33.0</ns3:atemp>
            <ns3:hr>97</ns3:hr>
          </ns3:TrackPointExtension>
        </extensions>
      </trkpt>
      <trkpt lat="36.82467587292194366455078125" lon="-118.5458209924399852752685546875">
        <ele>1969.5999755859375</ele>
        <time>2021-06-28T17:16:38.000Z</time>
        <extensions>
          <ns3:TrackPointExtension>
            <ns3:atemp>33.0</ns3:atemp>
            <ns3:hr>97</ns3:hr>
          </ns3:TrackPointExtension>
        </extensions>
      </trkpt>
      <trkpt lat="36.8246639706194400787353515625" lon="-118.54582711122930049896240234375">
        <ele>1969.4000244140625</ele>
        <time>2021-06-28T17:16:40.000Z</time>
        <extensions>
          <ns3:TrackPointExtension>
            <ns3:atemp>33.0</ns3:atemp>
            <ns3:hr>98</ns3:hr>
          </ns3:TrackPointExtension>
        </extensions>
      </trkpt>
      <trkpt lat="36.8246639706194400787353515625" lon="-118.54582711122930049896240234375">
        <ele>1969.199951171875</ele>
        <time>2021-06-28T17:16:41.000Z</time>
        <extensions>
          <ns3:TrackPointExtension>
            <ns3:atemp>33.0</ns3:atemp>
            <ns3:hr>99</ns3:hr>
          </ns3:TrackPointExtension>
        </extensions>
      </trkpt>
      <trkpt lat="36.8246193788945674896240234375" lon="-118.5458179749548435211181640625">
        <ele>1969</ele>
        <time>2021-06-28T17:16:44.000Z</time>
        <extensions>
          <ns3:TrackPointExtension>
            <ns3:atemp>33.0</ns3:atemp>
            <ns3:hr>100</ns3:hr>
          </ns3:TrackPointExtension>
        </extensions>
      </trkpt>
      <trkpt lat="36.82459515519440174102783203125" lon="-118.54582090862095355987548828125">
        <ele>1968.5999755859375</ele>
        <time>2021-06-28T17:16:46.000Z</time>
        <extensions>
          <ns3:TrackPointExtension>
            <ns3:atemp>33.0</ns3:atemp>
            <ns3:hr>101</ns3:hr>
          </ns3:TrackPointExtension>
        </extensions>
      </trkpt>
      <trkpt lat="36.82457939721643924713134765625" lon="-118.54583792388439178466796875">
        <ele>1968</ele>
        <time>2021-06-28T17:16:48.000Z</time>
        <extensions>
          <ns3:TrackPointExtension>
            <ns3:atemp>33.0</ns3:atemp>
            <ns3:hr>101</ns3:hr>
          </ns3:TrackPointExtension>
        </extensions>
      </trkpt>
      <trkpt lat="36.82452424429357051849365234375" lon="-118.54584823362529277801513671875">
        <ele>1967.199951171875</ele>
        <time>2021-06-28T17:16:54.000Z</time>
        <extensions>
          <ns3:TrackPointExtension>
            <ns3:atemp>33.0</ns3:atemp>
            <ns3:hr>99</ns3:hr>
          </ns3:TrackPointExtension>
        </extensions>
      </trkpt>
      <trkpt lat="36.8245161138474941253662109375" lon="-118.54584328830242156982421875">
        <ele>1966.5999755859375</ele>
        <time>2021-06-28T17:16:56.000Z</time>
        <extensions>
          <ns3:TrackPointExtension>
            <ns3:atemp>33.0</ns3:atemp>
            <ns3:hr>99</ns3:hr>
          </ns3:TrackPointExtension>
        </extensions>
      </trkpt>
      <trkpt lat="36.82450580410659313201904296875" lon="-118.545846976339817047119140625">
        <ele>1966.199951171875</ele>
        <time>2021-06-28T17:16:59.000Z</time>
        <extensions>
          <ns3:TrackPointExtension>
            <ns3:atemp>33.0</ns3:atemp>
            <ns3:hr>97</ns3:hr>
          </ns3:TrackPointExtension>
        </extensions>
      </trkpt>
      <trkpt lat="36.82450580410659313201904296875" lon="-118.545846976339817047119140625">
        <ele>1966</ele>
        <time>2021-06-28T17:17:00.000Z</time>
        <extensions>
          <ns3:TrackPointExtension>
            <ns3:atemp>33.0</ns3:atemp>
            <ns3:hr>100</ns3:hr>
          </ns3:TrackPointExtension>
        </extensions>
      </trkpt>
      <trkpt lat="36.8244815804064273834228515625" lon="-118.54584999382495880126953125">
        <ele>1966</ele>
        <time>2021-06-28T17:17:01.000Z</time>
        <extensions>
          <ns3:TrackPointExtension>
            <ns3:atemp>33.0</ns3:atemp>
            <ns3:hr>97</ns3:hr>
          </ns3:TrackPointExtension>
        </extensions>
      </trkpt>
      <trkpt lat="36.82444696314632892608642578125" lon="-118.54584940709173679351806640625">
        <ele>1966</ele>
        <time>2021-06-28T17:17:03.000Z</time>
        <extensions>
          <ns3:TrackPointExtension>
            <ns3:atemp>33.0</ns3:atemp>
            <ns3:hr>97</ns3:hr>
          </ns3:TrackPointExtension>
        </extensions>
      </trkpt>
      <trkpt lat="36.82443179190158843994140625" lon="-118.54583431966602802276611328125">
        <ele>1966.4000244140625</ele>
        <time>2021-06-28T17:17:07.000Z</time>
        <extensions>
          <ns3:TrackPointExtension>
            <ns3:atemp>33.0</ns3:atemp>
            <ns3:hr>94</ns3:hr>
          </ns3:TrackPointExtension>
        </extensions>
      </trkpt>
      <trkpt lat="36.824415363371372222900390625" lon="-118.54581101797521114349365234375">
        <ele>1966.5999755859375</ele>
        <time>2021-06-28T17:17:08.000Z</time>
        <extensions>
          <ns3:TrackPointExtension>
            <ns3:atemp>33.0</ns3:atemp>
            <ns3:hr>94</ns3:hr>
          </ns3:TrackPointExtension>
        </extensions>
      </trkpt>
      <trkpt lat="36.82434470392763614654541015625" lon="-118.54578922502696514129638671875">
        <ele>1967.5999755859375</ele>
        <time>2021-06-28T17:17:15.000Z</time>
        <extensions>
          <ns3:TrackPointExtension>
            <ns3:atemp>33.0</ns3:atemp>
            <ns3:hr>96</ns3:hr>
          </ns3:TrackPointExtension>
        </extensions>
      </trkpt>
      <trkpt lat="36.82433523237705230712890625" lon="-118.5457901470363140106201171875">
        <ele>1967.800048828125</ele>
        <time>2021-06-28T17:17:16.000Z</time>
        <extensions>
          <ns3:TrackPointExtension>
            <ns3:atemp>33.0</ns3:atemp>
            <ns3:hr>96</ns3:hr>
          </ns3:TrackPointExtension>
        </extensions>
      </trkpt>
      <trkpt lat="36.824274547398090362548828125" lon="-118.5457931645214557647705078125">
        <ele>1967.5999755859375</ele>
        <time>2021-06-28T17:17:21.000Z</time>
        <extensions>
          <ns3:TrackPointExtension>
            <ns3:atemp>33.0</ns3:atemp>
            <ns3:hr>99</ns3:hr>
          </ns3:TrackPointExtension>
        </extensions>
      </trkpt>
      <trkpt lat="36.82426356710493564605712890625" lon="-118.5457867942750453948974609375">
        <ele>1967.4000244140625</ele>
        <time>2021-06-28T17:17:22.000Z</time>
        <extensions>
          <ns3:TrackPointExtension>
            <ns3:atemp>33.0</ns3:atemp>
            <ns3:hr>98</ns3:hr>
          </ns3:TrackPointExtension>
        </extensions>
      </trkpt>
      <trkpt lat="36.82417974807322025299072265625" lon="-118.54576550424098968505859375">
        <ele>1967</ele>
        <time>2021-06-28T17:17:27.000Z</time>
        <extensions>
          <ns3:TrackPointExtension>
            <ns3:atemp>33.0</ns3:atemp>
            <ns3:hr>101</ns3:hr>
          </ns3:TrackPointExtension>
        </extensions>
      </trkpt>
      <trkpt lat="36.824169941246509552001953125" lon="-118.54577095247805118560791015625">
        <ele>1966.800048828125</ele>
        <time>2021-06-28T17:17:28.000Z</time>
        <extensions>
          <ns3:TrackPointExtension>
            <ns3:atemp>33.0</ns3:atemp>
            <ns3:hr>102</ns3:hr>
          </ns3:TrackPointExtension>
        </extensions>
      </trkpt>
      <trkpt lat="36.824169941246509552001953125" lon="-118.54577095247805118560791015625">
        <ele>1966.800048828125</ele>
        <time>2021-06-28T17:17:29.000Z</time>
        <extensions>
          <ns3:TrackPointExtension>
            <ns3:atemp>33.0</ns3:atemp>
            <ns3:hr>102</ns3:hr>
          </ns3:TrackPointExtension>
        </extensions>
      </trkpt>
      <trkpt lat="36.82414613664150238037109375" lon="-118.5457807593047618865966796875">
        <ele>1966.5999755859375</ele>
        <time>2021-06-28T17:17:30.000Z</time>
        <extensions>
          <ns3:TrackPointExtension>
            <ns3:atemp>33.0</ns3:atemp>
            <ns3:hr>102</ns3:hr>
          </ns3:TrackPointExtension>
        </extensions>
      </trkpt>
      <trkpt lat="36.82410464622080326080322265625" lon="-118.54579023085534572601318359375">
        <ele>1966.4000244140625</ele>
        <time>2021-06-28T17:17:35.000Z</time>
        <extensions>
          <ns3:TrackPointExtension>
            <ns3:atemp>33.0</ns3:atemp>
            <ns3:hr>99</ns3:hr>
          </ns3:TrackPointExtension>
        </extensions>
      </trkpt>
      <trkpt lat="36.8240601383149623870849609375" lon="-118.54576592333614826202392578125">
        <ele>1966.5999755859375</ele>
        <time>2021-06-28T17:17:39.000Z</time>
        <extensions>
          <ns3:TrackPointExtension>
            <ns3:atemp>33.0</ns3:atemp>
            <ns3:hr>96</ns3:hr>
          </ns3:TrackPointExtension>
        </extensions>
      </trkpt>
      <trkpt lat="36.82402803562581539154052734375" lon="-118.5457613132894039154052734375">
        <ele>1966.5999755859375</ele>
        <time>2021-06-28T17:17:41.000Z</time>
        <extensions>
          <ns3:TrackPointExtension>
            <ns3:atemp>33.0</ns3:atemp>
            <ns3:hr>94</ns3:hr>
          </ns3:TrackPointExtension>
        </extensions>
      </trkpt>
      <trkpt lat="36.8239887244999408721923828125" lon="-118.5457650013267993927001953125">
        <ele>1966</ele>
        <time>2021-06-28T17:17:46.000Z</time>
        <extensions>
          <ns3:TrackPointExtension>
            <ns3:atemp>33.0</ns3:atemp>
            <ns3:hr>91</ns3:hr>
          </ns3:TrackPointExtension>
        </extensions>
      </trkpt>
      <trkpt lat="36.8239813484251499176025390625" lon="-118.5457730479538440704345703125">
        <ele>1966</ele>
        <time>2021-06-28T17:17:47.000Z</time>
        <extensions>
          <ns3:TrackPointExtension>
            <ns3:atemp>33.0</ns3:atemp>
            <ns3:hr>94</ns3:hr>
          </ns3:TrackPointExtension>
        </extensions>
      </trkpt>
      <trkpt lat="36.82397740893065929412841796875" lon="-118.54578536935150623321533203125">
        <ele>1966</ele>
        <time>2021-06-28T17:17:48.000Z</time>
        <extensions>
          <ns3:TrackPointExtension>
            <ns3:atemp>33.0</ns3:atemp>
            <ns3:hr>94</ns3:hr>
          </ns3:TrackPointExtension>
        </extensions>
      </trkpt>
      <trkpt lat="36.82394203729927539825439453125" lon="-118.545839600265026092529296875">
        <ele>1966</ele>
        <time>2021-06-28T17:17:52.000Z</time>
        <extensions>
          <ns3:TrackPointExtension>
            <ns3:atemp>33.0</ns3:atemp>
            <ns3:hr>94</ns3:hr>
          </ns3:TrackPointExtension>
        </extensions>
      </trkpt>
      <trkpt lat="36.823908425867557525634765625" lon="-118.54585192166268825531005859375">
        <ele>1965.800048828125</ele>
        <time>2021-06-28T17:17:55.000Z</time>
        <extensions>
          <ns3:TrackPointExtension>
            <ns3:atemp>33.0</ns3:atemp>
            <ns3:hr>93</ns3:hr>
          </ns3:TrackPointExtension>
        </extensions>
      </trkpt>
      <trkpt lat="36.823885627090930938720703125" lon="-118.545868434011936187744140625">
        <ele>1965.4000244140625</ele>
        <time>2021-06-28T17:17:57.000Z</time>
        <extensions>
          <ns3:TrackPointExtension>
            <ns3:atemp>33.0</ns3:atemp>
            <ns3:hr>93</ns3:hr>
          </ns3:TrackPointExtension>
        </extensions>
      </trkpt>
      <trkpt lat="36.823860816657543182373046875" lon="-118.5458783246576786041259765625">
        <ele>1965.199951171875</ele>
        <time>2021-06-28T17:18:00.000Z</time>
        <extensions>
          <ns3:TrackPointExtension>
            <ns3:atemp>33.0</ns3:atemp>
            <ns3:hr>93</ns3:hr>
          </ns3:TrackPointExtension>
        </extensions>
      </trkpt>
      <trkpt lat="36.8237986229360103607177734375" lon="-118.5459329746663570404052734375">
        <ele>1965.4000244140625</ele>
        <time>2021-06-28T17:18:07.000Z</time>
        <extensions>
          <ns3:TrackPointExtension>
            <ns3:atemp>33.0</ns3:atemp>
            <ns3:hr>92</ns3:hr>
          </ns3:TrackPointExtension>
        </extensions>
      </trkpt>
      <trkpt lat="36.82373332791030406951904296875" lon="-118.54596256278455257415771484375">
        <ele>1965</ele>
        <time>2021-06-28T17:18:13.000Z</time>
        <extensions>
          <ns3:TrackPointExtension>
            <ns3:atemp>33.0</ns3:atemp>
            <ns3:hr>89</ns3:hr>
          </ns3:TrackPointExtension>
        </extensions>
      </trkpt>
      <trkpt lat="36.82372025214135646820068359375" lon="-118.54596273042261600494384765625">
        <ele>1964.5999755859375</ele>
        <time>2021-06-28T17:18:14.000Z</time>
        <extensions>
          <ns3:TrackPointExtension>
            <ns3:atemp>33.0</ns3:atemp>
            <ns3:hr>89</ns3:hr>
          </ns3:TrackPointExtension>
        </extensions>
      </trkpt>
      <trkpt lat="36.82365126907825469970703125" lon="-118.54600044898688793182373046875">
        <ele>1964.4000244140625</ele>
        <time>2021-06-28T17:18:20.000Z</time>
        <extensions>
          <ns3:TrackPointExtension>
            <ns3:atemp>33.0</ns3:atemp>
            <ns3:hr>87</ns3:hr>
          </ns3:TrackPointExtension>
        </extensions>
      </trkpt>
      <trkpt lat="36.8236088566482067108154296875" lon="-118.5459960065782070159912109375">
        <ele>1964.199951171875</ele>
        <time>2021-06-28T17:18:24.000Z</time>
        <extensions>
          <ns3:TrackPointExtension>
            <ns3:atemp>33.0</ns3:atemp>
            <ns3:hr>87</ns3:hr>
          </ns3:TrackPointExtension>
        </extensions>
      </trkpt>
      <trkpt lat="36.823573820292949676513671875" lon="-118.54599474929273128509521484375">
        <ele>1963.4000244140625</ele>
        <time>2021-06-28T17:18:27.000Z</time>
        <extensions>
          <ns3:TrackPointExtension>
            <ns3:atemp>33.0</ns3:atemp>
            <ns3:hr>88</ns3:hr>
          </ns3:TrackPointExtension>
        </extensions>
      </trkpt>
      <trkpt lat="36.82356418110430240631103515625" lon="-118.54599927552044391632080078125">
        <ele>1963.4000244140625</ele>
        <time>2021-06-28T17:18:28.000Z</time>
        <extensions>
          <ns3:TrackPointExtension>
            <ns3:atemp>33.0</ns3:atemp>
            <ns3:hr>87</ns3:hr>
          </ns3:TrackPointExtension>
        </extensions>
      </trkpt>
      <trkpt lat="36.823548339307308197021484375" lon="-118.54602257721126079559326171875">
        <ele>1963.4000244140625</ele>
        <time>2021-06-28T17:18:30.000Z</time>
        <extensions>
          <ns3:TrackPointExtension>
            <ns3:atemp>33.0</ns3:atemp>
            <ns3:hr>86</ns3:hr>
          </ns3:TrackPointExtension>
        </extensions>
      </trkpt>
      <trkpt lat="36.82351975701749324798583984375" lon="-118.54608175344765186309814453125">
        <ele>1962.5999755859375</ele>
        <time>2021-06-28T17:18:34.000Z</time>
        <extensions>
          <ns3:TrackPointExtension>
            <ns3:atemp>33.0</ns3:atemp>
            <ns3:hr>87</ns3:hr>
          </ns3:TrackPointExtension>
        </extensions>
      </trkpt>
      <trkpt lat="36.82349259965121746063232421875" lon="-118.54609466157853603363037109375">
        <ele>1962.4000244140625</ele>
        <time>2021-06-28T17:18:37.000Z</time>
        <extensions>
          <ns3:TrackPointExtension>
            <ns3:atemp>33.0</ns3:atemp>
            <ns3:hr>88</ns3:hr>
          </ns3:TrackPointExtension>
        </extensions>
      </trkpt>
      <trkpt lat="36.8234482593834400177001953125" lon="-118.546152412891387939453125">
        <ele>1962.4000244140625</ele>
        <time>2021-06-28T17:18:45.000Z</time>
        <extensions>
          <ns3:TrackPointExtension>
            <ns3:atemp>33.0</ns3:atemp>
            <ns3:hr>87</ns3:hr>
          </ns3:TrackPointExtension>
        </extensions>
      </trkpt>
      <trkpt lat="36.8234331719577312469482421875" lon="-118.54617931880056858062744140625">
        <ele>1962</ele>
        <time>2021-06-28T17:18:47.000Z</time>
        <extensions>
          <ns3:TrackPointExtension>
            <ns3:atemp>33.0</ns3:atemp>
            <ns3:hr>87</ns3:hr>
          </ns3:TrackPointExtension>
        </extensions>
      </trkpt>
      <trkpt lat="36.82339436374604701995849609375" lon="-118.54623849503695964813232421875">
        <ele>1961.800048828125</ele>
        <time>2021-06-28T17:18:52.000Z</time>
        <extensions>
          <ns3:TrackPointExtension>
            <ns3:atemp>33.0</ns3:atemp>
            <ns3:hr>85</ns3:hr>
          </ns3:TrackPointExtension>
        </extensions>
      </trkpt>
      <trkpt lat="36.82337793521583080291748046875" lon="-118.5462528280913829803466796875">
        <ele>1961.4000244140625</ele>
        <time>2021-06-28T17:18:54.000Z</time>
        <extensions>
          <ns3:TrackPointExtension>
            <ns3:atemp>33.0</ns3:atemp>
            <ns3:hr>85</ns3:hr>
          </ns3:TrackPointExtension>
        </extensions>
      </trkpt>
      <trkpt lat="36.8233677931129932403564453125" lon="-118.54625827632844448089599609375">
        <ele>1961.199951171875</ele>
        <time>2021-06-28T17:18:56.000Z</time>
        <extensions>
          <ns3:TrackPointExtension>
            <ns3:atemp>33.0</ns3:atemp>
            <ns3:hr>88</ns3:hr>
          </ns3:TrackPointExtension>
        </extensions>
      </trkpt>
      <trkpt lat="36.82335220277309417724609375" lon="-118.54627068154513835906982421875">
        <ele>1961.199951171875</ele>
        <time>2021-06-28T17:18:57.000Z</time>
        <extensions>
          <ns3:TrackPointExtension>
            <ns3:atemp>33.0</ns3:atemp>
            <ns3:hr>90</ns3:hr>
          </ns3:TrackPointExtension>
        </extensions>
      </trkpt>
      <trkpt lat="36.8233392946422100067138671875" lon="-118.5462779738008975982666015625">
        <ele>1961.4000244140625</ele>
        <time>2021-06-28T17:18:59.000Z</time>
        <extensions>
          <ns3:TrackPointExtension>
            <ns3:atemp>33.0</ns3:atemp>
            <ns3:hr>94</ns3:hr>
          </ns3:TrackPointExtension>
        </extensions>
      </trkpt>
      <trkpt lat="36.82333066128194332122802734375" lon="-118.5462826676666736602783203125">
        <ele>1961.5999755859375</ele>
        <time>2021-06-28T17:19:00.000Z</time>
        <extensions>
          <ns3:TrackPointExtension>
            <ns3:atemp>33.0</ns3:atemp>
            <ns3:hr>97</ns3:hr>
          </ns3:TrackPointExtension>
        </extensions>
      </trkpt>
      <trkpt lat="36.82333066128194332122802734375" lon="-118.5462826676666736602783203125">
        <ele>1961.5999755859375</ele>
        <time>2021-06-28T17:19:01.000Z</time>
        <extensions>
          <ns3:TrackPointExtension>
            <ns3:atemp>33.0</ns3:atemp>
            <ns3:hr>97</ns3:hr>
          </ns3:TrackPointExtension>
        </extensions>
      </trkpt>
      <trkpt lat="36.82329830713570117950439453125" lon="-118.5463004373013973236083984375">
        <ele>1961.5999755859375</ele>
        <time>2021-06-28T17:19:04.000Z</time>
        <extensions>
          <ns3:TrackPointExtension>
            <ns3:atemp>33.0</ns3:atemp>
            <ns3:hr>100</ns3:hr>
          </ns3:TrackPointExtension>
        </extensions>
      </trkpt>
      <trkpt lat="36.82327978312969207763671875" lon="-118.54631979949772357940673828125">
        <ele>1961.4000244140625</ele>
        <time>2021-06-28T17:19:07.000Z</time>
        <extensions>
          <ns3:TrackPointExtension>
            <ns3:atemp>33.0</ns3:atemp>
            <ns3:hr>103</ns3:hr>
          </ns3:TrackPointExtension>
        </extensions>
      </trkpt>
      <trkpt lat="36.823270060122013092041015625" lon="-118.5463430173695087432861328125">
        <ele>1961.4000244140625</ele>
        <time>2021-06-28T17:19:08.000Z</time>
        <extensions>
          <ns3:TrackPointExtension>
            <ns3:atemp>33.0</ns3:atemp>
            <ns3:hr>103</ns3:hr>
          </ns3:TrackPointExtension>
        </extensions>
      </trkpt>
      <trkpt lat="36.82325606234371662139892578125" lon="-118.54635584168136119842529296875">
        <ele>1961.5999755859375</ele>
        <time>2021-06-28T17:19:10.000Z</time>
        <extensions>
          <ns3:TrackPointExtension>
            <ns3:atemp>33.0</ns3:atemp>
            <ns3:hr>105</ns3:hr>
          </ns3:TrackPointExtension>
        </extensions>
      </trkpt>
      <trkpt lat="36.82324902154505252838134765625" lon="-118.546351902186870574951171875">
        <ele>1961.5999755859375</ele>
        <time>2021-06-28T17:19:11.000Z</time>
        <extensions>
          <ns3:TrackPointExtension>
            <ns3:atemp>33.0</ns3:atemp>
            <ns3:hr>106</ns3:hr>
          </ns3:TrackPointExtension>
        </extensions>
      </trkpt>
      <trkpt lat="36.82322672568261623382568359375" lon="-118.54633723385632038116455078125">
        <ele>1962</ele>
        <time>2021-06-28T17:19:13.000Z</time>
        <extensions>
          <ns3:TrackPointExtension>
            <ns3:atemp>33.0</ns3:atemp>
            <ns3:hr>106</ns3:hr>
          </ns3:TrackPointExtension>
        </extensions>
      </trkpt>
      <trkpt lat="36.82320996187627315521240234375" lon="-118.54635148309171199798583984375">
        <ele>1962</ele>
        <time>2021-06-28T17:19:16.000Z</time>
        <extensions>
          <ns3:TrackPointExtension>
            <ns3:atemp>33.0</ns3:atemp>
            <ns3:hr>104</ns3:hr>
          </ns3:TrackPointExtension>
        </extensions>
      </trkpt>
      <trkpt lat="36.823197640478610992431640625" lon="-118.5463763773441314697265625">
        <ele>1962</ele>
        <time>2021-06-28T17:19:17.000Z</time>
        <extensions>
          <ns3:TrackPointExtension>
            <ns3:atemp>33.0</ns3:atemp>
            <ns3:hr>103</ns3:hr>
          </ns3:TrackPointExtension>
        </extensions>
      </trkpt>
      <trkpt lat="36.82318062521517276763916015625" lon="-118.54639909230172634124755859375">
        <ele>1962.4000244140625</ele>
        <time>2021-06-28T17:19:19.000Z</time>
        <extensions>
          <ns3:TrackPointExtension>
            <ns3:atemp>33.0</ns3:atemp>
            <ns3:hr>100</ns3:hr>
          </ns3:TrackPointExtension>
        </extensions>
      </trkpt>
      <trkpt lat="36.8231713213026523590087890625" lon="-118.54640613310039043426513671875">
        <ele>1962.4000244140625</ele>
        <time>2021-06-28T17:19:20.000Z</time>
        <extensions>
          <ns3:TrackPointExtension>
            <ns3:atemp>33.0</ns3:atemp>
            <ns3:hr>98</ns3:hr>
          </ns3:TrackPointExtension>
        </extensions>
      </trkpt>
      <trkpt lat="36.82315799407660961151123046875" lon="-118.5464191250503063201904296875">
        <ele>1962.4000244140625</ele>
        <time>2021-06-28T17:19:22.000Z</time>
        <extensions>
          <ns3:TrackPointExtension>
            <ns3:atemp>33.0</ns3:atemp>
            <ns3:hr>96</ns3:hr>
          </ns3:TrackPointExtension>
        </extensions>
      </trkpt>
      <trkpt lat="36.82312044315040111541748046875" lon="-118.54645826853811740875244140625">
        <ele>1962.199951171875</ele>
        <time>2021-06-28T17:19:27.000Z</time>
        <extensions>
          <ns3:TrackPointExtension>
            <ns3:atemp>33.0</ns3:atemp>
            <ns3:hr>98</ns3:hr>
          </ns3:TrackPointExtension>
        </extensions>
      </trkpt>
      <trkpt lat="36.82308129966259002685546875" lon="-118.54647587053477764129638671875">
        <ele>1963</ele>
        <time>2021-06-28T17:19:30.000Z</time>
        <extensions>
          <ns3:TrackPointExtension>
            <ns3:atemp>33.0</ns3:atemp>
            <ns3:hr>98</ns3:hr>
          </ns3:TrackPointExtension>
        </extensions>
      </trkpt>
      <trkpt lat="36.8230392225086688995361328125" lon="-118.5464568436145782470703125">
        <ele>1963.199951171875</ele>
        <time>2021-06-28T17:19:32.000Z</time>
        <extensions>
          <ns3:TrackPointExtension>
            <ns3:atemp>33.0</ns3:atemp>
            <ns3:hr>96</ns3:hr>
          </ns3:TrackPointExtension>
        </extensions>
      </trkpt>
      <trkpt lat="36.8230150826275348663330078125" lon="-118.54645675979554653167724609375">
        <ele>1963.5999755859375</ele>
        <time>2021-06-28T17:19:34.000Z</time>
        <extensions>
          <ns3:TrackPointExtension>
            <ns3:atemp>33.0</ns3:atemp>
            <ns3:hr>96</ns3:hr>
          </ns3:TrackPointExtension>
        </extensions>
      </trkpt>
      <trkpt lat="36.8230100534856319427490234375" lon="-118.54646111838519573211669921875">
        <ele>1963.5999755859375</ele>
        <time>2021-06-28T17:19:35.000Z</time>
        <extensions>
          <ns3:TrackPointExtension>
            <ns3:atemp>33.0</ns3:atemp>
            <ns3:hr>101</ns3:hr>
          </ns3:TrackPointExtension>
        </extensions>
      </trkpt>
      <trkpt lat="36.823004521429538726806640625" lon="-118.54646497406065464019775390625">
        <ele>1963.800048828125</ele>
        <time>2021-06-28T17:19:37.000Z</time>
        <extensions>
          <ns3:TrackPointExtension>
            <ns3:atemp>33.0</ns3:atemp>
            <ns3:hr>100</ns3:hr>
          </ns3:TrackPointExtension>
        </extensions>
      </trkpt>
      <trkpt lat="36.82298532687127590179443359375" lon="-118.54647360742092132568359375">
        <ele>1964</ele>
        <time>2021-06-28T17:19:39.000Z</time>
        <extensions>
          <ns3:TrackPointExtension>
            <ns3:atemp>33.0</ns3:atemp>
            <ns3:hr>102</ns3:hr>
          </ns3:TrackPointExtension>
        </extensions>
      </trkpt>
      <trkpt lat="36.82297761552035808563232421875" lon="-118.54648299515247344970703125">
        <ele>1964</ele>
        <time>2021-06-28T17:19:41.000Z</time>
        <extensions>
          <ns3:TrackPointExtension>
            <ns3:atemp>33.0</ns3:atemp>
            <ns3:hr>103</ns3:hr>
          </ns3:TrackPointExtension>
        </extensions>
      </trkpt>
      <trkpt lat="36.82297945953905582427978515625" lon="-118.54650453664362430572509765625">
        <ele>1964</ele>
        <time>2021-06-28T17:19:46.000Z</time>
        <extensions>
          <ns3:TrackPointExtension>
            <ns3:atemp>33.0</ns3:atemp>
            <ns3:hr>106</ns3:hr>
          </ns3:TrackPointExtension>
        </extensions>
      </trkpt>
      <trkpt lat="36.8229731731116771697998046875" lon="-118.546503446996212005615234375">
        <ele>1964</ele>
        <time>2021-06-28T17:19:47.000Z</time>
        <extensions>
          <ns3:TrackPointExtension>
            <ns3:atemp>33.0</ns3:atemp>
            <ns3:hr>106</ns3:hr>
          </ns3:TrackPointExtension>
        </extensions>
      </trkpt>
      <trkpt lat="36.82292028330266475677490234375" lon="-118.54651358909904956817626953125">
        <ele>1964.199951171875</ele>
        <time>2021-06-28T17:19:52.000Z</time>
        <extensions>
          <ns3:TrackPointExtension>
            <ns3:atemp>33.0</ns3:atemp>
            <ns3:hr>103</ns3:hr>
          </ns3:TrackPointExtension>
        </extensions>
      </trkpt>
      <trkpt lat="36.82291273958981037139892578125" lon="-118.54651811532676219940185546875">
        <ele>1964.199951171875</ele>
        <time>2021-06-28T17:19:53.000Z</time>
        <extensions>
          <ns3:TrackPointExtension>
            <ns3:atemp>33.0</ns3:atemp>
            <ns3:hr>105</ns3:hr>
          </ns3:TrackPointExtension>
        </extensions>
      </trkpt>
      <trkpt lat="36.82288809679448604583740234375" lon="-118.5465220548212528228759765625">
        <ele>1964.199951171875</ele>
        <time>2021-06-28T17:19:56.000Z</time>
        <extensions>
          <ns3:TrackPointExtension>
            <ns3:atemp>33.0</ns3:atemp>
            <ns3:hr>108</ns3:hr>
          </ns3:TrackPointExtension>
        </extensions>
      </trkpt>
      <trkpt lat="36.822875440120697021484375" lon="-118.54652314446866512298583984375">
        <ele>1964</ele>
        <time>2021-06-28T17:20:00.000Z</time>
        <extensions>
          <ns3:TrackPointExtension>
            <ns3:atemp>33.0</ns3:atemp>
            <ns3:hr>111</ns3:hr>
          </ns3:TrackPointExtension>
        </extensions>
      </trkpt>
      <trkpt lat="36.8228714168071746826171875" lon="-118.54652599431574344635009765625">
        <ele>1964.199951171875</ele>
        <time>2021-06-28T17:20:01.000Z</time>
        <extensions>
          <ns3:TrackPointExtension>
            <ns3:atemp>33.0</ns3:atemp>
            <ns3:hr>110</ns3:hr>
          </ns3:TrackPointExtension>
        </extensions>
      </trkpt>
      <trkpt lat="36.822868399322032928466796875" lon="-118.54652700014412403106689453125">
        <ele>1964</ele>
        <time>2021-06-28T17:20:04.000Z</time>
        <extensions>
          <ns3:TrackPointExtension>
            <ns3:atemp>33.0</ns3:atemp>
            <ns3:hr>107</ns3:hr>
          </ns3:TrackPointExtension>
        </extensions>
      </trkpt>
      <trkpt lat="36.82284258306026458740234375" lon="-118.54654200375080108642578125">
        <ele>1963.800048828125</ele>
        <time>2021-06-28T17:20:09.000Z</time>
        <extensions>
          <ns3:TrackPointExtension>
            <ns3:atemp>33.0</ns3:atemp>
            <ns3:hr>104</ns3:hr>
          </ns3:TrackPointExtension>
        </extensions>
      </trkpt>
      <trkpt lat="36.82283453643321990966796875" lon="-118.54655935429036617279052734375">
        <ele>1963.800048828125</ele>
        <time>2021-06-28T17:20:12.000Z</time>
        <extensions>
          <ns3:TrackPointExtension>
            <ns3:atemp>33.0</ns3:atemp>
            <ns3:hr>103</ns3:hr>
          </ns3:TrackPointExtension>
        </extensions>
      </trkpt>
      <trkpt lat="36.822767816483974456787109375" lon="-118.5465666465461254119873046875">
        <ele>1964.199951171875</ele>
        <time>2021-06-28T17:20:18.000Z</time>
        <extensions>
          <ns3:TrackPointExtension>
            <ns3:atemp>33.0</ns3:atemp>
            <ns3:hr>101</ns3:hr>
          </ns3:TrackPointExtension>
        </extensions>
      </trkpt>
      <trkpt lat="36.82269833050668239593505859375" lon="-118.54662515223026275634765625">
        <ele>1964.199951171875</ele>
        <time>2021-06-28T17:20:26.000Z</time>
        <extensions>
          <ns3:TrackPointExtension>
            <ns3:atemp>33.0</ns3:atemp>
            <ns3:hr>99</ns3:hr>
          </ns3:TrackPointExtension>
        </extensions>
      </trkpt>
      <trkpt lat="36.8226704187691211700439453125" lon="-118.546636886894702911376953125">
        <ele>1964.4000244140625</ele>
        <time>2021-06-28T17:20:30.000Z</time>
        <extensions>
          <ns3:TrackPointExtension>
            <ns3:atemp>33.0</ns3:atemp>
            <ns3:hr>96</ns3:hr>
          </ns3:TrackPointExtension>
        </extensions>
      </trkpt>
      <trkpt lat="36.82261300273239612579345703125" lon="-118.54666798375546932220458984375">
        <ele>1964</ele>
        <time>2021-06-28T17:20:34.000Z</time>
        <extensions>
          <ns3:TrackPointExtension>
            <ns3:atemp>33.0</ns3:atemp>
            <ns3:hr>95</ns3:hr>
          </ns3:TrackPointExtension>
        </extensions>
      </trkpt>
      <trkpt lat="36.82260260917246341705322265625" lon="-118.5467062890529632568359375">
        <ele>1964</ele>
        <time>2021-06-28T17:20:36.000Z</time>
        <extensions>
          <ns3:TrackPointExtension>
            <ns3:atemp>33.0</ns3:atemp>
            <ns3:hr>95</ns3:hr>
          </ns3:TrackPointExtension>
        </extensions>
      </trkpt>
      <trkpt lat="36.82258651591837406158447265625" lon="-118.54680192656815052032470703125">
        <ele>1963.800048828125</ele>
        <time>2021-06-28T17:20:42.000Z</time>
        <extensions>
          <ns3:TrackPointExtension>
            <ns3:atemp>34.0</ns3:atemp>
            <ns3:hr>93</ns3:hr>
          </ns3:TrackPointExtension>
        </extensions>
      </trkpt>
      <trkpt lat="36.82258266024291515350341796875" lon="-118.54683327488601207733154296875">
        <ele>1963.800048828125</ele>
        <time>2021-06-28T17:20:45.000Z</time>
        <extensions>
          <ns3:TrackPointExtension>
            <ns3:atemp>34.0</ns3:atemp>
            <ns3:hr>89</ns3:hr>
          </ns3:TrackPointExtension>
        </extensions>
      </trkpt>
      <trkpt lat="36.822557263076305389404296875" lon="-118.54685171507298946380615234375">
        <ele>1963.4000244140625</ele>
        <time>2021-06-28T17:20:48.000Z</time>
        <extensions>
          <ns3:TrackPointExtension>
            <ns3:atemp>34.0</ns3:atemp>
            <ns3:hr>87</ns3:hr>
          </ns3:TrackPointExtension>
        </extensions>
      </trkpt>
      <trkpt lat="36.82254745624959468841552734375" lon="-118.54685607366263866424560546875">
        <ele>1963.4000244140625</ele>
        <time>2021-06-28T17:20:49.000Z</time>
        <extensions>
          <ns3:TrackPointExtension>
            <ns3:atemp>34.0</ns3:atemp>
            <ns3:hr>87</ns3:hr>
          </ns3:TrackPointExtension>
        </extensions>
      </trkpt>
      <trkpt lat="36.82250906713306903839111328125" lon="-118.54685984551906585693359375">
        <ele>1963.4000244140625</ele>
        <time>2021-06-28T17:20:54.000Z</time>
        <extensions>
          <ns3:TrackPointExtension>
            <ns3:atemp>33.0</ns3:atemp>
            <ns3:hr>88</ns3:hr>
          </ns3:TrackPointExtension>
        </extensions>
      </trkpt>
      <trkpt lat="36.8224876932799816131591796875" lon="-118.5468499548733234405517578125">
        <ele>1963.4000244140625</ele>
        <time>2021-06-28T17:20:56.000Z</time>
        <extensions>
          <ns3:TrackPointExtension>
            <ns3:atemp>33.0</ns3:atemp>
            <ns3:hr>89</ns3:hr>
          </ns3:TrackPointExtension>
        </extensions>
      </trkpt>
      <trkpt lat="36.8224876932799816131591796875" lon="-118.5468499548733234405517578125">
        <ele>1963.4000244140625</ele>
        <time>2021-06-28T17:20:57.000Z</time>
        <extensions>
          <ns3:TrackPointExtension>
            <ns3:atemp>33.0</ns3:atemp>
            <ns3:hr>89</ns3:hr>
          </ns3:TrackPointExtension>
        </extensions>
      </trkpt>
      <trkpt lat="36.8224451132118701934814453125" lon="-118.54686579667031764984130859375">
        <ele>1963.5999755859375</ele>
        <time>2021-06-28T17:21:03.000Z</time>
        <extensions>
          <ns3:TrackPointExtension>
            <ns3:atemp>33.0</ns3:atemp>
            <ns3:hr>90</ns3:hr>
          </ns3:TrackPointExtension>
        </extensions>
      </trkpt>
      <trkpt lat="36.82244360446929931640625" lon="-118.5468717478215694427490234375">
        <ele>1963.5999755859375</ele>
        <time>2021-06-28T17:21:05.000Z</time>
        <extensions>
          <ns3:TrackPointExtension>
            <ns3:atemp>33.0</ns3:atemp>
            <ns3:hr>91</ns3:hr>
          </ns3:TrackPointExtension>
        </extensions>
      </trkpt>
      <trkpt lat="36.82243354618549346923828125" lon="-118.5468752682209014892578125">
        <ele>1963.5999755859375</ele>
        <time>2021-06-28T17:21:07.000Z</time>
        <extensions>
          <ns3:TrackPointExtension>
            <ns3:atemp>33.0</ns3:atemp>
            <ns3:hr>92</ns3:hr>
          </ns3:TrackPointExtension>
        </extensions>
      </trkpt>
      <trkpt lat="36.82242910377681255340576171875" lon="-118.54687753133475780487060546875">
        <ele>1963.5999755859375</ele>
        <time>2021-06-28T17:21:10.000Z</time>
        <extensions>
          <ns3:TrackPointExtension>
            <ns3:atemp>33.0</ns3:atemp>
            <ns3:hr>95</ns3:hr>
          </ns3:TrackPointExtension>
        </extensions>
      </trkpt>
      <trkpt lat="36.82241602800786495208740234375" lon="-118.54688038118183612823486328125">
        <ele>1963.800048828125</ele>
        <time>2021-06-28T17:21:12.000Z</time>
        <extensions>
          <ns3:TrackPointExtension>
            <ns3:atemp>33.0</ns3:atemp>
            <ns3:hr>95</ns3:hr>
          </ns3:TrackPointExtension>
        </extensions>
      </trkpt>
      <trkpt lat="36.822329275310039520263671875" lon="-118.546772003173828125">
        <ele>1963.800048828125</ele>
        <time>2021-06-28T17:21:25.000Z</time>
        <extensions>
          <ns3:TrackPointExtension>
            <ns3:atemp>34.0</ns3:atemp>
            <ns3:hr>93</ns3:hr>
          </ns3:TrackPointExtension>
        </extensions>
      </trkpt>
      <trkpt lat="36.8223415128886699676513671875" lon="-118.546790778636932373046875">
        <ele>1963.800048828125</ele>
        <time>2021-06-28T17:21:29.000Z</time>
        <extensions>
          <ns3:TrackPointExtension>
            <ns3:atemp>34.0</ns3:atemp>
            <ns3:hr>90</ns3:hr>
          </ns3:TrackPointExtension>
        </extensions>
      </trkpt>
      <trkpt lat="36.8223428539931774139404296875" lon="-118.54679790325462818145751953125">
        <ele>1963.800048828125</ele>
        <time>2021-06-28T17:21:34.000Z</time>
        <extensions>
          <ns3:TrackPointExtension>
            <ns3:atemp>34.0</ns3:atemp>
            <ns3:hr>87</ns3:hr>
          </ns3:TrackPointExtension>
        </extensions>
      </trkpt>
      <trkpt lat="36.8223428539931774139404296875" lon="-118.54679790325462818145751953125">
        <ele>1963.800048828125</ele>
        <time>2021-06-28T17:21:35.000Z</time>
        <extensions>
          <ns3:TrackPointExtension>
            <ns3:atemp>34.0</ns3:atemp>
            <ns3:hr>86</ns3:hr>
          </ns3:TrackPointExtension>
        </extensions>
      </trkpt>
      <trkpt lat="36.82234411127865314483642578125" lon="-118.546801172196865081787109375">
        <ele>1963.800048828125</ele>
        <time>2021-06-28T17:21:48.000Z</time>
        <extensions>
          <ns3:TrackPointExtension>
            <ns3:atemp>34.0</ns3:atemp>
            <ns3:hr>83</ns3:hr>
          </ns3:TrackPointExtension>
        </extensions>
      </trkpt>
      <trkpt lat="36.8223522417247295379638671875" lon="-118.54682321660220623016357421875">
        <ele>1963.800048828125</ele>
        <time>2021-06-28T17:21:57.000Z</time>
        <extensions>
          <ns3:TrackPointExtension>
            <ns3:atemp>34.0</ns3:atemp>
            <ns3:hr>86</ns3:hr>
          </ns3:TrackPointExtension>
        </extensions>
      </trkpt>
      <trkpt lat="36.8223509006202220916748046875" lon="-118.54693167842924594879150390625">
        <ele>1963.800048828125</ele>
        <time>2021-06-28T17:22:06.000Z</time>
        <extensions>
          <ns3:TrackPointExtension>
            <ns3:atemp>34.0</ns3:atemp>
            <ns3:hr>83</ns3:hr>
          </ns3:TrackPointExtension>
        </extensions>
      </trkpt>
      <trkpt lat="36.82234444655478000640869140625" lon="-118.54695699177682399749755859375">
        <ele>1963.800048828125</ele>
        <time>2021-06-28T17:22:08.000Z</time>
        <extensions>
          <ns3:TrackPointExtension>
            <ns3:atemp>34.0</ns3:atemp>
            <ns3:hr>80</ns3:hr>
          </ns3:TrackPointExtension>
        </extensions>
      </trkpt>
      <trkpt lat="36.82229968719184398651123046875" lon="-118.54698867537081241607666015625">
        <ele>1963.800048828125</ele>
        <time>2021-06-28T17:22:14.000Z</time>
        <extensions>
          <ns3:TrackPointExtension>
            <ns3:atemp>34.0</ns3:atemp>
            <ns3:hr>81</ns3:hr>
          </ns3:TrackPointExtension>
        </extensions>
      </trkpt>
      <trkpt lat="36.82226859033107757568359375" lon="-118.54700879193842411041259765625">
        <ele>1963.800048828125</ele>
        <time>2021-06-28T17:22:18.000Z</time>
        <extensions>
          <ns3:TrackPointExtension>
            <ns3:atemp>34.0</ns3:atemp>
            <ns3:hr>82</ns3:hr>
          </ns3:TrackPointExtension>
        </extensions>
      </trkpt>
      <trkpt lat="36.822245456278324127197265625" lon="-118.547043241560459136962890625">
        <ele>1963.800048828125</ele>
        <time>2021-06-28T17:22:21.000Z</time>
        <extensions>
          <ns3:TrackPointExtension>
            <ns3:atemp>34.0</ns3:atemp>
            <ns3:hr>84</ns3:hr>
          </ns3:TrackPointExtension>
        </extensions>
      </trkpt>
      <trkpt lat="36.8222238309681415557861328125" lon="-118.54706360958516597747802734375">
        <ele>1964</ele>
        <time>2021-06-28T17:22:24.000Z</time>
        <extensions>
          <ns3:TrackPointExtension>
            <ns3:atemp>34.0</ns3:atemp>
            <ns3:hr>84</ns3:hr>
          </ns3:TrackPointExtension>
        </extensions>
      </trkpt>
      <trkpt lat="36.82219658978283405303955078125" lon="-118.54706143029034137725830078125">
        <ele>1964.199951171875</ele>
        <time>2021-06-28T17:22:26.000Z</time>
        <extensions>
          <ns3:TrackPointExtension>
            <ns3:atemp>34.0</ns3:atemp>
            <ns3:hr>84</ns3:hr>
          </ns3:TrackPointExtension>
        </extensions>
      </trkpt>
      <trkpt lat="36.8221835978329181671142578125" lon="-118.5470598377287387847900390625">
        <ele>1964.199951171875</ele>
        <time>2021-06-28T17:22:27.000Z</time>
        <extensions>
          <ns3:TrackPointExtension>
            <ns3:atemp>34.0</ns3:atemp>
            <ns3:hr>84</ns3:hr>
          </ns3:TrackPointExtension>
        </extensions>
      </trkpt>
      <trkpt lat="36.82217194698750972747802734375" lon="-118.5470588319003582000732421875">
        <ele>1964.4000244140625</ele>
        <time>2021-06-28T17:22:29.000Z</time>
        <extensions>
          <ns3:TrackPointExtension>
            <ns3:atemp>34.0</ns3:atemp>
            <ns3:hr>82</ns3:hr>
          </ns3:TrackPointExtension>
        </extensions>
      </trkpt>
      <trkpt lat="36.8221470527350902557373046875" lon="-118.54705891571938991546630859375">
        <ele>1964.5999755859375</ele>
        <time>2021-06-28T17:22:30.000Z</time>
        <extensions>
          <ns3:TrackPointExtension>
            <ns3:atemp>34.0</ns3:atemp>
            <ns3:hr>83</ns3:hr>
          </ns3:TrackPointExtension>
        </extensions>
      </trkpt>
      <trkpt lat="36.82210572995245456695556640625" lon="-118.54707241058349609375">
        <ele>1964.199951171875</ele>
        <time>2021-06-28T17:22:35.000Z</time>
        <extensions>
          <ns3:TrackPointExtension>
            <ns3:atemp>34.0</ns3:atemp>
            <ns3:hr>84</ns3:hr>
          </ns3:TrackPointExtension>
        </extensions>
      </trkpt>
      <trkpt lat="36.82206499390304088592529296875" lon="-118.54709990322589874267578125">
        <ele>1963.5999755859375</ele>
        <time>2021-06-28T17:22:38.000Z</time>
        <extensions>
          <ns3:TrackPointExtension>
            <ns3:atemp>34.0</ns3:atemp>
            <ns3:hr>85</ns3:hr>
          </ns3:TrackPointExtension>
        </extensions>
      </trkpt>
      <trkpt lat="36.82205803692340850830078125" lon="-118.5471124760806560516357421875">
        <ele>1963.4000244140625</ele>
        <time>2021-06-28T17:22:39.000Z</time>
        <extensions>
          <ns3:TrackPointExtension>
            <ns3:atemp>34.0</ns3:atemp>
            <ns3:hr>85</ns3:hr>
          </ns3:TrackPointExtension>
        </extensions>
      </trkpt>
      <trkpt lat="36.82204856537282466888427734375" lon="-118.5471198521554470062255859375">
        <ele>1963</ele>
        <time>2021-06-28T17:22:40.000Z</time>
        <extensions>
          <ns3:TrackPointExtension>
            <ns3:atemp>34.0</ns3:atemp>
            <ns3:hr>85</ns3:hr>
          </ns3:TrackPointExtension>
        </extensions>
      </trkpt>
      <trkpt lat="36.82204856537282466888427734375" lon="-118.5471198521554470062255859375">
        <ele>1963</ele>
        <time>2021-06-28T17:22:41.000Z</time>
        <extensions>
          <ns3:TrackPointExtension>
            <ns3:atemp>34.0</ns3:atemp>
            <ns3:hr>86</ns3:hr>
          </ns3:TrackPointExtension>
        </extensions>
      </trkpt>
      <trkpt lat="36.8220427818596363067626953125" lon="-118.5471299104392528533935546875">
        <ele>1963</ele>
        <time>2021-06-28T17:22:42.000Z</time>
        <extensions>
          <ns3:TrackPointExtension>
            <ns3:atemp>34.0</ns3:atemp>
            <ns3:hr>85</ns3:hr>
          </ns3:TrackPointExtension>
        </extensions>
      </trkpt>
      <trkpt lat="36.82199961505830287933349609375" lon="-118.54718246497213840484619140625">
        <ele>1963.199951171875</ele>
        <time>2021-06-28T17:22:47.000Z</time>
        <extensions>
          <ns3:TrackPointExtension>
            <ns3:atemp>34.0</ns3:atemp>
            <ns3:hr>86</ns3:hr>
          </ns3:TrackPointExtension>
        </extensions>
      </trkpt>
      <trkpt lat="36.82199961505830287933349609375" lon="-118.54718246497213840484619140625">
        <ele>1963.199951171875</ele>
        <time>2021-06-28T17:22:48.000Z</time>
        <extensions>
          <ns3:TrackPointExtension>
            <ns3:atemp>34.0</ns3:atemp>
            <ns3:hr>84</ns3:hr>
          </ns3:TrackPointExtension>
        </extensions>
      </trkpt>
      <trkpt lat="36.82195066474378108978271484375" lon="-118.54721926152706146240234375">
        <ele>1963.199951171875</ele>
        <time>2021-06-28T17:22:54.000Z</time>
        <extensions>
          <ns3:TrackPointExtension>
            <ns3:atemp>34.0</ns3:atemp>
            <ns3:hr>87</ns3:hr>
          </ns3:TrackPointExtension>
        </extensions>
      </trkpt>
      <trkpt lat="36.82192736305296421051025390625" lon="-118.547256477177143096923828125">
        <ele>1962.4000244140625</ele>
        <time>2021-06-28T17:22:59.000Z</time>
        <extensions>
          <ns3:TrackPointExtension>
            <ns3:atemp>34.0</ns3:atemp>
            <ns3:hr>86</ns3:hr>
          </ns3:TrackPointExtension>
        </extensions>
      </trkpt>
      <trkpt lat="36.8219210766255855560302734375" lon="-118.54726494289934635162353515625">
        <ele>1962.199951171875</ele>
        <time>2021-06-28T17:23:00.000Z</time>
        <extensions>
          <ns3:TrackPointExtension>
            <ns3:atemp>34.0</ns3:atemp>
            <ns3:hr>86</ns3:hr>
          </ns3:TrackPointExtension>
        </extensions>
      </trkpt>
      <trkpt lat="36.8219023011624813079833984375" lon="-118.54727718047797679901123046875">
        <ele>1961.800048828125</ele>
        <time>2021-06-28T17:23:02.000Z</time>
        <extensions>
          <ns3:TrackPointExtension>
            <ns3:atemp>34.0</ns3:atemp>
            <ns3:hr>85</ns3:hr>
          </ns3:TrackPointExtension>
        </extensions>
      </trkpt>
      <trkpt lat="36.821882016956806182861328125" lon="-118.54728271253407001495361328125">
        <ele>1961.5999755859375</ele>
        <time>2021-06-28T17:23:04.000Z</time>
        <extensions>
          <ns3:TrackPointExtension>
            <ns3:atemp>34.0</ns3:atemp>
            <ns3:hr>83</ns3:hr>
          </ns3:TrackPointExtension>
        </extensions>
      </trkpt>
      <trkpt lat="36.82187321595847606658935546875" lon="-118.5472883284091949462890625">
        <ele>1960.800048828125</ele>
        <time>2021-06-28T17:23:06.000Z</time>
        <extensions>
          <ns3:TrackPointExtension>
            <ns3:atemp>34.0</ns3:atemp>
            <ns3:hr>82</ns3:hr>
          </ns3:TrackPointExtension>
        </extensions>
      </trkpt>
      <trkpt lat="36.82186349295079708099365234375" lon="-118.54731850326061248779296875">
        <ele>1960.800048828125</ele>
        <time>2021-06-28T17:23:07.000Z</time>
        <extensions>
          <ns3:TrackPointExtension>
            <ns3:atemp>34.0</ns3:atemp>
            <ns3:hr>82</ns3:hr>
          </ns3:TrackPointExtension>
        </extensions>
      </trkpt>
      <trkpt lat="36.82185092009603977203369140625" lon="-118.54736351408064365386962890625">
        <ele>1960.199951171875</ele>
        <time>2021-06-28T17:23:10.000Z</time>
        <extensions>
          <ns3:TrackPointExtension>
            <ns3:atemp>34.0</ns3:atemp>
            <ns3:hr>81</ns3:hr>
          </ns3:TrackPointExtension>
        </extensions>
      </trkpt>
      <trkpt lat="36.82183197699487209320068359375" lon="-118.54739737696945667266845703125">
        <ele>1959.800048828125</ele>
        <time>2021-06-28T17:23:12.000Z</time>
        <extensions>
          <ns3:TrackPointExtension>
            <ns3:atemp>34.0</ns3:atemp>
            <ns3:hr>80</ns3:hr>
          </ns3:TrackPointExtension>
        </extensions>
      </trkpt>
      <trkpt lat="36.8217816017568111419677734375" lon="-118.54746560566127300262451171875">
        <ele>1959.4000244140625</ele>
        <time>2021-06-28T17:23:17.000Z</time>
        <extensions>
          <ns3:TrackPointExtension>
            <ns3:atemp>34.0</ns3:atemp>
            <ns3:hr>80</ns3:hr>
          </ns3:TrackPointExtension>
        </extensions>
      </trkpt>
      <trkpt lat="36.82177062146365642547607421875" lon="-118.54747499339282512664794921875">
        <ele>1959.4000244140625</ele>
        <time>2021-06-28T17:23:18.000Z</time>
        <extensions>
          <ns3:TrackPointExtension>
            <ns3:atemp>34.0</ns3:atemp>
            <ns3:hr>80</ns3:hr>
          </ns3:TrackPointExtension>
        </extensions>
      </trkpt>
      <trkpt lat="36.82172703556716442108154296875" lon="-118.54750600643455982208251953125">
        <ele>1959.4000244140625</ele>
        <time>2021-06-28T17:23:23.000Z</time>
        <extensions>
          <ns3:TrackPointExtension>
            <ns3:atemp>34.0</ns3:atemp>
            <ns3:hr>82</ns3:hr>
          </ns3:TrackPointExtension>
        </extensions>
      </trkpt>
      <trkpt lat="36.821725107729434967041015625" lon="-118.54750969447195529937744140625">
        <ele>1959.4000244140625</ele>
        <time>2021-06-28T17:23:24.000Z</time>
        <extensions>
          <ns3:TrackPointExtension>
            <ns3:atemp>34.0</ns3:atemp>
            <ns3:hr>81</ns3:hr>
          </ns3:TrackPointExtension>
        </extensions>
      </trkpt>
      <trkpt lat="36.8216793425381183624267578125" lon="-118.5475161485373973846435546875">
        <ele>1959.800048828125</ele>
        <time>2021-06-28T17:23:29.000Z</time>
        <extensions>
          <ns3:TrackPointExtension>
            <ns3:atemp>34.0</ns3:atemp>
            <ns3:hr>79</ns3:hr>
          </ns3:TrackPointExtension>
        </extensions>
      </trkpt>
      <trkpt lat="36.8216454796493053436279296875" lon="-118.5475490055978298187255859375">
        <ele>1958.800048828125</ele>
        <time>2021-06-28T17:23:34.000Z</time>
        <extensions>
          <ns3:TrackPointExtension>
            <ns3:atemp>34.0</ns3:atemp>
            <ns3:hr>77</ns3:hr>
          </ns3:TrackPointExtension>
        </extensions>
      </trkpt>
      <trkpt lat="36.8216454796493053436279296875" lon="-118.5475490055978298187255859375">
        <ele>1958.5999755859375</ele>
        <time>2021-06-28T17:23:35.000Z</time>
        <extensions>
          <ns3:TrackPointExtension>
            <ns3:atemp>34.0</ns3:atemp>
            <ns3:hr>78</ns3:hr>
          </ns3:TrackPointExtension>
        </extensions>
      </trkpt>
      <trkpt lat="36.82162360288202762603759765625" lon="-118.5475966148078441619873046875">
        <ele>1958.4000244140625</ele>
        <time>2021-06-28T17:23:38.000Z</time>
        <extensions>
          <ns3:TrackPointExtension>
            <ns3:atemp>34.0</ns3:atemp>
            <ns3:hr>78</ns3:hr>
          </ns3:TrackPointExtension>
        </extensions>
      </trkpt>
      <trkpt lat="36.82160281576216220855712890625" lon="-118.5476174019277095794677734375">
        <ele>1958</ele>
        <time>2021-06-28T17:23:42.000Z</time>
        <extensions>
          <ns3:TrackPointExtension>
            <ns3:atemp>34.0</ns3:atemp>
            <ns3:hr>79</ns3:hr>
          </ns3:TrackPointExtension>
        </extensions>
      </trkpt>
      <trkpt lat="36.82159124873578548431396484375" lon="-118.547632656991481781005859375">
        <ele>1957.800048828125</ele>
        <time>2021-06-28T17:23:43.000Z</time>
        <extensions>
          <ns3:TrackPointExtension>
            <ns3:atemp>34.0</ns3:atemp>
            <ns3:hr>79</ns3:hr>
          </ns3:TrackPointExtension>
        </extensions>
      </trkpt>
      <trkpt lat="36.82158119045197963714599609375" lon="-118.54763324372470378875732421875">
        <ele>1957.4000244140625</ele>
        <time>2021-06-28T17:23:45.000Z</time>
        <extensions>
          <ns3:TrackPointExtension>
            <ns3:atemp>34.0</ns3:atemp>
            <ns3:hr>79</ns3:hr>
          </ns3:TrackPointExtension>
        </extensions>
      </trkpt>
      <trkpt lat="36.82155822403728961944580078125" lon="-118.547642715275287628173828125">
        <ele>1957</ele>
        <time>2021-06-28T17:23:47.000Z</time>
        <extensions>
          <ns3:TrackPointExtension>
            <ns3:atemp>34.0</ns3:atemp>
            <ns3:hr>79</ns3:hr>
          </ns3:TrackPointExtension>
        </extensions>
      </trkpt>
      <trkpt lat="36.82154263369739055633544921875" lon="-118.5476624965667724609375">
        <ele>1956.5999755859375</ele>
        <time>2021-06-28T17:23:50.000Z</time>
        <extensions>
          <ns3:TrackPointExtension>
            <ns3:atemp>34.0</ns3:atemp>
            <ns3:hr>78</ns3:hr>
          </ns3:TrackPointExtension>
        </extensions>
      </trkpt>
      <trkpt lat="36.82153156958520412445068359375" lon="-118.5476811043918132781982421875">
        <ele>1956.4000244140625</ele>
        <time>2021-06-28T17:23:52.000Z</time>
        <extensions>
          <ns3:TrackPointExtension>
            <ns3:atemp>34.0</ns3:atemp>
            <ns3:hr>78</ns3:hr>
          </ns3:TrackPointExtension>
        </extensions>
      </trkpt>
      <trkpt lat="36.82153156958520412445068359375" lon="-118.5476811043918132781982421875">
        <ele>1956.4000244140625</ele>
        <time>2021-06-28T17:23:53.000Z</time>
        <extensions>
          <ns3:TrackPointExtension>
            <ns3:atemp>34.0</ns3:atemp>
            <ns3:hr>75</ns3:hr>
          </ns3:TrackPointExtension>
        </extensions>
      </trkpt>
      <trkpt lat="36.8215288035571575164794921875" lon="-118.54768739081919193267822265625">
        <ele>1956.199951171875</ele>
        <time>2021-06-28T17:23:54.000Z</time>
        <extensions>
          <ns3:TrackPointExtension>
            <ns3:atemp>34.0</ns3:atemp>
            <ns3:hr>77</ns3:hr>
          </ns3:TrackPointExtension>
        </extensions>
      </trkpt>
      <trkpt lat="36.82151111774146556854248046875" lon="-118.5476938448846340179443359375">
        <ele>1955.800048828125</ele>
        <time>2021-06-28T17:23:56.000Z</time>
        <extensions>
          <ns3:TrackPointExtension>
            <ns3:atemp>34.0</ns3:atemp>
            <ns3:hr>77</ns3:hr>
          </ns3:TrackPointExtension>
        </extensions>
      </trkpt>
      <trkpt lat="36.82151111774146556854248046875" lon="-118.5476938448846340179443359375">
        <ele>1955.4000244140625</ele>
        <time>2021-06-28T17:23:57.000Z</time>
        <extensions>
          <ns3:TrackPointExtension>
            <ns3:atemp>34.0</ns3:atemp>
            <ns3:hr>76</ns3:hr>
          </ns3:TrackPointExtension>
        </extensions>
      </trkpt>
      <trkpt lat="36.82150340639054775238037109375" lon="-118.54769577272236347198486328125">
        <ele>1955.4000244140625</ele>
        <time>2021-06-28T17:23:58.000Z</time>
        <extensions>
          <ns3:TrackPointExtension>
            <ns3:atemp>34.0</ns3:atemp>
            <ns3:hr>77</ns3:hr>
          </ns3:TrackPointExtension>
        </extensions>
      </trkpt>
      <trkpt lat="36.8214788474142551422119140625" lon="-118.54769476689398288726806640625">
        <ele>1955</ele>
        <time>2021-06-28T17:23:59.000Z</time>
        <extensions>
          <ns3:TrackPointExtension>
            <ns3:atemp>34.0</ns3:atemp>
            <ns3:hr>78</ns3:hr>
          </ns3:TrackPointExtension>
        </extensions>
      </trkpt>
      <trkpt lat="36.82144355960190296173095703125" lon="-118.54772225953638553619384765625">
        <ele>1954.4000244140625</ele>
        <time>2021-06-28T17:24:04.000Z</time>
        <extensions>
          <ns3:TrackPointExtension>
            <ns3:atemp>34.0</ns3:atemp>
            <ns3:hr>77</ns3:hr>
          </ns3:TrackPointExtension>
        </extensions>
      </trkpt>
      <trkpt lat="36.8214097805321216583251953125" lon="-118.54772913269698619842529296875">
        <ele>1953.800048828125</ele>
        <time>2021-06-28T17:24:06.000Z</time>
        <extensions>
          <ns3:TrackPointExtension>
            <ns3:atemp>34.0</ns3:atemp>
            <ns3:hr>79</ns3:hr>
          </ns3:TrackPointExtension>
        </extensions>
      </trkpt>
      <trkpt lat="36.82139419019222259521484375" lon="-118.54773282073438167572021484375">
        <ele>1953.5999755859375</ele>
        <time>2021-06-28T17:24:07.000Z</time>
        <extensions>
          <ns3:TrackPointExtension>
            <ns3:atemp>34.0</ns3:atemp>
            <ns3:hr>80</ns3:hr>
          </ns3:TrackPointExtension>
        </extensions>
      </trkpt>
      <trkpt lat="36.82138086296617984771728515625" lon="-118.54774002917110919952392578125">
        <ele>1953.199951171875</ele>
        <time>2021-06-28T17:24:09.000Z</time>
        <extensions>
          <ns3:TrackPointExtension>
            <ns3:atemp>34.0</ns3:atemp>
            <ns3:hr>82</ns3:hr>
          </ns3:TrackPointExtension>
        </extensions>
      </trkpt>
      <trkpt lat="36.8213427253067493438720703125" lon="-118.5477592237293720245361328125">
        <ele>1952.800048828125</ele>
        <time>2021-06-28T17:24:13.000Z</time>
        <extensions>
          <ns3:TrackPointExtension>
            <ns3:atemp>34.0</ns3:atemp>
            <ns3:hr>85</ns3:hr>
          </ns3:TrackPointExtension>
        </extensions>
      </trkpt>
      <trkpt lat="36.82133057154715061187744140625" lon="-118.547771461308002471923828125">
        <ele>1952.800048828125</ele>
        <time>2021-06-28T17:24:14.000Z</time>
        <extensions>
          <ns3:TrackPointExtension>
            <ns3:atemp>34.0</ns3:atemp>
            <ns3:hr>82</ns3:hr>
          </ns3:TrackPointExtension>
        </extensions>
      </trkpt>
      <trkpt lat="36.82130324654281139373779296875" lon="-118.54778998531401157379150390625">
        <ele>1952.4000244140625</ele>
        <time>2021-06-28T17:24:17.000Z</time>
        <extensions>
          <ns3:TrackPointExtension>
            <ns3:atemp>34.0</ns3:atemp>
            <ns3:hr>82</ns3:hr>
          </ns3:TrackPointExtension>
        </extensions>
      </trkpt>
      <trkpt lat="36.82128413580358028411865234375" lon="-118.5477984510362148284912109375">
        <ele>1952.5999755859375</ele>
        <time>2021-06-28T17:24:19.000Z</time>
        <extensions>
          <ns3:TrackPointExtension>
            <ns3:atemp>34.0</ns3:atemp>
            <ns3:hr>82</ns3:hr>
          </ns3:TrackPointExtension>
        </extensions>
      </trkpt>
      <trkpt lat="36.82123065926134586334228515625" lon="-118.5478274524211883544921875">
        <ele>1952.4000244140625</ele>
        <time>2021-06-28T17:24:24.000Z</time>
        <extensions>
          <ns3:TrackPointExtension>
            <ns3:atemp>34.0</ns3:atemp>
            <ns3:hr>80</ns3:hr>
          </ns3:TrackPointExtension>
        </extensions>
      </trkpt>
      <trkpt lat="36.821151785552501678466796875" lon="-118.54784731753170490264892578125">
        <ele>1952.4000244140625</ele>
        <time>2021-06-28T17:24:30.000Z</time>
        <extensions>
          <ns3:TrackPointExtension>
            <ns3:atemp>34.0</ns3:atemp>
            <ns3:hr>79</ns3:hr>
          </ns3:TrackPointExtension>
        </extensions>
      </trkpt>
      <trkpt lat="36.8211063556373119354248046875" lon="-118.54786592535674571990966796875">
        <ele>1952.5999755859375</ele>
        <time>2021-06-28T17:24:35.000Z</time>
        <extensions>
          <ns3:TrackPointExtension>
            <ns3:atemp>34.0</ns3:atemp>
            <ns3:hr>76</ns3:hr>
          </ns3:TrackPointExtension>
        </extensions>
      </trkpt>
      <trkpt lat="36.8210971355438232421875" lon="-118.5478762350976467132568359375">
        <ele>1952.800048828125</ele>
        <time>2021-06-28T17:24:37.000Z</time>
        <extensions>
          <ns3:TrackPointExtension>
            <ns3:atemp>34.0</ns3:atemp>
            <ns3:hr>75</ns3:hr>
          </ns3:TrackPointExtension>
        </extensions>
      </trkpt>
      <trkpt lat="36.82109110057353973388671875" lon="-118.54788319207727909088134765625">
        <ele>1952.800048828125</ele>
        <time>2021-06-28T17:24:38.000Z</time>
        <extensions>
          <ns3:TrackPointExtension>
            <ns3:atemp>34.0</ns3:atemp>
            <ns3:hr>75</ns3:hr>
          </ns3:TrackPointExtension>
        </extensions>
      </trkpt>
      <trkpt lat="36.82107810862362384796142578125" lon="-118.54788688011467456817626953125">
        <ele>1952.800048828125</ele>
        <time>2021-06-28T17:24:40.000Z</time>
        <extensions>
          <ns3:TrackPointExtension>
            <ns3:atemp>34.0</ns3:atemp>
            <ns3:hr>74</ns3:hr>
          </ns3:TrackPointExtension>
        </extensions>
      </trkpt>
      <trkpt lat="36.82104491628706455230712890625" lon="-118.54791470803320407867431640625">
        <ele>1952.5999755859375</ele>
        <time>2021-06-28T17:24:44.000Z</time>
        <extensions>
          <ns3:TrackPointExtension>
            <ns3:atemp>34.0</ns3:atemp>
            <ns3:hr>71</ns3:hr>
          </ns3:TrackPointExtension>
        </extensions>
      </trkpt>
      <trkpt lat="36.8210501968860626220703125" lon="-118.54790724813938140869140625">
        <ele>1952.5999755859375</ele>
        <time>2021-06-28T17:24:46.000Z</time>
        <extensions>
          <ns3:TrackPointExtension>
            <ns3:atemp>34.0</ns3:atemp>
            <ns3:hr>74</ns3:hr>
          </ns3:TrackPointExtension>
        </extensions>
      </trkpt>
      <trkpt lat="36.82105514220893383026123046875" lon="-118.54790163226425647735595703125">
        <ele>1952.199951171875</ele>
        <time>2021-06-28T17:24:47.000Z</time>
        <extensions>
          <ns3:TrackPointExtension>
            <ns3:atemp>34.0</ns3:atemp>
            <ns3:hr>71</ns3:hr>
          </ns3:TrackPointExtension>
        </extensions>
      </trkpt>
      <trkpt lat="36.821051873266696929931640625" lon="-118.54789978824555873870849609375">
        <ele>1952.4000244140625</ele>
        <time>2021-06-28T17:24:50.000Z</time>
        <extensions>
          <ns3:TrackPointExtension>
            <ns3:atemp>34.0</ns3:atemp>
            <ns3:hr>74</ns3:hr>
          </ns3:TrackPointExtension>
        </extensions>
      </trkpt>
      <trkpt lat="36.8210501968860626220703125" lon="-118.5479023866355419158935546875">
        <ele>1952.199951171875</ele>
        <time>2021-06-28T17:24:52.000Z</time>
        <extensions>
          <ns3:TrackPointExtension>
            <ns3:atemp>34.0</ns3:atemp>
            <ns3:hr>77</ns3:hr>
          </ns3:TrackPointExtension>
        </extensions>
      </trkpt>
      <trkpt lat="36.8210456706583499908447265625" lon="-118.54790615849196910858154296875">
        <ele>1952.199951171875</ele>
        <time>2021-06-28T17:24:56.000Z</time>
        <extensions>
          <ns3:TrackPointExtension>
            <ns3:atemp>34.0</ns3:atemp>
            <ns3:hr>80</ns3:hr>
          </ns3:TrackPointExtension>
        </extensions>
      </trkpt>
      <trkpt lat="36.82103854604065418243408203125" lon="-118.5479023866355419158935546875">
        <ele>1952.199951171875</ele>
        <time>2021-06-28T17:24:58.000Z</time>
        <extensions>
          <ns3:TrackPointExtension>
            <ns3:atemp>34.0</ns3:atemp>
            <ns3:hr>83</ns3:hr>
          </ns3:TrackPointExtension>
        </extensions>
      </trkpt>
      <trkpt lat="36.8210423178970813751220703125" lon="-118.54790146462619304656982421875">
        <ele>1952.199951171875</ele>
        <time>2021-06-28T17:25:01.000Z</time>
        <extensions>
          <ns3:TrackPointExtension>
            <ns3:atemp>34.0</ns3:atemp>
            <ns3:hr>86</ns3:hr>
          </ns3:TrackPointExtension>
        </extensions>
      </trkpt>
      <trkpt lat="36.82105958461761474609375" lon="-118.54790858924388885498046875">
        <ele>1952.5999755859375</ele>
        <time>2021-06-28T17:25:04.000Z</time>
        <extensions>
          <ns3:TrackPointExtension>
            <ns3:atemp>34.0</ns3:atemp>
            <ns3:hr>89</ns3:hr>
          </ns3:TrackPointExtension>
        </extensions>
      </trkpt>
      <trkpt lat="36.82107592932879924774169921875" lon="-118.54792141355574131011962890625">
        <ele>1952.5999755859375</ele>
        <time>2021-06-28T17:25:06.000Z</time>
        <extensions>
          <ns3:TrackPointExtension>
            <ns3:atemp>34.0</ns3:atemp>
            <ns3:hr>90</ns3:hr>
          </ns3:TrackPointExtension>
        </extensions>
      </trkpt>
      <trkpt lat="36.82107592932879924774169921875" lon="-118.54792141355574131011962890625">
        <ele>1952.5999755859375</ele>
        <time>2021-06-28T17:25:11.000Z</time>
        <extensions>
          <ns3:TrackPointExtension>
            <ns3:atemp>34.0</ns3:atemp>
            <ns3:hr>93</ns3:hr>
          </ns3:TrackPointExtension>
        </extensions>
      </trkpt>
      <trkpt lat="36.82107592932879924774169921875" lon="-118.54792141355574131011962890625">
        <ele>1952.5999755859375</ele>
        <time>2021-06-28T17:25:18.000Z</time>
        <extensions>
          <ns3:TrackPointExtension>
            <ns3:atemp>34.0</ns3:atemp>
            <ns3:hr>96</ns3:hr>
          </ns3:TrackPointExtension>
        </extensions>
      </trkpt>
      <trkpt lat="36.82108649052679538726806640625" lon="-118.5479432903230190277099609375">
        <ele>1952.199951171875</ele>
        <time>2021-06-28T17:25:27.000Z</time>
        <extensions>
          <ns3:TrackPointExtension>
            <ns3:atemp>34.0</ns3:atemp>
            <ns3:hr>94</ns3:hr>
          </ns3:TrackPointExtension>
        </extensions>
      </trkpt>
      <trkpt lat="36.8210349418222904205322265625" lon="-118.54796835221350193023681640625">
        <ele>1952</ele>
        <time>2021-06-28T17:25:41.000Z</time>
        <extensions>
          <ns3:TrackPointExtension>
            <ns3:atemp>34.0</ns3:atemp>
            <ns3:hr>91</ns3:hr>
          </ns3:TrackPointExtension>
        </extensions>
      </trkpt>
      <trkpt lat="36.8210349418222904205322265625" lon="-118.54796835221350193023681640625">
        <ele>1952.199951171875</ele>
        <time>2021-06-28T17:25:42.000Z</time>
        <extensions>
          <ns3:TrackPointExtension>
            <ns3:atemp>34.0</ns3:atemp>
            <ns3:hr>91</ns3:hr>
          </ns3:TrackPointExtension>
        </extensions>
      </trkpt>
      <trkpt lat="36.82102664373815059661865234375" lon="-118.5479667596518993377685546875">
        <ele>1952.199951171875</ele>
        <time>2021-06-28T17:25:43.000Z</time>
        <extensions>
          <ns3:TrackPointExtension>
            <ns3:atemp>34.0</ns3:atemp>
            <ns3:hr>90</ns3:hr>
          </ns3:TrackPointExtension>
        </extensions>
      </trkpt>
      <trkpt lat="36.82099227793514728546142578125" lon="-118.54796131141483783721923828125">
        <ele>1952.199951171875</ele>
        <time>2021-06-28T17:25:47.000Z</time>
        <extensions>
          <ns3:TrackPointExtension>
            <ns3:atemp>34.0</ns3:atemp>
            <ns3:hr>90</ns3:hr>
          </ns3:TrackPointExtension>
        </extensions>
      </trkpt>
      <trkpt lat="36.82098926045000553131103515625" lon="-118.54798058979213237762451171875">
        <ele>1952.199951171875</ele>
        <time>2021-06-28T17:25:53.000Z</time>
        <extensions>
          <ns3:TrackPointExtension>
            <ns3:atemp>34.0</ns3:atemp>
            <ns3:hr>94</ns3:hr>
          </ns3:TrackPointExtension>
        </extensions>
      </trkpt>
      <trkpt lat="36.82099646888673305511474609375" lon="-118.547976650297641754150390625">
        <ele>1952.199951171875</ele>
        <time>2021-06-28T17:25:55.000Z</time>
        <extensions>
          <ns3:TrackPointExtension>
            <ns3:atemp>34.0</ns3:atemp>
            <ns3:hr>98</ns3:hr>
          </ns3:TrackPointExtension>
        </extensions>
      </trkpt>
      <trkpt lat="36.82100015692412853240966796875" lon="-118.54795812629163265228271484375">
        <ele>1952.199951171875</ele>
        <time>2021-06-28T17:25:56.000Z</time>
        <extensions>
          <ns3:TrackPointExtension>
            <ns3:atemp>34.0</ns3:atemp>
            <ns3:hr>100</ns3:hr>
          </ns3:TrackPointExtension>
        </extensions>
      </trkpt>
      <trkpt lat="36.820993535220623016357421875" lon="-118.547937758266925811767578125">
        <ele>1952.4000244140625</ele>
        <time>2021-06-28T17:26:13.000Z</time>
        <extensions>
          <ns3:TrackPointExtension>
            <ns3:atemp>34.0</ns3:atemp>
            <ns3:hr>98</ns3:hr>
          </ns3:TrackPointExtension>
        </extensions>
      </trkpt>
      <trkpt lat="36.820993535220623016357421875" lon="-118.547937758266925811767578125">
        <ele>1952.4000244140625</ele>
        <time>2021-06-28T17:26:16.000Z</time>
        <extensions>
          <ns3:TrackPointExtension>
            <ns3:atemp>34.0</ns3:atemp>
            <ns3:hr>95</ns3:hr>
          </ns3:TrackPointExtension>
        </extensions>
      </trkpt>
      <trkpt lat="36.820994205772876739501953125" lon="-118.54793063364923000335693359375">
        <ele>1952.199951171875</ele>
        <time>2021-06-28T17:26:27.000Z</time>
        <extensions>
          <ns3:TrackPointExtension>
            <ns3:atemp>34.0</ns3:atemp>
            <ns3:hr>98</ns3:hr>
          </ns3:TrackPointExtension>
        </extensions>
      </trkpt>
      <trkpt lat="36.82094626128673553466796875" lon="-118.54796131141483783721923828125">
        <ele>1952.199951171875</ele>
        <time>2021-06-28T17:26:45.000Z</time>
        <extensions>
          <ns3:TrackPointExtension>
            <ns3:atemp>34.0</ns3:atemp>
            <ns3:hr>94</ns3:hr>
          </ns3:TrackPointExtension>
        </extensions>
      </trkpt>
      <trkpt lat="36.82091809809207916259765625" lon="-118.5479815118014812469482421875">
        <ele>1952</ele>
        <time>2021-06-28T17:26:46.000Z</time>
        <extensions>
          <ns3:TrackPointExtension>
            <ns3:atemp>34.0</ns3:atemp>
            <ns3:hr>92</ns3:hr>
          </ns3:TrackPointExtension>
        </extensions>
      </trkpt>
      <trkpt lat="36.82086587883532047271728515625" lon="-118.547988049685955047607421875">
        <ele>1951.4000244140625</ele>
        <time>2021-06-28T17:26:49.000Z</time>
        <extensions>
          <ns3:TrackPointExtension>
            <ns3:atemp>34.0</ns3:atemp>
            <ns3:hr>88</ns3:hr>
          </ns3:TrackPointExtension>
        </extensions>
      </trkpt>
      <trkpt lat="36.82083226740360260009765625" lon="-118.54798947460949420928955078125">
        <ele>1951.199951171875</ele>
        <time>2021-06-28T17:26:51.000Z</time>
        <extensions>
          <ns3:TrackPointExtension>
            <ns3:atemp>34.0</ns3:atemp>
            <ns3:hr>87</ns3:hr>
          </ns3:TrackPointExtension>
        </extensions>
      </trkpt>
      <trkpt lat="36.82081122882664203643798828125" lon="-118.54799835942685604095458984375">
        <ele>1951.199951171875</ele>
        <time>2021-06-28T17:26:53.000Z</time>
        <extensions>
          <ns3:TrackPointExtension>
            <ns3:atemp>34.0</ns3:atemp>
            <ns3:hr>87</ns3:hr>
          </ns3:TrackPointExtension>
        </extensions>
      </trkpt>
      <trkpt lat="36.8207593448460102081298828125" lon="-118.54802853427827358245849609375">
        <ele>1950</ele>
        <time>2021-06-28T17:26:58.000Z</time>
        <extensions>
          <ns3:TrackPointExtension>
            <ns3:atemp>34.0</ns3:atemp>
            <ns3:hr>89</ns3:hr>
          </ns3:TrackPointExtension>
        </extensions>
      </trkpt>
      <trkpt lat="36.82072724215686321258544921875" lon="-118.54811218567192554473876953125">
        <ele>1950.4000244140625</ele>
        <time>2021-06-28T17:27:05.000Z</time>
        <extensions>
          <ns3:TrackPointExtension>
            <ns3:atemp>34.0</ns3:atemp>
            <ns3:hr>90</ns3:hr>
          </ns3:TrackPointExtension>
        </extensions>
      </trkpt>
      <trkpt lat="36.8207164295017719268798828125" lon="-118.54812392033636569976806640625">
        <ele>1950.199951171875</ele>
        <time>2021-06-28T17:27:06.000Z</time>
        <extensions>
          <ns3:TrackPointExtension>
            <ns3:atemp>34.0</ns3:atemp>
            <ns3:hr>90</ns3:hr>
          </ns3:TrackPointExtension>
        </extensions>
      </trkpt>
      <trkpt lat="36.82071919552981853485107421875" lon="-118.5481300391256809234619140625">
        <ele>1949.800048828125</ele>
        <time>2021-06-28T17:27:09.000Z</time>
        <extensions>
          <ns3:TrackPointExtension>
            <ns3:atemp>34.0</ns3:atemp>
            <ns3:hr>89</ns3:hr>
          </ns3:TrackPointExtension>
        </extensions>
      </trkpt>
      <trkpt lat="36.820699162781238555908203125" lon="-118.54813749901950359344482421875">
        <ele>1949.800048828125</ele>
        <time>2021-06-28T17:27:11.000Z</time>
        <extensions>
          <ns3:TrackPointExtension>
            <ns3:atemp>34.0</ns3:atemp>
            <ns3:hr>87</ns3:hr>
          </ns3:TrackPointExtension>
        </extensions>
      </trkpt>
      <trkpt lat="36.82068902067840099334716796875" lon="-118.5481954179704189300537109375">
        <ele>1949.800048828125</ele>
        <time>2021-06-28T17:27:14.000Z</time>
        <extensions>
          <ns3:TrackPointExtension>
            <ns3:atemp>34.0</ns3:atemp>
            <ns3:hr>87</ns3:hr>
          </ns3:TrackPointExtension>
        </extensions>
      </trkpt>
      <trkpt lat="36.8206711672246456146240234375" lon="-118.548216708004474639892578125">
        <ele>1949.199951171875</ele>
        <time>2021-06-28T17:27:18.000Z</time>
        <extensions>
          <ns3:TrackPointExtension>
            <ns3:atemp>34.0</ns3:atemp>
            <ns3:hr>87</ns3:hr>
          </ns3:TrackPointExtension>
        </extensions>
      </trkpt>
      <trkpt lat="36.82065499015152454376220703125" lon="-118.548242188990116119384765625">
        <ele>1949.199951171875</ele>
        <time>2021-06-28T17:27:20.000Z</time>
        <extensions>
          <ns3:TrackPointExtension>
            <ns3:atemp>34.0</ns3:atemp>
            <ns3:hr>87</ns3:hr>
          </ns3:TrackPointExtension>
        </extensions>
      </trkpt>
      <trkpt lat="36.820658929646015167236328125" lon="-118.54826356284320354461669921875">
        <ele>1949</ele>
        <time>2021-06-28T17:27:22.000Z</time>
        <extensions>
          <ns3:TrackPointExtension>
            <ns3:atemp>34.0</ns3:atemp>
            <ns3:hr>89</ns3:hr>
          </ns3:TrackPointExtension>
        </extensions>
      </trkpt>
      <trkpt lat="36.8206590972840785980224609375" lon="-118.548279739916324615478515625">
        <ele>1948.800048828125</ele>
        <time>2021-06-28T17:27:24.000Z</time>
        <extensions>
          <ns3:TrackPointExtension>
            <ns3:atemp>34.0</ns3:atemp>
            <ns3:hr>89</ns3:hr>
          </ns3:TrackPointExtension>
        </extensions>
      </trkpt>
      <trkpt lat="36.82065113447606563568115234375" lon="-118.54827965609729290008544921875">
        <ele>1947.800048828125</ele>
        <time>2021-06-28T17:27:25.000Z</time>
        <extensions>
          <ns3:TrackPointExtension>
            <ns3:atemp>34.0</ns3:atemp>
            <ns3:hr>89</ns3:hr>
          </ns3:TrackPointExtension>
        </extensions>
      </trkpt>
      <trkpt lat="36.82064342312514781951904296875" lon="-118.548283092677593231201171875">
        <ele>1947.800048828125</ele>
        <time>2021-06-28T17:27:26.000Z</time>
        <extensions>
          <ns3:TrackPointExtension>
            <ns3:atemp>34.0</ns3:atemp>
            <ns3:hr>88</ns3:hr>
          </ns3:TrackPointExtension>
        </extensions>
      </trkpt>
      <trkpt lat="36.8206305988132953643798828125" lon="-118.54828669689595699310302734375">
        <ele>1947.5999755859375</ele>
        <time>2021-06-28T17:27:27.000Z</time>
        <extensions>
          <ns3:TrackPointExtension>
            <ns3:atemp>34.0</ns3:atemp>
            <ns3:hr>88</ns3:hr>
          </ns3:TrackPointExtension>
        </extensions>
      </trkpt>
      <trkpt lat="36.8206168524920940399169921875" lon="-118.54829072020947933197021484375">
        <ele>1947.4000244140625</ele>
        <time>2021-06-28T17:27:28.000Z</time>
        <extensions>
          <ns3:TrackPointExtension>
            <ns3:atemp>34.0</ns3:atemp>
            <ns3:hr>89</ns3:hr>
          </ns3:TrackPointExtension>
        </extensions>
      </trkpt>
      <trkpt lat="36.820584498345851898193359375" lon="-118.54830077849328517913818359375">
        <ele>1946.5999755859375</ele>
        <time>2021-06-28T17:27:31.000Z</time>
        <extensions>
          <ns3:TrackPointExtension>
            <ns3:atemp>34.0</ns3:atemp>
            <ns3:hr>89</ns3:hr>
          </ns3:TrackPointExtension>
        </extensions>
      </trkpt>
      <trkpt lat="36.82055910117924213409423828125" lon="-118.548311926424503326416015625">
        <ele>1946.4000244140625</ele>
        <time>2021-06-28T17:27:33.000Z</time>
        <extensions>
          <ns3:TrackPointExtension>
            <ns3:atemp>34.0</ns3:atemp>
            <ns3:hr>89</ns3:hr>
          </ns3:TrackPointExtension>
        </extensions>
      </trkpt>
      <trkpt lat="36.82055910117924213409423828125" lon="-118.548311926424503326416015625">
        <ele>1946.199951171875</ele>
        <time>2021-06-28T17:27:34.000Z</time>
        <extensions>
          <ns3:TrackPointExtension>
            <ns3:atemp>34.0</ns3:atemp>
            <ns3:hr>87</ns3:hr>
          </ns3:TrackPointExtension>
        </extensions>
      </trkpt>
      <trkpt lat="36.82053311727941036224365234375" lon="-118.548317961394786834716796875">
        <ele>1946</ele>
        <time>2021-06-28T17:27:35.000Z</time>
        <extensions>
          <ns3:TrackPointExtension>
            <ns3:atemp>34.0</ns3:atemp>
            <ns3:hr>85</ns3:hr>
          </ns3:TrackPointExtension>
        </extensions>
      </trkpt>
      <trkpt lat="36.82051819749176502227783203125" lon="-118.548319302499294281005859375">
        <ele>1945.5999755859375</ele>
        <time>2021-06-28T17:27:36.000Z</time>
        <extensions>
          <ns3:TrackPointExtension>
            <ns3:atemp>34.0</ns3:atemp>
            <ns3:hr>83</ns3:hr>
          </ns3:TrackPointExtension>
        </extensions>
      </trkpt>
      <trkpt lat="36.82048332877457141876220703125" lon="-118.54833514429628849029541015625">
        <ele>1944.800048828125</ele>
        <time>2021-06-28T17:27:38.000Z</time>
        <extensions>
          <ns3:TrackPointExtension>
            <ns3:atemp>34.0</ns3:atemp>
            <ns3:hr>80</ns3:hr>
          </ns3:TrackPointExtension>
        </extensions>
      </trkpt>
      <trkpt lat="36.82047494687139987945556640625" lon="-118.5483385808765888214111328125">
        <ele>1944.800048828125</ele>
        <time>2021-06-28T17:27:39.000Z</time>
        <extensions>
          <ns3:TrackPointExtension>
            <ns3:atemp>34.0</ns3:atemp>
            <ns3:hr>79</ns3:hr>
          </ns3:TrackPointExtension>
        </extensions>
      </trkpt>
      <trkpt lat="36.82046103291213512420654296875" lon="-118.54833933524787425994873046875">
        <ele>1944.5999755859375</ele>
        <time>2021-06-28T17:27:40.000Z</time>
        <extensions>
          <ns3:TrackPointExtension>
            <ns3:atemp>34.0</ns3:atemp>
            <ns3:hr>78</ns3:hr>
          </ns3:TrackPointExtension>
        </extensions>
      </trkpt>
      <trkpt lat="36.8204448558390140533447265625" lon="-118.54834704659879207611083984375">
        <ele>1944.5999755859375</ele>
        <time>2021-06-28T17:27:41.000Z</time>
        <extensions>
          <ns3:TrackPointExtension>
            <ns3:atemp>34.0</ns3:atemp>
            <ns3:hr>78</ns3:hr>
          </ns3:TrackPointExtension>
        </extensions>
      </trkpt>
      <trkpt lat="36.8204448558390140533447265625" lon="-118.54834704659879207611083984375">
        <ele>1944.5999755859375</ele>
        <time>2021-06-28T17:27:42.000Z</time>
        <extensions>
          <ns3:TrackPointExtension>
            <ns3:atemp>34.0</ns3:atemp>
            <ns3:hr>78</ns3:hr>
          </ns3:TrackPointExtension>
        </extensions>
      </trkpt>
      <trkpt lat="36.82041526772081851959228515625" lon="-118.54835324920713901519775390625">
        <ele>1944.5999755859375</ele>
        <time>2021-06-28T17:27:44.000Z</time>
        <extensions>
          <ns3:TrackPointExtension>
            <ns3:atemp>34.0</ns3:atemp>
            <ns3:hr>78</ns3:hr>
          </ns3:TrackPointExtension>
        </extensions>
      </trkpt>
      <trkpt lat="36.8203982524573802947998046875" lon="-118.5483573563396930694580078125">
        <ele>1944.800048828125</ele>
        <time>2021-06-28T17:27:45.000Z</time>
        <extensions>
          <ns3:TrackPointExtension>
            <ns3:atemp>34.0</ns3:atemp>
            <ns3:hr>79</ns3:hr>
          </ns3:TrackPointExtension>
        </extensions>
      </trkpt>
      <trkpt lat="36.82030856609344482421875" lon="-118.54836565442383289337158203125">
        <ele>1945.5999755859375</ele>
        <time>2021-06-28T17:27:52.000Z</time>
        <extensions>
          <ns3:TrackPointExtension>
            <ns3:atemp>34.0</ns3:atemp>
            <ns3:hr>81</ns3:hr>
          </ns3:TrackPointExtension>
        </extensions>
      </trkpt>
      <trkpt lat="36.82026288472115993499755859375" lon="-118.54847663082182407379150390625">
        <ele>1945.4000244140625</ele>
        <time>2021-06-28T17:28:00.000Z</time>
        <extensions>
          <ns3:TrackPointExtension>
            <ns3:atemp>34.0</ns3:atemp>
            <ns3:hr>81</ns3:hr>
          </ns3:TrackPointExtension>
        </extensions>
      </trkpt>
      <trkpt lat="36.82024410925805568695068359375" lon="-118.5484790615737438201904296875">
        <ele>1944.4000244140625</ele>
        <time>2021-06-28T17:28:01.000Z</time>
        <extensions>
          <ns3:TrackPointExtension>
            <ns3:atemp>34.0</ns3:atemp>
            <ns3:hr>81</ns3:hr>
          </ns3:TrackPointExtension>
        </extensions>
      </trkpt>
      <trkpt lat="36.820224411785602569580078125" lon="-118.54850596748292446136474609375">
        <ele>1943.800048828125</ele>
        <time>2021-06-28T17:28:05.000Z</time>
        <extensions>
          <ns3:TrackPointExtension>
            <ns3:atemp>34.0</ns3:atemp>
            <ns3:hr>79</ns3:hr>
          </ns3:TrackPointExtension>
        </extensions>
      </trkpt>
      <trkpt lat="36.82020555250346660614013671875" lon="-118.548507727682590484619140625">
        <ele>1943.800048828125</ele>
        <time>2021-06-28T17:28:07.000Z</time>
        <extensions>
          <ns3:TrackPointExtension>
            <ns3:atemp>34.0</ns3:atemp>
            <ns3:hr>80</ns3:hr>
          </ns3:TrackPointExtension>
        </extensions>
      </trkpt>
      <trkpt lat="36.820198595523834228515625" lon="-118.54851971380412578582763671875">
        <ele>1943.800048828125</ele>
        <time>2021-06-28T17:28:10.000Z</time>
        <extensions>
          <ns3:TrackPointExtension>
            <ns3:atemp>34.0</ns3:atemp>
            <ns3:hr>81</ns3:hr>
          </ns3:TrackPointExtension>
        </extensions>
      </trkpt>
      <trkpt lat="36.82019658386707305908203125" lon="-118.5485275089740753173828125">
        <ele>1943.800048828125</ele>
        <time>2021-06-28T17:28:13.000Z</time>
        <extensions>
          <ns3:TrackPointExtension>
            <ns3:atemp>34.0</ns3:atemp>
            <ns3:hr>84</ns3:hr>
          </ns3:TrackPointExtension>
        </extensions>
      </trkpt>
      <trkpt lat="36.820195578038692474365234375" lon="-118.54852206073701381683349609375">
        <ele>1943.800048828125</ele>
        <time>2021-06-28T17:28:14.000Z</time>
        <extensions>
          <ns3:TrackPointExtension>
            <ns3:atemp>34.0</ns3:atemp>
            <ns3:hr>83</ns3:hr>
          </ns3:TrackPointExtension>
        </extensions>
      </trkpt>
      <trkpt lat="36.82020069099962711334228515625" lon="-118.54852390475571155548095703125">
        <ele>1943.5999755859375</ele>
        <time>2021-06-28T17:28:18.000Z</time>
        <extensions>
          <ns3:TrackPointExtension>
            <ns3:atemp>34.0</ns3:atemp>
            <ns3:hr>86</ns3:hr>
          </ns3:TrackPointExtension>
        </extensions>
      </trkpt>
      <trkpt lat="36.820198930799961090087890625" lon="-118.54852356947958469390869140625">
        <ele>1943.4000244140625</ele>
        <time>2021-06-28T17:28:20.000Z</time>
        <extensions>
          <ns3:TrackPointExtension>
            <ns3:atemp>34.0</ns3:atemp>
            <ns3:hr>86</ns3:hr>
          </ns3:TrackPointExtension>
        </extensions>
      </trkpt>
      <trkpt lat="36.820198930799961090087890625" lon="-118.54852356947958469390869140625">
        <ele>1943.199951171875</ele>
        <time>2021-06-28T17:28:24.000Z</time>
        <extensions>
          <ns3:TrackPointExtension>
            <ns3:atemp>34.0</ns3:atemp>
            <ns3:hr>89</ns3:hr>
          </ns3:TrackPointExtension>
        </extensions>
      </trkpt>
      <trkpt lat="36.820198930799961090087890625" lon="-118.54852356947958469390869140625">
        <ele>1943.199951171875</ele>
        <time>2021-06-28T17:28:26.000Z</time>
        <extensions>
          <ns3:TrackPointExtension>
            <ns3:atemp>34.0</ns3:atemp>
            <ns3:hr>91</ns3:hr>
          </ns3:TrackPointExtension>
        </extensions>
      </trkpt>
      <trkpt lat="36.820198930799961090087890625" lon="-118.54852356947958469390869140625">
        <ele>1943.199951171875</ele>
        <time>2021-06-28T17:28:28.000Z</time>
        <extensions>
          <ns3:TrackPointExtension>
            <ns3:atemp>34.0</ns3:atemp>
            <ns3:hr>94</ns3:hr>
          </ns3:TrackPointExtension>
        </extensions>
      </trkpt>
      <trkpt lat="36.820198930799961090087890625" lon="-118.5485221445560455322265625">
        <ele>1943.199951171875</ele>
        <time>2021-06-28T17:28:31.000Z</time>
        <extensions>
          <ns3:TrackPointExtension>
            <ns3:atemp>34.0</ns3:atemp>
            <ns3:hr>97</ns3:hr>
          </ns3:TrackPointExtension>
        </extensions>
      </trkpt>
      <trkpt lat="36.820198930799961090087890625" lon="-118.54852122254669666290283203125">
        <ele>1943.199951171875</ele>
        <time>2021-06-28T17:28:35.000Z</time>
        <extensions>
          <ns3:TrackPointExtension>
            <ns3:atemp>34.0</ns3:atemp>
            <ns3:hr>99</ns3:hr>
          </ns3:TrackPointExtension>
        </extensions>
      </trkpt>
      <trkpt lat="36.82019767351448535919189453125" lon="-118.54852206073701381683349609375">
        <ele>1942.800048828125</ele>
        <time>2021-06-28T17:28:42.000Z</time>
        <extensions>
          <ns3:TrackPointExtension>
            <ns3:atemp>34.0</ns3:atemp>
            <ns3:hr>96</ns3:hr>
          </ns3:TrackPointExtension>
        </extensions>
      </trkpt>
      <trkpt lat="36.82019767351448535919189453125" lon="-118.54852340184152126312255859375">
        <ele>1942.5999755859375</ele>
        <time>2021-06-28T17:28:45.000Z</time>
        <extensions>
          <ns3:TrackPointExtension>
            <ns3:atemp>34.0</ns3:atemp>
            <ns3:hr>93</ns3:hr>
          </ns3:TrackPointExtension>
        </extensions>
      </trkpt>
      <trkpt lat="36.8201970867812633514404296875" lon="-118.54852424003183841705322265625">
        <ele>1942.5999755859375</ele>
        <time>2021-06-28T17:28:48.000Z</time>
        <extensions>
          <ns3:TrackPointExtension>
            <ns3:atemp>34.0</ns3:atemp>
            <ns3:hr>89</ns3:hr>
          </ns3:TrackPointExtension>
        </extensions>
      </trkpt>
      <trkpt lat="36.82018577121198177337646484375" lon="-118.548524491488933563232421875">
        <ele>1942.4000244140625</ele>
        <time>2021-06-28T17:28:56.000Z</time>
        <extensions>
          <ns3:TrackPointExtension>
            <ns3:atemp>34.0</ns3:atemp>
            <ns3:hr>88</ns3:hr>
          </ns3:TrackPointExtension>
        </extensions>
      </trkpt>
      <trkpt lat="36.8201830051839351654052734375" lon="-118.548524491488933563232421875">
        <ele>1942.4000244140625</ele>
        <time>2021-06-28T17:28:58.000Z</time>
        <extensions>
          <ns3:TrackPointExtension>
            <ns3:atemp>34.0</ns3:atemp>
            <ns3:hr>83</ns3:hr>
          </ns3:TrackPointExtension>
        </extensions>
      </trkpt>
      <trkpt lat="36.820182166993618011474609375" lon="-118.548524491488933563232421875">
        <ele>1942.4000244140625</ele>
        <time>2021-06-28T17:29:00.000Z</time>
        <extensions>
          <ns3:TrackPointExtension>
            <ns3:atemp>35.0</ns3:atemp>
            <ns3:hr>80</ns3:hr>
          </ns3:TrackPointExtension>
        </extensions>
      </trkpt>
      <trkpt lat="36.8201625533401966094970703125" lon="-118.5484757088124752044677734375">
        <ele>1942</ele>
        <time>2021-06-28T17:29:12.000Z</time>
        <extensions>
          <ns3:TrackPointExtension>
            <ns3:atemp>35.0</ns3:atemp>
            <ns3:hr>83</ns3:hr>
          </ns3:TrackPointExtension>
        </extensions>
      </trkpt>
      <trkpt lat="36.820159368216991424560546875" lon="-118.54845852591097354888916015625">
        <ele>1942.199951171875</ele>
        <time>2021-06-28T17:29:17.000Z</time>
        <extensions>
          <ns3:TrackPointExtension>
            <ns3:atemp>35.0</ns3:atemp>
            <ns3:hr>86</ns3:hr>
          </ns3:TrackPointExtension>
        </extensions>
      </trkpt>
      <trkpt lat="36.82016464881598949432373046875" lon="-118.54844578541815280914306640625">
        <ele>1941.800048828125</ele>
        <time>2021-06-28T17:29:28.000Z</time>
        <extensions>
          <ns3:TrackPointExtension>
            <ns3:atemp>35.0</ns3:atemp>
            <ns3:hr>85</ns3:hr>
          </ns3:TrackPointExtension>
        </extensions>
      </trkpt>
      <trkpt lat="36.8201665766537189483642578125" lon="-118.5484472103416919708251953125">
        <ele>1941.800048828125</ele>
        <time>2021-06-28T17:29:35.000Z</time>
        <extensions>
          <ns3:TrackPointExtension>
            <ns3:atemp>35.0</ns3:atemp>
            <ns3:hr>82</ns3:hr>
          </ns3:TrackPointExtension>
        </extensions>
      </trkpt>
      <trkpt lat="36.8201558478176593780517578125" lon="-118.54845215566456317901611328125">
        <ele>1941.800048828125</ele>
        <time>2021-06-28T17:29:38.000Z</time>
        <extensions>
          <ns3:TrackPointExtension>
            <ns3:atemp>35.0</ns3:atemp>
            <ns3:hr>80</ns3:hr>
          </ns3:TrackPointExtension>
        </extensions>
      </trkpt>
      <trkpt lat="36.82013145647943019866943359375" lon="-118.54852256365120410919189453125">
        <ele>1941.4000244140625</ele>
        <time>2021-06-28T17:29:46.000Z</time>
        <extensions>
          <ns3:TrackPointExtension>
            <ns3:atemp>35.0</ns3:atemp>
            <ns3:hr>80</ns3:hr>
          </ns3:TrackPointExtension>
        </extensions>
      </trkpt>
      <trkpt lat="36.82012416422367095947265625" lon="-118.548528514802455902099609375">
        <ele>1941.4000244140625</ele>
        <time>2021-06-28T17:29:47.000Z</time>
        <extensions>
          <ns3:TrackPointExtension>
            <ns3:atemp>35.0</ns3:atemp>
            <ns3:hr>80</ns3:hr>
          </ns3:TrackPointExtension>
        </extensions>
      </trkpt>
      <trkpt lat="36.8200726993381977081298828125" lon="-118.5485705919563770294189453125">
        <ele>1940.199951171875</ele>
        <time>2021-06-28T17:29:54.000Z</time>
        <extensions>
          <ns3:TrackPointExtension>
            <ns3:atemp>35.0</ns3:atemp>
            <ns3:hr>81</ns3:hr>
          </ns3:TrackPointExtension>
        </extensions>
      </trkpt>
      <trkpt lat="36.8200577795505523681640625" lon="-118.54859816841781139373779296875">
        <ele>1938.5999755859375</ele>
        <time>2021-06-28T17:29:59.000Z</time>
        <extensions>
          <ns3:TrackPointExtension>
            <ns3:atemp>35.0</ns3:atemp>
            <ns3:hr>81</ns3:hr>
          </ns3:TrackPointExtension>
        </extensions>
      </trkpt>
      <trkpt lat="36.82004093192517757415771484375" lon="-118.548615016043186187744140625">
        <ele>1938.5999755859375</ele>
        <time>2021-06-28T17:30:00.000Z</time>
        <extensions>
          <ns3:TrackPointExtension>
            <ns3:atemp>35.0</ns3:atemp>
            <ns3:hr>81</ns3:hr>
          </ns3:TrackPointExtension>
        </extensions>
      </trkpt>
      <trkpt lat="36.82003053836524486541748046875" lon="-118.54862473905086517333984375">
        <ele>1938.4000244140625</ele>
        <time>2021-06-28T17:30:01.000Z</time>
        <extensions>
          <ns3:TrackPointExtension>
            <ns3:atemp>35.0</ns3:atemp>
            <ns3:hr>81</ns3:hr>
          </ns3:TrackPointExtension>
        </extensions>
      </trkpt>
      <trkpt lat="36.8200049735605716705322265625" lon="-118.54864410124719142913818359375">
        <ele>1938.199951171875</ele>
        <time>2021-06-28T17:30:03.000Z</time>
        <extensions>
          <ns3:TrackPointExtension>
            <ns3:atemp>35.0</ns3:atemp>
            <ns3:hr>81</ns3:hr>
          </ns3:TrackPointExtension>
        </extensions>
      </trkpt>
      <trkpt lat="36.81998259387910366058349609375" lon="-118.5486557520925998687744140625">
        <ele>1937.800048828125</ele>
        <time>2021-06-28T17:30:05.000Z</time>
        <extensions>
          <ns3:TrackPointExtension>
            <ns3:atemp>35.0</ns3:atemp>
            <ns3:hr>81</ns3:hr>
          </ns3:TrackPointExtension>
        </extensions>
      </trkpt>
      <trkpt lat="36.8199657462537288665771484375" lon="-118.5486641339957714080810546875">
        <ele>1937.4000244140625</ele>
        <time>2021-06-28T17:30:07.000Z</time>
        <extensions>
          <ns3:TrackPointExtension>
            <ns3:atemp>35.0</ns3:atemp>
            <ns3:hr>82</ns3:hr>
          </ns3:TrackPointExtension>
        </extensions>
      </trkpt>
      <trkpt lat="36.81992274709045886993408203125" lon="-118.548673354089260101318359375">
        <ele>1935.800048828125</ele>
        <time>2021-06-28T17:30:10.000Z</time>
        <extensions>
          <ns3:TrackPointExtension>
            <ns3:atemp>35.0</ns3:atemp>
            <ns3:hr>82</ns3:hr>
          </ns3:TrackPointExtension>
        </extensions>
      </trkpt>
      <trkpt lat="36.81989592500030994415283203125" lon="-118.5486899502575397491455078125">
        <ele>1935.199951171875</ele>
        <time>2021-06-28T17:30:13.000Z</time>
        <extensions>
          <ns3:TrackPointExtension>
            <ns3:atemp>35.0</ns3:atemp>
            <ns3:hr>82</ns3:hr>
          </ns3:TrackPointExtension>
        </extensions>
      </trkpt>
      <trkpt lat="36.81989072822034358978271484375" lon="-118.54869849979877471923828125">
        <ele>1934.5999755859375</ele>
        <time>2021-06-28T17:30:14.000Z</time>
        <extensions>
          <ns3:TrackPointExtension>
            <ns3:atemp>35.0</ns3:atemp>
            <ns3:hr>83</ns3:hr>
          </ns3:TrackPointExtension>
        </extensions>
      </trkpt>
      <trkpt lat="36.81988335214555263519287109375" lon="-118.54870009236037731170654296875">
        <ele>1934.4000244140625</ele>
        <time>2021-06-28T17:30:15.000Z</time>
        <extensions>
          <ns3:TrackPointExtension>
            <ns3:atemp>35.0</ns3:atemp>
            <ns3:hr>84</ns3:hr>
          </ns3:TrackPointExtension>
        </extensions>
      </trkpt>
      <trkpt lat="36.819881089031696319580078125" lon="-118.5486996732652187347412109375">
        <ele>1933.5999755859375</ele>
        <time>2021-06-28T17:30:17.000Z</time>
        <extensions>
          <ns3:TrackPointExtension>
            <ns3:atemp>35.0</ns3:atemp>
            <ns3:hr>85</ns3:hr>
          </ns3:TrackPointExtension>
        </extensions>
      </trkpt>
      <trkpt lat="36.819881089031696319580078125" lon="-118.5486996732652187347412109375">
        <ele>1933.4000244140625</ele>
        <time>2021-06-28T17:30:18.000Z</time>
        <extensions>
          <ns3:TrackPointExtension>
            <ns3:atemp>35.0</ns3:atemp>
            <ns3:hr>86</ns3:hr>
          </ns3:TrackPointExtension>
        </extensions>
      </trkpt>
      <trkpt lat="36.8198698572814464569091796875" lon="-118.548708893358707427978515625">
        <ele>1933</ele>
        <time>2021-06-28T17:30:20.000Z</time>
        <extensions>
          <ns3:TrackPointExtension>
            <ns3:atemp>35.0</ns3:atemp>
            <ns3:hr>89</ns3:hr>
          </ns3:TrackPointExtension>
        </extensions>
      </trkpt>
      <trkpt lat="36.81986524723470211029052734375" lon="-118.5487164370715618133544921875">
        <ele>1932.800048828125</ele>
        <time>2021-06-28T17:30:21.000Z</time>
        <extensions>
          <ns3:TrackPointExtension>
            <ns3:atemp>35.0</ns3:atemp>
            <ns3:hr>90</ns3:hr>
          </ns3:TrackPointExtension>
        </extensions>
      </trkpt>
      <trkpt lat="36.81982920505106449127197265625" lon="-118.5487519763410091400146484375">
        <ele>1932.4000244140625</ele>
        <time>2021-06-28T17:30:26.000Z</time>
        <extensions>
          <ns3:TrackPointExtension>
            <ns3:atemp>35.0</ns3:atemp>
            <ns3:hr>90</ns3:hr>
          </ns3:TrackPointExtension>
        </extensions>
      </trkpt>
      <trkpt lat="36.819822080433368682861328125" lon="-118.54877569712698459625244140625">
        <ele>1932.4000244140625</ele>
        <time>2021-06-28T17:30:28.000Z</time>
        <extensions>
          <ns3:TrackPointExtension>
            <ns3:atemp>35.0</ns3:atemp>
            <ns3:hr>89</ns3:hr>
          </ns3:TrackPointExtension>
        </extensions>
      </trkpt>
      <trkpt lat="36.81981177069246768951416015625" lon="-118.54880838654935359954833984375">
        <ele>1932.199951171875</ele>
        <time>2021-06-28T17:30:31.000Z</time>
        <extensions>
          <ns3:TrackPointExtension>
            <ns3:atemp>35.0</ns3:atemp>
            <ns3:hr>86</ns3:hr>
          </ns3:TrackPointExtension>
        </extensions>
      </trkpt>
      <trkpt lat="36.81979098357260227203369140625" lon="-118.54882481507956981658935546875">
        <ele>1932</ele>
        <time>2021-06-28T17:30:34.000Z</time>
        <extensions>
          <ns3:TrackPointExtension>
            <ns3:atemp>35.0</ns3:atemp>
            <ns3:hr>83</ns3:hr>
          </ns3:TrackPointExtension>
        </extensions>
      </trkpt>
      <trkpt lat="36.81977421976625919342041015625" lon="-118.5488274134695529937744140625">
        <ele>1931.4000244140625</ele>
        <time>2021-06-28T17:30:36.000Z</time>
        <extensions>
          <ns3:TrackPointExtension>
            <ns3:atemp>35.0</ns3:atemp>
            <ns3:hr>80</ns3:hr>
          </ns3:TrackPointExtension>
        </extensions>
      </trkpt>
      <trkpt lat="36.81975075043737888336181640625" lon="-118.5488133318722248077392578125">
        <ele>1931</ele>
        <time>2021-06-28T17:30:39.000Z</time>
        <extensions>
          <ns3:TrackPointExtension>
            <ns3:atemp>35.0</ns3:atemp>
            <ns3:hr>78</ns3:hr>
          </ns3:TrackPointExtension>
        </extensions>
      </trkpt>
      <trkpt lat="36.8197166360914707183837890625" lon="-118.54880620725452899932861328125">
        <ele>1930.800048828125</ele>
        <time>2021-06-28T17:30:42.000Z</time>
        <extensions>
          <ns3:TrackPointExtension>
            <ns3:atemp>35.0</ns3:atemp>
            <ns3:hr>78</ns3:hr>
          </ns3:TrackPointExtension>
        </extensions>
      </trkpt>
      <trkpt lat="36.81968134827911853790283203125" lon="-118.5488064587116241455078125">
        <ele>1930.199951171875</ele>
        <time>2021-06-28T17:30:45.000Z</time>
        <extensions>
          <ns3:TrackPointExtension>
            <ns3:atemp>35.0</ns3:atemp>
            <ns3:hr>80</ns3:hr>
          </ns3:TrackPointExtension>
        </extensions>
      </trkpt>
      <trkpt lat="36.81968134827911853790283203125" lon="-118.5488064587116241455078125">
        <ele>1930.199951171875</ele>
        <time>2021-06-28T17:30:46.000Z</time>
        <extensions>
          <ns3:TrackPointExtension>
            <ns3:atemp>35.0</ns3:atemp>
            <ns3:hr>75</ns3:hr>
          </ns3:TrackPointExtension>
        </extensions>
      </trkpt>
      <trkpt lat="36.81966952979564666748046875" lon="-118.5488106496632099151611328125">
        <ele>1930.199951171875</ele>
        <time>2021-06-28T17:30:47.000Z</time>
        <extensions>
          <ns3:TrackPointExtension>
            <ns3:atemp>35.0</ns3:atemp>
            <ns3:hr>80</ns3:hr>
          </ns3:TrackPointExtension>
        </extensions>
      </trkpt>
      <trkpt lat="36.81963977403938770294189453125" lon="-118.54881106875836849212646484375">
        <ele>1930.199951171875</ele>
        <time>2021-06-28T17:30:49.000Z</time>
        <extensions>
          <ns3:TrackPointExtension>
            <ns3:atemp>35.0</ns3:atemp>
            <ns3:hr>83</ns3:hr>
          </ns3:TrackPointExtension>
        </extensions>
      </trkpt>
      <trkpt lat="36.81959384121000766754150390625" lon="-118.54881785809993743896484375">
        <ele>1929.199951171875</ele>
        <time>2021-06-28T17:30:53.000Z</time>
        <extensions>
          <ns3:TrackPointExtension>
            <ns3:atemp>35.0</ns3:atemp>
            <ns3:hr>83</ns3:hr>
          </ns3:TrackPointExtension>
        </extensions>
      </trkpt>
      <trkpt lat="36.8195821903645992279052734375" lon="-118.54881559498608112335205078125">
        <ele>1929.199951171875</ele>
        <time>2021-06-28T17:30:54.000Z</time>
        <extensions>
          <ns3:TrackPointExtension>
            <ns3:atemp>35.0</ns3:atemp>
            <ns3:hr>83</ns3:hr>
          </ns3:TrackPointExtension>
        </extensions>
      </trkpt>
      <trkpt lat="36.81948454119265079498291015625" lon="-118.5488260723650455474853515625">
        <ele>1928.199951171875</ele>
        <time>2021-06-28T17:31:02.000Z</time>
        <extensions>
          <ns3:TrackPointExtension>
            <ns3:atemp>35.0</ns3:atemp>
            <ns3:hr>85</ns3:hr>
          </ns3:TrackPointExtension>
        </extensions>
      </trkpt>
      <trkpt lat="36.819470711052417755126953125" lon="-118.54883034713566303253173828125">
        <ele>1928.199951171875</ele>
        <time>2021-06-28T17:31:03.000Z</time>
        <extensions>
          <ns3:TrackPointExtension>
            <ns3:atemp>35.0</ns3:atemp>
            <ns3:hr>86</ns3:hr>
          </ns3:TrackPointExtension>
        </extensions>
      </trkpt>
      <trkpt lat="36.819409690797328948974609375" lon="-118.5488508827984333038330078125">
        <ele>1928.199951171875</ele>
        <time>2021-06-28T17:31:07.000Z</time>
        <extensions>
          <ns3:TrackPointExtension>
            <ns3:atemp>35.0</ns3:atemp>
            <ns3:hr>83</ns3:hr>
          </ns3:TrackPointExtension>
        </extensions>
      </trkpt>
      <trkpt lat="36.8193984590470790863037109375" lon="-118.5488592647016048431396484375">
        <ele>1928.199951171875</ele>
        <time>2021-06-28T17:31:09.000Z</time>
        <extensions>
          <ns3:TrackPointExtension>
            <ns3:atemp>35.0</ns3:atemp>
            <ns3:hr>82</ns3:hr>
          </ns3:TrackPointExtension>
        </extensions>
      </trkpt>
      <trkpt lat="36.81939217261970043182373046875" lon="-118.548861779272556304931640625">
        <ele>1928</ele>
        <time>2021-06-28T17:31:11.000Z</time>
        <extensions>
          <ns3:TrackPointExtension>
            <ns3:atemp>35.0</ns3:atemp>
            <ns3:hr>80</ns3:hr>
          </ns3:TrackPointExtension>
        </extensions>
      </trkpt>
      <trkpt lat="36.81933031417429447174072265625" lon="-118.548882901668548583984375">
        <ele>1927</ele>
        <time>2021-06-28T17:31:17.000Z</time>
        <extensions>
          <ns3:TrackPointExtension>
            <ns3:atemp>35.0</ns3:atemp>
            <ns3:hr>79</ns3:hr>
          </ns3:TrackPointExtension>
        </extensions>
      </trkpt>
      <trkpt lat="36.81930013932287693023681640625" lon="-118.54888617061078548431396484375">
        <ele>1926.4000244140625</ele>
        <time>2021-06-28T17:31:20.000Z</time>
        <extensions>
          <ns3:TrackPointExtension>
            <ns3:atemp>35.0</ns3:atemp>
            <ns3:hr>78</ns3:hr>
          </ns3:TrackPointExtension>
        </extensions>
      </trkpt>
      <trkpt lat="36.81927432306110858917236328125" lon="-118.54888952337205410003662109375">
        <ele>1925.5999755859375</ele>
        <time>2021-06-28T17:31:22.000Z</time>
        <extensions>
          <ns3:TrackPointExtension>
            <ns3:atemp>35.0</ns3:atemp>
            <ns3:hr>79</ns3:hr>
          </ns3:TrackPointExtension>
        </extensions>
      </trkpt>
      <trkpt lat="36.8192489258944988250732421875" lon="-118.54886035434901714324951171875">
        <ele>1924.800048828125</ele>
        <time>2021-06-28T17:31:25.000Z</time>
        <extensions>
          <ns3:TrackPointExtension>
            <ns3:atemp>35.0</ns3:atemp>
            <ns3:hr>80</ns3:hr>
          </ns3:TrackPointExtension>
        </extensions>
      </trkpt>
      <trkpt lat="36.81924465112388134002685546875" lon="-118.54885364882647991180419921875">
        <ele>1924.4000244140625</ele>
        <time>2021-06-28T17:31:26.000Z</time>
        <extensions>
          <ns3:TrackPointExtension>
            <ns3:atemp>35.0</ns3:atemp>
            <ns3:hr>80</ns3:hr>
          </ns3:TrackPointExtension>
        </extensions>
      </trkpt>
      <trkpt lat="36.81924439966678619384765625" lon="-118.548849709331989288330078125">
        <ele>1924.4000244140625</ele>
        <time>2021-06-28T17:31:27.000Z</time>
        <extensions>
          <ns3:TrackPointExtension>
            <ns3:atemp>35.0</ns3:atemp>
            <ns3:hr>80</ns3:hr>
          </ns3:TrackPointExtension>
        </extensions>
      </trkpt>
      <trkpt lat="36.8192492611706256866455078125" lon="-118.54885004460811614990234375">
        <ele>1924.4000244140625</ele>
        <time>2021-06-28T17:31:28.000Z</time>
        <extensions>
          <ns3:TrackPointExtension>
            <ns3:atemp>35.0</ns3:atemp>
            <ns3:hr>81</ns3:hr>
          </ns3:TrackPointExtension>
        </extensions>
      </trkpt>
      <trkpt lat="36.81925387121737003326416015625" lon="-118.5488823987543582916259765625">
        <ele>1924.5999755859375</ele>
        <time>2021-06-28T17:31:31.000Z</time>
        <extensions>
          <ns3:TrackPointExtension>
            <ns3:atemp>35.0</ns3:atemp>
            <ns3:hr>83</ns3:hr>
          </ns3:TrackPointExtension>
        </extensions>
      </trkpt>
      <trkpt lat="36.81925068609416484832763671875" lon="-118.54888231493532657623291015625">
        <ele>1924.4000244140625</ele>
        <time>2021-06-28T17:31:39.000Z</time>
        <extensions>
          <ns3:TrackPointExtension>
            <ns3:atemp>35.0</ns3:atemp>
            <ns3:hr>83</ns3:hr>
          </ns3:TrackPointExtension>
        </extensions>
      </trkpt>
      <trkpt lat="36.8192556314170360565185546875" lon="-118.54888147674500942230224609375">
        <ele>1924.4000244140625</ele>
        <time>2021-06-28T17:31:45.000Z</time>
        <extensions>
          <ns3:TrackPointExtension>
            <ns3:atemp>35.0</ns3:atemp>
            <ns3:hr>86</ns3:hr>
          </ns3:TrackPointExtension>
        </extensions>
      </trkpt>
      <trkpt lat="36.81927281431853771209716796875" lon="-118.54887560941278934478759765625">
        <ele>1924</ele>
        <time>2021-06-28T17:31:54.000Z</time>
        <extensions>
          <ns3:TrackPointExtension>
            <ns3:atemp>36.0</ns3:atemp>
            <ns3:hr>83</ns3:hr>
          </ns3:TrackPointExtension>
        </extensions>
      </trkpt>
      <trkpt lat="36.81928505189716815948486328125" lon="-118.5488699935376644134521484375">
        <ele>1924</ele>
        <time>2021-06-28T17:31:55.000Z</time>
        <extensions>
          <ns3:TrackPointExtension>
            <ns3:atemp>36.0</ns3:atemp>
            <ns3:hr>83</ns3:hr>
          </ns3:TrackPointExtension>
        </extensions>
      </trkpt>
      <trkpt lat="36.819311790168285369873046875" lon="-118.54886219836771488189697265625">
        <ele>1923.4000244140625</ele>
        <time>2021-06-28T17:31:57.000Z</time>
        <extensions>
          <ns3:TrackPointExtension>
            <ns3:atemp>36.0</ns3:atemp>
            <ns3:hr>86</ns3:hr>
          </ns3:TrackPointExtension>
        </extensions>
      </trkpt>
      <trkpt lat="36.81933098472654819488525390625" lon="-118.54885540902614593505859375">
        <ele>1923.4000244140625</ele>
        <time>2021-06-28T17:31:58.000Z</time>
        <extensions>
          <ns3:TrackPointExtension>
            <ns3:atemp>36.0</ns3:atemp>
            <ns3:hr>87</ns3:hr>
          </ns3:TrackPointExtension>
        </extensions>
      </trkpt>
      <trkpt lat="36.8193592317402362823486328125" lon="-118.5488371364772319793701171875">
        <ele>1923.199951171875</ele>
        <time>2021-06-28T17:32:00.000Z</time>
        <extensions>
          <ns3:TrackPointExtension>
            <ns3:atemp>36.0</ns3:atemp>
            <ns3:hr>85</ns3:hr>
          </ns3:TrackPointExtension>
        </extensions>
      </trkpt>
      <trkpt lat="36.81937046349048614501953125" lon="-118.54883319698274135589599609375">
        <ele>1923</ele>
        <time>2021-06-28T17:32:02.000Z</time>
        <extensions>
          <ns3:TrackPointExtension>
            <ns3:atemp>36.0</ns3:atemp>
            <ns3:hr>83</ns3:hr>
          </ns3:TrackPointExtension>
        </extensions>
      </trkpt>
      <trkpt lat="36.81937758810818195343017578125" lon="-118.54881123639643192291259765625">
        <ele>1922.800048828125</ele>
        <time>2021-06-28T17:32:03.000Z</time>
        <extensions>
          <ns3:TrackPointExtension>
            <ns3:atemp>36.0</ns3:atemp>
            <ns3:hr>81</ns3:hr>
          </ns3:TrackPointExtension>
        </extensions>
      </trkpt>
      <trkpt lat="36.8193629197776317596435546875" lon="-118.54880352504551410675048828125">
        <ele>1922.800048828125</ele>
        <time>2021-06-28T17:32:05.000Z</time>
        <extensions>
          <ns3:TrackPointExtension>
            <ns3:atemp>36.0</ns3:atemp>
            <ns3:hr>79</ns3:hr>
          </ns3:TrackPointExtension>
        </extensions>
      </trkpt>
      <trkpt lat="36.81935462169349193572998046875" lon="-118.5488059557974338531494140625">
        <ele>1922.199951171875</ele>
        <time>2021-06-28T17:32:06.000Z</time>
        <extensions>
          <ns3:TrackPointExtension>
            <ns3:atemp>36.0</ns3:atemp>
            <ns3:hr>78</ns3:hr>
          </ns3:TrackPointExtension>
        </extensions>
      </trkpt>
      <trkpt lat="36.8193461559712886810302734375" lon="-118.54880704544484615325927734375">
        <ele>1922</ele>
        <time>2021-06-28T17:32:07.000Z</time>
        <extensions>
          <ns3:TrackPointExtension>
            <ns3:atemp>36.0</ns3:atemp>
            <ns3:hr>77</ns3:hr>
          </ns3:TrackPointExtension>
        </extensions>
      </trkpt>
      <trkpt lat="36.819273568689823150634765625" lon="-118.5487865097820758819580078125">
        <ele>1921.199951171875</ele>
        <time>2021-06-28T17:32:15.000Z</time>
        <extensions>
          <ns3:TrackPointExtension>
            <ns3:atemp>36.0</ns3:atemp>
            <ns3:hr>78</ns3:hr>
          </ns3:TrackPointExtension>
        </extensions>
      </trkpt>
      <trkpt lat="36.8192656897008419036865234375" lon="-118.54878894053399562835693359375">
        <ele>1921</ele>
        <time>2021-06-28T17:32:16.000Z</time>
        <extensions>
          <ns3:TrackPointExtension>
            <ns3:atemp>36.0</ns3:atemp>
            <ns3:hr>78</ns3:hr>
          </ns3:TrackPointExtension>
        </extensions>
      </trkpt>
      <trkpt lat="36.81924347765743732452392578125" lon="-118.54878961108624935150146484375">
        <ele>1920</ele>
        <time>2021-06-28T17:32:18.000Z</time>
        <extensions>
          <ns3:TrackPointExtension>
            <ns3:atemp>36.0</ns3:atemp>
            <ns3:hr>79</ns3:hr>
          </ns3:TrackPointExtension>
        </extensions>
      </trkpt>
      <trkpt lat="36.8191996403038501739501953125" lon="-118.5487844981253147125244140625">
        <ele>1919.5999755859375</ele>
        <time>2021-06-28T17:32:23.000Z</time>
        <extensions>
          <ns3:TrackPointExtension>
            <ns3:atemp>36.0</ns3:atemp>
            <ns3:hr>78</ns3:hr>
          </ns3:TrackPointExtension>
        </extensions>
      </trkpt>
      <trkpt lat="36.819182373583316802978515625" lon="-118.54877360165119171142578125">
        <ele>1919.4000244140625</ele>
        <time>2021-06-28T17:32:25.000Z</time>
        <extensions>
          <ns3:TrackPointExtension>
            <ns3:atemp>36.0</ns3:atemp>
            <ns3:hr>77</ns3:hr>
          </ns3:TrackPointExtension>
        </extensions>
      </trkpt>
      <trkpt lat="36.81916954927146434783935546875" lon="-118.54878089390695095062255859375">
        <ele>1918.5999755859375</ele>
        <time>2021-06-28T17:32:27.000Z</time>
        <extensions>
          <ns3:TrackPointExtension>
            <ns3:atemp>36.0</ns3:atemp>
            <ns3:hr>76</ns3:hr>
          </ns3:TrackPointExtension>
        </extensions>
      </trkpt>
      <trkpt lat="36.8191718123853206634521484375" lon="-118.54878609068691730499267578125">
        <ele>1918.4000244140625</ele>
        <time>2021-06-28T17:32:29.000Z</time>
        <extensions>
          <ns3:TrackPointExtension>
            <ns3:atemp>36.0</ns3:atemp>
            <ns3:hr>76</ns3:hr>
          </ns3:TrackPointExtension>
        </extensions>
      </trkpt>
      <trkpt lat="36.8191594071686267852783203125" lon="-118.54876010678708553314208984375">
        <ele>1918.199951171875</ele>
        <time>2021-06-28T17:32:32.000Z</time>
        <extensions>
          <ns3:TrackPointExtension>
            <ns3:atemp>36.0</ns3:atemp>
            <ns3:hr>75</ns3:hr>
          </ns3:TrackPointExtension>
        </extensions>
      </trkpt>
      <trkpt lat="36.8191573955118656158447265625" lon="-118.5487608611583709716796875">
        <ele>1917.800048828125</ele>
        <time>2021-06-28T17:32:33.000Z</time>
        <extensions>
          <ns3:TrackPointExtension>
            <ns3:atemp>36.0</ns3:atemp>
            <ns3:hr>75</ns3:hr>
          </ns3:TrackPointExtension>
        </extensions>
      </trkpt>
      <trkpt lat="36.81915127672255039215087890625" lon="-118.548755832016468048095703125">
        <ele>1917.5999755859375</ele>
        <time>2021-06-28T17:32:34.000Z</time>
        <extensions>
          <ns3:TrackPointExtension>
            <ns3:atemp>36.0</ns3:atemp>
            <ns3:hr>75</ns3:hr>
          </ns3:TrackPointExtension>
        </extensions>
      </trkpt>
      <trkpt lat="36.81914188899099826812744140625" lon="-118.54874652810394763946533203125">
        <ele>1917.5999755859375</ele>
        <time>2021-06-28T17:32:35.000Z</time>
        <extensions>
          <ns3:TrackPointExtension>
            <ns3:atemp>36.0</ns3:atemp>
            <ns3:hr>75</ns3:hr>
          </ns3:TrackPointExtension>
        </extensions>
      </trkpt>
      <trkpt lat="36.81910065002739429473876953125" lon="-118.5487402416765689849853515625">
        <ele>1916.5999755859375</ele>
        <time>2021-06-28T17:32:38.000Z</time>
        <extensions>
          <ns3:TrackPointExtension>
            <ns3:atemp>36.0</ns3:atemp>
            <ns3:hr>75</ns3:hr>
          </ns3:TrackPointExtension>
        </extensions>
      </trkpt>
      <trkpt lat="36.81908807717263698577880859375" lon="-118.548741750419139862060546875">
        <ele>1915.5999755859375</ele>
        <time>2021-06-28T17:32:39.000Z</time>
        <extensions>
          <ns3:TrackPointExtension>
            <ns3:atemp>36.0</ns3:atemp>
            <ns3:hr>75</ns3:hr>
          </ns3:TrackPointExtension>
        </extensions>
      </trkpt>
      <trkpt lat="36.81908807717263698577880859375" lon="-118.548741750419139862060546875">
        <ele>1915.5999755859375</ele>
        <time>2021-06-28T17:32:40.000Z</time>
        <extensions>
          <ns3:TrackPointExtension>
            <ns3:atemp>36.0</ns3:atemp>
            <ns3:hr>75</ns3:hr>
          </ns3:TrackPointExtension>
        </extensions>
      </trkpt>
      <trkpt lat="36.81904130615293979644775390625" lon="-118.5487808100879192352294921875">
        <ele>1914.800048828125</ele>
        <time>2021-06-28T17:32:45.000Z</time>
        <extensions>
          <ns3:TrackPointExtension>
            <ns3:atemp>36.0</ns3:atemp>
            <ns3:hr>78</ns3:hr>
          </ns3:TrackPointExtension>
        </extensions>
      </trkpt>
      <trkpt lat="36.81903426535427570343017578125" lon="-118.5487885214388370513916015625">
        <ele>1914.4000244140625</ele>
        <time>2021-06-28T17:32:46.000Z</time>
        <extensions>
          <ns3:TrackPointExtension>
            <ns3:atemp>36.0</ns3:atemp>
            <ns3:hr>76</ns3:hr>
          </ns3:TrackPointExtension>
        </extensions>
      </trkpt>
      <trkpt lat="36.81900970637798309326171875" lon="-118.5488140024244785308837890625">
        <ele>1913.5999755859375</ele>
        <time>2021-06-28T17:32:49.000Z</time>
        <extensions>
          <ns3:TrackPointExtension>
            <ns3:atemp>36.0</ns3:atemp>
            <ns3:hr>78</ns3:hr>
          </ns3:TrackPointExtension>
        </extensions>
      </trkpt>
      <trkpt lat="36.8189877457916736602783203125" lon="-118.54880033992230892181396484375">
        <ele>1913.199951171875</ele>
        <time>2021-06-28T17:32:51.000Z</time>
        <extensions>
          <ns3:TrackPointExtension>
            <ns3:atemp>36.0</ns3:atemp>
            <ns3:hr>79</ns3:hr>
          </ns3:TrackPointExtension>
        </extensions>
      </trkpt>
      <trkpt lat="36.81898179464042186737060546875" lon="-118.5487794689834117889404296875">
        <ele>1912.800048828125</ele>
        <time>2021-06-28T17:32:55.000Z</time>
        <extensions>
          <ns3:TrackPointExtension>
            <ns3:atemp>36.0</ns3:atemp>
            <ns3:hr>82</ns3:hr>
          </ns3:TrackPointExtension>
        </extensions>
      </trkpt>
      <trkpt lat="36.81897425092756748199462890625" lon="-118.54877200908958911895751953125">
        <ele>1912.800048828125</ele>
        <time>2021-06-28T17:32:58.000Z</time>
        <extensions>
          <ns3:TrackPointExtension>
            <ns3:atemp>36.0</ns3:atemp>
            <ns3:hr>85</ns3:hr>
          </ns3:TrackPointExtension>
        </extensions>
      </trkpt>
      <trkpt lat="36.81894172914326190948486328125" lon="-118.548810817301273345947265625">
        <ele>1912.4000244140625</ele>
        <time>2021-06-28T17:33:02.000Z</time>
        <extensions>
          <ns3:TrackPointExtension>
            <ns3:atemp>36.0</ns3:atemp>
            <ns3:hr>86</ns3:hr>
          </ns3:TrackPointExtension>
        </extensions>
      </trkpt>
      <trkpt lat="36.81893527507781982421875" lon="-118.54882112704217433929443359375">
        <ele>1912</ele>
        <time>2021-06-28T17:33:03.000Z</time>
        <extensions>
          <ns3:TrackPointExtension>
            <ns3:atemp>36.0</ns3:atemp>
            <ns3:hr>87</ns3:hr>
          </ns3:TrackPointExtension>
        </extensions>
      </trkpt>
      <trkpt lat="36.81888422928750514984130859375" lon="-118.548835627734661102294921875">
        <ele>1910.800048828125</ele>
        <time>2021-06-28T17:33:08.000Z</time>
        <extensions>
          <ns3:TrackPointExtension>
            <ns3:atemp>36.0</ns3:atemp>
            <ns3:hr>87</ns3:hr>
          </ns3:TrackPointExtension>
        </extensions>
      </trkpt>
      <trkpt lat="36.81885824538767337799072265625" lon="-118.54888499714434146881103515625">
        <ele>1910</ele>
        <time>2021-06-28T17:33:13.000Z</time>
        <extensions>
          <ns3:TrackPointExtension>
            <ns3:atemp>36.0</ns3:atemp>
            <ns3:hr>84</ns3:hr>
          </ns3:TrackPointExtension>
        </extensions>
      </trkpt>
      <trkpt lat="36.8188392184674739837646484375" lon="-118.54890796355903148651123046875">
        <ele>1909.4000244140625</ele>
        <time>2021-06-28T17:33:16.000Z</time>
        <extensions>
          <ns3:TrackPointExtension>
            <ns3:atemp>36.0</ns3:atemp>
            <ns3:hr>84</ns3:hr>
          </ns3:TrackPointExtension>
        </extensions>
      </trkpt>
      <trkpt lat="36.81879571639001369476318359375" lon="-118.54893461801111698150634765625">
        <ele>1908.5999755859375</ele>
        <time>2021-06-28T17:33:21.000Z</time>
        <extensions>
          <ns3:TrackPointExtension>
            <ns3:atemp>36.0</ns3:atemp>
            <ns3:hr>85</ns3:hr>
          </ns3:TrackPointExtension>
        </extensions>
      </trkpt>
      <trkpt lat="36.81880493648350238800048828125" lon="-118.5489306785166263580322265625">
        <ele>1908.4000244140625</ele>
        <time>2021-06-28T17:33:23.000Z</time>
        <extensions>
          <ns3:TrackPointExtension>
            <ns3:atemp>36.0</ns3:atemp>
            <ns3:hr>84</ns3:hr>
          </ns3:TrackPointExtension>
        </extensions>
      </trkpt>
      <trkpt lat="36.8188123963773250579833984375" lon="-118.548932187259197235107421875">
        <ele>1908.199951171875</ele>
        <time>2021-06-28T17:33:24.000Z</time>
        <extensions>
          <ns3:TrackPointExtension>
            <ns3:atemp>36.0</ns3:atemp>
            <ns3:hr>84</ns3:hr>
          </ns3:TrackPointExtension>
        </extensions>
      </trkpt>
      <trkpt lat="36.81883159093558788299560546875" lon="-118.54889153502881526947021484375">
        <ele>1907</ele>
        <time>2021-06-28T17:33:29.000Z</time>
        <extensions>
          <ns3:TrackPointExtension>
            <ns3:atemp>36.0</ns3:atemp>
            <ns3:hr>82</ns3:hr>
          </ns3:TrackPointExtension>
        </extensions>
      </trkpt>
      <trkpt lat="36.81883293204009532928466796875" lon="-118.54888952337205410003662109375">
        <ele>1906.199951171875</ele>
        <time>2021-06-28T17:33:30.000Z</time>
        <extensions>
          <ns3:TrackPointExtension>
            <ns3:atemp>36.0</ns3:atemp>
            <ns3:hr>81</ns3:hr>
          </ns3:TrackPointExtension>
        </extensions>
      </trkpt>
      <trkpt lat="36.8188351951539516448974609375" lon="-118.5488844104111194610595703125">
        <ele>1906</ele>
        <time>2021-06-28T17:33:32.000Z</time>
        <extensions>
          <ns3:TrackPointExtension>
            <ns3:atemp>36.0</ns3:atemp>
            <ns3:hr>79</ns3:hr>
          </ns3:TrackPointExtension>
        </extensions>
      </trkpt>
      <trkpt lat="36.818836033344268798828125" lon="-118.54885197244584560394287109375">
        <ele>1905.4000244140625</ele>
        <time>2021-06-28T17:33:35.000Z</time>
        <extensions>
          <ns3:TrackPointExtension>
            <ns3:atemp>36.0</ns3:atemp>
            <ns3:hr>79</ns3:hr>
          </ns3:TrackPointExtension>
        </extensions>
      </trkpt>
      <trkpt lat="36.81882798671722412109375" lon="-118.5488252341747283935546875">
        <ele>1904.800048828125</ele>
        <time>2021-06-28T17:33:37.000Z</time>
        <extensions>
          <ns3:TrackPointExtension>
            <ns3:atemp>36.0</ns3:atemp>
            <ns3:hr>78</ns3:hr>
          </ns3:TrackPointExtension>
        </extensions>
      </trkpt>
      <trkpt lat="36.8188239634037017822265625" lon="-118.54880268685519695281982421875">
        <ele>1904.4000244140625</ele>
        <time>2021-06-28T17:33:39.000Z</time>
        <extensions>
          <ns3:TrackPointExtension>
            <ns3:atemp>36.0</ns3:atemp>
            <ns3:hr>78</ns3:hr>
          </ns3:TrackPointExtension>
        </extensions>
      </trkpt>
      <trkpt lat="36.81883544661104679107666015625" lon="-118.5487730987370014190673828125">
        <ele>1903.800048828125</ele>
        <time>2021-06-28T17:33:42.000Z</time>
        <extensions>
          <ns3:TrackPointExtension>
            <ns3:atemp>36.0</ns3:atemp>
            <ns3:hr>77</ns3:hr>
          </ns3:TrackPointExtension>
        </extensions>
      </trkpt>
      <trkpt lat="36.81884282268583774566650390625" lon="-118.54873563162982463836669921875">
        <ele>1903.199951171875</ele>
        <time>2021-06-28T17:33:46.000Z</time>
        <extensions>
          <ns3:TrackPointExtension>
            <ns3:atemp>36.0</ns3:atemp>
            <ns3:hr>78</ns3:hr>
          </ns3:TrackPointExtension>
        </extensions>
      </trkpt>
      <trkpt lat="36.8188087083399295806884765625" lon="-118.54876731522381305694580078125">
        <ele>1902.4000244140625</ele>
        <time>2021-06-28T17:33:51.000Z</time>
        <extensions>
          <ns3:TrackPointExtension>
            <ns3:atemp>36.0</ns3:atemp>
            <ns3:hr>79</ns3:hr>
          </ns3:TrackPointExtension>
        </extensions>
      </trkpt>
      <trkpt lat="36.8187889270484447479248046875" lon="-118.54876949451863765716552734375">
        <ele>1902.4000244140625</ele>
        <time>2021-06-28T17:33:52.000Z</time>
        <extensions>
          <ns3:TrackPointExtension>
            <ns3:atemp>36.0</ns3:atemp>
            <ns3:hr>79</ns3:hr>
          </ns3:TrackPointExtension>
        </extensions>
      </trkpt>
      <trkpt lat="36.81876420043408870697021484375" lon="-118.54876966215670108795166015625">
        <ele>1902</ele>
        <time>2021-06-28T17:33:54.000Z</time>
        <extensions>
          <ns3:TrackPointExtension>
            <ns3:atemp>36.0</ns3:atemp>
            <ns3:hr>79</ns3:hr>
          </ns3:TrackPointExtension>
        </extensions>
      </trkpt>
      <trkpt lat="36.81873251684010028839111328125" lon="-118.54881777428090572357177734375">
        <ele>1901.4000244140625</ele>
        <time>2021-06-28T17:33:58.000Z</time>
        <extensions>
          <ns3:TrackPointExtension>
            <ns3:atemp>36.0</ns3:atemp>
            <ns3:hr>78</ns3:hr>
          </ns3:TrackPointExtension>
        </extensions>
      </trkpt>
      <trkpt lat="36.81870887987315654754638671875" lon="-118.54886345565319061279296875">
        <ele>1900.199951171875</ele>
        <time>2021-06-28T17:34:03.000Z</time>
        <extensions>
          <ns3:TrackPointExtension>
            <ns3:atemp>36.0</ns3:atemp>
            <ns3:hr>75</ns3:hr>
          </ns3:TrackPointExtension>
        </extensions>
      </trkpt>
      <trkpt lat="36.81869261898100376129150390625" lon="-118.54886345565319061279296875">
        <ele>1900.199951171875</ele>
        <time>2021-06-28T17:34:05.000Z</time>
        <extensions>
          <ns3:TrackPointExtension>
            <ns3:atemp>36.0</ns3:atemp>
            <ns3:hr>75</ns3:hr>
          </ns3:TrackPointExtension>
        </extensions>
      </trkpt>
      <trkpt lat="36.81869613938033580780029296875" lon="-118.54882917366921901702880859375">
        <ele>1899.800048828125</ele>
        <time>2021-06-28T17:34:08.000Z</time>
        <extensions>
          <ns3:TrackPointExtension>
            <ns3:atemp>36.0</ns3:atemp>
            <ns3:hr>75</ns3:hr>
          </ns3:TrackPointExtension>
        </extensions>
      </trkpt>
      <trkpt lat="36.81869798339903354644775390625" lon="-118.5488193668425083160400390625">
        <ele>1899.199951171875</ele>
        <time>2021-06-28T17:34:10.000Z</time>
        <extensions>
          <ns3:TrackPointExtension>
            <ns3:atemp>36.0</ns3:atemp>
            <ns3:hr>77</ns3:hr>
          </ns3:TrackPointExtension>
        </extensions>
      </trkpt>
      <trkpt lat="36.8187032639980316162109375" lon="-118.54881341569125652313232421875">
        <ele>1899</ele>
        <time>2021-06-28T17:34:11.000Z</time>
        <extensions>
          <ns3:TrackPointExtension>
            <ns3:atemp>36.0</ns3:atemp>
            <ns3:hr>77</ns3:hr>
          </ns3:TrackPointExtension>
        </extensions>
      </trkpt>
      <trkpt lat="36.81867216713726520538330078125" lon="-118.54879816062748432159423828125">
        <ele>1897.800048828125</ele>
        <time>2021-06-28T17:34:17.000Z</time>
        <extensions>
          <ns3:TrackPointExtension>
            <ns3:atemp>36.0</ns3:atemp>
            <ns3:hr>80</ns3:hr>
          </ns3:TrackPointExtension>
        </extensions>
      </trkpt>
      <trkpt lat="36.81863193400204181671142578125" lon="-118.54881676845252513885498046875">
        <ele>1896.800048828125</ele>
        <time>2021-06-28T17:34:22.000Z</time>
        <extensions>
          <ns3:TrackPointExtension>
            <ns3:atemp>36.0</ns3:atemp>
            <ns3:hr>81</ns3:hr>
          </ns3:TrackPointExtension>
        </extensions>
      </trkpt>
      <trkpt lat="36.818613074719905853271484375" lon="-118.5488532297313213348388671875">
        <ele>1896</ele>
        <time>2021-06-28T17:34:25.000Z</time>
        <extensions>
          <ns3:TrackPointExtension>
            <ns3:atemp>36.0</ns3:atemp>
            <ns3:hr>81</ns3:hr>
          </ns3:TrackPointExtension>
        </extensions>
      </trkpt>
      <trkpt lat="36.81858717463910579681396484375" lon="-118.548846356570720672607421875">
        <ele>1895.5999755859375</ele>
        <time>2021-06-28T17:34:29.000Z</time>
        <extensions>
          <ns3:TrackPointExtension>
            <ns3:atemp>36.0</ns3:atemp>
            <ns3:hr>82</ns3:hr>
          </ns3:TrackPointExtension>
        </extensions>
      </trkpt>
      <trkpt lat="36.81858994066715240478515625" lon="-118.54882615618407726287841796875">
        <ele>1895.5999755859375</ele>
        <time>2021-06-28T17:34:30.000Z</time>
        <extensions>
          <ns3:TrackPointExtension>
            <ns3:atemp>36.0</ns3:atemp>
            <ns3:hr>81</ns3:hr>
          </ns3:TrackPointExtension>
        </extensions>
      </trkpt>
      <trkpt lat="36.81861340999603271484375" lon="-118.54873931966722011566162109375">
        <ele>1894.5999755859375</ele>
        <time>2021-06-28T17:34:37.000Z</time>
        <extensions>
          <ns3:TrackPointExtension>
            <ns3:atemp>36.0</ns3:atemp>
            <ns3:hr>82</ns3:hr>
          </ns3:TrackPointExtension>
        </extensions>
      </trkpt>
      <trkpt lat="36.81861785240471363067626953125" lon="-118.54871501214802265167236328125">
        <ele>1893.800048828125</ele>
        <time>2021-06-28T17:34:39.000Z</time>
        <extensions>
          <ns3:TrackPointExtension>
            <ns3:atemp>36.0</ns3:atemp>
            <ns3:hr>82</ns3:hr>
          </ns3:TrackPointExtension>
        </extensions>
      </trkpt>
      <trkpt lat="36.81861617602407932281494140625" lon="-118.5487036965787410736083984375">
        <ele>1893.5999755859375</ele>
        <time>2021-06-28T17:34:40.000Z</time>
        <extensions>
          <ns3:TrackPointExtension>
            <ns3:atemp>36.0</ns3:atemp>
            <ns3:hr>83</ns3:hr>
          </ns3:TrackPointExtension>
        </extensions>
      </trkpt>
      <trkpt lat="36.81861005723476409912109375" lon="-118.548684082925319671630859375">
        <ele>1893.199951171875</ele>
        <time>2021-06-28T17:34:41.000Z</time>
        <extensions>
          <ns3:TrackPointExtension>
            <ns3:atemp>36.0</ns3:atemp>
            <ns3:hr>83</ns3:hr>
          </ns3:TrackPointExtension>
        </extensions>
      </trkpt>
      <trkpt lat="36.81859455071389675140380859375" lon="-118.54864946566522121429443359375">
        <ele>1892.4000244140625</ele>
        <time>2021-06-28T17:34:46.000Z</time>
        <extensions>
          <ns3:TrackPointExtension>
            <ns3:atemp>36.0</ns3:atemp>
            <ns3:hr>84</ns3:hr>
          </ns3:TrackPointExtension>
        </extensions>
      </trkpt>
      <trkpt lat="36.81858566589653491973876953125" lon="-118.54864929802715778350830078125">
        <ele>1891.800048828125</ele>
        <time>2021-06-28T17:34:47.000Z</time>
        <extensions>
          <ns3:TrackPointExtension>
            <ns3:atemp>36.0</ns3:atemp>
            <ns3:hr>83</ns3:hr>
          </ns3:TrackPointExtension>
        </extensions>
      </trkpt>
      <trkpt lat="36.8185450136661529541015625" lon="-118.54866656474769115447998046875">
        <ele>1891.199951171875</ele>
        <time>2021-06-28T17:34:51.000Z</time>
        <extensions>
          <ns3:TrackPointExtension>
            <ns3:atemp>36.0</ns3:atemp>
            <ns3:hr>86</ns3:hr>
          </ns3:TrackPointExtension>
        </extensions>
      </trkpt>
      <trkpt lat="36.81854358874261379241943359375" lon="-118.54867637157440185546875">
        <ele>1891</ele>
        <time>2021-06-28T17:34:53.000Z</time>
        <extensions>
          <ns3:TrackPointExtension>
            <ns3:atemp>36.0</ns3:atemp>
            <ns3:hr>85</ns3:hr>
          </ns3:TrackPointExtension>
        </extensions>
      </trkpt>
      <trkpt lat="36.818535290658473968505859375" lon="-118.5487090609967708587646484375">
        <ele>1890.800048828125</ele>
        <time>2021-06-28T17:34:56.000Z</time>
        <extensions>
          <ns3:TrackPointExtension>
            <ns3:atemp>36.0</ns3:atemp>
            <ns3:hr>86</ns3:hr>
          </ns3:TrackPointExtension>
        </extensions>
      </trkpt>
      <trkpt lat="36.81853185407817363739013671875" lon="-118.54870461858808994293212890625">
        <ele>1890.5999755859375</ele>
        <time>2021-06-28T17:34:57.000Z</time>
        <extensions>
          <ns3:TrackPointExtension>
            <ns3:atemp>36.0</ns3:atemp>
            <ns3:hr>86</ns3:hr>
          </ns3:TrackPointExtension>
        </extensions>
      </trkpt>
      <trkpt lat="36.81853017769753932952880859375" lon="-118.5486966557800769805908203125">
        <ele>1890.199951171875</ele>
        <time>2021-06-28T17:34:59.000Z</time>
        <extensions>
          <ns3:TrackPointExtension>
            <ns3:atemp>36.0</ns3:atemp>
            <ns3:hr>86</ns3:hr>
          </ns3:TrackPointExtension>
        </extensions>
      </trkpt>
      <trkpt lat="36.8185297586023807525634765625" lon="-118.54868399910628795623779296875">
        <ele>1889.5999755859375</ele>
        <time>2021-06-28T17:35:01.000Z</time>
        <extensions>
          <ns3:TrackPointExtension>
            <ns3:atemp>36.0</ns3:atemp>
            <ns3:hr>86</ns3:hr>
          </ns3:TrackPointExtension>
        </extensions>
      </trkpt>
      <trkpt lat="36.81853269226849079132080078125" lon="-118.54864845983684062957763671875">
        <ele>1888.800048828125</ele>
        <time>2021-06-28T17:35:06.000Z</time>
        <extensions>
          <ns3:TrackPointExtension>
            <ns3:atemp>36.0</ns3:atemp>
            <ns3:hr>86</ns3:hr>
          </ns3:TrackPointExtension>
        </extensions>
      </trkpt>
      <trkpt lat="36.81852431036531925201416015625" lon="-118.5486292652785778045654296875">
        <ele>1888.4000244140625</ele>
        <time>2021-06-28T17:35:08.000Z</time>
        <extensions>
          <ns3:TrackPointExtension>
            <ns3:atemp>36.0</ns3:atemp>
            <ns3:hr>87</ns3:hr>
          </ns3:TrackPointExtension>
        </extensions>
      </trkpt>
      <trkpt lat="36.818509809672832489013671875" lon="-118.54863253422081470489501953125">
        <ele>1888</ele>
        <time>2021-06-28T17:35:10.000Z</time>
        <extensions>
          <ns3:TrackPointExtension>
            <ns3:atemp>36.0</ns3:atemp>
            <ns3:hr>84</ns3:hr>
          </ns3:TrackPointExtension>
        </extensions>
      </trkpt>
      <trkpt lat="36.81850234977900981903076171875" lon="-118.54863169603049755096435546875">
        <ele>1888</ele>
        <time>2021-06-28T17:35:11.000Z</time>
        <extensions>
          <ns3:TrackPointExtension>
            <ns3:atemp>36.0</ns3:atemp>
            <ns3:hr>84</ns3:hr>
          </ns3:TrackPointExtension>
        </extensions>
      </trkpt>
      <trkpt lat="36.8184915371239185333251953125" lon="-118.548629768192768096923828125">
        <ele>1887.4000244140625</ele>
        <time>2021-06-28T17:35:13.000Z</time>
        <extensions>
          <ns3:TrackPointExtension>
            <ns3:atemp>36.0</ns3:atemp>
            <ns3:hr>82</ns3:hr>
          </ns3:TrackPointExtension>
        </extensions>
      </trkpt>
      <trkpt lat="36.81847804225981235504150390625" lon="-118.54866120032966136932373046875">
        <ele>1886.800048828125</ele>
        <time>2021-06-28T17:35:17.000Z</time>
        <extensions>
          <ns3:TrackPointExtension>
            <ns3:atemp>36.0</ns3:atemp>
            <ns3:hr>80</ns3:hr>
          </ns3:TrackPointExtension>
        </extensions>
      </trkpt>
      <trkpt lat="36.81845172308385372161865234375" lon="-118.5486718453466892242431640625">
        <ele>1886.4000244140625</ele>
        <time>2021-06-28T17:35:21.000Z</time>
        <extensions>
          <ns3:TrackPointExtension>
            <ns3:atemp>36.0</ns3:atemp>
            <ns3:hr>80</ns3:hr>
          </ns3:TrackPointExtension>
        </extensions>
      </trkpt>
      <trkpt lat="36.818456165492534637451171875" lon="-118.5486574284732341766357421875">
        <ele>1885.800048828125</ele>
        <time>2021-06-28T17:35:24.000Z</time>
        <extensions>
          <ns3:TrackPointExtension>
            <ns3:atemp>36.0</ns3:atemp>
            <ns3:hr>79</ns3:hr>
          </ns3:TrackPointExtension>
        </extensions>
      </trkpt>
      <trkpt lat="36.8184699118137359619140625" lon="-118.54862716980278491973876953125">
        <ele>1885.4000244140625</ele>
        <time>2021-06-28T17:35:28.000Z</time>
        <extensions>
          <ns3:TrackPointExtension>
            <ns3:atemp>36.0</ns3:atemp>
            <ns3:hr>79</ns3:hr>
          </ns3:TrackPointExtension>
        </extensions>
      </trkpt>
      <trkpt lat="36.818476617336273193359375" lon="-118.54861895553767681121826171875">
        <ele>1884.800048828125</ele>
        <time>2021-06-28T17:35:33.000Z</time>
        <extensions>
          <ns3:TrackPointExtension>
            <ns3:atemp>36.0</ns3:atemp>
            <ns3:hr>78</ns3:hr>
          </ns3:TrackPointExtension>
        </extensions>
      </trkpt>
      <trkpt lat="36.818476617336273193359375" lon="-118.54861895553767681121826171875">
        <ele>1884.5999755859375</ele>
        <time>2021-06-28T17:35:40.000Z</time>
        <extensions>
          <ns3:TrackPointExtension>
            <ns3:atemp>36.0</ns3:atemp>
            <ns3:hr>81</ns3:hr>
          </ns3:TrackPointExtension>
        </extensions>
      </trkpt>
      <trkpt lat="36.818476617336273193359375" lon="-118.54861895553767681121826171875">
        <ele>1884.199951171875</ele>
        <time>2021-06-28T17:35:41.000Z</time>
        <extensions>
          <ns3:TrackPointExtension>
            <ns3:atemp>36.0</ns3:atemp>
            <ns3:hr>82</ns3:hr>
          </ns3:TrackPointExtension>
        </extensions>
      </trkpt>
      <trkpt lat="36.81851458735764026641845703125" lon="-118.54856782592833042144775390625">
        <ele>1882.800048828125</ele>
        <time>2021-06-28T17:35:46.000Z</time>
        <extensions>
          <ns3:TrackPointExtension>
            <ns3:atemp>36.0</ns3:atemp>
            <ns3:hr>83</ns3:hr>
          </ns3:TrackPointExtension>
        </extensions>
      </trkpt>
      <trkpt lat="36.8185180239379405975341796875" lon="-118.54855558834969997406005859375">
        <ele>1882.800048828125</ele>
        <time>2021-06-28T17:35:47.000Z</time>
        <extensions>
          <ns3:TrackPointExtension>
            <ns3:atemp>36.0</ns3:atemp>
            <ns3:hr>83</ns3:hr>
          </ns3:TrackPointExtension>
        </extensions>
      </trkpt>
      <trkpt lat="36.818520538508892059326171875" lon="-118.54854368604719638824462890625">
        <ele>1882</ele>
        <time>2021-06-28T17:35:52.000Z</time>
        <extensions>
          <ns3:TrackPointExtension>
            <ns3:atemp>36.0</ns3:atemp>
            <ns3:hr>83</ns3:hr>
          </ns3:TrackPointExtension>
        </extensions>
      </trkpt>
      <trkpt lat="36.81850654073059558868408203125" lon="-118.5485571809113025665283203125">
        <ele>1881.800048828125</ele>
        <time>2021-06-28T17:35:55.000Z</time>
        <extensions>
          <ns3:TrackPointExtension>
            <ns3:atemp>36.0</ns3:atemp>
            <ns3:hr>82</ns3:hr>
          </ns3:TrackPointExtension>
        </extensions>
      </trkpt>
      <trkpt lat="36.81847318075597286224365234375" lon="-118.54855257086455821990966796875">
        <ele>1880.4000244140625</ele>
        <time>2021-06-28T17:35:59.000Z</time>
        <extensions>
          <ns3:TrackPointExtension>
            <ns3:atemp>36.0</ns3:atemp>
            <ns3:hr>84</ns3:hr>
          </ns3:TrackPointExtension>
        </extensions>
      </trkpt>
      <trkpt lat="36.81844870559871196746826171875" lon="-118.54853354394435882568359375">
        <ele>1879.800048828125</ele>
        <time>2021-06-28T17:36:02.000Z</time>
        <extensions>
          <ns3:TrackPointExtension>
            <ns3:atemp>36.0</ns3:atemp>
            <ns3:hr>87</ns3:hr>
          </ns3:TrackPointExtension>
        </extensions>
      </trkpt>
      <trkpt lat="36.8184409104287624359130859375" lon="-118.548527844250202178955078125">
        <ele>1879.4000244140625</ele>
        <time>2021-06-28T17:36:03.000Z</time>
        <extensions>
          <ns3:TrackPointExtension>
            <ns3:atemp>36.0</ns3:atemp>
            <ns3:hr>88</ns3:hr>
          </ns3:TrackPointExtension>
        </extensions>
      </trkpt>
      <trkpt lat="36.81842037476599216461181640625" lon="-118.54852155782282352447509765625">
        <ele>1879</ele>
        <time>2021-06-28T17:36:06.000Z</time>
        <extensions>
          <ns3:TrackPointExtension>
            <ns3:atemp>36.0</ns3:atemp>
            <ns3:hr>89</ns3:hr>
          </ns3:TrackPointExtension>
        </extensions>
      </trkpt>
      <trkpt lat="36.8183993361890316009521484375" lon="-118.548489622771739959716796875">
        <ele>1878.4000244140625</ele>
        <time>2021-06-28T17:36:12.000Z</time>
        <extensions>
          <ns3:TrackPointExtension>
            <ns3:atemp>36.0</ns3:atemp>
            <ns3:hr>91</ns3:hr>
          </ns3:TrackPointExtension>
        </extensions>
      </trkpt>
      <trkpt lat="36.8184016831219196319580078125" lon="-118.54848953895270824432373046875">
        <ele>1878.199951171875</ele>
        <time>2021-06-28T17:36:13.000Z</time>
        <extensions>
          <ns3:TrackPointExtension>
            <ns3:atemp>36.0</ns3:atemp>
            <ns3:hr>91</ns3:hr>
          </ns3:TrackPointExtension>
        </extensions>
      </trkpt>
      <trkpt lat="36.818420626223087310791015625" lon="-118.5484576039016246795654296875">
        <ele>1877.199951171875</ele>
        <time>2021-06-28T17:36:18.000Z</time>
        <extensions>
          <ns3:TrackPointExtension>
            <ns3:atemp>36.0</ns3:atemp>
            <ns3:hr>90</ns3:hr>
          </ns3:TrackPointExtension>
        </extensions>
      </trkpt>
      <trkpt lat="36.81842355988919734954833984375" lon="-118.5484482161700725555419921875">
        <ele>1877.199951171875</ele>
        <time>2021-06-28T17:36:19.000Z</time>
        <extensions>
          <ns3:TrackPointExtension>
            <ns3:atemp>36.0</ns3:atemp>
            <ns3:hr>91</ns3:hr>
          </ns3:TrackPointExtension>
        </extensions>
      </trkpt>
      <trkpt lat="36.8184321932494640350341796875" lon="-118.54842432774603366851806640625">
        <ele>1876.4000244140625</ele>
        <time>2021-06-28T17:36:25.000Z</time>
        <extensions>
          <ns3:TrackPointExtension>
            <ns3:atemp>36.0</ns3:atemp>
            <ns3:hr>89</ns3:hr>
          </ns3:TrackPointExtension>
        </extensions>
      </trkpt>
      <trkpt lat="36.81841199286282062530517578125" lon="-118.548428602516651153564453125">
        <ele>1876.199951171875</ele>
        <time>2021-06-28T17:36:27.000Z</time>
        <extensions>
          <ns3:TrackPointExtension>
            <ns3:atemp>36.0</ns3:atemp>
            <ns3:hr>87</ns3:hr>
          </ns3:TrackPointExtension>
        </extensions>
      </trkpt>
      <trkpt lat="36.81840260513126850128173828125" lon="-118.548437654972076416015625">
        <ele>1875.800048828125</ele>
        <time>2021-06-28T17:36:28.000Z</time>
        <extensions>
          <ns3:TrackPointExtension>
            <ns3:atemp>36.0</ns3:atemp>
            <ns3:hr>87</ns3:hr>
          </ns3:TrackPointExtension>
        </extensions>
      </trkpt>
      <trkpt lat="36.8183765374124050140380859375" lon="-118.54844377376139163970947265625">
        <ele>1875.4000244140625</ele>
        <time>2021-06-28T17:36:31.000Z</time>
        <extensions>
          <ns3:TrackPointExtension>
            <ns3:atemp>36.0</ns3:atemp>
            <ns3:hr>87</ns3:hr>
          </ns3:TrackPointExtension>
        </extensions>
      </trkpt>
      <trkpt lat="36.818358264863491058349609375" lon="-118.54845198802649974822998046875">
        <ele>1875.199951171875</ele>
        <time>2021-06-28T17:36:33.000Z</time>
        <extensions>
          <ns3:TrackPointExtension>
            <ns3:atemp>36.0</ns3:atemp>
            <ns3:hr>86</ns3:hr>
          </ns3:TrackPointExtension>
        </extensions>
      </trkpt>
      <trkpt lat="36.81834963150322437286376953125" lon="-118.54845349676907062530517578125">
        <ele>1875.199951171875</ele>
        <time>2021-06-28T17:36:34.000Z</time>
        <extensions>
          <ns3:TrackPointExtension>
            <ns3:atemp>36.0</ns3:atemp>
            <ns3:hr>85</ns3:hr>
          </ns3:TrackPointExtension>
        </extensions>
      </trkpt>
      <trkpt lat="36.81832398287951946258544921875" lon="-118.548456095159053802490234375">
        <ele>1874.800048828125</ele>
        <time>2021-06-28T17:36:36.000Z</time>
        <extensions>
          <ns3:TrackPointExtension>
            <ns3:atemp>36.0</ns3:atemp>
            <ns3:hr>85</ns3:hr>
          </ns3:TrackPointExtension>
        </extensions>
      </trkpt>
      <trkpt lat="36.81831375695765018463134765625" lon="-118.54845953173935413360595703125">
        <ele>1874.5999755859375</ele>
        <time>2021-06-28T17:36:37.000Z</time>
        <extensions>
          <ns3:TrackPointExtension>
            <ns3:atemp>36.0</ns3:atemp>
            <ns3:hr>86</ns3:hr>
          </ns3:TrackPointExtension>
        </extensions>
      </trkpt>
      <trkpt lat="36.81829364039003849029541015625" lon="-118.548470847308635711669921875">
        <ele>1874.199951171875</ele>
        <time>2021-06-28T17:36:40.000Z</time>
        <extensions>
          <ns3:TrackPointExtension>
            <ns3:atemp>36.0</ns3:atemp>
            <ns3:hr>88</ns3:hr>
          </ns3:TrackPointExtension>
        </extensions>
      </trkpt>
      <trkpt lat="36.81828911416232585906982421875" lon="-118.54846757836639881134033203125">
        <ele>1874.199951171875</ele>
        <time>2021-06-28T17:36:41.000Z</time>
        <extensions>
          <ns3:TrackPointExtension>
            <ns3:atemp>36.0</ns3:atemp>
            <ns3:hr>85</ns3:hr>
          </ns3:TrackPointExtension>
        </extensions>
      </trkpt>
      <trkpt lat="36.81828911416232585906982421875" lon="-118.54846757836639881134033203125">
        <ele>1873.800048828125</ele>
        <time>2021-06-28T17:36:42.000Z</time>
        <extensions>
          <ns3:TrackPointExtension>
            <ns3:atemp>36.0</ns3:atemp>
            <ns3:hr>87</ns3:hr>
          </ns3:TrackPointExtension>
        </extensions>
      </trkpt>
      <trkpt lat="36.81826966814696788787841796875" lon="-118.54847009293735027313232421875">
        <ele>1873.800048828125</ele>
        <time>2021-06-28T17:36:43.000Z</time>
        <extensions>
          <ns3:TrackPointExtension>
            <ns3:atemp>36.0</ns3:atemp>
            <ns3:hr>85</ns3:hr>
          </ns3:TrackPointExtension>
        </extensions>
      </trkpt>
      <trkpt lat="36.81824619881808757781982421875" lon="-118.54846405796706676483154296875">
        <ele>1873.5999755859375</ele>
        <time>2021-06-28T17:36:45.000Z</time>
        <extensions>
          <ns3:TrackPointExtension>
            <ns3:atemp>36.0</ns3:atemp>
            <ns3:hr>85</ns3:hr>
          </ns3:TrackPointExtension>
        </extensions>
      </trkpt>
      <trkpt lat="36.81822717189788818359375" lon="-118.548462800681591033935546875">
        <ele>1873</ele>
        <time>2021-06-28T17:36:48.000Z</time>
        <extensions>
          <ns3:TrackPointExtension>
            <ns3:atemp>36.0</ns3:atemp>
            <ns3:hr>83</ns3:hr>
          </ns3:TrackPointExtension>
        </extensions>
      </trkpt>
      <trkpt lat="36.81821652688086032867431640625" lon="-118.548456765711307525634765625">
        <ele>1872.5999755859375</ele>
        <time>2021-06-28T17:36:50.000Z</time>
        <extensions>
          <ns3:TrackPointExtension>
            <ns3:atemp>36.0</ns3:atemp>
            <ns3:hr>82</ns3:hr>
          </ns3:TrackPointExtension>
        </extensions>
      </trkpt>
      <trkpt lat="36.81819054298102855682373046875" lon="-118.5484582744538784027099609375">
        <ele>1872.4000244140625</ele>
        <time>2021-06-28T17:36:51.000Z</time>
        <extensions>
          <ns3:TrackPointExtension>
            <ns3:atemp>36.0</ns3:atemp>
            <ns3:hr>82</ns3:hr>
          </ns3:TrackPointExtension>
        </extensions>
      </trkpt>
      <trkpt lat="36.8181555904448032379150390625" lon="-118.54847579263150691986083984375">
        <ele>1872.199951171875</ele>
        <time>2021-06-28T17:36:54.000Z</time>
        <extensions>
          <ns3:TrackPointExtension>
            <ns3:atemp>36.0</ns3:atemp>
            <ns3:hr>85</ns3:hr>
          </ns3:TrackPointExtension>
        </extensions>
      </trkpt>
      <trkpt lat="36.81815139949321746826171875" lon="-118.54848233051598072052001953125">
        <ele>1872</ele>
        <time>2021-06-28T17:36:55.000Z</time>
        <extensions>
          <ns3:TrackPointExtension>
            <ns3:atemp>36.0</ns3:atemp>
            <ns3:hr>85</ns3:hr>
          </ns3:TrackPointExtension>
        </extensions>
      </trkpt>
      <trkpt lat="36.818130947649478912353515625" lon="-118.54848199523985385894775390625">
        <ele>1871.5999755859375</ele>
        <time>2021-06-28T17:36:57.000Z</time>
        <extensions>
          <ns3:TrackPointExtension>
            <ns3:atemp>36.0</ns3:atemp>
            <ns3:hr>85</ns3:hr>
          </ns3:TrackPointExtension>
        </extensions>
      </trkpt>
      <trkpt lat="36.81805022992193698883056640625" lon="-118.548501692712306976318359375">
        <ele>1870.800048828125</ele>
        <time>2021-06-28T17:37:05.000Z</time>
        <extensions>
          <ns3:TrackPointExtension>
            <ns3:atemp>36.0</ns3:atemp>
            <ns3:hr>83</ns3:hr>
          </ns3:TrackPointExtension>
        </extensions>
      </trkpt>
      <trkpt lat="36.81803246028721332550048828125" lon="-118.54851015843451023101806640625">
        <ele>1870.5999755859375</ele>
        <time>2021-06-28T17:37:08.000Z</time>
        <extensions>
          <ns3:TrackPointExtension>
            <ns3:atemp>36.0</ns3:atemp>
            <ns3:hr>83</ns3:hr>
          </ns3:TrackPointExtension>
        </extensions>
      </trkpt>
      <trkpt lat="36.8179973401129245758056640625" lon="-118.5485149361193180084228515625">
        <ele>1869.4000244140625</ele>
        <time>2021-06-28T17:37:12.000Z</time>
        <extensions>
          <ns3:TrackPointExtension>
            <ns3:atemp>36.0</ns3:atemp>
            <ns3:hr>81</ns3:hr>
          </ns3:TrackPointExtension>
        </extensions>
      </trkpt>
      <trkpt lat="36.81798535399138927459716796875" lon="-118.54853346012532711029052734375">
        <ele>1869</ele>
        <time>2021-06-28T17:37:15.000Z</time>
        <extensions>
          <ns3:TrackPointExtension>
            <ns3:atemp>36.0</ns3:atemp>
            <ns3:hr>79</ns3:hr>
          </ns3:TrackPointExtension>
        </extensions>
      </trkpt>
      <trkpt lat="36.8179644830524921417236328125" lon="-118.54855340905487537384033203125">
        <ele>1868.4000244140625</ele>
        <time>2021-06-28T17:37:19.000Z</time>
        <extensions>
          <ns3:TrackPointExtension>
            <ns3:atemp>36.0</ns3:atemp>
            <ns3:hr>76</ns3:hr>
          </ns3:TrackPointExtension>
        </extensions>
      </trkpt>
      <trkpt lat="36.8179629743099212646484375" lon="-118.54855843819677829742431640625">
        <ele>1868.199951171875</ele>
        <time>2021-06-28T17:37:20.000Z</time>
        <extensions>
          <ns3:TrackPointExtension>
            <ns3:atemp>36.0</ns3:atemp>
            <ns3:hr>76</ns3:hr>
          </ns3:TrackPointExtension>
        </extensions>
      </trkpt>
      <trkpt lat="36.81795425713062286376953125" lon="-118.5485873557627201080322265625">
        <ele>1868.199951171875</ele>
        <time>2021-06-28T17:37:22.000Z</time>
        <extensions>
          <ns3:TrackPointExtension>
            <ns3:atemp>36.0</ns3:atemp>
            <ns3:hr>77</ns3:hr>
          </ns3:TrackPointExtension>
        </extensions>
      </trkpt>
      <trkpt lat="36.8179504014551639556884765625" lon="-118.54860302992165088653564453125">
        <ele>1868</ele>
        <time>2021-06-28T17:37:23.000Z</time>
        <extensions>
          <ns3:TrackPointExtension>
            <ns3:atemp>36.0</ns3:atemp>
            <ns3:hr>74</ns3:hr>
          </ns3:TrackPointExtension>
        </extensions>
      </trkpt>
      <trkpt lat="36.81794512085616588592529296875" lon="-118.548619039356708526611328125">
        <ele>1868</ele>
        <time>2021-06-28T17:37:24.000Z</time>
        <extensions>
          <ns3:TrackPointExtension>
            <ns3:atemp>36.0</ns3:atemp>
            <ns3:hr>77</ns3:hr>
          </ns3:TrackPointExtension>
        </extensions>
      </trkpt>
      <trkpt lat="36.81793548166751861572265625" lon="-118.5486106574535369873046875">
        <ele>1867.5999755859375</ele>
        <time>2021-06-28T17:37:28.000Z</time>
        <extensions>
          <ns3:TrackPointExtension>
            <ns3:atemp>36.0</ns3:atemp>
            <ns3:hr>77</ns3:hr>
          </ns3:TrackPointExtension>
        </extensions>
      </trkpt>
      <trkpt lat="36.81794009171426296234130859375" lon="-118.54858609847724437713623046875">
        <ele>1867.199951171875</ele>
        <time>2021-06-28T17:37:30.000Z</time>
        <extensions>
          <ns3:TrackPointExtension>
            <ns3:atemp>36.0</ns3:atemp>
            <ns3:hr>77</ns3:hr>
          </ns3:TrackPointExtension>
        </extensions>
      </trkpt>
      <trkpt lat="36.817940175533294677734375" lon="-118.5485635511577129364013671875">
        <ele>1866.800048828125</ele>
        <time>2021-06-28T17:37:33.000Z</time>
        <extensions>
          <ns3:TrackPointExtension>
            <ns3:atemp>36.0</ns3:atemp>
            <ns3:hr>77</ns3:hr>
          </ns3:TrackPointExtension>
        </extensions>
      </trkpt>
      <trkpt lat="36.8179339729249477386474609375" lon="-118.54854837991297245025634765625">
        <ele>1866.4000244140625</ele>
        <time>2021-06-28T17:37:35.000Z</time>
        <extensions>
          <ns3:TrackPointExtension>
            <ns3:atemp>36.0</ns3:atemp>
            <ns3:hr>78</ns3:hr>
          </ns3:TrackPointExtension>
        </extensions>
      </trkpt>
      <trkpt lat="36.817922405898571014404296875" lon="-118.54855206795036792755126953125">
        <ele>1866.199951171875</ele>
        <time>2021-06-28T17:37:36.000Z</time>
        <extensions>
          <ns3:TrackPointExtension>
            <ns3:atemp>36.0</ns3:atemp>
            <ns3:hr>78</ns3:hr>
          </ns3:TrackPointExtension>
        </extensions>
      </trkpt>
      <trkpt lat="36.81790472008287906646728515625" lon="-118.54856916703283786773681640625">
        <ele>1866.199951171875</ele>
        <time>2021-06-28T17:37:38.000Z</time>
        <extensions>
          <ns3:TrackPointExtension>
            <ns3:atemp>36.0</ns3:atemp>
            <ns3:hr>79</ns3:hr>
          </ns3:TrackPointExtension>
        </extensions>
      </trkpt>
      <trkpt lat="36.81786851026117801666259765625" lon="-118.54859364219009876251220703125">
        <ele>1866</ele>
        <time>2021-06-28T17:37:41.000Z</time>
        <extensions>
          <ns3:TrackPointExtension>
            <ns3:atemp>36.0</ns3:atemp>
            <ns3:hr>81</ns3:hr>
          </ns3:TrackPointExtension>
        </extensions>
      </trkpt>
      <trkpt lat="36.81783867068588733673095703125" lon="-118.548580817878246307373046875">
        <ele>1865.4000244140625</ele>
        <time>2021-06-28T17:37:43.000Z</time>
        <extensions>
          <ns3:TrackPointExtension>
            <ns3:atemp>36.0</ns3:atemp>
            <ns3:hr>82</ns3:hr>
          </ns3:TrackPointExtension>
        </extensions>
      </trkpt>
      <trkpt lat="36.817823164165019989013671875" lon="-118.5485662333667278289794921875">
        <ele>1865.4000244140625</ele>
        <time>2021-06-28T17:37:45.000Z</time>
        <extensions>
          <ns3:TrackPointExtension>
            <ns3:atemp>36.0</ns3:atemp>
            <ns3:hr>82</ns3:hr>
          </ns3:TrackPointExtension>
        </extensions>
      </trkpt>
      <trkpt lat="36.81780799292027950286865234375" lon="-118.54856262914836406707763671875">
        <ele>1865.199951171875</ele>
        <time>2021-06-28T17:37:47.000Z</time>
        <extensions>
          <ns3:TrackPointExtension>
            <ns3:atemp>36.0</ns3:atemp>
            <ns3:hr>81</ns3:hr>
          </ns3:TrackPointExtension>
        </extensions>
      </trkpt>
      <trkpt lat="36.81778133846819400787353515625" lon="-118.54857017286121845245361328125">
        <ele>1864.4000244140625</ele>
        <time>2021-06-28T17:37:50.000Z</time>
        <extensions>
          <ns3:TrackPointExtension>
            <ns3:atemp>36.0</ns3:atemp>
            <ns3:hr>80</ns3:hr>
          </ns3:TrackPointExtension>
        </extensions>
      </trkpt>
      <trkpt lat="36.8177740462124347686767578125" lon="-118.54856648482382297515869140625">
        <ele>1864</ele>
        <time>2021-06-28T17:37:51.000Z</time>
        <extensions>
          <ns3:TrackPointExtension>
            <ns3:atemp>36.0</ns3:atemp>
            <ns3:hr>80</ns3:hr>
          </ns3:TrackPointExtension>
        </extensions>
      </trkpt>
      <trkpt lat="36.8177693523466587066650390625" lon="-118.54856514371931552886962890625">
        <ele>1864</ele>
        <time>2021-06-28T17:37:52.000Z</time>
        <extensions>
          <ns3:TrackPointExtension>
            <ns3:atemp>36.0</ns3:atemp>
            <ns3:hr>78</ns3:hr>
          </ns3:TrackPointExtension>
        </extensions>
      </trkpt>
      <trkpt lat="36.81776239536702632904052734375" lon="-118.548564054071903228759765625">
        <ele>1864</ele>
        <time>2021-06-28T17:37:53.000Z</time>
        <extensions>
          <ns3:TrackPointExtension>
            <ns3:atemp>36.0</ns3:atemp>
            <ns3:hr>79</ns3:hr>
          </ns3:TrackPointExtension>
        </extensions>
      </trkpt>
      <trkpt lat="36.81773439981043338775634765625" lon="-118.54855592362582683563232421875">
        <ele>1863.5999755859375</ele>
        <time>2021-06-28T17:37:56.000Z</time>
        <extensions>
          <ns3:TrackPointExtension>
            <ns3:atemp>36.0</ns3:atemp>
            <ns3:hr>80</ns3:hr>
          </ns3:TrackPointExtension>
        </extensions>
      </trkpt>
      <trkpt lat="36.81771218776702880859375" lon="-118.54855039156973361968994140625">
        <ele>1863.199951171875</ele>
        <time>2021-06-28T17:37:59.000Z</time>
        <extensions>
          <ns3:TrackPointExtension>
            <ns3:atemp>36.0</ns3:atemp>
            <ns3:hr>79</ns3:hr>
          </ns3:TrackPointExtension>
        </extensions>
      </trkpt>
      <trkpt lat="36.8176945857703685760498046875" lon="-118.54853580705821514129638671875">
        <ele>1862.800048828125</ele>
        <time>2021-06-28T17:38:01.000Z</time>
        <extensions>
          <ns3:TrackPointExtension>
            <ns3:atemp>36.0</ns3:atemp>
            <ns3:hr>77</ns3:hr>
          </ns3:TrackPointExtension>
        </extensions>
      </trkpt>
      <trkpt lat="36.817683689296245574951171875" lon="-118.54853027500212192535400390625">
        <ele>1863</ele>
        <time>2021-06-28T17:38:02.000Z</time>
        <extensions>
          <ns3:TrackPointExtension>
            <ns3:atemp>36.0</ns3:atemp>
            <ns3:hr>76</ns3:hr>
          </ns3:TrackPointExtension>
        </extensions>
      </trkpt>
      <trkpt lat="36.8176566995680332183837890625" lon="-118.54852340184152126312255859375">
        <ele>1862.4000244140625</ele>
        <time>2021-06-28T17:38:04.000Z</time>
        <extensions>
          <ns3:TrackPointExtension>
            <ns3:atemp>36.0</ns3:atemp>
            <ns3:hr>73</ns3:hr>
          </ns3:TrackPointExtension>
        </extensions>
      </trkpt>
      <trkpt lat="36.81758101098239421844482421875" lon="-118.54850898496806621551513671875">
        <ele>1862.4000244140625</ele>
        <time>2021-06-28T17:38:11.000Z</time>
        <extensions>
          <ns3:TrackPointExtension>
            <ns3:atemp>36.0</ns3:atemp>
            <ns3:hr>75</ns3:hr>
          </ns3:TrackPointExtension>
        </extensions>
      </trkpt>
      <trkpt lat="36.81756877340376377105712890625" lon="-118.54850730858743190765380859375">
        <ele>1863</ele>
        <time>2021-06-28T17:38:14.000Z</time>
        <extensions>
          <ns3:TrackPointExtension>
            <ns3:atemp>36.0</ns3:atemp>
            <ns3:hr>78</ns3:hr>
          </ns3:TrackPointExtension>
        </extensions>
      </trkpt>
      <trkpt lat="36.81754211895167827606201171875" lon="-118.54852683842182159423828125">
        <ele>1863</ele>
        <time>2021-06-28T17:38:16.000Z</time>
        <extensions>
          <ns3:TrackPointExtension>
            <ns3:atemp>36.0</ns3:atemp>
            <ns3:hr>81</ns3:hr>
          </ns3:TrackPointExtension>
        </extensions>
      </trkpt>
      <trkpt lat="36.81753323413431644439697265625" lon="-118.548533208668231964111328125">
        <ele>1863.4000244140625</ele>
        <time>2021-06-28T17:38:18.000Z</time>
        <extensions>
          <ns3:TrackPointExtension>
            <ns3:atemp>36.0</ns3:atemp>
            <ns3:hr>83</ns3:hr>
          </ns3:TrackPointExtension>
        </extensions>
      </trkpt>
      <trkpt lat="36.81750590912997722625732421875" lon="-118.548536561429500579833984375">
        <ele>1863.5999755859375</ele>
        <time>2021-06-28T17:38:23.000Z</time>
        <extensions>
          <ns3:TrackPointExtension>
            <ns3:atemp>36.0</ns3:atemp>
            <ns3:hr>86</ns3:hr>
          </ns3:TrackPointExtension>
        </extensions>
      </trkpt>
      <trkpt lat="36.8174774944782257080078125" lon="-118.5485380701720714569091796875">
        <ele>1863.5999755859375</ele>
        <time>2021-06-28T17:38:25.000Z</time>
        <extensions>
          <ns3:TrackPointExtension>
            <ns3:atemp>36.0</ns3:atemp>
            <ns3:hr>85</ns3:hr>
          </ns3:TrackPointExtension>
        </extensions>
      </trkpt>
      <trkpt lat="36.817434914410114288330078125" lon="-118.54853681288659572601318359375">
        <ele>1863.5999755859375</ele>
        <time>2021-06-28T17:38:28.000Z</time>
        <extensions>
          <ns3:TrackPointExtension>
            <ns3:atemp>36.0</ns3:atemp>
            <ns3:hr>84</ns3:hr>
          </ns3:TrackPointExtension>
        </extensions>
      </trkpt>
      <trkpt lat="36.817421503365039825439453125" lon="-118.54854083620011806488037109375">
        <ele>1864</ele>
        <time>2021-06-28T17:38:29.000Z</time>
        <extensions>
          <ns3:TrackPointExtension>
            <ns3:atemp>36.0</ns3:atemp>
            <ns3:hr>84</ns3:hr>
          </ns3:TrackPointExtension>
        </extensions>
      </trkpt>
      <trkpt lat="36.81740046478807926177978515625" lon="-118.5485441051423549652099609375">
        <ele>1864</ele>
        <time>2021-06-28T17:38:31.000Z</time>
        <extensions>
          <ns3:TrackPointExtension>
            <ns3:atemp>36.0</ns3:atemp>
            <ns3:hr>86</ns3:hr>
          </ns3:TrackPointExtension>
        </extensions>
      </trkpt>
      <trkpt lat="36.81738185696303844451904296875" lon="-118.5485464520752429962158203125">
        <ele>1864</ele>
        <time>2021-06-28T17:38:33.000Z</time>
        <extensions>
          <ns3:TrackPointExtension>
            <ns3:atemp>36.0</ns3:atemp>
            <ns3:hr>87</ns3:hr>
          </ns3:TrackPointExtension>
        </extensions>
      </trkpt>
      <trkpt lat="36.81734397076070308685302734375" lon="-118.548563383519649505615234375">
        <ele>1863.4000244140625</ele>
        <time>2021-06-28T17:38:38.000Z</time>
        <extensions>
          <ns3:TrackPointExtension>
            <ns3:atemp>36.0</ns3:atemp>
            <ns3:hr>87</ns3:hr>
          </ns3:TrackPointExtension>
        </extensions>
      </trkpt>
      <trkpt lat="36.8173246085643768310546875" lon="-118.5485642217099666595458984375">
        <ele>1862.800048828125</ele>
        <time>2021-06-28T17:38:40.000Z</time>
        <extensions>
          <ns3:TrackPointExtension>
            <ns3:atemp>36.0</ns3:atemp>
            <ns3:hr>87</ns3:hr>
          </ns3:TrackPointExtension>
        </extensions>
      </trkpt>
      <trkpt lat="36.81730943731963634490966796875" lon="-118.5485860146582126617431640625">
        <ele>1862.4000244140625</ele>
        <time>2021-06-28T17:38:44.000Z</time>
        <extensions>
          <ns3:TrackPointExtension>
            <ns3:atemp>36.0</ns3:atemp>
            <ns3:hr>88</ns3:hr>
          </ns3:TrackPointExtension>
        </extensions>
      </trkpt>
      <trkpt lat="36.8172951042652130126953125" lon="-118.54858827777206897735595703125">
        <ele>1861.800048828125</ele>
        <time>2021-06-28T17:38:47.000Z</time>
        <extensions>
          <ns3:TrackPointExtension>
            <ns3:atemp>36.0</ns3:atemp>
            <ns3:hr>89</ns3:hr>
          </ns3:TrackPointExtension>
        </extensions>
      </trkpt>
      <trkpt lat="36.81728563271462917327880859375" lon="-118.54857620783150196075439453125">
        <ele>1861.199951171875</ele>
        <time>2021-06-28T17:38:48.000Z</time>
        <extensions>
          <ns3:TrackPointExtension>
            <ns3:atemp>36.0</ns3:atemp>
            <ns3:hr>89</ns3:hr>
          </ns3:TrackPointExtension>
        </extensions>
      </trkpt>
      <trkpt lat="36.81725964881479740142822265625" lon="-118.54854268021881580352783203125">
        <ele>1861</ele>
        <time>2021-06-28T17:38:50.000Z</time>
        <extensions>
          <ns3:TrackPointExtension>
            <ns3:atemp>36.0</ns3:atemp>
            <ns3:hr>91</ns3:hr>
          </ns3:TrackPointExtension>
        </extensions>
      </trkpt>
      <trkpt lat="36.81724355556070804595947265625" lon="-118.54854100383818149566650390625">
        <ele>1860.4000244140625</ele>
        <time>2021-06-28T17:38:52.000Z</time>
        <extensions>
          <ns3:TrackPointExtension>
            <ns3:atemp>36.0</ns3:atemp>
            <ns3:hr>91</ns3:hr>
          </ns3:TrackPointExtension>
        </extensions>
      </trkpt>
      <trkpt lat="36.81719913147389888763427734375" lon="-118.54851518757641315460205078125">
        <ele>1860.199951171875</ele>
        <time>2021-06-28T17:38:56.000Z</time>
        <extensions>
          <ns3:TrackPointExtension>
            <ns3:atemp>36.0</ns3:atemp>
            <ns3:hr>92</ns3:hr>
          </ns3:TrackPointExtension>
        </extensions>
      </trkpt>
      <trkpt lat="36.81718848645687103271484375" lon="-118.5485035367310047149658203125">
        <ele>1860</ele>
        <time>2021-06-28T17:38:57.000Z</time>
        <extensions>
          <ns3:TrackPointExtension>
            <ns3:atemp>36.0</ns3:atemp>
            <ns3:hr>92</ns3:hr>
          </ns3:TrackPointExtension>
        </extensions>
      </trkpt>
      <trkpt lat="36.8171215988695621490478515625" lon="-118.5484736971557140350341796875">
        <ele>1859.5999755859375</ele>
        <time>2021-06-28T17:39:05.000Z</time>
        <extensions>
          <ns3:TrackPointExtension>
            <ns3:atemp>36.0</ns3:atemp>
            <ns3:hr>91</ns3:hr>
          </ns3:TrackPointExtension>
        </extensions>
      </trkpt>
      <trkpt lat="36.81705848313868045806884765625" lon="-118.54843170382082462310791015625">
        <ele>1859.5999755859375</ele>
        <time>2021-06-28T17:39:08.000Z</time>
        <extensions>
          <ns3:TrackPointExtension>
            <ns3:atemp>36.0</ns3:atemp>
            <ns3:hr>88</ns3:hr>
          </ns3:TrackPointExtension>
        </extensions>
      </trkpt>
      <trkpt lat="36.81704792194068431854248046875" lon="-118.54842566885054111480712890625">
        <ele>1859.199951171875</ele>
        <time>2021-06-28T17:39:09.000Z</time>
        <extensions>
          <ns3:TrackPointExtension>
            <ns3:atemp>36.0</ns3:atemp>
            <ns3:hr>86</ns3:hr>
          </ns3:TrackPointExtension>
        </extensions>
      </trkpt>
      <trkpt lat="36.81702244095504283905029296875" lon="-118.5484202206134796142578125">
        <ele>1859.199951171875</ele>
        <time>2021-06-28T17:39:11.000Z</time>
        <extensions>
          <ns3:TrackPointExtension>
            <ns3:atemp>36.0</ns3:atemp>
            <ns3:hr>85</ns3:hr>
          </ns3:TrackPointExtension>
        </extensions>
      </trkpt>
      <trkpt lat="36.81701573543250560760498046875" lon="-118.54843287728726863861083984375">
        <ele>1859.199951171875</ele>
        <time>2021-06-28T17:39:12.000Z</time>
        <extensions>
          <ns3:TrackPointExtension>
            <ns3:atemp>36.0</ns3:atemp>
            <ns3:hr>85</ns3:hr>
          </ns3:TrackPointExtension>
        </extensions>
      </trkpt>
      <trkpt lat="36.81699511595070362091064453125" lon="-118.548448719084262847900390625">
        <ele>1859.199951171875</ele>
        <time>2021-06-28T17:39:14.000Z</time>
        <extensions>
          <ns3:TrackPointExtension>
            <ns3:atemp>36.0</ns3:atemp>
            <ns3:hr>85</ns3:hr>
          </ns3:TrackPointExtension>
        </extensions>
      </trkpt>
      <trkpt lat="36.8169703893363475799560546875" lon="-118.54846690781414508819580078125">
        <ele>1859</ele>
        <time>2021-06-28T17:39:16.000Z</time>
        <extensions>
          <ns3:TrackPointExtension>
            <ns3:atemp>36.0</ns3:atemp>
            <ns3:hr>85</ns3:hr>
          </ns3:TrackPointExtension>
        </extensions>
      </trkpt>
      <trkpt lat="36.8169630132615566253662109375" lon="-118.54848417453467845916748046875">
        <ele>1859</ele>
        <time>2021-06-28T17:39:18.000Z</time>
        <extensions>
          <ns3:TrackPointExtension>
            <ns3:atemp>36.0</ns3:atemp>
            <ns3:hr>85</ns3:hr>
          </ns3:TrackPointExtension>
        </extensions>
      </trkpt>
      <trkpt lat="36.81696175597608089447021484375" lon="-118.54849071241915225982666015625">
        <ele>1858.800048828125</ele>
        <time>2021-06-28T17:39:21.000Z</time>
        <extensions>
          <ns3:TrackPointExtension>
            <ns3:atemp>36.0</ns3:atemp>
            <ns3:hr>84</ns3:hr>
          </ns3:TrackPointExtension>
        </extensions>
      </trkpt>
      <trkpt lat="36.8169489316642284393310546875" lon="-118.548515103757381439208984375">
        <ele>1858.4000244140625</ele>
        <time>2021-06-28T17:39:24.000Z</time>
        <extensions>
          <ns3:TrackPointExtension>
            <ns3:atemp>36.0</ns3:atemp>
            <ns3:hr>84</ns3:hr>
          </ns3:TrackPointExtension>
        </extensions>
      </trkpt>
      <trkpt lat="36.8169459141790866851806640625" lon="-118.5485236532986164093017578125">
        <ele>1858.199951171875</ele>
        <time>2021-06-28T17:39:25.000Z</time>
        <extensions>
          <ns3:TrackPointExtension>
            <ns3:atemp>36.0</ns3:atemp>
            <ns3:hr>84</ns3:hr>
          </ns3:TrackPointExtension>
        </extensions>
      </trkpt>
      <trkpt lat="36.81694633327424526214599609375" lon="-118.54855240322649478912353515625">
        <ele>1858.4000244140625</ele>
        <time>2021-06-28T17:39:28.000Z</time>
        <extensions>
          <ns3:TrackPointExtension>
            <ns3:atemp>36.0</ns3:atemp>
            <ns3:hr>84</ns3:hr>
          </ns3:TrackPointExtension>
        </extensions>
      </trkpt>
      <trkpt lat="36.816956810653209686279296875" lon="-118.54856564663350582122802734375">
        <ele>1858.800048828125</ele>
        <time>2021-06-28T17:39:31.000Z</time>
        <extensions>
          <ns3:TrackPointExtension>
            <ns3:atemp>36.0</ns3:atemp>
            <ns3:hr>84</ns3:hr>
          </ns3:TrackPointExtension>
        </extensions>
      </trkpt>
      <trkpt lat="36.81698656640946865081787109375" lon="-118.54862398467957973480224609375">
        <ele>1859</ele>
        <time>2021-06-28T17:39:36.000Z</time>
        <extensions>
          <ns3:TrackPointExtension>
            <ns3:atemp>35.0</ns3:atemp>
            <ns3:hr>84</ns3:hr>
          </ns3:TrackPointExtension>
        </extensions>
      </trkpt>
      <trkpt lat="36.81696049869060516357421875" lon="-118.5485927201807498931884765625">
        <ele>1859</ele>
        <time>2021-06-28T17:39:42.000Z</time>
        <extensions>
          <ns3:TrackPointExtension>
            <ns3:atemp>35.0</ns3:atemp>
            <ns3:hr>86</ns3:hr>
          </ns3:TrackPointExtension>
        </extensions>
      </trkpt>
      <trkpt lat="36.8169583193957805633544921875" lon="-118.54858894832432270050048828125">
        <ele>1859.199951171875</ele>
        <time>2021-06-28T17:39:46.000Z</time>
        <extensions>
          <ns3:TrackPointExtension>
            <ns3:atemp>35.0</ns3:atemp>
            <ns3:hr>90</ns3:hr>
          </ns3:TrackPointExtension>
        </extensions>
      </trkpt>
      <trkpt lat="36.8169583193957805633544921875" lon="-118.54858894832432270050048828125">
        <ele>1859.199951171875</ele>
        <time>2021-06-28T17:39:49.000Z</time>
        <extensions>
          <ns3:TrackPointExtension>
            <ns3:atemp>35.0</ns3:atemp>
            <ns3:hr>91</ns3:hr>
          </ns3:TrackPointExtension>
        </extensions>
      </trkpt>
      <trkpt lat="36.8169583193957805633544921875" lon="-118.54858894832432270050048828125">
        <ele>1859.199951171875</ele>
        <time>2021-06-28T17:39:50.000Z</time>
        <extensions>
          <ns3:TrackPointExtension>
            <ns3:atemp>35.0</ns3:atemp>
            <ns3:hr>91</ns3:hr>
          </ns3:TrackPointExtension>
        </extensions>
      </trkpt>
      <trkpt lat="36.8169583193957805633544921875" lon="-118.54858894832432270050048828125">
        <ele>1859.199951171875</ele>
        <time>2021-06-28T17:39:56.000Z</time>
        <extensions>
          <ns3:TrackPointExtension>
            <ns3:atemp>35.0</ns3:atemp>
            <ns3:hr>88</ns3:hr>
          </ns3:TrackPointExtension>
        </extensions>
      </trkpt>
      <trkpt lat="36.8169583193957805633544921875" lon="-118.54858894832432270050048828125">
        <ele>1859.199951171875</ele>
        <time>2021-06-28T17:39:59.000Z</time>
        <extensions>
          <ns3:TrackPointExtension>
            <ns3:atemp>35.0</ns3:atemp>
            <ns3:hr>85</ns3:hr>
          </ns3:TrackPointExtension>
        </extensions>
      </trkpt>
      <trkpt lat="36.8169583193957805633544921875" lon="-118.5485846735537052154541015625">
        <ele>1859.199951171875</ele>
        <time>2021-06-28T17:40:03.000Z</time>
        <extensions>
          <ns3:TrackPointExtension>
            <ns3:atemp>35.0</ns3:atemp>
            <ns3:hr>82</ns3:hr>
          </ns3:TrackPointExtension>
        </extensions>
      </trkpt>
      <trkpt lat="36.8169583193957805633544921875" lon="-118.54856933467090129852294921875">
        <ele>1859.199951171875</ele>
        <time>2021-06-28T17:40:08.000Z</time>
        <extensions>
          <ns3:TrackPointExtension>
            <ns3:atemp>35.0</ns3:atemp>
            <ns3:hr>81</ns3:hr>
          </ns3:TrackPointExtension>
        </extensions>
      </trkpt>
      <trkpt lat="36.81695111095905303955078125" lon="-118.54859079234302043914794921875">
        <ele>1858.5999755859375</ele>
        <time>2021-06-28T17:40:22.000Z</time>
        <extensions>
          <ns3:TrackPointExtension>
            <ns3:atemp>35.0</ns3:atemp>
            <ns3:hr>82</ns3:hr>
          </ns3:TrackPointExtension>
        </extensions>
      </trkpt>
      <trkpt lat="36.81688271462917327880859375" lon="-118.54863773100078105926513671875">
        <ele>1859</ele>
        <time>2021-06-28T17:40:27.000Z</time>
        <extensions>
          <ns3:TrackPointExtension>
            <ns3:atemp>35.0</ns3:atemp>
            <ns3:hr>83</ns3:hr>
          </ns3:TrackPointExtension>
        </extensions>
      </trkpt>
      <trkpt lat="36.8168664537370204925537109375" lon="-118.5486369766294956207275390625">
        <ele>1859.199951171875</ele>
        <time>2021-06-28T17:40:28.000Z</time>
        <extensions>
          <ns3:TrackPointExtension>
            <ns3:atemp>35.0</ns3:atemp>
            <ns3:hr>83</ns3:hr>
          </ns3:TrackPointExtension>
        </extensions>
      </trkpt>
      <trkpt lat="36.81680493056774139404296875" lon="-118.54865600354969501495361328125">
        <ele>1860.4000244140625</ele>
        <time>2021-06-28T17:40:34.000Z</time>
        <extensions>
          <ns3:TrackPointExtension>
            <ns3:atemp>35.0</ns3:atemp>
            <ns3:hr>82</ns3:hr>
          </ns3:TrackPointExtension>
        </extensions>
      </trkpt>
      <trkpt lat="36.816795878112316131591796875" lon="-118.54865700937807559967041015625">
        <ele>1860.5999755859375</ele>
        <time>2021-06-28T17:40:35.000Z</time>
        <extensions>
          <ns3:TrackPointExtension>
            <ns3:atemp>35.0</ns3:atemp>
            <ns3:hr>82</ns3:hr>
          </ns3:TrackPointExtension>
        </extensions>
      </trkpt>
      <trkpt lat="36.8167765997350215911865234375" lon="-118.54866086505353450775146484375">
        <ele>1860.5999755859375</ele>
        <time>2021-06-28T17:40:37.000Z</time>
        <extensions>
          <ns3:TrackPointExtension>
            <ns3:atemp>35.0</ns3:atemp>
            <ns3:hr>85</ns3:hr>
          </ns3:TrackPointExtension>
        </extensions>
      </trkpt>
      <trkpt lat="36.8167330138385295867919921875" lon="-118.548647873103618621826171875">
        <ele>1859.800048828125</ele>
        <time>2021-06-28T17:40:40.000Z</time>
        <extensions>
          <ns3:TrackPointExtension>
            <ns3:atemp>35.0</ns3:atemp>
            <ns3:hr>83</ns3:hr>
          </ns3:TrackPointExtension>
        </extensions>
      </trkpt>
      <trkpt lat="36.81671784259378910064697265625" lon="-118.54864393360912799835205078125">
        <ele>1859.5999755859375</ele>
        <time>2021-06-28T17:40:41.000Z</time>
        <extensions>
          <ns3:TrackPointExtension>
            <ns3:atemp>35.0</ns3:atemp>
            <ns3:hr>83</ns3:hr>
          </ns3:TrackPointExtension>
        </extensions>
      </trkpt>
      <trkpt lat="36.8166947923600673675537109375" lon="-118.5486423410475254058837890625">
        <ele>1859.199951171875</ele>
        <time>2021-06-28T17:40:42.000Z</time>
        <extensions>
          <ns3:TrackPointExtension>
            <ns3:atemp>35.0</ns3:atemp>
            <ns3:hr>84</ns3:hr>
          </ns3:TrackPointExtension>
        </extensions>
      </trkpt>
      <trkpt lat="36.816631592810153961181640625" lon="-118.54864812456071376800537109375">
        <ele>1858.5999755859375</ele>
        <time>2021-06-28T17:40:47.000Z</time>
        <extensions>
          <ns3:TrackPointExtension>
            <ns3:atemp>35.0</ns3:atemp>
            <ns3:hr>83</ns3:hr>
          </ns3:TrackPointExtension>
        </extensions>
      </trkpt>
      <trkpt lat="36.8165925331413745880126953125" lon="-118.54862197302281856536865234375">
        <ele>1858</ele>
        <time>2021-06-28T17:40:50.000Z</time>
        <extensions>
          <ns3:TrackPointExtension>
            <ns3:atemp>35.0</ns3:atemp>
            <ns3:hr>83</ns3:hr>
          </ns3:TrackPointExtension>
        </extensions>
      </trkpt>
      <trkpt lat="36.8165385536849498748779296875" lon="-118.54863001964986324310302734375">
        <ele>1857.5999755859375</ele>
        <time>2021-06-28T17:40:53.000Z</time>
        <extensions>
          <ns3:TrackPointExtension>
            <ns3:atemp>35.0</ns3:atemp>
            <ns3:hr>82</ns3:hr>
          </ns3:TrackPointExtension>
        </extensions>
      </trkpt>
      <trkpt lat="36.8165385536849498748779296875" lon="-118.54863001964986324310302734375">
        <ele>1857.4000244140625</ele>
        <time>2021-06-28T17:40:54.000Z</time>
        <extensions>
          <ns3:TrackPointExtension>
            <ns3:atemp>35.0</ns3:atemp>
            <ns3:hr>81</ns3:hr>
          </ns3:TrackPointExtension>
        </extensions>
      </trkpt>
      <trkpt lat="36.8165023438632488250732421875" lon="-118.548629097640514373779296875">
        <ele>1857</ele>
        <time>2021-06-28T17:40:57.000Z</time>
        <extensions>
          <ns3:TrackPointExtension>
            <ns3:atemp>35.0</ns3:atemp>
            <ns3:hr>80</ns3:hr>
          </ns3:TrackPointExtension>
        </extensions>
      </trkpt>
      <trkpt lat="36.81650611571967601776123046875" lon="-118.54862297885119915008544921875">
        <ele>1856.4000244140625</ele>
        <time>2021-06-28T17:40:59.000Z</time>
        <extensions>
          <ns3:TrackPointExtension>
            <ns3:atemp>35.0</ns3:atemp>
            <ns3:hr>82</ns3:hr>
          </ns3:TrackPointExtension>
        </extensions>
      </trkpt>
      <trkpt lat="36.8165130726993083953857421875" lon="-118.54861862026154994964599609375">
        <ele>1856.199951171875</ele>
        <time>2021-06-28T17:41:00.000Z</time>
        <extensions>
          <ns3:TrackPointExtension>
            <ns3:atemp>35.0</ns3:atemp>
            <ns3:hr>82</ns3:hr>
          </ns3:TrackPointExtension>
        </extensions>
      </trkpt>
      <trkpt lat="36.81653260253369808197021484375" lon="-118.54861912317574024200439453125">
        <ele>1855.4000244140625</ele>
        <time>2021-06-28T17:41:03.000Z</time>
        <extensions>
          <ns3:TrackPointExtension>
            <ns3:atemp>35.0</ns3:atemp>
            <ns3:hr>80</ns3:hr>
          </ns3:TrackPointExtension>
        </extensions>
      </trkpt>
      <trkpt lat="36.81654869578778743743896484375" lon="-118.54860587976872920989990234375">
        <ele>1855</ele>
        <time>2021-06-28T17:41:05.000Z</time>
        <extensions>
          <ns3:TrackPointExtension>
            <ns3:atemp>35.0</ns3:atemp>
            <ns3:hr>80</ns3:hr>
          </ns3:TrackPointExtension>
        </extensions>
      </trkpt>
      <trkpt lat="36.81654877960681915283203125" lon="-118.54860034771263599395751953125">
        <ele>1854.800048828125</ele>
        <time>2021-06-28T17:41:06.000Z</time>
        <extensions>
          <ns3:TrackPointExtension>
            <ns3:atemp>35.0</ns3:atemp>
            <ns3:hr>79</ns3:hr>
          </ns3:TrackPointExtension>
        </extensions>
      </trkpt>
      <trkpt lat="36.81654131971299648284912109375" lon="-118.548600263893604278564453125">
        <ele>1854.800048828125</ele>
        <time>2021-06-28T17:41:07.000Z</time>
        <extensions>
          <ns3:TrackPointExtension>
            <ns3:atemp>35.0</ns3:atemp>
            <ns3:hr>79</ns3:hr>
          </ns3:TrackPointExtension>
        </extensions>
      </trkpt>
      <trkpt lat="36.8165221251547336578369140625" lon="-118.54861241765320301055908203125">
        <ele>1854.4000244140625</ele>
        <time>2021-06-28T17:41:09.000Z</time>
        <extensions>
          <ns3:TrackPointExtension>
            <ns3:atemp>35.0</ns3:atemp>
            <ns3:hr>78</ns3:hr>
          </ns3:TrackPointExtension>
        </extensions>
      </trkpt>
      <trkpt lat="36.81651282124221324920654296875" lon="-118.54861828498542308807373046875">
        <ele>1854</ele>
        <time>2021-06-28T17:41:10.000Z</time>
        <extensions>
          <ns3:TrackPointExtension>
            <ns3:atemp>35.0</ns3:atemp>
            <ns3:hr>77</ns3:hr>
          </ns3:TrackPointExtension>
        </extensions>
      </trkpt>
      <trkpt lat="36.8165043555200099945068359375" lon="-118.54862096719443798065185546875">
        <ele>1854</ele>
        <time>2021-06-28T17:41:11.000Z</time>
        <extensions>
          <ns3:TrackPointExtension>
            <ns3:atemp>35.0</ns3:atemp>
            <ns3:hr>76</ns3:hr>
          </ns3:TrackPointExtension>
        </extensions>
      </trkpt>
      <trkpt lat="36.81648348458111286163330078125" lon="-118.54861937463283538818359375">
        <ele>1853.5999755859375</ele>
        <time>2021-06-28T17:41:13.000Z</time>
        <extensions>
          <ns3:TrackPointExtension>
            <ns3:atemp>35.0</ns3:atemp>
            <ns3:hr>76</ns3:hr>
          </ns3:TrackPointExtension>
        </extensions>
      </trkpt>
      <trkpt lat="36.8164621107280254364013671875" lon="-118.5486118309199810028076171875">
        <ele>1853.4000244140625</ele>
        <time>2021-06-28T17:41:15.000Z</time>
        <extensions>
          <ns3:TrackPointExtension>
            <ns3:atemp>35.0</ns3:atemp>
            <ns3:hr>76</ns3:hr>
          </ns3:TrackPointExtension>
        </extensions>
      </trkpt>
      <trkpt lat="36.81644895114004611968994140625" lon="-118.54860353283584117889404296875">
        <ele>1853.199951171875</ele>
        <time>2021-06-28T17:41:16.000Z</time>
        <extensions>
          <ns3:TrackPointExtension>
            <ns3:atemp>35.0</ns3:atemp>
            <ns3:hr>76</ns3:hr>
          </ns3:TrackPointExtension>
        </extensions>
      </trkpt>
      <trkpt lat="36.81642472743988037109375" lon="-118.54857184924185276031494140625">
        <ele>1852.800048828125</ele>
        <time>2021-06-28T17:41:19.000Z</time>
        <extensions>
          <ns3:TrackPointExtension>
            <ns3:atemp>35.0</ns3:atemp>
            <ns3:hr>78</ns3:hr>
          </ns3:TrackPointExtension>
        </extensions>
      </trkpt>
      <trkpt lat="36.81641466915607452392578125" lon="-118.54856866411864757537841796875">
        <ele>1852.800048828125</ele>
        <time>2021-06-28T17:41:20.000Z</time>
        <extensions>
          <ns3:TrackPointExtension>
            <ns3:atemp>35.0</ns3:atemp>
            <ns3:hr>78</ns3:hr>
          </ns3:TrackPointExtension>
        </extensions>
      </trkpt>
      <trkpt lat="36.81639832444489002227783203125" lon="-118.54859665967524051666259765625">
        <ele>1852.4000244140625</ele>
        <time>2021-06-28T17:41:23.000Z</time>
        <extensions>
          <ns3:TrackPointExtension>
            <ns3:atemp>35.0</ns3:atemp>
            <ns3:hr>80</ns3:hr>
          </ns3:TrackPointExtension>
        </extensions>
      </trkpt>
      <trkpt lat="36.816331185400485992431640625" lon="-118.548658601939678192138671875">
        <ele>1852</ele>
        <time>2021-06-28T17:41:29.000Z</time>
        <extensions>
          <ns3:TrackPointExtension>
            <ns3:atemp>35.0</ns3:atemp>
            <ns3:hr>78</ns3:hr>
          </ns3:TrackPointExtension>
        </extensions>
      </trkpt>
      <trkpt lat="36.81632221676409244537353515625" lon="-118.548654578626155853271484375">
        <ele>1852</ele>
        <time>2021-06-28T17:41:30.000Z</time>
        <extensions>
          <ns3:TrackPointExtension>
            <ns3:atemp>35.0</ns3:atemp>
            <ns3:hr>77</ns3:hr>
          </ns3:TrackPointExtension>
        </extensions>
      </trkpt>
      <trkpt lat="36.8163125775754451751708984375" lon="-118.54864887893199920654296875">
        <ele>1851.800048828125</ele>
        <time>2021-06-28T17:41:32.000Z</time>
        <extensions>
          <ns3:TrackPointExtension>
            <ns3:atemp>35.0</ns3:atemp>
            <ns3:hr>77</ns3:hr>
          </ns3:TrackPointExtension>
        </extensions>
      </trkpt>
      <trkpt lat="36.8163125775754451751708984375" lon="-118.54864887893199920654296875">
        <ele>1851.800048828125</ele>
        <time>2021-06-28T17:41:33.000Z</time>
        <extensions>
          <ns3:TrackPointExtension>
            <ns3:atemp>35.0</ns3:atemp>
            <ns3:hr>77</ns3:hr>
          </ns3:TrackPointExtension>
        </extensions>
      </trkpt>
      <trkpt lat="36.81629396975040435791015625" lon="-118.548611663281917572021484375">
        <ele>1850.800048828125</ele>
        <time>2021-06-28T17:41:36.000Z</time>
        <extensions>
          <ns3:TrackPointExtension>
            <ns3:atemp>35.0</ns3:atemp>
            <ns3:hr>75</ns3:hr>
          </ns3:TrackPointExtension>
        </extensions>
      </trkpt>
      <trkpt lat="36.8162827380001544952392578125" lon="-118.548599593341350555419921875">
        <ele>1850.800048828125</ele>
        <time>2021-06-28T17:41:38.000Z</time>
        <extensions>
          <ns3:TrackPointExtension>
            <ns3:atemp>35.0</ns3:atemp>
            <ns3:hr>76</ns3:hr>
          </ns3:TrackPointExtension>
        </extensions>
      </trkpt>
      <trkpt lat="36.816274188458919525146484375" lon="-118.5485994257032871246337890625">
        <ele>1850.5999755859375</ele>
        <time>2021-06-28T17:41:39.000Z</time>
        <extensions>
          <ns3:TrackPointExtension>
            <ns3:atemp>35.0</ns3:atemp>
            <ns3:hr>76</ns3:hr>
          </ns3:TrackPointExtension>
        </extensions>
      </trkpt>
      <trkpt lat="36.81626622565090656280517578125" lon="-118.54860085062682628631591796875">
        <ele>1850.5999755859375</ele>
        <time>2021-06-28T17:41:41.000Z</time>
        <extensions>
          <ns3:TrackPointExtension>
            <ns3:atemp>35.0</ns3:atemp>
            <ns3:hr>77</ns3:hr>
          </ns3:TrackPointExtension>
        </extensions>
      </trkpt>
      <trkpt lat="36.8162329494953155517578125" lon="-118.54859665967524051666259765625">
        <ele>1850.4000244140625</ele>
        <time>2021-06-28T17:41:43.000Z</time>
        <extensions>
          <ns3:TrackPointExtension>
            <ns3:atemp>35.0</ns3:atemp>
            <ns3:hr>78</ns3:hr>
          </ns3:TrackPointExtension>
        </extensions>
      </trkpt>
      <trkpt lat="36.816218197345733642578125" lon="-118.548582158982753753662109375">
        <ele>1849.5999755859375</ele>
        <time>2021-06-28T17:41:45.000Z</time>
        <extensions>
          <ns3:TrackPointExtension>
            <ns3:atemp>35.0</ns3:atemp>
            <ns3:hr>78</ns3:hr>
          </ns3:TrackPointExtension>
        </extensions>
      </trkpt>
      <trkpt lat="36.81620302610099315643310546875" lon="-118.5486091487109661102294921875">
        <ele>1849.199951171875</ele>
        <time>2021-06-28T17:41:49.000Z</time>
        <extensions>
          <ns3:TrackPointExtension>
            <ns3:atemp>35.0</ns3:atemp>
            <ns3:hr>79</ns3:hr>
          </ns3:TrackPointExtension>
        </extensions>
      </trkpt>
      <trkpt lat="36.81617704220116138458251953125" lon="-118.54862314648926258087158203125">
        <ele>1848.800048828125</ele>
        <time>2021-06-28T17:41:52.000Z</time>
        <extensions>
          <ns3:TrackPointExtension>
            <ns3:atemp>35.0</ns3:atemp>
            <ns3:hr>78</ns3:hr>
          </ns3:TrackPointExtension>
        </extensions>
      </trkpt>
      <trkpt lat="36.8161402456462383270263671875" lon="-118.5485972464084625244140625">
        <ele>1848.5999755859375</ele>
        <time>2021-06-28T17:41:55.000Z</time>
        <extensions>
          <ns3:TrackPointExtension>
            <ns3:atemp>35.0</ns3:atemp>
            <ns3:hr>81</ns3:hr>
          </ns3:TrackPointExtension>
        </extensions>
      </trkpt>
      <trkpt lat="36.81611333973705768585205078125" lon="-118.5486021079123020172119140625">
        <ele>1848.199951171875</ele>
        <time>2021-06-28T17:41:58.000Z</time>
        <extensions>
          <ns3:TrackPointExtension>
            <ns3:atemp>35.0</ns3:atemp>
            <ns3:hr>80</ns3:hr>
          </ns3:TrackPointExtension>
        </extensions>
      </trkpt>
      <trkpt lat="36.81610445491969585418701171875" lon="-118.54860671795904636383056640625">
        <ele>1848</ele>
        <time>2021-06-28T17:42:00.000Z</time>
        <extensions>
          <ns3:TrackPointExtension>
            <ns3:atemp>35.0</ns3:atemp>
            <ns3:hr>82</ns3:hr>
          </ns3:TrackPointExtension>
        </extensions>
      </trkpt>
      <trkpt lat="36.81609255261719226837158203125" lon="-118.54859816841781139373779296875">
        <ele>1847.5999755859375</ele>
        <time>2021-06-28T17:42:02.000Z</time>
        <extensions>
          <ns3:TrackPointExtension>
            <ns3:atemp>35.0</ns3:atemp>
            <ns3:hr>82</ns3:hr>
          </ns3:TrackPointExtension>
        </extensions>
      </trkpt>
      <trkpt lat="36.81608467362821102142333984375" lon="-118.54859816841781139373779296875">
        <ele>1847.5999755859375</ele>
        <time>2021-06-28T17:42:03.000Z</time>
        <extensions>
          <ns3:TrackPointExtension>
            <ns3:atemp>35.0</ns3:atemp>
            <ns3:hr>83</ns3:hr>
          </ns3:TrackPointExtension>
        </extensions>
      </trkpt>
      <trkpt lat="36.8159969151020050048828125" lon="-118.54860252700746059417724609375">
        <ele>1846.800048828125</ele>
        <time>2021-06-28T17:42:10.000Z</time>
        <extensions>
          <ns3:TrackPointExtension>
            <ns3:atemp>35.0</ns3:atemp>
            <ns3:hr>82</ns3:hr>
          </ns3:TrackPointExtension>
        </extensions>
      </trkpt>
      <trkpt lat="36.81598928757011890411376953125" lon="-118.54860487394034862518310546875">
        <ele>1846.5999755859375</ele>
        <time>2021-06-28T17:42:11.000Z</time>
        <extensions>
          <ns3:TrackPointExtension>
            <ns3:atemp>35.0</ns3:atemp>
            <ns3:hr>82</ns3:hr>
          </ns3:TrackPointExtension>
        </extensions>
      </trkpt>
      <trkpt lat="36.815931536257266998291015625" lon="-118.548610322177410125732421875">
        <ele>1846.199951171875</ele>
        <time>2021-06-28T17:42:16.000Z</time>
        <extensions>
          <ns3:TrackPointExtension>
            <ns3:atemp>35.0</ns3:atemp>
            <ns3:hr>85</ns3:hr>
          </ns3:TrackPointExtension>
        </extensions>
      </trkpt>
      <trkpt lat="36.8159203045070171356201171875" lon="-118.5486108250916004180908203125">
        <ele>1845.800048828125</ele>
        <time>2021-06-28T17:42:17.000Z</time>
        <extensions>
          <ns3:TrackPointExtension>
            <ns3:atemp>35.0</ns3:atemp>
            <ns3:hr>86</ns3:hr>
          </ns3:TrackPointExtension>
        </extensions>
      </trkpt>
      <trkpt lat="36.81590815074741840362548828125" lon="-118.5486078076064586639404296875">
        <ele>1845.4000244140625</ele>
        <time>2021-06-28T17:42:18.000Z</time>
        <extensions>
          <ns3:TrackPointExtension>
            <ns3:atemp>35.0</ns3:atemp>
            <ns3:hr>85</ns3:hr>
          </ns3:TrackPointExtension>
        </extensions>
      </trkpt>
      <trkpt lat="36.8158582784235477447509765625" lon="-118.5486182011663913726806640625">
        <ele>1845.199951171875</ele>
        <time>2021-06-28T17:42:22.000Z</time>
        <extensions>
          <ns3:TrackPointExtension>
            <ns3:atemp>35.0</ns3:atemp>
            <ns3:hr>84</ns3:hr>
          </ns3:TrackPointExtension>
        </extensions>
      </trkpt>
      <trkpt lat="36.815847046673297882080078125" lon="-118.54863840155303478240966796875">
        <ele>1845</ele>
        <time>2021-06-28T17:42:23.000Z</time>
        <extensions>
          <ns3:TrackPointExtension>
            <ns3:atemp>35.0</ns3:atemp>
            <ns3:hr>88</ns3:hr>
          </ns3:TrackPointExtension>
        </extensions>
      </trkpt>
      <trkpt lat="36.815847046673297882080078125" lon="-118.54863840155303478240966796875">
        <ele>1845</ele>
        <time>2021-06-28T17:42:24.000Z</time>
        <extensions>
          <ns3:TrackPointExtension>
            <ns3:atemp>35.0</ns3:atemp>
            <ns3:hr>84</ns3:hr>
          </ns3:TrackPointExtension>
        </extensions>
      </trkpt>
      <trkpt lat="36.81582458317279815673828125" lon="-118.5486812330782413482666015625">
        <ele>1844.800048828125</ele>
        <time>2021-06-28T17:42:27.000Z</time>
        <extensions>
          <ns3:TrackPointExtension>
            <ns3:atemp>35.0</ns3:atemp>
            <ns3:hr>86</ns3:hr>
          </ns3:TrackPointExtension>
        </extensions>
      </trkpt>
      <trkpt lat="36.81580421514809131622314453125" lon="-118.5486718453466892242431640625">
        <ele>1844.800048828125</ele>
        <time>2021-06-28T17:42:30.000Z</time>
        <extensions>
          <ns3:TrackPointExtension>
            <ns3:atemp>35.0</ns3:atemp>
            <ns3:hr>88</ns3:hr>
          </ns3:TrackPointExtension>
        </extensions>
      </trkpt>
      <trkpt lat="36.81580136530101299285888671875" lon="-118.54866824112832546234130859375">
        <ele>1844.800048828125</ele>
        <time>2021-06-28T17:42:31.000Z</time>
        <extensions>
          <ns3:TrackPointExtension>
            <ns3:atemp>35.0</ns3:atemp>
            <ns3:hr>88</ns3:hr>
          </ns3:TrackPointExtension>
        </extensions>
      </trkpt>
      <trkpt lat="36.8157965876162052154541015625" lon="-118.5486669838428497314453125">
        <ele>1844.5999755859375</ele>
        <time>2021-06-28T17:42:32.000Z</time>
        <extensions>
          <ns3:TrackPointExtension>
            <ns3:atemp>35.0</ns3:atemp>
            <ns3:hr>88</ns3:hr>
          </ns3:TrackPointExtension>
        </extensions>
      </trkpt>
      <trkpt lat="36.81578309275209903717041015625" lon="-118.54865424335002899169921875">
        <ele>1844</ele>
        <time>2021-06-28T17:42:34.000Z</time>
        <extensions>
          <ns3:TrackPointExtension>
            <ns3:atemp>35.0</ns3:atemp>
            <ns3:hr>88</ns3:hr>
          </ns3:TrackPointExtension>
        </extensions>
      </trkpt>
      <trkpt lat="36.81578309275209903717041015625" lon="-118.54865424335002899169921875">
        <ele>1844</ele>
        <time>2021-06-28T17:42:35.000Z</time>
        <extensions>
          <ns3:TrackPointExtension>
            <ns3:atemp>35.0</ns3:atemp>
            <ns3:hr>87</ns3:hr>
          </ns3:TrackPointExtension>
        </extensions>
      </trkpt>
      <trkpt lat="36.81577135808765888214111328125" lon="-118.54863186366856098175048828125">
        <ele>1843.4000244140625</ele>
        <time>2021-06-28T17:42:37.000Z</time>
        <extensions>
          <ns3:TrackPointExtension>
            <ns3:atemp>35.0</ns3:atemp>
            <ns3:hr>86</ns3:hr>
          </ns3:TrackPointExtension>
        </extensions>
      </trkpt>
      <trkpt lat="36.81575895287096500396728515625" lon="-118.548637144267559051513671875">
        <ele>1842.800048828125</ele>
        <time>2021-06-28T17:42:39.000Z</time>
        <extensions>
          <ns3:TrackPointExtension>
            <ns3:atemp>35.0</ns3:atemp>
            <ns3:hr>85</ns3:hr>
          </ns3:TrackPointExtension>
        </extensions>
      </trkpt>
      <trkpt lat="36.81574671529233455657958984375" lon="-118.54863638989627361297607421875">
        <ele>1842.5999755859375</ele>
        <time>2021-06-28T17:42:40.000Z</time>
        <extensions>
          <ns3:TrackPointExtension>
            <ns3:atemp>35.0</ns3:atemp>
            <ns3:hr>84</ns3:hr>
          </ns3:TrackPointExtension>
        </extensions>
      </trkpt>
      <trkpt lat="36.81571754626929759979248046875" lon="-118.5486192069947719573974609375">
        <ele>1842.199951171875</ele>
        <time>2021-06-28T17:42:43.000Z</time>
        <extensions>
          <ns3:TrackPointExtension>
            <ns3:atemp>35.0</ns3:atemp>
            <ns3:hr>81</ns3:hr>
          </ns3:TrackPointExtension>
        </extensions>
      </trkpt>
      <trkpt lat="36.81568167172372341156005859375" lon="-118.54862012900412082672119140625">
        <ele>1841.800048828125</ele>
        <time>2021-06-28T17:42:46.000Z</time>
        <extensions>
          <ns3:TrackPointExtension>
            <ns3:atemp>35.0</ns3:atemp>
            <ns3:hr>80</ns3:hr>
          </ns3:TrackPointExtension>
        </extensions>
      </trkpt>
      <trkpt lat="36.81567010469734668731689453125" lon="-118.54862431995570659637451171875">
        <ele>1841.5999755859375</ele>
        <time>2021-06-28T17:42:47.000Z</time>
        <extensions>
          <ns3:TrackPointExtension>
            <ns3:atemp>35.0</ns3:atemp>
            <ns3:hr>80</ns3:hr>
          </ns3:TrackPointExtension>
        </extensions>
      </trkpt>
      <trkpt lat="36.8156078271567821502685546875" lon="-118.54865516535937786102294921875">
        <ele>1840.800048828125</ele>
        <time>2021-06-28T17:42:51.000Z</time>
        <extensions>
          <ns3:TrackPointExtension>
            <ns3:atemp>35.0</ns3:atemp>
            <ns3:hr>80</ns3:hr>
          </ns3:TrackPointExtension>
        </extensions>
      </trkpt>
      <trkpt lat="36.8155964277684688568115234375" lon="-118.54866187088191509246826171875">
        <ele>1840.199951171875</ele>
        <time>2021-06-28T17:42:52.000Z</time>
        <extensions>
          <ns3:TrackPointExtension>
            <ns3:atemp>35.0</ns3:atemp>
            <ns3:hr>80</ns3:hr>
          </ns3:TrackPointExtension>
        </extensions>
      </trkpt>
      <trkpt lat="36.815572120249271392822265625" lon="-118.54867033660411834716796875">
        <ele>1840.199951171875</ele>
        <time>2021-06-28T17:42:54.000Z</time>
        <extensions>
          <ns3:TrackPointExtension>
            <ns3:atemp>35.0</ns3:atemp>
            <ns3:hr>80</ns3:hr>
          </ns3:TrackPointExtension>
        </extensions>
      </trkpt>
      <trkpt lat="36.8155572004616260528564453125" lon="-118.548678718507289886474609375">
        <ele>1839.800048828125</ele>
        <time>2021-06-28T17:42:57.000Z</time>
        <extensions>
          <ns3:TrackPointExtension>
            <ns3:atemp>35.0</ns3:atemp>
            <ns3:hr>79</ns3:hr>
          </ns3:TrackPointExtension>
        </extensions>
      </trkpt>
      <trkpt lat="36.81555091403424739837646484375" lon="-118.54867980815470218658447265625">
        <ele>1839.5999755859375</ele>
        <time>2021-06-28T17:42:59.000Z</time>
        <extensions>
          <ns3:TrackPointExtension>
            <ns3:atemp>35.0</ns3:atemp>
            <ns3:hr>78</ns3:hr>
          </ns3:TrackPointExtension>
        </extensions>
      </trkpt>
      <trkpt lat="36.8155095912516117095947265625" lon="-118.54867301881313323974609375">
        <ele>1838.5999755859375</ele>
        <time>2021-06-28T17:43:04.000Z</time>
        <extensions>
          <ns3:TrackPointExtension>
            <ns3:atemp>35.0</ns3:atemp>
            <ns3:hr>77</ns3:hr>
          </ns3:TrackPointExtension>
        </extensions>
      </trkpt>
      <trkpt lat="36.8154820986092090606689453125" lon="-118.54867125861346721649169921875">
        <ele>1838.5999755859375</ele>
        <time>2021-06-28T17:43:06.000Z</time>
        <extensions>
          <ns3:TrackPointExtension>
            <ns3:atemp>35.0</ns3:atemp>
            <ns3:hr>76</ns3:hr>
          </ns3:TrackPointExtension>
        </extensions>
      </trkpt>
      <trkpt lat="36.8154660053551197052001953125" lon="-118.5486777126789093017578125">
        <ele>1838</ele>
        <time>2021-06-28T17:43:07.000Z</time>
        <extensions>
          <ns3:TrackPointExtension>
            <ns3:atemp>35.0</ns3:atemp>
            <ns3:hr>76</ns3:hr>
          </ns3:TrackPointExtension>
        </extensions>
      </trkpt>
      <trkpt lat="36.81544907391071319580078125" lon="-118.5486798919737339019775390625">
        <ele>1837.5999755859375</ele>
        <time>2021-06-28T17:43:08.000Z</time>
        <extensions>
          <ns3:TrackPointExtension>
            <ns3:atemp>35.0</ns3:atemp>
            <ns3:hr>76</ns3:hr>
          </ns3:TrackPointExtension>
        </extensions>
      </trkpt>
      <trkpt lat="36.815405152738094329833984375" lon="-118.5486550815403461456298828125">
        <ele>1837.4000244140625</ele>
        <time>2021-06-28T17:43:11.000Z</time>
        <extensions>
          <ns3:TrackPointExtension>
            <ns3:atemp>35.0</ns3:atemp>
            <ns3:hr>77</ns3:hr>
          </ns3:TrackPointExtension>
        </extensions>
      </trkpt>
      <trkpt lat="36.81536600925028324127197265625" lon="-118.548667319118976593017578125">
        <ele>1837.4000244140625</ele>
        <time>2021-06-28T17:43:16.000Z</time>
        <extensions>
          <ns3:TrackPointExtension>
            <ns3:atemp>35.0</ns3:atemp>
            <ns3:hr>80</ns3:hr>
          </ns3:TrackPointExtension>
        </extensions>
      </trkpt>
      <trkpt lat="36.8153593875467777252197265625" lon="-118.54866765439510345458984375">
        <ele>1837.4000244140625</ele>
        <time>2021-06-28T17:43:17.000Z</time>
        <extensions>
          <ns3:TrackPointExtension>
            <ns3:atemp>35.0</ns3:atemp>
            <ns3:hr>81</ns3:hr>
          </ns3:TrackPointExtension>
        </extensions>
      </trkpt>
      <trkpt lat="36.8153466470539569854736328125" lon="-118.548659943044185638427734375">
        <ele>1837.4000244140625</ele>
        <time>2021-06-28T17:43:18.000Z</time>
        <extensions>
          <ns3:TrackPointExtension>
            <ns3:atemp>35.0</ns3:atemp>
            <ns3:hr>82</ns3:hr>
          </ns3:TrackPointExtension>
        </extensions>
      </trkpt>
      <trkpt lat="36.81532996706664562225341796875" lon="-118.548635803163051605224609375">
        <ele>1837</ele>
        <time>2021-06-28T17:43:21.000Z</time>
        <extensions>
          <ns3:TrackPointExtension>
            <ns3:atemp>35.0</ns3:atemp>
            <ns3:hr>82</ns3:hr>
          </ns3:TrackPointExtension>
        </extensions>
      </trkpt>
      <trkpt lat="36.81533030234277248382568359375" lon="-118.54862742125988006591796875">
        <ele>1837</ele>
        <time>2021-06-28T17:43:22.000Z</time>
        <extensions>
          <ns3:TrackPointExtension>
            <ns3:atemp>35.0</ns3:atemp>
            <ns3:hr>82</ns3:hr>
          </ns3:TrackPointExtension>
        </extensions>
      </trkpt>
      <trkpt lat="36.81531228125095367431640625" lon="-118.548598252236843109130859375">
        <ele>1836.5999755859375</ele>
        <time>2021-06-28T17:43:24.000Z</time>
        <extensions>
          <ns3:TrackPointExtension>
            <ns3:atemp>35.0</ns3:atemp>
            <ns3:hr>82</ns3:hr>
          </ns3:TrackPointExtension>
        </extensions>
      </trkpt>
      <trkpt lat="36.8152780830860137939453125" lon="-118.54858945123851299285888671875">
        <ele>1836</ele>
        <time>2021-06-28T17:43:27.000Z</time>
        <extensions>
          <ns3:TrackPointExtension>
            <ns3:atemp>35.0</ns3:atemp>
            <ns3:hr>79</ns3:hr>
          </ns3:TrackPointExtension>
        </extensions>
      </trkpt>
      <trkpt lat="36.8152571283280849456787109375" lon="-118.548619709908962249755859375">
        <ele>1835.5999755859375</ele>
        <time>2021-06-28T17:43:30.000Z</time>
        <extensions>
          <ns3:TrackPointExtension>
            <ns3:atemp>35.0</ns3:atemp>
            <ns3:hr>78</ns3:hr>
          </ns3:TrackPointExtension>
        </extensions>
      </trkpt>
      <trkpt lat="36.81521982885897159576416015625" lon="-118.548636138439178466796875">
        <ele>1835.800048828125</ele>
        <time>2021-06-28T17:43:34.000Z</time>
        <extensions>
          <ns3:TrackPointExtension>
            <ns3:atemp>35.0</ns3:atemp>
            <ns3:hr>79</ns3:hr>
          </ns3:TrackPointExtension>
        </extensions>
      </trkpt>
      <trkpt lat="36.81519158184528350830078125" lon="-118.54864376597106456756591796875">
        <ele>1835.800048828125</ele>
        <time>2021-06-28T17:43:37.000Z</time>
        <extensions>
          <ns3:TrackPointExtension>
            <ns3:atemp>35.0</ns3:atemp>
            <ns3:hr>79</ns3:hr>
          </ns3:TrackPointExtension>
        </extensions>
      </trkpt>
      <trkpt lat="36.8151200003921985626220703125" lon="-118.54864058084785938262939453125">
        <ele>1835.4000244140625</ele>
        <time>2021-06-28T17:43:41.000Z</time>
        <extensions>
          <ns3:TrackPointExtension>
            <ns3:atemp>35.0</ns3:atemp>
            <ns3:hr>80</ns3:hr>
          </ns3:TrackPointExtension>
        </extensions>
      </trkpt>
      <trkpt lat="36.8150693736970424652099609375" lon="-118.54863957501947879791259765625">
        <ele>1834.800048828125</ele>
        <time>2021-06-28T17:43:44.000Z</time>
        <extensions>
          <ns3:TrackPointExtension>
            <ns3:atemp>35.0</ns3:atemp>
            <ns3:hr>80</ns3:hr>
          </ns3:TrackPointExtension>
        </extensions>
      </trkpt>
      <trkpt lat="36.81498312391340732574462890625" lon="-118.5486979968845844268798828125">
        <ele>1833.4000244140625</ele>
        <time>2021-06-28T17:43:51.000Z</time>
        <extensions>
          <ns3:TrackPointExtension>
            <ns3:atemp>35.0</ns3:atemp>
            <ns3:hr>80</ns3:hr>
          </ns3:TrackPointExtension>
        </extensions>
      </trkpt>
      <trkpt lat="36.814957894384860992431640625" lon="-118.54871719144284725189208984375">
        <ele>1831.800048828125</ele>
        <time>2021-06-28T17:43:56.000Z</time>
        <extensions>
          <ns3:TrackPointExtension>
            <ns3:atemp>35.0</ns3:atemp>
            <ns3:hr>82</ns3:hr>
          </ns3:TrackPointExtension>
        </extensions>
      </trkpt>
      <trkpt lat="36.81493802927434444427490234375" lon="-118.54873898439109325408935546875">
        <ele>1831.4000244140625</ele>
        <time>2021-06-28T17:43:59.000Z</time>
        <extensions>
          <ns3:TrackPointExtension>
            <ns3:atemp>35.0</ns3:atemp>
            <ns3:hr>81</ns3:hr>
          </ns3:TrackPointExtension>
        </extensions>
      </trkpt>
      <trkpt lat="36.8149379454553127288818359375" lon="-118.5487474501132965087890625">
        <ele>1831.4000244140625</ele>
        <time>2021-06-28T17:44:01.000Z</time>
        <extensions>
          <ns3:TrackPointExtension>
            <ns3:atemp>35.0</ns3:atemp>
            <ns3:hr>80</ns3:hr>
          </ns3:TrackPointExtension>
        </extensions>
      </trkpt>
      <trkpt lat="36.81490936316549777984619140625" lon="-118.54874887503683567047119140625">
        <ele>1830.800048828125</ele>
        <time>2021-06-28T17:44:04.000Z</time>
        <extensions>
          <ns3:TrackPointExtension>
            <ns3:atemp>35.0</ns3:atemp>
            <ns3:hr>79</ns3:hr>
          </ns3:TrackPointExtension>
        </extensions>
      </trkpt>
      <trkpt lat="36.81490383110940456390380859375" lon="-118.54874636046588420867919921875">
        <ele>1830.800048828125</ele>
        <time>2021-06-28T17:44:05.000Z</time>
        <extensions>
          <ns3:TrackPointExtension>
            <ns3:atemp>35.0</ns3:atemp>
            <ns3:hr>78</ns3:hr>
          </ns3:TrackPointExtension>
        </extensions>
      </trkpt>
      <trkpt lat="36.81490383110940456390380859375" lon="-118.54874636046588420867919921875">
        <ele>1830.5999755859375</ele>
        <time>2021-06-28T17:44:06.000Z</time>
        <extensions>
          <ns3:TrackPointExtension>
            <ns3:atemp>35.0</ns3:atemp>
            <ns3:hr>77</ns3:hr>
          </ns3:TrackPointExtension>
        </extensions>
      </trkpt>
      <trkpt lat="36.81486913003027439117431640625" lon="-118.54876362718641757965087890625">
        <ele>1830</ele>
        <time>2021-06-28T17:44:08.000Z</time>
        <extensions>
          <ns3:TrackPointExtension>
            <ns3:atemp>35.0</ns3:atemp>
            <ns3:hr>78</ns3:hr>
          </ns3:TrackPointExtension>
        </extensions>
      </trkpt>
      <trkpt lat="36.8148611672222614288330078125" lon="-118.54877896606922149658203125">
        <ele>1829.800048828125</ele>
        <time>2021-06-28T17:44:10.000Z</time>
        <extensions>
          <ns3:TrackPointExtension>
            <ns3:atemp>35.0</ns3:atemp>
            <ns3:hr>79</ns3:hr>
          </ns3:TrackPointExtension>
        </extensions>
      </trkpt>
      <trkpt lat="36.814850606024265289306640625" lon="-118.548798076808452606201171875">
        <ele>1829.4000244140625</ele>
        <time>2021-06-28T17:44:12.000Z</time>
        <extensions>
          <ns3:TrackPointExtension>
            <ns3:atemp>35.0</ns3:atemp>
            <ns3:hr>81</ns3:hr>
          </ns3:TrackPointExtension>
        </extensions>
      </trkpt>
      <trkpt lat="36.81484214030206203460693359375" lon="-118.5487984120845794677734375">
        <ele>1829.199951171875</ele>
        <time>2021-06-28T17:44:13.000Z</time>
        <extensions>
          <ns3:TrackPointExtension>
            <ns3:atemp>35.0</ns3:atemp>
            <ns3:hr>81</ns3:hr>
          </ns3:TrackPointExtension>
        </extensions>
      </trkpt>
      <trkpt lat="36.81482370011508464813232421875" lon="-118.54880553670227527618408203125">
        <ele>1828.5999755859375</ele>
        <time>2021-06-28T17:44:16.000Z</time>
        <extensions>
          <ns3:TrackPointExtension>
            <ns3:atemp>35.0</ns3:atemp>
            <ns3:hr>83</ns3:hr>
          </ns3:TrackPointExtension>
        </extensions>
      </trkpt>
      <trkpt lat="36.81480576284229755401611328125" lon="-118.54880302213132381439208984375">
        <ele>1828</ele>
        <time>2021-06-28T17:44:18.000Z</time>
        <extensions>
          <ns3:TrackPointExtension>
            <ns3:atemp>35.0</ns3:atemp>
            <ns3:hr>84</ns3:hr>
          </ns3:TrackPointExtension>
        </extensions>
      </trkpt>
      <trkpt lat="36.8147998116910457611083984375" lon="-118.54879665188491344451904296875">
        <ele>1827.800048828125</ele>
        <time>2021-06-28T17:44:20.000Z</time>
        <extensions>
          <ns3:TrackPointExtension>
            <ns3:atemp>35.0</ns3:atemp>
            <ns3:hr>84</ns3:hr>
          </ns3:TrackPointExtension>
        </extensions>
      </trkpt>
      <trkpt lat="36.81479386053979396820068359375" lon="-118.5487727634608745574951171875">
        <ele>1827.199951171875</ele>
        <time>2021-06-28T17:44:23.000Z</time>
        <extensions>
          <ns3:TrackPointExtension>
            <ns3:atemp>35.0</ns3:atemp>
            <ns3:hr>85</ns3:hr>
          </ns3:TrackPointExtension>
        </extensions>
      </trkpt>
      <trkpt lat="36.814780198037624359130859375" lon="-118.5487610287964344024658203125">
        <ele>1826.5999755859375</ele>
        <time>2021-06-28T17:44:26.000Z</time>
        <extensions>
          <ns3:TrackPointExtension>
            <ns3:atemp>35.0</ns3:atemp>
            <ns3:hr>84</ns3:hr>
          </ns3:TrackPointExtension>
        </extensions>
      </trkpt>
      <trkpt lat="36.81476821191608905792236328125" lon="-118.54877217672765254974365234375">
        <ele>1826.199951171875</ele>
        <time>2021-06-28T17:44:27.000Z</time>
        <extensions>
          <ns3:TrackPointExtension>
            <ns3:atemp>35.0</ns3:atemp>
            <ns3:hr>83</ns3:hr>
          </ns3:TrackPointExtension>
        </extensions>
      </trkpt>
      <trkpt lat="36.814757399260997772216796875" lon="-118.54877938516438007354736328125">
        <ele>1826.199951171875</ele>
        <time>2021-06-28T17:44:28.000Z</time>
        <extensions>
          <ns3:TrackPointExtension>
            <ns3:atemp>35.0</ns3:atemp>
            <ns3:hr>84</ns3:hr>
          </ns3:TrackPointExtension>
        </extensions>
      </trkpt>
      <trkpt lat="36.8147528730332851409912109375" lon="-118.5487868450582027435302734375">
        <ele>1826</ele>
        <time>2021-06-28T17:44:29.000Z</time>
        <extensions>
          <ns3:TrackPointExtension>
            <ns3:atemp>35.0</ns3:atemp>
            <ns3:hr>83</ns3:hr>
          </ns3:TrackPointExtension>
        </extensions>
      </trkpt>
      <trkpt lat="36.8147444911301136016845703125" lon="-118.5488119907677173614501953125">
        <ele>1825.800048828125</ele>
        <time>2021-06-28T17:44:32.000Z</time>
        <extensions>
          <ns3:TrackPointExtension>
            <ns3:atemp>35.0</ns3:atemp>
            <ns3:hr>82</ns3:hr>
          </ns3:TrackPointExtension>
        </extensions>
      </trkpt>
      <trkpt lat="36.81473736651241779327392578125" lon="-118.54881609790027141571044921875">
        <ele>1825</ele>
        <time>2021-06-28T17:44:34.000Z</time>
        <extensions>
          <ns3:TrackPointExtension>
            <ns3:atemp>35.0</ns3:atemp>
            <ns3:hr>82</ns3:hr>
          </ns3:TrackPointExtension>
        </extensions>
      </trkpt>
      <trkpt lat="36.8146933615207672119140625" lon="-118.5488334484398365020751953125">
        <ele>1824.4000244140625</ele>
        <time>2021-06-28T17:44:39.000Z</time>
        <extensions>
          <ns3:TrackPointExtension>
            <ns3:atemp>35.0</ns3:atemp>
            <ns3:hr>81</ns3:hr>
          </ns3:TrackPointExtension>
        </extensions>
      </trkpt>
      <trkpt lat="36.814682297408580780029296875" lon="-118.5488404892385005950927734375">
        <ele>1824.199951171875</ele>
        <time>2021-06-28T17:44:40.000Z</time>
        <extensions>
          <ns3:TrackPointExtension>
            <ns3:atemp>35.0</ns3:atemp>
            <ns3:hr>80</ns3:hr>
          </ns3:TrackPointExtension>
        </extensions>
      </trkpt>
      <trkpt lat="36.8146546371281147003173828125" lon="-118.5488381423056125640869140625">
        <ele>1824.199951171875</ele>
        <time>2021-06-28T17:44:42.000Z</time>
        <extensions>
          <ns3:TrackPointExtension>
            <ns3:atemp>35.0</ns3:atemp>
            <ns3:hr>80</ns3:hr>
          </ns3:TrackPointExtension>
        </extensions>
      </trkpt>
      <trkpt lat="36.8146459199488162994384765625" lon="-118.54884065687656402587890625">
        <ele>1823.800048828125</ele>
        <time>2021-06-28T17:44:43.000Z</time>
        <extensions>
          <ns3:TrackPointExtension>
            <ns3:atemp>35.0</ns3:atemp>
            <ns3:hr>80</ns3:hr>
          </ns3:TrackPointExtension>
        </extensions>
      </trkpt>
      <trkpt lat="36.81463368237018585205078125" lon="-118.54883001185953617095947265625">
        <ele>1823.800048828125</ele>
        <time>2021-06-28T17:44:45.000Z</time>
        <extensions>
          <ns3:TrackPointExtension>
            <ns3:atemp>35.0</ns3:atemp>
            <ns3:hr>80</ns3:hr>
          </ns3:TrackPointExtension>
        </extensions>
      </trkpt>
      <trkpt lat="36.81462890468537807464599609375" lon="-118.5488260723650455474853515625">
        <ele>1823.5999755859375</ele>
        <time>2021-06-28T17:44:46.000Z</time>
        <extensions>
          <ns3:TrackPointExtension>
            <ns3:atemp>35.0</ns3:atemp>
            <ns3:hr>80</ns3:hr>
          </ns3:TrackPointExtension>
        </extensions>
      </trkpt>
      <trkpt lat="36.81461817584931850433349609375" lon="-118.54882054030895233154296875">
        <ele>1823.5999755859375</ele>
        <time>2021-06-28T17:44:47.000Z</time>
        <extensions>
          <ns3:TrackPointExtension>
            <ns3:atemp>35.0</ns3:atemp>
            <ns3:hr>80</ns3:hr>
          </ns3:TrackPointExtension>
        </extensions>
      </trkpt>
      <trkpt lat="36.81457936763763427734375" lon="-118.548812158405780792236328125">
        <ele>1822.800048828125</ele>
        <time>2021-06-28T17:44:50.000Z</time>
        <extensions>
          <ns3:TrackPointExtension>
            <ns3:atemp>35.0</ns3:atemp>
            <ns3:hr>81</ns3:hr>
          </ns3:TrackPointExtension>
        </extensions>
      </trkpt>
      <trkpt lat="36.8145688064396381378173828125" lon="-118.54881006292998790740966796875">
        <ele>1822.5999755859375</ele>
        <time>2021-06-28T17:44:51.000Z</time>
        <extensions>
          <ns3:TrackPointExtension>
            <ns3:atemp>35.0</ns3:atemp>
            <ns3:hr>82</ns3:hr>
          </ns3:TrackPointExtension>
        </extensions>
      </trkpt>
      <trkpt lat="36.8145688064396381378173828125" lon="-118.54881006292998790740966796875">
        <ele>1822.5999755859375</ele>
        <time>2021-06-28T17:44:52.000Z</time>
        <extensions>
          <ns3:TrackPointExtension>
            <ns3:atemp>35.0</ns3:atemp>
            <ns3:hr>82</ns3:hr>
          </ns3:TrackPointExtension>
        </extensions>
      </trkpt>
      <trkpt lat="36.81453821249306201934814453125" lon="-118.54879262857139110565185546875">
        <ele>1822.199951171875</ele>
        <time>2021-06-28T17:44:54.000Z</time>
        <extensions>
          <ns3:TrackPointExtension>
            <ns3:atemp>35.0</ns3:atemp>
            <ns3:hr>84</ns3:hr>
          </ns3:TrackPointExtension>
        </extensions>
      </trkpt>
      <trkpt lat="36.81452899239957332611083984375" lon="-118.5487868450582027435302734375">
        <ele>1821.5999755859375</ele>
        <time>2021-06-28T17:44:55.000Z</time>
        <extensions>
          <ns3:TrackPointExtension>
            <ns3:atemp>35.0</ns3:atemp>
            <ns3:hr>84</ns3:hr>
          </ns3:TrackPointExtension>
        </extensions>
      </trkpt>
      <trkpt lat="36.814507953822612762451171875" lon="-118.548775613307952880859375">
        <ele>1821.5999755859375</ele>
        <time>2021-06-28T17:44:57.000Z</time>
        <extensions>
          <ns3:TrackPointExtension>
            <ns3:atemp>35.0</ns3:atemp>
            <ns3:hr>85</ns3:hr>
          </ns3:TrackPointExtension>
        </extensions>
      </trkpt>
      <trkpt lat="36.814491190016269683837890625" lon="-118.548775278031826019287109375">
        <ele>1821.4000244140625</ele>
        <time>2021-06-28T17:44:59.000Z</time>
        <extensions>
          <ns3:TrackPointExtension>
            <ns3:atemp>35.0</ns3:atemp>
            <ns3:hr>84</ns3:hr>
          </ns3:TrackPointExtension>
        </extensions>
      </trkpt>
      <trkpt lat="36.814481802284717559814453125" lon="-118.54877150617539882659912109375">
        <ele>1821.199951171875</ele>
        <time>2021-06-28T17:45:00.000Z</time>
        <extensions>
          <ns3:TrackPointExtension>
            <ns3:atemp>35.0</ns3:atemp>
            <ns3:hr>82</ns3:hr>
          </ns3:TrackPointExtension>
        </extensions>
      </trkpt>
      <trkpt lat="36.81447786279022693634033203125" lon="-118.54876630939543247222900390625">
        <ele>1820.5999755859375</ele>
        <time>2021-06-28T17:45:01.000Z</time>
        <extensions>
          <ns3:TrackPointExtension>
            <ns3:atemp>35.0</ns3:atemp>
            <ns3:hr>83</ns3:hr>
          </ns3:TrackPointExtension>
        </extensions>
      </trkpt>
      <trkpt lat="36.814472414553165435791015625" lon="-118.54876019060611724853515625">
        <ele>1820.199951171875</ele>
        <time>2021-06-28T17:45:02.000Z</time>
        <extensions>
          <ns3:TrackPointExtension>
            <ns3:atemp>35.0</ns3:atemp>
            <ns3:hr>85</ns3:hr>
          </ns3:TrackPointExtension>
        </extensions>
      </trkpt>
      <trkpt lat="36.81446738541126251220703125" lon="-118.548754490911960601806640625">
        <ele>1819.800048828125</ele>
        <time>2021-06-28T17:45:03.000Z</time>
        <extensions>
          <ns3:TrackPointExtension>
            <ns3:atemp>35.0</ns3:atemp>
            <ns3:hr>84</ns3:hr>
          </ns3:TrackPointExtension>
        </extensions>
      </trkpt>
      <trkpt lat="36.8144548125565052032470703125" lon="-118.5487435944378376007080078125">
        <ele>1819.800048828125</ele>
        <time>2021-06-28T17:45:05.000Z</time>
        <extensions>
          <ns3:TrackPointExtension>
            <ns3:atemp>35.0</ns3:atemp>
            <ns3:hr>83</ns3:hr>
          </ns3:TrackPointExtension>
        </extensions>
      </trkpt>
      <trkpt lat="36.81444282643496990203857421875" lon="-118.5487501323223114013671875">
        <ele>1819.5999755859375</ele>
        <time>2021-06-28T17:45:08.000Z</time>
        <extensions>
          <ns3:TrackPointExtension>
            <ns3:atemp>35.0</ns3:atemp>
            <ns3:hr>84</ns3:hr>
          </ns3:TrackPointExtension>
        </extensions>
      </trkpt>
      <trkpt lat="36.8144305050373077392578125" lon="-118.5487627051770687103271484375">
        <ele>1819.199951171875</ele>
        <time>2021-06-28T17:45:09.000Z</time>
        <extensions>
          <ns3:TrackPointExtension>
            <ns3:atemp>35.0</ns3:atemp>
            <ns3:hr>84</ns3:hr>
          </ns3:TrackPointExtension>
        </extensions>
      </trkpt>
      <trkpt lat="36.81441214866936206817626953125" lon="-118.548784665763378143310546875">
        <ele>1818.5999755859375</ele>
        <time>2021-06-28T17:45:12.000Z</time>
        <extensions>
          <ns3:TrackPointExtension>
            <ns3:atemp>34.0</ns3:atemp>
            <ns3:hr>85</ns3:hr>
          </ns3:TrackPointExtension>
        </extensions>
      </trkpt>
      <trkpt lat="36.81440460495650768280029296875" lon="-118.548794724047183990478515625">
        <ele>1818.4000244140625</ele>
        <time>2021-06-28T17:45:14.000Z</time>
        <extensions>
          <ns3:TrackPointExtension>
            <ns3:atemp>34.0</ns3:atemp>
            <ns3:hr>85</ns3:hr>
          </ns3:TrackPointExtension>
        </extensions>
      </trkpt>
      <trkpt lat="36.8143984861671924591064453125" lon="-118.54880101047456264495849609375">
        <ele>1817.800048828125</ele>
        <time>2021-06-28T17:45:15.000Z</time>
        <extensions>
          <ns3:TrackPointExtension>
            <ns3:atemp>34.0</ns3:atemp>
            <ns3:hr>85</ns3:hr>
          </ns3:TrackPointExtension>
        </extensions>
      </trkpt>
      <trkpt lat="36.81438080035150051116943359375" lon="-118.5488109849393367767333984375">
        <ele>1817</ele>
        <time>2021-06-28T17:45:18.000Z</time>
        <extensions>
          <ns3:TrackPointExtension>
            <ns3:atemp>34.0</ns3:atemp>
            <ns3:hr>82</ns3:hr>
          </ns3:TrackPointExtension>
        </extensions>
      </trkpt>
      <trkpt lat="36.81435984559357166290283203125" lon="-118.54881475679576396942138671875">
        <ele>1816.5999755859375</ele>
        <time>2021-06-28T17:45:20.000Z</time>
        <extensions>
          <ns3:TrackPointExtension>
            <ns3:atemp>34.0</ns3:atemp>
            <ns3:hr>81</ns3:hr>
          </ns3:TrackPointExtension>
        </extensions>
      </trkpt>
      <trkpt lat="36.8143512122333049774169921875" lon="-118.54882196523249149322509765625">
        <ele>1816.5999755859375</ele>
        <time>2021-06-28T17:45:21.000Z</time>
        <extensions>
          <ns3:TrackPointExtension>
            <ns3:atemp>34.0</ns3:atemp>
            <ns3:hr>80</ns3:hr>
          </ns3:TrackPointExtension>
        </extensions>
      </trkpt>
      <trkpt lat="36.81432665325701236724853515625" lon="-118.54885063134133815765380859375">
        <ele>1815.800048828125</ele>
        <time>2021-06-28T17:45:26.000Z</time>
        <extensions>
          <ns3:TrackPointExtension>
            <ns3:atemp>34.0</ns3:atemp>
            <ns3:hr>81</ns3:hr>
          </ns3:TrackPointExtension>
        </extensions>
      </trkpt>
      <trkpt lat="36.81432665325701236724853515625" lon="-118.54885063134133815765380859375">
        <ele>1815.800048828125</ele>
        <time>2021-06-28T17:45:27.000Z</time>
        <extensions>
          <ns3:TrackPointExtension>
            <ns3:atemp>34.0</ns3:atemp>
            <ns3:hr>82</ns3:hr>
          </ns3:TrackPointExtension>
        </extensions>
      </trkpt>
      <trkpt lat="36.814312152564525604248046875" lon="-118.54885985143482685089111328125">
        <ele>1815.199951171875</ele>
        <time>2021-06-28T17:45:28.000Z</time>
        <extensions>
          <ns3:TrackPointExtension>
            <ns3:atemp>34.0</ns3:atemp>
            <ns3:hr>81</ns3:hr>
          </ns3:TrackPointExtension>
        </extensions>
      </trkpt>
      <trkpt lat="36.81430066935718059539794921875" lon="-118.548863790929317474365234375">
        <ele>1815</ele>
        <time>2021-06-28T17:45:29.000Z</time>
        <extensions>
          <ns3:TrackPointExtension>
            <ns3:atemp>34.0</ns3:atemp>
            <ns3:hr>81</ns3:hr>
          </ns3:TrackPointExtension>
        </extensions>
      </trkpt>
      <trkpt lat="36.81427166797220706939697265625" lon="-118.54888935573399066925048828125">
        <ele>1814.5999755859375</ele>
        <time>2021-06-28T17:45:33.000Z</time>
        <extensions>
          <ns3:TrackPointExtension>
            <ns3:atemp>34.0</ns3:atemp>
            <ns3:hr>80</ns3:hr>
          </ns3:TrackPointExtension>
        </extensions>
      </trkpt>
      <trkpt lat="36.81426580063998699188232421875" lon="-118.548892624676227569580078125">
        <ele>1814.4000244140625</ele>
        <time>2021-06-28T17:45:34.000Z</time>
        <extensions>
          <ns3:TrackPointExtension>
            <ns3:atemp>34.0</ns3:atemp>
            <ns3:hr>79</ns3:hr>
          </ns3:TrackPointExtension>
        </extensions>
      </trkpt>
      <trkpt lat="36.8142543174326419830322265625" lon="-118.54889740236103534698486328125">
        <ele>1814</ele>
        <time>2021-06-28T17:45:36.000Z</time>
        <extensions>
          <ns3:TrackPointExtension>
            <ns3:atemp>34.0</ns3:atemp>
            <ns3:hr>78</ns3:hr>
          </ns3:TrackPointExtension>
        </extensions>
      </trkpt>
      <trkpt lat="36.81423394940793514251708984375" lon="-118.54889824055135250091552734375">
        <ele>1813.800048828125</ele>
        <time>2021-06-28T17:45:38.000Z</time>
        <extensions>
          <ns3:TrackPointExtension>
            <ns3:atemp>34.0</ns3:atemp>
            <ns3:hr>78</ns3:hr>
          </ns3:TrackPointExtension>
        </extensions>
      </trkpt>
      <trkpt lat="36.814224980771541595458984375" lon="-118.5489196144044399261474609375">
        <ele>1813</ele>
        <time>2021-06-28T17:45:40.000Z</time>
        <extensions>
          <ns3:TrackPointExtension>
            <ns3:atemp>34.0</ns3:atemp>
            <ns3:hr>78</ns3:hr>
          </ns3:TrackPointExtension>
        </extensions>
      </trkpt>
      <trkpt lat="36.8142291717231273651123046875" lon="-118.548990190029144287109375">
        <ele>1812.800048828125</ele>
        <time>2021-06-28T17:45:45.000Z</time>
        <extensions>
          <ns3:TrackPointExtension>
            <ns3:atemp>34.0</ns3:atemp>
            <ns3:hr>75</ns3:hr>
          </ns3:TrackPointExtension>
        </extensions>
      </trkpt>
      <trkpt lat="36.8142043612897396087646484375" lon="-118.5490124858915805816650390625">
        <ele>1811.800048828125</ele>
        <time>2021-06-28T17:45:49.000Z</time>
        <extensions>
          <ns3:TrackPointExtension>
            <ns3:atemp>34.0</ns3:atemp>
            <ns3:hr>77</ns3:hr>
          </ns3:TrackPointExtension>
        </extensions>
      </trkpt>
      <trkpt lat="36.81419958360493183135986328125" lon="-118.549115918576717376708984375">
        <ele>1810.800048828125</ele>
        <time>2021-06-28T17:45:55.000Z</time>
        <extensions>
          <ns3:TrackPointExtension>
            <ns3:atemp>34.0</ns3:atemp>
            <ns3:hr>77</ns3:hr>
          </ns3:TrackPointExtension>
        </extensions>
      </trkpt>
      <trkpt lat="36.8141986615955829620361328125" lon="-118.54912203736603260040283203125">
        <ele>1810.5999755859375</ele>
        <time>2021-06-28T17:45:56.000Z</time>
        <extensions>
          <ns3:TrackPointExtension>
            <ns3:atemp>34.0</ns3:atemp>
            <ns3:hr>77</ns3:hr>
          </ns3:TrackPointExtension>
        </extensions>
      </trkpt>
      <trkpt lat="36.8141891062259674072265625" lon="-118.54913360439240932464599609375">
        <ele>1810</ele>
        <time>2021-06-28T17:45:58.000Z</time>
        <extensions>
          <ns3:TrackPointExtension>
            <ns3:atemp>34.0</ns3:atemp>
            <ns3:hr>77</ns3:hr>
          </ns3:TrackPointExtension>
        </extensions>
      </trkpt>
      <trkpt lat="36.81417527608573436737060546875" lon="-118.54914969764649868011474609375">
        <ele>1809.4000244140625</ele>
        <time>2021-06-28T17:46:01.000Z</time>
        <extensions>
          <ns3:TrackPointExtension>
            <ns3:atemp>34.0</ns3:atemp>
            <ns3:hr>77</ns3:hr>
          </ns3:TrackPointExtension>
        </extensions>
      </trkpt>
      <trkpt lat="36.81417125277221202850341796875" lon="-118.5491519607603549957275390625">
        <ele>1809.199951171875</ele>
        <time>2021-06-28T17:46:02.000Z</time>
        <extensions>
          <ns3:TrackPointExtension>
            <ns3:atemp>34.0</ns3:atemp>
            <ns3:hr>77</ns3:hr>
          </ns3:TrackPointExtension>
        </extensions>
      </trkpt>
      <trkpt lat="36.81416471488773822784423828125" lon="-118.54916914366185665130615234375">
        <ele>1808.800048828125</ele>
        <time>2021-06-28T17:46:04.000Z</time>
        <extensions>
          <ns3:TrackPointExtension>
            <ns3:atemp>34.0</ns3:atemp>
            <ns3:hr>76</ns3:hr>
          </ns3:TrackPointExtension>
        </extensions>
      </trkpt>
      <trkpt lat="36.81416018866002559661865234375" lon="-118.54917350225150585174560546875">
        <ele>1808.199951171875</ele>
        <time>2021-06-28T17:46:05.000Z</time>
        <extensions>
          <ns3:TrackPointExtension>
            <ns3:atemp>34.0</ns3:atemp>
            <ns3:hr>76</ns3:hr>
          </ns3:TrackPointExtension>
        </extensions>
      </trkpt>
      <trkpt lat="36.814134120941162109375" lon="-118.5491938702762126922607421875">
        <ele>1807.4000244140625</ele>
        <time>2021-06-28T17:46:08.000Z</time>
        <extensions>
          <ns3:TrackPointExtension>
            <ns3:atemp>34.0</ns3:atemp>
            <ns3:hr>74</ns3:hr>
          </ns3:TrackPointExtension>
        </extensions>
      </trkpt>
      <trkpt lat="36.81412674486637115478515625" lon="-118.54920367710292339324951171875">
        <ele>1807.199951171875</ele>
        <time>2021-06-28T17:46:09.000Z</time>
        <extensions>
          <ns3:TrackPointExtension>
            <ns3:atemp>34.0</ns3:atemp>
            <ns3:hr>74</ns3:hr>
          </ns3:TrackPointExtension>
        </extensions>
      </trkpt>
      <trkpt lat="36.81412674486637115478515625" lon="-118.54920367710292339324951171875">
        <ele>1807</ele>
        <time>2021-06-28T17:46:10.000Z</time>
        <extensions>
          <ns3:TrackPointExtension>
            <ns3:atemp>34.0</ns3:atemp>
            <ns3:hr>74</ns3:hr>
          </ns3:TrackPointExtension>
        </extensions>
      </trkpt>
      <trkpt lat="36.814071424305438995361328125" lon="-118.54923133738338947296142578125">
        <ele>1806.199951171875</ele>
        <time>2021-06-28T17:46:15.000Z</time>
        <extensions>
          <ns3:TrackPointExtension>
            <ns3:atemp>34.0</ns3:atemp>
            <ns3:hr>74</ns3:hr>
          </ns3:TrackPointExtension>
        </extensions>
      </trkpt>
      <trkpt lat="36.8140561692416667938232421875" lon="-118.54924458079040050506591796875">
        <ele>1806</ele>
        <time>2021-06-28T17:46:16.000Z</time>
        <extensions>
          <ns3:TrackPointExtension>
            <ns3:atemp>34.0</ns3:atemp>
            <ns3:hr>75</ns3:hr>
          </ns3:TrackPointExtension>
        </extensions>
      </trkpt>
      <trkpt lat="36.81403152644634246826171875" lon="-118.5492693074047565460205078125">
        <ele>1805</ele>
        <time>2021-06-28T17:46:20.000Z</time>
        <extensions>
          <ns3:TrackPointExtension>
            <ns3:atemp>34.0</ns3:atemp>
            <ns3:hr>76</ns3:hr>
          </ns3:TrackPointExtension>
        </extensions>
      </trkpt>
      <trkpt lat="36.81400470435619354248046875" lon="-118.54930602014064788818359375">
        <ele>1804.5999755859375</ele>
        <time>2021-06-28T17:46:21.000Z</time>
        <extensions>
          <ns3:TrackPointExtension>
            <ns3:atemp>34.0</ns3:atemp>
            <ns3:hr>77</ns3:hr>
          </ns3:TrackPointExtension>
        </extensions>
      </trkpt>
      <trkpt lat="36.81398198939859867095947265625" lon="-118.549298979341983795166015625">
        <ele>1804.4000244140625</ele>
        <time>2021-06-28T17:46:23.000Z</time>
        <extensions>
          <ns3:TrackPointExtension>
            <ns3:atemp>34.0</ns3:atemp>
            <ns3:hr>79</ns3:hr>
          </ns3:TrackPointExtension>
        </extensions>
      </trkpt>
      <trkpt lat="36.8139582686126232147216796875" lon="-118.54927928186953067779541015625">
        <ele>1804.199951171875</ele>
        <time>2021-06-28T17:46:25.000Z</time>
        <extensions>
          <ns3:TrackPointExtension>
            <ns3:atemp>34.0</ns3:atemp>
            <ns3:hr>82</ns3:hr>
          </ns3:TrackPointExtension>
        </extensions>
      </trkpt>
      <trkpt lat="36.81393035687506198883056640625" lon="-118.54925916530191898345947265625">
        <ele>1803.800048828125</ele>
        <time>2021-06-28T17:46:29.000Z</time>
        <extensions>
          <ns3:TrackPointExtension>
            <ns3:atemp>34.0</ns3:atemp>
            <ns3:hr>85</ns3:hr>
          </ns3:TrackPointExtension>
        </extensions>
      </trkpt>
      <trkpt lat="36.813923902809619903564453125" lon="-118.549253381788730621337890625">
        <ele>1803.199951171875</ele>
        <time>2021-06-28T17:46:31.000Z</time>
        <extensions>
          <ns3:TrackPointExtension>
            <ns3:atemp>34.0</ns3:atemp>
            <ns3:hr>86</ns3:hr>
          </ns3:TrackPointExtension>
        </extensions>
      </trkpt>
      <trkpt lat="36.813915856182575225830078125" lon="-118.54925128631293773651123046875">
        <ele>1803</ele>
        <time>2021-06-28T17:46:33.000Z</time>
        <extensions>
          <ns3:TrackPointExtension>
            <ns3:atemp>34.0</ns3:atemp>
            <ns3:hr>87</ns3:hr>
          </ns3:TrackPointExtension>
        </extensions>
      </trkpt>
      <trkpt lat="36.813915856182575225830078125" lon="-118.54925128631293773651123046875">
        <ele>1802.800048828125</ele>
        <time>2021-06-28T17:46:34.000Z</time>
        <extensions>
          <ns3:TrackPointExtension>
            <ns3:atemp>34.0</ns3:atemp>
            <ns3:hr>86</ns3:hr>
          </ns3:TrackPointExtension>
        </extensions>
      </trkpt>
      <trkpt lat="36.8138975836336612701416015625" lon="-118.5492572374641895294189453125">
        <ele>1802.4000244140625</ele>
        <time>2021-06-28T17:46:37.000Z</time>
        <extensions>
          <ns3:TrackPointExtension>
            <ns3:atemp>34.0</ns3:atemp>
            <ns3:hr>86</ns3:hr>
          </ns3:TrackPointExtension>
        </extensions>
      </trkpt>
      <trkpt lat="36.8138757906854152679443359375" lon="-118.549248017370700836181640625">
        <ele>1802.199951171875</ele>
        <time>2021-06-28T17:46:40.000Z</time>
        <extensions>
          <ns3:TrackPointExtension>
            <ns3:atemp>34.0</ns3:atemp>
            <ns3:hr>84</ns3:hr>
          </ns3:TrackPointExtension>
        </extensions>
      </trkpt>
      <trkpt lat="36.8138659000396728515625" lon="-118.54924240149557590484619140625">
        <ele>1802.199951171875</ele>
        <time>2021-06-28T17:46:41.000Z</time>
        <extensions>
          <ns3:TrackPointExtension>
            <ns3:atemp>34.0</ns3:atemp>
            <ns3:hr>83</ns3:hr>
          </ns3:TrackPointExtension>
        </extensions>
      </trkpt>
      <trkpt lat="36.81386128999292850494384765625" lon="-118.54923787526786327362060546875">
        <ele>1801.800048828125</ele>
        <time>2021-06-28T17:46:42.000Z</time>
        <extensions>
          <ns3:TrackPointExtension>
            <ns3:atemp>34.0</ns3:atemp>
            <ns3:hr>83</ns3:hr>
          </ns3:TrackPointExtension>
        </extensions>
      </trkpt>
      <trkpt lat="36.81383413262665271759033203125" lon="-118.54926981031894683837890625">
        <ele>1800.800048828125</ele>
        <time>2021-06-28T17:46:46.000Z</time>
        <extensions>
          <ns3:TrackPointExtension>
            <ns3:atemp>34.0</ns3:atemp>
            <ns3:hr>82</ns3:hr>
          </ns3:TrackPointExtension>
        </extensions>
      </trkpt>
      <trkpt lat="36.81376866996288299560546875" lon="-118.54924944229423999786376953125">
        <ele>1800.199951171875</ele>
        <time>2021-06-28T17:46:51.000Z</time>
        <extensions>
          <ns3:TrackPointExtension>
            <ns3:atemp>34.0</ns3:atemp>
            <ns3:hr>84</ns3:hr>
          </ns3:TrackPointExtension>
        </extensions>
      </trkpt>
      <trkpt lat="36.81373489089310169219970703125" lon="-118.54924055747687816619873046875">
        <ele>1799.199951171875</ele>
        <time>2021-06-28T17:46:56.000Z</time>
        <extensions>
          <ns3:TrackPointExtension>
            <ns3:atemp>34.0</ns3:atemp>
            <ns3:hr>84</ns3:hr>
          </ns3:TrackPointExtension>
        </extensions>
      </trkpt>
      <trkpt lat="36.8137222342193126678466796875" lon="-118.54924776591360569000244140625">
        <ele>1798.800048828125</ele>
        <time>2021-06-28T17:46:59.000Z</time>
        <extensions>
          <ns3:TrackPointExtension>
            <ns3:atemp>34.0</ns3:atemp>
            <ns3:hr>81</ns3:hr>
          </ns3:TrackPointExtension>
        </extensions>
      </trkpt>
      <trkpt lat="36.813699938356876373291015625" lon="-118.5492780245840549468994140625">
        <ele>1798.4000244140625</ele>
        <time>2021-06-28T17:47:01.000Z</time>
        <extensions>
          <ns3:TrackPointExtension>
            <ns3:atemp>34.0</ns3:atemp>
            <ns3:hr>81</ns3:hr>
          </ns3:TrackPointExtension>
        </extensions>
      </trkpt>
      <trkpt lat="36.813689209520816802978515625" lon="-118.5492797009646892547607421875">
        <ele>1798.199951171875</ele>
        <time>2021-06-28T17:47:02.000Z</time>
        <extensions>
          <ns3:TrackPointExtension>
            <ns3:atemp>34.0</ns3:atemp>
            <ns3:hr>85</ns3:hr>
          </ns3:TrackPointExtension>
        </extensions>
      </trkpt>
      <trkpt lat="36.81368024088442325592041015625" lon="-118.5492813773453235626220703125">
        <ele>1798</ele>
        <time>2021-06-28T17:47:03.000Z</time>
        <extensions>
          <ns3:TrackPointExtension>
            <ns3:atemp>34.0</ns3:atemp>
            <ns3:hr>88</ns3:hr>
          </ns3:TrackPointExtension>
        </extensions>
      </trkpt>
      <trkpt lat="36.81367169134318828582763671875" lon="-118.5492854006588459014892578125">
        <ele>1797.800048828125</ele>
        <time>2021-06-28T17:47:04.000Z</time>
        <extensions>
          <ns3:TrackPointExtension>
            <ns3:atemp>34.0</ns3:atemp>
            <ns3:hr>91</ns3:hr>
          </ns3:TrackPointExtension>
        </extensions>
      </trkpt>
      <trkpt lat="36.81365258060395717620849609375" lon="-118.54927928186953067779541015625">
        <ele>1797</ele>
        <time>2021-06-28T17:47:07.000Z</time>
        <extensions>
          <ns3:TrackPointExtension>
            <ns3:atemp>34.0</ns3:atemp>
            <ns3:hr>90</ns3:hr>
          </ns3:TrackPointExtension>
        </extensions>
      </trkpt>
      <trkpt lat="36.8136323802173137664794921875" lon="-118.54926235042512416839599609375">
        <ele>1796.4000244140625</ele>
        <time>2021-06-28T17:47:10.000Z</time>
        <extensions>
          <ns3:TrackPointExtension>
            <ns3:atemp>34.0</ns3:atemp>
            <ns3:hr>87</ns3:hr>
          </ns3:TrackPointExtension>
        </extensions>
      </trkpt>
      <trkpt lat="36.81362391449511051177978515625" lon="-118.54925128631293773651123046875">
        <ele>1796.199951171875</ele>
        <time>2021-06-28T17:47:12.000Z</time>
        <extensions>
          <ns3:TrackPointExtension>
            <ns3:atemp>34.0</ns3:atemp>
            <ns3:hr>86</ns3:hr>
          </ns3:TrackPointExtension>
        </extensions>
      </trkpt>
      <trkpt lat="36.813608072698116302490234375" lon="-118.5492409765720367431640625">
        <ele>1796</ele>
        <time>2021-06-28T17:47:14.000Z</time>
        <extensions>
          <ns3:TrackPointExtension>
            <ns3:atemp>34.0</ns3:atemp>
            <ns3:hr>84</ns3:hr>
          </ns3:TrackPointExtension>
        </extensions>
      </trkpt>
      <trkpt lat="36.81359105743467807769775390625" lon="-118.54924709536135196685791015625">
        <ele>1795.199951171875</ele>
        <time>2021-06-28T17:47:17.000Z</time>
        <extensions>
          <ns3:TrackPointExtension>
            <ns3:atemp>34.0</ns3:atemp>
            <ns3:hr>81</ns3:hr>
          </ns3:TrackPointExtension>
        </extensions>
      </trkpt>
      <trkpt lat="36.81358384899795055389404296875" lon="-118.5492448322474956512451171875">
        <ele>1795</ele>
        <time>2021-06-28T17:47:18.000Z</time>
        <extensions>
          <ns3:TrackPointExtension>
            <ns3:atemp>34.0</ns3:atemp>
            <ns3:hr>80</ns3:hr>
          </ns3:TrackPointExtension>
        </extensions>
      </trkpt>
      <trkpt lat="36.813540346920490264892578125" lon="-118.5492012463510036468505859375">
        <ele>1794.199951171875</ele>
        <time>2021-06-28T17:47:21.000Z</time>
        <extensions>
          <ns3:TrackPointExtension>
            <ns3:atemp>34.0</ns3:atemp>
            <ns3:hr>75</ns3:hr>
          </ns3:TrackPointExtension>
        </extensions>
      </trkpt>
      <trkpt lat="36.813536323606967926025390625" lon="-118.54920451529324054718017578125">
        <ele>1794.199951171875</ele>
        <time>2021-06-28T17:47:22.000Z</time>
        <extensions>
          <ns3:TrackPointExtension>
            <ns3:atemp>34.0</ns3:atemp>
            <ns3:hr>78</ns3:hr>
          </ns3:TrackPointExtension>
        </extensions>
      </trkpt>
      <trkpt lat="36.81353397667407989501953125" lon="-118.54920686222612857818603515625">
        <ele>1794</ele>
        <time>2021-06-28T17:47:23.000Z</time>
        <extensions>
          <ns3:TrackPointExtension>
            <ns3:atemp>34.0</ns3:atemp>
            <ns3:hr>77</ns3:hr>
          </ns3:TrackPointExtension>
        </extensions>
      </trkpt>
      <trkpt lat="36.81353389285504817962646484375" lon="-118.54920904152095317840576171875">
        <ele>1794</ele>
        <time>2021-06-28T17:47:24.000Z</time>
        <extensions>
          <ns3:TrackPointExtension>
            <ns3:atemp>34.0</ns3:atemp>
            <ns3:hr>77</ns3:hr>
          </ns3:TrackPointExtension>
        </extensions>
      </trkpt>
      <trkpt lat="36.8135277740657329559326171875" lon="-118.5492213629186153411865234375">
        <ele>1793.800048828125</ele>
        <time>2021-06-28T17:47:27.000Z</time>
        <extensions>
          <ns3:TrackPointExtension>
            <ns3:atemp>34.0</ns3:atemp>
            <ns3:hr>77</ns3:hr>
          </ns3:TrackPointExtension>
        </extensions>
      </trkpt>
      <trkpt lat="36.81352349929511547088623046875" lon="-118.54921809397637844085693359375">
        <ele>1794</ele>
        <time>2021-06-28T17:47:29.000Z</time>
        <extensions>
          <ns3:TrackPointExtension>
            <ns3:atemp>34.0</ns3:atemp>
            <ns3:hr>77</ns3:hr>
          </ns3:TrackPointExtension>
        </extensions>
      </trkpt>
      <trkpt lat="36.8135126866400241851806640625" lon="-118.5492220334708690643310546875">
        <ele>1793.800048828125</ele>
        <time>2021-06-28T17:47:32.000Z</time>
        <extensions>
          <ns3:TrackPointExtension>
            <ns3:atemp>34.0</ns3:atemp>
            <ns3:hr>80</ns3:hr>
          </ns3:TrackPointExtension>
        </extensions>
      </trkpt>
      <trkpt lat="36.81349533610045909881591796875" lon="-118.54921122081577777862548828125">
        <ele>1793.4000244140625</ele>
        <time>2021-06-28T17:47:34.000Z</time>
        <extensions>
          <ns3:TrackPointExtension>
            <ns3:atemp>34.0</ns3:atemp>
            <ns3:hr>84</ns3:hr>
          </ns3:TrackPointExtension>
        </extensions>
      </trkpt>
      <trkpt lat="36.8134861998260021209716796875" lon="-118.549204766750335693359375">
        <ele>1792.800048828125</ele>
        <time>2021-06-28T17:47:36.000Z</time>
        <extensions>
          <ns3:TrackPointExtension>
            <ns3:atemp>34.0</ns3:atemp>
            <ns3:hr>88</ns3:hr>
          </ns3:TrackPointExtension>
        </extensions>
      </trkpt>
      <trkpt lat="36.8134634010493755340576171875" lon="-118.54915807954967021942138671875">
        <ele>1792.800048828125</ele>
        <time>2021-06-28T17:47:40.000Z</time>
        <extensions>
          <ns3:TrackPointExtension>
            <ns3:atemp>34.0</ns3:atemp>
            <ns3:hr>89</ns3:hr>
          </ns3:TrackPointExtension>
        </extensions>
      </trkpt>
      <trkpt lat="36.81346155703067779541015625" lon="-118.54912270791828632354736328125">
        <ele>1791.199951171875</ele>
        <time>2021-06-28T17:47:45.000Z</time>
        <extensions>
          <ns3:TrackPointExtension>
            <ns3:atemp>34.0</ns3:atemp>
            <ns3:hr>87</ns3:hr>
          </ns3:TrackPointExtension>
        </extensions>
      </trkpt>
      <trkpt lat="36.81345661170780658721923828125" lon="-118.54911264963448047637939453125">
        <ele>1791.199951171875</ele>
        <time>2021-06-28T17:47:47.000Z</time>
        <extensions>
          <ns3:TrackPointExtension>
            <ns3:atemp>34.0</ns3:atemp>
            <ns3:hr>88</ns3:hr>
          </ns3:TrackPointExtension>
        </extensions>
      </trkpt>
      <trkpt lat="36.8134064041078090667724609375" lon="-118.5491204448044300079345703125">
        <ele>1791</ele>
        <time>2021-06-28T17:47:53.000Z</time>
        <extensions>
          <ns3:TrackPointExtension>
            <ns3:atemp>34.0</ns3:atemp>
            <ns3:hr>88</ns3:hr>
          </ns3:TrackPointExtension>
        </extensions>
      </trkpt>
      <trkpt lat="36.81340363807976245880126953125" lon="-118.54909219779074192047119140625">
        <ele>1790</ele>
        <time>2021-06-28T17:47:58.000Z</time>
        <extensions>
          <ns3:TrackPointExtension>
            <ns3:atemp>34.0</ns3:atemp>
            <ns3:hr>88</ns3:hr>
          </ns3:TrackPointExtension>
        </extensions>
      </trkpt>
      <trkpt lat="36.81341000832617282867431640625" lon="-118.54909052141010761260986328125">
        <ele>1789.199951171875</ele>
        <time>2021-06-28T17:48:00.000Z</time>
        <extensions>
          <ns3:TrackPointExtension>
            <ns3:atemp>34.0</ns3:atemp>
            <ns3:hr>87</ns3:hr>
          </ns3:TrackPointExtension>
        </extensions>
      </trkpt>
      <trkpt lat="36.81341704912483692169189453125" lon="-118.5491204448044300079345703125">
        <ele>1788.800048828125</ele>
        <time>2021-06-28T17:48:12.000Z</time>
        <extensions>
          <ns3:TrackPointExtension>
            <ns3:atemp>34.0</ns3:atemp>
            <ns3:hr>84</ns3:hr>
          </ns3:TrackPointExtension>
        </extensions>
      </trkpt>
      <trkpt lat="36.81341704912483692169189453125" lon="-118.5491204448044300079345703125">
        <ele>1788.5999755859375</ele>
        <time>2021-06-28T17:48:17.000Z</time>
        <extensions>
          <ns3:TrackPointExtension>
            <ns3:atemp>34.0</ns3:atemp>
            <ns3:hr>81</ns3:hr>
          </ns3:TrackPointExtension>
        </extensions>
      </trkpt>
      <trkpt lat="36.81342090480029582977294921875" lon="-118.54916310869157314300537109375">
        <ele>1788.4000244140625</ele>
        <time>2021-06-28T17:48:29.000Z</time>
        <extensions>
          <ns3:TrackPointExtension>
            <ns3:atemp>34.0</ns3:atemp>
            <ns3:hr>85</ns3:hr>
          </ns3:TrackPointExtension>
        </extensions>
      </trkpt>
      <trkpt lat="36.81342811323702335357666015625" lon="-118.54916746728122234344482421875">
        <ele>1788.4000244140625</ele>
        <time>2021-06-28T17:48:32.000Z</time>
        <extensions>
          <ns3:TrackPointExtension>
            <ns3:atemp>34.0</ns3:atemp>
            <ns3:hr>88</ns3:hr>
          </ns3:TrackPointExtension>
        </extensions>
      </trkpt>
      <trkpt lat="36.81346080265939235687255859375" lon="-118.5491935350000858306884765625">
        <ele>1788.4000244140625</ele>
        <time>2021-06-28T17:48:45.000Z</time>
        <extensions>
          <ns3:TrackPointExtension>
            <ns3:atemp>34.0</ns3:atemp>
            <ns3:hr>85</ns3:hr>
          </ns3:TrackPointExtension>
        </extensions>
      </trkpt>
      <trkpt lat="36.8134610541164875030517578125" lon="-118.5491955466568470001220703125">
        <ele>1788.4000244140625</ele>
        <time>2021-06-28T17:48:57.000Z</time>
        <extensions>
          <ns3:TrackPointExtension>
            <ns3:atemp>34.0</ns3:atemp>
            <ns3:hr>82</ns3:hr>
          </ns3:TrackPointExtension>
        </extensions>
      </trkpt>
      <trkpt lat="36.81339986622333526611328125" lon="-118.549200408160686492919921875">
        <ele>1788.4000244140625</ele>
        <time>2021-06-28T17:49:05.000Z</time>
        <extensions>
          <ns3:TrackPointExtension>
            <ns3:atemp>34.0</ns3:atemp>
            <ns3:hr>81</ns3:hr>
          </ns3:TrackPointExtension>
        </extensions>
      </trkpt>
      <trkpt lat="36.81335351429879665374755859375" lon="-118.5491740889847278594970703125">
        <ele>1788.5999755859375</ele>
        <time>2021-06-28T17:49:09.000Z</time>
        <extensions>
          <ns3:TrackPointExtension>
            <ns3:atemp>34.0</ns3:atemp>
            <ns3:hr>80</ns3:hr>
          </ns3:TrackPointExtension>
        </extensions>
      </trkpt>
      <trkpt lat="36.81334161199629306793212890625" lon="-118.5491687245666980743408203125">
        <ele>1788.4000244140625</ele>
        <time>2021-06-28T17:49:16.000Z</time>
        <extensions>
          <ns3:TrackPointExtension>
            <ns3:atemp>34.0</ns3:atemp>
            <ns3:hr>83</ns3:hr>
          </ns3:TrackPointExtension>
        </extensions>
      </trkpt>
      <trkpt lat="36.81333004496991634368896484375" lon="-118.5491900146007537841796875">
        <ele>1788.5999755859375</ele>
        <time>2021-06-28T17:49:19.000Z</time>
        <extensions>
          <ns3:TrackPointExtension>
            <ns3:atemp>34.0</ns3:atemp>
            <ns3:hr>87</ns3:hr>
          </ns3:TrackPointExtension>
        </extensions>
      </trkpt>
      <trkpt lat="36.81332283653318881988525390625" lon="-118.54919982142746448516845703125">
        <ele>1788.5999755859375</ele>
        <time>2021-06-28T17:49:20.000Z</time>
        <extensions>
          <ns3:TrackPointExtension>
            <ns3:atemp>34.0</ns3:atemp>
            <ns3:hr>88</ns3:hr>
          </ns3:TrackPointExtension>
        </extensions>
      </trkpt>
      <trkpt lat="36.81330263614654541015625" lon="-118.54920669458806514739990234375">
        <ele>1788.199951171875</ele>
        <time>2021-06-28T17:49:29.000Z</time>
        <extensions>
          <ns3:TrackPointExtension>
            <ns3:atemp>34.0</ns3:atemp>
            <ns3:hr>89</ns3:hr>
          </ns3:TrackPointExtension>
        </extensions>
      </trkpt>
      <trkpt lat="36.81329366751015186309814453125" lon="-118.54920334182679653167724609375">
        <ele>1788.4000244140625</ele>
        <time>2021-06-28T17:49:34.000Z</time>
        <extensions>
          <ns3:TrackPointExtension>
            <ns3:atemp>34.0</ns3:atemp>
            <ns3:hr>87</ns3:hr>
          </ns3:TrackPointExtension>
        </extensions>
      </trkpt>
      <trkpt lat="36.8132615648210048675537109375" lon="-118.54919110424816608428955078125">
        <ele>1788.4000244140625</ele>
        <time>2021-06-28T17:49:38.000Z</time>
        <extensions>
          <ns3:TrackPointExtension>
            <ns3:atemp>34.0</ns3:atemp>
            <ns3:hr>84</ns3:hr>
          </ns3:TrackPointExtension>
        </extensions>
      </trkpt>
      <trkpt lat="36.81323600001633167266845703125" lon="-118.54917920194566249847412109375">
        <ele>1787.5999755859375</ele>
        <time>2021-06-28T17:49:40.000Z</time>
        <extensions>
          <ns3:TrackPointExtension>
            <ns3:atemp>34.0</ns3:atemp>
            <ns3:hr>85</ns3:hr>
          </ns3:TrackPointExtension>
        </extensions>
      </trkpt>
      <trkpt lat="36.81316693313419818878173828125" lon="-118.54915522970259189605712890625">
        <ele>1786.5999755859375</ele>
        <time>2021-06-28T17:49:46.000Z</time>
        <extensions>
          <ns3:TrackPointExtension>
            <ns3:atemp>34.0</ns3:atemp>
            <ns3:hr>83</ns3:hr>
          </ns3:TrackPointExtension>
        </extensions>
      </trkpt>
      <trkpt lat="36.8131606467068195343017578125" lon="-118.54913980700075626373291015625">
        <ele>1786.4000244140625</ele>
        <time>2021-06-28T17:49:47.000Z</time>
        <extensions>
          <ns3:TrackPointExtension>
            <ns3:atemp>34.0</ns3:atemp>
            <ns3:hr>83</ns3:hr>
          </ns3:TrackPointExtension>
        </extensions>
      </trkpt>
      <trkpt lat="36.8131405301392078399658203125" lon="-118.5491060279309749603271484375">
        <ele>1785.5999755859375</ele>
        <time>2021-06-28T17:49:51.000Z</time>
        <extensions>
          <ns3:TrackPointExtension>
            <ns3:atemp>34.0</ns3:atemp>
            <ns3:hr>82</ns3:hr>
          </ns3:TrackPointExtension>
        </extensions>
      </trkpt>
      <trkpt lat="36.8131529353559017181396484375" lon="-118.54908850975334644317626953125">
        <ele>1785.199951171875</ele>
        <time>2021-06-28T17:49:53.000Z</time>
        <extensions>
          <ns3:TrackPointExtension>
            <ns3:atemp>34.0</ns3:atemp>
            <ns3:hr>82</ns3:hr>
          </ns3:TrackPointExtension>
        </extensions>
      </trkpt>
      <trkpt lat="36.81316089816391468048095703125" lon="-118.549061603844165802001953125">
        <ele>1784.199951171875</ele>
        <time>2021-06-28T17:49:57.000Z</time>
        <extensions>
          <ns3:TrackPointExtension>
            <ns3:atemp>34.0</ns3:atemp>
            <ns3:hr>80</ns3:hr>
          </ns3:TrackPointExtension>
        </extensions>
      </trkpt>
      <trkpt lat="36.8131596408784389495849609375" lon="-118.54905129410326480865478515625">
        <ele>1784</ele>
        <time>2021-06-28T17:49:58.000Z</time>
        <extensions>
          <ns3:TrackPointExtension>
            <ns3:atemp>34.0</ns3:atemp>
            <ns3:hr>80</ns3:hr>
          </ns3:TrackPointExtension>
        </extensions>
      </trkpt>
      <trkpt lat="36.81311823427677154541015625" lon="-118.5490416549146175384521484375">
        <ele>1783.199951171875</ele>
        <time>2021-06-28T17:50:03.000Z</time>
        <extensions>
          <ns3:TrackPointExtension>
            <ns3:atemp>34.0</ns3:atemp>
            <ns3:hr>79</ns3:hr>
          </ns3:TrackPointExtension>
        </extensions>
      </trkpt>
      <trkpt lat="36.81310758925974369049072265625" lon="-118.54905255138874053955078125">
        <ele>1783.199951171875</ele>
        <time>2021-06-28T17:50:04.000Z</time>
        <extensions>
          <ns3:TrackPointExtension>
            <ns3:atemp>34.0</ns3:atemp>
            <ns3:hr>79</ns3:hr>
          </ns3:TrackPointExtension>
        </extensions>
      </trkpt>
      <trkpt lat="36.81308076716959476470947265625" lon="-118.54906386695802211761474609375">
        <ele>1782.5999755859375</ele>
        <time>2021-06-28T17:50:06.000Z</time>
        <extensions>
          <ns3:TrackPointExtension>
            <ns3:atemp>34.0</ns3:atemp>
            <ns3:hr>79</ns3:hr>
          </ns3:TrackPointExtension>
        </extensions>
      </trkpt>
      <trkpt lat="36.81306433863937854766845703125" lon="-118.549072332680225372314453125">
        <ele>1782.5999755859375</ele>
        <time>2021-06-28T17:50:08.000Z</time>
        <extensions>
          <ns3:TrackPointExtension>
            <ns3:atemp>34.0</ns3:atemp>
            <ns3:hr>79</ns3:hr>
          </ns3:TrackPointExtension>
        </extensions>
      </trkpt>
      <trkpt lat="36.8130573816597461700439453125" lon="-118.5490808822214603424072265625">
        <ele>1782.4000244140625</ele>
        <time>2021-06-28T17:50:09.000Z</time>
        <extensions>
          <ns3:TrackPointExtension>
            <ns3:atemp>34.0</ns3:atemp>
            <ns3:hr>79</ns3:hr>
          </ns3:TrackPointExtension>
        </extensions>
      </trkpt>
      <trkpt lat="36.81301404722034931182861328125" lon="-118.5491090454161167144775390625">
        <ele>1782.199951171875</ele>
        <time>2021-06-28T17:50:13.000Z</time>
        <extensions>
          <ns3:TrackPointExtension>
            <ns3:atemp>34.0</ns3:atemp>
            <ns3:hr>81</ns3:hr>
          </ns3:TrackPointExtension>
        </extensions>
      </trkpt>
      <trkpt lat="36.813005246222019195556640625" lon="-118.5491175949573516845703125">
        <ele>1782</ele>
        <time>2021-06-28T17:50:14.000Z</time>
        <extensions>
          <ns3:TrackPointExtension>
            <ns3:atemp>34.0</ns3:atemp>
            <ns3:hr>81</ns3:hr>
          </ns3:TrackPointExtension>
        </extensions>
      </trkpt>
      <trkpt lat="36.81297339498996734619140625" lon="-118.5491408966481685638427734375">
        <ele>1781.199951171875</ele>
        <time>2021-06-28T17:50:19.000Z</time>
        <extensions>
          <ns3:TrackPointExtension>
            <ns3:atemp>34.0</ns3:atemp>
            <ns3:hr>82</ns3:hr>
          </ns3:TrackPointExtension>
        </extensions>
      </trkpt>
      <trkpt lat="36.81296006776392459869384765625" lon="-118.54915958829224109649658203125">
        <ele>1781</ele>
        <time>2021-06-28T17:50:21.000Z</time>
        <extensions>
          <ns3:TrackPointExtension>
            <ns3:atemp>34.0</ns3:atemp>
            <ns3:hr>82</ns3:hr>
          </ns3:TrackPointExtension>
        </extensions>
      </trkpt>
      <trkpt lat="36.81295235641300678253173828125" lon="-118.5491640307009220123291015625">
        <ele>1781</ele>
        <time>2021-06-28T17:50:22.000Z</time>
        <extensions>
          <ns3:TrackPointExtension>
            <ns3:atemp>34.0</ns3:atemp>
            <ns3:hr>82</ns3:hr>
          </ns3:TrackPointExtension>
        </extensions>
      </trkpt>
      <trkpt lat="36.81291094981133937835693359375" lon="-118.549203090369701385498046875">
        <ele>1779.800048828125</ele>
        <time>2021-06-28T17:50:27.000Z</time>
        <extensions>
          <ns3:TrackPointExtension>
            <ns3:atemp>34.0</ns3:atemp>
            <ns3:hr>82</ns3:hr>
          </ns3:TrackPointExtension>
        </extensions>
      </trkpt>
      <trkpt lat="36.8129003047943115234375" lon="-118.5492089577019214630126953125">
        <ele>1779.800048828125</ele>
        <time>2021-06-28T17:50:28.000Z</time>
        <extensions>
          <ns3:TrackPointExtension>
            <ns3:atemp>34.0</ns3:atemp>
            <ns3:hr>82</ns3:hr>
          </ns3:TrackPointExtension>
        </extensions>
      </trkpt>
      <trkpt lat="36.81286753155291080474853515625" lon="-118.5492398031055927276611328125">
        <ele>1778.800048828125</ele>
        <time>2021-06-28T17:50:32.000Z</time>
        <extensions>
          <ns3:TrackPointExtension>
            <ns3:atemp>34.0</ns3:atemp>
            <ns3:hr>83</ns3:hr>
          </ns3:TrackPointExtension>
        </extensions>
      </trkpt>
      <trkpt lat="36.8128417991101741790771484375" lon="-118.5492522083222866058349609375">
        <ele>1778.800048828125</ele>
        <time>2021-06-28T17:50:33.000Z</time>
        <extensions>
          <ns3:TrackPointExtension>
            <ns3:atemp>34.0</ns3:atemp>
            <ns3:hr>83</ns3:hr>
          </ns3:TrackPointExtension>
        </extensions>
      </trkpt>
      <trkpt lat="36.81281539611518383026123046875" lon="-118.54924826882779598236083984375">
        <ele>1778.800048828125</ele>
        <time>2021-06-28T17:50:35.000Z</time>
        <extensions>
          <ns3:TrackPointExtension>
            <ns3:atemp>34.0</ns3:atemp>
            <ns3:hr>83</ns3:hr>
          </ns3:TrackPointExtension>
        </extensions>
      </trkpt>
      <trkpt lat="36.81281003169715404510498046875" lon="-118.5492490231990814208984375">
        <ele>1778.5999755859375</ele>
        <time>2021-06-28T17:50:36.000Z</time>
        <extensions>
          <ns3:TrackPointExtension>
            <ns3:atemp>34.0</ns3:atemp>
            <ns3:hr>83</ns3:hr>
          </ns3:TrackPointExtension>
        </extensions>
      </trkpt>
      <trkpt lat="36.81277784518897533416748046875" lon="-118.54924826882779598236083984375">
        <ele>1777.5999755859375</ele>
        <time>2021-06-28T17:50:40.000Z</time>
        <extensions>
          <ns3:TrackPointExtension>
            <ns3:atemp>34.0</ns3:atemp>
            <ns3:hr>83</ns3:hr>
          </ns3:TrackPointExtension>
        </extensions>
      </trkpt>
      <trkpt lat="36.81274414993822574615478515625" lon="-118.54922354221343994140625">
        <ele>1777</ele>
        <time>2021-06-28T17:50:42.000Z</time>
        <extensions>
          <ns3:TrackPointExtension>
            <ns3:atemp>34.0</ns3:atemp>
            <ns3:hr>81</ns3:hr>
          </ns3:TrackPointExtension>
        </extensions>
      </trkpt>
      <trkpt lat="36.8127251230180263519287109375" lon="-118.54921591468155384063720703125">
        <ele>1776.4000244140625</ele>
        <time>2021-06-28T17:50:44.000Z</time>
        <extensions>
          <ns3:TrackPointExtension>
            <ns3:atemp>34.0</ns3:atemp>
            <ns3:hr>80</ns3:hr>
          </ns3:TrackPointExtension>
        </extensions>
      </trkpt>
      <trkpt lat="36.81271816603839397430419921875" lon="-118.54923854582011699676513671875">
        <ele>1776.4000244140625</ele>
        <time>2021-06-28T17:50:46.000Z</time>
        <extensions>
          <ns3:TrackPointExtension>
            <ns3:atemp>34.0</ns3:atemp>
            <ns3:hr>77</ns3:hr>
          </ns3:TrackPointExtension>
        </extensions>
      </trkpt>
      <trkpt lat="36.81270190514624118804931640625" lon="-118.54925103485584259033203125">
        <ele>1776</ele>
        <time>2021-06-28T17:50:48.000Z</time>
        <extensions>
          <ns3:TrackPointExtension>
            <ns3:atemp>34.0</ns3:atemp>
            <ns3:hr>74</ns3:hr>
          </ns3:TrackPointExtension>
        </extensions>
      </trkpt>
      <trkpt lat="36.81269117631018161773681640625" lon="-118.5492543876171112060546875">
        <ele>1775.4000244140625</ele>
        <time>2021-06-28T17:50:49.000Z</time>
        <extensions>
          <ns3:TrackPointExtension>
            <ns3:atemp>34.0</ns3:atemp>
            <ns3:hr>73</ns3:hr>
          </ns3:TrackPointExtension>
        </extensions>
      </trkpt>
      <trkpt lat="36.81263904087245464324951171875" lon="-118.5492704808712005615234375">
        <ele>1775</ele>
        <time>2021-06-28T17:50:54.000Z</time>
        <extensions>
          <ns3:TrackPointExtension>
            <ns3:atemp>34.0</ns3:atemp>
            <ns3:hr>76</ns3:hr>
          </ns3:TrackPointExtension>
        </extensions>
      </trkpt>
      <trkpt lat="36.81262604892253875732421875" lon="-118.549273498356342315673828125">
        <ele>1774.800048828125</ele>
        <time>2021-06-28T17:50:55.000Z</time>
        <extensions>
          <ns3:TrackPointExtension>
            <ns3:atemp>34.0</ns3:atemp>
            <ns3:hr>74</ns3:hr>
          </ns3:TrackPointExtension>
        </extensions>
      </trkpt>
      <trkpt lat="36.81260920129716396331787109375" lon="-118.54928364045917987823486328125">
        <ele>1774.800048828125</ele>
        <time>2021-06-28T17:50:57.000Z</time>
        <extensions>
          <ns3:TrackPointExtension>
            <ns3:atemp>35.0</ns3:atemp>
            <ns3:hr>71</ns3:hr>
          </ns3:TrackPointExtension>
        </extensions>
      </trkpt>
      <trkpt lat="36.81259629316627979278564453125" lon="-118.549301326274871826171875">
        <ele>1774.5999755859375</ele>
        <time>2021-06-28T17:50:59.000Z</time>
        <extensions>
          <ns3:TrackPointExtension>
            <ns3:atemp>35.0</ns3:atemp>
            <ns3:hr>68</ns3:hr>
          </ns3:TrackPointExtension>
        </extensions>
      </trkpt>
      <trkpt lat="36.81258824653923511505126953125" lon="-118.5492981411516666412353515625">
        <ele>1774.199951171875</ele>
        <time>2021-06-28T17:51:00.000Z</time>
        <extensions>
          <ns3:TrackPointExtension>
            <ns3:atemp>34.0</ns3:atemp>
            <ns3:hr>68</ns3:hr>
          </ns3:TrackPointExtension>
        </extensions>
      </trkpt>
      <trkpt lat="36.81257399730384349822998046875" lon="-118.5493004880845546722412109375">
        <ele>1774.199951171875</ele>
        <time>2021-06-28T17:51:02.000Z</time>
        <extensions>
          <ns3:TrackPointExtension>
            <ns3:atemp>34.0</ns3:atemp>
            <ns3:hr>67</ns3:hr>
          </ns3:TrackPointExtension>
        </extensions>
      </trkpt>
      <trkpt lat="36.8125702254474163055419921875" lon="-118.5493018291890621185302734375">
        <ele>1773.5999755859375</ele>
        <time>2021-06-28T17:51:05.000Z</time>
        <extensions>
          <ns3:TrackPointExtension>
            <ns3:atemp>34.0</ns3:atemp>
            <ns3:hr>67</ns3:hr>
          </ns3:TrackPointExtension>
        </extensions>
      </trkpt>
      <trkpt lat="36.81257097981870174407958984375" lon="-118.549289591610431671142578125">
        <ele>1773.4000244140625</ele>
        <time>2021-06-28T17:51:07.000Z</time>
        <extensions>
          <ns3:TrackPointExtension>
            <ns3:atemp>34.0</ns3:atemp>
            <ns3:hr>67</ns3:hr>
          </ns3:TrackPointExtension>
        </extensions>
      </trkpt>
      <trkpt lat="36.8125755898654460906982421875" lon="-118.5492699779570102691650390625">
        <ele>1773</ele>
        <time>2021-06-28T17:51:10.000Z</time>
        <extensions>
          <ns3:TrackPointExtension>
            <ns3:atemp>34.0</ns3:atemp>
            <ns3:hr>68</ns3:hr>
          </ns3:TrackPointExtension>
        </extensions>
      </trkpt>
      <trkpt lat="36.81257114745676517486572265625" lon="-118.54925765655934810638427734375">
        <ele>1772.4000244140625</ele>
        <time>2021-06-28T17:51:12.000Z</time>
        <extensions>
          <ns3:TrackPointExtension>
            <ns3:atemp>34.0</ns3:atemp>
            <ns3:hr>67</ns3:hr>
          </ns3:TrackPointExtension>
        </extensions>
      </trkpt>
      <trkpt lat="36.8125705607235431671142578125" lon="-118.54925237596035003662109375">
        <ele>1772.199951171875</ele>
        <time>2021-06-28T17:51:13.000Z</time>
        <extensions>
          <ns3:TrackPointExtension>
            <ns3:atemp>34.0</ns3:atemp>
            <ns3:hr>68</ns3:hr>
          </ns3:TrackPointExtension>
        </extensions>
      </trkpt>
      <trkpt lat="36.8125672079622745513916015625" lon="-118.54924776591360569000244140625">
        <ele>1772.199951171875</ele>
        <time>2021-06-28T17:51:15.000Z</time>
        <extensions>
          <ns3:TrackPointExtension>
            <ns3:atemp>34.0</ns3:atemp>
            <ns3:hr>68</ns3:hr>
          </ns3:TrackPointExtension>
        </extensions>
      </trkpt>
      <trkpt lat="36.81255404837429523468017578125" lon="-118.54922865517437458038330078125">
        <ele>1771.800048828125</ele>
        <time>2021-06-28T17:51:16.000Z</time>
        <extensions>
          <ns3:TrackPointExtension>
            <ns3:atemp>34.0</ns3:atemp>
            <ns3:hr>68</ns3:hr>
          </ns3:TrackPointExtension>
        </extensions>
      </trkpt>
      <trkpt lat="36.81250560097396373748779296875" lon="-118.54917802847921848297119140625">
        <ele>1771.199951171875</ele>
        <time>2021-06-28T17:51:19.000Z</time>
        <extensions>
          <ns3:TrackPointExtension>
            <ns3:atemp>34.0</ns3:atemp>
            <ns3:hr>69</ns3:hr>
          </ns3:TrackPointExtension>
        </extensions>
      </trkpt>
      <trkpt lat="36.812472827732563018798828125" lon="-118.54916193522512912750244140625">
        <ele>1771</ele>
        <time>2021-06-28T17:51:22.000Z</time>
        <extensions>
          <ns3:TrackPointExtension>
            <ns3:atemp>34.0</ns3:atemp>
            <ns3:hr>73</ns3:hr>
          </ns3:TrackPointExtension>
        </extensions>
      </trkpt>
      <trkpt lat="36.81246821768581867218017578125" lon="-118.549162186682224273681640625">
        <ele>1770.800048828125</ele>
        <time>2021-06-28T17:51:23.000Z</time>
        <extensions>
          <ns3:TrackPointExtension>
            <ns3:atemp>34.0</ns3:atemp>
            <ns3:hr>74</ns3:hr>
          </ns3:TrackPointExtension>
        </extensions>
      </trkpt>
      <trkpt lat="36.8124455027282238006591796875" lon="-118.54913259856402873992919921875">
        <ele>1770.5999755859375</ele>
        <time>2021-06-28T17:51:26.000Z</time>
        <extensions>
          <ns3:TrackPointExtension>
            <ns3:atemp>34.0</ns3:atemp>
            <ns3:hr>77</ns3:hr>
          </ns3:TrackPointExtension>
        </extensions>
      </trkpt>
      <trkpt lat="36.81243536062538623809814453125" lon="-118.549123965203762054443359375">
        <ele>1770.5999755859375</ele>
        <time>2021-06-28T17:51:27.000Z</time>
        <extensions>
          <ns3:TrackPointExtension>
            <ns3:atemp>34.0</ns3:atemp>
            <ns3:hr>75</ns3:hr>
          </ns3:TrackPointExtension>
        </extensions>
      </trkpt>
      <trkpt lat="36.81242530234158039093017578125" lon="-118.54912186972796916961669921875">
        <ele>1770.5999755859375</ele>
        <time>2021-06-28T17:51:28.000Z</time>
        <extensions>
          <ns3:TrackPointExtension>
            <ns3:atemp>34.0</ns3:atemp>
            <ns3:hr>77</ns3:hr>
          </ns3:TrackPointExtension>
        </extensions>
      </trkpt>
      <trkpt lat="36.8123992346227169036865234375" lon="-118.549112565815448760986328125">
        <ele>1770.5999755859375</ele>
        <time>2021-06-28T17:51:30.000Z</time>
        <extensions>
          <ns3:TrackPointExtension>
            <ns3:atemp>34.0</ns3:atemp>
            <ns3:hr>77</ns3:hr>
          </ns3:TrackPointExtension>
        </extensions>
      </trkpt>
      <trkpt lat="36.81236696429550647735595703125" lon="-118.549079708755016326904296875">
        <ele>1770.4000244140625</ele>
        <time>2021-06-28T17:51:33.000Z</time>
        <extensions>
          <ns3:TrackPointExtension>
            <ns3:atemp>34.0</ns3:atemp>
            <ns3:hr>78</ns3:hr>
          </ns3:TrackPointExtension>
        </extensions>
      </trkpt>
      <trkpt lat="36.8123046867549419403076171875" lon="-118.549054227769374847412109375">
        <ele>1770.199951171875</ele>
        <time>2021-06-28T17:51:38.000Z</time>
        <extensions>
          <ns3:TrackPointExtension>
            <ns3:atemp>34.0</ns3:atemp>
            <ns3:hr>78</ns3:hr>
          </ns3:TrackPointExtension>
        </extensions>
      </trkpt>
      <trkpt lat="36.81229018606245517730712890625" lon="-118.54904182255268096923828125">
        <ele>1770.4000244140625</ele>
        <time>2021-06-28T17:51:41.000Z</time>
        <extensions>
          <ns3:TrackPointExtension>
            <ns3:atemp>34.0</ns3:atemp>
            <ns3:hr>77</ns3:hr>
          </ns3:TrackPointExtension>
        </extensions>
      </trkpt>
      <trkpt lat="36.81227794848382472991943359375" lon="-118.549036793410778045654296875">
        <ele>1770.4000244140625</ele>
        <time>2021-06-28T17:51:43.000Z</time>
        <extensions>
          <ns3:TrackPointExtension>
            <ns3:atemp>34.0</ns3:atemp>
            <ns3:hr>78</ns3:hr>
          </ns3:TrackPointExtension>
        </extensions>
      </trkpt>
      <trkpt lat="36.8122644536197185516357421875" lon="-118.54903788305819034576416015625">
        <ele>1770.5999755859375</ele>
        <time>2021-06-28T17:51:45.000Z</time>
        <extensions>
          <ns3:TrackPointExtension>
            <ns3:atemp>34.0</ns3:atemp>
            <ns3:hr>81</ns3:hr>
          </ns3:TrackPointExtension>
        </extensions>
      </trkpt>
      <trkpt lat="36.81224274449050426483154296875" lon="-118.549038134515285491943359375">
        <ele>1770.800048828125</ele>
        <time>2021-06-28T17:51:47.000Z</time>
        <extensions>
          <ns3:TrackPointExtension>
            <ns3:atemp>34.0</ns3:atemp>
            <ns3:hr>81</ns3:hr>
          </ns3:TrackPointExtension>
        </extensions>
      </trkpt>
      <trkpt lat="36.8122215382754802703857421875" lon="-118.54903603903949260711669921875">
        <ele>1770.800048828125</ele>
        <time>2021-06-28T17:51:49.000Z</time>
        <extensions>
          <ns3:TrackPointExtension>
            <ns3:atemp>34.0</ns3:atemp>
            <ns3:hr>77</ns3:hr>
          </ns3:TrackPointExtension>
        </extensions>
      </trkpt>
      <trkpt lat="36.81220628321170806884765625" lon="-118.54900737293064594268798828125">
        <ele>1770.199951171875</ele>
        <time>2021-06-28T17:51:52.000Z</time>
        <extensions>
          <ns3:TrackPointExtension>
            <ns3:atemp>34.0</ns3:atemp>
            <ns3:hr>78</ns3:hr>
          </ns3:TrackPointExtension>
        </extensions>
      </trkpt>
      <trkpt lat="36.81218256242573261260986328125" lon="-118.54900552891194820404052734375">
        <ele>1770</ele>
        <time>2021-06-28T17:51:56.000Z</time>
        <extensions>
          <ns3:TrackPointExtension>
            <ns3:atemp>34.0</ns3:atemp>
            <ns3:hr>75</ns3:hr>
          </ns3:TrackPointExtension>
        </extensions>
      </trkpt>
      <trkpt lat="36.8121638707816600799560546875" lon="-118.54900938458740711212158203125">
        <ele>1770</ele>
        <time>2021-06-28T17:52:00.000Z</time>
        <extensions>
          <ns3:TrackPointExtension>
            <ns3:atemp>34.0</ns3:atemp>
            <ns3:hr>75</ns3:hr>
          </ns3:TrackPointExtension>
        </extensions>
      </trkpt>
      <trkpt lat="36.81214920245110988616943359375" lon="-118.5489997453987598419189453125">
        <ele>1769.800048828125</ele>
        <time>2021-06-28T17:52:01.000Z</time>
        <extensions>
          <ns3:TrackPointExtension>
            <ns3:atemp>34.0</ns3:atemp>
            <ns3:hr>75</ns3:hr>
          </ns3:TrackPointExtension>
        </extensions>
      </trkpt>
      <trkpt lat="36.812120787799358367919921875" lon="-118.5489853285253047943115234375">
        <ele>1769.199951171875</ele>
        <time>2021-06-28T17:52:05.000Z</time>
        <extensions>
          <ns3:TrackPointExtension>
            <ns3:atemp>34.0</ns3:atemp>
            <ns3:hr>76</ns3:hr>
          </ns3:TrackPointExtension>
        </extensions>
      </trkpt>
      <trkpt lat="36.812091283500194549560546875" lon="-118.548947274684906005859375">
        <ele>1769.800048828125</ele>
        <time>2021-06-28T17:52:09.000Z</time>
        <extensions>
          <ns3:TrackPointExtension>
            <ns3:atemp>34.0</ns3:atemp>
            <ns3:hr>77</ns3:hr>
          </ns3:TrackPointExtension>
        </extensions>
      </trkpt>
      <trkpt lat="36.81209103204309940338134765625" lon="-118.54891232214868068695068359375">
        <ele>1769.800048828125</ele>
        <time>2021-06-28T17:52:11.000Z</time>
        <extensions>
          <ns3:TrackPointExtension>
            <ns3:atemp>34.0</ns3:atemp>
            <ns3:hr>78</ns3:hr>
          </ns3:TrackPointExtension>
        </extensions>
      </trkpt>
      <trkpt lat="36.812091283500194549560546875" lon="-118.5488716699182987213134765625">
        <ele>1769</ele>
        <time>2021-06-28T17:52:16.000Z</time>
        <extensions>
          <ns3:TrackPointExtension>
            <ns3:atemp>34.0</ns3:atemp>
            <ns3:hr>78</ns3:hr>
          </ns3:TrackPointExtension>
        </extensions>
      </trkpt>
      <trkpt lat="36.81207963265478610992431640625" lon="-118.54881442151963710784912109375">
        <ele>1768.5999755859375</ele>
        <time>2021-06-28T17:52:18.000Z</time>
        <extensions>
          <ns3:TrackPointExtension>
            <ns3:atemp>34.0</ns3:atemp>
            <ns3:hr>78</ns3:hr>
          </ns3:TrackPointExtension>
        </extensions>
      </trkpt>
      <trkpt lat="36.81207812391221523284912109375" lon="-118.54876714758574962615966796875">
        <ele>1767.5999755859375</ele>
        <time>2021-06-28T17:52:25.000Z</time>
        <extensions>
          <ns3:TrackPointExtension>
            <ns3:atemp>34.0</ns3:atemp>
            <ns3:hr>77</ns3:hr>
          </ns3:TrackPointExtension>
        </extensions>
      </trkpt>
      <trkpt lat="36.81208080612123012542724609375" lon="-118.54876153171062469482421875">
        <ele>1767.4000244140625</ele>
        <time>2021-06-28T17:52:26.000Z</time>
        <extensions>
          <ns3:TrackPointExtension>
            <ns3:atemp>34.0</ns3:atemp>
            <ns3:hr>77</ns3:hr>
          </ns3:TrackPointExtension>
        </extensions>
      </trkpt>
      <trkpt lat="36.8120726756751537322998046875" lon="-118.5487432591617107391357421875">
        <ele>1766.800048828125</ele>
        <time>2021-06-28T17:52:29.000Z</time>
        <extensions>
          <ns3:TrackPointExtension>
            <ns3:atemp>34.0</ns3:atemp>
            <ns3:hr>77</ns3:hr>
          </ns3:TrackPointExtension>
        </extensions>
      </trkpt>
      <trkpt lat="36.81206756271421909332275390625" lon="-118.54873864911496639251708984375">
        <ele>1766.5999755859375</ele>
        <time>2021-06-28T17:52:30.000Z</time>
        <extensions>
          <ns3:TrackPointExtension>
            <ns3:atemp>34.0</ns3:atemp>
            <ns3:hr>77</ns3:hr>
          </ns3:TrackPointExtension>
        </extensions>
      </trkpt>
      <trkpt lat="36.81205666624009609222412109375" lon="-118.5487204603850841522216796875">
        <ele>1766</ele>
        <time>2021-06-28T17:52:32.000Z</time>
        <extensions>
          <ns3:TrackPointExtension>
            <ns3:atemp>34.0</ns3:atemp>
            <ns3:hr>73</ns3:hr>
          </ns3:TrackPointExtension>
        </extensions>
      </trkpt>
      <trkpt lat="36.81204736232757568359375" lon="-118.54869808070361614227294921875">
        <ele>1765.4000244140625</ele>
        <time>2021-06-28T17:52:33.000Z</time>
        <extensions>
          <ns3:TrackPointExtension>
            <ns3:atemp>34.0</ns3:atemp>
            <ns3:hr>76</ns3:hr>
          </ns3:TrackPointExtension>
        </extensions>
      </trkpt>
      <trkpt lat="36.8120425008237361907958984375" lon="-118.548684753477573394775390625">
        <ele>1765.199951171875</ele>
        <time>2021-06-28T17:52:34.000Z</time>
        <extensions>
          <ns3:TrackPointExtension>
            <ns3:atemp>34.0</ns3:atemp>
            <ns3:hr>76</ns3:hr>
          </ns3:TrackPointExtension>
        </extensions>
      </trkpt>
      <trkpt lat="36.81203135289251804351806640625" lon="-118.5486631281673908233642578125">
        <ele>1764.800048828125</ele>
        <time>2021-06-28T17:52:36.000Z</time>
        <extensions>
          <ns3:TrackPointExtension>
            <ns3:atemp>34.0</ns3:atemp>
            <ns3:hr>76</ns3:hr>
          </ns3:TrackPointExtension>
        </extensions>
      </trkpt>
      <trkpt lat="36.81203135289251804351806640625" lon="-118.5486631281673908233642578125">
        <ele>1764.5999755859375</ele>
        <time>2021-06-28T17:52:37.000Z</time>
        <extensions>
          <ns3:TrackPointExtension>
            <ns3:atemp>34.0</ns3:atemp>
            <ns3:hr>76</ns3:hr>
          </ns3:TrackPointExtension>
        </extensions>
      </trkpt>
      <trkpt lat="36.81201995350420475006103515625" lon="-118.5486399941146373748779296875">
        <ele>1764.5999755859375</ele>
        <time>2021-06-28T17:52:38.000Z</time>
        <extensions>
          <ns3:TrackPointExtension>
            <ns3:atemp>34.0</ns3:atemp>
            <ns3:hr>76</ns3:hr>
          </ns3:TrackPointExtension>
        </extensions>
      </trkpt>
      <trkpt lat="36.8120140023529529571533203125" lon="-118.54860805906355381011962890625">
        <ele>1764</ele>
        <time>2021-06-28T17:52:40.000Z</time>
        <extensions>
          <ns3:TrackPointExtension>
            <ns3:atemp>34.0</ns3:atemp>
            <ns3:hr>75</ns3:hr>
          </ns3:TrackPointExtension>
        </extensions>
      </trkpt>
      <trkpt lat="36.8120096437633037567138671875" lon="-118.54859045706689357757568359375">
        <ele>1763.800048828125</ele>
        <time>2021-06-28T17:52:41.000Z</time>
        <extensions>
          <ns3:TrackPointExtension>
            <ns3:atemp>34.0</ns3:atemp>
            <ns3:hr>75</ns3:hr>
          </ns3:TrackPointExtension>
        </extensions>
      </trkpt>
      <trkpt lat="36.811990030109882354736328125" lon="-118.5485555045306682586669921875">
        <ele>1763.4000244140625</ele>
        <time>2021-06-28T17:52:43.000Z</time>
        <extensions>
          <ns3:TrackPointExtension>
            <ns3:atemp>34.0</ns3:atemp>
            <ns3:hr>75</ns3:hr>
          </ns3:TrackPointExtension>
        </extensions>
      </trkpt>
      <trkpt lat="36.811972595751285552978515625" lon="-118.54853689670562744140625">
        <ele>1762.800048828125</ele>
        <time>2021-06-28T17:52:46.000Z</time>
        <extensions>
          <ns3:TrackPointExtension>
            <ns3:atemp>34.0</ns3:atemp>
            <ns3:hr>75</ns3:hr>
          </ns3:TrackPointExtension>
        </extensions>
      </trkpt>
      <trkpt lat="36.811969913542270660400390625" lon="-118.5485179536044597625732421875">
        <ele>1762.800048828125</ele>
        <time>2021-06-28T17:52:47.000Z</time>
        <extensions>
          <ns3:TrackPointExtension>
            <ns3:atemp>34.0</ns3:atemp>
            <ns3:hr>75</ns3:hr>
          </ns3:TrackPointExtension>
        </extensions>
      </trkpt>
      <trkpt lat="36.811968572437763214111328125" lon="-118.5484954901039600372314453125">
        <ele>1762.5999755859375</ele>
        <time>2021-06-28T17:52:49.000Z</time>
        <extensions>
          <ns3:TrackPointExtension>
            <ns3:atemp>34.0</ns3:atemp>
            <ns3:hr>75</ns3:hr>
          </ns3:TrackPointExtension>
        </extensions>
      </trkpt>
      <trkpt lat="36.81194686330854892730712890625" lon="-118.548437990248203277587890625">
        <ele>1762</ele>
        <time>2021-06-28T17:52:53.000Z</time>
        <extensions>
          <ns3:TrackPointExtension>
            <ns3:atemp>34.0</ns3:atemp>
            <ns3:hr>74</ns3:hr>
          </ns3:TrackPointExtension>
        </extensions>
      </trkpt>
      <trkpt lat="36.8119402416050434112548828125" lon="-118.548426926136016845703125">
        <ele>1761.800048828125</ele>
        <time>2021-06-28T17:52:55.000Z</time>
        <extensions>
          <ns3:TrackPointExtension>
            <ns3:atemp>34.0</ns3:atemp>
            <ns3:hr>75</ns3:hr>
          </ns3:TrackPointExtension>
        </extensions>
      </trkpt>
      <trkpt lat="36.81193144060671329498291015625" lon="-118.5484106652438640594482421875">
        <ele>1761.5999755859375</ele>
        <time>2021-06-28T17:52:57.000Z</time>
        <extensions>
          <ns3:TrackPointExtension>
            <ns3:atemp>34.0</ns3:atemp>
            <ns3:hr>78</ns3:hr>
          </ns3:TrackPointExtension>
        </extensions>
      </trkpt>
      <trkpt lat="36.8119244836270809173583984375" lon="-118.5484012775123119354248046875">
        <ele>1761.4000244140625</ele>
        <time>2021-06-28T17:52:58.000Z</time>
        <extensions>
          <ns3:TrackPointExtension>
            <ns3:atemp>34.0</ns3:atemp>
            <ns3:hr>75</ns3:hr>
          </ns3:TrackPointExtension>
        </extensions>
      </trkpt>
      <trkpt lat="36.8119065463542938232421875" lon="-118.54838124476373195648193359375">
        <ele>1761</ele>
        <time>2021-06-28T17:53:00.000Z</time>
        <extensions>
          <ns3:TrackPointExtension>
            <ns3:atemp>34.0</ns3:atemp>
            <ns3:hr>73</ns3:hr>
          </ns3:TrackPointExtension>
        </extensions>
      </trkpt>
      <trkpt lat="36.81189456023275852203369140625" lon="-118.5483697615563869476318359375">
        <ele>1761</ele>
        <time>2021-06-28T17:53:01.000Z</time>
        <extensions>
          <ns3:TrackPointExtension>
            <ns3:atemp>34.0</ns3:atemp>
            <ns3:hr>73</ns3:hr>
          </ns3:TrackPointExtension>
        </extensions>
      </trkpt>
      <trkpt lat="36.81188332848250865936279296875" lon="-118.54835785925388336181640625">
        <ele>1760.800048828125</ele>
        <time>2021-06-28T17:53:02.000Z</time>
        <extensions>
          <ns3:TrackPointExtension>
            <ns3:atemp>34.0</ns3:atemp>
            <ns3:hr>74</ns3:hr>
          </ns3:TrackPointExtension>
        </extensions>
      </trkpt>
      <trkpt lat="36.81187327019870281219482421875" lon="-118.54834704659879207611083984375">
        <ele>1760.5999755859375</ele>
        <time>2021-06-28T17:53:03.000Z</time>
        <extensions>
          <ns3:TrackPointExtension>
            <ns3:atemp>34.0</ns3:atemp>
            <ns3:hr>73</ns3:hr>
          </ns3:TrackPointExtension>
        </extensions>
      </trkpt>
      <trkpt lat="36.81185533292591571807861328125" lon="-118.54832676239311695098876953125">
        <ele>1760.5999755859375</ele>
        <time>2021-06-28T17:53:05.000Z</time>
        <extensions>
          <ns3:TrackPointExtension>
            <ns3:atemp>34.0</ns3:atemp>
            <ns3:hr>76</ns3:hr>
          </ns3:TrackPointExtension>
        </extensions>
      </trkpt>
      <trkpt lat="36.81183479726314544677734375" lon="-118.548314608633518218994140625">
        <ele>1760.199951171875</ele>
        <time>2021-06-28T17:53:07.000Z</time>
        <extensions>
          <ns3:TrackPointExtension>
            <ns3:atemp>34.0</ns3:atemp>
            <ns3:hr>75</ns3:hr>
          </ns3:TrackPointExtension>
        </extensions>
      </trkpt>
      <trkpt lat="36.81183069013059139251708984375" lon="-118.5483141057193279266357421875">
        <ele>1760</ele>
        <time>2021-06-28T17:53:08.000Z</time>
        <extensions>
          <ns3:TrackPointExtension>
            <ns3:atemp>34.0</ns3:atemp>
            <ns3:hr>75</ns3:hr>
          </ns3:TrackPointExtension>
        </extensions>
      </trkpt>
      <trkpt lat="36.81182272732257843017578125" lon="-118.54830513708293437957763671875">
        <ele>1760</ele>
        <time>2021-06-28T17:53:10.000Z</time>
        <extensions>
          <ns3:TrackPointExtension>
            <ns3:atemp>34.0</ns3:atemp>
            <ns3:hr>76</ns3:hr>
          </ns3:TrackPointExtension>
        </extensions>
      </trkpt>
      <trkpt lat="36.81182465516030788421630859375" lon="-118.54827336966991424560546875">
        <ele>1759.5999755859375</ele>
        <time>2021-06-28T17:53:12.000Z</time>
        <extensions>
          <ns3:TrackPointExtension>
            <ns3:atemp>34.0</ns3:atemp>
            <ns3:hr>73</ns3:hr>
          </ns3:TrackPointExtension>
        </extensions>
      </trkpt>
      <trkpt lat="36.81182566098868846893310546875" lon="-118.5482614673674106597900390625">
        <ele>1759.5999755859375</ele>
        <time>2021-06-28T17:53:13.000Z</time>
        <extensions>
          <ns3:TrackPointExtension>
            <ns3:atemp>34.0</ns3:atemp>
            <ns3:hr>73</ns3:hr>
          </ns3:TrackPointExtension>
        </extensions>
      </trkpt>
      <trkpt lat="36.8118153512477874755859375" lon="-118.54823137633502483367919921875">
        <ele>1759</ele>
        <time>2021-06-28T17:53:16.000Z</time>
        <extensions>
          <ns3:TrackPointExtension>
            <ns3:atemp>34.0</ns3:atemp>
            <ns3:hr>74</ns3:hr>
          </ns3:TrackPointExtension>
        </extensions>
      </trkpt>
      <trkpt lat="36.81180537678301334381103515625" lon="-118.54826054535806179046630859375">
        <ele>1759</ele>
        <time>2021-06-28T17:53:19.000Z</time>
        <extensions>
          <ns3:TrackPointExtension>
            <ns3:atemp>34.0</ns3:atemp>
            <ns3:hr>76</ns3:hr>
          </ns3:TrackPointExtension>
        </extensions>
      </trkpt>
      <trkpt lat="36.811800934374332427978515625" lon="-118.548266328871250152587890625">
        <ele>1759</ele>
        <time>2021-06-28T17:53:20.000Z</time>
        <extensions>
          <ns3:TrackPointExtension>
            <ns3:atemp>34.0</ns3:atemp>
            <ns3:hr>76</ns3:hr>
          </ns3:TrackPointExtension>
        </extensions>
      </trkpt>
      <trkpt lat="36.81179012171924114227294921875" lon="-118.54826909489929676055908203125">
        <ele>1759</ele>
        <time>2021-06-28T17:53:23.000Z</time>
        <extensions>
          <ns3:TrackPointExtension>
            <ns3:atemp>34.0</ns3:atemp>
            <ns3:hr>78</ns3:hr>
          </ns3:TrackPointExtension>
        </extensions>
      </trkpt>
      <trkpt lat="36.8117912113666534423828125" lon="-118.54828082956373691558837890625">
        <ele>1759</ele>
        <time>2021-06-28T17:53:25.000Z</time>
        <extensions>
          <ns3:TrackPointExtension>
            <ns3:atemp>34.0</ns3:atemp>
            <ns3:hr>78</ns3:hr>
          </ns3:TrackPointExtension>
        </extensions>
      </trkpt>
      <trkpt lat="36.8117957375943660736083984375" lon="-118.548287786543369293212890625">
        <ele>1759</ele>
        <time>2021-06-28T17:53:26.000Z</time>
        <extensions>
          <ns3:TrackPointExtension>
            <ns3:atemp>34.0</ns3:atemp>
            <ns3:hr>79</ns3:hr>
          </ns3:TrackPointExtension>
        </extensions>
      </trkpt>
      <trkpt lat="36.81179598905146121978759765625" lon="-118.54828418232500553131103515625">
        <ele>1759.5999755859375</ele>
        <time>2021-06-28T17:53:30.000Z</time>
        <extensions>
          <ns3:TrackPointExtension>
            <ns3:atemp>34.0</ns3:atemp>
            <ns3:hr>80</ns3:hr>
          </ns3:TrackPointExtension>
        </extensions>
      </trkpt>
      <trkpt lat="36.8118084780871868133544921875" lon="-118.5482463799417018890380859375">
        <ele>1759.5999755859375</ele>
        <time>2021-06-28T17:53:34.000Z</time>
        <extensions>
          <ns3:TrackPointExtension>
            <ns3:atemp>34.0</ns3:atemp>
            <ns3:hr>83</ns3:hr>
          </ns3:TrackPointExtension>
        </extensions>
      </trkpt>
      <trkpt lat="36.81184125132858753204345703125" lon="-118.548240177333354949951171875">
        <ele>1759.199951171875</ele>
        <time>2021-06-28T17:53:40.000Z</time>
        <extensions>
          <ns3:TrackPointExtension>
            <ns3:atemp>34.0</ns3:atemp>
            <ns3:hr>85</ns3:hr>
          </ns3:TrackPointExtension>
        </extensions>
      </trkpt>
      <trkpt lat="36.8118792213499546051025390625" lon="-118.54825861752033233642578125">
        <ele>1758.5999755859375</ele>
        <time>2021-06-28T17:53:45.000Z</time>
        <extensions>
          <ns3:TrackPointExtension>
            <ns3:atemp>34.0</ns3:atemp>
            <ns3:hr>84</ns3:hr>
          </ns3:TrackPointExtension>
        </extensions>
      </trkpt>
      <trkpt lat="36.8118869327008724212646484375" lon="-118.54827110655605792999267578125">
        <ele>1758.4000244140625</ele>
        <time>2021-06-28T17:53:46.000Z</time>
        <extensions>
          <ns3:TrackPointExtension>
            <ns3:atemp>34.0</ns3:atemp>
            <ns3:hr>86</ns3:hr>
          </ns3:TrackPointExtension>
        </extensions>
      </trkpt>
      <trkpt lat="36.8119010142982006072998046875" lon="-118.5482856072485446929931640625">
        <ele>1758.5999755859375</ele>
        <time>2021-06-28T17:53:47.000Z</time>
        <extensions>
          <ns3:TrackPointExtension>
            <ns3:atemp>34.0</ns3:atemp>
            <ns3:hr>85</ns3:hr>
          </ns3:TrackPointExtension>
        </extensions>
      </trkpt>
      <trkpt lat="36.811920292675495147705078125" lon="-118.5483053885400295257568359375">
        <ele>1758.4000244140625</ele>
        <time>2021-06-28T17:53:49.000Z</time>
        <extensions>
          <ns3:TrackPointExtension>
            <ns3:atemp>34.0</ns3:atemp>
            <ns3:hr>85</ns3:hr>
          </ns3:TrackPointExtension>
        </extensions>
      </trkpt>
      <trkpt lat="36.81192859075963497161865234375" lon="-118.5483231581747531890869140625">
        <ele>1758.199951171875</ele>
        <time>2021-06-28T17:53:51.000Z</time>
        <extensions>
          <ns3:TrackPointExtension>
            <ns3:atemp>34.0</ns3:atemp>
            <ns3:hr>84</ns3:hr>
          </ns3:TrackPointExtension>
        </extensions>
      </trkpt>
      <trkpt lat="36.8119332008063793182373046875" lon="-118.548334725201129913330078125">
        <ele>1758.199951171875</ele>
        <time>2021-06-28T17:53:52.000Z</time>
        <extensions>
          <ns3:TrackPointExtension>
            <ns3:atemp>34.0</ns3:atemp>
            <ns3:hr>84</ns3:hr>
          </ns3:TrackPointExtension>
        </extensions>
      </trkpt>
      <trkpt lat="36.8119362182915210723876953125" lon="-118.548346459865570068359375">
        <ele>1758.199951171875</ele>
        <time>2021-06-28T17:53:53.000Z</time>
        <extensions>
          <ns3:TrackPointExtension>
            <ns3:atemp>34.0</ns3:atemp>
            <ns3:hr>84</ns3:hr>
          </ns3:TrackPointExtension>
        </extensions>
      </trkpt>
      <trkpt lat="36.81194082833826541900634765625" lon="-118.54838199913501739501953125">
        <ele>1758.199951171875</ele>
        <time>2021-06-28T17:53:55.000Z</time>
        <extensions>
          <ns3:TrackPointExtension>
            <ns3:atemp>34.0</ns3:atemp>
            <ns3:hr>84</ns3:hr>
          </ns3:TrackPointExtension>
        </extensions>
      </trkpt>
      <trkpt lat="36.81193278171122074127197265625" lon="-118.54839834384620189666748046875">
        <ele>1758.5999755859375</ele>
        <time>2021-06-28T17:53:58.000Z</time>
        <extensions>
          <ns3:TrackPointExtension>
            <ns3:atemp>34.0</ns3:atemp>
            <ns3:hr>85</ns3:hr>
          </ns3:TrackPointExtension>
        </extensions>
      </trkpt>
      <trkpt lat="36.81195138953626155853271484375" lon="-118.548436649143695831298828125">
        <ele>1758.5999755859375</ele>
        <time>2021-06-28T17:54:02.000Z</time>
        <extensions>
          <ns3:TrackPointExtension>
            <ns3:atemp>34.0</ns3:atemp>
            <ns3:hr>84</ns3:hr>
          </ns3:TrackPointExtension>
        </extensions>
      </trkpt>
      <trkpt lat="36.81199698708951473236083984375" lon="-118.54848031885921955108642578125">
        <ele>1758</ele>
        <time>2021-06-28T17:54:08.000Z</time>
        <extensions>
          <ns3:TrackPointExtension>
            <ns3:atemp>34.0</ns3:atemp>
            <ns3:hr>81</ns3:hr>
          </ns3:TrackPointExtension>
        </extensions>
      </trkpt>
      <trkpt lat="36.81200511753559112548828125" lon="-118.5484938137233257293701171875">
        <ele>1757.800048828125</ele>
        <time>2021-06-28T17:54:09.000Z</time>
        <extensions>
          <ns3:TrackPointExtension>
            <ns3:atemp>34.0</ns3:atemp>
            <ns3:hr>81</ns3:hr>
          </ns3:TrackPointExtension>
        </extensions>
      </trkpt>
      <trkpt lat="36.812029592692852020263671875" lon="-118.54849255643784999847412109375">
        <ele>1757.5999755859375</ele>
        <time>2021-06-28T17:54:11.000Z</time>
        <extensions>
          <ns3:TrackPointExtension>
            <ns3:atemp>34.0</ns3:atemp>
            <ns3:hr>81</ns3:hr>
          </ns3:TrackPointExtension>
        </extensions>
      </trkpt>
      <trkpt lat="36.8120540678501129150390625" lon="-118.5484693385660648345947265625">
        <ele>1757.199951171875</ele>
        <time>2021-06-28T17:54:14.000Z</time>
        <extensions>
          <ns3:TrackPointExtension>
            <ns3:atemp>34.0</ns3:atemp>
            <ns3:hr>80</ns3:hr>
          </ns3:TrackPointExtension>
        </extensions>
      </trkpt>
      <trkpt lat="36.81207627989351749420166015625" lon="-118.5484767146408557891845703125">
        <ele>1757</ele>
        <time>2021-06-28T17:54:16.000Z</time>
        <extensions>
          <ns3:TrackPointExtension>
            <ns3:atemp>34.0</ns3:atemp>
            <ns3:hr>80</ns3:hr>
          </ns3:TrackPointExtension>
        </extensions>
      </trkpt>
      <trkpt lat="36.81207619607448577880859375" lon="-118.5482735373079776763916015625">
        <ele>1759.800048828125</ele>
        <time>2021-06-28T18:32:46.000Z</time>
        <extensions>
          <ns3:TrackPointExtension>
            <ns3:atemp>34.0</ns3:atemp>
            <ns3:hr>66</ns3:hr>
          </ns3:TrackPointExtension>
        </extensions>
      </trkpt>
      <trkpt lat="36.81207611225545406341552734375" lon="-118.5482748784124851226806640625">
        <ele>1759.800048828125</ele>
        <time>2021-06-28T18:32:47.000Z</time>
        <extensions>
          <ns3:TrackPointExtension>
            <ns3:atemp>34.0</ns3:atemp>
            <ns3:hr>64</ns3:hr>
          </ns3:TrackPointExtension>
        </extensions>
      </trkpt>
      <trkpt lat="36.81207544170320034027099609375" lon="-118.5482849366962909698486328125">
        <ele>1759.800048828125</ele>
        <time>2021-06-28T18:32:52.000Z</time>
        <extensions>
          <ns3:TrackPointExtension>
            <ns3:atemp>34.0</ns3:atemp>
            <ns3:hr>61</ns3:hr>
          </ns3:TrackPointExtension>
        </extensions>
      </trkpt>
      <trkpt lat="36.81207493878901004791259765625" lon="-118.5482856072485446929931640625">
        <ele>1760.199951171875</ele>
        <time>2021-06-28T18:32:53.000Z</time>
        <extensions>
          <ns3:TrackPointExtension>
            <ns3:atemp>34.0</ns3:atemp>
            <ns3:hr>66</ns3:hr>
          </ns3:TrackPointExtension>
        </extensions>
      </trkpt>
      <trkpt lat="36.81204761378467082977294921875" lon="-118.5483281873166561126708984375">
        <ele>1760.4000244140625</ele>
        <time>2021-06-28T18:32:57.000Z</time>
        <extensions>
          <ns3:TrackPointExtension>
            <ns3:atemp>34.0</ns3:atemp>
            <ns3:hr>67</ns3:hr>
          </ns3:TrackPointExtension>
        </extensions>
      </trkpt>
      <trkpt lat="36.81203839369118213653564453125" lon="-118.54834704659879207611083984375">
        <ele>1760.5999755859375</ele>
        <time>2021-06-28T18:32:58.000Z</time>
        <extensions>
          <ns3:TrackPointExtension>
            <ns3:atemp>34.0</ns3:atemp>
            <ns3:hr>71</ns3:hr>
          </ns3:TrackPointExtension>
        </extensions>
      </trkpt>
      <trkpt lat="36.81203193962574005126953125" lon="-118.54834805242717266082763671875">
        <ele>1760.5999755859375</ele>
        <time>2021-06-28T18:32:59.000Z</time>
        <extensions>
          <ns3:TrackPointExtension>
            <ns3:atemp>34.0</ns3:atemp>
            <ns3:hr>74</ns3:hr>
          </ns3:TrackPointExtension>
        </extensions>
      </trkpt>
      <trkpt lat="36.81202565319836139678955078125" lon="-118.548342101275920867919921875">
        <ele>1760.5999755859375</ele>
        <time>2021-06-28T18:33:00.000Z</time>
        <extensions>
          <ns3:TrackPointExtension>
            <ns3:atemp>34.0</ns3:atemp>
            <ns3:hr>78</ns3:hr>
          </ns3:TrackPointExtension>
        </extensions>
      </trkpt>
      <trkpt lat="36.8120022676885128021240234375" lon="-118.54833648540079593658447265625">
        <ele>1760.4000244140625</ele>
        <time>2021-06-28T18:33:03.000Z</time>
        <extensions>
          <ns3:TrackPointExtension>
            <ns3:atemp>34.0</ns3:atemp>
            <ns3:hr>80</ns3:hr>
          </ns3:TrackPointExtension>
        </extensions>
      </trkpt>
      <trkpt lat="36.8119871802628040313720703125" lon="-118.548337407410144805908203125">
        <ele>1760.4000244140625</ele>
        <time>2021-06-28T18:33:05.000Z</time>
        <extensions>
          <ns3:TrackPointExtension>
            <ns3:atemp>34.0</ns3:atemp>
            <ns3:hr>81</ns3:hr>
          </ns3:TrackPointExtension>
        </extensions>
      </trkpt>
      <trkpt lat="36.8119776248931884765625" lon="-118.54831762611865997314453125">
        <ele>1761</ele>
        <time>2021-06-28T18:33:07.000Z</time>
        <extensions>
          <ns3:TrackPointExtension>
            <ns3:atemp>34.0</ns3:atemp>
            <ns3:hr>78</ns3:hr>
          </ns3:TrackPointExtension>
        </extensions>
      </trkpt>
      <trkpt lat="36.81197050027549266815185546875" lon="-118.5482926480472087860107421875">
        <ele>1761</ele>
        <time>2021-06-28T18:33:08.000Z</time>
        <extensions>
          <ns3:TrackPointExtension>
            <ns3:atemp>34.0</ns3:atemp>
            <ns3:hr>82</ns3:hr>
          </ns3:TrackPointExtension>
        </extensions>
      </trkpt>
      <trkpt lat="36.81195876561105251312255859375" lon="-118.5482822544872760772705078125">
        <ele>1761.199951171875</ele>
        <time>2021-06-28T18:33:09.000Z</time>
        <extensions>
          <ns3:TrackPointExtension>
            <ns3:atemp>34.0</ns3:atemp>
            <ns3:hr>83</ns3:hr>
          </ns3:TrackPointExtension>
        </extensions>
      </trkpt>
      <trkpt lat="36.811944432556629180908203125" lon="-118.54827680625021457672119140625">
        <ele>1761.4000244140625</ele>
        <time>2021-06-28T18:33:11.000Z</time>
        <extensions>
          <ns3:TrackPointExtension>
            <ns3:atemp>34.0</ns3:atemp>
            <ns3:hr>86</ns3:hr>
          </ns3:TrackPointExtension>
        </extensions>
      </trkpt>
      <trkpt lat="36.811926662921905517578125" lon="-118.54828988201916217803955078125">
        <ele>1761.800048828125</ele>
        <time>2021-06-28T18:33:13.000Z</time>
        <extensions>
          <ns3:TrackPointExtension>
            <ns3:atemp>34.0</ns3:atemp>
            <ns3:hr>89</ns3:hr>
          </ns3:TrackPointExtension>
        </extensions>
      </trkpt>
      <trkpt lat="36.8119171075522899627685546875" lon="-118.5482715256512165069580078125">
        <ele>1762</ele>
        <time>2021-06-28T18:33:15.000Z</time>
        <extensions>
          <ns3:TrackPointExtension>
            <ns3:atemp>34.0</ns3:atemp>
            <ns3:hr>92</ns3:hr>
          </ns3:TrackPointExtension>
        </extensions>
      </trkpt>
      <trkpt lat="36.8119120784103870391845703125" lon="-118.54827110655605792999267578125">
        <ele>1762</ele>
        <time>2021-06-28T18:33:16.000Z</time>
        <extensions>
          <ns3:TrackPointExtension>
            <ns3:atemp>34.0</ns3:atemp>
            <ns3:hr>93</ns3:hr>
          </ns3:TrackPointExtension>
        </extensions>
      </trkpt>
      <trkpt lat="36.8119218014180660247802734375" lon="-118.5482297837734222412109375">
        <ele>1762.199951171875</ele>
        <time>2021-06-28T18:33:23.000Z</time>
        <extensions>
          <ns3:TrackPointExtension>
            <ns3:atemp>34.0</ns3:atemp>
            <ns3:hr>94</ns3:hr>
          </ns3:TrackPointExtension>
        </extensions>
      </trkpt>
      <trkpt lat="36.811944432556629180908203125" lon="-118.54820363223552703857421875">
        <ele>1762.199951171875</ele>
        <time>2021-06-28T18:33:27.000Z</time>
        <extensions>
          <ns3:TrackPointExtension>
            <ns3:atemp>34.0</ns3:atemp>
            <ns3:hr>98</ns3:hr>
          </ns3:TrackPointExtension>
        </extensions>
      </trkpt>
      <trkpt lat="36.8119412474334239959716796875" lon="-118.54815811850130558013916015625">
        <ele>1762</ele>
        <time>2021-06-28T18:33:30.000Z</time>
        <extensions>
          <ns3:TrackPointExtension>
            <ns3:atemp>34.0</ns3:atemp>
            <ns3:hr>101</ns3:hr>
          </ns3:TrackPointExtension>
        </extensions>
      </trkpt>
      <trkpt lat="36.8119120784103870391845703125" lon="-118.54811922647058963775634765625">
        <ele>1761.5999755859375</ele>
        <time>2021-06-28T18:33:34.000Z</time>
        <extensions>
          <ns3:TrackPointExtension>
            <ns3:atemp>34.0</ns3:atemp>
            <ns3:hr>103</ns3:hr>
          </ns3:TrackPointExtension>
        </extensions>
      </trkpt>
      <trkpt lat="36.8118886090815067291259765625" lon="-118.548104055225849151611328125">
        <ele>1762</ele>
        <time>2021-06-28T18:33:39.000Z</time>
        <extensions>
          <ns3:TrackPointExtension>
            <ns3:atemp>34.0</ns3:atemp>
            <ns3:hr>102</ns3:hr>
          </ns3:TrackPointExtension>
        </extensions>
      </trkpt>
      <trkpt lat="36.81184946559369564056396484375" lon="-118.54812660254538059234619140625">
        <ele>1762.5999755859375</ele>
        <time>2021-06-28T18:33:45.000Z</time>
        <extensions>
          <ns3:TrackPointExtension>
            <ns3:atemp>34.0</ns3:atemp>
            <ns3:hr>100</ns3:hr>
          </ns3:TrackPointExtension>
        </extensions>
      </trkpt>
      <trkpt lat="36.81183773092925548553466796875" lon="-118.54812392033636569976806640625">
        <ele>1763</ele>
        <time>2021-06-28T18:33:48.000Z</time>
        <extensions>
          <ns3:TrackPointExtension>
            <ns3:atemp>34.0</ns3:atemp>
            <ns3:hr>97</ns3:hr>
          </ns3:TrackPointExtension>
        </extensions>
      </trkpt>
      <trkpt lat="36.811825074255466461181640625" lon="-118.54812274686992168426513671875">
        <ele>1763</ele>
        <time>2021-06-28T18:33:50.000Z</time>
        <extensions>
          <ns3:TrackPointExtension>
            <ns3:atemp>34.0</ns3:atemp>
            <ns3:hr>95</ns3:hr>
          </ns3:TrackPointExtension>
        </extensions>
      </trkpt>
      <trkpt lat="36.81181602180004119873046875" lon="-118.54812962003052234649658203125">
        <ele>1763.199951171875</ele>
        <time>2021-06-28T18:33:51.000Z</time>
        <extensions>
          <ns3:TrackPointExtension>
            <ns3:atemp>34.0</ns3:atemp>
            <ns3:hr>95</ns3:hr>
          </ns3:TrackPointExtension>
        </extensions>
      </trkpt>
      <trkpt lat="36.8117498047649860382080078125" lon="-118.54818594641983509063720703125">
        <ele>1763.4000244140625</ele>
        <time>2021-06-28T18:33:59.000Z</time>
        <extensions>
          <ns3:TrackPointExtension>
            <ns3:atemp>34.0</ns3:atemp>
            <ns3:hr>94</ns3:hr>
          </ns3:TrackPointExtension>
        </extensions>
      </trkpt>
      <trkpt lat="36.81170026771724224090576171875" lon="-118.54820556007325649261474609375">
        <ele>1764</ele>
        <time>2021-06-28T18:34:04.000Z</time>
        <extensions>
          <ns3:TrackPointExtension>
            <ns3:atemp>34.0</ns3:atemp>
            <ns3:hr>92</ns3:hr>
          </ns3:TrackPointExtension>
        </extensions>
      </trkpt>
      <trkpt lat="36.81169071234762668609619140625" lon="-118.548200614750385284423828125">
        <ele>1764</ele>
        <time>2021-06-28T18:34:05.000Z</time>
        <extensions>
          <ns3:TrackPointExtension>
            <ns3:atemp>34.0</ns3:atemp>
            <ns3:hr>92</ns3:hr>
          </ns3:TrackPointExtension>
        </extensions>
      </trkpt>
      <trkpt lat="36.8116673268377780914306640625" lon="-118.54819969274103641510009765625">
        <ele>1764</ele>
        <time>2021-06-28T18:34:07.000Z</time>
        <extensions>
          <ns3:TrackPointExtension>
            <ns3:atemp>34.0</ns3:atemp>
            <ns3:hr>93</ns3:hr>
          </ns3:TrackPointExtension>
        </extensions>
      </trkpt>
      <trkpt lat="36.81165718473494052886962890625" lon="-118.548204638063907623291015625">
        <ele>1764.199951171875</ele>
        <time>2021-06-28T18:34:08.000Z</time>
        <extensions>
          <ns3:TrackPointExtension>
            <ns3:atemp>34.0</ns3:atemp>
            <ns3:hr>93</ns3:hr>
          </ns3:TrackPointExtension>
        </extensions>
      </trkpt>
      <trkpt lat="36.811642684042453765869140625" lon="-118.5482105053961277008056640625">
        <ele>1764.4000244140625</ele>
        <time>2021-06-28T18:34:10.000Z</time>
        <extensions>
          <ns3:TrackPointExtension>
            <ns3:atemp>34.0</ns3:atemp>
            <ns3:hr>93</ns3:hr>
          </ns3:TrackPointExtension>
        </extensions>
      </trkpt>
      <trkpt lat="36.8116099946200847625732421875" lon="-118.54823892004787921905517578125">
        <ele>1765</ele>
        <time>2021-06-28T18:34:15.000Z</time>
        <extensions>
          <ns3:TrackPointExtension>
            <ns3:atemp>34.0</ns3:atemp>
            <ns3:hr>92</ns3:hr>
          </ns3:TrackPointExtension>
        </extensions>
      </trkpt>
      <trkpt lat="36.81159876286983489990234375" lon="-118.54824596084654331207275390625">
        <ele>1765.199951171875</ele>
        <time>2021-06-28T18:34:16.000Z</time>
        <extensions>
          <ns3:TrackPointExtension>
            <ns3:atemp>34.0</ns3:atemp>
            <ns3:hr>92</ns3:hr>
          </ns3:TrackPointExtension>
        </extensions>
      </trkpt>
      <trkpt lat="36.8115469627082347869873046875" lon="-118.54822282679378986358642578125">
        <ele>1765.199951171875</ele>
        <time>2021-06-28T18:34:19.000Z</time>
        <extensions>
          <ns3:TrackPointExtension>
            <ns3:atemp>34.0</ns3:atemp>
            <ns3:hr>94</ns3:hr>
          </ns3:TrackPointExtension>
        </extensions>
      </trkpt>
      <trkpt lat="36.81148133240640163421630859375" lon="-118.54823338799178600311279296875">
        <ele>1764.800048828125</ele>
        <time>2021-06-28T18:34:25.000Z</time>
        <extensions>
          <ns3:TrackPointExtension>
            <ns3:atemp>34.0</ns3:atemp>
            <ns3:hr>97</ns3:hr>
          </ns3:TrackPointExtension>
        </extensions>
      </trkpt>
      <trkpt lat="36.811481416225433349609375" lon="-118.54820891283452510833740234375">
        <ele>1764.4000244140625</ele>
        <time>2021-06-28T18:34:27.000Z</time>
        <extensions>
          <ns3:TrackPointExtension>
            <ns3:atemp>34.0</ns3:atemp>
            <ns3:hr>97</ns3:hr>
          </ns3:TrackPointExtension>
        </extensions>
      </trkpt>
      <trkpt lat="36.81147873401641845703125" lon="-118.54819826781749725341796875">
        <ele>1764</ele>
        <time>2021-06-28T18:34:28.000Z</time>
        <extensions>
          <ns3:TrackPointExtension>
            <ns3:atemp>34.0</ns3:atemp>
            <ns3:hr>96</ns3:hr>
          </ns3:TrackPointExtension>
        </extensions>
      </trkpt>
      <trkpt lat="36.81143539957702159881591796875" lon="-118.548155687749385833740234375">
        <ele>1763.5999755859375</ele>
        <time>2021-06-28T18:34:32.000Z</time>
        <extensions>
          <ns3:TrackPointExtension>
            <ns3:atemp>34.0</ns3:atemp>
            <ns3:hr>99</ns3:hr>
          </ns3:TrackPointExtension>
        </extensions>
      </trkpt>
      <trkpt lat="36.81138779036700725555419921875" lon="-118.54811285622417926788330078125">
        <ele>1763.199951171875</ele>
        <time>2021-06-28T18:34:35.000Z</time>
        <extensions>
          <ns3:TrackPointExtension>
            <ns3:atemp>34.0</ns3:atemp>
            <ns3:hr>98</ns3:hr>
          </ns3:TrackPointExtension>
        </extensions>
      </trkpt>
      <trkpt lat="36.811361722648143768310546875" lon="-118.5481219924986362457275390625">
        <ele>1763</ele>
        <time>2021-06-28T18:34:37.000Z</time>
        <extensions>
          <ns3:TrackPointExtension>
            <ns3:atemp>34.0</ns3:atemp>
            <ns3:hr>98</ns3:hr>
          </ns3:TrackPointExtension>
        </extensions>
      </trkpt>
      <trkpt lat="36.8113518320024013519287109375" lon="-118.5481305420398712158203125">
        <ele>1763</ele>
        <time>2021-06-28T18:34:38.000Z</time>
        <extensions>
          <ns3:TrackPointExtension>
            <ns3:atemp>34.0</ns3:atemp>
            <ns3:hr>98</ns3:hr>
          </ns3:TrackPointExtension>
        </extensions>
      </trkpt>
      <trkpt lat="36.81134185753762722015380859375" lon="-118.54813431389629840850830078125">
        <ele>1763</ele>
        <time>2021-06-28T18:34:39.000Z</time>
        <extensions>
          <ns3:TrackPointExtension>
            <ns3:atemp>34.0</ns3:atemp>
            <ns3:hr>98</ns3:hr>
          </ns3:TrackPointExtension>
        </extensions>
      </trkpt>
      <trkpt lat="36.81125032715499401092529296875" lon="-118.5481283627450466156005859375">
        <ele>1763</ele>
        <time>2021-06-28T18:34:46.000Z</time>
        <extensions>
          <ns3:TrackPointExtension>
            <ns3:atemp>34.0</ns3:atemp>
            <ns3:hr>97</ns3:hr>
          </ns3:TrackPointExtension>
        </extensions>
      </trkpt>
      <trkpt lat="36.811237335205078125" lon="-118.54811470024287700653076171875">
        <ele>1763</ele>
        <time>2021-06-28T18:34:47.000Z</time>
        <extensions>
          <ns3:TrackPointExtension>
            <ns3:atemp>34.0</ns3:atemp>
            <ns3:hr>95</ns3:hr>
          </ns3:TrackPointExtension>
        </extensions>
      </trkpt>
      <trkpt lat="36.81121076457202434539794921875" lon="-118.5480975173413753509521484375">
        <ele>1763</ele>
        <time>2021-06-28T18:34:49.000Z</time>
        <extensions>
          <ns3:TrackPointExtension>
            <ns3:atemp>34.0</ns3:atemp>
            <ns3:hr>97</ns3:hr>
          </ns3:TrackPointExtension>
        </extensions>
      </trkpt>
      <trkpt lat="36.81118763051927089691162109375" lon="-118.54809843935072422027587890625">
        <ele>1763</ele>
        <time>2021-06-28T18:34:51.000Z</time>
        <extensions>
          <ns3:TrackPointExtension>
            <ns3:atemp>34.0</ns3:atemp>
            <ns3:hr>96</ns3:hr>
          </ns3:TrackPointExtension>
        </extensions>
      </trkpt>
      <trkpt lat="36.81117136962711811065673828125" lon="-118.54810480959713459014892578125">
        <ele>1763.199951171875</ele>
        <time>2021-06-28T18:34:53.000Z</time>
        <extensions>
          <ns3:TrackPointExtension>
            <ns3:atemp>34.0</ns3:atemp>
            <ns3:hr>98</ns3:hr>
          </ns3:TrackPointExtension>
        </extensions>
      </trkpt>
      <trkpt lat="36.81115862913429737091064453125" lon="-118.54811034165322780609130859375">
        <ele>1763.199951171875</ele>
        <time>2021-06-28T18:34:55.000Z</time>
        <extensions>
          <ns3:TrackPointExtension>
            <ns3:atemp>34.0</ns3:atemp>
            <ns3:hr>96</ns3:hr>
          </ns3:TrackPointExtension>
        </extensions>
      </trkpt>
      <trkpt lat="36.8111332319676876068115234375" lon="-118.548100702464580535888671875">
        <ele>1763.199951171875</ele>
        <time>2021-06-28T18:34:57.000Z</time>
        <extensions>
          <ns3:TrackPointExtension>
            <ns3:atemp>34.0</ns3:atemp>
            <ns3:hr>97</ns3:hr>
          </ns3:TrackPointExtension>
        </extensions>
      </trkpt>
      <trkpt lat="36.81105469353497028350830078125" lon="-118.5481508262455463409423828125">
        <ele>1762.800048828125</ele>
        <time>2021-06-28T18:35:04.000Z</time>
        <extensions>
          <ns3:TrackPointExtension>
            <ns3:atemp>34.0</ns3:atemp>
            <ns3:hr>98</ns3:hr>
          </ns3:TrackPointExtension>
        </extensions>
      </trkpt>
      <trkpt lat="36.81105419062077999114990234375" lon="-118.54814604856073856353759765625">
        <ele>1762.800048828125</ele>
        <time>2021-06-28T18:35:05.000Z</time>
        <extensions>
          <ns3:TrackPointExtension>
            <ns3:atemp>34.0</ns3:atemp>
            <ns3:hr>98</ns3:hr>
          </ns3:TrackPointExtension>
        </extensions>
      </trkpt>
      <trkpt lat="36.81101663969457149505615234375" lon="-118.54812224395573139190673828125">
        <ele>1762.800048828125</ele>
        <time>2021-06-28T18:35:09.000Z</time>
        <extensions>
          <ns3:TrackPointExtension>
            <ns3:atemp>34.0</ns3:atemp>
            <ns3:hr>96</ns3:hr>
          </ns3:TrackPointExtension>
        </extensions>
      </trkpt>
      <trkpt lat="36.81100171990692615509033203125" lon="-118.5481179691851139068603515625">
        <ele>1763</ele>
        <time>2021-06-28T18:35:10.000Z</time>
        <extensions>
          <ns3:TrackPointExtension>
            <ns3:atemp>34.0</ns3:atemp>
            <ns3:hr>100</ns3:hr>
          </ns3:TrackPointExtension>
        </extensions>
      </trkpt>
      <trkpt lat="36.81093684397637844085693359375" lon="-118.5481149516999721527099609375">
        <ele>1763.199951171875</ele>
        <time>2021-06-28T18:35:16.000Z</time>
        <extensions>
          <ns3:TrackPointExtension>
            <ns3:atemp>34.0</ns3:atemp>
            <ns3:hr>98</ns3:hr>
          </ns3:TrackPointExtension>
        </extensions>
      </trkpt>
      <trkpt lat="36.81092762388288974761962890625" lon="-118.54811084456741809844970703125">
        <ele>1763.4000244140625</ele>
        <time>2021-06-28T18:35:17.000Z</time>
        <extensions>
          <ns3:TrackPointExtension>
            <ns3:atemp>34.0</ns3:atemp>
            <ns3:hr>98</ns3:hr>
          </ns3:TrackPointExtension>
        </extensions>
      </trkpt>
      <trkpt lat="36.8109194934368133544921875" lon="-118.548109419643878936767578125">
        <ele>1763.4000244140625</ele>
        <time>2021-06-28T18:35:18.000Z</time>
        <extensions>
          <ns3:TrackPointExtension>
            <ns3:atemp>34.0</ns3:atemp>
            <ns3:hr>98</ns3:hr>
          </ns3:TrackPointExtension>
        </extensions>
      </trkpt>
      <trkpt lat="36.810911782085895538330078125" lon="-118.54810916818678379058837890625">
        <ele>1763.4000244140625</ele>
        <time>2021-06-28T18:35:19.000Z</time>
        <extensions>
          <ns3:TrackPointExtension>
            <ns3:atemp>34.0</ns3:atemp>
            <ns3:hr>101</ns3:hr>
          </ns3:TrackPointExtension>
        </extensions>
      </trkpt>
      <trkpt lat="36.81090365163981914520263671875" lon="-118.5481146164238452911376953125">
        <ele>1763.5999755859375</ele>
        <time>2021-06-28T18:35:20.000Z</time>
        <extensions>
          <ns3:TrackPointExtension>
            <ns3:atemp>34.0</ns3:atemp>
            <ns3:hr>98</ns3:hr>
          </ns3:TrackPointExtension>
        </extensions>
      </trkpt>
      <trkpt lat="36.810894012451171875" lon="-118.54811989702284336090087890625">
        <ele>1763.5999755859375</ele>
        <time>2021-06-28T18:35:22.000Z</time>
        <extensions>
          <ns3:TrackPointExtension>
            <ns3:atemp>34.0</ns3:atemp>
            <ns3:hr>98</ns3:hr>
          </ns3:TrackPointExtension>
        </extensions>
      </trkpt>
      <trkpt lat="36.810888312757015228271484375" lon="-118.5481179691851139068603515625">
        <ele>1763.5999755859375</ele>
        <time>2021-06-28T18:35:23.000Z</time>
        <extensions>
          <ns3:TrackPointExtension>
            <ns3:atemp>34.0</ns3:atemp>
            <ns3:hr>99</ns3:hr>
          </ns3:TrackPointExtension>
        </extensions>
      </trkpt>
      <trkpt lat="36.81086006574332714080810546875" lon="-118.54810531251132488250732421875">
        <ele>1763.199951171875</ele>
        <time>2021-06-28T18:35:26.000Z</time>
        <extensions>
          <ns3:TrackPointExtension>
            <ns3:atemp>34.0</ns3:atemp>
            <ns3:hr>101</ns3:hr>
          </ns3:TrackPointExtension>
        </extensions>
      </trkpt>
      <trkpt lat="36.810819245874881744384765625" lon="-118.5481340624392032623291015625">
        <ele>1763</ele>
        <time>2021-06-28T18:35:28.000Z</time>
        <extensions>
          <ns3:TrackPointExtension>
            <ns3:atemp>34.0</ns3:atemp>
            <ns3:hr>102</ns3:hr>
          </ns3:TrackPointExtension>
        </extensions>
      </trkpt>
      <trkpt lat="36.81080105714499950408935546875" lon="-118.54813884012401103973388671875">
        <ele>1762.800048828125</ele>
        <time>2021-06-28T18:35:29.000Z</time>
        <extensions>
          <ns3:TrackPointExtension>
            <ns3:atemp>34.0</ns3:atemp>
            <ns3:hr>103</ns3:hr>
          </ns3:TrackPointExtension>
        </extensions>
      </trkpt>
      <trkpt lat="36.8107386119663715362548828125" lon="-118.54811637662351131439208984375">
        <ele>1763</ele>
        <time>2021-06-28T18:35:33.000Z</time>
        <extensions>
          <ns3:TrackPointExtension>
            <ns3:atemp>34.0</ns3:atemp>
            <ns3:hr>106</ns3:hr>
          </ns3:TrackPointExtension>
        </extensions>
      </trkpt>
      <trkpt lat="36.81070600636303424835205078125" lon="-118.54812174104154109954833984375">
        <ele>1763.199951171875</ele>
        <time>2021-06-28T18:35:36.000Z</time>
        <extensions>
          <ns3:TrackPointExtension>
            <ns3:atemp>34.0</ns3:atemp>
            <ns3:hr>104</ns3:hr>
          </ns3:TrackPointExtension>
        </extensions>
      </trkpt>
      <trkpt lat="36.8106946907937526702880859375" lon="-118.54812811128795146942138671875">
        <ele>1763.5999755859375</ele>
        <time>2021-06-28T18:35:37.000Z</time>
        <extensions>
          <ns3:TrackPointExtension>
            <ns3:atemp>34.0</ns3:atemp>
            <ns3:hr>102</ns3:hr>
          </ns3:TrackPointExtension>
        </extensions>
      </trkpt>
      <trkpt lat="36.81067415513098239898681640625" lon="-118.5481377504765987396240234375">
        <ele>1763.5999755859375</ele>
        <time>2021-06-28T18:35:39.000Z</time>
        <extensions>
          <ns3:TrackPointExtension>
            <ns3:atemp>34.0</ns3:atemp>
            <ns3:hr>103</ns3:hr>
          </ns3:TrackPointExtension>
        </extensions>
      </trkpt>
      <trkpt lat="36.81065822951495647430419921875" lon="-118.54814537800848484039306640625">
        <ele>1763.800048828125</ele>
        <time>2021-06-28T18:35:41.000Z</time>
        <extensions>
          <ns3:TrackPointExtension>
            <ns3:atemp>34.0</ns3:atemp>
            <ns3:hr>104</ns3:hr>
          </ns3:TrackPointExtension>
        </extensions>
      </trkpt>
      <trkpt lat="36.810654290020465850830078125" lon="-118.54814956896007061004638671875">
        <ele>1763.800048828125</ele>
        <time>2021-06-28T18:35:42.000Z</time>
        <extensions>
          <ns3:TrackPointExtension>
            <ns3:atemp>34.0</ns3:atemp>
            <ns3:hr>104</ns3:hr>
          </ns3:TrackPointExtension>
        </extensions>
      </trkpt>
      <trkpt lat="36.81062243878841400146484375" lon="-118.54816046543419361114501953125">
        <ele>1763.800048828125</ele>
        <time>2021-06-28T18:35:45.000Z</time>
        <extensions>
          <ns3:TrackPointExtension>
            <ns3:atemp>34.0</ns3:atemp>
            <ns3:hr>100</ns3:hr>
          </ns3:TrackPointExtension>
        </extensions>
      </trkpt>
      <trkpt lat="36.8106148950755596160888671875" lon="-118.548166751861572265625">
        <ele>1764</ele>
        <time>2021-06-28T18:35:46.000Z</time>
        <extensions>
          <ns3:TrackPointExtension>
            <ns3:atemp>34.0</ns3:atemp>
            <ns3:hr>99</ns3:hr>
          </ns3:TrackPointExtension>
        </extensions>
      </trkpt>
      <trkpt lat="36.81059427559375762939453125" lon="-118.548161722719669342041015625">
        <ele>1764.199951171875</ele>
        <time>2021-06-28T18:35:48.000Z</time>
        <extensions>
          <ns3:TrackPointExtension>
            <ns3:atemp>34.0</ns3:atemp>
            <ns3:hr>95</ns3:hr>
          </ns3:TrackPointExtension>
        </extensions>
      </trkpt>
      <trkpt lat="36.81056921370327472686767578125" lon="-118.548185862600803375244140625">
        <ele>1764.5999755859375</ele>
        <time>2021-06-28T18:35:50.000Z</time>
        <extensions>
          <ns3:TrackPointExtension>
            <ns3:atemp>34.0</ns3:atemp>
            <ns3:hr>92</ns3:hr>
          </ns3:TrackPointExtension>
        </extensions>
      </trkpt>
      <trkpt lat="36.810561753809452056884765625" lon="-118.5482044704258441925048828125">
        <ele>1764.5999755859375</ele>
        <time>2021-06-28T18:35:52.000Z</time>
        <extensions>
          <ns3:TrackPointExtension>
            <ns3:atemp>34.0</ns3:atemp>
            <ns3:hr>89</ns3:hr>
          </ns3:TrackPointExtension>
        </extensions>
      </trkpt>
      <trkpt lat="36.8105461634695529937744140625" lon="-118.54823120869696140289306640625">
        <ele>1765</ele>
        <time>2021-06-28T18:35:55.000Z</time>
        <extensions>
          <ns3:TrackPointExtension>
            <ns3:atemp>34.0</ns3:atemp>
            <ns3:hr>87</ns3:hr>
          </ns3:TrackPointExtension>
        </extensions>
      </trkpt>
      <trkpt lat="36.81054155342280864715576171875" lon="-118.548238836228847503662109375">
        <ele>1765</ele>
        <time>2021-06-28T18:35:56.000Z</time>
        <extensions>
          <ns3:TrackPointExtension>
            <ns3:atemp>34.0</ns3:atemp>
            <ns3:hr>87</ns3:hr>
          </ns3:TrackPointExtension>
        </extensions>
      </trkpt>
      <trkpt lat="36.81052411906421184539794921875" lon="-118.54832676239311695098876953125">
        <ele>1766</ele>
        <time>2021-06-28T18:36:02.000Z</time>
        <extensions>
          <ns3:TrackPointExtension>
            <ns3:atemp>34.0</ns3:atemp>
            <ns3:hr>86</ns3:hr>
          </ns3:TrackPointExtension>
        </extensions>
      </trkpt>
      <trkpt lat="36.810482628643512725830078125" lon="-118.54835073463618755340576171875">
        <ele>1766.199951171875</ele>
        <time>2021-06-28T18:36:07.000Z</time>
        <extensions>
          <ns3:TrackPointExtension>
            <ns3:atemp>34.0</ns3:atemp>
            <ns3:hr>84</ns3:hr>
          </ns3:TrackPointExtension>
        </extensions>
      </trkpt>
      <trkpt lat="36.81048036552965641021728515625" lon="-118.54834184981882572174072265625">
        <ele>1766.199951171875</ele>
        <time>2021-06-28T18:36:08.000Z</time>
        <extensions>
          <ns3:TrackPointExtension>
            <ns3:atemp>34.0</ns3:atemp>
            <ns3:hr>88</ns3:hr>
          </ns3:TrackPointExtension>
        </extensions>
      </trkpt>
      <trkpt lat="36.8104408867657184600830078125" lon="-118.5483248345553874969482421875">
        <ele>1766</ele>
        <time>2021-06-28T18:36:12.000Z</time>
        <extensions>
          <ns3:TrackPointExtension>
            <ns3:atemp>34.0</ns3:atemp>
            <ns3:hr>89</ns3:hr>
          </ns3:TrackPointExtension>
        </extensions>
      </trkpt>
      <trkpt lat="36.81041347794234752655029296875" lon="-118.548321984708309173583984375">
        <ele>1765.5999755859375</ele>
        <time>2021-06-28T18:36:14.000Z</time>
        <extensions>
          <ns3:TrackPointExtension>
            <ns3:atemp>34.0</ns3:atemp>
            <ns3:hr>88</ns3:hr>
          </ns3:TrackPointExtension>
        </extensions>
      </trkpt>
      <trkpt lat="36.8103862367570400238037109375" lon="-118.54835140518844127655029296875">
        <ele>1765.199951171875</ele>
        <time>2021-06-28T18:36:17.000Z</time>
        <extensions>
          <ns3:TrackPointExtension>
            <ns3:atemp>34.0</ns3:atemp>
            <ns3:hr>88</ns3:hr>
          </ns3:TrackPointExtension>
        </extensions>
      </trkpt>
      <trkpt lat="36.8103248812258243560791015625" lon="-118.54839046485722064971923828125">
        <ele>1765.4000244140625</ele>
        <time>2021-06-28T18:36:23.000Z</time>
        <extensions>
          <ns3:TrackPointExtension>
            <ns3:atemp>34.0</ns3:atemp>
            <ns3:hr>87</ns3:hr>
          </ns3:TrackPointExtension>
        </extensions>
      </trkpt>
      <trkpt lat="36.8103138171136379241943359375" lon="-118.54838677681982517242431640625">
        <ele>1765.800048828125</ele>
        <time>2021-06-28T18:36:24.000Z</time>
        <extensions>
          <ns3:TrackPointExtension>
            <ns3:atemp>34.0</ns3:atemp>
            <ns3:hr>87</ns3:hr>
          </ns3:TrackPointExtension>
        </extensions>
      </trkpt>
      <trkpt lat="36.81026796810328960418701171875" lon="-118.54838225059211254119873046875">
        <ele>1765.5999755859375</ele>
        <time>2021-06-28T18:36:28.000Z</time>
        <extensions>
          <ns3:TrackPointExtension>
            <ns3:atemp>34.0</ns3:atemp>
            <ns3:hr>87</ns3:hr>
          </ns3:TrackPointExtension>
        </extensions>
      </trkpt>
      <trkpt lat="36.81025723926723003387451171875" lon="-118.54838325642049312591552734375">
        <ele>1764.5999755859375</ele>
        <time>2021-06-28T18:36:29.000Z</time>
        <extensions>
          <ns3:TrackPointExtension>
            <ns3:atemp>34.0</ns3:atemp>
            <ns3:hr>88</ns3:hr>
          </ns3:TrackPointExtension>
        </extensions>
      </trkpt>
      <trkpt lat="36.81022153235971927642822265625" lon="-118.5483493097126483917236328125">
        <ele>1764.4000244140625</ele>
        <time>2021-06-28T18:36:32.000Z</time>
        <extensions>
          <ns3:TrackPointExtension>
            <ns3:atemp>34.0</ns3:atemp>
            <ns3:hr>90</ns3:hr>
          </ns3:TrackPointExtension>
        </extensions>
      </trkpt>
      <trkpt lat="36.81020359508693218231201171875" lon="-118.54832709766924381256103515625">
        <ele>1764.4000244140625</ele>
        <time>2021-06-28T18:36:34.000Z</time>
        <extensions>
          <ns3:TrackPointExtension>
            <ns3:atemp>34.0</ns3:atemp>
            <ns3:hr>90</ns3:hr>
          </ns3:TrackPointExtension>
        </extensions>
      </trkpt>
      <trkpt lat="36.810156404972076416015625" lon="-118.54831234551966190338134765625">
        <ele>1764.199951171875</ele>
        <time>2021-06-28T18:36:37.000Z</time>
        <extensions>
          <ns3:TrackPointExtension>
            <ns3:atemp>34.0</ns3:atemp>
            <ns3:hr>91</ns3:hr>
          </ns3:TrackPointExtension>
        </extensions>
      </trkpt>
      <trkpt lat="36.8101223744451999664306640625" lon="-118.54829616844654083251953125">
        <ele>1764.199951171875</ele>
        <time>2021-06-28T18:36:40.000Z</time>
        <extensions>
          <ns3:TrackPointExtension>
            <ns3:atemp>34.0</ns3:atemp>
            <ns3:hr>91</ns3:hr>
          </ns3:TrackPointExtension>
        </extensions>
      </trkpt>
      <trkpt lat="36.8101076222956180572509765625" lon="-118.548303544521331787109375">
        <ele>1764</ele>
        <time>2021-06-28T18:36:42.000Z</time>
        <extensions>
          <ns3:TrackPointExtension>
            <ns3:atemp>34.0</ns3:atemp>
            <ns3:hr>91</ns3:hr>
          </ns3:TrackPointExtension>
        </extensions>
      </trkpt>
      <trkpt lat="36.810075603425502777099609375" lon="-118.54827697388827800750732421875">
        <ele>1764.199951171875</ele>
        <time>2021-06-28T18:36:45.000Z</time>
        <extensions>
          <ns3:TrackPointExtension>
            <ns3:atemp>34.0</ns3:atemp>
            <ns3:hr>90</ns3:hr>
          </ns3:TrackPointExtension>
        </extensions>
      </trkpt>
      <trkpt lat="36.81005741469562053680419921875" lon="-118.54824897833168506622314453125">
        <ele>1764.199951171875</ele>
        <time>2021-06-28T18:36:47.000Z</time>
        <extensions>
          <ns3:TrackPointExtension>
            <ns3:atemp>34.0</ns3:atemp>
            <ns3:hr>90</ns3:hr>
          </ns3:TrackPointExtension>
        </extensions>
      </trkpt>
      <trkpt lat="36.8100435845553874969482421875" lon="-118.54825794696807861328125">
        <ele>1764.199951171875</ele>
        <time>2021-06-28T18:36:51.000Z</time>
        <extensions>
          <ns3:TrackPointExtension>
            <ns3:atemp>34.0</ns3:atemp>
            <ns3:hr>90</ns3:hr>
          </ns3:TrackPointExtension>
        </extensions>
      </trkpt>
      <trkpt lat="36.81002455763518810272216796875" lon="-118.5482726991176605224609375">
        <ele>1764.199951171875</ele>
        <time>2021-06-28T18:37:04.000Z</time>
        <extensions>
          <ns3:TrackPointExtension>
            <ns3:atemp>34.0</ns3:atemp>
            <ns3:hr>88</ns3:hr>
          </ns3:TrackPointExtension>
        </extensions>
      </trkpt>
      <trkpt lat="36.8099748529493808746337890625" lon="-118.54830279015004634857177734375">
        <ele>1763.199951171875</ele>
        <time>2021-06-28T18:37:10.000Z</time>
        <extensions>
          <ns3:TrackPointExtension>
            <ns3:atemp>34.0</ns3:atemp>
            <ns3:hr>90</ns3:hr>
          </ns3:TrackPointExtension>
        </extensions>
      </trkpt>
      <trkpt lat="36.80993386544287204742431640625" lon="-118.54831469245254993438720703125">
        <ele>1763.199951171875</ele>
        <time>2021-06-28T18:37:15.000Z</time>
        <extensions>
          <ns3:TrackPointExtension>
            <ns3:atemp>34.0</ns3:atemp>
            <ns3:hr>90</ns3:hr>
          </ns3:TrackPointExtension>
        </extensions>
      </trkpt>
      <trkpt lat="36.80984987877309322357177734375" lon="-118.5483751259744167327880859375">
        <ele>1762</ele>
        <time>2021-06-28T18:37:21.000Z</time>
        <extensions>
          <ns3:TrackPointExtension>
            <ns3:atemp>34.0</ns3:atemp>
            <ns3:hr>88</ns3:hr>
          </ns3:TrackPointExtension>
        </extensions>
      </trkpt>
      <trkpt lat="36.80983227677643299102783203125" lon="-118.54838912375271320343017578125">
        <ele>1762</ele>
        <time>2021-06-28T18:37:22.000Z</time>
        <extensions>
          <ns3:TrackPointExtension>
            <ns3:atemp>34.0</ns3:atemp>
            <ns3:hr>88</ns3:hr>
          </ns3:TrackPointExtension>
        </extensions>
      </trkpt>
      <trkpt lat="36.80980461649596691131591796875" lon="-118.5483828373253345489501953125">
        <ele>1762</ele>
        <time>2021-06-28T18:37:25.000Z</time>
        <extensions>
          <ns3:TrackPointExtension>
            <ns3:atemp>34.0</ns3:atemp>
            <ns3:hr>88</ns3:hr>
          </ns3:TrackPointExtension>
        </extensions>
      </trkpt>
      <trkpt lat="36.8097847513854503631591796875" lon="-118.54840605519711971282958984375">
        <ele>1762.199951171875</ele>
        <time>2021-06-28T18:37:28.000Z</time>
        <extensions>
          <ns3:TrackPointExtension>
            <ns3:atemp>34.0</ns3:atemp>
            <ns3:hr>89</ns3:hr>
          </ns3:TrackPointExtension>
        </extensions>
      </trkpt>
      <trkpt lat="36.80972993373870849609375" lon="-118.548432625830173492431640625">
        <ele>1762.199951171875</ele>
        <time>2021-06-28T18:37:33.000Z</time>
        <extensions>
          <ns3:TrackPointExtension>
            <ns3:atemp>34.0</ns3:atemp>
            <ns3:hr>92</ns3:hr>
          </ns3:TrackPointExtension>
        </extensions>
      </trkpt>
      <trkpt lat="36.80969548411667346954345703125" lon="-118.54846489615738391876220703125">
        <ele>1762.4000244140625</ele>
        <time>2021-06-28T18:37:37.000Z</time>
        <extensions>
          <ns3:TrackPointExtension>
            <ns3:atemp>34.0</ns3:atemp>
            <ns3:hr>93</ns3:hr>
          </ns3:TrackPointExtension>
        </extensions>
      </trkpt>
      <trkpt lat="36.80967134423553943634033203125" lon="-118.54848635382950305938720703125">
        <ele>1762.4000244140625</ele>
        <time>2021-06-28T18:37:40.000Z</time>
        <extensions>
          <ns3:TrackPointExtension>
            <ns3:atemp>34.0</ns3:atemp>
            <ns3:hr>94</ns3:hr>
          </ns3:TrackPointExtension>
        </extensions>
      </trkpt>
      <trkpt lat="36.80964116938412189483642578125" lon="-118.5484753735363483428955078125">
        <ele>1762</ele>
        <time>2021-06-28T18:37:43.000Z</time>
        <extensions>
          <ns3:TrackPointExtension>
            <ns3:atemp>34.0</ns3:atemp>
            <ns3:hr>93</ns3:hr>
          </ns3:TrackPointExtension>
        </extensions>
      </trkpt>
      <trkpt lat="36.80961786769330501556396484375" lon="-118.548463471233844757080078125">
        <ele>1761.5999755859375</ele>
        <time>2021-06-28T18:37:47.000Z</time>
        <extensions>
          <ns3:TrackPointExtension>
            <ns3:atemp>34.0</ns3:atemp>
            <ns3:hr>92</ns3:hr>
          </ns3:TrackPointExtension>
        </extensions>
      </trkpt>
      <trkpt lat="36.809616945683956146240234375" lon="-118.5484515689313411712646484375">
        <ele>1761.4000244140625</ele>
        <time>2021-06-28T18:37:48.000Z</time>
        <extensions>
          <ns3:TrackPointExtension>
            <ns3:atemp>34.0</ns3:atemp>
            <ns3:hr>89</ns3:hr>
          </ns3:TrackPointExtension>
        </extensions>
      </trkpt>
      <trkpt lat="36.80961300618946552276611328125" lon="-118.54843832552433013916015625">
        <ele>1761.4000244140625</ele>
        <time>2021-06-28T18:37:49.000Z</time>
        <extensions>
          <ns3:TrackPointExtension>
            <ns3:atemp>34.0</ns3:atemp>
            <ns3:hr>87</ns3:hr>
          </ns3:TrackPointExtension>
        </extensions>
      </trkpt>
      <trkpt lat="36.80960847996175289154052734375" lon="-118.54842751286923885345458984375">
        <ele>1761</ele>
        <time>2021-06-28T18:37:50.000Z</time>
        <extensions>
          <ns3:TrackPointExtension>
            <ns3:atemp>34.0</ns3:atemp>
            <ns3:hr>85</ns3:hr>
          </ns3:TrackPointExtension>
        </extensions>
      </trkpt>
      <trkpt lat="36.809600181877613067626953125" lon="-118.5484140180051326751708984375">
        <ele>1760.800048828125</ele>
        <time>2021-06-28T18:37:51.000Z</time>
        <extensions>
          <ns3:TrackPointExtension>
            <ns3:atemp>34.0</ns3:atemp>
            <ns3:hr>82</ns3:hr>
          </ns3:TrackPointExtension>
        </extensions>
      </trkpt>
      <trkpt lat="36.80959423072636127471923828125" lon="-118.5484143532812595367431640625">
        <ele>1760.4000244140625</ele>
        <time>2021-06-28T18:37:53.000Z</time>
        <extensions>
          <ns3:TrackPointExtension>
            <ns3:atemp>34.0</ns3:atemp>
            <ns3:hr>79</ns3:hr>
          </ns3:TrackPointExtension>
        </extensions>
      </trkpt>
      <trkpt lat="36.8095879442989826202392578125" lon="-118.54839717037975788116455078125">
        <ele>1760.199951171875</ele>
        <time>2021-06-28T18:37:56.000Z</time>
        <extensions>
          <ns3:TrackPointExtension>
            <ns3:atemp>34.0</ns3:atemp>
            <ns3:hr>79</ns3:hr>
          </ns3:TrackPointExtension>
        </extensions>
      </trkpt>
      <trkpt lat="36.8095859326422214508056640625" lon="-118.54838828556239604949951171875">
        <ele>1760.199951171875</ele>
        <time>2021-06-28T18:37:57.000Z</time>
        <extensions>
          <ns3:TrackPointExtension>
            <ns3:atemp>34.0</ns3:atemp>
            <ns3:hr>78</ns3:hr>
          </ns3:TrackPointExtension>
        </extensions>
      </trkpt>
      <trkpt lat="36.80957914330065250396728515625" lon="-118.5483791492879390716552734375">
        <ele>1760</ele>
        <time>2021-06-28T18:37:58.000Z</time>
        <extensions>
          <ns3:TrackPointExtension>
            <ns3:atemp>34.0</ns3:atemp>
            <ns3:hr>82</ns3:hr>
          </ns3:TrackPointExtension>
        </extensions>
      </trkpt>
      <trkpt lat="36.809575371444225311279296875" lon="-118.54836364276707172393798828125">
        <ele>1760</ele>
        <time>2021-06-28T18:37:59.000Z</time>
        <extensions>
          <ns3:TrackPointExtension>
            <ns3:atemp>34.0</ns3:atemp>
            <ns3:hr>78</ns3:hr>
          </ns3:TrackPointExtension>
        </extensions>
      </trkpt>
      <trkpt lat="36.809570007026195526123046875" lon="-118.5483523271977901458740234375">
        <ele>1759.800048828125</ele>
        <time>2021-06-28T18:38:01.000Z</time>
        <extensions>
          <ns3:TrackPointExtension>
            <ns3:atemp>34.0</ns3:atemp>
            <ns3:hr>78</ns3:hr>
          </ns3:TrackPointExtension>
        </extensions>
      </trkpt>
      <trkpt lat="36.8095668219029903411865234375" lon="-118.5483503155410289764404296875">
        <ele>1759.199951171875</ele>
        <time>2021-06-28T18:38:02.000Z</time>
        <extensions>
          <ns3:TrackPointExtension>
            <ns3:atemp>34.0</ns3:atemp>
            <ns3:hr>78</ns3:hr>
          </ns3:TrackPointExtension>
        </extensions>
      </trkpt>
      <trkpt lat="36.8095634691417217254638671875" lon="-118.548348136246204376220703125">
        <ele>1759.199951171875</ele>
        <time>2021-06-28T18:38:03.000Z</time>
        <extensions>
          <ns3:TrackPointExtension>
            <ns3:atemp>34.0</ns3:atemp>
            <ns3:hr>77</ns3:hr>
          </ns3:TrackPointExtension>
        </extensions>
      </trkpt>
      <trkpt lat="36.809559278190135955810546875" lon="-118.54834436438977718353271484375">
        <ele>1758.800048828125</ele>
        <time>2021-06-28T18:38:04.000Z</time>
        <extensions>
          <ns3:TrackPointExtension>
            <ns3:atemp>34.0</ns3:atemp>
            <ns3:hr>74</ns3:hr>
          </ns3:TrackPointExtension>
        </extensions>
      </trkpt>
      <trkpt lat="36.80955626070499420166015625" lon="-118.5483372397720813751220703125">
        <ele>1758.199951171875</ele>
        <time>2021-06-28T18:38:05.000Z</time>
        <extensions>
          <ns3:TrackPointExtension>
            <ns3:atemp>34.0</ns3:atemp>
            <ns3:hr>75</ns3:hr>
          </ns3:TrackPointExtension>
        </extensions>
      </trkpt>
      <trkpt lat="36.8095507286489009857177734375" lon="-118.5483295284211635589599609375">
        <ele>1758.199951171875</ele>
        <time>2021-06-28T18:38:06.000Z</time>
        <extensions>
          <ns3:TrackPointExtension>
            <ns3:atemp>34.0</ns3:atemp>
            <ns3:hr>79</ns3:hr>
          </ns3:TrackPointExtension>
        </extensions>
      </trkpt>
      <trkpt lat="36.80954393930733203887939453125" lon="-118.54829357005655765533447265625">
        <ele>1757</ele>
        <time>2021-06-28T18:38:09.000Z</time>
        <extensions>
          <ns3:TrackPointExtension>
            <ns3:atemp>34.0</ns3:atemp>
            <ns3:hr>82</ns3:hr>
          </ns3:TrackPointExtension>
        </extensions>
      </trkpt>
      <trkpt lat="36.809540502727031707763671875" lon="-118.54827714152634143829345703125">
        <ele>1756.800048828125</ele>
        <time>2021-06-28T18:38:10.000Z</time>
        <extensions>
          <ns3:TrackPointExtension>
            <ns3:atemp>34.0</ns3:atemp>
            <ns3:hr>83</ns3:hr>
          </ns3:TrackPointExtension>
        </extensions>
      </trkpt>
      <trkpt lat="36.80952818132936954498291015625" lon="-118.54824176989495754241943359375">
        <ele>1756.199951171875</ele>
        <time>2021-06-28T18:38:13.000Z</time>
        <extensions>
          <ns3:TrackPointExtension>
            <ns3:atemp>34.0</ns3:atemp>
            <ns3:hr>86</ns3:hr>
          </ns3:TrackPointExtension>
        </extensions>
      </trkpt>
      <trkpt lat="36.80952005088329315185546875" lon="-118.54822232387959957122802734375">
        <ele>1756</ele>
        <time>2021-06-28T18:38:17.000Z</time>
        <extensions>
          <ns3:TrackPointExtension>
            <ns3:atemp>34.0</ns3:atemp>
            <ns3:hr>86</ns3:hr>
          </ns3:TrackPointExtension>
        </extensions>
      </trkpt>
      <trkpt lat="36.80948258377611637115478515625" lon="-118.548159711062908172607421875">
        <ele>1755.4000244140625</ele>
        <time>2021-06-28T18:38:21.000Z</time>
        <extensions>
          <ns3:TrackPointExtension>
            <ns3:atemp>34.0</ns3:atemp>
            <ns3:hr>84</ns3:hr>
          </ns3:TrackPointExtension>
        </extensions>
      </trkpt>
      <trkpt lat="36.80947118438780307769775390625" lon="-118.54815669357776641845703125">
        <ele>1755</ele>
        <time>2021-06-28T18:38:22.000Z</time>
        <extensions>
          <ns3:TrackPointExtension>
            <ns3:atemp>34.0</ns3:atemp>
            <ns3:hr>84</ns3:hr>
          </ns3:TrackPointExtension>
        </extensions>
      </trkpt>
      <trkpt lat="36.80945123545825481414794921875" lon="-118.54815258644521236419677734375">
        <ele>1754.800048828125</ele>
        <time>2021-06-28T18:38:24.000Z</time>
        <extensions>
          <ns3:TrackPointExtension>
            <ns3:atemp>34.0</ns3:atemp>
            <ns3:hr>84</ns3:hr>
          </ns3:TrackPointExtension>
        </extensions>
      </trkpt>
      <trkpt lat="36.8094444461166858673095703125" lon="-118.5481424443423748016357421875">
        <ele>1754.800048828125</ele>
        <time>2021-06-28T18:38:25.000Z</time>
        <extensions>
          <ns3:TrackPointExtension>
            <ns3:atemp>34.0</ns3:atemp>
            <ns3:hr>85</ns3:hr>
          </ns3:TrackPointExtension>
        </extensions>
      </trkpt>
      <trkpt lat="36.8094266764819622039794921875" lon="-118.54813255369663238525390625">
        <ele>1754.5999755859375</ele>
        <time>2021-06-28T18:38:27.000Z</time>
        <extensions>
          <ns3:TrackPointExtension>
            <ns3:atemp>34.0</ns3:atemp>
            <ns3:hr>84</ns3:hr>
          </ns3:TrackPointExtension>
        </extensions>
      </trkpt>
      <trkpt lat="36.8094166181981563568115234375" lon="-118.548127524554729461669921875">
        <ele>1754.5999755859375</ele>
        <time>2021-06-28T18:38:28.000Z</time>
        <extensions>
          <ns3:TrackPointExtension>
            <ns3:atemp>34.0</ns3:atemp>
            <ns3:hr>85</ns3:hr>
          </ns3:TrackPointExtension>
        </extensions>
      </trkpt>
      <trkpt lat="36.80939842946827411651611328125" lon="-118.5481283627450466156005859375">
        <ele>1754.5999755859375</ele>
        <time>2021-06-28T18:38:30.000Z</time>
        <extensions>
          <ns3:TrackPointExtension>
            <ns3:atemp>34.0</ns3:atemp>
            <ns3:hr>84</ns3:hr>
          </ns3:TrackPointExtension>
        </extensions>
      </trkpt>
      <trkpt lat="36.809360794723033905029296875" lon="-118.54813992977142333984375">
        <ele>1754.199951171875</ele>
        <time>2021-06-28T18:38:34.000Z</time>
        <extensions>
          <ns3:TrackPointExtension>
            <ns3:atemp>34.0</ns3:atemp>
            <ns3:hr>81</ns3:hr>
          </ns3:TrackPointExtension>
        </extensions>
      </trkpt>
      <trkpt lat="36.8093505688011646270751953125" lon="-118.548139594495296478271484375">
        <ele>1754</ele>
        <time>2021-06-28T18:38:35.000Z</time>
        <extensions>
          <ns3:TrackPointExtension>
            <ns3:atemp>34.0</ns3:atemp>
            <ns3:hr>83</ns3:hr>
          </ns3:TrackPointExtension>
        </extensions>
      </trkpt>
      <trkpt lat="36.8093126825988292694091796875" lon="-118.54811017401516437530517578125">
        <ele>1753.199951171875</ele>
        <time>2021-06-28T18:38:39.000Z</time>
        <extensions>
          <ns3:TrackPointExtension>
            <ns3:atemp>34.0</ns3:atemp>
            <ns3:hr>84</ns3:hr>
          </ns3:TrackPointExtension>
        </extensions>
      </trkpt>
      <trkpt lat="36.8092913925647735595703125" lon="-118.54809240438044071197509765625">
        <ele>1753</ele>
        <time>2021-06-28T18:38:41.000Z</time>
        <extensions>
          <ns3:TrackPointExtension>
            <ns3:atemp>34.0</ns3:atemp>
            <ns3:hr>84</ns3:hr>
          </ns3:TrackPointExtension>
        </extensions>
      </trkpt>
      <trkpt lat="36.80924705229699611663818359375" lon="-118.54801612906157970428466796875">
        <ele>1753</ele>
        <time>2021-06-28T18:38:45.000Z</time>
        <extensions>
          <ns3:TrackPointExtension>
            <ns3:atemp>34.0</ns3:atemp>
            <ns3:hr>82</ns3:hr>
          </ns3:TrackPointExtension>
        </extensions>
      </trkpt>
      <trkpt lat="36.8092335574328899383544921875" lon="-118.547994084656238555908203125">
        <ele>1752.4000244140625</ele>
        <time>2021-06-28T18:38:46.000Z</time>
        <extensions>
          <ns3:TrackPointExtension>
            <ns3:atemp>34.0</ns3:atemp>
            <ns3:hr>82</ns3:hr>
          </ns3:TrackPointExtension>
        </extensions>
      </trkpt>
      <trkpt lat="36.8092053942382335662841796875" lon="-118.5479657538235187530517578125">
        <ele>1752.199951171875</ele>
        <time>2021-06-28T18:38:49.000Z</time>
        <extensions>
          <ns3:TrackPointExtension>
            <ns3:atemp>34.0</ns3:atemp>
            <ns3:hr>79</ns3:hr>
          </ns3:TrackPointExtension>
        </extensions>
      </trkpt>
      <trkpt lat="36.8091993592679500579833984375" lon="-118.54795225895941257476806640625">
        <ele>1752.199951171875</ele>
        <time>2021-06-28T18:38:51.000Z</time>
        <extensions>
          <ns3:TrackPointExtension>
            <ns3:atemp>34.0</ns3:atemp>
            <ns3:hr>77</ns3:hr>
          </ns3:TrackPointExtension>
        </extensions>
      </trkpt>
      <trkpt lat="36.80919424630701541900634765625" lon="-118.54794203303754329681396484375">
        <ele>1752.199951171875</ele>
        <time>2021-06-28T18:38:52.000Z</time>
        <extensions>
          <ns3:TrackPointExtension>
            <ns3:atemp>34.0</ns3:atemp>
            <ns3:hr>76</ns3:hr>
          </ns3:TrackPointExtension>
        </extensions>
      </trkpt>
      <trkpt lat="36.8091681785881519317626953125" lon="-118.547905571758747100830078125">
        <ele>1751.4000244140625</ele>
        <time>2021-06-28T18:38:56.000Z</time>
        <extensions>
          <ns3:TrackPointExtension>
            <ns3:atemp>34.0</ns3:atemp>
            <ns3:hr>77</ns3:hr>
          </ns3:TrackPointExtension>
        </extensions>
      </trkpt>
      <trkpt lat="36.80915501900017261505126953125" lon="-118.54789207689464092254638671875">
        <ele>1751.199951171875</ele>
        <time>2021-06-28T18:38:57.000Z</time>
        <extensions>
          <ns3:TrackPointExtension>
            <ns3:atemp>34.0</ns3:atemp>
            <ns3:hr>78</ns3:hr>
          </ns3:TrackPointExtension>
        </extensions>
      </trkpt>
      <trkpt lat="36.8090877123177051544189453125" lon="-118.54785787872970104217529296875">
        <ele>1750.4000244140625</ele>
        <time>2021-06-28T18:39:02.000Z</time>
        <extensions>
          <ns3:TrackPointExtension>
            <ns3:atemp>34.0</ns3:atemp>
            <ns3:hr>77</ns3:hr>
          </ns3:TrackPointExtension>
        </extensions>
      </trkpt>
      <trkpt lat="36.8090732954442501068115234375" lon="-118.54784564115107059478759765625">
        <ele>1750.4000244140625</ele>
        <time>2021-06-28T18:39:03.000Z</time>
        <extensions>
          <ns3:TrackPointExtension>
            <ns3:atemp>34.0</ns3:atemp>
            <ns3:hr>76</ns3:hr>
          </ns3:TrackPointExtension>
        </extensions>
      </trkpt>
      <trkpt lat="36.80905041284859180450439453125" lon="-118.54785670526325702667236328125">
        <ele>1750.4000244140625</ele>
        <time>2021-06-28T18:39:06.000Z</time>
        <extensions>
          <ns3:TrackPointExtension>
            <ns3:atemp>34.0</ns3:atemp>
            <ns3:hr>76</ns3:hr>
          </ns3:TrackPointExtension>
        </extensions>
      </trkpt>
      <trkpt lat="36.80904773063957691192626953125" lon="-118.547863997519016265869140625">
        <ele>1750.5999755859375</ele>
        <time>2021-06-28T18:39:07.000Z</time>
        <extensions>
          <ns3:TrackPointExtension>
            <ns3:atemp>34.0</ns3:atemp>
            <ns3:hr>75</ns3:hr>
          </ns3:TrackPointExtension>
        </extensions>
      </trkpt>
      <trkpt lat="36.80904370732605457305908203125" lon="-118.54788176715373992919921875">
        <ele>1750.4000244140625</ele>
        <time>2021-06-28T18:39:14.000Z</time>
        <extensions>
          <ns3:TrackPointExtension>
            <ns3:atemp>34.0</ns3:atemp>
            <ns3:hr>77</ns3:hr>
          </ns3:TrackPointExtension>
        </extensions>
      </trkpt>
      <trkpt lat="36.8090419471263885498046875" lon="-118.54788403026759624481201171875">
        <ele>1750.4000244140625</ele>
        <time>2021-06-28T18:39:15.000Z</time>
        <extensions>
          <ns3:TrackPointExtension>
            <ns3:atemp>34.0</ns3:atemp>
            <ns3:hr>77</ns3:hr>
          </ns3:TrackPointExtension>
        </extensions>
      </trkpt>
      <trkpt lat="36.80905778892338275909423828125" lon="-118.54782552458345890045166015625">
        <ele>1750.4000244140625</ele>
        <time>2021-06-28T18:39:24.000Z</time>
        <extensions>
          <ns3:TrackPointExtension>
            <ns3:atemp>34.0</ns3:atemp>
            <ns3:hr>78</ns3:hr>
          </ns3:TrackPointExtension>
        </extensions>
      </trkpt>
      <trkpt lat="36.809013448655605316162109375" lon="-118.54779484681785106658935546875">
        <ele>1750.5999755859375</ele>
        <time>2021-06-28T18:39:31.000Z</time>
        <extensions>
          <ns3:TrackPointExtension>
            <ns3:atemp>34.0</ns3:atemp>
            <ns3:hr>80</ns3:hr>
          </ns3:TrackPointExtension>
        </extensions>
      </trkpt>
      <trkpt lat="36.8089656718075275421142578125" lon="-118.54778881184756755828857421875">
        <ele>1750.4000244140625</ele>
        <time>2021-06-28T18:39:37.000Z</time>
        <extensions>
          <ns3:TrackPointExtension>
            <ns3:atemp>34.0</ns3:atemp>
            <ns3:hr>80</ns3:hr>
          </ns3:TrackPointExtension>
        </extensions>
      </trkpt>
      <trkpt lat="36.80895812809467315673828125" lon="-118.5477877222001552581787109375">
        <ele>1750.199951171875</ele>
        <time>2021-06-28T18:39:38.000Z</time>
        <extensions>
          <ns3:TrackPointExtension>
            <ns3:atemp>34.0</ns3:atemp>
            <ns3:hr>80</ns3:hr>
          </ns3:TrackPointExtension>
        </extensions>
      </trkpt>
      <trkpt lat="36.8089244328439235687255859375" lon="-118.54778512381017208099365234375">
        <ele>1750.4000244140625</ele>
        <time>2021-06-28T18:39:41.000Z</time>
        <extensions>
          <ns3:TrackPointExtension>
            <ns3:atemp>34.0</ns3:atemp>
            <ns3:hr>82</ns3:hr>
          </ns3:TrackPointExtension>
        </extensions>
      </trkpt>
      <trkpt lat="36.80888093076646327972412109375" lon="-118.54777188040316104888916015625">
        <ele>1750.4000244140625</ele>
        <time>2021-06-28T18:39:44.000Z</time>
        <extensions>
          <ns3:TrackPointExtension>
            <ns3:atemp>34.0</ns3:atemp>
            <ns3:hr>81</ns3:hr>
          </ns3:TrackPointExtension>
        </extensions>
      </trkpt>
      <trkpt lat="36.80883340537548065185546875" lon="-118.5477684438228607177734375">
        <ele>1749.5999755859375</ele>
        <time>2021-06-28T18:39:48.000Z</time>
        <extensions>
          <ns3:TrackPointExtension>
            <ns3:atemp>34.0</ns3:atemp>
            <ns3:hr>80</ns3:hr>
          </ns3:TrackPointExtension>
        </extensions>
      </trkpt>
      <trkpt lat="36.80881597101688385009765625" lon="-118.547772802412509918212890625">
        <ele>1749.5999755859375</ele>
        <time>2021-06-28T18:39:50.000Z</time>
        <extensions>
          <ns3:TrackPointExtension>
            <ns3:atemp>34.0</ns3:atemp>
            <ns3:hr>80</ns3:hr>
          </ns3:TrackPointExtension>
        </extensions>
      </trkpt>
      <trkpt lat="36.80879308842122554779052734375" lon="-118.54774505831301212310791015625">
        <ele>1749.4000244140625</ele>
        <time>2021-06-28T18:39:52.000Z</time>
        <extensions>
          <ns3:TrackPointExtension>
            <ns3:atemp>34.0</ns3:atemp>
            <ns3:hr>80</ns3:hr>
          </ns3:TrackPointExtension>
        </extensions>
      </trkpt>
      <trkpt lat="36.808756627142429351806640625" lon="-118.54771303944289684295654296875">
        <ele>1749</ele>
        <time>2021-06-28T18:39:55.000Z</time>
        <extensions>
          <ns3:TrackPointExtension>
            <ns3:atemp>34.0</ns3:atemp>
            <ns3:hr>80</ns3:hr>
          </ns3:TrackPointExtension>
        </extensions>
      </trkpt>
      <trkpt lat="36.808729469776153564453125" lon="-118.54771588928997516632080078125">
        <ele>1748.4000244140625</ele>
        <time>2021-06-28T18:39:57.000Z</time>
        <extensions>
          <ns3:TrackPointExtension>
            <ns3:atemp>34.0</ns3:atemp>
            <ns3:hr>83</ns3:hr>
          </ns3:TrackPointExtension>
        </extensions>
      </trkpt>
      <trkpt lat="36.80871798656880855560302734375" lon="-118.5477230139076709747314453125">
        <ele>1748.4000244140625</ele>
        <time>2021-06-28T18:39:58.000Z</time>
        <extensions>
          <ns3:TrackPointExtension>
            <ns3:atemp>34.0</ns3:atemp>
            <ns3:hr>81</ns3:hr>
          </ns3:TrackPointExtension>
        </extensions>
      </trkpt>
      <trkpt lat="36.8087071739137172698974609375" lon="-118.54772745631635189056396484375">
        <ele>1748.4000244140625</ele>
        <time>2021-06-28T18:39:59.000Z</time>
        <extensions>
          <ns3:TrackPointExtension>
            <ns3:atemp>34.0</ns3:atemp>
            <ns3:hr>81</ns3:hr>
          </ns3:TrackPointExtension>
        </extensions>
      </trkpt>
      <trkpt lat="36.80869585834443569183349609375" lon="-118.54772661812603473663330078125">
        <ele>1748.4000244140625</ele>
        <time>2021-06-28T18:40:00.000Z</time>
        <extensions>
          <ns3:TrackPointExtension>
            <ns3:atemp>34.0</ns3:atemp>
            <ns3:hr>79</ns3:hr>
          </ns3:TrackPointExtension>
        </extensions>
      </trkpt>
      <trkpt lat="36.80866467766463756561279296875" lon="-118.547735251486301422119140625">
        <ele>1748.199951171875</ele>
        <time>2021-06-28T18:40:02.000Z</time>
        <extensions>
          <ns3:TrackPointExtension>
            <ns3:atemp>34.0</ns3:atemp>
            <ns3:hr>79</ns3:hr>
          </ns3:TrackPointExtension>
        </extensions>
      </trkpt>
      <trkpt lat="36.8086505122482776641845703125" lon="-118.54773826897144317626953125">
        <ele>1748</ele>
        <time>2021-06-28T18:40:03.000Z</time>
        <extensions>
          <ns3:TrackPointExtension>
            <ns3:atemp>34.0</ns3:atemp>
            <ns3:hr>79</ns3:hr>
          </ns3:TrackPointExtension>
        </extensions>
      </trkpt>
      <trkpt lat="36.8086136318743228912353515625" lon="-118.54774254374206066131591796875">
        <ele>1747.199951171875</ele>
        <time>2021-06-28T18:40:06.000Z</time>
        <extensions>
          <ns3:TrackPointExtension>
            <ns3:atemp>34.0</ns3:atemp>
            <ns3:hr>79</ns3:hr>
          </ns3:TrackPointExtension>
        </extensions>
      </trkpt>
      <trkpt lat="36.808588989078998565673828125" lon="-118.54774069972336292266845703125">
        <ele>1747.199951171875</ele>
        <time>2021-06-28T18:40:08.000Z</time>
        <extensions>
          <ns3:TrackPointExtension>
            <ns3:atemp>34.0</ns3:atemp>
            <ns3:hr>79</ns3:hr>
          </ns3:TrackPointExtension>
        </extensions>
      </trkpt>
      <trkpt lat="36.80853299796581268310546875" lon="-118.54770742356777191162109375">
        <ele>1746.5999755859375</ele>
        <time>2021-06-28T18:40:13.000Z</time>
        <extensions>
          <ns3:TrackPointExtension>
            <ns3:atemp>34.0</ns3:atemp>
            <ns3:hr>78</ns3:hr>
          </ns3:TrackPointExtension>
        </extensions>
      </trkpt>
      <trkpt lat="36.80850810371339321136474609375" lon="-118.54768839664757251739501953125">
        <ele>1746.5999755859375</ele>
        <time>2021-06-28T18:40:15.000Z</time>
        <extensions>
          <ns3:TrackPointExtension>
            <ns3:atemp>34.0</ns3:atemp>
            <ns3:hr>78</ns3:hr>
          </ns3:TrackPointExtension>
        </extensions>
      </trkpt>
      <trkpt lat="36.8084728159010410308837890625" lon="-118.54766911827027797698974609375">
        <ele>1746.5999755859375</ele>
        <time>2021-06-28T18:40:18.000Z</time>
        <extensions>
          <ns3:TrackPointExtension>
            <ns3:atemp>34.0</ns3:atemp>
            <ns3:hr>77</ns3:hr>
          </ns3:TrackPointExtension>
        </extensions>
      </trkpt>
      <trkpt lat="36.8084496818482875823974609375" lon="-118.5476619936525821685791015625">
        <ele>1746</ele>
        <time>2021-06-28T18:40:20.000Z</time>
        <extensions>
          <ns3:TrackPointExtension>
            <ns3:atemp>34.0</ns3:atemp>
            <ns3:hr>76</ns3:hr>
          </ns3:TrackPointExtension>
        </extensions>
      </trkpt>
      <trkpt lat="36.80844138376414775848388671875" lon="-118.5476536117494106292724609375">
        <ele>1746</ele>
        <time>2021-06-28T18:40:21.000Z</time>
        <extensions>
          <ns3:TrackPointExtension>
            <ns3:atemp>34.0</ns3:atemp>
            <ns3:hr>77</ns3:hr>
          </ns3:TrackPointExtension>
        </extensions>
      </trkpt>
      <trkpt lat="36.80842428468167781829833984375" lon="-118.5476624965667724609375">
        <ele>1745.800048828125</ele>
        <time>2021-06-28T18:40:23.000Z</time>
        <extensions>
          <ns3:TrackPointExtension>
            <ns3:atemp>34.0</ns3:atemp>
            <ns3:hr>75</ns3:hr>
          </ns3:TrackPointExtension>
        </extensions>
      </trkpt>
      <trkpt lat="36.80840383283793926239013671875" lon="-118.5476368479430675506591796875">
        <ele>1745.199951171875</ele>
        <time>2021-06-28T18:40:26.000Z</time>
        <extensions>
          <ns3:TrackPointExtension>
            <ns3:atemp>34.0</ns3:atemp>
            <ns3:hr>77</ns3:hr>
          </ns3:TrackPointExtension>
        </extensions>
      </trkpt>
      <trkpt lat="36.80839620530605316162109375" lon="-118.547627627849578857421875">
        <ele>1745.199951171875</ele>
        <time>2021-06-28T18:40:27.000Z</time>
        <extensions>
          <ns3:TrackPointExtension>
            <ns3:atemp>34.0</ns3:atemp>
            <ns3:hr>77</ns3:hr>
          </ns3:TrackPointExtension>
        </extensions>
      </trkpt>
      <trkpt lat="36.80837147869169712066650390625" lon="-118.5476281307637691497802734375">
        <ele>1744.5999755859375</ele>
        <time>2021-06-28T18:40:31.000Z</time>
        <extensions>
          <ns3:TrackPointExtension>
            <ns3:atemp>34.0</ns3:atemp>
            <ns3:hr>77</ns3:hr>
          </ns3:TrackPointExtension>
        </extensions>
      </trkpt>
      <trkpt lat="36.80836401879787445068359375" lon="-118.54762368835508823394775390625">
        <ele>1744.5999755859375</ele>
        <time>2021-06-28T18:40:32.000Z</time>
        <extensions>
          <ns3:TrackPointExtension>
            <ns3:atemp>34.0</ns3:atemp>
            <ns3:hr>77</ns3:hr>
          </ns3:TrackPointExtension>
        </extensions>
      </trkpt>
      <trkpt lat="36.8083618395030498504638671875" lon="-118.54762016795575618743896484375">
        <ele>1744.199951171875</ele>
        <time>2021-06-28T18:40:33.000Z</time>
        <extensions>
          <ns3:TrackPointExtension>
            <ns3:atemp>34.0</ns3:atemp>
            <ns3:hr>78</ns3:hr>
          </ns3:TrackPointExtension>
        </extensions>
      </trkpt>
      <trkpt lat="36.80836125276982784271240234375" lon="-118.54757440276443958282470703125">
        <ele>1743.800048828125</ele>
        <time>2021-06-28T18:40:38.000Z</time>
        <extensions>
          <ns3:TrackPointExtension>
            <ns3:atemp>34.0</ns3:atemp>
            <ns3:hr>78</ns3:hr>
          </ns3:TrackPointExtension>
        </extensions>
      </trkpt>
      <trkpt lat="36.80835940875113010406494140625" lon="-118.54755981825292110443115234375">
        <ele>1743.5999755859375</ele>
        <time>2021-06-28T18:40:41.000Z</time>
        <extensions>
          <ns3:TrackPointExtension>
            <ns3:atemp>34.0</ns3:atemp>
            <ns3:hr>79</ns3:hr>
          </ns3:TrackPointExtension>
        </extensions>
      </trkpt>
      <trkpt lat="36.80834281258285045623779296875" lon="-118.5475553758442401885986328125">
        <ele>1743.199951171875</ele>
        <time>2021-06-28T18:40:44.000Z</time>
        <extensions>
          <ns3:TrackPointExtension>
            <ns3:atemp>34.0</ns3:atemp>
            <ns3:hr>80</ns3:hr>
          </ns3:TrackPointExtension>
        </extensions>
      </trkpt>
      <trkpt lat="36.80830375291407108306884765625" lon="-118.5475270450115203857421875">
        <ele>1743</ele>
        <time>2021-06-28T18:40:49.000Z</time>
        <extensions>
          <ns3:TrackPointExtension>
            <ns3:atemp>34.0</ns3:atemp>
            <ns3:hr>82</ns3:hr>
          </ns3:TrackPointExtension>
        </extensions>
      </trkpt>
      <trkpt lat="36.8082803674042224884033203125" lon="-118.547511957585811614990234375">
        <ele>1742.4000244140625</ele>
        <time>2021-06-28T18:40:52.000Z</time>
        <extensions>
          <ns3:TrackPointExtension>
            <ns3:atemp>34.0</ns3:atemp>
            <ns3:hr>84</ns3:hr>
          </ns3:TrackPointExtension>
        </extensions>
      </trkpt>
      <trkpt lat="36.80824491195380687713623046875" lon="-118.5475010611116886138916015625">
        <ele>1741.5999755859375</ele>
        <time>2021-06-28T18:40:56.000Z</time>
        <extensions>
          <ns3:TrackPointExtension>
            <ns3:atemp>35.0</ns3:atemp>
            <ns3:hr>86</ns3:hr>
          </ns3:TrackPointExtension>
        </extensions>
      </trkpt>
      <trkpt lat="36.8082126416265964508056640625" lon="-118.54745202697813510894775390625">
        <ele>1741.199951171875</ele>
        <time>2021-06-28T18:40:59.000Z</time>
        <extensions>
          <ns3:TrackPointExtension>
            <ns3:atemp>35.0</ns3:atemp>
            <ns3:hr>89</ns3:hr>
          </ns3:TrackPointExtension>
        </extensions>
      </trkpt>
      <trkpt lat="36.8082050979137420654296875" lon="-118.5474353469908237457275390625">
        <ele>1741</ele>
        <time>2021-06-28T18:41:01.000Z</time>
        <extensions>
          <ns3:TrackPointExtension>
            <ns3:atemp>35.0</ns3:atemp>
            <ns3:hr>89</ns3:hr>
          </ns3:TrackPointExtension>
        </extensions>
      </trkpt>
      <trkpt lat="36.80818992666900157928466796875" lon="-118.5474222712218761444091796875">
        <ele>1741</ele>
        <time>2021-06-28T18:41:03.000Z</time>
        <extensions>
          <ns3:TrackPointExtension>
            <ns3:atemp>35.0</ns3:atemp>
            <ns3:hr>89</ns3:hr>
          </ns3:TrackPointExtension>
        </extensions>
      </trkpt>
      <trkpt lat="36.808146424591541290283203125" lon="-118.54739268310368061065673828125">
        <ele>1740.5999755859375</ele>
        <time>2021-06-28T18:41:11.000Z</time>
        <extensions>
          <ns3:TrackPointExtension>
            <ns3:atemp>35.0</ns3:atemp>
            <ns3:hr>87</ns3:hr>
          </ns3:TrackPointExtension>
        </extensions>
      </trkpt>
      <trkpt lat="36.80815489031374454498291015625" lon="-118.54739964008331298828125">
        <ele>1740.4000244140625</ele>
        <time>2021-06-28T18:41:16.000Z</time>
        <extensions>
          <ns3:TrackPointExtension>
            <ns3:atemp>35.0</ns3:atemp>
            <ns3:hr>84</ns3:hr>
          </ns3:TrackPointExtension>
        </extensions>
      </trkpt>
      <trkpt lat="36.80815522558987140655517578125" lon="-118.547394275665283203125">
        <ele>1740.199951171875</ele>
        <time>2021-06-28T18:41:17.000Z</time>
        <extensions>
          <ns3:TrackPointExtension>
            <ns3:atemp>35.0</ns3:atemp>
            <ns3:hr>83</ns3:hr>
          </ns3:TrackPointExtension>
        </extensions>
      </trkpt>
      <trkpt lat="36.808152459561824798583984375" lon="-118.5473874025046825408935546875">
        <ele>1740</ele>
        <time>2021-06-28T18:41:19.000Z</time>
        <extensions>
          <ns3:TrackPointExtension>
            <ns3:atemp>35.0</ns3:atemp>
            <ns3:hr>81</ns3:hr>
          </ns3:TrackPointExtension>
        </extensions>
      </trkpt>
      <trkpt lat="36.80815304629504680633544921875" lon="-118.5473806969821453094482421875">
        <ele>1739.800048828125</ele>
        <time>2021-06-28T18:41:24.000Z</time>
        <extensions>
          <ns3:TrackPointExtension>
            <ns3:atemp>35.0</ns3:atemp>
            <ns3:hr>78</ns3:hr>
          </ns3:TrackPointExtension>
        </extensions>
      </trkpt>
      <trkpt lat="36.80815304629504680633544921875" lon="-118.5473806969821453094482421875">
        <ele>1739.800048828125</ele>
        <time>2021-06-28T18:41:25.000Z</time>
        <extensions>
          <ns3:TrackPointExtension>
            <ns3:atemp>35.0</ns3:atemp>
            <ns3:hr>79</ns3:hr>
          </ns3:TrackPointExtension>
        </extensions>
      </trkpt>
      <trkpt lat="36.80815304629504680633544921875" lon="-118.5473806969821453094482421875">
        <ele>1739.4000244140625</ele>
        <time>2021-06-28T18:41:28.000Z</time>
        <extensions>
          <ns3:TrackPointExtension>
            <ns3:atemp>35.0</ns3:atemp>
            <ns3:hr>82</ns3:hr>
          </ns3:TrackPointExtension>
        </extensions>
      </trkpt>
      <trkpt lat="36.80815304629504680633544921875" lon="-118.5473806969821453094482421875">
        <ele>1739.5999755859375</ele>
        <time>2021-06-28T18:41:29.000Z</time>
        <extensions>
          <ns3:TrackPointExtension>
            <ns3:atemp>35.0</ns3:atemp>
            <ns3:hr>82</ns3:hr>
          </ns3:TrackPointExtension>
        </extensions>
      </trkpt>
      <trkpt lat="36.8081737495958805084228515625" lon="-118.5473736561834812164306640625">
        <ele>1739.5999755859375</ele>
        <time>2021-06-28T18:41:52.000Z</time>
        <extensions>
          <ns3:TrackPointExtension>
            <ns3:atemp>35.0</ns3:atemp>
            <ns3:hr>86</ns3:hr>
          </ns3:TrackPointExtension>
        </extensions>
      </trkpt>
      <trkpt lat="36.80820417590439319610595703125" lon="-118.54737214744091033935546875">
        <ele>1739.4000244140625</ele>
        <time>2021-06-28T18:42:08.000Z</time>
        <extensions>
          <ns3:TrackPointExtension>
            <ns3:atemp>35.0</ns3:atemp>
            <ns3:hr>83</ns3:hr>
          </ns3:TrackPointExtension>
        </extensions>
      </trkpt>
      <trkpt lat="36.8082092888653278350830078125" lon="-118.54736745357513427734375">
        <ele>1739.4000244140625</ele>
        <time>2021-06-28T18:42:11.000Z</time>
        <extensions>
          <ns3:TrackPointExtension>
            <ns3:atemp>35.0</ns3:atemp>
            <ns3:hr>80</ns3:hr>
          </ns3:TrackPointExtension>
        </extensions>
      </trkpt>
      <trkpt lat="36.80822496302425861358642578125" lon="-118.5473629273474216461181640625">
        <ele>1738.800048828125</ele>
        <time>2021-06-28T18:42:20.000Z</time>
        <extensions>
          <ns3:TrackPointExtension>
            <ns3:atemp>35.0</ns3:atemp>
            <ns3:hr>84</ns3:hr>
          </ns3:TrackPointExtension>
        </extensions>
      </trkpt>
      <trkpt lat="36.80822496302425861358642578125" lon="-118.54736141860485076904296875">
        <ele>1738.5999755859375</ele>
        <time>2021-06-28T18:42:22.000Z</time>
        <extensions>
          <ns3:TrackPointExtension>
            <ns3:atemp>35.0</ns3:atemp>
            <ns3:hr>87</ns3:hr>
          </ns3:TrackPointExtension>
        </extensions>
      </trkpt>
      <trkpt lat="36.8082364462316036224365234375" lon="-118.5473428107798099517822265625">
        <ele>1738.5999755859375</ele>
        <time>2021-06-28T18:42:33.000Z</time>
        <extensions>
          <ns3:TrackPointExtension>
            <ns3:atemp>36.0</ns3:atemp>
            <ns3:hr>84</ns3:hr>
          </ns3:TrackPointExtension>
        </extensions>
      </trkpt>
      <trkpt lat="36.80824021808803081512451171875" lon="-118.54734272696077823638916015625">
        <ele>1738.4000244140625</ele>
        <time>2021-06-28T18:42:35.000Z</time>
        <extensions>
          <ns3:TrackPointExtension>
            <ns3:atemp>36.0</ns3:atemp>
            <ns3:hr>80</ns3:hr>
          </ns3:TrackPointExtension>
        </extensions>
      </trkpt>
      <trkpt lat="36.8082371167838573455810546875" lon="-118.54734272696077823638916015625">
        <ele>1738.4000244140625</ele>
        <time>2021-06-28T18:42:38.000Z</time>
        <extensions>
          <ns3:TrackPointExtension>
            <ns3:atemp>36.0</ns3:atemp>
            <ns3:hr>77</ns3:hr>
          </ns3:TrackPointExtension>
        </extensions>
      </trkpt>
      <trkpt lat="36.80823124945163726806640625" lon="-118.547343648970127105712890625">
        <ele>1738.4000244140625</ele>
        <time>2021-06-28T18:42:41.000Z</time>
        <extensions>
          <ns3:TrackPointExtension>
            <ns3:atemp>36.0</ns3:atemp>
            <ns3:hr>74</ns3:hr>
          </ns3:TrackPointExtension>
        </extensions>
      </trkpt>
      <trkpt lat="36.80822647176682949066162109375" lon="-118.54735563509166240692138671875">
        <ele>1739.4000244140625</ele>
        <time>2021-06-28T18:42:47.000Z</time>
        <extensions>
          <ns3:TrackPointExtension>
            <ns3:atemp>36.0</ns3:atemp>
            <ns3:hr>75</ns3:hr>
          </ns3:TrackPointExtension>
        </extensions>
      </trkpt>
      <trkpt lat="36.8081997334957122802734375" lon="-118.5474202595651149749755859375">
        <ele>1739.4000244140625</ele>
        <time>2021-06-28T18:42:50.000Z</time>
        <extensions>
          <ns3:TrackPointExtension>
            <ns3:atemp>36.0</ns3:atemp>
            <ns3:hr>76</ns3:hr>
          </ns3:TrackPointExtension>
        </extensions>
      </trkpt>
      <trkpt lat="36.80812396109104156494140625" lon="-118.54753249324858188629150390625">
        <ele>1739.4000244140625</ele>
        <time>2021-06-28T18:42:57.000Z</time>
        <extensions>
          <ns3:TrackPointExtension>
            <ns3:atemp>36.0</ns3:atemp>
            <ns3:hr>78</ns3:hr>
          </ns3:TrackPointExtension>
        </extensions>
      </trkpt>
      <trkpt lat="36.80808733217418193817138671875" lon="-118.547563590109348297119140625">
        <ele>1738.199951171875</ele>
        <time>2021-06-28T18:43:01.000Z</time>
        <extensions>
          <ns3:TrackPointExtension>
            <ns3:atemp>36.0</ns3:atemp>
            <ns3:hr>79</ns3:hr>
          </ns3:TrackPointExtension>
        </extensions>
      </trkpt>
      <trkpt lat="36.80807878263294696807861328125" lon="-118.54755998589098453521728515625">
        <ele>1737.800048828125</ele>
        <time>2021-06-28T18:43:02.000Z</time>
        <extensions>
          <ns3:TrackPointExtension>
            <ns3:atemp>36.0</ns3:atemp>
            <ns3:hr>80</ns3:hr>
          </ns3:TrackPointExtension>
        </extensions>
      </trkpt>
      <trkpt lat="36.8080473504960536956787109375" lon="-118.5475590638816356658935546875">
        <ele>1737.5999755859375</ele>
        <time>2021-06-28T18:43:04.000Z</time>
        <extensions>
          <ns3:TrackPointExtension>
            <ns3:atemp>36.0</ns3:atemp>
            <ns3:hr>76</ns3:hr>
          </ns3:TrackPointExtension>
        </extensions>
      </trkpt>
      <trkpt lat="36.8080302514135837554931640625" lon="-118.54756794869899749755859375">
        <ele>1737.4000244140625</ele>
        <time>2021-06-28T18:43:05.000Z</time>
        <extensions>
          <ns3:TrackPointExtension>
            <ns3:atemp>36.0</ns3:atemp>
            <ns3:hr>78</ns3:hr>
          </ns3:TrackPointExtension>
        </extensions>
      </trkpt>
      <trkpt lat="36.80800460278987884521484375" lon="-118.54760105721652507781982421875">
        <ele>1736.800048828125</ele>
        <time>2021-06-28T18:43:08.000Z</time>
        <extensions>
          <ns3:TrackPointExtension>
            <ns3:atemp>36.0</ns3:atemp>
            <ns3:hr>79</ns3:hr>
          </ns3:TrackPointExtension>
        </extensions>
      </trkpt>
      <trkpt lat="36.80800057947635650634765625" lon="-118.54761228896677494049072265625">
        <ele>1736.199951171875</ele>
        <time>2021-06-28T18:43:09.000Z</time>
        <extensions>
          <ns3:TrackPointExtension>
            <ns3:atemp>36.0</ns3:atemp>
            <ns3:hr>78</ns3:hr>
          </ns3:TrackPointExtension>
        </extensions>
      </trkpt>
      <trkpt lat="36.8079896830022335052490234375" lon="-118.5476254485547542572021484375">
        <ele>1735.5999755859375</ele>
        <time>2021-06-28T18:43:11.000Z</time>
        <extensions>
          <ns3:TrackPointExtension>
            <ns3:atemp>36.0</ns3:atemp>
            <ns3:hr>81</ns3:hr>
          </ns3:TrackPointExtension>
        </extensions>
      </trkpt>
      <trkpt lat="36.8079658783972263336181640625" lon="-118.5476531088352203369140625">
        <ele>1735.199951171875</ele>
        <time>2021-06-28T18:43:14.000Z</time>
        <extensions>
          <ns3:TrackPointExtension>
            <ns3:atemp>36.0</ns3:atemp>
            <ns3:hr>78</ns3:hr>
          </ns3:TrackPointExtension>
        </extensions>
      </trkpt>
      <trkpt lat="36.8079556524753570556640625" lon="-118.54765587486326694488525390625">
        <ele>1735</ele>
        <time>2021-06-28T18:43:15.000Z</time>
        <extensions>
          <ns3:TrackPointExtension>
            <ns3:atemp>36.0</ns3:atemp>
            <ns3:hr>76</ns3:hr>
          </ns3:TrackPointExtension>
        </extensions>
      </trkpt>
      <trkpt lat="36.807939223945140838623046875" lon="-118.5476586408913135528564453125">
        <ele>1734.800048828125</ele>
        <time>2021-06-28T18:43:16.000Z</time>
        <extensions>
          <ns3:TrackPointExtension>
            <ns3:atemp>36.0</ns3:atemp>
            <ns3:hr>79</ns3:hr>
          </ns3:TrackPointExtension>
        </extensions>
      </trkpt>
      <trkpt lat="36.8078885972499847412109375" lon="-118.54767448268830776214599609375">
        <ele>1734.5999755859375</ele>
        <time>2021-06-28T18:43:22.000Z</time>
        <extensions>
          <ns3:TrackPointExtension>
            <ns3:atemp>36.0</ns3:atemp>
            <ns3:hr>81</ns3:hr>
          </ns3:TrackPointExtension>
        </extensions>
      </trkpt>
      <trkpt lat="36.8078803829848766326904296875" lon="-118.547683618962764739990234375">
        <ele>1734.5999755859375</ele>
        <time>2021-06-28T18:43:23.000Z</time>
        <extensions>
          <ns3:TrackPointExtension>
            <ns3:atemp>36.0</ns3:atemp>
            <ns3:hr>78</ns3:hr>
          </ns3:TrackPointExtension>
        </extensions>
      </trkpt>
      <trkpt lat="36.8078713305294513702392578125" lon="-118.5476941801607608795166015625">
        <ele>1734.5999755859375</ele>
        <time>2021-06-28T18:43:24.000Z</time>
        <extensions>
          <ns3:TrackPointExtension>
            <ns3:atemp>36.0</ns3:atemp>
            <ns3:hr>81</ns3:hr>
          </ns3:TrackPointExtension>
        </extensions>
      </trkpt>
      <trkpt lat="36.8077965639531612396240234375" lon="-118.547735251486301422119140625">
        <ele>1735.800048828125</ele>
        <time>2021-06-28T18:43:31.000Z</time>
        <extensions>
          <ns3:TrackPointExtension>
            <ns3:atemp>36.0</ns3:atemp>
            <ns3:hr>84</ns3:hr>
          </ns3:TrackPointExtension>
        </extensions>
      </trkpt>
      <trkpt lat="36.8077854998409748077392578125" lon="-118.5477401129901409149169921875">
        <ele>1735.5999755859375</ele>
        <time>2021-06-28T18:43:32.000Z</time>
        <extensions>
          <ns3:TrackPointExtension>
            <ns3:atemp>36.0</ns3:atemp>
            <ns3:hr>85</ns3:hr>
          </ns3:TrackPointExtension>
        </extensions>
      </trkpt>
      <trkpt lat="36.80774635635316371917724609375" lon="-118.54775243438780307769775390625">
        <ele>1734.5999755859375</ele>
        <time>2021-06-28T18:43:35.000Z</time>
        <extensions>
          <ns3:TrackPointExtension>
            <ns3:atemp>36.0</ns3:atemp>
            <ns3:hr>88</ns3:hr>
          </ns3:TrackPointExtension>
        </extensions>
      </trkpt>
      <trkpt lat="36.8077378906309604644775390625" lon="-118.54772812686860561370849609375">
        <ele>1734.4000244140625</ele>
        <time>2021-06-28T18:43:36.000Z</time>
        <extensions>
          <ns3:TrackPointExtension>
            <ns3:atemp>36.0</ns3:atemp>
            <ns3:hr>87</ns3:hr>
          </ns3:TrackPointExtension>
        </extensions>
      </trkpt>
      <trkpt lat="36.80774065665900707244873046875" lon="-118.54771471582353115081787109375">
        <ele>1734.199951171875</ele>
        <time>2021-06-28T18:43:37.000Z</time>
        <extensions>
          <ns3:TrackPointExtension>
            <ns3:atemp>36.0</ns3:atemp>
            <ns3:hr>89</ns3:hr>
          </ns3:TrackPointExtension>
        </extensions>
      </trkpt>
      <trkpt lat="36.807737387716770172119140625" lon="-118.54772443883121013641357421875">
        <ele>1734</ele>
        <time>2021-06-28T18:43:38.000Z</time>
        <extensions>
          <ns3:TrackPointExtension>
            <ns3:atemp>36.0</ns3:atemp>
            <ns3:hr>88</ns3:hr>
          </ns3:TrackPointExtension>
        </extensions>
      </trkpt>
      <trkpt lat="36.80772322230041027069091796875" lon="-118.54772645048797130584716796875">
        <ele>1734</ele>
        <time>2021-06-28T18:43:39.000Z</time>
        <extensions>
          <ns3:TrackPointExtension>
            <ns3:atemp>36.0</ns3:atemp>
            <ns3:hr>87</ns3:hr>
          </ns3:TrackPointExtension>
        </extensions>
      </trkpt>
      <trkpt lat="36.807691790163516998291015625" lon="-118.5477161407470703125">
        <ele>1733.4000244140625</ele>
        <time>2021-06-28T18:43:43.000Z</time>
        <extensions>
          <ns3:TrackPointExtension>
            <ns3:atemp>36.0</ns3:atemp>
            <ns3:hr>83</ns3:hr>
          </ns3:TrackPointExtension>
        </extensions>
      </trkpt>
      <trkpt lat="36.80766102857887744903564453125" lon="-118.54770264588296413421630859375">
        <ele>1733.199951171875</ele>
        <time>2021-06-28T18:43:45.000Z</time>
        <extensions>
          <ns3:TrackPointExtension>
            <ns3:atemp>36.0</ns3:atemp>
            <ns3:hr>79</ns3:hr>
          </ns3:TrackPointExtension>
        </extensions>
      </trkpt>
      <trkpt lat="36.80762968026101589202880859375" lon="-118.5476824454963207244873046875">
        <ele>1733.199951171875</ele>
        <time>2021-06-28T18:43:47.000Z</time>
        <extensions>
          <ns3:TrackPointExtension>
            <ns3:atemp>36.0</ns3:atemp>
            <ns3:hr>76</ns3:hr>
          </ns3:TrackPointExtension>
        </extensions>
      </trkpt>
      <trkpt lat="36.8076002597808837890625" lon="-118.54767255485057830810546875">
        <ele>1732.4000244140625</ele>
        <time>2021-06-28T18:43:49.000Z</time>
        <extensions>
          <ns3:TrackPointExtension>
            <ns3:atemp>36.0</ns3:atemp>
            <ns3:hr>73</ns3:hr>
          </ns3:TrackPointExtension>
        </extensions>
      </trkpt>
      <trkpt lat="36.80758508853614330291748046875" lon="-118.5476804338395595550537109375">
        <ele>1732.4000244140625</ele>
        <time>2021-06-28T18:43:50.000Z</time>
        <extensions>
          <ns3:TrackPointExtension>
            <ns3:atemp>36.0</ns3:atemp>
            <ns3:hr>72</ns3:hr>
          </ns3:TrackPointExtension>
        </extensions>
      </trkpt>
      <trkpt lat="36.80755072273313999176025390625" lon="-118.547664172947406768798828125">
        <ele>1732</ele>
        <time>2021-06-28T18:43:53.000Z</time>
        <extensions>
          <ns3:TrackPointExtension>
            <ns3:atemp>36.0</ns3:atemp>
            <ns3:hr>70</ns3:hr>
          </ns3:TrackPointExtension>
        </extensions>
      </trkpt>
      <trkpt lat="36.80753747932612895965576171875" lon="-118.5476611554622650146484375">
        <ele>1732</ele>
        <time>2021-06-28T18:43:54.000Z</time>
        <extensions>
          <ns3:TrackPointExtension>
            <ns3:atemp>36.0</ns3:atemp>
            <ns3:hr>69</ns3:hr>
          </ns3:TrackPointExtension>
        </extensions>
      </trkpt>
      <trkpt lat="36.80750713683664798736572265625" lon="-118.5476586408913135528564453125">
        <ele>1731.800048828125</ele>
        <time>2021-06-28T18:43:57.000Z</time>
        <extensions>
          <ns3:TrackPointExtension>
            <ns3:atemp>36.0</ns3:atemp>
            <ns3:hr>69</ns3:hr>
          </ns3:TrackPointExtension>
        </extensions>
      </trkpt>
      <trkpt lat="36.80748115293681621551513671875" lon="-118.54765352793037891387939453125">
        <ele>1731.800048828125</ele>
        <time>2021-06-28T18:44:00.000Z</time>
        <extensions>
          <ns3:TrackPointExtension>
            <ns3:atemp>36.0</ns3:atemp>
            <ns3:hr>69</ns3:hr>
          </ns3:TrackPointExtension>
        </extensions>
      </trkpt>
      <trkpt lat="36.8074616231024265289306640625" lon="-118.54763089679181575775146484375">
        <ele>1731.800048828125</ele>
        <time>2021-06-28T18:44:03.000Z</time>
        <extensions>
          <ns3:TrackPointExtension>
            <ns3:atemp>36.0</ns3:atemp>
            <ns3:hr>70</ns3:hr>
          </ns3:TrackPointExtension>
        </extensions>
      </trkpt>
      <trkpt lat="36.80738660506904125213623046875" lon="-118.54760541580617427825927734375">
        <ele>1731</ele>
        <time>2021-06-28T18:44:09.000Z</time>
        <extensions>
          <ns3:TrackPointExtension>
            <ns3:atemp>36.0</ns3:atemp>
            <ns3:hr>71</ns3:hr>
          </ns3:TrackPointExtension>
        </extensions>
      </trkpt>
      <trkpt lat="36.80735492147505283355712890625" lon="-118.5475895740091800689697265625">
        <ele>1730.800048828125</ele>
        <time>2021-06-28T18:44:11.000Z</time>
        <extensions>
          <ns3:TrackPointExtension>
            <ns3:atemp>36.0</ns3:atemp>
            <ns3:hr>72</ns3:hr>
          </ns3:TrackPointExtension>
        </extensions>
      </trkpt>
      <trkpt lat="36.80722047574818134307861328125" lon="-118.54757406748831272125244140625">
        <ele>1729.5999755859375</ele>
        <time>2021-06-28T18:44:19.000Z</time>
        <extensions>
          <ns3:TrackPointExtension>
            <ns3:atemp>37.0</ns3:atemp>
            <ns3:hr>72</ns3:hr>
          </ns3:TrackPointExtension>
        </extensions>
      </trkpt>
      <trkpt lat="36.8071937374770641326904296875" lon="-118.54756794869899749755859375">
        <ele>1729.5999755859375</ele>
        <time>2021-06-28T18:44:21.000Z</time>
        <extensions>
          <ns3:TrackPointExtension>
            <ns3:atemp>37.0</ns3:atemp>
            <ns3:hr>72</ns3:hr>
          </ns3:TrackPointExtension>
        </extensions>
      </trkpt>
      <trkpt lat="36.8071504868566989898681640625" lon="-118.5475570522248744964599609375">
        <ele>1728.5999755859375</ele>
        <time>2021-06-28T18:44:25.000Z</time>
        <extensions>
          <ns3:TrackPointExtension>
            <ns3:atemp>37.0</ns3:atemp>
            <ns3:hr>71</ns3:hr>
          </ns3:TrackPointExtension>
        </extensions>
      </trkpt>
      <trkpt lat="36.807110421359539031982421875" lon="-118.54755529202520847320556640625">
        <ele>1728</ele>
        <time>2021-06-28T18:44:29.000Z</time>
        <extensions>
          <ns3:TrackPointExtension>
            <ns3:atemp>37.0</ns3:atemp>
            <ns3:hr>75</ns3:hr>
          </ns3:TrackPointExtension>
        </extensions>
      </trkpt>
      <trkpt lat="36.80709960870444774627685546875" lon="-118.54755478911101818084716796875">
        <ele>1728</ele>
        <time>2021-06-28T18:44:30.000Z</time>
        <extensions>
          <ns3:TrackPointExtension>
            <ns3:atemp>37.0</ns3:atemp>
            <ns3:hr>72</ns3:hr>
          </ns3:TrackPointExtension>
        </extensions>
      </trkpt>
      <trkpt lat="36.8070639856159687042236328125" lon="-118.54756182990968227386474609375">
        <ele>1727.4000244140625</ele>
        <time>2021-06-28T18:44:33.000Z</time>
        <extensions>
          <ns3:TrackPointExtension>
            <ns3:atemp>37.0</ns3:atemp>
            <ns3:hr>70</ns3:hr>
          </ns3:TrackPointExtension>
        </extensions>
      </trkpt>
      <trkpt lat="36.8070515803992748260498046875" lon="-118.54755596257746219635009765625">
        <ele>1727</ele>
        <time>2021-06-28T18:44:34.000Z</time>
        <extensions>
          <ns3:TrackPointExtension>
            <ns3:atemp>37.0</ns3:atemp>
            <ns3:hr>70</ns3:hr>
          </ns3:TrackPointExtension>
        </extensions>
      </trkpt>
      <trkpt lat="36.807041354477405548095703125" lon="-118.54755713604390621185302734375">
        <ele>1727</ele>
        <time>2021-06-28T18:44:35.000Z</time>
        <extensions>
          <ns3:TrackPointExtension>
            <ns3:atemp>37.0</ns3:atemp>
            <ns3:hr>69</ns3:hr>
          </ns3:TrackPointExtension>
        </extensions>
      </trkpt>
      <trkpt lat="36.8070334754884243011474609375" lon="-118.54755428619682788848876953125">
        <ele>1726.800048828125</ele>
        <time>2021-06-28T18:44:36.000Z</time>
        <extensions>
          <ns3:TrackPointExtension>
            <ns3:atemp>37.0</ns3:atemp>
            <ns3:hr>72</ns3:hr>
          </ns3:TrackPointExtension>
        </extensions>
      </trkpt>
      <trkpt lat="36.80702165700495243072509765625" lon="-118.547553531825542449951171875">
        <ele>1726.199951171875</ele>
        <time>2021-06-28T18:44:38.000Z</time>
        <extensions>
          <ns3:TrackPointExtension>
            <ns3:atemp>37.0</ns3:atemp>
            <ns3:hr>71</ns3:hr>
          </ns3:TrackPointExtension>
        </extensions>
      </trkpt>
      <trkpt lat="36.807015202939510345458984375" lon="-118.54753752239048480987548828125">
        <ele>1725.800048828125</ele>
        <time>2021-06-28T18:44:40.000Z</time>
        <extensions>
          <ns3:TrackPointExtension>
            <ns3:atemp>37.0</ns3:atemp>
            <ns3:hr>71</ns3:hr>
          </ns3:TrackPointExtension>
        </extensions>
      </trkpt>
      <trkpt lat="36.8069996125996112823486328125" lon="-118.54753081686794757843017578125">
        <ele>1725.199951171875</ele>
        <time>2021-06-28T18:44:43.000Z</time>
        <extensions>
          <ns3:TrackPointExtension>
            <ns3:atemp>37.0</ns3:atemp>
            <ns3:hr>69</ns3:hr>
          </ns3:TrackPointExtension>
        </extensions>
      </trkpt>
      <trkpt lat="36.8069972656667232513427734375" lon="-118.5475272126495838165283203125">
        <ele>1725.199951171875</ele>
        <time>2021-06-28T18:44:44.000Z</time>
        <extensions>
          <ns3:TrackPointExtension>
            <ns3:atemp>37.0</ns3:atemp>
            <ns3:hr>68</ns3:hr>
          </ns3:TrackPointExtension>
        </extensions>
      </trkpt>
      <trkpt lat="36.806991063058376312255859375" lon="-118.54751120321452617645263671875">
        <ele>1724.5999755859375</ele>
        <time>2021-06-28T18:44:47.000Z</time>
        <extensions>
          <ns3:TrackPointExtension>
            <ns3:atemp>37.0</ns3:atemp>
            <ns3:hr>68</ns3:hr>
          </ns3:TrackPointExtension>
        </extensions>
      </trkpt>
      <trkpt lat="36.806993074715137481689453125" lon="-118.54750835336744785308837890625">
        <ele>1724.5999755859375</ele>
        <time>2021-06-28T18:44:49.000Z</time>
        <extensions>
          <ns3:TrackPointExtension>
            <ns3:atemp>37.0</ns3:atemp>
            <ns3:hr>68</ns3:hr>
          </ns3:TrackPointExtension>
        </extensions>
      </trkpt>
      <trkpt lat="36.8069660849869251251220703125" lon="-118.54749846272170543670654296875">
        <ele>1723.800048828125</ele>
        <time>2021-06-28T18:44:54.000Z</time>
        <extensions>
          <ns3:TrackPointExtension>
            <ns3:atemp>37.0</ns3:atemp>
            <ns3:hr>70</ns3:hr>
          </ns3:TrackPointExtension>
        </extensions>
      </trkpt>
      <trkpt lat="36.8069597147405147552490234375" lon="-118.5474970377981662750244140625">
        <ele>1723.5999755859375</ele>
        <time>2021-06-28T18:44:55.000Z</time>
        <extensions>
          <ns3:TrackPointExtension>
            <ns3:atemp>37.0</ns3:atemp>
            <ns3:hr>71</ns3:hr>
          </ns3:TrackPointExtension>
        </extensions>
      </trkpt>
      <trkpt lat="36.80694001726806163787841796875" lon="-118.54748270474374294281005859375">
        <ele>1723.199951171875</ele>
        <time>2021-06-28T18:44:58.000Z</time>
        <extensions>
          <ns3:TrackPointExtension>
            <ns3:atemp>37.0</ns3:atemp>
            <ns3:hr>74</ns3:hr>
          </ns3:TrackPointExtension>
        </extensions>
      </trkpt>
      <trkpt lat="36.8069080822169780731201171875" lon="-118.54746107943356037139892578125">
        <ele>1722.199951171875</ele>
        <time>2021-06-28T18:45:02.000Z</time>
        <extensions>
          <ns3:TrackPointExtension>
            <ns3:atemp>37.0</ns3:atemp>
            <ns3:hr>76</ns3:hr>
          </ns3:TrackPointExtension>
        </extensions>
      </trkpt>
      <trkpt lat="36.8068859539926052093505859375" lon="-118.547454290091991424560546875">
        <ele>1721.5999755859375</ele>
        <time>2021-06-28T18:45:05.000Z</time>
        <extensions>
          <ns3:TrackPointExtension>
            <ns3:atemp>37.0</ns3:atemp>
            <ns3:hr>76</ns3:hr>
          </ns3:TrackPointExtension>
        </extensions>
      </trkpt>
      <trkpt lat="36.806882433593273162841796875" lon="-118.5474390350282192230224609375">
        <ele>1721</ele>
        <time>2021-06-28T18:45:07.000Z</time>
        <extensions>
          <ns3:TrackPointExtension>
            <ns3:atemp>37.0</ns3:atemp>
            <ns3:hr>76</ns3:hr>
          </ns3:TrackPointExtension>
        </extensions>
      </trkpt>
      <trkpt lat="36.80686960928142070770263671875" lon="-118.54740701615810394287109375">
        <ele>1720.199951171875</ele>
        <time>2021-06-28T18:45:11.000Z</time>
        <extensions>
          <ns3:TrackPointExtension>
            <ns3:atemp>37.0</ns3:atemp>
            <ns3:hr>76</ns3:hr>
          </ns3:TrackPointExtension>
        </extensions>
      </trkpt>
      <trkpt lat="36.8068611435592174530029296875" lon="-118.54739494621753692626953125">
        <ele>1719.5999755859375</ele>
        <time>2021-06-28T18:45:12.000Z</time>
        <extensions>
          <ns3:TrackPointExtension>
            <ns3:atemp>37.0</ns3:atemp>
            <ns3:hr>75</ns3:hr>
          </ns3:TrackPointExtension>
        </extensions>
      </trkpt>
      <trkpt lat="36.80681630037724971771240234375" lon="-118.547354377806186676025390625">
        <ele>1719</ele>
        <time>2021-06-28T18:45:17.000Z</time>
        <extensions>
          <ns3:TrackPointExtension>
            <ns3:atemp>37.0</ns3:atemp>
            <ns3:hr>72</ns3:hr>
          </ns3:TrackPointExtension>
        </extensions>
      </trkpt>
      <trkpt lat="36.8068098463118076324462890625" lon="-118.5473448224365711212158203125">
        <ele>1719</ele>
        <time>2021-06-28T18:45:19.000Z</time>
        <extensions>
          <ns3:TrackPointExtension>
            <ns3:atemp>37.0</ns3:atemp>
            <ns3:hr>70</ns3:hr>
          </ns3:TrackPointExtension>
        </extensions>
      </trkpt>
      <trkpt lat="36.80680423043668270111083984375" lon="-118.547337949275970458984375">
        <ele>1719</ele>
        <time>2021-06-28T18:45:20.000Z</time>
        <extensions>
          <ns3:TrackPointExtension>
            <ns3:atemp>37.0</ns3:atemp>
            <ns3:hr>70</ns3:hr>
          </ns3:TrackPointExtension>
        </extensions>
      </trkpt>
      <trkpt lat="36.8067984469234943389892578125" lon="-118.54733132757246494293212890625">
        <ele>1718.5999755859375</ele>
        <time>2021-06-28T18:45:21.000Z</time>
        <extensions>
          <ns3:TrackPointExtension>
            <ns3:atemp>37.0</ns3:atemp>
            <ns3:hr>70</ns3:hr>
          </ns3:TrackPointExtension>
        </extensions>
      </trkpt>
      <trkpt lat="36.80676064454019069671630859375" lon="-118.5472831316292285919189453125">
        <ele>1717.5999755859375</ele>
        <time>2021-06-28T18:45:27.000Z</time>
        <extensions>
          <ns3:TrackPointExtension>
            <ns3:atemp>37.0</ns3:atemp>
            <ns3:hr>73</ns3:hr>
          </ns3:TrackPointExtension>
        </extensions>
      </trkpt>
      <trkpt lat="36.80675729177892208099365234375" lon="-118.54727164842188358306884765625">
        <ele>1717.4000244140625</ele>
        <time>2021-06-28T18:45:28.000Z</time>
        <extensions>
          <ns3:TrackPointExtension>
            <ns3:atemp>37.0</ns3:atemp>
            <ns3:hr>73</ns3:hr>
          </ns3:TrackPointExtension>
        </extensions>
      </trkpt>
      <trkpt lat="36.80675326846539974212646484375" lon="-118.5472650267183780670166015625">
        <ele>1717.199951171875</ele>
        <time>2021-06-28T18:45:29.000Z</time>
        <extensions>
          <ns3:TrackPointExtension>
            <ns3:atemp>37.0</ns3:atemp>
            <ns3:hr>73</ns3:hr>
          </ns3:TrackPointExtension>
        </extensions>
      </trkpt>
      <trkpt lat="36.80673985742032527923583984375" lon="-118.5472392104566097259521484375">
        <ele>1716</ele>
        <time>2021-06-28T18:45:32.000Z</time>
        <extensions>
          <ns3:TrackPointExtension>
            <ns3:atemp>37.0</ns3:atemp>
            <ns3:hr>73</ns3:hr>
          </ns3:TrackPointExtension>
        </extensions>
      </trkpt>
      <trkpt lat="36.80672527290880680084228515625" lon="-118.5472133941948413848876953125">
        <ele>1716</ele>
        <time>2021-06-28T18:45:34.000Z</time>
        <extensions>
          <ns3:TrackPointExtension>
            <ns3:atemp>37.0</ns3:atemp>
            <ns3:hr>76</ns3:hr>
          </ns3:TrackPointExtension>
        </extensions>
      </trkpt>
      <trkpt lat="36.80671638809144496917724609375" lon="-118.54721146635711193084716796875">
        <ele>1716</ele>
        <time>2021-06-28T18:45:35.000Z</time>
        <extensions>
          <ns3:TrackPointExtension>
            <ns3:atemp>37.0</ns3:atemp>
            <ns3:hr>72</ns3:hr>
          </ns3:TrackPointExtension>
        </extensions>
      </trkpt>
      <trkpt lat="36.80670716799795627593994140625" lon="-118.5472100414335727691650390625">
        <ele>1716</ele>
        <time>2021-06-28T18:45:36.000Z</time>
        <extensions>
          <ns3:TrackPointExtension>
            <ns3:atemp>37.0</ns3:atemp>
            <ns3:hr>72</ns3:hr>
          </ns3:TrackPointExtension>
        </extensions>
      </trkpt>
      <trkpt lat="36.8066757358610630035400390625" lon="-118.5471704788506031036376953125">
        <ele>1715.5999755859375</ele>
        <time>2021-06-28T18:45:40.000Z</time>
        <extensions>
          <ns3:TrackPointExtension>
            <ns3:atemp>37.0</ns3:atemp>
            <ns3:hr>74</ns3:hr>
          </ns3:TrackPointExtension>
        </extensions>
      </trkpt>
      <trkpt lat="36.8066821061074733734130859375" lon="-118.5471610911190509796142578125">
        <ele>1715.4000244140625</ele>
        <time>2021-06-28T18:45:41.000Z</time>
        <extensions>
          <ns3:TrackPointExtension>
            <ns3:atemp>37.0</ns3:atemp>
            <ns3:hr>74</ns3:hr>
          </ns3:TrackPointExtension>
        </extensions>
      </trkpt>
      <trkpt lat="36.80667766369879245758056640625" lon="-118.5471637733280658721923828125">
        <ele>1715.199951171875</ele>
        <time>2021-06-28T18:45:43.000Z</time>
        <extensions>
          <ns3:TrackPointExtension>
            <ns3:atemp>37.0</ns3:atemp>
            <ns3:hr>77</ns3:hr>
          </ns3:TrackPointExtension>
        </extensions>
      </trkpt>
      <trkpt lat="36.80667498148977756500244140625" lon="-118.54716771282255649566650390625">
        <ele>1714.800048828125</ele>
        <time>2021-06-28T18:45:44.000Z</time>
        <extensions>
          <ns3:TrackPointExtension>
            <ns3:atemp>37.0</ns3:atemp>
            <ns3:hr>77</ns3:hr>
          </ns3:TrackPointExtension>
        </extensions>
      </trkpt>
      <trkpt lat="36.8066864646971225738525390625" lon="-118.54715757071971893310546875">
        <ele>1714.800048828125</ele>
        <time>2021-06-28T18:45:48.000Z</time>
        <extensions>
          <ns3:TrackPointExtension>
            <ns3:atemp>37.0</ns3:atemp>
            <ns3:hr>75</ns3:hr>
          </ns3:TrackPointExtension>
        </extensions>
      </trkpt>
      <trkpt lat="36.80669308640062808990478515625" lon="-118.547161258757114410400390625">
        <ele>1714.5999755859375</ele>
        <time>2021-06-28T18:45:56.000Z</time>
        <extensions>
          <ns3:TrackPointExtension>
            <ns3:atemp>37.0</ns3:atemp>
            <ns3:hr>72</ns3:hr>
          </ns3:TrackPointExtension>
        </extensions>
      </trkpt>
      <trkpt lat="36.80669308640062808990478515625" lon="-118.547161258757114410400390625">
        <ele>1714.800048828125</ele>
        <time>2021-06-28T18:45:59.000Z</time>
        <extensions>
          <ns3:TrackPointExtension>
            <ns3:atemp>37.0</ns3:atemp>
            <ns3:hr>70</ns3:hr>
          </ns3:TrackPointExtension>
        </extensions>
      </trkpt>
      <trkpt lat="36.80669308640062808990478515625" lon="-118.547161258757114410400390625">
        <ele>1714.5999755859375</ele>
        <time>2021-06-28T18:46:04.000Z</time>
        <extensions>
          <ns3:TrackPointExtension>
            <ns3:atemp>37.0</ns3:atemp>
            <ns3:hr>67</ns3:hr>
          </ns3:TrackPointExtension>
        </extensions>
      </trkpt>
      <trkpt lat="36.80672024376690387725830078125" lon="-118.54714952409267425537109375">
        <ele>1714.5999755859375</ele>
        <time>2021-06-28T18:46:13.000Z</time>
        <extensions>
          <ns3:TrackPointExtension>
            <ns3:atemp>37.0</ns3:atemp>
            <ns3:hr>70</ns3:hr>
          </ns3:TrackPointExtension>
        </extensions>
      </trkpt>
      <trkpt lat="36.8067233450710773468017578125" lon="-118.54715488851070404052734375">
        <ele>1714.5999755859375</ele>
        <time>2021-06-28T18:46:14.000Z</time>
        <extensions>
          <ns3:TrackPointExtension>
            <ns3:atemp>37.0</ns3:atemp>
            <ns3:hr>70</ns3:hr>
          </ns3:TrackPointExtension>
        </extensions>
      </trkpt>
      <trkpt lat="36.8067022226750850677490234375" lon="-118.54715413413941860198974609375">
        <ele>1715</ele>
        <time>2021-06-28T18:46:20.000Z</time>
        <extensions>
          <ns3:TrackPointExtension>
            <ns3:atemp>37.0</ns3:atemp>
            <ns3:hr>73</ns3:hr>
          </ns3:TrackPointExtension>
        </extensions>
      </trkpt>
      <trkpt lat="36.80670113302767276763916015625" lon="-118.5471563972532749176025390625">
        <ele>1714.800048828125</ele>
        <time>2021-06-28T18:46:21.000Z</time>
        <extensions>
          <ns3:TrackPointExtension>
            <ns3:atemp>37.0</ns3:atemp>
            <ns3:hr>75</ns3:hr>
          </ns3:TrackPointExtension>
        </extensions>
      </trkpt>
      <trkpt lat="36.8067075870931148529052734375" lon="-118.54715648107230663299560546875">
        <ele>1714.800048828125</ele>
        <time>2021-06-28T18:46:23.000Z</time>
        <extensions>
          <ns3:TrackPointExtension>
            <ns3:atemp>37.0</ns3:atemp>
            <ns3:hr>72</ns3:hr>
          </ns3:TrackPointExtension>
        </extensions>
      </trkpt>
      <trkpt lat="36.80670565925538539886474609375" lon="-118.54714223183691501617431640625">
        <ele>1714.5999755859375</ele>
        <time>2021-06-28T18:46:28.000Z</time>
        <extensions>
          <ns3:TrackPointExtension>
            <ns3:atemp>37.0</ns3:atemp>
            <ns3:hr>72</ns3:hr>
          </ns3:TrackPointExtension>
        </extensions>
      </trkpt>
      <trkpt lat="36.80666559375822544097900390625" lon="-118.547137789428234100341796875">
        <ele>1714.5999755859375</ele>
        <time>2021-06-28T18:46:31.000Z</time>
        <extensions>
          <ns3:TrackPointExtension>
            <ns3:atemp>37.0</ns3:atemp>
            <ns3:hr>75</ns3:hr>
          </ns3:TrackPointExtension>
        </extensions>
      </trkpt>
      <trkpt lat="36.806627623736858367919921875" lon="-118.54711054824292659759521484375">
        <ele>1714.5999755859375</ele>
        <time>2021-06-28T18:46:34.000Z</time>
        <extensions>
          <ns3:TrackPointExtension>
            <ns3:atemp>37.0</ns3:atemp>
            <ns3:hr>74</ns3:hr>
          </ns3:TrackPointExtension>
        </extensions>
      </trkpt>
      <trkpt lat="36.80657909251749515533447265625" lon="-118.54706235229969024658203125">
        <ele>1715</ele>
        <time>2021-06-28T18:46:39.000Z</time>
        <extensions>
          <ns3:TrackPointExtension>
            <ns3:atemp>37.0</ns3:atemp>
            <ns3:hr>71</ns3:hr>
          </ns3:TrackPointExtension>
        </extensions>
      </trkpt>
      <trkpt lat="36.8065340816974639892578125" lon="-118.547043241560459136962890625">
        <ele>1715</ele>
        <time>2021-06-28T18:46:42.000Z</time>
        <extensions>
          <ns3:TrackPointExtension>
            <ns3:atemp>37.0</ns3:atemp>
            <ns3:hr>71</ns3:hr>
          </ns3:TrackPointExtension>
        </extensions>
      </trkpt>
      <trkpt lat="36.80647733621299266815185546875" lon="-118.54702605865895748138427734375">
        <ele>1713.4000244140625</ele>
        <time>2021-06-28T18:46:45.000Z</time>
        <extensions>
          <ns3:TrackPointExtension>
            <ns3:atemp>37.0</ns3:atemp>
            <ns3:hr>71</ns3:hr>
          </ns3:TrackPointExtension>
        </extensions>
      </trkpt>
      <trkpt lat="36.80640868842601776123046875" lon="-118.5470061935484409332275390625">
        <ele>1713.199951171875</ele>
        <time>2021-06-28T18:46:50.000Z</time>
        <extensions>
          <ns3:TrackPointExtension>
            <ns3:atemp>37.0</ns3:atemp>
            <ns3:hr>68</ns3:hr>
          </ns3:TrackPointExtension>
        </extensions>
      </trkpt>
      <trkpt lat="36.80635026656091213226318359375" lon="-118.5469646193087100982666015625">
        <ele>1712.4000244140625</ele>
        <time>2021-06-28T18:46:55.000Z</time>
        <extensions>
          <ns3:TrackPointExtension>
            <ns3:atemp>37.0</ns3:atemp>
            <ns3:hr>67</ns3:hr>
          </ns3:TrackPointExtension>
        </extensions>
      </trkpt>
      <trkpt lat="36.80633987300097942352294921875" lon="-118.54695782996714115142822265625">
        <ele>1712.199951171875</ele>
        <time>2021-06-28T18:46:56.000Z</time>
        <extensions>
          <ns3:TrackPointExtension>
            <ns3:atemp>37.0</ns3:atemp>
            <ns3:hr>71</ns3:hr>
          </ns3:TrackPointExtension>
        </extensions>
      </trkpt>
      <trkpt lat="36.8063277192413806915283203125" lon="-118.54694877751171588897705078125">
        <ele>1711.5999755859375</ele>
        <time>2021-06-28T18:46:57.000Z</time>
        <extensions>
          <ns3:TrackPointExtension>
            <ns3:atemp>37.0</ns3:atemp>
            <ns3:hr>72</ns3:hr>
          </ns3:TrackPointExtension>
        </extensions>
      </trkpt>
      <trkpt lat="36.80632176809012889862060546875" lon="-118.54694006033241748809814453125">
        <ele>1711.4000244140625</ele>
        <time>2021-06-28T18:46:58.000Z</time>
        <extensions>
          <ns3:TrackPointExtension>
            <ns3:atemp>37.0</ns3:atemp>
            <ns3:hr>73</ns3:hr>
          </ns3:TrackPointExtension>
        </extensions>
      </trkpt>
      <trkpt lat="36.80634255520999431610107421875" lon="-118.546929247677326202392578125">
        <ele>1710.4000244140625</ele>
        <time>2021-06-28T18:47:01.000Z</time>
        <extensions>
          <ns3:TrackPointExtension>
            <ns3:atemp>37.0</ns3:atemp>
            <ns3:hr>76</ns3:hr>
          </ns3:TrackPointExtension>
        </extensions>
      </trkpt>
      <trkpt lat="36.806352026760578155517578125" lon="-118.54692287743091583251953125">
        <ele>1710.199951171875</ele>
        <time>2021-06-28T18:47:02.000Z</time>
        <extensions>
          <ns3:TrackPointExtension>
            <ns3:atemp>37.0</ns3:atemp>
            <ns3:hr>77</ns3:hr>
          </ns3:TrackPointExtension>
        </extensions>
      </trkpt>
      <trkpt lat="36.8063739873468875885009765625" lon="-118.54691172949969768524169921875">
        <ele>1710</ele>
        <time>2021-06-28T18:47:04.000Z</time>
        <extensions>
          <ns3:TrackPointExtension>
            <ns3:atemp>37.0</ns3:atemp>
            <ns3:hr>77</ns3:hr>
          </ns3:TrackPointExtension>
        </extensions>
      </trkpt>
      <trkpt lat="36.80641497485339641571044921875" lon="-118.54689261876046657562255859375">
        <ele>1709.5999755859375</ele>
        <time>2021-06-28T18:47:08.000Z</time>
        <extensions>
          <ns3:TrackPointExtension>
            <ns3:atemp>37.0</ns3:atemp>
            <ns3:hr>74</ns3:hr>
          </ns3:TrackPointExtension>
        </extensions>
      </trkpt>
      <trkpt lat="36.80643282830715179443359375" lon="-118.54688893072307109832763671875">
        <ele>1709.199951171875</ele>
        <time>2021-06-28T18:47:10.000Z</time>
        <extensions>
          <ns3:TrackPointExtension>
            <ns3:atemp>37.0</ns3:atemp>
            <ns3:hr>74</ns3:hr>
          </ns3:TrackPointExtension>
        </extensions>
      </trkpt>
      <trkpt lat="36.8064423836767673492431640625" lon="-118.546887673437595367431640625">
        <ele>1709</ele>
        <time>2021-06-28T18:47:11.000Z</time>
        <extensions>
          <ns3:TrackPointExtension>
            <ns3:atemp>37.0</ns3:atemp>
            <ns3:hr>75</ns3:hr>
          </ns3:TrackPointExtension>
        </extensions>
      </trkpt>
      <trkpt lat="36.806461326777935028076171875" lon="-118.546877615153789520263671875">
        <ele>1708.800048828125</ele>
        <time>2021-06-28T18:47:13.000Z</time>
        <extensions>
          <ns3:TrackPointExtension>
            <ns3:atemp>37.0</ns3:atemp>
            <ns3:hr>72</ns3:hr>
          </ns3:TrackPointExtension>
        </extensions>
      </trkpt>
      <trkpt lat="36.806484125554561614990234375" lon="-118.54685339145362377166748046875">
        <ele>1708.4000244140625</ele>
        <time>2021-06-28T18:47:16.000Z</time>
        <extensions>
          <ns3:TrackPointExtension>
            <ns3:atemp>37.0</ns3:atemp>
            <ns3:hr>75</ns3:hr>
          </ns3:TrackPointExtension>
        </extensions>
      </trkpt>
      <trkpt lat="36.806495524942874908447265625" lon="-118.546845428645610809326171875">
        <ele>1708</ele>
        <time>2021-06-28T18:47:17.000Z</time>
        <extensions>
          <ns3:TrackPointExtension>
            <ns3:atemp>37.0</ns3:atemp>
            <ns3:hr>75</ns3:hr>
          </ns3:TrackPointExtension>
        </extensions>
      </trkpt>
      <trkpt lat="36.80651639588177204132080078125" lon="-118.54683210141956806182861328125">
        <ele>1707.800048828125</ele>
        <time>2021-06-28T18:47:19.000Z</time>
        <extensions>
          <ns3:TrackPointExtension>
            <ns3:atemp>37.0</ns3:atemp>
            <ns3:hr>74</ns3:hr>
          </ns3:TrackPointExtension>
        </extensions>
      </trkpt>
      <trkpt lat="36.80652410723268985748291015625" lon="-118.5468184389173984527587890625">
        <ele>1707.800048828125</ele>
        <time>2021-06-28T18:47:20.000Z</time>
        <extensions>
          <ns3:TrackPointExtension>
            <ns3:atemp>37.0</ns3:atemp>
            <ns3:hr>74</ns3:hr>
          </ns3:TrackPointExtension>
        </extensions>
      </trkpt>
      <trkpt lat="36.8065194971859455108642578125" lon="-118.54678851552307605743408203125">
        <ele>1707.199951171875</ele>
        <time>2021-06-28T18:47:22.000Z</time>
        <extensions>
          <ns3:TrackPointExtension>
            <ns3:atemp>37.0</ns3:atemp>
            <ns3:hr>73</ns3:hr>
          </ns3:TrackPointExtension>
        </extensions>
      </trkpt>
      <trkpt lat="36.8065094389021396636962890625" lon="-118.54676169343292713165283203125">
        <ele>1706.4000244140625</ele>
        <time>2021-06-28T18:47:24.000Z</time>
        <extensions>
          <ns3:TrackPointExtension>
            <ns3:atemp>37.0</ns3:atemp>
            <ns3:hr>74</ns3:hr>
          </ns3:TrackPointExtension>
        </extensions>
      </trkpt>
      <trkpt lat="36.80650063790380954742431640625" lon="-118.5467376373708248138427734375">
        <ele>1705.800048828125</ele>
        <time>2021-06-28T18:47:26.000Z</time>
        <extensions>
          <ns3:TrackPointExtension>
            <ns3:atemp>37.0</ns3:atemp>
            <ns3:hr>74</ns3:hr>
          </ns3:TrackPointExtension>
        </extensions>
      </trkpt>
      <trkpt lat="36.8064645119011402130126953125" lon="-118.54673688299953937530517578125">
        <ele>1705.800048828125</ele>
        <time>2021-06-28T18:47:29.000Z</time>
        <extensions>
          <ns3:TrackPointExtension>
            <ns3:atemp>37.0</ns3:atemp>
            <ns3:hr>72</ns3:hr>
          </ns3:TrackPointExtension>
        </extensions>
      </trkpt>
      <trkpt lat="36.80645428597927093505859375" lon="-118.5467238910496234893798828125">
        <ele>1705.800048828125</ele>
        <time>2021-06-28T18:47:31.000Z</time>
        <extensions>
          <ns3:TrackPointExtension>
            <ns3:atemp>37.0</ns3:atemp>
            <ns3:hr>75</ns3:hr>
          </ns3:TrackPointExtension>
        </extensions>
      </trkpt>
      <trkpt lat="36.8064350076019763946533203125" lon="-118.5466947220265865325927734375">
        <ele>1705.199951171875</ele>
        <time>2021-06-28T18:47:33.000Z</time>
        <extensions>
          <ns3:TrackPointExtension>
            <ns3:atemp>37.0</ns3:atemp>
            <ns3:hr>75</ns3:hr>
          </ns3:TrackPointExtension>
        </extensions>
      </trkpt>
      <trkpt lat="36.8064239434897899627685546875" lon="-118.54669220745563507080078125">
        <ele>1704.4000244140625</ele>
        <time>2021-06-28T18:47:34.000Z</time>
        <extensions>
          <ns3:TrackPointExtension>
            <ns3:atemp>37.0</ns3:atemp>
            <ns3:hr>75</ns3:hr>
          </ns3:TrackPointExtension>
        </extensions>
      </trkpt>
      <trkpt lat="36.8064091913402080535888671875" lon="-118.54668944142758846282958984375">
        <ele>1704.199951171875</ele>
        <time>2021-06-28T18:47:35.000Z</time>
        <extensions>
          <ns3:TrackPointExtension>
            <ns3:atemp>37.0</ns3:atemp>
            <ns3:hr>74</ns3:hr>
          </ns3:TrackPointExtension>
        </extensions>
      </trkpt>
      <trkpt lat="36.80639452300965785980224609375" lon="-118.54668675921857357025146484375">
        <ele>1703.5999755859375</ele>
        <time>2021-06-28T18:47:36.000Z</time>
        <extensions>
          <ns3:TrackPointExtension>
            <ns3:atemp>37.0</ns3:atemp>
            <ns3:hr>75</ns3:hr>
          </ns3:TrackPointExtension>
        </extensions>
      </trkpt>
      <trkpt lat="36.80635479278862476348876953125" lon="-118.5466967336833477020263671875">
        <ele>1703.4000244140625</ele>
        <time>2021-06-28T18:47:39.000Z</time>
        <extensions>
          <ns3:TrackPointExtension>
            <ns3:atemp>37.0</ns3:atemp>
            <ns3:hr>76</ns3:hr>
          </ns3:TrackPointExtension>
        </extensions>
      </trkpt>
      <trkpt lat="36.806340627372264862060546875" lon="-118.5467101447284221649169921875">
        <ele>1703.199951171875</ele>
        <time>2021-06-28T18:47:40.000Z</time>
        <extensions>
          <ns3:TrackPointExtension>
            <ns3:atemp>37.0</ns3:atemp>
            <ns3:hr>76</ns3:hr>
          </ns3:TrackPointExtension>
        </extensions>
      </trkpt>
      <trkpt lat="36.8063146434724330902099609375" lon="-118.54673369787633419036865234375">
        <ele>1703.199951171875</ele>
        <time>2021-06-28T18:47:42.000Z</time>
        <extensions>
          <ns3:TrackPointExtension>
            <ns3:atemp>37.0</ns3:atemp>
            <ns3:hr>77</ns3:hr>
          </ns3:TrackPointExtension>
        </extensions>
      </trkpt>
      <trkpt lat="36.806301064789295196533203125" lon="-118.54674476198852062225341796875">
        <ele>1701.800048828125</ele>
        <time>2021-06-28T18:47:43.000Z</time>
        <extensions>
          <ns3:TrackPointExtension>
            <ns3:atemp>37.0</ns3:atemp>
            <ns3:hr>78</ns3:hr>
          </ns3:TrackPointExtension>
        </extensions>
      </trkpt>
      <trkpt lat="36.80627524852752685546875" lon="-118.54675750248134136199951171875">
        <ele>1700.5999755859375</ele>
        <time>2021-06-28T18:47:46.000Z</time>
        <extensions>
          <ns3:TrackPointExtension>
            <ns3:atemp>37.0</ns3:atemp>
            <ns3:hr>77</ns3:hr>
          </ns3:TrackPointExtension>
        </extensions>
      </trkpt>
      <trkpt lat="36.80626560933887958526611328125" lon="-118.5467550717294216156005859375">
        <ele>1700.199951171875</ele>
        <time>2021-06-28T18:47:49.000Z</time>
        <extensions>
          <ns3:TrackPointExtension>
            <ns3:atemp>37.0</ns3:atemp>
            <ns3:hr>77</ns3:hr>
          </ns3:TrackPointExtension>
        </extensions>
      </trkpt>
      <trkpt lat="36.80625722743570804595947265625" lon="-118.54676462709903717041015625">
        <ele>1700.4000244140625</ele>
        <time>2021-06-28T18:47:52.000Z</time>
        <extensions>
          <ns3:TrackPointExtension>
            <ns3:atemp>37.0</ns3:atemp>
            <ns3:hr>78</ns3:hr>
          </ns3:TrackPointExtension>
        </extensions>
      </trkpt>
      <trkpt lat="36.80621699430048465728759765625" lon="-118.54683830402791500091552734375">
        <ele>1700</ele>
        <time>2021-06-28T18:47:58.000Z</time>
        <extensions>
          <ns3:TrackPointExtension>
            <ns3:atemp>37.0</ns3:atemp>
            <ns3:hr>76</ns3:hr>
          </ns3:TrackPointExtension>
        </extensions>
      </trkpt>
      <trkpt lat="36.8061827123165130615234375" lon="-118.5468600131571292877197265625">
        <ele>1699.4000244140625</ele>
        <time>2021-06-28T18:48:02.000Z</time>
        <extensions>
          <ns3:TrackPointExtension>
            <ns3:atemp>37.0</ns3:atemp>
            <ns3:hr>77</ns3:hr>
          </ns3:TrackPointExtension>
        </extensions>
      </trkpt>
      <trkpt lat="36.806158907711505889892578125" lon="-118.5468496195971965789794921875">
        <ele>1698.800048828125</ele>
        <time>2021-06-28T18:48:05.000Z</time>
        <extensions>
          <ns3:TrackPointExtension>
            <ns3:atemp>37.0</ns3:atemp>
            <ns3:hr>77</ns3:hr>
          </ns3:TrackPointExtension>
        </extensions>
      </trkpt>
      <trkpt lat="36.80614122189581394195556640625" lon="-118.5468271560966968536376953125">
        <ele>1698.4000244140625</ele>
        <time>2021-06-28T18:48:07.000Z</time>
        <extensions>
          <ns3:TrackPointExtension>
            <ns3:atemp>37.0</ns3:atemp>
            <ns3:hr>79</ns3:hr>
          </ns3:TrackPointExtension>
        </extensions>
      </trkpt>
      <trkpt lat="36.80610618554055690765380859375" lon="-118.5468194447457790374755859375">
        <ele>1697.800048828125</ele>
        <time>2021-06-28T18:48:12.000Z</time>
        <extensions>
          <ns3:TrackPointExtension>
            <ns3:atemp>37.0</ns3:atemp>
            <ns3:hr>80</ns3:hr>
          </ns3:TrackPointExtension>
        </extensions>
      </trkpt>
      <trkpt lat="36.806100569665431976318359375" lon="-118.5468006692826747894287109375">
        <ele>1697.199951171875</ele>
        <time>2021-06-28T18:48:14.000Z</time>
        <extensions>
          <ns3:TrackPointExtension>
            <ns3:atemp>37.0</ns3:atemp>
            <ns3:hr>80</ns3:hr>
          </ns3:TrackPointExtension>
        </extensions>
      </trkpt>
      <trkpt lat="36.806090176105499267578125" lon="-118.54678667150437831878662109375">
        <ele>1696.800048828125</ele>
        <time>2021-06-28T18:48:16.000Z</time>
        <extensions>
          <ns3:TrackPointExtension>
            <ns3:atemp>37.0</ns3:atemp>
            <ns3:hr>80</ns3:hr>
          </ns3:TrackPointExtension>
        </extensions>
      </trkpt>
      <trkpt lat="36.80605706758797168731689453125" lon="-118.54678206145763397216796875">
        <ele>1696.800048828125</ele>
        <time>2021-06-28T18:48:19.000Z</time>
        <extensions>
          <ns3:TrackPointExtension>
            <ns3:atemp>37.0</ns3:atemp>
            <ns3:hr>83</ns3:hr>
          </ns3:TrackPointExtension>
        </extensions>
      </trkpt>
      <trkpt lat="36.80603309534490108489990234375" lon="-118.54677258990705013275146484375">
        <ele>1696.5999755859375</ele>
        <time>2021-06-28T18:48:21.000Z</time>
        <extensions>
          <ns3:TrackPointExtension>
            <ns3:atemp>37.0</ns3:atemp>
            <ns3:hr>84</ns3:hr>
          </ns3:TrackPointExtension>
        </extensions>
      </trkpt>
      <trkpt lat="36.80601767264306545257568359375" lon="-118.5467668063938617706298828125">
        <ele>1695.4000244140625</ele>
        <time>2021-06-28T18:48:22.000Z</time>
        <extensions>
          <ns3:TrackPointExtension>
            <ns3:atemp>37.0</ns3:atemp>
            <ns3:hr>85</ns3:hr>
          </ns3:TrackPointExtension>
        </extensions>
      </trkpt>
      <trkpt lat="36.80595983751118183135986328125" lon="-118.54675934650003910064697265625">
        <ele>1694.5999755859375</ele>
        <time>2021-06-28T18:48:27.000Z</time>
        <extensions>
          <ns3:TrackPointExtension>
            <ns3:atemp>37.0</ns3:atemp>
            <ns3:hr>86</ns3:hr>
          </ns3:TrackPointExtension>
        </extensions>
      </trkpt>
      <trkpt lat="36.805936954915523529052734375" lon="-118.54676705785095691680908203125">
        <ele>1694</ele>
        <time>2021-06-28T18:48:29.000Z</time>
        <extensions>
          <ns3:TrackPointExtension>
            <ns3:atemp>37.0</ns3:atemp>
            <ns3:hr>85</ns3:hr>
          </ns3:TrackPointExtension>
        </extensions>
      </trkpt>
      <trkpt lat="36.80592346005141735076904296875" lon="-118.54676253162324428558349609375">
        <ele>1693.5999755859375</ele>
        <time>2021-06-28T18:48:30.000Z</time>
        <extensions>
          <ns3:TrackPointExtension>
            <ns3:atemp>37.0</ns3:atemp>
            <ns3:hr>86</ns3:hr>
          </ns3:TrackPointExtension>
        </extensions>
      </trkpt>
      <trkpt lat="36.8059091269969940185546875" lon="-118.54674995876848697662353515625">
        <ele>1693.199951171875</ele>
        <time>2021-06-28T18:48:31.000Z</time>
        <extensions>
          <ns3:TrackPointExtension>
            <ns3:atemp>37.0</ns3:atemp>
            <ns3:hr>86</ns3:hr>
          </ns3:TrackPointExtension>
        </extensions>
      </trkpt>
      <trkpt lat="36.805895380675792694091796875" lon="-118.54674308560788631439208984375">
        <ele>1693</ele>
        <time>2021-06-28T18:48:32.000Z</time>
        <extensions>
          <ns3:TrackPointExtension>
            <ns3:atemp>37.0</ns3:atemp>
            <ns3:hr>86</ns3:hr>
          </ns3:TrackPointExtension>
        </extensions>
      </trkpt>
      <trkpt lat="36.80587216280400753021240234375" lon="-118.54672908782958984375">
        <ele>1692.199951171875</ele>
        <time>2021-06-28T18:48:34.000Z</time>
        <extensions>
          <ns3:TrackPointExtension>
            <ns3:atemp>37.0</ns3:atemp>
            <ns3:hr>86</ns3:hr>
          </ns3:TrackPointExtension>
        </extensions>
      </trkpt>
      <trkpt lat="36.80582807399332523345947265625" lon="-118.5467466898262500762939453125">
        <ele>1691.800048828125</ele>
        <time>2021-06-28T18:48:37.000Z</time>
        <extensions>
          <ns3:TrackPointExtension>
            <ns3:atemp>37.0</ns3:atemp>
            <ns3:hr>85</ns3:hr>
          </ns3:TrackPointExtension>
        </extensions>
      </trkpt>
      <trkpt lat="36.80579823441803455352783203125" lon="-118.54676336981356143951416015625">
        <ele>1691.199951171875</ele>
        <time>2021-06-28T18:48:40.000Z</time>
        <extensions>
          <ns3:TrackPointExtension>
            <ns3:atemp>37.0</ns3:atemp>
            <ns3:hr>82</ns3:hr>
          </ns3:TrackPointExtension>
        </extensions>
      </trkpt>
      <trkpt lat="36.80577694438397884368896484375" lon="-118.54676521383225917816162109375">
        <ele>1690.800048828125</ele>
        <time>2021-06-28T18:48:42.000Z</time>
        <extensions>
          <ns3:TrackPointExtension>
            <ns3:atemp>37.0</ns3:atemp>
            <ns3:hr>82</ns3:hr>
          </ns3:TrackPointExtension>
        </extensions>
      </trkpt>
      <trkpt lat="36.80574039928615093231201171875" lon="-118.546761609613895416259765625">
        <ele>1690</ele>
        <time>2021-06-28T18:48:45.000Z</time>
        <extensions>
          <ns3:TrackPointExtension>
            <ns3:atemp>37.0</ns3:atemp>
            <ns3:hr>84</ns3:hr>
          </ns3:TrackPointExtension>
        </extensions>
      </trkpt>
      <trkpt lat="36.80569597519934177398681640625" lon="-118.54673202149569988250732421875">
        <ele>1689.4000244140625</ele>
        <time>2021-06-28T18:48:48.000Z</time>
        <extensions>
          <ns3:TrackPointExtension>
            <ns3:atemp>37.0</ns3:atemp>
            <ns3:hr>83</ns3:hr>
          </ns3:TrackPointExtension>
        </extensions>
      </trkpt>
      <trkpt lat="36.80566144175827503204345703125" lon="-118.54672263376414775848388671875">
        <ele>1688.4000244140625</ele>
        <time>2021-06-28T18:48:51.000Z</time>
        <extensions>
          <ns3:TrackPointExtension>
            <ns3:atemp>37.0</ns3:atemp>
            <ns3:hr>81</ns3:hr>
          </ns3:TrackPointExtension>
        </extensions>
      </trkpt>
      <trkpt lat="36.8056528083980083465576171875" lon="-118.54672565124928951263427734375">
        <ele>1688.4000244140625</ele>
        <time>2021-06-28T18:48:52.000Z</time>
        <extensions>
          <ns3:TrackPointExtension>
            <ns3:atemp>37.0</ns3:atemp>
            <ns3:hr>80</ns3:hr>
          </ns3:TrackPointExtension>
        </extensions>
      </trkpt>
      <trkpt lat="36.8056440912187099456787109375" lon="-118.54673403315246105194091796875">
        <ele>1688.4000244140625</ele>
        <time>2021-06-28T18:48:53.000Z</time>
        <extensions>
          <ns3:TrackPointExtension>
            <ns3:atemp>37.0</ns3:atemp>
            <ns3:hr>80</ns3:hr>
          </ns3:TrackPointExtension>
        </extensions>
      </trkpt>
      <trkpt lat="36.80562187917530536651611328125" lon="-118.54677803814411163330078125">
        <ele>1687.199951171875</ele>
        <time>2021-06-28T18:48:57.000Z</time>
        <extensions>
          <ns3:TrackPointExtension>
            <ns3:atemp>37.0</ns3:atemp>
            <ns3:hr>79</ns3:hr>
          </ns3:TrackPointExtension>
        </extensions>
      </trkpt>
      <trkpt lat="36.80562070570886135101318359375" lon="-118.546792455017566680908203125">
        <ele>1686.800048828125</ele>
        <time>2021-06-28T18:48:58.000Z</time>
        <extensions>
          <ns3:TrackPointExtension>
            <ns3:atemp>37.0</ns3:atemp>
            <ns3:hr>78</ns3:hr>
          </ns3:TrackPointExtension>
        </extensions>
      </trkpt>
      <trkpt lat="36.80563227273523807525634765625" lon="-118.5468928702175617218017578125">
        <ele>1686.199951171875</ele>
        <time>2021-06-28T18:49:04.000Z</time>
        <extensions>
          <ns3:TrackPointExtension>
            <ns3:atemp>38.0</ns3:atemp>
            <ns3:hr>79</ns3:hr>
          </ns3:TrackPointExtension>
        </extensions>
      </trkpt>
      <trkpt lat="36.80562841705977916717529296875" lon="-118.54690368287265300750732421875">
        <ele>1686.199951171875</ele>
        <time>2021-06-28T18:49:05.000Z</time>
        <extensions>
          <ns3:TrackPointExtension>
            <ns3:atemp>38.0</ns3:atemp>
            <ns3:hr>79</ns3:hr>
          </ns3:TrackPointExtension>
        </extensions>
      </trkpt>
      <trkpt lat="36.805570162832736968994140625" lon="-118.54696118272840976715087890625">
        <ele>1685.800048828125</ele>
        <time>2021-06-28T18:49:12.000Z</time>
        <extensions>
          <ns3:TrackPointExtension>
            <ns3:atemp>38.0</ns3:atemp>
            <ns3:hr>80</ns3:hr>
          </ns3:TrackPointExtension>
        </extensions>
      </trkpt>
      <trkpt lat="36.805538646876811981201171875" lon="-118.5469984821975231170654296875">
        <ele>1685.5999755859375</ele>
        <time>2021-06-28T18:49:15.000Z</time>
        <extensions>
          <ns3:TrackPointExtension>
            <ns3:atemp>38.0</ns3:atemp>
            <ns3:hr>77</ns3:hr>
          </ns3:TrackPointExtension>
        </extensions>
      </trkpt>
      <trkpt lat="36.805485002696514129638671875" lon="-118.54701432399451732635498046875">
        <ele>1685</ele>
        <time>2021-06-28T18:49:19.000Z</time>
        <extensions>
          <ns3:TrackPointExtension>
            <ns3:atemp>38.0</ns3:atemp>
            <ns3:hr>76</ns3:hr>
          </ns3:TrackPointExtension>
        </extensions>
      </trkpt>
      <trkpt lat="36.80547083728015422821044921875" lon="-118.547016084194183349609375">
        <ele>1684.800048828125</ele>
        <time>2021-06-28T18:49:20.000Z</time>
        <extensions>
          <ns3:TrackPointExtension>
            <ns3:atemp>38.0</ns3:atemp>
            <ns3:hr>75</ns3:hr>
          </ns3:TrackPointExtension>
        </extensions>
      </trkpt>
      <trkpt lat="36.805422641336917877197265625" lon="-118.54704986326396465301513671875">
        <ele>1683.800048828125</ele>
        <time>2021-06-28T18:49:25.000Z</time>
        <extensions>
          <ns3:TrackPointExtension>
            <ns3:atemp>38.0</ns3:atemp>
            <ns3:hr>75</ns3:hr>
          </ns3:TrackPointExtension>
        </extensions>
      </trkpt>
      <trkpt lat="36.80539959110319614410400390625" lon="-118.54705422185361385345458984375">
        <ele>1683.4000244140625</ele>
        <time>2021-06-28T18:49:27.000Z</time>
        <extensions>
          <ns3:TrackPointExtension>
            <ns3:atemp>38.0</ns3:atemp>
            <ns3:hr>77</ns3:hr>
          </ns3:TrackPointExtension>
        </extensions>
      </trkpt>
      <trkpt lat="36.80534829385578632354736328125" lon="-118.5470732487738132476806640625">
        <ele>1682.800048828125</ele>
        <time>2021-06-28T18:49:32.000Z</time>
        <extensions>
          <ns3:TrackPointExtension>
            <ns3:atemp>38.0</ns3:atemp>
            <ns3:hr>79</ns3:hr>
          </ns3:TrackPointExtension>
        </extensions>
      </trkpt>
      <trkpt lat="36.8053269200026988983154296875" lon="-118.54708691127598285675048828125">
        <ele>1682.199951171875</ele>
        <time>2021-06-28T18:49:34.000Z</time>
        <extensions>
          <ns3:TrackPointExtension>
            <ns3:atemp>38.0</ns3:atemp>
            <ns3:hr>78</ns3:hr>
          </ns3:TrackPointExtension>
        </extensions>
      </trkpt>
      <trkpt lat="36.805297918617725372314453125" lon="-118.5471104644238948822021484375">
        <ele>1681.5999755859375</ele>
        <time>2021-06-28T18:49:38.000Z</time>
        <extensions>
          <ns3:TrackPointExtension>
            <ns3:atemp>38.0</ns3:atemp>
            <ns3:hr>77</ns3:hr>
          </ns3:TrackPointExtension>
        </extensions>
      </trkpt>
      <trkpt lat="36.80527889169752597808837890625" lon="-118.54711524210870265960693359375">
        <ele>1681.5999755859375</ele>
        <time>2021-06-28T18:49:40.000Z</time>
        <extensions>
          <ns3:TrackPointExtension>
            <ns3:atemp>38.0</ns3:atemp>
            <ns3:hr>80</ns3:hr>
          </ns3:TrackPointExtension>
        </extensions>
      </trkpt>
      <trkpt lat="36.8052662350237369537353515625" lon="-118.54711725376546382904052734375">
        <ele>1681.4000244140625</ele>
        <time>2021-06-28T18:49:41.000Z</time>
        <extensions>
          <ns3:TrackPointExtension>
            <ns3:atemp>38.0</ns3:atemp>
            <ns3:hr>81</ns3:hr>
          </ns3:TrackPointExtension>
        </extensions>
      </trkpt>
      <trkpt lat="36.80525324307382106781005859375" lon="-118.5471218638122081756591796875">
        <ele>1680.800048828125</ele>
        <time>2021-06-28T18:49:42.000Z</time>
        <extensions>
          <ns3:TrackPointExtension>
            <ns3:atemp>38.0</ns3:atemp>
            <ns3:hr>82</ns3:hr>
          </ns3:TrackPointExtension>
        </extensions>
      </trkpt>
      <trkpt lat="36.80522692389786243438720703125" lon="-118.54712060652673244476318359375">
        <ele>1680.5999755859375</ele>
        <time>2021-06-28T18:49:44.000Z</time>
        <extensions>
          <ns3:TrackPointExtension>
            <ns3:atemp>38.0</ns3:atemp>
            <ns3:hr>84</ns3:hr>
          </ns3:TrackPointExtension>
        </extensions>
      </trkpt>
      <trkpt lat="36.80521602742373943328857421875" lon="-118.547121696174144744873046875">
        <ele>1680.5999755859375</ele>
        <time>2021-06-28T18:49:45.000Z</time>
        <extensions>
          <ns3:TrackPointExtension>
            <ns3:atemp>38.0</ns3:atemp>
            <ns3:hr>85</ns3:hr>
          </ns3:TrackPointExtension>
        </extensions>
      </trkpt>
      <trkpt lat="36.80519155226647853851318359375" lon="-118.5471262224018573760986328125">
        <ele>1680.199951171875</ele>
        <time>2021-06-28T18:49:47.000Z</time>
        <extensions>
          <ns3:TrackPointExtension>
            <ns3:atemp>38.0</ns3:atemp>
            <ns3:hr>88</ns3:hr>
          </ns3:TrackPointExtension>
        </extensions>
      </trkpt>
      <trkpt lat="36.8051703460514545440673828125" lon="-118.54713016189634799957275390625">
        <ele>1680.199951171875</ele>
        <time>2021-06-28T18:49:49.000Z</time>
        <extensions>
          <ns3:TrackPointExtension>
            <ns3:atemp>38.0</ns3:atemp>
            <ns3:hr>91</ns3:hr>
          </ns3:TrackPointExtension>
        </extensions>
      </trkpt>
      <trkpt lat="36.8051589466631412506103515625" lon="-118.547131083905696868896484375">
        <ele>1680.199951171875</ele>
        <time>2021-06-28T18:49:50.000Z</time>
        <extensions>
          <ns3:TrackPointExtension>
            <ns3:atemp>38.0</ns3:atemp>
            <ns3:hr>91</ns3:hr>
          </ns3:TrackPointExtension>
        </extensions>
      </trkpt>
      <trkpt lat="36.80509708821773529052734375" lon="-118.54714994318783283233642578125">
        <ele>1679.5999755859375</ele>
        <time>2021-06-28T18:49:55.000Z</time>
        <extensions>
          <ns3:TrackPointExtension>
            <ns3:atemp>38.0</ns3:atemp>
            <ns3:hr>88</ns3:hr>
          </ns3:TrackPointExtension>
        </extensions>
      </trkpt>
      <trkpt lat="36.805076636373996734619140625" lon="-118.5471637733280658721923828125">
        <ele>1679.5999755859375</ele>
        <time>2021-06-28T18:49:57.000Z</time>
        <extensions>
          <ns3:TrackPointExtension>
            <ns3:atemp>38.0</ns3:atemp>
            <ns3:hr>85</ns3:hr>
          </ns3:TrackPointExtension>
        </extensions>
      </trkpt>
      <trkpt lat="36.80505425669252872467041015625" lon="-118.54716486297547817230224609375">
        <ele>1679.4000244140625</ele>
        <time>2021-06-28T18:49:59.000Z</time>
        <extensions>
          <ns3:TrackPointExtension>
            <ns3:atemp>38.0</ns3:atemp>
            <ns3:hr>83</ns3:hr>
          </ns3:TrackPointExtension>
        </extensions>
      </trkpt>
      <trkpt lat="36.8050181306898593902587890625" lon="-118.54717927984893321990966796875">
        <ele>1678.800048828125</ele>
        <time>2021-06-28T18:50:02.000Z</time>
        <extensions>
          <ns3:TrackPointExtension>
            <ns3:atemp>38.0</ns3:atemp>
            <ns3:hr>80</ns3:hr>
          </ns3:TrackPointExtension>
        </extensions>
      </trkpt>
      <trkpt lat="36.80498233996331691741943359375" lon="-118.54719738475978374481201171875">
        <ele>1678.5999755859375</ele>
        <time>2021-06-28T18:50:05.000Z</time>
        <extensions>
          <ns3:TrackPointExtension>
            <ns3:atemp>38.0</ns3:atemp>
            <ns3:hr>78</ns3:hr>
          </ns3:TrackPointExtension>
        </extensions>
      </trkpt>
      <trkpt lat="36.80497102439403533935546875" lon="-118.54719822295010089874267578125">
        <ele>1678.4000244140625</ele>
        <time>2021-06-28T18:50:06.000Z</time>
        <extensions>
          <ns3:TrackPointExtension>
            <ns3:atemp>38.0</ns3:atemp>
            <ns3:hr>77</ns3:hr>
          </ns3:TrackPointExtension>
        </extensions>
      </trkpt>
      <trkpt lat="36.804963983595371246337890625" lon="-118.54720056988298892974853515625">
        <ele>1677.800048828125</ele>
        <time>2021-06-28T18:50:07.000Z</time>
        <extensions>
          <ns3:TrackPointExtension>
            <ns3:atemp>38.0</ns3:atemp>
            <ns3:hr>76</ns3:hr>
          </ns3:TrackPointExtension>
        </extensions>
      </trkpt>
      <trkpt lat="36.80494914762675762176513671875" lon="-118.5471971333026885986328125">
        <ele>1677.199951171875</ele>
        <time>2021-06-28T18:50:09.000Z</time>
        <extensions>
          <ns3:TrackPointExtension>
            <ns3:atemp>38.0</ns3:atemp>
            <ns3:hr>77</ns3:hr>
          </ns3:TrackPointExtension>
        </extensions>
      </trkpt>
      <trkpt lat="36.80492333136498928070068359375" lon="-118.54716754518449306488037109375">
        <ele>1676.5999755859375</ele>
        <time>2021-06-28T18:50:13.000Z</time>
        <extensions>
          <ns3:TrackPointExtension>
            <ns3:atemp>38.0</ns3:atemp>
            <ns3:hr>77</ns3:hr>
          </ns3:TrackPointExtension>
        </extensions>
      </trkpt>
      <trkpt lat="36.8049554340541362762451171875" lon="-118.54711893014609813690185546875">
        <ele>1676.4000244140625</ele>
        <time>2021-06-28T18:50:21.000Z</time>
        <extensions>
          <ns3:TrackPointExtension>
            <ns3:atemp>38.0</ns3:atemp>
            <ns3:hr>80</ns3:hr>
          </ns3:TrackPointExtension>
        </extensions>
      </trkpt>
      <trkpt lat="36.80497362278401851654052734375" lon="-118.5470846481621265411376953125">
        <ele>1676.4000244140625</ele>
        <time>2021-06-28T18:50:24.000Z</time>
        <extensions>
          <ns3:TrackPointExtension>
            <ns3:atemp>38.0</ns3:atemp>
            <ns3:hr>84</ns3:hr>
          </ns3:TrackPointExtension>
        </extensions>
      </trkpt>
      <trkpt lat="36.80498535744845867156982421875" lon="-118.5470595024526119232177734375">
        <ele>1676.4000244140625</ele>
        <time>2021-06-28T18:50:26.000Z</time>
        <extensions>
          <ns3:TrackPointExtension>
            <ns3:atemp>38.0</ns3:atemp>
            <ns3:hr>87</ns3:hr>
          </ns3:TrackPointExtension>
        </extensions>
      </trkpt>
      <trkpt lat="36.804984770715236663818359375" lon="-118.547055982053279876708984375">
        <ele>1676.4000244140625</ele>
        <time>2021-06-28T18:50:27.000Z</time>
        <extensions>
          <ns3:TrackPointExtension>
            <ns3:atemp>38.0</ns3:atemp>
            <ns3:hr>84</ns3:hr>
          </ns3:TrackPointExtension>
        </extensions>
      </trkpt>
      <trkpt lat="36.80498938076198101043701171875" lon="-118.5470591671764850616455078125">
        <ele>1676.4000244140625</ele>
        <time>2021-06-28T18:50:29.000Z</time>
        <extensions>
          <ns3:TrackPointExtension>
            <ns3:atemp>38.0</ns3:atemp>
            <ns3:hr>87</ns3:hr>
          </ns3:TrackPointExtension>
        </extensions>
      </trkpt>
      <trkpt lat="36.8049805797636508941650390625" lon="-118.54707316495478153228759765625">
        <ele>1676.4000244140625</ele>
        <time>2021-06-28T18:50:31.000Z</time>
        <extensions>
          <ns3:TrackPointExtension>
            <ns3:atemp>38.0</ns3:atemp>
            <ns3:hr>90</ns3:hr>
          </ns3:TrackPointExtension>
        </extensions>
      </trkpt>
      <trkpt lat="36.804957948625087738037109375" lon="-118.547080792486667633056640625">
        <ele>1676.4000244140625</ele>
        <time>2021-06-28T18:50:34.000Z</time>
        <extensions>
          <ns3:TrackPointExtension>
            <ns3:atemp>38.0</ns3:atemp>
            <ns3:hr>93</ns3:hr>
          </ns3:TrackPointExtension>
        </extensions>
      </trkpt>
      <trkpt lat="36.80493808351457118988037109375" lon="-118.547093532979488372802734375">
        <ele>1676.199951171875</ele>
        <time>2021-06-28T18:50:36.000Z</time>
        <extensions>
          <ns3:TrackPointExtension>
            <ns3:atemp>38.0</ns3:atemp>
            <ns3:hr>95</ns3:hr>
          </ns3:TrackPointExtension>
        </extensions>
      </trkpt>
      <trkpt lat="36.80489860475063323974609375" lon="-118.547093532979488372802734375">
        <ele>1675.800048828125</ele>
        <time>2021-06-28T18:50:40.000Z</time>
        <extensions>
          <ns3:TrackPointExtension>
            <ns3:atemp>38.0</ns3:atemp>
            <ns3:hr>97</ns3:hr>
          </ns3:TrackPointExtension>
        </extensions>
      </trkpt>
      <trkpt lat="36.8048846907913684844970703125" lon="-118.5470725782215595245361328125">
        <ele>1675</ele>
        <time>2021-06-28T18:50:43.000Z</time>
        <extensions>
          <ns3:TrackPointExtension>
            <ns3:atemp>38.0</ns3:atemp>
            <ns3:hr>97</ns3:hr>
          </ns3:TrackPointExtension>
        </extensions>
      </trkpt>
      <trkpt lat="36.80487044155597686767578125" lon="-118.5470370389521121978759765625">
        <ele>1674.4000244140625</ele>
        <time>2021-06-28T18:50:46.000Z</time>
        <extensions>
          <ns3:TrackPointExtension>
            <ns3:atemp>38.0</ns3:atemp>
            <ns3:hr>95</ns3:hr>
          </ns3:TrackPointExtension>
        </extensions>
      </trkpt>
      <trkpt lat="36.8048504926264286041259765625" lon="-118.5470098815858364105224609375">
        <ele>1674.199951171875</ele>
        <time>2021-06-28T18:50:49.000Z</time>
        <extensions>
          <ns3:TrackPointExtension>
            <ns3:atemp>38.0</ns3:atemp>
            <ns3:hr>95</ns3:hr>
          </ns3:TrackPointExtension>
        </extensions>
      </trkpt>
      <trkpt lat="36.804823838174343109130859375" lon="-118.54694726876914501190185546875">
        <ele>1674</ele>
        <time>2021-06-28T18:50:53.000Z</time>
        <extensions>
          <ns3:TrackPointExtension>
            <ns3:atemp>38.0</ns3:atemp>
            <ns3:hr>99</ns3:hr>
          </ns3:TrackPointExtension>
        </extensions>
      </trkpt>
      <trkpt lat="36.804805733263492584228515625" lon="-118.5469101369380950927734375">
        <ele>1672.800048828125</ele>
        <time>2021-06-28T18:50:57.000Z</time>
        <extensions>
          <ns3:TrackPointExtension>
            <ns3:atemp>38.0</ns3:atemp>
            <ns3:hr>98</ns3:hr>
          </ns3:TrackPointExtension>
        </extensions>
      </trkpt>
      <trkpt lat="36.8047787435352802276611328125" lon="-118.546871244907379150390625">
        <ele>1671.800048828125</ele>
        <time>2021-06-28T18:51:00.000Z</time>
        <extensions>
          <ns3:TrackPointExtension>
            <ns3:atemp>38.0</ns3:atemp>
            <ns3:hr>99</ns3:hr>
          </ns3:TrackPointExtension>
        </extensions>
      </trkpt>
      <trkpt lat="36.80472132749855518341064453125" lon="-118.54681550525128841400146484375">
        <ele>1670.5999755859375</ele>
        <time>2021-06-28T18:51:06.000Z</time>
        <extensions>
          <ns3:TrackPointExtension>
            <ns3:atemp>38.0</ns3:atemp>
            <ns3:hr>100</ns3:hr>
          </ns3:TrackPointExtension>
        </extensions>
      </trkpt>
      <trkpt lat="36.80470037274062633514404296875" lon="-118.54677594266831874847412109375">
        <ele>1670</ele>
        <time>2021-06-28T18:51:09.000Z</time>
        <extensions>
          <ns3:TrackPointExtension>
            <ns3:atemp>38.0</ns3:atemp>
            <ns3:hr>97</ns3:hr>
          </ns3:TrackPointExtension>
        </extensions>
      </trkpt>
      <trkpt lat="36.8046955950558185577392578125" lon="-118.546750880777835845947265625">
        <ele>1669.800048828125</ele>
        <time>2021-06-28T18:51:11.000Z</time>
        <extensions>
          <ns3:TrackPointExtension>
            <ns3:atemp>38.0</ns3:atemp>
            <ns3:hr>99</ns3:hr>
          </ns3:TrackPointExtension>
        </extensions>
      </trkpt>
      <trkpt lat="36.8046935833990573883056640625" lon="-118.5467419959604740142822265625">
        <ele>1669.4000244140625</ele>
        <time>2021-06-28T18:51:12.000Z</time>
        <extensions>
          <ns3:TrackPointExtension>
            <ns3:atemp>38.0</ns3:atemp>
            <ns3:hr>99</ns3:hr>
          </ns3:TrackPointExtension>
        </extensions>
      </trkpt>
      <trkpt lat="36.80469685234129428863525390625" lon="-118.54673436842858791351318359375">
        <ele>1669.4000244140625</ele>
        <time>2021-06-28T18:51:13.000Z</time>
        <extensions>
          <ns3:TrackPointExtension>
            <ns3:atemp>38.0</ns3:atemp>
            <ns3:hr>98</ns3:hr>
          </ns3:TrackPointExtension>
        </extensions>
      </trkpt>
      <trkpt lat="36.8047110177576541900634765625" lon="-118.54671509005129337310791015625">
        <ele>1669</ele>
        <time>2021-06-28T18:51:15.000Z</time>
        <extensions>
          <ns3:TrackPointExtension>
            <ns3:atemp>38.0</ns3:atemp>
            <ns3:hr>98</ns3:hr>
          </ns3:TrackPointExtension>
        </extensions>
      </trkpt>
      <trkpt lat="36.80471445433795452117919921875" lon="-118.54670033790171146392822265625">
        <ele>1669</ele>
        <time>2021-06-28T18:51:16.000Z</time>
        <extensions>
          <ns3:TrackPointExtension>
            <ns3:atemp>38.0</ns3:atemp>
            <ns3:hr>98</ns3:hr>
          </ns3:TrackPointExtension>
        </extensions>
      </trkpt>
      <trkpt lat="36.80470976047217845916748046875" lon="-118.54666731320321559906005859375">
        <ele>1668.199951171875</ele>
        <time>2021-06-28T18:51:19.000Z</time>
        <extensions>
          <ns3:TrackPointExtension>
            <ns3:atemp>38.0</ns3:atemp>
            <ns3:hr>98</ns3:hr>
          </ns3:TrackPointExtension>
        </extensions>
      </trkpt>
      <trkpt lat="36.8047002889215946197509765625" lon="-118.54666094295680522918701171875">
        <ele>1668.199951171875</ele>
        <time>2021-06-28T18:51:20.000Z</time>
        <extensions>
          <ns3:TrackPointExtension>
            <ns3:atemp>38.0</ns3:atemp>
            <ns3:hr>99</ns3:hr>
          </ns3:TrackPointExtension>
        </extensions>
      </trkpt>
      <trkpt lat="36.804676987230777740478515625" lon="-118.54665222577750682830810546875">
        <ele>1667.5999755859375</ele>
        <time>2021-06-28T18:51:22.000Z</time>
        <extensions>
          <ns3:TrackPointExtension>
            <ns3:atemp>38.0</ns3:atemp>
            <ns3:hr>99</ns3:hr>
          </ns3:TrackPointExtension>
        </extensions>
      </trkpt>
      <trkpt lat="36.8045795895159244537353515625" lon="-118.54663093574345111846923828125">
        <ele>1667.4000244140625</ele>
        <time>2021-06-28T18:51:29.000Z</time>
        <extensions>
          <ns3:TrackPointExtension>
            <ns3:atemp>38.0</ns3:atemp>
            <ns3:hr>99</ns3:hr>
          </ns3:TrackPointExtension>
        </extensions>
      </trkpt>
      <trkpt lat="36.8045393563807010650634765625" lon="-118.5465974919497966766357421875">
        <ele>1667.4000244140625</ele>
        <time>2021-06-28T18:51:32.000Z</time>
        <extensions>
          <ns3:TrackPointExtension>
            <ns3:atemp>38.0</ns3:atemp>
            <ns3:hr>101</ns3:hr>
          </ns3:TrackPointExtension>
        </extensions>
      </trkpt>
      <trkpt lat="36.8045189045369625091552734375" lon="-118.54657578282058238983154296875">
        <ele>1667.199951171875</ele>
        <time>2021-06-28T18:51:35.000Z</time>
        <extensions>
          <ns3:TrackPointExtension>
            <ns3:atemp>38.0</ns3:atemp>
            <ns3:hr>97</ns3:hr>
          </ns3:TrackPointExtension>
        </extensions>
      </trkpt>
      <trkpt lat="36.80451211519539356231689453125" lon="-118.54656622745096683502197265625">
        <ele>1667</ele>
        <time>2021-06-28T18:51:36.000Z</time>
        <extensions>
          <ns3:TrackPointExtension>
            <ns3:atemp>38.0</ns3:atemp>
            <ns3:hr>95</ns3:hr>
          </ns3:TrackPointExtension>
        </extensions>
      </trkpt>
      <trkpt lat="36.8044585548341274261474609375" lon="-118.5465307720005512237548828125">
        <ele>1666.199951171875</ele>
        <time>2021-06-28T18:51:40.000Z</time>
        <extensions>
          <ns3:TrackPointExtension>
            <ns3:atemp>37.0</ns3:atemp>
            <ns3:hr>95</ns3:hr>
          </ns3:TrackPointExtension>
        </extensions>
      </trkpt>
      <trkpt lat="36.80443734861910343170166015625" lon="-118.546508811414241790771484375">
        <ele>1666</ele>
        <time>2021-06-28T18:51:42.000Z</time>
        <extensions>
          <ns3:TrackPointExtension>
            <ns3:atemp>37.0</ns3:atemp>
            <ns3:hr>99</ns3:hr>
          </ns3:TrackPointExtension>
        </extensions>
      </trkpt>
      <trkpt lat="36.8043710477650165557861328125" lon="-118.5464653931558132171630859375">
        <ele>1665</ele>
        <time>2021-06-28T18:51:48.000Z</time>
        <extensions>
          <ns3:TrackPointExtension>
            <ns3:atemp>37.0</ns3:atemp>
            <ns3:hr>98</ns3:hr>
          </ns3:TrackPointExtension>
        </extensions>
      </trkpt>
      <trkpt lat="36.80434196256101131439208984375" lon="-118.5464462824165821075439453125">
        <ele>1664.4000244140625</ele>
        <time>2021-06-28T18:51:51.000Z</time>
        <extensions>
          <ns3:TrackPointExtension>
            <ns3:atemp>37.0</ns3:atemp>
            <ns3:hr>96</ns3:hr>
          </ns3:TrackPointExtension>
        </extensions>
      </trkpt>
      <trkpt lat="36.80432796478271484375" lon="-118.54643731378018856048583984375">
        <ele>1664.4000244140625</ele>
        <time>2021-06-28T18:51:52.000Z</time>
        <extensions>
          <ns3:TrackPointExtension>
            <ns3:atemp>37.0</ns3:atemp>
            <ns3:hr>98</ns3:hr>
          </ns3:TrackPointExtension>
        </extensions>
      </trkpt>
      <trkpt lat="36.8043090216815471649169921875" lon="-118.5464288480579853057861328125">
        <ele>1664</ele>
        <time>2021-06-28T18:51:54.000Z</time>
        <extensions>
          <ns3:TrackPointExtension>
            <ns3:atemp>37.0</ns3:atemp>
            <ns3:hr>98</ns3:hr>
          </ns3:TrackPointExtension>
        </extensions>
      </trkpt>
      <trkpt lat="36.80427541024982929229736328125" lon="-118.54639372788369655609130859375">
        <ele>1663</ele>
        <time>2021-06-28T18:51:59.000Z</time>
        <extensions>
          <ns3:TrackPointExtension>
            <ns3:atemp>37.0</ns3:atemp>
            <ns3:hr>99</ns3:hr>
          </ns3:TrackPointExtension>
        </extensions>
      </trkpt>
      <trkpt lat="36.80426769889891147613525390625" lon="-118.54638903401792049407958984375">
        <ele>1663</ele>
        <time>2021-06-28T18:52:00.000Z</time>
        <extensions>
          <ns3:TrackPointExtension>
            <ns3:atemp>37.0</ns3:atemp>
            <ns3:hr>99</ns3:hr>
          </ns3:TrackPointExtension>
        </extensions>
      </trkpt>
      <trkpt lat="36.8042469955980777740478515625" lon="-118.5463460348546504974365234375">
        <ele>1662.5999755859375</ele>
        <time>2021-06-28T18:52:03.000Z</time>
        <extensions>
          <ns3:TrackPointExtension>
            <ns3:atemp>37.0</ns3:atemp>
            <ns3:hr>97</ns3:hr>
          </ns3:TrackPointExtension>
        </extensions>
      </trkpt>
      <trkpt lat="36.80423886515200138092041015625" lon="-118.5463158600032329559326171875">
        <ele>1662.199951171875</ele>
        <time>2021-06-28T18:52:05.000Z</time>
        <extensions>
          <ns3:TrackPointExtension>
            <ns3:atemp>37.0</ns3:atemp>
            <ns3:hr>98</ns3:hr>
          </ns3:TrackPointExtension>
        </extensions>
      </trkpt>
      <trkpt lat="36.80421355180442333221435546875" lon="-118.5462960787117481231689453125">
        <ele>1661.800048828125</ele>
        <time>2021-06-28T18:52:07.000Z</time>
        <extensions>
          <ns3:TrackPointExtension>
            <ns3:atemp>37.0</ns3:atemp>
            <ns3:hr>98</ns3:hr>
          </ns3:TrackPointExtension>
        </extensions>
      </trkpt>
      <trkpt lat="36.804194189608097076416015625" lon="-118.5462866909801959991455078125">
        <ele>1661.800048828125</ele>
        <time>2021-06-28T18:52:08.000Z</time>
        <extensions>
          <ns3:TrackPointExtension>
            <ns3:atemp>37.0</ns3:atemp>
            <ns3:hr>98</ns3:hr>
          </ns3:TrackPointExtension>
        </extensions>
      </trkpt>
      <trkpt lat="36.80417734198272228240966796875" lon="-118.54627654887735843658447265625">
        <ele>1661.800048828125</ele>
        <time>2021-06-28T18:52:09.000Z</time>
        <extensions>
          <ns3:TrackPointExtension>
            <ns3:atemp>37.0</ns3:atemp>
            <ns3:hr>99</ns3:hr>
          </ns3:TrackPointExtension>
        </extensions>
      </trkpt>
      <trkpt lat="36.80413761176168918609619140625" lon="-118.54625693522393703460693359375">
        <ele>1661.4000244140625</ele>
        <time>2021-06-28T18:52:12.000Z</time>
        <extensions>
          <ns3:TrackPointExtension>
            <ns3:atemp>37.0</ns3:atemp>
            <ns3:hr>98</ns3:hr>
          </ns3:TrackPointExtension>
        </extensions>
      </trkpt>
      <trkpt lat="36.80411280132830142974853515625" lon="-118.54626934044063091278076171875">
        <ele>1661.4000244140625</ele>
        <time>2021-06-28T18:52:14.000Z</time>
        <extensions>
          <ns3:TrackPointExtension>
            <ns3:atemp>37.0</ns3:atemp>
            <ns3:hr>99</ns3:hr>
          </ns3:TrackPointExtension>
        </extensions>
      </trkpt>
      <trkpt lat="36.804094277322292327880859375" lon="-118.546284846961498260498046875">
        <ele>1660.5999755859375</ele>
        <time>2021-06-28T18:52:16.000Z</time>
        <extensions>
          <ns3:TrackPointExtension>
            <ns3:atemp>37.0</ns3:atemp>
            <ns3:hr>97</ns3:hr>
          </ns3:TrackPointExtension>
        </extensions>
      </trkpt>
      <trkpt lat="36.80405505001544952392578125" lon="-118.5462652333080768585205078125">
        <ele>1660.199951171875</ele>
        <time>2021-06-28T18:52:22.000Z</time>
        <extensions>
          <ns3:TrackPointExtension>
            <ns3:atemp>37.0</ns3:atemp>
            <ns3:hr>97</ns3:hr>
          </ns3:TrackPointExtension>
        </extensions>
      </trkpt>
      <trkpt lat="36.80402110330760478973388671875" lon="-118.54625894688069820404052734375">
        <ele>1659.800048828125</ele>
        <time>2021-06-28T18:52:26.000Z</time>
        <extensions>
          <ns3:TrackPointExtension>
            <ns3:atemp>37.0</ns3:atemp>
            <ns3:hr>94</ns3:hr>
          </ns3:TrackPointExtension>
        </extensions>
      </trkpt>
      <trkpt lat="36.8040096201002597808837890625" lon="-118.54627219028770923614501953125">
        <ele>1659.5999755859375</ele>
        <time>2021-06-28T18:52:27.000Z</time>
        <extensions>
          <ns3:TrackPointExtension>
            <ns3:atemp>37.0</ns3:atemp>
            <ns3:hr>97</ns3:hr>
          </ns3:TrackPointExtension>
        </extensions>
      </trkpt>
      <trkpt lat="36.803998388350009918212890625" lon="-118.54628124274313449859619140625">
        <ele>1659.4000244140625</ele>
        <time>2021-06-28T18:52:28.000Z</time>
        <extensions>
          <ns3:TrackPointExtension>
            <ns3:atemp>37.0</ns3:atemp>
            <ns3:hr>96</ns3:hr>
          </ns3:TrackPointExtension>
        </extensions>
      </trkpt>
      <trkpt lat="36.80395807139575481414794921875" lon="-118.54628409259021282196044921875">
        <ele>1659.199951171875</ele>
        <time>2021-06-28T18:52:32.000Z</time>
        <extensions>
          <ns3:TrackPointExtension>
            <ns3:atemp>37.0</ns3:atemp>
            <ns3:hr>96</ns3:hr>
          </ns3:TrackPointExtension>
        </extensions>
      </trkpt>
      <trkpt lat="36.8039479292929172515869140625" lon="-118.546282164752483367919921875">
        <ele>1659.199951171875</ele>
        <time>2021-06-28T18:52:33.000Z</time>
        <extensions>
          <ns3:TrackPointExtension>
            <ns3:atemp>37.0</ns3:atemp>
            <ns3:hr>98</ns3:hr>
          </ns3:TrackPointExtension>
        </extensions>
      </trkpt>
      <trkpt lat="36.803919263184070587158203125" lon="-118.54627805761992931365966796875">
        <ele>1658.5999755859375</ele>
        <time>2021-06-28T18:52:37.000Z</time>
        <extensions>
          <ns3:TrackPointExtension>
            <ns3:atemp>37.0</ns3:atemp>
            <ns3:hr>100</ns3:hr>
          </ns3:TrackPointExtension>
        </extensions>
      </trkpt>
      <trkpt lat="36.80389621295034885406494140625" lon="-118.5462625510990619659423828125">
        <ele>1658.199951171875</ele>
        <time>2021-06-28T18:52:40.000Z</time>
        <extensions>
          <ns3:TrackPointExtension>
            <ns3:atemp>37.0</ns3:atemp>
            <ns3:hr>102</ns3:hr>
          </ns3:TrackPointExtension>
        </extensions>
      </trkpt>
      <trkpt lat="36.80385413579642772674560546875" lon="-118.5462360642850399017333984375">
        <ele>1657.800048828125</ele>
        <time>2021-06-28T18:52:44.000Z</time>
        <extensions>
          <ns3:TrackPointExtension>
            <ns3:atemp>37.0</ns3:atemp>
            <ns3:hr>105</ns3:hr>
          </ns3:TrackPointExtension>
        </extensions>
      </trkpt>
      <trkpt lat="36.80383519269526004791259765625" lon="-118.5462357290089130401611328125">
        <ele>1657.4000244140625</ele>
        <time>2021-06-28T18:52:46.000Z</time>
        <extensions>
          <ns3:TrackPointExtension>
            <ns3:atemp>37.0</ns3:atemp>
            <ns3:hr>104</ns3:hr>
          </ns3:TrackPointExtension>
        </extensions>
      </trkpt>
      <trkpt lat="36.8037303350865840911865234375" lon="-118.5462357290089130401611328125">
        <ele>1656.4000244140625</ele>
        <time>2021-06-28T18:52:54.000Z</time>
        <extensions>
          <ns3:TrackPointExtension>
            <ns3:atemp>37.0</ns3:atemp>
            <ns3:hr>104</ns3:hr>
          </ns3:TrackPointExtension>
        </extensions>
      </trkpt>
      <trkpt lat="36.80372052825987339019775390625" lon="-118.54624067433178424835205078125">
        <ele>1655.800048828125</ele>
        <time>2021-06-28T18:52:55.000Z</time>
        <extensions>
          <ns3:TrackPointExtension>
            <ns3:atemp>37.0</ns3:atemp>
            <ns3:hr>104</ns3:hr>
          </ns3:TrackPointExtension>
        </extensions>
      </trkpt>
      <trkpt lat="36.8036880902945995330810546875" lon="-118.546220473945140838623046875">
        <ele>1655.4000244140625</ele>
        <time>2021-06-28T18:52:58.000Z</time>
        <extensions>
          <ns3:TrackPointExtension>
            <ns3:atemp>37.0</ns3:atemp>
            <ns3:hr>105</ns3:hr>
          </ns3:TrackPointExtension>
        </extensions>
      </trkpt>
      <trkpt lat="36.8036770261824131011962890625" lon="-118.54621879756450653076171875">
        <ele>1655.4000244140625</ele>
        <time>2021-06-28T18:52:59.000Z</time>
        <extensions>
          <ns3:TrackPointExtension>
            <ns3:atemp>37.0</ns3:atemp>
            <ns3:hr>107</ns3:hr>
          </ns3:TrackPointExtension>
        </extensions>
      </trkpt>
      <trkpt lat="36.80366772226989269256591796875" lon="-118.5462182946503162384033203125">
        <ele>1654.5999755859375</ele>
        <time>2021-06-28T18:53:01.000Z</time>
        <extensions>
          <ns3:TrackPointExtension>
            <ns3:atemp>37.0</ns3:atemp>
            <ns3:hr>104</ns3:hr>
          </ns3:TrackPointExtension>
        </extensions>
      </trkpt>
      <trkpt lat="36.8036649562418460845947265625" lon="-118.54621955193579196929931640625">
        <ele>1654.5999755859375</ele>
        <time>2021-06-28T18:53:02.000Z</time>
        <extensions>
          <ns3:TrackPointExtension>
            <ns3:atemp>37.0</ns3:atemp>
            <ns3:hr>104</ns3:hr>
          </ns3:TrackPointExtension>
        </extensions>
      </trkpt>
      <trkpt lat="36.8036505393683910369873046875" lon="-118.54622424580156803131103515625">
        <ele>1654.4000244140625</ele>
        <time>2021-06-28T18:53:06.000Z</time>
        <extensions>
          <ns3:TrackPointExtension>
            <ns3:atemp>37.0</ns3:atemp>
            <ns3:hr>104</ns3:hr>
          </ns3:TrackPointExtension>
        </extensions>
      </trkpt>
      <trkpt lat="36.80364492349326610565185546875" lon="-118.54622977785766124725341796875">
        <ele>1654.199951171875</ele>
        <time>2021-06-28T18:53:07.000Z</time>
        <extensions>
          <ns3:TrackPointExtension>
            <ns3:atemp>37.0</ns3:atemp>
            <ns3:hr>103</ns3:hr>
          </ns3:TrackPointExtension>
        </extensions>
      </trkpt>
      <trkpt lat="36.80363654159009456634521484375" lon="-118.5462280176579952239990234375">
        <ele>1654.199951171875</ele>
        <time>2021-06-28T18:53:08.000Z</time>
        <extensions>
          <ns3:TrackPointExtension>
            <ns3:atemp>37.0</ns3:atemp>
            <ns3:hr>104</ns3:hr>
          </ns3:TrackPointExtension>
        </extensions>
      </trkpt>
      <trkpt lat="36.8036072887480258941650390625" lon="-118.54626439511775970458984375">
        <ele>1653.199951171875</ele>
        <time>2021-06-28T18:53:12.000Z</time>
        <extensions>
          <ns3:TrackPointExtension>
            <ns3:atemp>36.0</ns3:atemp>
            <ns3:hr>102</ns3:hr>
          </ns3:TrackPointExtension>
        </extensions>
      </trkpt>
      <trkpt lat="36.8035841546952724456787109375" lon="-118.54630923829972743988037109375">
        <ele>1652.800048828125</ele>
        <time>2021-06-28T18:53:14.000Z</time>
        <extensions>
          <ns3:TrackPointExtension>
            <ns3:atemp>36.0</ns3:atemp>
            <ns3:hr>99</ns3:hr>
          </ns3:TrackPointExtension>
        </extensions>
      </trkpt>
      <trkpt lat="36.80355641059577465057373046875" lon="-118.546334467828273773193359375">
        <ele>1652.4000244140625</ele>
        <time>2021-06-28T18:53:17.000Z</time>
        <extensions>
          <ns3:TrackPointExtension>
            <ns3:atemp>36.0</ns3:atemp>
            <ns3:hr>95</ns3:hr>
          </ns3:TrackPointExtension>
        </extensions>
      </trkpt>
      <trkpt lat="36.8035378865897655487060546875" lon="-118.54632734321057796478271484375">
        <ele>1652.4000244140625</ele>
        <time>2021-06-28T18:53:19.000Z</time>
        <extensions>
          <ns3:TrackPointExtension>
            <ns3:atemp>36.0</ns3:atemp>
            <ns3:hr>91</ns3:hr>
          </ns3:TrackPointExtension>
        </extensions>
      </trkpt>
      <trkpt lat="36.803529672324657440185546875" lon="-118.54636120609939098358154296875">
        <ele>1652</ele>
        <time>2021-06-28T18:53:21.000Z</time>
        <extensions>
          <ns3:TrackPointExtension>
            <ns3:atemp>36.0</ns3:atemp>
            <ns3:hr>89</ns3:hr>
          </ns3:TrackPointExtension>
        </extensions>
      </trkpt>
      <trkpt lat="36.80352724157273769378662109375" lon="-118.54636908508837223052978515625">
        <ele>1652</ele>
        <time>2021-06-28T18:53:22.000Z</time>
        <extensions>
          <ns3:TrackPointExtension>
            <ns3:atemp>36.0</ns3:atemp>
            <ns3:hr>89</ns3:hr>
          </ns3:TrackPointExtension>
        </extensions>
      </trkpt>
      <trkpt lat="36.8035085499286651611328125" lon="-118.546408228576183319091796875">
        <ele>1651.5999755859375</ele>
        <time>2021-06-28T18:53:25.000Z</time>
        <extensions>
          <ns3:TrackPointExtension>
            <ns3:atemp>36.0</ns3:atemp>
            <ns3:hr>88</ns3:hr>
          </ns3:TrackPointExtension>
        </extensions>
      </trkpt>
      <trkpt lat="36.8034939654171466827392578125" lon="-118.54642909951508045196533203125">
        <ele>1651.4000244140625</ele>
        <time>2021-06-28T18:53:27.000Z</time>
        <extensions>
          <ns3:TrackPointExtension>
            <ns3:atemp>36.0</ns3:atemp>
            <ns3:hr>88</ns3:hr>
          </ns3:TrackPointExtension>
        </extensions>
      </trkpt>
      <trkpt lat="36.80345633067190647125244140625" lon="-118.54646732099354267120361328125">
        <ele>1651</ele>
        <time>2021-06-28T18:53:30.000Z</time>
        <extensions>
          <ns3:TrackPointExtension>
            <ns3:atemp>36.0</ns3:atemp>
            <ns3:hr>88</ns3:hr>
          </ns3:TrackPointExtension>
        </extensions>
      </trkpt>
      <trkpt lat="36.80343009531497955322265625" lon="-118.54650872759521007537841796875">
        <ele>1650.800048828125</ele>
        <time>2021-06-28T18:53:33.000Z</time>
        <extensions>
          <ns3:TrackPointExtension>
            <ns3:atemp>36.0</ns3:atemp>
            <ns3:hr>89</ns3:hr>
          </ns3:TrackPointExtension>
        </extensions>
      </trkpt>
      <trkpt lat="36.803424060344696044921875" lon="-118.54651761241257190704345703125">
        <ele>1650.199951171875</ele>
        <time>2021-06-28T18:53:34.000Z</time>
        <extensions>
          <ns3:TrackPointExtension>
            <ns3:atemp>36.0</ns3:atemp>
            <ns3:hr>88</ns3:hr>
          </ns3:TrackPointExtension>
        </extensions>
      </trkpt>
      <trkpt lat="36.80339790880680084228515625" lon="-118.5465562529861927032470703125">
        <ele>1650</ele>
        <time>2021-06-28T18:53:38.000Z</time>
        <extensions>
          <ns3:TrackPointExtension>
            <ns3:atemp>36.0</ns3:atemp>
            <ns3:hr>89</ns3:hr>
          </ns3:TrackPointExtension>
        </extensions>
      </trkpt>
      <trkpt lat="36.80338290520012378692626953125" lon="-118.5466043651103973388671875">
        <ele>1649.800048828125</ele>
        <time>2021-06-28T18:53:41.000Z</time>
        <extensions>
          <ns3:TrackPointExtension>
            <ns3:atemp>36.0</ns3:atemp>
            <ns3:hr>88</ns3:hr>
          </ns3:TrackPointExtension>
        </extensions>
      </trkpt>
      <trkpt lat="36.80336865596473217010498046875" lon="-118.5466437600553035736083984375">
        <ele>1649.5999755859375</ele>
        <time>2021-06-28T18:53:44.000Z</time>
        <extensions>
          <ns3:TrackPointExtension>
            <ns3:atemp>36.0</ns3:atemp>
            <ns3:hr>88</ns3:hr>
          </ns3:TrackPointExtension>
        </extensions>
      </trkpt>
      <trkpt lat="36.80334283970296382904052734375" lon="-118.54666379280388355255126953125">
        <ele>1649.4000244140625</ele>
        <time>2021-06-28T18:53:47.000Z</time>
        <extensions>
          <ns3:TrackPointExtension>
            <ns3:atemp>36.0</ns3:atemp>
            <ns3:hr>86</ns3:hr>
          </ns3:TrackPointExtension>
        </extensions>
      </trkpt>
      <trkpt lat="36.80334267206490039825439453125" lon="-118.54666060768067836761474609375">
        <ele>1649.199951171875</ele>
        <time>2021-06-28T18:53:49.000Z</time>
        <extensions>
          <ns3:TrackPointExtension>
            <ns3:atemp>36.0</ns3:atemp>
            <ns3:hr>89</ns3:hr>
          </ns3:TrackPointExtension>
        </extensions>
      </trkpt>
      <trkpt lat="36.803303025662899017333984375" lon="-118.5466772876679897308349609375">
        <ele>1648.800048828125</ele>
        <time>2021-06-28T18:53:54.000Z</time>
        <extensions>
          <ns3:TrackPointExtension>
            <ns3:atemp>36.0</ns3:atemp>
            <ns3:hr>90</ns3:hr>
          </ns3:TrackPointExtension>
        </extensions>
      </trkpt>
      <trkpt lat="36.8032934702932834625244140625" lon="-118.546696566045284271240234375">
        <ele>1648.5999755859375</ele>
        <time>2021-06-28T18:53:55.000Z</time>
        <extensions>
          <ns3:TrackPointExtension>
            <ns3:atemp>36.0</ns3:atemp>
            <ns3:hr>91</ns3:hr>
          </ns3:TrackPointExtension>
        </extensions>
      </trkpt>
      <trkpt lat="36.8032773770391941070556640625" lon="-118.5467362962663173675537109375">
        <ele>1648.4000244140625</ele>
        <time>2021-06-28T18:53:59.000Z</time>
        <extensions>
          <ns3:TrackPointExtension>
            <ns3:atemp>36.0</ns3:atemp>
            <ns3:hr>89</ns3:hr>
          </ns3:TrackPointExtension>
        </extensions>
      </trkpt>
      <trkpt lat="36.80326522327959537506103515625" lon="-118.546738810837268829345703125">
        <ele>1648.4000244140625</ele>
        <time>2021-06-28T18:54:01.000Z</time>
        <extensions>
          <ns3:TrackPointExtension>
            <ns3:atemp>36.0</ns3:atemp>
            <ns3:hr>92</ns3:hr>
          </ns3:TrackPointExtension>
        </extensions>
      </trkpt>
      <trkpt lat="36.80322046391665935516357421875" lon="-118.54675482027232646942138671875">
        <ele>1648.199951171875</ele>
        <time>2021-06-28T18:54:05.000Z</time>
        <extensions>
          <ns3:TrackPointExtension>
            <ns3:atemp>36.0</ns3:atemp>
            <ns3:hr>91</ns3:hr>
          </ns3:TrackPointExtension>
        </extensions>
      </trkpt>
      <trkpt lat="36.80317662656307220458984375" lon="-118.54677736759185791015625">
        <ele>1647.5999755859375</ele>
        <time>2021-06-28T18:54:09.000Z</time>
        <extensions>
          <ns3:TrackPointExtension>
            <ns3:atemp>36.0</ns3:atemp>
            <ns3:hr>92</ns3:hr>
          </ns3:TrackPointExtension>
        </extensions>
      </trkpt>
      <trkpt lat="36.80313563905656337738037109375" lon="-118.54676420800387859344482421875">
        <ele>1647</ele>
        <time>2021-06-28T18:54:13.000Z</time>
        <extensions>
          <ns3:TrackPointExtension>
            <ns3:atemp>36.0</ns3:atemp>
            <ns3:hr>92</ns3:hr>
          </ns3:TrackPointExtension>
        </extensions>
      </trkpt>
      <trkpt lat="36.80311468429863452911376953125" lon="-118.5467517189681529998779296875">
        <ele>1646.5999755859375</ele>
        <time>2021-06-28T18:54:15.000Z</time>
        <extensions>
          <ns3:TrackPointExtension>
            <ns3:atemp>36.0</ns3:atemp>
            <ns3:hr>91</ns3:hr>
          </ns3:TrackPointExtension>
        </extensions>
      </trkpt>
      <trkpt lat="36.803074367344379425048828125" lon="-118.5467265732586383819580078125">
        <ele>1646</ele>
        <time>2021-06-28T18:54:18.000Z</time>
        <extensions>
          <ns3:TrackPointExtension>
            <ns3:atemp>36.0</ns3:atemp>
            <ns3:hr>88</ns3:hr>
          </ns3:TrackPointExtension>
        </extensions>
      </trkpt>
      <trkpt lat="36.8030530773103237152099609375" lon="-118.54671777226030826568603515625">
        <ele>1645.800048828125</ele>
        <time>2021-06-28T18:54:20.000Z</time>
        <extensions>
          <ns3:TrackPointExtension>
            <ns3:atemp>36.0</ns3:atemp>
            <ns3:hr>88</ns3:hr>
          </ns3:TrackPointExtension>
        </extensions>
      </trkpt>
      <trkpt lat="36.8030410073697566986083984375" lon="-118.54671374894678592681884765625">
        <ele>1645.199951171875</ele>
        <time>2021-06-28T18:54:21.000Z</time>
        <extensions>
          <ns3:TrackPointExtension>
            <ns3:atemp>36.0</ns3:atemp>
            <ns3:hr>88</ns3:hr>
          </ns3:TrackPointExtension>
        </extensions>
      </trkpt>
      <trkpt lat="36.80302600376307964324951171875" lon="-118.54671793989837169647216796875">
        <ele>1645.199951171875</ele>
        <time>2021-06-28T18:54:22.000Z</time>
        <extensions>
          <ns3:TrackPointExtension>
            <ns3:atemp>36.0</ns3:atemp>
            <ns3:hr>86</ns3:hr>
          </ns3:TrackPointExtension>
        </extensions>
      </trkpt>
      <trkpt lat="36.802964396774768829345703125" lon="-118.54676085524260997772216796875">
        <ele>1644.4000244140625</ele>
        <time>2021-06-28T18:54:27.000Z</time>
        <extensions>
          <ns3:TrackPointExtension>
            <ns3:atemp>36.0</ns3:atemp>
            <ns3:hr>88</ns3:hr>
          </ns3:TrackPointExtension>
        </extensions>
      </trkpt>
      <trkpt lat="36.80295526050031185150146484375" lon="-118.54676730930805206298828125">
        <ele>1644.199951171875</ele>
        <time>2021-06-28T18:54:28.000Z</time>
        <extensions>
          <ns3:TrackPointExtension>
            <ns3:atemp>36.0</ns3:atemp>
            <ns3:hr>88</ns3:hr>
          </ns3:TrackPointExtension>
        </extensions>
      </trkpt>
      <trkpt lat="36.802902705967426300048828125" lon="-118.54680125601589679718017578125">
        <ele>1643.199951171875</ele>
        <time>2021-06-28T18:54:33.000Z</time>
        <extensions>
          <ns3:TrackPointExtension>
            <ns3:atemp>36.0</ns3:atemp>
            <ns3:hr>88</ns3:hr>
          </ns3:TrackPointExtension>
        </extensions>
      </trkpt>
      <trkpt lat="36.80289558134973049163818359375" lon="-118.54680142365396022796630859375">
        <ele>1642.800048828125</ele>
        <time>2021-06-28T18:54:34.000Z</time>
        <extensions>
          <ns3:TrackPointExtension>
            <ns3:atemp>36.0</ns3:atemp>
            <ns3:hr>89</ns3:hr>
          </ns3:TrackPointExtension>
        </extensions>
      </trkpt>
      <trkpt lat="36.80282450281083583831787109375" lon="-118.54680209420621395111083984375">
        <ele>1642.4000244140625</ele>
        <time>2021-06-28T18:54:39.000Z</time>
        <extensions>
          <ns3:TrackPointExtension>
            <ns3:atemp>36.0</ns3:atemp>
            <ns3:hr>90</ns3:hr>
          </ns3:TrackPointExtension>
        </extensions>
      </trkpt>
      <trkpt lat="36.80278913117945194244384765625" lon="-118.5468067042529582977294921875">
        <ele>1641.800048828125</ele>
        <time>2021-06-28T18:54:41.000Z</time>
        <extensions>
          <ns3:TrackPointExtension>
            <ns3:atemp>36.0</ns3:atemp>
            <ns3:hr>92</ns3:hr>
          </ns3:TrackPointExtension>
        </extensions>
      </trkpt>
      <trkpt lat="36.8027553521096706390380859375" lon="-118.546825982630252838134765625">
        <ele>1641.199951171875</ele>
        <time>2021-06-28T18:54:44.000Z</time>
        <extensions>
          <ns3:TrackPointExtension>
            <ns3:atemp>36.0</ns3:atemp>
            <ns3:hr>95</ns3:hr>
          </ns3:TrackPointExtension>
        </extensions>
      </trkpt>
      <trkpt lat="36.8027385883033275604248046875" lon="-118.5468610189855098724365234375">
        <ele>1640.5999755859375</ele>
        <time>2021-06-28T18:54:46.000Z</time>
        <extensions>
          <ns3:TrackPointExtension>
            <ns3:atemp>36.0</ns3:atemp>
            <ns3:hr>96</ns3:hr>
          </ns3:TrackPointExtension>
        </extensions>
      </trkpt>
      <trkpt lat="36.80271218530833721160888671875" lon="-118.54694441892206668853759765625">
        <ele>1639.5999755859375</ele>
        <time>2021-06-28T18:54:51.000Z</time>
        <extensions>
          <ns3:TrackPointExtension>
            <ns3:atemp>36.0</ns3:atemp>
            <ns3:hr>94</ns3:hr>
          </ns3:TrackPointExtension>
        </extensions>
      </trkpt>
      <trkpt lat="36.80269718170166015625" lon="-118.54696403257548809051513671875">
        <ele>1639.199951171875</ele>
        <time>2021-06-28T18:54:53.000Z</time>
        <extensions>
          <ns3:TrackPointExtension>
            <ns3:atemp>36.0</ns3:atemp>
            <ns3:hr>94</ns3:hr>
          </ns3:TrackPointExtension>
        </extensions>
      </trkpt>
      <trkpt lat="36.80265217088162899017333984375" lon="-118.5470066964626312255859375">
        <ele>1638.5999755859375</ele>
        <time>2021-06-28T18:54:57.000Z</time>
        <extensions>
          <ns3:TrackPointExtension>
            <ns3:atemp>36.0</ns3:atemp>
            <ns3:hr>94</ns3:hr>
          </ns3:TrackPointExtension>
        </extensions>
      </trkpt>
      <trkpt lat="36.80264697410166263580322265625" lon="-118.547018431127071380615234375">
        <ele>1638.5999755859375</ele>
        <time>2021-06-28T18:54:58.000Z</time>
        <extensions>
          <ns3:TrackPointExtension>
            <ns3:atemp>36.0</ns3:atemp>
            <ns3:hr>94</ns3:hr>
          </ns3:TrackPointExtension>
        </extensions>
      </trkpt>
      <trkpt lat="36.80263909511268138885498046875" lon="-118.54704148136079311370849609375">
        <ele>1638.4000244140625</ele>
        <time>2021-06-28T18:55:00.000Z</time>
        <extensions>
          <ns3:TrackPointExtension>
            <ns3:atemp>36.0</ns3:atemp>
            <ns3:hr>93</ns3:hr>
          </ns3:TrackPointExtension>
        </extensions>
      </trkpt>
      <trkpt lat="36.80262819863855838775634765625" lon="-118.54708489961922168731689453125">
        <ele>1637.800048828125</ele>
        <time>2021-06-28T18:55:03.000Z</time>
        <extensions>
          <ns3:TrackPointExtension>
            <ns3:atemp>36.0</ns3:atemp>
            <ns3:hr>95</ns3:hr>
          </ns3:TrackPointExtension>
        </extensions>
      </trkpt>
      <trkpt lat="36.8026199005544185638427734375" lon="-118.54712898842990398406982421875">
        <ele>1637.199951171875</ele>
        <time>2021-06-28T18:55:05.000Z</time>
        <extensions>
          <ns3:TrackPointExtension>
            <ns3:atemp>36.0</ns3:atemp>
            <ns3:hr>95</ns3:hr>
          </ns3:TrackPointExtension>
        </extensions>
      </trkpt>
      <trkpt lat="36.80259282700717449188232421875" lon="-118.54719922877848148345947265625">
        <ele>1636.199951171875</ele>
        <time>2021-06-28T18:55:09.000Z</time>
        <extensions>
          <ns3:TrackPointExtension>
            <ns3:atemp>36.0</ns3:atemp>
            <ns3:hr>95</ns3:hr>
          </ns3:TrackPointExtension>
        </extensions>
      </trkpt>
      <trkpt lat="36.80257849395275115966796875" lon="-118.5472398810088634490966796875">
        <ele>1635.199951171875</ele>
        <time>2021-06-28T18:55:12.000Z</time>
        <extensions>
          <ns3:TrackPointExtension>
            <ns3:atemp>36.0</ns3:atemp>
            <ns3:hr>95</ns3:hr>
          </ns3:TrackPointExtension>
        </extensions>
      </trkpt>
      <trkpt lat="36.802547983825206756591796875" lon="-118.5472588241100311279296875">
        <ele>1634.5999755859375</ele>
        <time>2021-06-28T18:55:16.000Z</time>
        <extensions>
          <ns3:TrackPointExtension>
            <ns3:atemp>36.0</ns3:atemp>
            <ns3:hr>95</ns3:hr>
          </ns3:TrackPointExtension>
        </extensions>
      </trkpt>
      <trkpt lat="36.8025390990078449249267578125" lon="-118.547265194356441497802734375">
        <ele>1634.5999755859375</ele>
        <time>2021-06-28T18:55:17.000Z</time>
        <extensions>
          <ns3:TrackPointExtension>
            <ns3:atemp>36.0</ns3:atemp>
            <ns3:hr>95</ns3:hr>
          </ns3:TrackPointExtension>
        </extensions>
      </trkpt>
      <trkpt lat="36.80253013037145137786865234375" lon="-118.54726754128932952880859375">
        <ele>1634.5999755859375</ele>
        <time>2021-06-28T18:55:18.000Z</time>
        <extensions>
          <ns3:TrackPointExtension>
            <ns3:atemp>36.0</ns3:atemp>
            <ns3:hr>94</ns3:hr>
          </ns3:TrackPointExtension>
        </extensions>
      </trkpt>
      <trkpt lat="36.80250146426260471343994140625" lon="-118.547287322580814361572265625">
        <ele>1634</ele>
        <time>2021-06-28T18:55:21.000Z</time>
        <extensions>
          <ns3:TrackPointExtension>
            <ns3:atemp>36.0</ns3:atemp>
            <ns3:hr>94</ns3:hr>
          </ns3:TrackPointExtension>
        </extensions>
      </trkpt>
      <trkpt lat="36.80247967131435871124267578125" lon="-118.54730534367263317108154296875">
        <ele>1633.800048828125</ele>
        <time>2021-06-28T18:55:23.000Z</time>
        <extensions>
          <ns3:TrackPointExtension>
            <ns3:atemp>36.0</ns3:atemp>
            <ns3:hr>94</ns3:hr>
          </ns3:TrackPointExtension>
        </extensions>
      </trkpt>
      <trkpt lat="36.802433989942073822021484375" lon="-118.54732914827764034271240234375">
        <ele>1633.5999755859375</ele>
        <time>2021-06-28T18:55:26.000Z</time>
        <extensions>
          <ns3:TrackPointExtension>
            <ns3:atemp>36.0</ns3:atemp>
            <ns3:hr>92</ns3:hr>
          </ns3:TrackPointExtension>
        </extensions>
      </trkpt>
      <trkpt lat="36.80239937268197536468505859375" lon="-118.5473418049514293670654296875">
        <ele>1633.5999755859375</ele>
        <time>2021-06-28T18:55:29.000Z</time>
        <extensions>
          <ns3:TrackPointExtension>
            <ns3:atemp>36.0</ns3:atemp>
            <ns3:hr>92</ns3:hr>
          </ns3:TrackPointExtension>
        </extensions>
      </trkpt>
      <trkpt lat="36.80236467160284519195556640625" lon="-118.54735915549099445343017578125">
        <ele>1633.4000244140625</ele>
        <time>2021-06-28T18:55:32.000Z</time>
        <extensions>
          <ns3:TrackPointExtension>
            <ns3:atemp>36.0</ns3:atemp>
            <ns3:hr>92</ns3:hr>
          </ns3:TrackPointExtension>
        </extensions>
      </trkpt>
      <trkpt lat="36.80233575403690338134765625" lon="-118.54737960733473300933837890625">
        <ele>1633.4000244140625</ele>
        <time>2021-06-28T18:55:35.000Z</time>
        <extensions>
          <ns3:TrackPointExtension>
            <ns3:atemp>36.0</ns3:atemp>
            <ns3:hr>92</ns3:hr>
          </ns3:TrackPointExtension>
        </extensions>
      </trkpt>
      <trkpt lat="36.802324354648590087890625" lon="-118.54739251546561717987060546875">
        <ele>1633.5999755859375</ele>
        <time>2021-06-28T18:55:36.000Z</time>
        <extensions>
          <ns3:TrackPointExtension>
            <ns3:atemp>36.0</ns3:atemp>
            <ns3:hr>95</ns3:hr>
          </ns3:TrackPointExtension>
        </extensions>
      </trkpt>
      <trkpt lat="36.802312619984149932861328125" lon="-118.5473981313407421112060546875">
        <ele>1633.5999755859375</ele>
        <time>2021-06-28T18:55:37.000Z</time>
        <extensions>
          <ns3:TrackPointExtension>
            <ns3:atemp>36.0</ns3:atemp>
            <ns3:hr>92</ns3:hr>
          </ns3:TrackPointExtension>
        </extensions>
      </trkpt>
      <trkpt lat="36.80229677818715572357177734375" lon="-118.54740567505359649658203125">
        <ele>1633.5999755859375</ele>
        <time>2021-06-28T18:55:38.000Z</time>
        <extensions>
          <ns3:TrackPointExtension>
            <ns3:atemp>36.0</ns3:atemp>
            <ns3:hr>93</ns3:hr>
          </ns3:TrackPointExtension>
        </extensions>
      </trkpt>
      <trkpt lat="36.802253611385822296142578125" lon="-118.5474480874836444854736328125">
        <ele>1633.5999755859375</ele>
        <time>2021-06-28T18:55:41.000Z</time>
        <extensions>
          <ns3:TrackPointExtension>
            <ns3:atemp>36.0</ns3:atemp>
            <ns3:hr>90</ns3:hr>
          </ns3:TrackPointExtension>
        </extensions>
      </trkpt>
      <trkpt lat="36.80223274044692516326904296875" lon="-118.54747130535542964935302734375">
        <ele>1633</ele>
        <time>2021-06-28T18:55:43.000Z</time>
        <extensions>
          <ns3:TrackPointExtension>
            <ns3:atemp>36.0</ns3:atemp>
            <ns3:hr>92</ns3:hr>
          </ns3:TrackPointExtension>
        </extensions>
      </trkpt>
      <trkpt lat="36.80222033523023128509521484375" lon="-118.54748337529599666595458984375">
        <ele>1633</ele>
        <time>2021-06-28T18:55:44.000Z</time>
        <extensions>
          <ns3:TrackPointExtension>
            <ns3:atemp>36.0</ns3:atemp>
            <ns3:hr>94</ns3:hr>
          </ns3:TrackPointExtension>
        </extensions>
      </trkpt>
      <trkpt lat="36.80220055393874645233154296875" lon="-118.5474806092679500579833984375">
        <ele>1632.800048828125</ele>
        <time>2021-06-28T18:55:46.000Z</time>
        <extensions>
          <ns3:TrackPointExtension>
            <ns3:atemp>36.0</ns3:atemp>
            <ns3:hr>95</ns3:hr>
          </ns3:TrackPointExtension>
        </extensions>
      </trkpt>
      <trkpt lat="36.8021863885223865509033203125" lon="-118.54748337529599666595458984375">
        <ele>1632.800048828125</ele>
        <time>2021-06-28T18:55:47.000Z</time>
        <extensions>
          <ns3:TrackPointExtension>
            <ns3:atemp>36.0</ns3:atemp>
            <ns3:hr>92</ns3:hr>
          </ns3:TrackPointExtension>
        </extensions>
      </trkpt>
      <trkpt lat="36.80213517509400844573974609375" lon="-118.54750835336744785308837890625">
        <ele>1632.199951171875</ele>
        <time>2021-06-28T18:55:51.000Z</time>
        <extensions>
          <ns3:TrackPointExtension>
            <ns3:atemp>36.0</ns3:atemp>
            <ns3:hr>93</ns3:hr>
          </ns3:TrackPointExtension>
        </extensions>
      </trkpt>
      <trkpt lat="36.80212126113474369049072265625" lon="-118.54751723818480968475341796875">
        <ele>1632</ele>
        <time>2021-06-28T18:55:52.000Z</time>
        <extensions>
          <ns3:TrackPointExtension>
            <ns3:atemp>36.0</ns3:atemp>
            <ns3:hr>93</ns3:hr>
          </ns3:TrackPointExtension>
        </extensions>
      </trkpt>
      <trkpt lat="36.80210173130035400390625" lon="-118.54753852821886539459228515625">
        <ele>1631.800048828125</ele>
        <time>2021-06-28T18:55:54.000Z</time>
        <extensions>
          <ns3:TrackPointExtension>
            <ns3:atemp>36.0</ns3:atemp>
            <ns3:hr>93</ns3:hr>
          </ns3:TrackPointExtension>
        </extensions>
      </trkpt>
      <trkpt lat="36.8020760826766490936279296875" lon="-118.5475379414856433868408203125">
        <ele>1631.800048828125</ele>
        <time>2021-06-28T18:55:56.000Z</time>
        <extensions>
          <ns3:TrackPointExtension>
            <ns3:atemp>36.0</ns3:atemp>
            <ns3:hr>93</ns3:hr>
          </ns3:TrackPointExtension>
        </extensions>
      </trkpt>
      <trkpt lat="36.802065856754779815673828125" lon="-118.54754975996911525726318359375">
        <ele>1631.5999755859375</ele>
        <time>2021-06-28T18:55:57.000Z</time>
        <extensions>
          <ns3:TrackPointExtension>
            <ns3:atemp>36.0</ns3:atemp>
            <ns3:hr>93</ns3:hr>
          </ns3:TrackPointExtension>
        </extensions>
      </trkpt>
      <trkpt lat="36.8020180799067020416259765625" lon="-118.54756769724190235137939453125">
        <ele>1630.5999755859375</ele>
        <time>2021-06-28T18:56:02.000Z</time>
        <extensions>
          <ns3:TrackPointExtension>
            <ns3:atemp>36.0</ns3:atemp>
            <ns3:hr>93</ns3:hr>
          </ns3:TrackPointExtension>
        </extensions>
      </trkpt>
      <trkpt lat="36.802010871469974517822265625" lon="-118.547576330602169036865234375">
        <ele>1630.5999755859375</ele>
        <time>2021-06-28T18:56:03.000Z</time>
        <extensions>
          <ns3:TrackPointExtension>
            <ns3:atemp>36.0</ns3:atemp>
            <ns3:hr>93</ns3:hr>
          </ns3:TrackPointExtension>
        </extensions>
      </trkpt>
      <trkpt lat="36.80198094807565212249755859375" lon="-118.54765520431101322174072265625">
        <ele>1630.199951171875</ele>
        <time>2021-06-28T18:56:08.000Z</time>
        <extensions>
          <ns3:TrackPointExtension>
            <ns3:atemp>36.0</ns3:atemp>
            <ns3:hr>93</ns3:hr>
          </ns3:TrackPointExtension>
        </extensions>
      </trkpt>
      <trkpt lat="36.80194021202623844146728515625" lon="-118.5477414540946483612060546875">
        <ele>1629.5999755859375</ele>
        <time>2021-06-28T18:56:13.000Z</time>
        <extensions>
          <ns3:TrackPointExtension>
            <ns3:atemp>36.0</ns3:atemp>
            <ns3:hr>93</ns3:hr>
          </ns3:TrackPointExtension>
        </extensions>
      </trkpt>
      <trkpt lat="36.8019235320389270782470703125" lon="-118.5477736406028270721435546875">
        <ele>1629.4000244140625</ele>
        <time>2021-06-28T18:56:16.000Z</time>
        <extensions>
          <ns3:TrackPointExtension>
            <ns3:atemp>36.0</ns3:atemp>
            <ns3:hr>93</ns3:hr>
          </ns3:TrackPointExtension>
        </extensions>
      </trkpt>
      <trkpt lat="36.80187164805829524993896484375" lon="-118.54783759452402591705322265625">
        <ele>1629.199951171875</ele>
        <time>2021-06-28T18:56:22.000Z</time>
        <extensions>
          <ns3:TrackPointExtension>
            <ns3:atemp>36.0</ns3:atemp>
            <ns3:hr>93</ns3:hr>
          </ns3:TrackPointExtension>
        </extensions>
      </trkpt>
      <trkpt lat="36.80184348486363887786865234375" lon="-118.54785762727260589599609375">
        <ele>1628.800048828125</ele>
        <time>2021-06-28T18:56:25.000Z</time>
        <extensions>
          <ns3:TrackPointExtension>
            <ns3:atemp>36.0</ns3:atemp>
            <ns3:hr>94</ns3:hr>
          </ns3:TrackPointExtension>
        </extensions>
      </trkpt>
      <trkpt lat="36.80182336829602718353271484375" lon="-118.54787715710699558258056640625">
        <ele>1628.5999755859375</ele>
        <time>2021-06-28T18:56:27.000Z</time>
        <extensions>
          <ns3:TrackPointExtension>
            <ns3:atemp>36.0</ns3:atemp>
            <ns3:hr>94</ns3:hr>
          </ns3:TrackPointExtension>
        </extensions>
      </trkpt>
      <trkpt lat="36.8018118850886821746826171875" lon="-118.54787950403988361358642578125">
        <ele>1628.4000244140625</ele>
        <time>2021-06-28T18:56:28.000Z</time>
        <extensions>
          <ns3:TrackPointExtension>
            <ns3:atemp>36.0</ns3:atemp>
            <ns3:hr>94</ns3:hr>
          </ns3:TrackPointExtension>
        </extensions>
      </trkpt>
      <trkpt lat="36.80178833194077014923095703125" lon="-118.54787766002118587493896484375">
        <ele>1627.5999755859375</ele>
        <time>2021-06-28T18:56:30.000Z</time>
        <extensions>
          <ns3:TrackPointExtension>
            <ns3:atemp>36.0</ns3:atemp>
            <ns3:hr>95</ns3:hr>
          </ns3:TrackPointExtension>
        </extensions>
      </trkpt>
      <trkpt lat="36.80177391506731510162353515625" lon="-118.54788444936275482177734375">
        <ele>1627.5999755859375</ele>
        <time>2021-06-28T18:56:31.000Z</time>
        <extensions>
          <ns3:TrackPointExtension>
            <ns3:atemp>36.0</ns3:atemp>
            <ns3:hr>96</ns3:hr>
          </ns3:TrackPointExtension>
        </extensions>
      </trkpt>
      <trkpt lat="36.80176150985062122344970703125" lon="-118.54788553901016712188720703125">
        <ele>1627.199951171875</ele>
        <time>2021-06-28T18:56:32.000Z</time>
        <extensions>
          <ns3:TrackPointExtension>
            <ns3:atemp>36.0</ns3:atemp>
            <ns3:hr>97</ns3:hr>
          </ns3:TrackPointExtension>
        </extensions>
      </trkpt>
      <trkpt lat="36.80172513239085674285888671875" lon="-118.54786709882318973541259765625">
        <ele>1627</ele>
        <time>2021-06-28T18:56:35.000Z</time>
        <extensions>
          <ns3:TrackPointExtension>
            <ns3:atemp>36.0</ns3:atemp>
            <ns3:hr>98</ns3:hr>
          </ns3:TrackPointExtension>
        </extensions>
      </trkpt>
      <trkpt lat="36.80169629864394664764404296875" lon="-118.54789760895073413848876953125">
        <ele>1627</ele>
        <time>2021-06-28T18:56:37.000Z</time>
        <extensions>
          <ns3:TrackPointExtension>
            <ns3:atemp>36.0</ns3:atemp>
            <ns3:hr>99</ns3:hr>
          </ns3:TrackPointExtension>
        </extensions>
      </trkpt>
      <trkpt lat="36.80166847072541713714599609375" lon="-118.54791705496609210968017578125">
        <ele>1626.4000244140625</ele>
        <time>2021-06-28T18:56:39.000Z</time>
        <extensions>
          <ns3:TrackPointExtension>
            <ns3:atemp>36.0</ns3:atemp>
            <ns3:hr>100</ns3:hr>
          </ns3:TrackPointExtension>
        </extensions>
      </trkpt>
      <trkpt lat="36.8016120605170726776123046875" lon="-118.5479454696178436279296875">
        <ele>1625.4000244140625</ele>
        <time>2021-06-28T18:56:44.000Z</time>
        <extensions>
          <ns3:TrackPointExtension>
            <ns3:atemp>36.0</ns3:atemp>
            <ns3:hr>103</ns3:hr>
          </ns3:TrackPointExtension>
        </extensions>
      </trkpt>
      <trkpt lat="36.80160124786198139190673828125" lon="-118.54794773273169994354248046875">
        <ele>1625.4000244140625</ele>
        <time>2021-06-28T18:56:45.000Z</time>
        <extensions>
          <ns3:TrackPointExtension>
            <ns3:atemp>36.0</ns3:atemp>
            <ns3:hr>99</ns3:hr>
          </ns3:TrackPointExtension>
        </extensions>
      </trkpt>
      <trkpt lat="36.801525056362152099609375" lon="-118.54799173772335052490234375">
        <ele>1624.199951171875</ele>
        <time>2021-06-28T18:56:51.000Z</time>
        <extensions>
          <ns3:TrackPointExtension>
            <ns3:atemp>36.0</ns3:atemp>
            <ns3:hr>99</ns3:hr>
          </ns3:TrackPointExtension>
        </extensions>
      </trkpt>
      <trkpt lat="36.80151642300188541412353515625" lon="-118.54799953289330005645751953125">
        <ele>1624.199951171875</ele>
        <time>2021-06-28T18:56:52.000Z</time>
        <extensions>
          <ns3:TrackPointExtension>
            <ns3:atemp>36.0</ns3:atemp>
            <ns3:hr>102</ns3:hr>
          </ns3:TrackPointExtension>
        </extensions>
      </trkpt>
      <trkpt lat="36.80149697698652744293212890625" lon="-118.548015542328357696533203125">
        <ele>1624</ele>
        <time>2021-06-28T18:56:53.000Z</time>
        <extensions>
          <ns3:TrackPointExtension>
            <ns3:atemp>36.0</ns3:atemp>
            <ns3:hr>99</ns3:hr>
          </ns3:TrackPointExtension>
        </extensions>
      </trkpt>
      <trkpt lat="36.8014779500663280487060546875" lon="-118.5480435378849506378173828125">
        <ele>1623.800048828125</ele>
        <time>2021-06-28T18:56:55.000Z</time>
        <extensions>
          <ns3:TrackPointExtension>
            <ns3:atemp>36.0</ns3:atemp>
            <ns3:hr>95</ns3:hr>
          </ns3:TrackPointExtension>
        </extensions>
      </trkpt>
      <trkpt lat="36.80147166363894939422607421875" lon="-118.54805250652134418487548828125">
        <ele>1623.5999755859375</ele>
        <time>2021-06-28T18:56:56.000Z</time>
        <extensions>
          <ns3:TrackPointExtension>
            <ns3:atemp>36.0</ns3:atemp>
            <ns3:hr>98</ns3:hr>
          </ns3:TrackPointExtension>
        </extensions>
      </trkpt>
      <trkpt lat="36.80144953541457653045654296875" lon="-118.54808502830564975738525390625">
        <ele>1623</ele>
        <time>2021-06-28T18:56:59.000Z</time>
        <extensions>
          <ns3:TrackPointExtension>
            <ns3:atemp>36.0</ns3:atemp>
            <ns3:hr>98</ns3:hr>
          </ns3:TrackPointExtension>
        </extensions>
      </trkpt>
      <trkpt lat="36.80144517682492733001708984375" lon="-118.54808754287660121917724609375">
        <ele>1622.800048828125</ele>
        <time>2021-06-28T18:57:00.000Z</time>
        <extensions>
          <ns3:TrackPointExtension>
            <ns3:atemp>36.0</ns3:atemp>
            <ns3:hr>98</ns3:hr>
          </ns3:TrackPointExtension>
        </extensions>
      </trkpt>
      <trkpt lat="36.801412068307399749755859375" lon="-118.54810615070164203643798828125">
        <ele>1622.199951171875</ele>
        <time>2021-06-28T18:57:04.000Z</time>
        <extensions>
          <ns3:TrackPointExtension>
            <ns3:atemp>36.0</ns3:atemp>
            <ns3:hr>97</ns3:hr>
          </ns3:TrackPointExtension>
        </extensions>
      </trkpt>
      <trkpt lat="36.80138499476015567779541015625" lon="-118.5481253452599048614501953125">
        <ele>1621.800048828125</ele>
        <time>2021-06-28T18:57:06.000Z</time>
        <extensions>
          <ns3:TrackPointExtension>
            <ns3:atemp>36.0</ns3:atemp>
            <ns3:hr>99</ns3:hr>
          </ns3:TrackPointExtension>
        </extensions>
      </trkpt>
      <trkpt lat="36.80134727619588375091552734375" lon="-118.54811436496675014495849609375">
        <ele>1621.199951171875</ele>
        <time>2021-06-28T18:57:10.000Z</time>
        <extensions>
          <ns3:TrackPointExtension>
            <ns3:atemp>36.0</ns3:atemp>
            <ns3:hr>97</ns3:hr>
          </ns3:TrackPointExtension>
        </extensions>
      </trkpt>
      <trkpt lat="36.8013401515781879425048828125" lon="-118.54812878184020519256591796875">
        <ele>1621.199951171875</ele>
        <time>2021-06-28T18:57:11.000Z</time>
        <extensions>
          <ns3:TrackPointExtension>
            <ns3:atemp>36.0</ns3:atemp>
            <ns3:hr>97</ns3:hr>
          </ns3:TrackPointExtension>
        </extensions>
      </trkpt>
      <trkpt lat="36.80133084766566753387451171875" lon="-118.5481377504765987396240234375">
        <ele>1621</ele>
        <time>2021-06-28T18:57:12.000Z</time>
        <extensions>
          <ns3:TrackPointExtension>
            <ns3:atemp>36.0</ns3:atemp>
            <ns3:hr>98</ns3:hr>
          </ns3:TrackPointExtension>
        </extensions>
      </trkpt>
      <trkpt lat="36.80131475441157817840576171875" lon="-118.54813967831432819366455078125">
        <ele>1620.4000244140625</ele>
        <time>2021-06-28T18:57:14.000Z</time>
        <extensions>
          <ns3:TrackPointExtension>
            <ns3:atemp>36.0</ns3:atemp>
            <ns3:hr>98</ns3:hr>
          </ns3:TrackPointExtension>
        </extensions>
      </trkpt>
      <trkpt lat="36.8013039417564868927001953125" lon="-118.5481323860585689544677734375">
        <ele>1620</ele>
        <time>2021-06-28T18:57:16.000Z</time>
        <extensions>
          <ns3:TrackPointExtension>
            <ns3:atemp>36.0</ns3:atemp>
            <ns3:hr>102</ns3:hr>
          </ns3:TrackPointExtension>
        </extensions>
      </trkpt>
      <trkpt lat="36.80129882879555225372314453125" lon="-118.548128865659236907958984375">
        <ele>1620</ele>
        <time>2021-06-28T18:57:17.000Z</time>
        <extensions>
          <ns3:TrackPointExtension>
            <ns3:atemp>36.0</ns3:atemp>
            <ns3:hr>99</ns3:hr>
          </ns3:TrackPointExtension>
        </extensions>
      </trkpt>
      <trkpt lat="36.8012670613825321197509765625" lon="-118.54808167554438114166259765625">
        <ele>1620</ele>
        <time>2021-06-28T18:57:20.000Z</time>
        <extensions>
          <ns3:TrackPointExtension>
            <ns3:atemp>36.0</ns3:atemp>
            <ns3:hr>99</ns3:hr>
          </ns3:TrackPointExtension>
        </extensions>
      </trkpt>
      <trkpt lat="36.8012539856135845184326171875" lon="-118.548114784061908721923828125">
        <ele>1620</ele>
        <time>2021-06-28T18:57:21.000Z</time>
        <extensions>
          <ns3:TrackPointExtension>
            <ns3:atemp>36.0</ns3:atemp>
            <ns3:hr>97</ns3:hr>
          </ns3:TrackPointExtension>
        </extensions>
      </trkpt>
      <trkpt lat="36.80122758261859416961669921875" lon="-118.5481156222522258758544921875">
        <ele>1619.199951171875</ele>
        <time>2021-06-28T18:57:23.000Z</time>
        <extensions>
          <ns3:TrackPointExtension>
            <ns3:atemp>36.0</ns3:atemp>
            <ns3:hr>94</ns3:hr>
          </ns3:TrackPointExtension>
        </extensions>
      </trkpt>
      <trkpt lat="36.80119053460657596588134765625" lon="-118.54809089563786983489990234375">
        <ele>1618.5999755859375</ele>
        <time>2021-06-28T18:57:26.000Z</time>
        <extensions>
          <ns3:TrackPointExtension>
            <ns3:atemp>36.0</ns3:atemp>
            <ns3:hr>90</ns3:hr>
          </ns3:TrackPointExtension>
        </extensions>
      </trkpt>
      <trkpt lat="36.8011601082980632781982421875" lon="-118.54808301664888858795166015625">
        <ele>1618.5999755859375</ele>
        <time>2021-06-28T18:57:29.000Z</time>
        <extensions>
          <ns3:TrackPointExtension>
            <ns3:atemp>36.0</ns3:atemp>
            <ns3:hr>87</ns3:hr>
          </ns3:TrackPointExtension>
        </extensions>
      </trkpt>
      <trkpt lat="36.80115155875682830810546875" lon="-118.548085279762744903564453125">
        <ele>1618.4000244140625</ele>
        <time>2021-06-28T18:57:30.000Z</time>
        <extensions>
          <ns3:TrackPointExtension>
            <ns3:atemp>36.0</ns3:atemp>
            <ns3:hr>87</ns3:hr>
          </ns3:TrackPointExtension>
        </extensions>
      </trkpt>
      <trkpt lat="36.80110864341259002685546875" lon="-118.5480971820652484893798828125">
        <ele>1618.199951171875</ele>
        <time>2021-06-28T18:57:33.000Z</time>
        <extensions>
          <ns3:TrackPointExtension>
            <ns3:atemp>36.0</ns3:atemp>
            <ns3:hr>87</ns3:hr>
          </ns3:TrackPointExtension>
        </extensions>
      </trkpt>
      <trkpt lat="36.801082827150821685791015625" lon="-118.54809760116040706634521484375">
        <ele>1617.800048828125</ele>
        <time>2021-06-28T18:57:35.000Z</time>
        <extensions>
          <ns3:TrackPointExtension>
            <ns3:atemp>36.0</ns3:atemp>
            <ns3:hr>87</ns3:hr>
          </ns3:TrackPointExtension>
        </extensions>
      </trkpt>
      <trkpt lat="36.8010679073631763458251953125" lon="-118.5480904765427112579345703125">
        <ele>1617.800048828125</ele>
        <time>2021-06-28T18:57:36.000Z</time>
        <extensions>
          <ns3:TrackPointExtension>
            <ns3:atemp>36.0</ns3:atemp>
            <ns3:hr>88</ns3:hr>
          </ns3:TrackPointExtension>
        </extensions>
      </trkpt>
      <trkpt lat="36.8010290153324604034423828125" lon="-118.54806373827159404754638671875">
        <ele>1617.4000244140625</ele>
        <time>2021-06-28T18:57:41.000Z</time>
        <extensions>
          <ns3:TrackPointExtension>
            <ns3:atemp>36.0</ns3:atemp>
            <ns3:hr>91</ns3:hr>
          </ns3:TrackPointExtension>
        </extensions>
      </trkpt>
      <trkpt lat="36.8009991757571697235107421875" lon="-118.54806281626224517822265625">
        <ele>1617.5999755859375</ele>
        <time>2021-06-28T18:57:43.000Z</time>
        <extensions>
          <ns3:TrackPointExtension>
            <ns3:atemp>36.0</ns3:atemp>
            <ns3:hr>95</ns3:hr>
          </ns3:TrackPointExtension>
        </extensions>
      </trkpt>
      <trkpt lat="36.8009684979915618896484375" lon="-118.54806021787226200103759765625">
        <ele>1617.5999755859375</ele>
        <time>2021-06-28T18:57:45.000Z</time>
        <extensions>
          <ns3:TrackPointExtension>
            <ns3:atemp>36.0</ns3:atemp>
            <ns3:hr>98</ns3:hr>
          </ns3:TrackPointExtension>
        </extensions>
      </trkpt>
      <trkpt lat="36.8009371496737003326416015625" lon="-118.5480851121246814727783203125">
        <ele>1617.800048828125</ele>
        <time>2021-06-28T18:57:47.000Z</time>
        <extensions>
          <ns3:TrackPointExtension>
            <ns3:atemp>36.0</ns3:atemp>
            <ns3:hr>98</ns3:hr>
          </ns3:TrackPointExtension>
        </extensions>
      </trkpt>
      <trkpt lat="36.80092549882829189300537109375" lon="-118.548087291419506072998046875">
        <ele>1618.199951171875</ele>
        <time>2021-06-28T18:57:48.000Z</time>
        <extensions>
          <ns3:TrackPointExtension>
            <ns3:atemp>36.0</ns3:atemp>
            <ns3:hr>98</ns3:hr>
          </ns3:TrackPointExtension>
        </extensions>
      </trkpt>
      <trkpt lat="36.8009180389344692230224609375" lon="-118.5481035523116588592529296875">
        <ele>1618.199951171875</ele>
        <time>2021-06-28T18:57:49.000Z</time>
        <extensions>
          <ns3:TrackPointExtension>
            <ns3:atemp>36.0</ns3:atemp>
            <ns3:hr>97</ns3:hr>
          </ns3:TrackPointExtension>
        </extensions>
      </trkpt>
      <trkpt lat="36.8008945696055889129638671875" lon="-118.54809408076107501983642578125">
        <ele>1618.199951171875</ele>
        <time>2021-06-28T18:57:51.000Z</time>
        <extensions>
          <ns3:TrackPointExtension>
            <ns3:atemp>36.0</ns3:atemp>
            <ns3:hr>96</ns3:hr>
          </ns3:TrackPointExtension>
        </extensions>
      </trkpt>
      <trkpt lat="36.8008811585605144500732421875" lon="-118.54809190146625041961669921875">
        <ele>1618.199951171875</ele>
        <time>2021-06-28T18:57:52.000Z</time>
        <extensions>
          <ns3:TrackPointExtension>
            <ns3:atemp>36.0</ns3:atemp>
            <ns3:hr>95</ns3:hr>
          </ns3:TrackPointExtension>
        </extensions>
      </trkpt>
      <trkpt lat="36.800865568220615386962890625" lon="-118.548084609210491180419921875">
        <ele>1618.199951171875</ele>
        <time>2021-06-28T18:57:53.000Z</time>
        <extensions>
          <ns3:TrackPointExtension>
            <ns3:atemp>36.0</ns3:atemp>
            <ns3:hr>94</ns3:hr>
          </ns3:TrackPointExtension>
        </extensions>
      </trkpt>
      <trkpt lat="36.80084084160625934600830078125" lon="-118.54807664640247821807861328125">
        <ele>1617.800048828125</ele>
        <time>2021-06-28T18:57:55.000Z</time>
        <extensions>
          <ns3:TrackPointExtension>
            <ns3:atemp>36.0</ns3:atemp>
            <ns3:hr>95</ns3:hr>
          </ns3:TrackPointExtension>
        </extensions>
      </trkpt>
      <trkpt lat="36.80080295540392398834228515625" lon="-118.54809575714170932769775390625">
        <ele>1617.800048828125</ele>
        <time>2021-06-28T18:57:58.000Z</time>
        <extensions>
          <ns3:TrackPointExtension>
            <ns3:atemp>36.0</ns3:atemp>
            <ns3:hr>95</ns3:hr>
          </ns3:TrackPointExtension>
        </extensions>
      </trkpt>
      <trkpt lat="36.800791807472705841064453125" lon="-118.5480876266956329345703125">
        <ele>1617.800048828125</ele>
        <time>2021-06-28T18:57:59.000Z</time>
        <extensions>
          <ns3:TrackPointExtension>
            <ns3:atemp>36.0</ns3:atemp>
            <ns3:hr>95</ns3:hr>
          </ns3:TrackPointExtension>
        </extensions>
      </trkpt>
      <trkpt lat="36.800752915441989898681640625" lon="-118.54806306771934032440185546875">
        <ele>1617.5999755859375</ele>
        <time>2021-06-28T18:58:03.000Z</time>
        <extensions>
          <ns3:TrackPointExtension>
            <ns3:atemp>36.0</ns3:atemp>
            <ns3:hr>95</ns3:hr>
          </ns3:TrackPointExtension>
        </extensions>
      </trkpt>
      <trkpt lat="36.80072617717087268829345703125" lon="-118.5480339825153350830078125">
        <ele>1617.199951171875</ele>
        <time>2021-06-28T18:58:06.000Z</time>
        <extensions>
          <ns3:TrackPointExtension>
            <ns3:atemp>36.0</ns3:atemp>
            <ns3:hr>94</ns3:hr>
          </ns3:TrackPointExtension>
        </extensions>
      </trkpt>
      <trkpt lat="36.80068887770175933837890625" lon="-118.548015542328357696533203125">
        <ele>1616.800048828125</ele>
        <time>2021-06-28T18:58:09.000Z</time>
        <extensions>
          <ns3:TrackPointExtension>
            <ns3:atemp>36.0</ns3:atemp>
            <ns3:hr>93</ns3:hr>
          </ns3:TrackPointExtension>
        </extensions>
      </trkpt>
      <trkpt lat="36.8006766401231288909912109375" lon="-118.54800514876842498779296875">
        <ele>1616.4000244140625</ele>
        <time>2021-06-28T18:58:10.000Z</time>
        <extensions>
          <ns3:TrackPointExtension>
            <ns3:atemp>36.0</ns3:atemp>
            <ns3:hr>92</ns3:hr>
          </ns3:TrackPointExtension>
        </extensions>
      </trkpt>
      <trkpt lat="36.80065861903131008148193359375" lon="-118.54800137691199779510498046875">
        <ele>1616.199951171875</ele>
        <time>2021-06-28T18:58:11.000Z</time>
        <extensions>
          <ns3:TrackPointExtension>
            <ns3:atemp>36.0</ns3:atemp>
            <ns3:hr>92</ns3:hr>
          </ns3:TrackPointExtension>
        </extensions>
      </trkpt>
      <trkpt lat="36.8006199784576892852783203125" lon="-118.54796382598578929901123046875">
        <ele>1615.800048828125</ele>
        <time>2021-06-28T18:58:14.000Z</time>
        <extensions>
          <ns3:TrackPointExtension>
            <ns3:atemp>36.0</ns3:atemp>
            <ns3:hr>90</ns3:hr>
          </ns3:TrackPointExtension>
        </extensions>
      </trkpt>
      <trkpt lat="36.80059365928173065185546875" lon="-118.54794588871300220489501953125">
        <ele>1615.800048828125</ele>
        <time>2021-06-28T18:58:16.000Z</time>
        <extensions>
          <ns3:TrackPointExtension>
            <ns3:atemp>36.0</ns3:atemp>
            <ns3:hr>90</ns3:hr>
          </ns3:TrackPointExtension>
        </extensions>
      </trkpt>
      <trkpt lat="36.80055216886103153228759765625" lon="-118.54795997031033039093017578125">
        <ele>1615.5999755859375</ele>
        <time>2021-06-28T18:58:19.000Z</time>
        <extensions>
          <ns3:TrackPointExtension>
            <ns3:atemp>36.0</ns3:atemp>
            <ns3:hr>89</ns3:hr>
          </ns3:TrackPointExtension>
        </extensions>
      </trkpt>
      <trkpt lat="36.80053691379725933074951171875" lon="-118.54795963503420352935791015625">
        <ele>1615.5999755859375</ele>
        <time>2021-06-28T18:58:20.000Z</time>
        <extensions>
          <ns3:TrackPointExtension>
            <ns3:atemp>36.0</ns3:atemp>
            <ns3:hr>89</ns3:hr>
          </ns3:TrackPointExtension>
        </extensions>
      </trkpt>
      <trkpt lat="36.80049198679625988006591796875" lon="-118.5479553602635860443115234375">
        <ele>1615.4000244140625</ele>
        <time>2021-06-28T18:58:23.000Z</time>
        <extensions>
          <ns3:TrackPointExtension>
            <ns3:atemp>36.0</ns3:atemp>
            <ns3:hr>90</ns3:hr>
          </ns3:TrackPointExtension>
        </extensions>
      </trkpt>
      <trkpt lat="36.80047002620995044708251953125" lon="-118.5479536838829517364501953125">
        <ele>1615.5999755859375</ele>
        <time>2021-06-28T18:58:25.000Z</time>
        <extensions>
          <ns3:TrackPointExtension>
            <ns3:atemp>36.0</ns3:atemp>
            <ns3:hr>91</ns3:hr>
          </ns3:TrackPointExtension>
        </extensions>
      </trkpt>
      <trkpt lat="36.8004161305725574493408203125" lon="-118.54790850542485713958740234375">
        <ele>1615.5999755859375</ele>
        <time>2021-06-28T18:58:29.000Z</time>
        <extensions>
          <ns3:TrackPointExtension>
            <ns3:atemp>36.0</ns3:atemp>
            <ns3:hr>90</ns3:hr>
          </ns3:TrackPointExtension>
        </extensions>
      </trkpt>
      <trkpt lat="36.800363995134830474853515625" lon="-118.54782116599380970001220703125">
        <ele>1615.800048828125</ele>
        <time>2021-06-28T18:58:33.000Z</time>
        <extensions>
          <ns3:TrackPointExtension>
            <ns3:atemp>36.0</ns3:atemp>
            <ns3:hr>90</ns3:hr>
          </ns3:TrackPointExtension>
        </extensions>
      </trkpt>
      <trkpt lat="36.8002867139875888824462890625" lon="-118.5477791726589202880859375">
        <ele>1615.5999755859375</ele>
        <time>2021-06-28T18:58:40.000Z</time>
        <extensions>
          <ns3:TrackPointExtension>
            <ns3:atemp>36.0</ns3:atemp>
            <ns3:hr>91</ns3:hr>
          </ns3:TrackPointExtension>
        </extensions>
      </trkpt>
      <trkpt lat="36.80029199458658695220947265625" lon="-118.54778110049664974212646484375">
        <ele>1615.5999755859375</ele>
        <time>2021-06-28T18:58:41.000Z</time>
        <extensions>
          <ns3:TrackPointExtension>
            <ns3:atemp>36.0</ns3:atemp>
            <ns3:hr>91</ns3:hr>
          </ns3:TrackPointExtension>
        </extensions>
      </trkpt>
      <trkpt lat="36.80028210394084453582763671875" lon="-118.5477515123784542083740234375">
        <ele>1614.800048828125</ele>
        <time>2021-06-28T18:58:44.000Z</time>
        <extensions>
          <ns3:TrackPointExtension>
            <ns3:atemp>36.0</ns3:atemp>
            <ns3:hr>90</ns3:hr>
          </ns3:TrackPointExtension>
        </extensions>
      </trkpt>
      <trkpt lat="36.80022477172315120697021484375" lon="-118.54772008024156093597412109375">
        <ele>1614.800048828125</ele>
        <time>2021-06-28T18:58:48.000Z</time>
        <extensions>
          <ns3:TrackPointExtension>
            <ns3:atemp>36.0</ns3:atemp>
            <ns3:hr>89</ns3:hr>
          </ns3:TrackPointExtension>
        </extensions>
      </trkpt>
      <trkpt lat="36.80015805177390575408935546875" lon="-118.5477179847657680511474609375">
        <ele>1614.199951171875</ele>
        <time>2021-06-28T18:58:52.000Z</time>
        <extensions>
          <ns3:TrackPointExtension>
            <ns3:atemp>36.0</ns3:atemp>
            <ns3:hr>87</ns3:hr>
          </ns3:TrackPointExtension>
        </extensions>
      </trkpt>
      <trkpt lat="36.8001284636557102203369140625" lon="-118.547695688903331756591796875">
        <ele>1614.199951171875</ele>
        <time>2021-06-28T18:58:54.000Z</time>
        <extensions>
          <ns3:TrackPointExtension>
            <ns3:atemp>36.0</ns3:atemp>
            <ns3:hr>83</ns3:hr>
          </ns3:TrackPointExtension>
        </extensions>
      </trkpt>
      <trkpt lat="36.80008948780596256256103515625" lon="-118.54764170944690704345703125">
        <ele>1614.199951171875</ele>
        <time>2021-06-28T18:58:57.000Z</time>
        <extensions>
          <ns3:TrackPointExtension>
            <ns3:atemp>36.0</ns3:atemp>
            <ns3:hr>83</ns3:hr>
          </ns3:TrackPointExtension>
        </extensions>
      </trkpt>
      <trkpt lat="36.800056211650371551513671875" lon="-118.54762134142220020294189453125">
        <ele>1614.199951171875</ele>
        <time>2021-06-28T18:59:00.000Z</time>
        <extensions>
          <ns3:TrackPointExtension>
            <ns3:atemp>36.0</ns3:atemp>
            <ns3:hr>83</ns3:hr>
          </ns3:TrackPointExtension>
        </extensions>
      </trkpt>
      <trkpt lat="36.8000188283622264862060546875" lon="-118.54759468697011470794677734375">
        <ele>1613.800048828125</ele>
        <time>2021-06-28T18:59:04.000Z</time>
        <extensions>
          <ns3:TrackPointExtension>
            <ns3:atemp>36.0</ns3:atemp>
            <ns3:hr>84</ns3:hr>
          </ns3:TrackPointExtension>
        </extensions>
      </trkpt>
      <trkpt lat="36.800001226365566253662109375" lon="-118.5476029850542545318603515625">
        <ele>1613.800048828125</ele>
        <time>2021-06-28T18:59:05.000Z</time>
        <extensions>
          <ns3:TrackPointExtension>
            <ns3:atemp>36.0</ns3:atemp>
            <ns3:hr>85</ns3:hr>
          </ns3:TrackPointExtension>
        </extensions>
      </trkpt>
      <trkpt lat="36.7999420501291751861572265625" lon="-118.54759669862687587738037109375">
        <ele>1613.800048828125</ele>
        <time>2021-06-28T18:59:09.000Z</time>
        <extensions>
          <ns3:TrackPointExtension>
            <ns3:atemp>36.0</ns3:atemp>
            <ns3:hr>88</ns3:hr>
          </ns3:TrackPointExtension>
        </extensions>
      </trkpt>
      <trkpt lat="36.79990039207041263580322265625" lon="-118.5475386120378971099853515625">
        <ele>1613.800048828125</ele>
        <time>2021-06-28T18:59:12.000Z</time>
        <extensions>
          <ns3:TrackPointExtension>
            <ns3:atemp>36.0</ns3:atemp>
            <ns3:hr>91</ns3:hr>
          </ns3:TrackPointExtension>
        </extensions>
      </trkpt>
      <trkpt lat="36.79988765157759189605712890625" lon="-118.54753986932337284088134765625">
        <ele>1614.199951171875</ele>
        <time>2021-06-28T18:59:13.000Z</time>
        <extensions>
          <ns3:TrackPointExtension>
            <ns3:atemp>36.0</ns3:atemp>
            <ns3:hr>91</ns3:hr>
          </ns3:TrackPointExtension>
        </extensions>
      </trkpt>
      <trkpt lat="36.7998022399842739105224609375" lon="-118.54753048159182071685791015625">
        <ele>1614.4000244140625</ele>
        <time>2021-06-28T18:59:19.000Z</time>
        <extensions>
          <ns3:TrackPointExtension>
            <ns3:atemp>36.0</ns3:atemp>
            <ns3:hr>94</ns3:hr>
          </ns3:TrackPointExtension>
        </extensions>
      </trkpt>
      <trkpt lat="36.79979595355689525604248046875" lon="-118.54753710329532623291015625">
        <ele>1614</ele>
        <time>2021-06-28T18:59:20.000Z</time>
        <extensions>
          <ns3:TrackPointExtension>
            <ns3:atemp>36.0</ns3:atemp>
            <ns3:hr>95</ns3:hr>
          </ns3:TrackPointExtension>
        </extensions>
      </trkpt>
      <trkpt lat="36.799778603017330169677734375" lon="-118.5475587286055088043212890625">
        <ele>1614</ele>
        <time>2021-06-28T18:59:22.000Z</time>
        <extensions>
          <ns3:TrackPointExtension>
            <ns3:atemp>36.0</ns3:atemp>
            <ns3:hr>92</ns3:hr>
          </ns3:TrackPointExtension>
        </extensions>
      </trkpt>
      <trkpt lat="36.79976879619061946868896484375" lon="-118.54756702668964862823486328125">
        <ele>1614</ele>
        <time>2021-06-28T18:59:23.000Z</time>
        <extensions>
          <ns3:TrackPointExtension>
            <ns3:atemp>36.0</ns3:atemp>
            <ns3:hr>95</ns3:hr>
          </ns3:TrackPointExtension>
        </extensions>
      </trkpt>
      <trkpt lat="36.79973610676825046539306640625" lon="-118.54756903834640979766845703125">
        <ele>1614.4000244140625</ele>
        <time>2021-06-28T18:59:27.000Z</time>
        <extensions>
          <ns3:TrackPointExtension>
            <ns3:atemp>36.0</ns3:atemp>
            <ns3:hr>96</ns3:hr>
          </ns3:TrackPointExtension>
        </extensions>
      </trkpt>
      <trkpt lat="36.799718923866748809814453125" lon="-118.54756132699549198150634765625">
        <ele>1614.4000244140625</ele>
        <time>2021-06-28T18:59:28.000Z</time>
        <extensions>
          <ns3:TrackPointExtension>
            <ns3:atemp>36.0</ns3:atemp>
            <ns3:hr>98</ns3:hr>
          </ns3:TrackPointExtension>
        </extensions>
      </trkpt>
      <trkpt lat="36.799629740417003631591796875" lon="-118.54755998589098453521728515625">
        <ele>1613.4000244140625</ele>
        <time>2021-06-28T18:59:34.000Z</time>
        <extensions>
          <ns3:TrackPointExtension>
            <ns3:atemp>36.0</ns3:atemp>
            <ns3:hr>98</ns3:hr>
          </ns3:TrackPointExtension>
        </extensions>
      </trkpt>
      <trkpt lat="36.79956964217126369476318359375" lon="-118.54756384156644344329833984375">
        <ele>1614.199951171875</ele>
        <time>2021-06-28T18:59:38.000Z</time>
        <extensions>
          <ns3:TrackPointExtension>
            <ns3:atemp>36.0</ns3:atemp>
            <ns3:hr>98</ns3:hr>
          </ns3:TrackPointExtension>
        </extensions>
      </trkpt>
      <trkpt lat="36.79954701103270053863525390625" lon="-118.54757473804056644439697265625">
        <ele>1614.199951171875</ele>
        <time>2021-06-28T18:59:40.000Z</time>
        <extensions>
          <ns3:TrackPointExtension>
            <ns3:atemp>36.0</ns3:atemp>
            <ns3:hr>100</ns3:hr>
          </ns3:TrackPointExtension>
        </extensions>
      </trkpt>
      <trkpt lat="36.7995350249111652374267578125" lon="-118.54757406748831272125244140625">
        <ele>1614.199951171875</ele>
        <time>2021-06-28T18:59:41.000Z</time>
        <extensions>
          <ns3:TrackPointExtension>
            <ns3:atemp>36.0</ns3:atemp>
            <ns3:hr>99</ns3:hr>
          </ns3:TrackPointExtension>
        </extensions>
      </trkpt>
      <trkpt lat="36.7994951270520687103271484375" lon="-118.54757021181285381317138671875">
        <ele>1614.4000244140625</ele>
        <time>2021-06-28T18:59:44.000Z</time>
        <extensions>
          <ns3:TrackPointExtension>
            <ns3:atemp>36.0</ns3:atemp>
            <ns3:hr>98</ns3:hr>
          </ns3:TrackPointExtension>
        </extensions>
      </trkpt>
      <trkpt lat="36.79948247037827968597412109375" lon="-118.5475721396505832672119140625">
        <ele>1614.4000244140625</ele>
        <time>2021-06-28T18:59:45.000Z</time>
        <extensions>
          <ns3:TrackPointExtension>
            <ns3:atemp>36.0</ns3:atemp>
            <ns3:hr>95</ns3:hr>
          </ns3:TrackPointExtension>
        </extensions>
      </trkpt>
      <trkpt lat="36.79945514537394046783447265625" lon="-118.54758135974407196044921875">
        <ele>1614.199951171875</ele>
        <time>2021-06-28T18:59:47.000Z</time>
        <extensions>
          <ns3:TrackPointExtension>
            <ns3:atemp>36.0</ns3:atemp>
            <ns3:hr>92</ns3:hr>
          </ns3:TrackPointExtension>
        </extensions>
      </trkpt>
      <trkpt lat="36.799347437918186187744140625" lon="-118.5476053319871425628662109375">
        <ele>1614.199951171875</ele>
        <time>2021-06-28T18:59:54.000Z</time>
        <extensions>
          <ns3:TrackPointExtension>
            <ns3:atemp>36.0</ns3:atemp>
            <ns3:hr>92</ns3:hr>
          </ns3:TrackPointExtension>
        </extensions>
      </trkpt>
      <trkpt lat="36.79927803575992584228515625" lon="-118.54760281741619110107421875">
        <ele>1614</ele>
        <time>2021-06-28T18:59:58.000Z</time>
        <extensions>
          <ns3:TrackPointExtension>
            <ns3:atemp>36.0</ns3:atemp>
            <ns3:hr>90</ns3:hr>
          </ns3:TrackPointExtension>
        </extensions>
      </trkpt>
      <trkpt lat="36.79926537908613681793212890625" lon="-118.54759502224624156951904296875">
        <ele>1613.800048828125</ele>
        <time>2021-06-28T18:59:59.000Z</time>
        <extensions>
          <ns3:TrackPointExtension>
            <ns3:atemp>36.0</ns3:atemp>
            <ns3:hr>90</ns3:hr>
          </ns3:TrackPointExtension>
        </extensions>
      </trkpt>
      <trkpt lat="36.79919597692787647247314453125" lon="-118.54750617407262325286865234375">
        <ele>1613.199951171875</ele>
        <time>2021-06-28T19:00:06.000Z</time>
        <extensions>
          <ns3:TrackPointExtension>
            <ns3:atemp>36.0</ns3:atemp>
            <ns3:hr>90</ns3:hr>
          </ns3:TrackPointExtension>
        </extensions>
      </trkpt>
      <trkpt lat="36.79918122477829456329345703125" lon="-118.54750349186360836029052734375">
        <ele>1613</ele>
        <time>2021-06-28T19:00:07.000Z</time>
        <extensions>
          <ns3:TrackPointExtension>
            <ns3:atemp>36.0</ns3:atemp>
            <ns3:hr>91</ns3:hr>
          </ns3:TrackPointExtension>
        </extensions>
      </trkpt>
      <trkpt lat="36.7991491220891475677490234375" lon="-118.547511957585811614990234375">
        <ele>1612.800048828125</ele>
        <time>2021-06-28T19:00:09.000Z</time>
        <extensions>
          <ns3:TrackPointExtension>
            <ns3:atemp>36.0</ns3:atemp>
            <ns3:hr>92</ns3:hr>
          </ns3:TrackPointExtension>
        </extensions>
      </trkpt>
      <trkpt lat="36.7991152592003345489501953125" lon="-118.54751170612871646881103515625">
        <ele>1612.199951171875</ele>
        <time>2021-06-28T19:00:12.000Z</time>
        <extensions>
          <ns3:TrackPointExtension>
            <ns3:atemp>36.0</ns3:atemp>
            <ns3:hr>95</ns3:hr>
          </ns3:TrackPointExtension>
        </extensions>
      </trkpt>
      <trkpt lat="36.79909162223339080810546875" lon="-118.54750583879649639129638671875">
        <ele>1612.199951171875</ele>
        <time>2021-06-28T19:00:14.000Z</time>
        <extensions>
          <ns3:TrackPointExtension>
            <ns3:atemp>36.0</ns3:atemp>
            <ns3:hr>98</ns3:hr>
          </ns3:TrackPointExtension>
        </extensions>
      </trkpt>
      <trkpt lat="36.79906220175325870513916015625" lon="-118.5475010611116886138916015625">
        <ele>1612.199951171875</ele>
        <time>2021-06-28T19:00:17.000Z</time>
        <extensions>
          <ns3:TrackPointExtension>
            <ns3:atemp>36.0</ns3:atemp>
            <ns3:hr>98</ns3:hr>
          </ns3:TrackPointExtension>
        </extensions>
      </trkpt>
      <trkpt lat="36.79905046708881855010986328125" lon="-118.54751103557646274566650390625">
        <ele>1612.199951171875</ele>
        <time>2021-06-28T19:00:18.000Z</time>
        <extensions>
          <ns3:TrackPointExtension>
            <ns3:atemp>36.0</ns3:atemp>
            <ns3:hr>97</ns3:hr>
          </ns3:TrackPointExtension>
        </extensions>
      </trkpt>
      <trkpt lat="36.7990399897098541259765625" lon="-118.547521345317363739013671875">
        <ele>1612</ele>
        <time>2021-06-28T19:00:19.000Z</time>
        <extensions>
          <ns3:TrackPointExtension>
            <ns3:atemp>36.0</ns3:atemp>
            <ns3:hr>96</ns3:hr>
          </ns3:TrackPointExtension>
        </extensions>
      </trkpt>
      <trkpt lat="36.79901274852454662322998046875" lon="-118.5475309006869792938232421875">
        <ele>1611.5999755859375</ele>
        <time>2021-06-28T19:00:21.000Z</time>
        <extensions>
          <ns3:TrackPointExtension>
            <ns3:atemp>36.0</ns3:atemp>
            <ns3:hr>95</ns3:hr>
          </ns3:TrackPointExtension>
        </extensions>
      </trkpt>
      <trkpt lat="36.798992715775966644287109375" lon="-118.54752729646861553192138671875">
        <ele>1611.5999755859375</ele>
        <time>2021-06-28T19:00:23.000Z</time>
        <extensions>
          <ns3:TrackPointExtension>
            <ns3:atemp>36.0</ns3:atemp>
            <ns3:hr>94</ns3:hr>
          </ns3:TrackPointExtension>
        </extensions>
      </trkpt>
      <trkpt lat="36.798939742147922515869140625" lon="-118.54756551794707775115966796875">
        <ele>1612</ele>
        <time>2021-06-28T19:00:29.000Z</time>
        <extensions>
          <ns3:TrackPointExtension>
            <ns3:atemp>36.0</ns3:atemp>
            <ns3:hr>92</ns3:hr>
          </ns3:TrackPointExtension>
        </extensions>
      </trkpt>
      <trkpt lat="36.79891836829483509063720703125" lon="-118.54756652377545833587646484375">
        <ele>1612</ele>
        <time>2021-06-28T19:00:31.000Z</time>
        <extensions>
          <ns3:TrackPointExtension>
            <ns3:atemp>36.0</ns3:atemp>
            <ns3:hr>93</ns3:hr>
          </ns3:TrackPointExtension>
        </extensions>
      </trkpt>
      <trkpt lat="36.79889054037630558013916015625" lon="-118.5475583933293819427490234375">
        <ele>1611</ele>
        <time>2021-06-28T19:00:35.000Z</time>
        <extensions>
          <ns3:TrackPointExtension>
            <ns3:atemp>36.0</ns3:atemp>
            <ns3:hr>95</ns3:hr>
          </ns3:TrackPointExtension>
        </extensions>
      </trkpt>
      <trkpt lat="36.79888333193957805633544921875" lon="-118.54755898006260395050048828125">
        <ele>1611</ele>
        <time>2021-06-28T19:00:36.000Z</time>
        <extensions>
          <ns3:TrackPointExtension>
            <ns3:atemp>36.0</ns3:atemp>
            <ns3:hr>95</ns3:hr>
          </ns3:TrackPointExtension>
        </extensions>
      </trkpt>
      <trkpt lat="36.79887704551219940185546875" lon="-118.54756216518580913543701171875">
        <ele>1610.4000244140625</ele>
        <time>2021-06-28T19:00:37.000Z</time>
        <extensions>
          <ns3:TrackPointExtension>
            <ns3:atemp>36.0</ns3:atemp>
            <ns3:hr>94</ns3:hr>
          </ns3:TrackPointExtension>
        </extensions>
      </trkpt>
      <trkpt lat="36.79885366000235080718994140625" lon="-118.5475627519190311431884765625">
        <ele>1610.199951171875</ele>
        <time>2021-06-28T19:00:41.000Z</time>
        <extensions>
          <ns3:TrackPointExtension>
            <ns3:atemp>36.0</ns3:atemp>
            <ns3:hr>94</ns3:hr>
          </ns3:TrackPointExtension>
        </extensions>
      </trkpt>
      <trkpt lat="36.79881895892322063446044921875" lon="-118.54753366671502590179443359375">
        <ele>1609.4000244140625</ele>
        <time>2021-06-28T19:00:44.000Z</time>
        <extensions>
          <ns3:TrackPointExtension>
            <ns3:atemp>36.0</ns3:atemp>
            <ns3:hr>95</ns3:hr>
          </ns3:TrackPointExtension>
        </extensions>
      </trkpt>
      <trkpt lat="36.79879230447113513946533203125" lon="-118.54752243496477603912353515625">
        <ele>1609</ele>
        <time>2021-06-28T19:00:46.000Z</time>
        <extensions>
          <ns3:TrackPointExtension>
            <ns3:atemp>36.0</ns3:atemp>
            <ns3:hr>94</ns3:hr>
          </ns3:TrackPointExtension>
        </extensions>
      </trkpt>
      <trkpt lat="36.7987598665058612823486328125" lon="-118.547523021697998046875">
        <ele>1609</ele>
        <time>2021-06-28T19:00:48.000Z</time>
        <extensions>
          <ns3:TrackPointExtension>
            <ns3:atemp>36.0</ns3:atemp>
            <ns3:hr>94</ns3:hr>
          </ns3:TrackPointExtension>
        </extensions>
      </trkpt>
      <trkpt lat="36.798743940889835357666015625" lon="-118.5475070960819721221923828125">
        <ele>1609</ele>
        <time>2021-06-28T19:00:49.000Z</time>
        <extensions>
          <ns3:TrackPointExtension>
            <ns3:atemp>36.0</ns3:atemp>
            <ns3:hr>92</ns3:hr>
          </ns3:TrackPointExtension>
        </extensions>
      </trkpt>
      <trkpt lat="36.7987065576016902923583984375" lon="-118.54747935198247432708740234375">
        <ele>1608.199951171875</ele>
        <time>2021-06-28T19:00:51.000Z</time>
        <extensions>
          <ns3:TrackPointExtension>
            <ns3:atemp>36.0</ns3:atemp>
            <ns3:hr>92</ns3:hr>
          </ns3:TrackPointExtension>
        </extensions>
      </trkpt>
      <trkpt lat="36.79869473911821842193603515625" lon="-118.5474712215363979339599609375">
        <ele>1608.199951171875</ele>
        <time>2021-06-28T19:00:52.000Z</time>
        <extensions>
          <ns3:TrackPointExtension>
            <ns3:atemp>36.0</ns3:atemp>
            <ns3:hr>92</ns3:hr>
          </ns3:TrackPointExtension>
        </extensions>
      </trkpt>
      <trkpt lat="36.7986643128097057342529296875" lon="-118.54746996425092220306396484375">
        <ele>1608.199951171875</ele>
        <time>2021-06-28T19:00:55.000Z</time>
        <extensions>
          <ns3:TrackPointExtension>
            <ns3:atemp>36.0</ns3:atemp>
            <ns3:hr>93</ns3:hr>
          </ns3:TrackPointExtension>
        </extensions>
      </trkpt>
      <trkpt lat="36.798629276454448699951171875" lon="-118.54745554737746715545654296875">
        <ele>1608.199951171875</ele>
        <time>2021-06-28T19:00:59.000Z</time>
        <extensions>
          <ns3:TrackPointExtension>
            <ns3:atemp>36.0</ns3:atemp>
            <ns3:hr>95</ns3:hr>
          </ns3:TrackPointExtension>
        </extensions>
      </trkpt>
      <trkpt lat="36.79862131364643573760986328125" lon="-118.5474554635584354400634765625">
        <ele>1608.199951171875</ele>
        <time>2021-06-28T19:01:00.000Z</time>
        <extensions>
          <ns3:TrackPointExtension>
            <ns3:atemp>36.0</ns3:atemp>
            <ns3:hr>94</ns3:hr>
          </ns3:TrackPointExtension>
        </extensions>
      </trkpt>
      <trkpt lat="36.798601113259792327880859375" lon="-118.5474460758268833160400390625">
        <ele>1608</ele>
        <time>2021-06-28T19:01:02.000Z</time>
        <extensions>
          <ns3:TrackPointExtension>
            <ns3:atemp>36.0</ns3:atemp>
            <ns3:hr>97</ns3:hr>
          </ns3:TrackPointExtension>
        </extensions>
      </trkpt>
      <trkpt lat="36.7985935695469379425048828125" lon="-118.5474313236773014068603515625">
        <ele>1607.800048828125</ele>
        <time>2021-06-28T19:01:03.000Z</time>
        <extensions>
          <ns3:TrackPointExtension>
            <ns3:atemp>36.0</ns3:atemp>
            <ns3:hr>95</ns3:hr>
          </ns3:TrackPointExtension>
        </extensions>
      </trkpt>
      <trkpt lat="36.798570267856121063232421875" lon="-118.54741372168064117431640625">
        <ele>1607.800048828125</ele>
        <time>2021-06-28T19:01:05.000Z</time>
        <extensions>
          <ns3:TrackPointExtension>
            <ns3:atemp>36.0</ns3:atemp>
            <ns3:hr>96</ns3:hr>
          </ns3:TrackPointExtension>
        </extensions>
      </trkpt>
      <trkpt lat="36.79855794645845890045166015625" lon="-118.54741363786160945892333984375">
        <ele>1607.5999755859375</ele>
        <time>2021-06-28T19:01:06.000Z</time>
        <extensions>
          <ns3:TrackPointExtension>
            <ns3:atemp>36.0</ns3:atemp>
            <ns3:hr>95</ns3:hr>
          </ns3:TrackPointExtension>
        </extensions>
      </trkpt>
      <trkpt lat="36.79854637943208217620849609375" lon="-118.547424115240573883056640625">
        <ele>1607.800048828125</ele>
        <time>2021-06-28T19:01:07.000Z</time>
        <extensions>
          <ns3:TrackPointExtension>
            <ns3:atemp>36.0</ns3:atemp>
            <ns3:hr>94</ns3:hr>
          </ns3:TrackPointExtension>
        </extensions>
      </trkpt>
      <trkpt lat="36.7985322140157222747802734375" lon="-118.54742051102221012115478515625">
        <ele>1607.800048828125</ele>
        <time>2021-06-28T19:01:08.000Z</time>
        <extensions>
          <ns3:TrackPointExtension>
            <ns3:atemp>36.0</ns3:atemp>
            <ns3:hr>94</ns3:hr>
          </ns3:TrackPointExtension>
        </extensions>
      </trkpt>
      <trkpt lat="36.79846105165779590606689453125" lon="-118.54746711440384387969970703125">
        <ele>1607.5999755859375</ele>
        <time>2021-06-28T19:01:12.000Z</time>
        <extensions>
          <ns3:TrackPointExtension>
            <ns3:atemp>36.0</ns3:atemp>
            <ns3:hr>93</ns3:hr>
          </ns3:TrackPointExtension>
        </extensions>
      </trkpt>
      <trkpt lat="36.7984188906848430633544921875" lon="-118.54747214354574680328369140625">
        <ele>1607.5999755859375</ele>
        <time>2021-06-28T19:01:16.000Z</time>
        <extensions>
          <ns3:TrackPointExtension>
            <ns3:atemp>36.0</ns3:atemp>
            <ns3:hr>93</ns3:hr>
          </ns3:TrackPointExtension>
        </extensions>
      </trkpt>
      <trkpt lat="36.7984064854681491851806640625" lon="-118.54747264645993709564208984375">
        <ele>1607.5999755859375</ele>
        <time>2021-06-28T19:01:17.000Z</time>
        <extensions>
          <ns3:TrackPointExtension>
            <ns3:atemp>36.0</ns3:atemp>
            <ns3:hr>96</ns3:hr>
          </ns3:TrackPointExtension>
        </extensions>
      </trkpt>
      <trkpt lat="36.79839164949953556060791015625" lon="-118.54747650213539600372314453125">
        <ele>1607.5999755859375</ele>
        <time>2021-06-28T19:01:18.000Z</time>
        <extensions>
          <ns3:TrackPointExtension>
            <ns3:atemp>36.0</ns3:atemp>
            <ns3:hr>94</ns3:hr>
          </ns3:TrackPointExtension>
        </extensions>
      </trkpt>
      <trkpt lat="36.7983639054000377655029296875" lon="-118.54748605750501155853271484375">
        <ele>1607.800048828125</ele>
        <time>2021-06-28T19:01:20.000Z</time>
        <extensions>
          <ns3:TrackPointExtension>
            <ns3:atemp>36.0</ns3:atemp>
            <ns3:hr>94</ns3:hr>
          </ns3:TrackPointExtension>
        </extensions>
      </trkpt>
      <trkpt lat="36.798339597880840301513671875" lon="-118.54747231118381023406982421875">
        <ele>1608</ele>
        <time>2021-06-28T19:01:22.000Z</time>
        <extensions>
          <ns3:TrackPointExtension>
            <ns3:atemp>36.0</ns3:atemp>
            <ns3:hr>95</ns3:hr>
          </ns3:TrackPointExtension>
        </extensions>
      </trkpt>
      <trkpt lat="36.79830062203109264373779296875" lon="-118.54747197590768337249755859375">
        <ele>1608</ele>
        <time>2021-06-28T19:01:25.000Z</time>
        <extensions>
          <ns3:TrackPointExtension>
            <ns3:atemp>36.0</ns3:atemp>
            <ns3:hr>97</ns3:hr>
          </ns3:TrackPointExtension>
        </extensions>
      </trkpt>
      <trkpt lat="36.79826541803777217864990234375" lon="-118.54748773388564586639404296875">
        <ele>1608</ele>
        <time>2021-06-28T19:01:28.000Z</time>
        <extensions>
          <ns3:TrackPointExtension>
            <ns3:atemp>36.0</ns3:atemp>
            <ns3:hr>98</ns3:hr>
          </ns3:TrackPointExtension>
        </extensions>
      </trkpt>
      <trkpt lat="36.79824161343276500701904296875" lon="-118.547497205436229705810546875">
        <ele>1608.4000244140625</ele>
        <time>2021-06-28T19:01:30.000Z</time>
        <extensions>
          <ns3:TrackPointExtension>
            <ns3:atemp>36.0</ns3:atemp>
            <ns3:hr>98</ns3:hr>
          </ns3:TrackPointExtension>
        </extensions>
      </trkpt>
      <trkpt lat="36.798201464116573333740234375" lon="-118.5475178249180316925048828125">
        <ele>1608.5999755859375</ele>
        <time>2021-06-28T19:01:33.000Z</time>
        <extensions>
          <ns3:TrackPointExtension>
            <ns3:atemp>36.0</ns3:atemp>
            <ns3:hr>99</ns3:hr>
          </ns3:TrackPointExtension>
        </extensions>
      </trkpt>
      <trkpt lat="36.798183359205722808837890625" lon="-118.547517322003841400146484375">
        <ele>1608.800048828125</ele>
        <time>2021-06-28T19:01:34.000Z</time>
        <extensions>
          <ns3:TrackPointExtension>
            <ns3:atemp>36.0</ns3:atemp>
            <ns3:hr>99</ns3:hr>
          </ns3:TrackPointExtension>
        </extensions>
      </trkpt>
      <trkpt lat="36.7981285415589809417724609375" lon="-118.5475335828959941864013671875">
        <ele>1608.800048828125</ele>
        <time>2021-06-28T19:01:38.000Z</time>
        <extensions>
          <ns3:TrackPointExtension>
            <ns3:atemp>36.0</ns3:atemp>
            <ns3:hr>100</ns3:hr>
          </ns3:TrackPointExtension>
        </extensions>
      </trkpt>
      <trkpt lat="36.7980993725359439849853515625" lon="-118.5475255362689495086669921875">
        <ele>1608.800048828125</ele>
        <time>2021-06-28T19:01:40.000Z</time>
        <extensions>
          <ns3:TrackPointExtension>
            <ns3:atemp>36.0</ns3:atemp>
            <ns3:hr>103</ns3:hr>
          </ns3:TrackPointExtension>
        </extensions>
      </trkpt>
      <trkpt lat="36.79808713495731353759765625" lon="-118.547511287033557891845703125">
        <ele>1608.800048828125</ele>
        <time>2021-06-28T19:01:41.000Z</time>
        <extensions>
          <ns3:TrackPointExtension>
            <ns3:atemp>36.0</ns3:atemp>
            <ns3:hr>102</ns3:hr>
          </ns3:TrackPointExtension>
        </extensions>
      </trkpt>
      <trkpt lat="36.79807045497000217437744140625" lon="-118.547507934272289276123046875">
        <ele>1609</ele>
        <time>2021-06-28T19:01:43.000Z</time>
        <extensions>
          <ns3:TrackPointExtension>
            <ns3:atemp>36.0</ns3:atemp>
            <ns3:hr>102</ns3:hr>
          </ns3:TrackPointExtension>
        </extensions>
      </trkpt>
      <trkpt lat="36.7980474047362804412841796875" lon="-118.5475151427090167999267578125">
        <ele>1609</ele>
        <time>2021-06-28T19:01:45.000Z</time>
        <extensions>
          <ns3:TrackPointExtension>
            <ns3:atemp>36.0</ns3:atemp>
            <ns3:hr>105</ns3:hr>
          </ns3:TrackPointExtension>
        </extensions>
      </trkpt>
      <trkpt lat="36.79800641722977161407470703125" lon="-118.547516651451587677001953125">
        <ele>1609</ele>
        <time>2021-06-28T19:01:48.000Z</time>
        <extensions>
          <ns3:TrackPointExtension>
            <ns3:atemp>36.0</ns3:atemp>
            <ns3:hr>101</ns3:hr>
          </ns3:TrackPointExtension>
        </extensions>
      </trkpt>
      <trkpt lat="36.79799702949821949005126953125" lon="-118.54751564562320709228515625">
        <ele>1608.800048828125</ele>
        <time>2021-06-28T19:01:49.000Z</time>
        <extensions>
          <ns3:TrackPointExtension>
            <ns3:atemp>36.0</ns3:atemp>
            <ns3:hr>105</ns3:hr>
          </ns3:TrackPointExtension>
        </extensions>
      </trkpt>
      <trkpt lat="36.79798630066215991973876953125" lon="-118.5475087724626064300537109375">
        <ele>1608.5999755859375</ele>
        <time>2021-06-28T19:01:50.000Z</time>
        <extensions>
          <ns3:TrackPointExtension>
            <ns3:atemp>36.0</ns3:atemp>
            <ns3:hr>105</ns3:hr>
          </ns3:TrackPointExtension>
        </extensions>
      </trkpt>
      <trkpt lat="36.7979769967496395111083984375" lon="-118.5475024022161960601806640625">
        <ele>1608.5999755859375</ele>
        <time>2021-06-28T19:01:51.000Z</time>
        <extensions>
          <ns3:TrackPointExtension>
            <ns3:atemp>36.0</ns3:atemp>
            <ns3:hr>105</ns3:hr>
          </ns3:TrackPointExtension>
        </extensions>
      </trkpt>
      <trkpt lat="36.7979159764945507049560546875" lon="-118.5475138016045093536376953125">
        <ele>1607.5999755859375</ele>
        <time>2021-06-28T19:01:55.000Z</time>
        <extensions>
          <ns3:TrackPointExtension>
            <ns3:atemp>36.0</ns3:atemp>
            <ns3:hr>105</ns3:hr>
          </ns3:TrackPointExtension>
        </extensions>
      </trkpt>
      <trkpt lat="36.7978705465793609619140625" lon="-118.54752562008798122406005859375">
        <ele>1607.4000244140625</ele>
        <time>2021-06-28T19:01:59.000Z</time>
        <extensions>
          <ns3:TrackPointExtension>
            <ns3:atemp>36.0</ns3:atemp>
            <ns3:hr>104</ns3:hr>
          </ns3:TrackPointExtension>
        </extensions>
      </trkpt>
      <trkpt lat="36.7978324927389621734619140625" lon="-118.5475382767617702484130859375">
        <ele>1607</ele>
        <time>2021-06-28T19:02:02.000Z</time>
        <extensions>
          <ns3:TrackPointExtension>
            <ns3:atemp>36.0</ns3:atemp>
            <ns3:hr>105</ns3:hr>
          </ns3:TrackPointExtension>
        </extensions>
      </trkpt>
      <trkpt lat="36.79779100231826305389404296875" lon="-118.547539450228214263916015625">
        <ele>1606.5999755859375</ele>
        <time>2021-06-28T19:02:05.000Z</time>
        <extensions>
          <ns3:TrackPointExtension>
            <ns3:atemp>36.0</ns3:atemp>
            <ns3:hr>104</ns3:hr>
          </ns3:TrackPointExtension>
        </extensions>
      </trkpt>
      <trkpt lat="36.7977677844464778900146484375" lon="-118.54755076579749584197998046875">
        <ele>1606.4000244140625</ele>
        <time>2021-06-28T19:02:07.000Z</time>
        <extensions>
          <ns3:TrackPointExtension>
            <ns3:atemp>36.0</ns3:atemp>
            <ns3:hr>102</ns3:hr>
          </ns3:TrackPointExtension>
        </extensions>
      </trkpt>
      <trkpt lat="36.79773719049990177154541015625" lon="-118.54755051434040069580078125">
        <ele>1605.800048828125</ele>
        <time>2021-06-28T19:02:09.000Z</time>
        <extensions>
          <ns3:TrackPointExtension>
            <ns3:atemp>36.0</ns3:atemp>
            <ns3:hr>101</ns3:hr>
          </ns3:TrackPointExtension>
        </extensions>
      </trkpt>
      <trkpt lat="36.7977201752364635467529296875" lon="-118.54756434448063373565673828125">
        <ele>1605.4000244140625</ele>
        <time>2021-06-28T19:02:10.000Z</time>
        <extensions>
          <ns3:TrackPointExtension>
            <ns3:atemp>36.0</ns3:atemp>
            <ns3:hr>101</ns3:hr>
          </ns3:TrackPointExtension>
        </extensions>
      </trkpt>
      <trkpt lat="36.79767399094998836517333984375" lon="-118.5475644282996654510498046875">
        <ele>1605</ele>
        <time>2021-06-28T19:02:13.000Z</time>
        <extensions>
          <ns3:TrackPointExtension>
            <ns3:atemp>36.0</ns3:atemp>
            <ns3:hr>102</ns3:hr>
          </ns3:TrackPointExtension>
        </extensions>
      </trkpt>
      <trkpt lat="36.79763442836701869964599609375" lon="-118.5476194135844707489013671875">
        <ele>1605.5999755859375</ele>
        <time>2021-06-28T19:02:17.000Z</time>
        <extensions>
          <ns3:TrackPointExtension>
            <ns3:atemp>36.0</ns3:atemp>
            <ns3:hr>101</ns3:hr>
          </ns3:TrackPointExtension>
        </extensions>
      </trkpt>
      <trkpt lat="36.7976105399429798126220703125" lon="-118.54764564894139766693115234375">
        <ele>1605.5999755859375</ele>
        <time>2021-06-28T19:02:19.000Z</time>
        <extensions>
          <ns3:TrackPointExtension>
            <ns3:atemp>36.0</ns3:atemp>
            <ns3:hr>103</ns3:hr>
          </ns3:TrackPointExtension>
        </extensions>
      </trkpt>
      <trkpt lat="36.79758430458605289459228515625" lon="-118.5476509295403957366943359375">
        <ele>1605.4000244140625</ele>
        <time>2021-06-28T19:02:21.000Z</time>
        <extensions>
          <ns3:TrackPointExtension>
            <ns3:atemp>36.0</ns3:atemp>
            <ns3:hr>100</ns3:hr>
          </ns3:TrackPointExtension>
        </extensions>
      </trkpt>
      <trkpt lat="36.7975696362555027008056640625" lon="-118.54765109717845916748046875">
        <ele>1605.5999755859375</ele>
        <time>2021-06-28T19:02:23.000Z</time>
        <extensions>
          <ns3:TrackPointExtension>
            <ns3:atemp>36.0</ns3:atemp>
            <ns3:hr>99</ns3:hr>
          </ns3:TrackPointExtension>
        </extensions>
      </trkpt>
      <trkpt lat="36.79755111224949359893798828125" lon="-118.547648079693317413330078125">
        <ele>1606.199951171875</ele>
        <time>2021-06-28T19:02:26.000Z</time>
        <extensions>
          <ns3:TrackPointExtension>
            <ns3:atemp>36.0</ns3:atemp>
            <ns3:hr>96</ns3:hr>
          </ns3:TrackPointExtension>
        </extensions>
      </trkpt>
      <trkpt lat="36.79753124713897705078125" lon="-118.54763173498213291168212890625">
        <ele>1606.199951171875</ele>
        <time>2021-06-28T19:02:28.000Z</time>
        <extensions>
          <ns3:TrackPointExtension>
            <ns3:atemp>36.0</ns3:atemp>
            <ns3:hr>99</ns3:hr>
          </ns3:TrackPointExtension>
        </extensions>
      </trkpt>
      <trkpt lat="36.7974968813359737396240234375" lon="-118.5476177372038364410400390625">
        <ele>1606.4000244140625</ele>
        <time>2021-06-28T19:02:31.000Z</time>
        <extensions>
          <ns3:TrackPointExtension>
            <ns3:atemp>36.0</ns3:atemp>
            <ns3:hr>99</ns3:hr>
          </ns3:TrackPointExtension>
        </extensions>
      </trkpt>
      <trkpt lat="36.79747869260609149932861328125" lon="-118.5476281307637691497802734375">
        <ele>1606.800048828125</ele>
        <time>2021-06-28T19:02:33.000Z</time>
        <extensions>
          <ns3:TrackPointExtension>
            <ns3:atemp>36.0</ns3:atemp>
            <ns3:hr>99</ns3:hr>
          </ns3:TrackPointExtension>
        </extensions>
      </trkpt>
      <trkpt lat="36.79742119275033473968505859375" lon="-118.54761220514774322509765625">
        <ele>1607.5999755859375</ele>
        <time>2021-06-28T19:02:38.000Z</time>
        <extensions>
          <ns3:TrackPointExtension>
            <ns3:atemp>35.0</ns3:atemp>
            <ns3:hr>101</ns3:hr>
          </ns3:TrackPointExtension>
        </extensions>
      </trkpt>
      <trkpt lat="36.797393448650836944580078125" lon="-118.54761882685124874114990234375">
        <ele>1607.800048828125</ele>
        <time>2021-06-28T19:02:40.000Z</time>
        <extensions>
          <ns3:TrackPointExtension>
            <ns3:atemp>35.0</ns3:atemp>
            <ns3:hr>103</ns3:hr>
          </ns3:TrackPointExtension>
        </extensions>
      </trkpt>
      <trkpt lat="36.7973818816244602203369140625" lon="-118.54761530645191669464111328125">
        <ele>1607.800048828125</ele>
        <time>2021-06-28T19:02:41.000Z</time>
        <extensions>
          <ns3:TrackPointExtension>
            <ns3:atemp>35.0</ns3:atemp>
            <ns3:hr>104</ns3:hr>
          </ns3:TrackPointExtension>
        </extensions>
      </trkpt>
      <trkpt lat="36.79735665209591388702392578125" lon="-118.54759820736944675445556640625">
        <ele>1608</ele>
        <time>2021-06-28T19:02:43.000Z</time>
        <extensions>
          <ns3:TrackPointExtension>
            <ns3:atemp>35.0</ns3:atemp>
            <ns3:hr>105</ns3:hr>
          </ns3:TrackPointExtension>
        </extensions>
      </trkpt>
      <trkpt lat="36.79730317555367946624755859375" lon="-118.547567613422870635986328125">
        <ele>1608.199951171875</ele>
        <time>2021-06-28T19:02:46.000Z</time>
        <extensions>
          <ns3:TrackPointExtension>
            <ns3:atemp>35.0</ns3:atemp>
            <ns3:hr>107</ns3:hr>
          </ns3:TrackPointExtension>
        </extensions>
      </trkpt>
      <trkpt lat="36.79727870039641857147216796875" lon="-118.54755613021552562713623046875">
        <ele>1608.199951171875</ele>
        <time>2021-06-28T19:02:48.000Z</time>
        <extensions>
          <ns3:TrackPointExtension>
            <ns3:atemp>35.0</ns3:atemp>
            <ns3:hr>108</ns3:hr>
          </ns3:TrackPointExtension>
        </extensions>
      </trkpt>
      <trkpt lat="36.797261349856853485107421875" lon="-118.547564260661602020263671875">
        <ele>1608.199951171875</ele>
        <time>2021-06-28T19:02:50.000Z</time>
        <extensions>
          <ns3:TrackPointExtension>
            <ns3:atemp>35.0</ns3:atemp>
            <ns3:hr>110</ns3:hr>
          </ns3:TrackPointExtension>
        </extensions>
      </trkpt>
      <trkpt lat="36.797251291573047637939453125" lon="-118.547566272318363189697265625">
        <ele>1608.199951171875</ele>
        <time>2021-06-28T19:02:51.000Z</time>
        <extensions>
          <ns3:TrackPointExtension>
            <ns3:atemp>35.0</ns3:atemp>
            <ns3:hr>112</ns3:hr>
          </ns3:TrackPointExtension>
        </extensions>
      </trkpt>
      <trkpt lat="36.79723159410059452056884765625" lon="-118.54755763895809650421142578125">
        <ele>1608.5999755859375</ele>
        <time>2021-06-28T19:02:53.000Z</time>
        <extensions>
          <ns3:TrackPointExtension>
            <ns3:atemp>35.0</ns3:atemp>
            <ns3:hr>114</ns3:hr>
          </ns3:TrackPointExtension>
        </extensions>
      </trkpt>
      <trkpt lat="36.797215752303600311279296875" lon="-118.54755596257746219635009765625">
        <ele>1608.5999755859375</ele>
        <time>2021-06-28T19:02:55.000Z</time>
        <extensions>
          <ns3:TrackPointExtension>
            <ns3:atemp>35.0</ns3:atemp>
            <ns3:hr>116</ns3:hr>
          </ns3:TrackPointExtension>
        </extensions>
      </trkpt>
      <trkpt lat="36.797210387885570526123046875" lon="-118.5475620813667774200439453125">
        <ele>1608.5999755859375</ele>
        <time>2021-06-28T19:02:57.000Z</time>
        <extensions>
          <ns3:TrackPointExtension>
            <ns3:atemp>35.0</ns3:atemp>
            <ns3:hr>116</ns3:hr>
          </ns3:TrackPointExtension>
        </extensions>
      </trkpt>
      <trkpt lat="36.79712665267288684844970703125" lon="-118.5475764982402324676513671875">
        <ele>1608.199951171875</ele>
        <time>2021-06-28T19:03:03.000Z</time>
        <extensions>
          <ns3:TrackPointExtension>
            <ns3:atemp>35.0</ns3:atemp>
            <ns3:hr>116</ns3:hr>
          </ns3:TrackPointExtension>
        </extensions>
      </trkpt>
      <trkpt lat="36.7971072904765605926513671875" lon="-118.54756870307028293609619140625">
        <ele>1608.199951171875</ele>
        <time>2021-06-28T19:03:04.000Z</time>
        <extensions>
          <ns3:TrackPointExtension>
            <ns3:atemp>35.0</ns3:atemp>
            <ns3:hr>116</ns3:hr>
          </ns3:TrackPointExtension>
        </extensions>
      </trkpt>
      <trkpt lat="36.79707149975001811981201171875" lon="-118.54757557623088359832763671875">
        <ele>1608.199951171875</ele>
        <time>2021-06-28T19:03:06.000Z</time>
        <extensions>
          <ns3:TrackPointExtension>
            <ns3:atemp>35.0</ns3:atemp>
            <ns3:hr>117</ns3:hr>
          </ns3:TrackPointExtension>
        </extensions>
      </trkpt>
      <trkpt lat="36.7970556579530239105224609375" lon="-118.54757197201251983642578125">
        <ele>1608</ele>
        <time>2021-06-28T19:03:09.000Z</time>
        <extensions>
          <ns3:TrackPointExtension>
            <ns3:atemp>35.0</ns3:atemp>
            <ns3:hr>117</ns3:hr>
          </ns3:TrackPointExtension>
        </extensions>
      </trkpt>
      <trkpt lat="36.79704777896404266357421875" lon="-118.54757909663021564483642578125">
        <ele>1608.199951171875</ele>
        <time>2021-06-28T19:03:10.000Z</time>
        <extensions>
          <ns3:TrackPointExtension>
            <ns3:atemp>35.0</ns3:atemp>
            <ns3:hr>118</ns3:hr>
          </ns3:TrackPointExtension>
        </extensions>
      </trkpt>
      <trkpt lat="36.7970680631697177886962890625" lon="-118.54761748574674129486083984375">
        <ele>1608.800048828125</ele>
        <time>2021-06-28T19:03:15.000Z</time>
        <extensions>
          <ns3:TrackPointExtension>
            <ns3:atemp>35.0</ns3:atemp>
            <ns3:hr>116</ns3:hr>
          </ns3:TrackPointExtension>
        </extensions>
      </trkpt>
      <trkpt lat="36.7970251478254795074462890625" lon="-118.54760306887328624725341796875">
        <ele>1609</ele>
        <time>2021-06-28T19:03:22.000Z</time>
        <extensions>
          <ns3:TrackPointExtension>
            <ns3:atemp>35.0</ns3:atemp>
            <ns3:hr>117</ns3:hr>
          </ns3:TrackPointExtension>
        </extensions>
      </trkpt>
      <trkpt lat="36.7969644628465175628662109375" lon="-118.5476117022335529327392578125">
        <ele>1608.800048828125</ele>
        <time>2021-06-28T19:03:28.000Z</time>
        <extensions>
          <ns3:TrackPointExtension>
            <ns3:atemp>35.0</ns3:atemp>
            <ns3:hr>114</ns3:hr>
          </ns3:TrackPointExtension>
        </extensions>
      </trkpt>
      <trkpt lat="36.796942837536334991455078125" lon="-118.5476048290729522705078125">
        <ele>1608.4000244140625</ele>
        <time>2021-06-28T19:03:30.000Z</time>
        <extensions>
          <ns3:TrackPointExtension>
            <ns3:atemp>35.0</ns3:atemp>
            <ns3:hr>112</ns3:hr>
          </ns3:TrackPointExtension>
        </extensions>
      </trkpt>
      <trkpt lat="36.7968870140612125396728515625" lon="-118.54759275913238525390625">
        <ele>1607.5999755859375</ele>
        <time>2021-06-28T19:03:34.000Z</time>
        <extensions>
          <ns3:TrackPointExtension>
            <ns3:atemp>35.0</ns3:atemp>
            <ns3:hr>110</ns3:hr>
          </ns3:TrackPointExtension>
        </extensions>
      </trkpt>
      <trkpt lat="36.7968732677400112152099609375" lon="-118.547591753304004669189453125">
        <ele>1607.5999755859375</ele>
        <time>2021-06-28T19:03:35.000Z</time>
        <extensions>
          <ns3:TrackPointExtension>
            <ns3:atemp>35.0</ns3:atemp>
            <ns3:hr>109</ns3:hr>
          </ns3:TrackPointExtension>
        </extensions>
      </trkpt>
      <trkpt lat="36.79685809649527072906494140625" lon="-118.5475860536098480224609375">
        <ele>1607</ele>
        <time>2021-06-28T19:03:36.000Z</time>
        <extensions>
          <ns3:TrackPointExtension>
            <ns3:atemp>35.0</ns3:atemp>
            <ns3:hr>107</ns3:hr>
          </ns3:TrackPointExtension>
        </extensions>
      </trkpt>
      <trkpt lat="36.79680730216205120086669921875" lon="-118.547585047781467437744140625">
        <ele>1606.800048828125</ele>
        <time>2021-06-28T19:03:40.000Z</time>
        <extensions>
          <ns3:TrackPointExtension>
            <ns3:atemp>35.0</ns3:atemp>
            <ns3:hr>105</ns3:hr>
          </ns3:TrackPointExtension>
        </extensions>
      </trkpt>
      <trkpt lat="36.79677377454936504364013671875" lon="-118.54759552516043186187744140625">
        <ele>1606.800048828125</ele>
        <time>2021-06-28T19:03:43.000Z</time>
        <extensions>
          <ns3:TrackPointExtension>
            <ns3:atemp>35.0</ns3:atemp>
            <ns3:hr>104</ns3:hr>
          </ns3:TrackPointExtension>
        </extensions>
      </trkpt>
      <trkpt lat="36.79676237516105175018310546875" lon="-118.54759636335074901580810546875">
        <ele>1606.800048828125</ele>
        <time>2021-06-28T19:03:44.000Z</time>
        <extensions>
          <ns3:TrackPointExtension>
            <ns3:atemp>35.0</ns3:atemp>
            <ns3:hr>104</ns3:hr>
          </ns3:TrackPointExtension>
        </extensions>
      </trkpt>
      <trkpt lat="36.79673840291798114776611328125" lon="-118.54759854264557361602783203125">
        <ele>1606.800048828125</ele>
        <time>2021-06-28T19:03:46.000Z</time>
        <extensions>
          <ns3:TrackPointExtension>
            <ns3:atemp>35.0</ns3:atemp>
            <ns3:hr>103</ns3:hr>
          </ns3:TrackPointExtension>
        </extensions>
      </trkpt>
      <trkpt lat="36.79670177400112152099609375" lon="-118.54761078022420406341552734375">
        <ele>1606.800048828125</ele>
        <time>2021-06-28T19:03:49.000Z</time>
        <extensions>
          <ns3:TrackPointExtension>
            <ns3:atemp>35.0</ns3:atemp>
            <ns3:hr>104</ns3:hr>
          </ns3:TrackPointExtension>
        </extensions>
      </trkpt>
      <trkpt lat="36.79667268879711627960205078125" lon="-118.54764548130333423614501953125">
        <ele>1607</ele>
        <time>2021-06-28T19:03:52.000Z</time>
        <extensions>
          <ns3:TrackPointExtension>
            <ns3:atemp>35.0</ns3:atemp>
            <ns3:hr>104</ns3:hr>
          </ns3:TrackPointExtension>
        </extensions>
      </trkpt>
      <trkpt lat="36.796634383499622344970703125" lon="-118.54766895063221454620361328125">
        <ele>1607.4000244140625</ele>
        <time>2021-06-28T19:03:55.000Z</time>
        <extensions>
          <ns3:TrackPointExtension>
            <ns3:atemp>35.0</ns3:atemp>
            <ns3:hr>102</ns3:hr>
          </ns3:TrackPointExtension>
        </extensions>
      </trkpt>
      <trkpt lat="36.796555928885936737060546875" lon="-118.5477287136018276214599609375">
        <ele>1608</ele>
        <time>2021-06-28T19:04:03.000Z</time>
        <extensions>
          <ns3:TrackPointExtension>
            <ns3:atemp>35.0</ns3:atemp>
            <ns3:hr>103</ns3:hr>
          </ns3:TrackPointExtension>
        </extensions>
      </trkpt>
      <trkpt lat="36.79653975181281566619873046875" lon="-118.54773424565792083740234375">
        <ele>1608</ele>
        <time>2021-06-28T19:04:04.000Z</time>
        <extensions>
          <ns3:TrackPointExtension>
            <ns3:atemp>35.0</ns3:atemp>
            <ns3:hr>102</ns3:hr>
          </ns3:TrackPointExtension>
        </extensions>
      </trkpt>
      <trkpt lat="36.79650907404720783233642578125" lon="-118.5477293841540813446044921875">
        <ele>1608.199951171875</ele>
        <time>2021-06-28T19:04:06.000Z</time>
        <extensions>
          <ns3:TrackPointExtension>
            <ns3:atemp>35.0</ns3:atemp>
            <ns3:hr>103</ns3:hr>
          </ns3:TrackPointExtension>
        </extensions>
      </trkpt>
      <trkpt lat="36.79648107849061489105224609375" lon="-118.54775796644389629364013671875">
        <ele>1608.199951171875</ele>
        <time>2021-06-28T19:04:09.000Z</time>
        <extensions>
          <ns3:TrackPointExtension>
            <ns3:atemp>35.0</ns3:atemp>
            <ns3:hr>102</ns3:hr>
          </ns3:TrackPointExtension>
        </extensions>
      </trkpt>
      <trkpt lat="36.7964266799390316009521484375" lon="-118.5477930866181850433349609375">
        <ele>1608.4000244140625</ele>
        <time>2021-06-28T19:04:14.000Z</time>
        <extensions>
          <ns3:TrackPointExtension>
            <ns3:atemp>35.0</ns3:atemp>
            <ns3:hr>103</ns3:hr>
          </ns3:TrackPointExtension>
        </extensions>
      </trkpt>
      <trkpt lat="36.7963577806949615478515625" lon="-118.547821082174777984619140625">
        <ele>1607.800048828125</ele>
        <time>2021-06-28T19:04:21.000Z</time>
        <extensions>
          <ns3:TrackPointExtension>
            <ns3:atemp>35.0</ns3:atemp>
            <ns3:hr>104</ns3:hr>
          </ns3:TrackPointExtension>
        </extensions>
      </trkpt>
      <trkpt lat="36.79633297026157379150390625" lon="-118.5478383488953113555908203125">
        <ele>1607.800048828125</ele>
        <time>2021-06-28T19:04:24.000Z</time>
        <extensions>
          <ns3:TrackPointExtension>
            <ns3:atemp>35.0</ns3:atemp>
            <ns3:hr>106</ns3:hr>
          </ns3:TrackPointExtension>
        </extensions>
      </trkpt>
      <trkpt lat="36.79632232524454593658447265625" lon="-118.54786408133804798126220703125">
        <ele>1607.800048828125</ele>
        <time>2021-06-28T19:04:26.000Z</time>
        <extensions>
          <ns3:TrackPointExtension>
            <ns3:atemp>35.0</ns3:atemp>
            <ns3:hr>108</ns3:hr>
          </ns3:TrackPointExtension>
        </extensions>
      </trkpt>
      <trkpt lat="36.7963167093694210052490234375" lon="-118.5478685237467288970947265625">
        <ele>1607.5999755859375</ele>
        <time>2021-06-28T19:04:27.000Z</time>
        <extensions>
          <ns3:TrackPointExtension>
            <ns3:atemp>35.0</ns3:atemp>
            <ns3:hr>108</ns3:hr>
          </ns3:TrackPointExtension>
        </extensions>
      </trkpt>
      <trkpt lat="36.79630103521049022674560546875" lon="-118.5478990338742733001708984375">
        <ele>1607.5999755859375</ele>
        <time>2021-06-28T19:04:29.000Z</time>
        <extensions>
          <ns3:TrackPointExtension>
            <ns3:atemp>35.0</ns3:atemp>
            <ns3:hr>110</ns3:hr>
          </ns3:TrackPointExtension>
        </extensions>
      </trkpt>
      <trkpt lat="36.79626993834972381591796875" lon="-118.5479372553527355194091796875">
        <ele>1607.5999755859375</ele>
        <time>2021-06-28T19:04:32.000Z</time>
        <extensions>
          <ns3:TrackPointExtension>
            <ns3:atemp>35.0</ns3:atemp>
            <ns3:hr>107</ns3:hr>
          </ns3:TrackPointExtension>
        </extensions>
      </trkpt>
      <trkpt lat="36.79625242017209529876708984375" lon="-118.54794924147427082061767578125">
        <ele>1607.5999755859375</ele>
        <time>2021-06-28T19:04:33.000Z</time>
        <extensions>
          <ns3:TrackPointExtension>
            <ns3:atemp>35.0</ns3:atemp>
            <ns3:hr>107</ns3:hr>
          </ns3:TrackPointExtension>
        </extensions>
      </trkpt>
      <trkpt lat="36.79621034301817417144775390625" lon="-118.54795929975807666778564453125">
        <ele>1607.5999755859375</ele>
        <time>2021-06-28T19:04:36.000Z</time>
        <extensions>
          <ns3:TrackPointExtension>
            <ns3:atemp>35.0</ns3:atemp>
            <ns3:hr>104</ns3:hr>
          </ns3:TrackPointExtension>
        </extensions>
      </trkpt>
      <trkpt lat="36.79619424976408481597900390625" lon="-118.547971956431865692138671875">
        <ele>1607.4000244140625</ele>
        <time>2021-06-28T19:04:38.000Z</time>
        <extensions>
          <ns3:TrackPointExtension>
            <ns3:atemp>35.0</ns3:atemp>
            <ns3:hr>102</ns3:hr>
          </ns3:TrackPointExtension>
        </extensions>
      </trkpt>
      <trkpt lat="36.79618419148027896881103515625" lon="-118.5479872114956378936767578125">
        <ele>1607.4000244140625</ele>
        <time>2021-06-28T19:04:39.000Z</time>
        <extensions>
          <ns3:TrackPointExtension>
            <ns3:atemp>35.0</ns3:atemp>
            <ns3:hr>102</ns3:hr>
          </ns3:TrackPointExtension>
        </extensions>
      </trkpt>
      <trkpt lat="36.7961105145514011383056640625" lon="-118.54806139133870601654052734375">
        <ele>1607.5999755859375</ele>
        <time>2021-06-28T19:04:46.000Z</time>
        <extensions>
          <ns3:TrackPointExtension>
            <ns3:atemp>35.0</ns3:atemp>
            <ns3:hr>104</ns3:hr>
          </ns3:TrackPointExtension>
        </extensions>
      </trkpt>
      <trkpt lat="36.796098612248897552490234375" lon="-118.54807949624955654144287109375">
        <ele>1607.5999755859375</ele>
        <time>2021-06-28T19:04:47.000Z</time>
        <extensions>
          <ns3:TrackPointExtension>
            <ns3:atemp>35.0</ns3:atemp>
            <ns3:hr>104</ns3:hr>
          </ns3:TrackPointExtension>
        </extensions>
      </trkpt>
      <trkpt lat="36.7960826866328716278076171875" lon="-118.54810128919780254364013671875">
        <ele>1607.199951171875</ele>
        <time>2021-06-28T19:04:49.000Z</time>
        <extensions>
          <ns3:TrackPointExtension>
            <ns3:atemp>35.0</ns3:atemp>
            <ns3:hr>105</ns3:hr>
          </ns3:TrackPointExtension>
        </extensions>
      </trkpt>
      <trkpt lat="36.796059720218181610107421875" lon="-118.548122160136699676513671875">
        <ele>1607</ele>
        <time>2021-06-28T19:04:51.000Z</time>
        <extensions>
          <ns3:TrackPointExtension>
            <ns3:atemp>35.0</ns3:atemp>
            <ns3:hr>105</ns3:hr>
          </ns3:TrackPointExtension>
        </extensions>
      </trkpt>
      <trkpt lat="36.79604329168796539306640625" lon="-118.54812710545957088470458984375">
        <ele>1607</ele>
        <time>2021-06-28T19:04:52.000Z</time>
        <extensions>
          <ns3:TrackPointExtension>
            <ns3:atemp>35.0</ns3:atemp>
            <ns3:hr>103</ns3:hr>
          </ns3:TrackPointExtension>
        </extensions>
      </trkpt>
      <trkpt lat="36.796024851500988006591796875" lon="-118.5481297038495540618896484375">
        <ele>1607</ele>
        <time>2021-06-28T19:04:53.000Z</time>
        <extensions>
          <ns3:TrackPointExtension>
            <ns3:atemp>35.0</ns3:atemp>
            <ns3:hr>105</ns3:hr>
          </ns3:TrackPointExtension>
        </extensions>
      </trkpt>
      <trkpt lat="36.79597866721451282501220703125" lon="-118.54813397862017154693603515625">
        <ele>1606.800048828125</ele>
        <time>2021-06-28T19:04:56.000Z</time>
        <extensions>
          <ns3:TrackPointExtension>
            <ns3:atemp>35.0</ns3:atemp>
            <ns3:hr>102</ns3:hr>
          </ns3:TrackPointExtension>
        </extensions>
      </trkpt>
      <trkpt lat="36.79596710018813610076904296875" lon="-118.54814068414270877838134765625">
        <ele>1606.5999755859375</ele>
        <time>2021-06-28T19:04:57.000Z</time>
        <extensions>
          <ns3:TrackPointExtension>
            <ns3:atemp>35.0</ns3:atemp>
            <ns3:hr>102</ns3:hr>
          </ns3:TrackPointExtension>
        </extensions>
      </trkpt>
      <trkpt lat="36.7958852089941501617431640625" lon="-118.54812450706958770751953125">
        <ele>1606.5999755859375</ele>
        <time>2021-06-28T19:05:04.000Z</time>
        <extensions>
          <ns3:TrackPointExtension>
            <ns3:atemp>35.0</ns3:atemp>
            <ns3:hr>99</ns3:hr>
          </ns3:TrackPointExtension>
        </extensions>
      </trkpt>
      <trkpt lat="36.79585008881986141204833984375" lon="-118.54815401136875152587890625">
        <ele>1606.199951171875</ele>
        <time>2021-06-28T19:05:08.000Z</time>
        <extensions>
          <ns3:TrackPointExtension>
            <ns3:atemp>35.0</ns3:atemp>
            <ns3:hr>95</ns3:hr>
          </ns3:TrackPointExtension>
        </extensions>
      </trkpt>
      <trkpt lat="36.79584673605859279632568359375" lon="-118.548164069652557373046875">
        <ele>1606.199951171875</ele>
        <time>2021-06-28T19:05:09.000Z</time>
        <extensions>
          <ns3:TrackPointExtension>
            <ns3:atemp>35.0</ns3:atemp>
            <ns3:hr>97</ns3:hr>
          </ns3:TrackPointExtension>
        </extensions>
      </trkpt>
      <trkpt lat="36.7958241887390613555908203125" lon="-118.54823858477175235748291015625">
        <ele>1606.800048828125</ele>
        <time>2021-06-28T19:05:14.000Z</time>
        <extensions>
          <ns3:TrackPointExtension>
            <ns3:atemp>35.0</ns3:atemp>
            <ns3:hr>97</ns3:hr>
          </ns3:TrackPointExtension>
        </extensions>
      </trkpt>
      <trkpt lat="36.7958047427237033843994140625" lon="-118.54825233109295368194580078125">
        <ele>1606.800048828125</ele>
        <time>2021-06-28T19:05:16.000Z</time>
        <extensions>
          <ns3:TrackPointExtension>
            <ns3:atemp>35.0</ns3:atemp>
            <ns3:hr>95</ns3:hr>
          </ns3:TrackPointExtension>
        </extensions>
      </trkpt>
      <trkpt lat="36.79577079601585865020751953125" lon="-118.5482829250395298004150390625">
        <ele>1606.800048828125</ele>
        <time>2021-06-28T19:05:19.000Z</time>
        <extensions>
          <ns3:TrackPointExtension>
            <ns3:atemp>35.0</ns3:atemp>
            <ns3:hr>95</ns3:hr>
          </ns3:TrackPointExtension>
        </extensions>
      </trkpt>
      <trkpt lat="36.79574179463088512420654296875" lon="-118.548332713544368743896484375">
        <ele>1606.5999755859375</ele>
        <time>2021-06-28T19:05:22.000Z</time>
        <extensions>
          <ns3:TrackPointExtension>
            <ns3:atemp>35.0</ns3:atemp>
            <ns3:hr>96</ns3:hr>
          </ns3:TrackPointExtension>
        </extensions>
      </trkpt>
      <trkpt lat="36.795728467404842376708984375" lon="-118.5483375750482082366943359375">
        <ele>1606.5999755859375</ele>
        <time>2021-06-28T19:05:23.000Z</time>
        <extensions>
          <ns3:TrackPointExtension>
            <ns3:atemp>35.0</ns3:atemp>
            <ns3:hr>96</ns3:hr>
          </ns3:TrackPointExtension>
        </extensions>
      </trkpt>
      <trkpt lat="36.79566686041653156280517578125" lon="-118.54834268800914287567138671875">
        <ele>1606</ele>
        <time>2021-06-28T19:05:27.000Z</time>
        <extensions>
          <ns3:TrackPointExtension>
            <ns3:atemp>35.0</ns3:atemp>
            <ns3:hr>99</ns3:hr>
          </ns3:TrackPointExtension>
        </extensions>
      </trkpt>
      <trkpt lat="36.7956267111003398895263671875" lon="-118.548351824283599853515625">
        <ele>1605.4000244140625</ele>
        <time>2021-06-28T19:05:30.000Z</time>
        <extensions>
          <ns3:TrackPointExtension>
            <ns3:atemp>35.0</ns3:atemp>
            <ns3:hr>99</ns3:hr>
          </ns3:TrackPointExtension>
        </extensions>
      </trkpt>
      <trkpt lat="36.795618496835231781005859375" lon="-118.54834310710430145263671875">
        <ele>1605.4000244140625</ele>
        <time>2021-06-28T19:05:31.000Z</time>
        <extensions>
          <ns3:TrackPointExtension>
            <ns3:atemp>35.0</ns3:atemp>
            <ns3:hr>99</ns3:hr>
          </ns3:TrackPointExtension>
        </extensions>
      </trkpt>
      <trkpt lat="36.79560718126595020294189453125" lon="-118.54833162389695644378662109375">
        <ele>1605.4000244140625</ele>
        <time>2021-06-28T19:05:33.000Z</time>
        <extensions>
          <ns3:TrackPointExtension>
            <ns3:atemp>35.0</ns3:atemp>
            <ns3:hr>98</ns3:hr>
          </ns3:TrackPointExtension>
        </extensions>
      </trkpt>
      <trkpt lat="36.795572899281978607177734375" lon="-118.5482933185994625091552734375">
        <ele>1604.5999755859375</ele>
        <time>2021-06-28T19:05:37.000Z</time>
        <extensions>
          <ns3:TrackPointExtension>
            <ns3:atemp>35.0</ns3:atemp>
            <ns3:hr>95</ns3:hr>
          </ns3:TrackPointExtension>
        </extensions>
      </trkpt>
      <trkpt lat="36.795564182102680206298828125" lon="-118.54828200303018093109130859375">
        <ele>1604.4000244140625</ele>
        <time>2021-06-28T19:05:38.000Z</time>
        <extensions>
          <ns3:TrackPointExtension>
            <ns3:atemp>35.0</ns3:atemp>
            <ns3:hr>97</ns3:hr>
          </ns3:TrackPointExtension>
        </extensions>
      </trkpt>
      <trkpt lat="36.79555437527596950531005859375" lon="-118.54826792143285274505615234375">
        <ele>1604.4000244140625</ele>
        <time>2021-06-28T19:05:39.000Z</time>
        <extensions>
          <ns3:TrackPointExtension>
            <ns3:atemp>35.0</ns3:atemp>
            <ns3:hr>96</ns3:hr>
          </ns3:TrackPointExtension>
        </extensions>
      </trkpt>
      <trkpt lat="36.795511208474636077880859375" lon="-118.548225425183773040771484375">
        <ele>1603.800048828125</ele>
        <time>2021-06-28T19:05:42.000Z</time>
        <extensions>
          <ns3:TrackPointExtension>
            <ns3:atemp>35.0</ns3:atemp>
            <ns3:hr>97</ns3:hr>
          </ns3:TrackPointExtension>
        </extensions>
      </trkpt>
      <trkpt lat="36.795477010309696197509765625" lon="-118.54824461974203586578369140625">
        <ele>1603.5999755859375</ele>
        <time>2021-06-28T19:05:44.000Z</time>
        <extensions>
          <ns3:TrackPointExtension>
            <ns3:atemp>35.0</ns3:atemp>
            <ns3:hr>98</ns3:hr>
          </ns3:TrackPointExtension>
        </extensions>
      </trkpt>
      <trkpt lat="36.79546267725527286529541015625" lon="-118.5482383333146572113037109375">
        <ele>1603.4000244140625</ele>
        <time>2021-06-28T19:05:45.000Z</time>
        <extensions>
          <ns3:TrackPointExtension>
            <ns3:atemp>35.0</ns3:atemp>
            <ns3:hr>98</ns3:hr>
          </ns3:TrackPointExtension>
        </extensions>
      </trkpt>
      <trkpt lat="36.795450188219547271728515625" lon="-118.5482376627624034881591796875">
        <ele>1603</ele>
        <time>2021-06-28T19:05:46.000Z</time>
        <extensions>
          <ns3:TrackPointExtension>
            <ns3:atemp>35.0</ns3:atemp>
            <ns3:hr>98</ns3:hr>
          </ns3:TrackPointExtension>
        </extensions>
      </trkpt>
      <trkpt lat="36.79542831145226955413818359375" lon="-118.548254258930683135986328125">
        <ele>1602.800048828125</ele>
        <time>2021-06-28T19:05:48.000Z</time>
        <extensions>
          <ns3:TrackPointExtension>
            <ns3:atemp>35.0</ns3:atemp>
            <ns3:hr>97</ns3:hr>
          </ns3:TrackPointExtension>
        </extensions>
      </trkpt>
      <trkpt lat="36.7954055964946746826171875" lon="-118.548264317214488983154296875">
        <ele>1602.800048828125</ele>
        <time>2021-06-28T19:05:50.000Z</time>
        <extensions>
          <ns3:TrackPointExtension>
            <ns3:atemp>35.0</ns3:atemp>
            <ns3:hr>97</ns3:hr>
          </ns3:TrackPointExtension>
        </extensions>
      </trkpt>
      <trkpt lat="36.795377433300018310546875" lon="-118.5482815839350223541259765625">
        <ele>1602.800048828125</ele>
        <time>2021-06-28T19:05:52.000Z</time>
        <extensions>
          <ns3:TrackPointExtension>
            <ns3:atemp>35.0</ns3:atemp>
            <ns3:hr>96</ns3:hr>
          </ns3:TrackPointExtension>
        </extensions>
      </trkpt>
      <trkpt lat="36.7953511141240596771240234375" lon="-118.54828921146690845489501953125">
        <ele>1602.800048828125</ele>
        <time>2021-06-28T19:05:54.000Z</time>
        <extensions>
          <ns3:TrackPointExtension>
            <ns3:atemp>35.0</ns3:atemp>
            <ns3:hr>97</ns3:hr>
          </ns3:TrackPointExtension>
        </extensions>
      </trkpt>
      <trkpt lat="36.795318089425563812255859375" lon="-118.54830832220613956451416015625">
        <ele>1602.800048828125</ele>
        <time>2021-06-28T19:05:57.000Z</time>
        <extensions>
          <ns3:TrackPointExtension>
            <ns3:atemp>35.0</ns3:atemp>
            <ns3:hr>97</ns3:hr>
          </ns3:TrackPointExtension>
        </extensions>
      </trkpt>
      <trkpt lat="36.79528967477381229400634765625" lon="-118.5483799874782562255859375">
        <ele>1603.199951171875</ele>
        <time>2021-06-28T19:06:03.000Z</time>
        <extensions>
          <ns3:TrackPointExtension>
            <ns3:atemp>35.0</ns3:atemp>
            <ns3:hr>97</ns3:hr>
          </ns3:TrackPointExtension>
        </extensions>
      </trkpt>
      <trkpt lat="36.79528850130736827850341796875" lon="-118.548421896994113922119140625">
        <ele>1603.800048828125</ele>
        <time>2021-06-28T19:06:06.000Z</time>
        <extensions>
          <ns3:TrackPointExtension>
            <ns3:atemp>35.0</ns3:atemp>
            <ns3:hr>100</ns3:hr>
          </ns3:TrackPointExtension>
        </extensions>
      </trkpt>
      <trkpt lat="36.7952921055257320404052734375" lon="-118.54844645597040653228759765625">
        <ele>1603.800048828125</ele>
        <time>2021-06-28T19:06:08.000Z</time>
        <extensions>
          <ns3:TrackPointExtension>
            <ns3:atemp>35.0</ns3:atemp>
            <ns3:hr>102</ns3:hr>
          </ns3:TrackPointExtension>
        </extensions>
      </trkpt>
      <trkpt lat="36.79528431035578250885009765625" lon="-118.54847378097474575042724609375">
        <ele>1604.5999755859375</ele>
        <time>2021-06-28T19:06:11.000Z</time>
        <extensions>
          <ns3:TrackPointExtension>
            <ns3:atemp>35.0</ns3:atemp>
            <ns3:hr>102</ns3:hr>
          </ns3:TrackPointExtension>
        </extensions>
      </trkpt>
      <trkpt lat="36.795271150767803192138671875" lon="-118.5484897904098033905029296875">
        <ele>1604.800048828125</ele>
        <time>2021-06-28T19:06:14.000Z</time>
        <extensions>
          <ns3:TrackPointExtension>
            <ns3:atemp>35.0</ns3:atemp>
            <ns3:hr>104</ns3:hr>
          </ns3:TrackPointExtension>
        </extensions>
      </trkpt>
      <trkpt lat="36.79526519961655139923095703125" lon="-118.54849440045654773712158203125">
        <ele>1604.800048828125</ele>
        <time>2021-06-28T19:06:15.000Z</time>
        <extensions>
          <ns3:TrackPointExtension>
            <ns3:atemp>35.0</ns3:atemp>
            <ns3:hr>105</ns3:hr>
          </ns3:TrackPointExtension>
        </extensions>
      </trkpt>
      <trkpt lat="36.7952602542936801910400390625" lon="-118.548497669398784637451171875">
        <ele>1605</ele>
        <time>2021-06-28T19:06:16.000Z</time>
        <extensions>
          <ns3:TrackPointExtension>
            <ns3:atemp>35.0</ns3:atemp>
            <ns3:hr>106</ns3:hr>
          </ns3:TrackPointExtension>
        </extensions>
      </trkpt>
      <trkpt lat="36.79524608887732028961181640625" lon="-118.54852013289928436279296875">
        <ele>1605.800048828125</ele>
        <time>2021-06-28T19:06:19.000Z</time>
        <extensions>
          <ns3:TrackPointExtension>
            <ns3:atemp>35.0</ns3:atemp>
            <ns3:hr>108</ns3:hr>
          </ns3:TrackPointExtension>
        </extensions>
      </trkpt>
      <trkpt lat="36.79521440528333187103271484375" lon="-118.54854905046522617340087890625">
        <ele>1606</ele>
        <time>2021-06-28T19:06:22.000Z</time>
        <extensions>
          <ns3:TrackPointExtension>
            <ns3:atemp>35.0</ns3:atemp>
            <ns3:hr>108</ns3:hr>
          </ns3:TrackPointExtension>
        </extensions>
      </trkpt>
      <trkpt lat="36.79519529454410076141357421875" lon="-118.548571430146694183349609375">
        <ele>1606</ele>
        <time>2021-06-28T19:06:23.000Z</time>
        <extensions>
          <ns3:TrackPointExtension>
            <ns3:atemp>35.0</ns3:atemp>
            <ns3:hr>108</ns3:hr>
          </ns3:TrackPointExtension>
        </extensions>
      </trkpt>
      <trkpt lat="36.79518221877515316009521484375" lon="-118.54857553727924823760986328125">
        <ele>1606</ele>
        <time>2021-06-28T19:06:24.000Z</time>
        <extensions>
          <ns3:TrackPointExtension>
            <ns3:atemp>35.0</ns3:atemp>
            <ns3:hr>112</ns3:hr>
          </ns3:TrackPointExtension>
        </extensions>
      </trkpt>
      <trkpt lat="36.7951454222202301025390625" lon="-118.54858945123851299285888671875">
        <ele>1606.5999755859375</ele>
        <time>2021-06-28T19:06:28.000Z</time>
        <extensions>
          <ns3:TrackPointExtension>
            <ns3:atemp>35.0</ns3:atemp>
            <ns3:hr>114</ns3:hr>
          </ns3:TrackPointExtension>
        </extensions>
      </trkpt>
      <trkpt lat="36.7951321788132190704345703125" lon="-118.54860805906355381011962890625">
        <ele>1606.800048828125</ele>
        <time>2021-06-28T19:06:29.000Z</time>
        <extensions>
          <ns3:TrackPointExtension>
            <ns3:atemp>35.0</ns3:atemp>
            <ns3:hr>115</ns3:hr>
          </ns3:TrackPointExtension>
        </extensions>
      </trkpt>
      <trkpt lat="36.7951214499771595001220703125" lon="-118.54863018728792667388916015625">
        <ele>1606.800048828125</ele>
        <time>2021-06-28T19:06:30.000Z</time>
        <extensions>
          <ns3:TrackPointExtension>
            <ns3:atemp>35.0</ns3:atemp>
            <ns3:hr>115</ns3:hr>
          </ns3:TrackPointExtension>
        </extensions>
      </trkpt>
      <trkpt lat="36.79511449299752712249755859375" lon="-118.54864829219877719879150390625">
        <ele>1607</ele>
        <time>2021-06-28T19:06:31.000Z</time>
        <extensions>
          <ns3:TrackPointExtension>
            <ns3:atemp>35.0</ns3:atemp>
            <ns3:hr>116</ns3:hr>
          </ns3:TrackPointExtension>
        </extensions>
      </trkpt>
      <trkpt lat="36.7951040156185626983642578125" lon="-118.54865483008325099945068359375">
        <ele>1607.199951171875</ele>
        <time>2021-06-28T19:06:33.000Z</time>
        <extensions>
          <ns3:TrackPointExtension>
            <ns3:atemp>35.0</ns3:atemp>
            <ns3:hr>120</ns3:hr>
          </ns3:TrackPointExtension>
        </extensions>
      </trkpt>
      <trkpt lat="36.79507627151906490325927734375" lon="-118.54868500493466854095458984375">
        <ele>1607.4000244140625</ele>
        <time>2021-06-28T19:06:36.000Z</time>
        <extensions>
          <ns3:TrackPointExtension>
            <ns3:atemp>34.0</ns3:atemp>
            <ns3:hr>123</ns3:hr>
          </ns3:TrackPointExtension>
        </extensions>
      </trkpt>
      <trkpt lat="36.79504089988768100738525390625" lon="-118.54869179427623748779296875">
        <ele>1607.5999755859375</ele>
        <time>2021-06-28T19:06:39.000Z</time>
        <extensions>
          <ns3:TrackPointExtension>
            <ns3:atemp>34.0</ns3:atemp>
            <ns3:hr>124</ns3:hr>
          </ns3:TrackPointExtension>
        </extensions>
      </trkpt>
      <trkpt lat="36.7950265668332576751708984375" lon="-118.54871970601379871368408203125">
        <ele>1608</ele>
        <time>2021-06-28T19:06:41.000Z</time>
        <extensions>
          <ns3:TrackPointExtension>
            <ns3:atemp>34.0</ns3:atemp>
            <ns3:hr>124</ns3:hr>
          </ns3:TrackPointExtension>
        </extensions>
      </trkpt>
      <trkpt lat="36.794987507164478302001953125" lon="-118.5487903654575347900390625">
        <ele>1608.800048828125</ele>
        <time>2021-06-28T19:06:46.000Z</time>
        <extensions>
          <ns3:TrackPointExtension>
            <ns3:atemp>34.0</ns3:atemp>
            <ns3:hr>122</ns3:hr>
          </ns3:TrackPointExtension>
        </extensions>
      </trkpt>
      <trkpt lat="36.79498323239386081695556640625" lon="-118.54879732243716716766357421875">
        <ele>1609</ele>
        <time>2021-06-28T19:06:47.000Z</time>
        <extensions>
          <ns3:TrackPointExtension>
            <ns3:atemp>34.0</ns3:atemp>
            <ns3:hr>123</ns3:hr>
          </ns3:TrackPointExtension>
        </extensions>
      </trkpt>
      <trkpt lat="36.794970072805881500244140625" lon="-118.54880050756037235260009765625">
        <ele>1609.5999755859375</ele>
        <time>2021-06-28T19:06:49.000Z</time>
        <extensions>
          <ns3:TrackPointExtension>
            <ns3:atemp>34.0</ns3:atemp>
            <ns3:hr>124</ns3:hr>
          </ns3:TrackPointExtension>
        </extensions>
      </trkpt>
      <trkpt lat="36.7949568293988704681396484375" lon="-118.54879950173199176788330078125">
        <ele>1610.4000244140625</ele>
        <time>2021-06-28T19:06:51.000Z</time>
        <extensions>
          <ns3:TrackPointExtension>
            <ns3:atemp>34.0</ns3:atemp>
            <ns3:hr>125</ns3:hr>
          </ns3:TrackPointExtension>
        </extensions>
      </trkpt>
      <trkpt lat="36.794924475252628326416015625" lon="-118.5488197021186351776123046875">
        <ele>1610.800048828125</ele>
        <time>2021-06-28T19:06:55.000Z</time>
        <extensions>
          <ns3:TrackPointExtension>
            <ns3:atemp>34.0</ns3:atemp>
            <ns3:hr>126</ns3:hr>
          </ns3:TrackPointExtension>
        </extensions>
      </trkpt>
      <trkpt lat="36.79491139948368072509765625" lon="-118.5488347895443439483642578125">
        <ele>1611.199951171875</ele>
        <time>2021-06-28T19:06:56.000Z</time>
        <extensions>
          <ns3:TrackPointExtension>
            <ns3:atemp>34.0</ns3:atemp>
            <ns3:hr>125</ns3:hr>
          </ns3:TrackPointExtension>
        </extensions>
      </trkpt>
      <trkpt lat="36.7948659695684909820556640625" lon="-118.54886806569993495941162109375">
        <ele>1611.199951171875</ele>
        <time>2021-06-28T19:07:00.000Z</time>
        <extensions>
          <ns3:TrackPointExtension>
            <ns3:atemp>34.0</ns3:atemp>
            <ns3:hr>126</ns3:hr>
          </ns3:TrackPointExtension>
        </extensions>
      </trkpt>
      <trkpt lat="36.7948396503925323486328125" lon="-118.54887225665152072906494140625">
        <ele>1610.5999755859375</ele>
        <time>2021-06-28T19:07:02.000Z</time>
        <extensions>
          <ns3:TrackPointExtension>
            <ns3:atemp>34.0</ns3:atemp>
            <ns3:hr>126</ns3:hr>
          </ns3:TrackPointExtension>
        </extensions>
      </trkpt>
      <trkpt lat="36.79482967592775821685791015625" lon="-118.54887594468891620635986328125">
        <ele>1610.4000244140625</ele>
        <time>2021-06-28T19:07:03.000Z</time>
        <extensions>
          <ns3:TrackPointExtension>
            <ns3:atemp>34.0</ns3:atemp>
            <ns3:hr>126</ns3:hr>
          </ns3:TrackPointExtension>
        </extensions>
      </trkpt>
      <trkpt lat="36.79481458850204944610595703125" lon="-118.5488730110228061676025390625">
        <ele>1609.4000244140625</ele>
        <time>2021-06-28T19:07:05.000Z</time>
        <extensions>
          <ns3:TrackPointExtension>
            <ns3:atemp>34.0</ns3:atemp>
            <ns3:hr>125</ns3:hr>
          </ns3:TrackPointExtension>
        </extensions>
      </trkpt>
      <trkpt lat="36.794803105294704437255859375" lon="-118.54888357222080230712890625">
        <ele>1609.199951171875</ele>
        <time>2021-06-28T19:07:06.000Z</time>
        <extensions>
          <ns3:TrackPointExtension>
            <ns3:atemp>34.0</ns3:atemp>
            <ns3:hr>125</ns3:hr>
          </ns3:TrackPointExtension>
        </extensions>
      </trkpt>
      <trkpt lat="36.79478709585964679718017578125" lon="-118.54889161884784698486328125">
        <ele>1609</ele>
        <time>2021-06-28T19:07:08.000Z</time>
        <extensions>
          <ns3:TrackPointExtension>
            <ns3:atemp>34.0</ns3:atemp>
            <ns3:hr>126</ns3:hr>
          </ns3:TrackPointExtension>
        </extensions>
      </trkpt>
      <trkpt lat="36.7947556637227535247802734375" lon="-118.54887812398374080657958984375">
        <ele>1608.800048828125</ele>
        <time>2021-06-28T19:07:11.000Z</time>
        <extensions>
          <ns3:TrackPointExtension>
            <ns3:atemp>34.0</ns3:atemp>
            <ns3:hr>126</ns3:hr>
          </ns3:TrackPointExtension>
        </extensions>
      </trkpt>
      <trkpt lat="36.79471652023494243621826171875" lon="-118.548882901668548583984375">
        <ele>1608</ele>
        <time>2021-06-28T19:07:14.000Z</time>
        <extensions>
          <ns3:TrackPointExtension>
            <ns3:atemp>34.0</ns3:atemp>
            <ns3:hr>126</ns3:hr>
          </ns3:TrackPointExtension>
        </extensions>
      </trkpt>
      <trkpt lat="36.79469238035380840301513671875" lon="-118.54888231493532657623291015625">
        <ele>1607.800048828125</ele>
        <time>2021-06-28T19:07:16.000Z</time>
        <extensions>
          <ns3:TrackPointExtension>
            <ns3:atemp>34.0</ns3:atemp>
            <ns3:hr>126</ns3:hr>
          </ns3:TrackPointExtension>
        </extensions>
      </trkpt>
      <trkpt lat="36.7946188710629940032958984375" lon="-118.54887418448925018310546875">
        <ele>1607.4000244140625</ele>
        <time>2021-06-28T19:07:21.000Z</time>
        <extensions>
          <ns3:TrackPointExtension>
            <ns3:atemp>34.0</ns3:atemp>
            <ns3:hr>123</ns3:hr>
          </ns3:TrackPointExtension>
        </extensions>
      </trkpt>
      <trkpt lat="36.79460705257952213287353515625" lon="-118.54888223111629486083984375">
        <ele>1607.199951171875</ele>
        <time>2021-06-28T19:07:22.000Z</time>
        <extensions>
          <ns3:TrackPointExtension>
            <ns3:atemp>34.0</ns3:atemp>
            <ns3:hr>124</ns3:hr>
          </ns3:TrackPointExtension>
        </extensions>
      </trkpt>
      <trkpt lat="36.794585175812244415283203125" lon="-118.54889555834233760833740234375">
        <ele>1607</ele>
        <time>2021-06-28T19:07:24.000Z</time>
        <extensions>
          <ns3:TrackPointExtension>
            <ns3:atemp>34.0</ns3:atemp>
            <ns3:hr>124</ns3:hr>
          </ns3:TrackPointExtension>
        </extensions>
      </trkpt>
      <trkpt lat="36.79455374367535114288330078125" lon="-118.54893864132463932037353515625">
        <ele>1607</ele>
        <time>2021-06-28T19:07:27.000Z</time>
        <extensions>
          <ns3:TrackPointExtension>
            <ns3:atemp>35.0</ns3:atemp>
            <ns3:hr>122</ns3:hr>
          </ns3:TrackPointExtension>
        </extensions>
      </trkpt>
      <trkpt lat="36.79452247917652130126953125" lon="-118.5490144975483417510986328125">
        <ele>1606.4000244140625</ele>
        <time>2021-06-28T19:07:33.000Z</time>
        <extensions>
          <ns3:TrackPointExtension>
            <ns3:atemp>35.0</ns3:atemp>
            <ns3:hr>121</ns3:hr>
          </ns3:TrackPointExtension>
        </extensions>
      </trkpt>
      <trkpt lat="36.79451585747301578521728515625" lon="-118.54902572929859161376953125">
        <ele>1606.4000244140625</ele>
        <time>2021-06-28T19:07:34.000Z</time>
        <extensions>
          <ns3:TrackPointExtension>
            <ns3:atemp>35.0</ns3:atemp>
            <ns3:hr>121</ns3:hr>
          </ns3:TrackPointExtension>
        </extensions>
      </trkpt>
      <trkpt lat="36.7945058830082416534423828125" lon="-118.5490309260785579681396484375">
        <ele>1606.4000244140625</ele>
        <time>2021-06-28T19:07:35.000Z</time>
        <extensions>
          <ns3:TrackPointExtension>
            <ns3:atemp>35.0</ns3:atemp>
            <ns3:hr>121</ns3:hr>
          </ns3:TrackPointExtension>
        </extensions>
      </trkpt>
      <trkpt lat="36.79449498653411865234375" lon="-118.549038134515285491943359375">
        <ele>1606.4000244140625</ele>
        <time>2021-06-28T19:07:36.000Z</time>
        <extensions>
          <ns3:TrackPointExtension>
            <ns3:atemp>35.0</ns3:atemp>
            <ns3:hr>118</ns3:hr>
          </ns3:TrackPointExtension>
        </extensions>
      </trkpt>
      <trkpt lat="36.7944844253361225128173828125" lon="-118.549035452306270599365234375">
        <ele>1606</ele>
        <time>2021-06-28T19:07:37.000Z</time>
        <extensions>
          <ns3:TrackPointExtension>
            <ns3:atemp>35.0</ns3:atemp>
            <ns3:hr>119</ns3:hr>
          </ns3:TrackPointExtension>
        </extensions>
      </trkpt>
      <trkpt lat="36.79444243200123310089111328125" lon="-118.549036122858524322509765625">
        <ele>1605.4000244140625</ele>
        <time>2021-06-28T19:07:40.000Z</time>
        <extensions>
          <ns3:TrackPointExtension>
            <ns3:atemp>35.0</ns3:atemp>
            <ns3:hr>117</ns3:hr>
          </ns3:TrackPointExtension>
        </extensions>
      </trkpt>
      <trkpt lat="36.7944324575364589691162109375" lon="-118.54903888888657093048095703125">
        <ele>1604.800048828125</ele>
        <time>2021-06-28T19:07:41.000Z</time>
        <extensions>
          <ns3:TrackPointExtension>
            <ns3:atemp>35.0</ns3:atemp>
            <ns3:hr>117</ns3:hr>
          </ns3:TrackPointExtension>
        </extensions>
      </trkpt>
      <trkpt lat="36.79436716251075267791748046875" lon="-118.54907258413732051849365234375">
        <ele>1604.800048828125</ele>
        <time>2021-06-28T19:07:48.000Z</time>
        <extensions>
          <ns3:TrackPointExtension>
            <ns3:atemp>35.0</ns3:atemp>
            <ns3:hr>114</ns3:hr>
          </ns3:TrackPointExtension>
        </extensions>
      </trkpt>
      <trkpt lat="36.79436196573078632354736328125" lon="-118.5490698181092739105224609375">
        <ele>1604.800048828125</ele>
        <time>2021-06-28T19:07:49.000Z</time>
        <extensions>
          <ns3:TrackPointExtension>
            <ns3:atemp>35.0</ns3:atemp>
            <ns3:hr>114</ns3:hr>
          </ns3:TrackPointExtension>
        </extensions>
      </trkpt>
      <trkpt lat="36.7943593673408031463623046875" lon="-118.54905246756970882415771484375">
        <ele>1604.800048828125</ele>
        <time>2021-06-28T19:07:51.000Z</time>
        <extensions>
          <ns3:TrackPointExtension>
            <ns3:atemp>35.0</ns3:atemp>
            <ns3:hr>116</ns3:hr>
          </ns3:TrackPointExtension>
        </extensions>
      </trkpt>
      <trkpt lat="36.79436330683529376983642578125" lon="-118.54904291220009326934814453125">
        <ele>1604.800048828125</ele>
        <time>2021-06-28T19:07:52.000Z</time>
        <extensions>
          <ns3:TrackPointExtension>
            <ns3:atemp>35.0</ns3:atemp>
            <ns3:hr>116</ns3:hr>
          </ns3:TrackPointExtension>
        </extensions>
      </trkpt>
      <trkpt lat="36.79435425437986850738525390625" lon="-118.54904106818139553070068359375">
        <ele>1604.199951171875</ele>
        <time>2021-06-28T19:07:55.000Z</time>
        <extensions>
          <ns3:TrackPointExtension>
            <ns3:atemp>35.0</ns3:atemp>
            <ns3:hr>117</ns3:hr>
          </ns3:TrackPointExtension>
        </extensions>
      </trkpt>
      <trkpt lat="36.79434453137218952178955078125" lon="-118.549038469791412353515625">
        <ele>1603.199951171875</ele>
        <time>2021-06-28T19:07:56.000Z</time>
        <extensions>
          <ns3:TrackPointExtension>
            <ns3:atemp>35.0</ns3:atemp>
            <ns3:hr>116</ns3:hr>
          </ns3:TrackPointExtension>
        </extensions>
      </trkpt>
      <trkpt lat="36.79430698044598102569580078125" lon="-118.54903109371662139892578125">
        <ele>1602.4000244140625</ele>
        <time>2021-06-28T19:08:00.000Z</time>
        <extensions>
          <ns3:TrackPointExtension>
            <ns3:atemp>35.0</ns3:atemp>
            <ns3:hr>115</ns3:hr>
          </ns3:TrackPointExtension>
        </extensions>
      </trkpt>
      <trkpt lat="36.7942933179438114166259765625" lon="-118.54902178980410099029541015625">
        <ele>1602.4000244140625</ele>
        <time>2021-06-28T19:08:02.000Z</time>
        <extensions>
          <ns3:TrackPointExtension>
            <ns3:atemp>35.0</ns3:atemp>
            <ns3:hr>115</ns3:hr>
          </ns3:TrackPointExtension>
        </extensions>
      </trkpt>
      <trkpt lat="36.79428686387836933135986328125" lon="-118.54901709593832492828369140625">
        <ele>1602</ele>
        <time>2021-06-28T19:08:03.000Z</time>
        <extensions>
          <ns3:TrackPointExtension>
            <ns3:atemp>35.0</ns3:atemp>
            <ns3:hr>115</ns3:hr>
          </ns3:TrackPointExtension>
        </extensions>
      </trkpt>
      <trkpt lat="36.79428250528872013092041015625" lon="-118.54901231825351715087890625">
        <ele>1601.4000244140625</ele>
        <time>2021-06-28T19:08:04.000Z</time>
        <extensions>
          <ns3:TrackPointExtension>
            <ns3:atemp>35.0</ns3:atemp>
            <ns3:hr>114</ns3:hr>
          </ns3:TrackPointExtension>
        </extensions>
      </trkpt>
      <trkpt lat="36.7942654900252819061279296875" lon="-118.54898943565785884857177734375">
        <ele>1601</ele>
        <time>2021-06-28T19:08:07.000Z</time>
        <extensions>
          <ns3:TrackPointExtension>
            <ns3:atemp>35.0</ns3:atemp>
            <ns3:hr>112</ns3:hr>
          </ns3:TrackPointExtension>
        </extensions>
      </trkpt>
      <trkpt lat="36.79425937123596668243408203125" lon="-118.54898055084049701690673828125">
        <ele>1601</ele>
        <time>2021-06-28T19:08:08.000Z</time>
        <extensions>
          <ns3:TrackPointExtension>
            <ns3:atemp>35.0</ns3:atemp>
            <ns3:hr>111</ns3:hr>
          </ns3:TrackPointExtension>
        </extensions>
      </trkpt>
      <trkpt lat="36.794249899685382843017578125" lon="-118.54897518642246723175048828125">
        <ele>1600.5999755859375</ele>
        <time>2021-06-28T19:08:09.000Z</time>
        <extensions>
          <ns3:TrackPointExtension>
            <ns3:atemp>35.0</ns3:atemp>
            <ns3:hr>110</ns3:hr>
          </ns3:TrackPointExtension>
        </extensions>
      </trkpt>
      <trkpt lat="36.79423556663095951080322265625" lon="-118.548956327140331268310546875">
        <ele>1600.4000244140625</ele>
        <time>2021-06-28T19:08:10.000Z</time>
        <extensions>
          <ns3:TrackPointExtension>
            <ns3:atemp>35.0</ns3:atemp>
            <ns3:hr>110</ns3:hr>
          </ns3:TrackPointExtension>
        </extensions>
      </trkpt>
      <trkpt lat="36.79416381753981113433837890625" lon="-118.548939563333988189697265625">
        <ele>1600.4000244140625</ele>
        <time>2021-06-28T19:08:14.000Z</time>
        <extensions>
          <ns3:TrackPointExtension>
            <ns3:atemp>35.0</ns3:atemp>
            <ns3:hr>108</ns3:hr>
          </ns3:TrackPointExtension>
        </extensions>
      </trkpt>
      <trkpt lat="36.7941181361675262451171875" lon="-118.5489303432404994964599609375">
        <ele>1600.800048828125</ele>
        <time>2021-06-28T19:08:19.000Z</time>
        <extensions>
          <ns3:TrackPointExtension>
            <ns3:atemp>35.0</ns3:atemp>
            <ns3:hr>108</ns3:hr>
          </ns3:TrackPointExtension>
        </extensions>
      </trkpt>
      <trkpt lat="36.79409005679190158843994140625" lon="-118.5489179380238056182861328125">
        <ele>1601</ele>
        <time>2021-06-28T19:08:21.000Z</time>
        <extensions>
          <ns3:TrackPointExtension>
            <ns3:atemp>35.0</ns3:atemp>
            <ns3:hr>106</ns3:hr>
          </ns3:TrackPointExtension>
        </extensions>
      </trkpt>
      <trkpt lat="36.794077567756175994873046875" lon="-118.54891986586153507232666015625">
        <ele>1601</ele>
        <time>2021-06-28T19:08:22.000Z</time>
        <extensions>
          <ns3:TrackPointExtension>
            <ns3:atemp>35.0</ns3:atemp>
            <ns3:hr>105</ns3:hr>
          </ns3:TrackPointExtension>
        </extensions>
      </trkpt>
      <trkpt lat="36.794062815606594085693359375" lon="-118.5489246435463428497314453125">
        <ele>1601</ele>
        <time>2021-06-28T19:08:23.000Z</time>
        <extensions>
          <ns3:TrackPointExtension>
            <ns3:atemp>35.0</ns3:atemp>
            <ns3:hr>104</ns3:hr>
          </ns3:TrackPointExtension>
        </extensions>
      </trkpt>
      <trkpt lat="36.79403993301093578338623046875" lon="-118.54892791248857975006103515625">
        <ele>1601</ele>
        <time>2021-06-28T19:08:25.000Z</time>
        <extensions>
          <ns3:TrackPointExtension>
            <ns3:atemp>35.0</ns3:atemp>
            <ns3:hr>102</ns3:hr>
          </ns3:TrackPointExtension>
        </extensions>
      </trkpt>
      <trkpt lat="36.79402836598455905914306640625" lon="-118.5489276610314846038818359375">
        <ele>1601</ele>
        <time>2021-06-28T19:08:26.000Z</time>
        <extensions>
          <ns3:TrackPointExtension>
            <ns3:atemp>35.0</ns3:atemp>
            <ns3:hr>101</ns3:hr>
          </ns3:TrackPointExtension>
        </extensions>
      </trkpt>
      <trkpt lat="36.79401822388172149658203125" lon="-118.54892187751829624176025390625">
        <ele>1601</ele>
        <time>2021-06-28T19:08:27.000Z</time>
        <extensions>
          <ns3:TrackPointExtension>
            <ns3:atemp>35.0</ns3:atemp>
            <ns3:hr>100</ns3:hr>
          </ns3:TrackPointExtension>
        </extensions>
      </trkpt>
      <trkpt lat="36.7939972691237926483154296875" lon="-118.54887208901345729827880859375">
        <ele>1600.800048828125</ele>
        <time>2021-06-28T19:08:31.000Z</time>
        <extensions>
          <ns3:TrackPointExtension>
            <ns3:atemp>35.0</ns3:atemp>
            <ns3:hr>100</ns3:hr>
          </ns3:TrackPointExtension>
        </extensions>
      </trkpt>
      <trkpt lat="36.79396097548305988311767578125" lon="-118.5488654673099517822265625">
        <ele>1600</ele>
        <time>2021-06-28T19:08:34.000Z</time>
        <extensions>
          <ns3:TrackPointExtension>
            <ns3:atemp>35.0</ns3:atemp>
            <ns3:hr>103</ns3:hr>
          </ns3:TrackPointExtension>
        </extensions>
      </trkpt>
      <trkpt lat="36.7939357459545135498046875" lon="-118.548840992152690887451171875">
        <ele>1600</ele>
        <time>2021-06-28T19:08:36.000Z</time>
        <extensions>
          <ns3:TrackPointExtension>
            <ns3:atemp>35.0</ns3:atemp>
            <ns3:hr>101</ns3:hr>
          </ns3:TrackPointExtension>
        </extensions>
      </trkpt>
      <trkpt lat="36.7939181439578533172607421875" lon="-118.54882749728858470916748046875">
        <ele>1599.800048828125</ele>
        <time>2021-06-28T19:08:38.000Z</time>
        <extensions>
          <ns3:TrackPointExtension>
            <ns3:atemp>35.0</ns3:atemp>
            <ns3:hr>100</ns3:hr>
          </ns3:TrackPointExtension>
        </extensions>
      </trkpt>
      <trkpt lat="36.79390582256019115447998046875" lon="-118.54881458915770053863525390625">
        <ele>1599.5999755859375</ele>
        <time>2021-06-28T19:08:40.000Z</time>
        <extensions>
          <ns3:TrackPointExtension>
            <ns3:atemp>34.0</ns3:atemp>
            <ns3:hr>99</ns3:hr>
          </ns3:TrackPointExtension>
        </extensions>
      </trkpt>
      <trkpt lat="36.79387874901294708251953125" lon="-118.5488140024244785308837890625">
        <ele>1599.4000244140625</ele>
        <time>2021-06-28T19:08:42.000Z</time>
        <extensions>
          <ns3:TrackPointExtension>
            <ns3:atemp>34.0</ns3:atemp>
            <ns3:hr>99</ns3:hr>
          </ns3:TrackPointExtension>
        </extensions>
      </trkpt>
      <trkpt lat="36.79384932853281497955322265625" lon="-118.5488441772758960723876953125">
        <ele>1599.199951171875</ele>
        <time>2021-06-28T19:08:44.000Z</time>
        <extensions>
          <ns3:TrackPointExtension>
            <ns3:atemp>34.0</ns3:atemp>
            <ns3:hr>99</ns3:hr>
          </ns3:TrackPointExtension>
        </extensions>
      </trkpt>
      <trkpt lat="36.79383843205869197845458984375" lon="-118.548853397369384765625">
        <ele>1599.199951171875</ele>
        <time>2021-06-28T19:08:45.000Z</time>
        <extensions>
          <ns3:TrackPointExtension>
            <ns3:atemp>34.0</ns3:atemp>
            <ns3:hr>99</ns3:hr>
          </ns3:TrackPointExtension>
        </extensions>
      </trkpt>
      <trkpt lat="36.79380364716053009033203125" lon="-118.54886488057672977447509765625">
        <ele>1599.800048828125</ele>
        <time>2021-06-28T19:08:49.000Z</time>
        <extensions>
          <ns3:TrackPointExtension>
            <ns3:atemp>34.0</ns3:atemp>
            <ns3:hr>97</ns3:hr>
          </ns3:TrackPointExtension>
        </extensions>
      </trkpt>
      <trkpt lat="36.793743632733821868896484375" lon="-118.54885599575936794281005859375">
        <ele>1600.199951171875</ele>
        <time>2021-06-28T19:08:55.000Z</time>
        <extensions>
          <ns3:TrackPointExtension>
            <ns3:atemp>34.0</ns3:atemp>
            <ns3:hr>96</ns3:hr>
          </ns3:TrackPointExtension>
        </extensions>
      </trkpt>
      <trkpt lat="36.7936814390122890472412109375" lon="-118.54885448701679706573486328125">
        <ele>1599.800048828125</ele>
        <time>2021-06-28T19:09:01.000Z</time>
        <extensions>
          <ns3:TrackPointExtension>
            <ns3:atemp>34.0</ns3:atemp>
            <ns3:hr>95</ns3:hr>
          </ns3:TrackPointExtension>
        </extensions>
      </trkpt>
      <trkpt lat="36.793642379343509674072265625" lon="-118.5489045269787311553955078125">
        <ele>1599.800048828125</ele>
        <time>2021-06-28T19:09:05.000Z</time>
        <extensions>
          <ns3:TrackPointExtension>
            <ns3:atemp>34.0</ns3:atemp>
            <ns3:hr>93</ns3:hr>
          </ns3:TrackPointExtension>
        </extensions>
      </trkpt>
      <trkpt lat="36.793630979955196380615234375" lon="-118.5489092208445072174072265625">
        <ele>1599.800048828125</ele>
        <time>2021-06-28T19:09:06.000Z</time>
        <extensions>
          <ns3:TrackPointExtension>
            <ns3:atemp>34.0</ns3:atemp>
            <ns3:hr>93</ns3:hr>
          </ns3:TrackPointExtension>
        </extensions>
      </trkpt>
      <trkpt lat="36.79358647204935550689697265625" lon="-118.548915088176727294921875">
        <ele>1600.4000244140625</ele>
        <time>2021-06-28T19:09:10.000Z</time>
        <extensions>
          <ns3:TrackPointExtension>
            <ns3:atemp>34.0</ns3:atemp>
            <ns3:hr>95</ns3:hr>
          </ns3:TrackPointExtension>
        </extensions>
      </trkpt>
      <trkpt lat="36.7935620807111263275146484375" lon="-118.548921458423137664794921875">
        <ele>1600.5999755859375</ele>
        <time>2021-06-28T19:09:12.000Z</time>
        <extensions>
          <ns3:TrackPointExtension>
            <ns3:atemp>34.0</ns3:atemp>
            <ns3:hr>96</ns3:hr>
          </ns3:TrackPointExtension>
        </extensions>
      </trkpt>
      <trkpt lat="36.79352511651813983917236328125" lon="-118.54894249700009822845458984375">
        <ele>1600.5999755859375</ele>
        <time>2021-06-28T19:09:15.000Z</time>
        <extensions>
          <ns3:TrackPointExtension>
            <ns3:atemp>34.0</ns3:atemp>
            <ns3:hr>99</ns3:hr>
          </ns3:TrackPointExtension>
        </extensions>
      </trkpt>
      <trkpt lat="36.79349251091480255126953125" lon="-118.548931181430816650390625">
        <ele>1600.4000244140625</ele>
        <time>2021-06-28T19:09:19.000Z</time>
        <extensions>
          <ns3:TrackPointExtension>
            <ns3:atemp>34.0</ns3:atemp>
            <ns3:hr>101</ns3:hr>
          </ns3:TrackPointExtension>
        </extensions>
      </trkpt>
      <trkpt lat="36.7934568040072917938232421875" lon="-118.54895255528390407562255859375">
        <ele>1600.199951171875</ele>
        <time>2021-06-28T19:09:22.000Z</time>
        <extensions>
          <ns3:TrackPointExtension>
            <ns3:atemp>34.0</ns3:atemp>
            <ns3:hr>101</ns3:hr>
          </ns3:TrackPointExtension>
        </extensions>
      </trkpt>
      <trkpt lat="36.79342084564268589019775390625" lon="-118.54896697215735912322998046875">
        <ele>1600.199951171875</ele>
        <time>2021-06-28T19:09:25.000Z</time>
        <extensions>
          <ns3:TrackPointExtension>
            <ns3:atemp>34.0</ns3:atemp>
            <ns3:hr>101</ns3:hr>
          </ns3:TrackPointExtension>
        </extensions>
      </trkpt>
      <trkpt lat="36.793386898934841156005859375" lon="-118.5489491187036037445068359375">
        <ele>1600.199951171875</ele>
        <time>2021-06-28T19:09:28.000Z</time>
        <extensions>
          <ns3:TrackPointExtension>
            <ns3:atemp>34.0</ns3:atemp>
            <ns3:hr>104</ns3:hr>
          </ns3:TrackPointExtension>
        </extensions>
      </trkpt>
      <trkpt lat="36.79337491281330585479736328125" lon="-118.54894149117171764373779296875">
        <ele>1599.800048828125</ele>
        <time>2021-06-28T19:09:29.000Z</time>
        <extensions>
          <ns3:TrackPointExtension>
            <ns3:atemp>34.0</ns3:atemp>
            <ns3:hr>104</ns3:hr>
          </ns3:TrackPointExtension>
        </extensions>
      </trkpt>
      <trkpt lat="36.79335731081664562225341796875" lon="-118.548941910266876220703125">
        <ele>1599.5999755859375</ele>
        <time>2021-06-28T19:09:31.000Z</time>
        <extensions>
          <ns3:TrackPointExtension>
            <ns3:atemp>34.0</ns3:atemp>
            <ns3:hr>105</ns3:hr>
          </ns3:TrackPointExtension>
        </extensions>
      </trkpt>
      <trkpt lat="36.793334595859050750732421875" lon="-118.54893545620143413543701171875">
        <ele>1599.4000244140625</ele>
        <time>2021-06-28T19:09:33.000Z</time>
        <extensions>
          <ns3:TrackPointExtension>
            <ns3:atemp>34.0</ns3:atemp>
            <ns3:hr>103</ns3:hr>
          </ns3:TrackPointExtension>
        </extensions>
      </trkpt>
      <trkpt lat="36.79329394362866878509521484375" lon="-118.54893394745886325836181640625">
        <ele>1599.199951171875</ele>
        <time>2021-06-28T19:09:36.000Z</time>
        <extensions>
          <ns3:TrackPointExtension>
            <ns3:atemp>34.0</ns3:atemp>
            <ns3:hr>104</ns3:hr>
          </ns3:TrackPointExtension>
        </extensions>
      </trkpt>
      <trkpt lat="36.793279610574245452880859375" lon="-118.54893394745886325836181640625">
        <ele>1599</ele>
        <time>2021-06-28T19:09:37.000Z</time>
        <extensions>
          <ns3:TrackPointExtension>
            <ns3:atemp>34.0</ns3:atemp>
            <ns3:hr>104</ns3:hr>
          </ns3:TrackPointExtension>
        </extensions>
      </trkpt>
      <trkpt lat="36.7932573147118091583251953125" lon="-118.5489340312778949737548828125">
        <ele>1598.800048828125</ele>
        <time>2021-06-28T19:09:39.000Z</time>
        <extensions>
          <ns3:TrackPointExtension>
            <ns3:atemp>34.0</ns3:atemp>
            <ns3:hr>105</ns3:hr>
          </ns3:TrackPointExtension>
        </extensions>
      </trkpt>
      <trkpt lat="36.7932464182376861572265625" lon="-118.5489405691623687744140625">
        <ele>1598.800048828125</ele>
        <time>2021-06-28T19:09:40.000Z</time>
        <extensions>
          <ns3:TrackPointExtension>
            <ns3:atemp>34.0</ns3:atemp>
            <ns3:hr>105</ns3:hr>
          </ns3:TrackPointExtension>
        </extensions>
      </trkpt>
      <trkpt lat="36.79322739131748676300048828125" lon="-118.54894149117171764373779296875">
        <ele>1598.800048828125</ele>
        <time>2021-06-28T19:09:42.000Z</time>
        <extensions>
          <ns3:TrackPointExtension>
            <ns3:atemp>34.0</ns3:atemp>
            <ns3:hr>106</ns3:hr>
          </ns3:TrackPointExtension>
        </extensions>
      </trkpt>
      <trkpt lat="36.79317425005137920379638671875" lon="-118.5489709116518497467041015625">
        <ele>1599.199951171875</ele>
        <time>2021-06-28T19:09:47.000Z</time>
        <extensions>
          <ns3:TrackPointExtension>
            <ns3:atemp>34.0</ns3:atemp>
            <ns3:hr>108</ns3:hr>
          </ns3:TrackPointExtension>
        </extensions>
      </trkpt>
      <trkpt lat="36.793158911168575286865234375" lon="-118.5489658825099468231201171875">
        <ele>1599.199951171875</ele>
        <time>2021-06-28T19:09:48.000Z</time>
        <extensions>
          <ns3:TrackPointExtension>
            <ns3:atemp>34.0</ns3:atemp>
            <ns3:hr>110</ns3:hr>
          </ns3:TrackPointExtension>
        </extensions>
      </trkpt>
      <trkpt lat="36.79312714375555515289306640625" lon="-118.54895465075969696044921875">
        <ele>1599.199951171875</ele>
        <time>2021-06-28T19:09:50.000Z</time>
        <extensions>
          <ns3:TrackPointExtension>
            <ns3:atemp>34.0</ns3:atemp>
            <ns3:hr>113</ns3:hr>
          </ns3:TrackPointExtension>
        </extensions>
      </trkpt>
      <trkpt lat="36.793097220361232757568359375" lon="-118.5489605180919170379638671875">
        <ele>1598.800048828125</ele>
        <time>2021-06-28T19:09:52.000Z</time>
        <extensions>
          <ns3:TrackPointExtension>
            <ns3:atemp>34.0</ns3:atemp>
            <ns3:hr>114</ns3:hr>
          </ns3:TrackPointExtension>
        </extensions>
      </trkpt>
      <trkpt lat="36.7930789478123188018798828125" lon="-118.548950292170047760009765625">
        <ele>1598.5999755859375</ele>
        <time>2021-06-28T19:09:54.000Z</time>
        <extensions>
          <ns3:TrackPointExtension>
            <ns3:atemp>34.0</ns3:atemp>
            <ns3:hr>113</ns3:hr>
          </ns3:TrackPointExtension>
        </extensions>
      </trkpt>
      <trkpt lat="36.79307199083268642425537109375" lon="-118.54894802905619144439697265625">
        <ele>1598.4000244140625</ele>
        <time>2021-06-28T19:09:55.000Z</time>
        <extensions>
          <ns3:TrackPointExtension>
            <ns3:atemp>35.0</ns3:atemp>
            <ns3:hr>112</ns3:hr>
          </ns3:TrackPointExtension>
        </extensions>
      </trkpt>
      <trkpt lat="36.7930534668266773223876953125" lon="-118.5489407368004322052001953125">
        <ele>1598.4000244140625</ele>
        <time>2021-06-28T19:09:57.000Z</time>
        <extensions>
          <ns3:TrackPointExtension>
            <ns3:atemp>35.0</ns3:atemp>
            <ns3:hr>110</ns3:hr>
          </ns3:TrackPointExtension>
        </extensions>
      </trkpt>
      <trkpt lat="36.7930196039378643035888671875" lon="-118.5489581711590290069580078125">
        <ele>1598.4000244140625</ele>
        <time>2021-06-28T19:10:00.000Z</time>
        <extensions>
          <ns3:TrackPointExtension>
            <ns3:atemp>35.0</ns3:atemp>
            <ns3:hr>108</ns3:hr>
          </ns3:TrackPointExtension>
        </extensions>
      </trkpt>
      <trkpt lat="36.79298683069646358489990234375" lon="-118.5488860867917537689208984375">
        <ele>1598.800048828125</ele>
        <time>2021-06-28T19:10:05.000Z</time>
        <extensions>
          <ns3:TrackPointExtension>
            <ns3:atemp>35.0</ns3:atemp>
            <ns3:hr>111</ns3:hr>
          </ns3:TrackPointExtension>
        </extensions>
      </trkpt>
      <trkpt lat="36.7929781973361968994140625" lon="-118.54887762106955051422119140625">
        <ele>1598.800048828125</ele>
        <time>2021-06-28T19:10:06.000Z</time>
        <extensions>
          <ns3:TrackPointExtension>
            <ns3:atemp>35.0</ns3:atemp>
            <ns3:hr>107</ns3:hr>
          </ns3:TrackPointExtension>
        </extensions>
      </trkpt>
      <trkpt lat="36.79295070469379425048828125" lon="-118.54886882007122039794921875">
        <ele>1598.800048828125</ele>
        <time>2021-06-28T19:10:09.000Z</time>
        <extensions>
          <ns3:TrackPointExtension>
            <ns3:atemp>35.0</ns3:atemp>
            <ns3:hr>108</ns3:hr>
          </ns3:TrackPointExtension>
        </extensions>
      </trkpt>
      <trkpt lat="36.79291524924337863922119140625" lon="-118.5488870926201343536376953125">
        <ele>1598.199951171875</ele>
        <time>2021-06-28T19:10:12.000Z</time>
        <extensions>
          <ns3:TrackPointExtension>
            <ns3:atemp>35.0</ns3:atemp>
            <ns3:hr>105</ns3:hr>
          </ns3:TrackPointExtension>
        </extensions>
      </trkpt>
      <trkpt lat="36.7928580008447170257568359375" lon="-118.54886773042380809783935546875">
        <ele>1597.5999755859375</ele>
        <time>2021-06-28T19:10:17.000Z</time>
        <extensions>
          <ns3:TrackPointExtension>
            <ns3:atemp>35.0</ns3:atemp>
            <ns3:hr>104</ns3:hr>
          </ns3:TrackPointExtension>
        </extensions>
      </trkpt>
      <trkpt lat="36.7928445897996425628662109375" lon="-118.54886136017739772796630859375">
        <ele>1597.199951171875</ele>
        <time>2021-06-28T19:10:19.000Z</time>
        <extensions>
          <ns3:TrackPointExtension>
            <ns3:atemp>35.0</ns3:atemp>
            <ns3:hr>107</ns3:hr>
          </ns3:TrackPointExtension>
        </extensions>
      </trkpt>
      <trkpt lat="36.79283813573420047760009765625" lon="-118.548861443996429443359375">
        <ele>1596.4000244140625</ele>
        <time>2021-06-28T19:10:20.000Z</time>
        <extensions>
          <ns3:TrackPointExtension>
            <ns3:atemp>35.0</ns3:atemp>
            <ns3:hr>107</ns3:hr>
          </ns3:TrackPointExtension>
        </extensions>
      </trkpt>
      <trkpt lat="36.792820952832698822021484375" lon="-118.54886345565319061279296875">
        <ele>1596</ele>
        <time>2021-06-28T19:10:23.000Z</time>
        <extensions>
          <ns3:TrackPointExtension>
            <ns3:atemp>35.0</ns3:atemp>
            <ns3:hr>107</ns3:hr>
          </ns3:TrackPointExtension>
        </extensions>
      </trkpt>
      <trkpt lat="36.79281047545373439788818359375" lon="-118.54887661524116992950439453125">
        <ele>1595.800048828125</ele>
        <time>2021-06-28T19:10:26.000Z</time>
        <extensions>
          <ns3:TrackPointExtension>
            <ns3:atemp>35.0</ns3:atemp>
            <ns3:hr>106</ns3:hr>
          </ns3:TrackPointExtension>
        </extensions>
      </trkpt>
      <trkpt lat="36.7928046919405460357666015625" lon="-118.54888248257339000701904296875">
        <ele>1595.800048828125</ele>
        <time>2021-06-28T19:10:31.000Z</time>
        <extensions>
          <ns3:TrackPointExtension>
            <ns3:atemp>35.0</ns3:atemp>
            <ns3:hr>104</ns3:hr>
          </ns3:TrackPointExtension>
        </extensions>
      </trkpt>
      <trkpt lat="36.7928016744554042816162109375" lon="-118.5489038564264774322509765625">
        <ele>1595.5999755859375</ele>
        <time>2021-06-28T19:10:36.000Z</time>
        <extensions>
          <ns3:TrackPointExtension>
            <ns3:atemp>34.0</ns3:atemp>
            <ns3:hr>101</ns3:hr>
          </ns3:TrackPointExtension>
        </extensions>
      </trkpt>
      <trkpt lat="36.7927996627986431121826171875" lon="-118.5489085502922534942626953125">
        <ele>1595.5999755859375</ele>
        <time>2021-06-28T19:10:37.000Z</time>
        <extensions>
          <ns3:TrackPointExtension>
            <ns3:atemp>34.0</ns3:atemp>
            <ns3:hr>100</ns3:hr>
          </ns3:TrackPointExtension>
        </extensions>
      </trkpt>
      <trkpt lat="36.79279438219964504241943359375" lon="-118.5489269904792308807373046875">
        <ele>1595.5999755859375</ele>
        <time>2021-06-28T19:10:40.000Z</time>
        <extensions>
          <ns3:TrackPointExtension>
            <ns3:atemp>34.0</ns3:atemp>
            <ns3:hr>97</ns3:hr>
          </ns3:TrackPointExtension>
        </extensions>
      </trkpt>
      <trkpt lat="36.79279438219964504241943359375" lon="-118.5489269904792308807373046875">
        <ele>1595.800048828125</ele>
        <time>2021-06-28T19:10:46.000Z</time>
        <extensions>
          <ns3:TrackPointExtension>
            <ns3:atemp>34.0</ns3:atemp>
            <ns3:hr>96</ns3:hr>
          </ns3:TrackPointExtension>
        </extensions>
      </trkpt>
      <trkpt lat="36.79279438219964504241943359375" lon="-118.5489269904792308807373046875">
        <ele>1596</ele>
        <time>2021-06-28T19:10:49.000Z</time>
        <extensions>
          <ns3:TrackPointExtension>
            <ns3:atemp>34.0</ns3:atemp>
            <ns3:hr>99</ns3:hr>
          </ns3:TrackPointExtension>
        </extensions>
      </trkpt>
      <trkpt lat="36.79279438219964504241943359375" lon="-118.5489269904792308807373046875">
        <ele>1596</ele>
        <time>2021-06-28T19:10:53.000Z</time>
        <extensions>
          <ns3:TrackPointExtension>
            <ns3:atemp>34.0</ns3:atemp>
            <ns3:hr>102</ns3:hr>
          </ns3:TrackPointExtension>
        </extensions>
      </trkpt>
      <trkpt lat="36.79279438219964504241943359375" lon="-118.5489269904792308807373046875">
        <ele>1596</ele>
        <time>2021-06-28T19:10:55.000Z</time>
        <extensions>
          <ns3:TrackPointExtension>
            <ns3:atemp>34.0</ns3:atemp>
            <ns3:hr>105</ns3:hr>
          </ns3:TrackPointExtension>
        </extensions>
      </trkpt>
      <trkpt lat="36.7927939631044864654541015625" lon="-118.5489454306662082672119140625">
        <ele>1596.199951171875</ele>
        <time>2021-06-28T19:11:01.000Z</time>
        <extensions>
          <ns3:TrackPointExtension>
            <ns3:atemp>34.0</ns3:atemp>
            <ns3:hr>108</ns3:hr>
          </ns3:TrackPointExtension>
        </extensions>
      </trkpt>
      <trkpt lat="36.7927902750670909881591796875" lon="-118.5489528067409992218017578125">
        <ele>1596.199951171875</ele>
        <time>2021-06-28T19:11:12.000Z</time>
        <extensions>
          <ns3:TrackPointExtension>
            <ns3:atemp>34.0</ns3:atemp>
            <ns3:hr>105</ns3:hr>
          </ns3:TrackPointExtension>
        </extensions>
      </trkpt>
      <trkpt lat="36.79277208633720874786376953125" lon="-118.54895121417939662933349609375">
        <ele>1596.199951171875</ele>
        <time>2021-06-28T19:11:19.000Z</time>
        <extensions>
          <ns3:TrackPointExtension>
            <ns3:atemp>34.0</ns3:atemp>
            <ns3:hr>102</ns3:hr>
          </ns3:TrackPointExtension>
        </extensions>
      </trkpt>
      <trkpt lat="36.79276018403470516204833984375" lon="-118.54894928634166717529296875">
        <ele>1596.199951171875</ele>
        <time>2021-06-28T19:11:20.000Z</time>
        <extensions>
          <ns3:TrackPointExtension>
            <ns3:atemp>34.0</ns3:atemp>
            <ns3:hr>98</ns3:hr>
          </ns3:TrackPointExtension>
        </extensions>
      </trkpt>
      <trkpt lat="36.792748868465423583984375" lon="-118.5489487834274768829345703125">
        <ele>1596.199951171875</ele>
        <time>2021-06-28T19:11:21.000Z</time>
        <extensions>
          <ns3:TrackPointExtension>
            <ns3:atemp>34.0</ns3:atemp>
            <ns3:hr>100</ns3:hr>
          </ns3:TrackPointExtension>
        </extensions>
      </trkpt>
      <trkpt lat="36.7926997505128383636474609375" lon="-118.5489497892558574676513671875">
        <ele>1596</ele>
        <time>2021-06-28T19:11:25.000Z</time>
        <extensions>
          <ns3:TrackPointExtension>
            <ns3:atemp>34.0</ns3:atemp>
            <ns3:hr>103</ns3:hr>
          </ns3:TrackPointExtension>
        </extensions>
      </trkpt>
      <trkpt lat="36.792664714157581329345703125" lon="-118.54896144010126590728759765625">
        <ele>1596</ele>
        <time>2021-06-28T19:11:28.000Z</time>
        <extensions>
          <ns3:TrackPointExtension>
            <ns3:atemp>34.0</ns3:atemp>
            <ns3:hr>102</ns3:hr>
          </ns3:TrackPointExtension>
        </extensions>
      </trkpt>
      <trkpt lat="36.79265775717794895172119140625" lon="-118.54896806180477142333984375">
        <ele>1595.800048828125</ele>
        <time>2021-06-28T19:11:29.000Z</time>
        <extensions>
          <ns3:TrackPointExtension>
            <ns3:atemp>34.0</ns3:atemp>
            <ns3:hr>102</ns3:hr>
          </ns3:TrackPointExtension>
        </extensions>
      </trkpt>
      <trkpt lat="36.79263143800199031829833984375" lon="-118.54898239485919475555419921875">
        <ele>1595.800048828125</ele>
        <time>2021-06-28T19:11:31.000Z</time>
        <extensions>
          <ns3:TrackPointExtension>
            <ns3:atemp>34.0</ns3:atemp>
            <ns3:hr>102</ns3:hr>
          </ns3:TrackPointExtension>
        </extensions>
      </trkpt>
      <trkpt lat="36.79259262979030609130859375" lon="-118.549007959663867950439453125">
        <ele>1595.800048828125</ele>
        <time>2021-06-28T19:11:34.000Z</time>
        <extensions>
          <ns3:TrackPointExtension>
            <ns3:atemp>34.0</ns3:atemp>
            <ns3:hr>103</ns3:hr>
          </ns3:TrackPointExtension>
        </extensions>
      </trkpt>
      <trkpt lat="36.79257921874523162841796875" lon="-118.549003936350345611572265625">
        <ele>1595.800048828125</ele>
        <time>2021-06-28T19:11:35.000Z</time>
        <extensions>
          <ns3:TrackPointExtension>
            <ns3:atemp>34.0</ns3:atemp>
            <ns3:hr>105</ns3:hr>
          </ns3:TrackPointExtension>
        </extensions>
      </trkpt>
      <trkpt lat="36.792567484080791473388671875" lon="-118.54899764992296695709228515625">
        <ele>1596</ele>
        <time>2021-06-28T19:11:36.000Z</time>
        <extensions>
          <ns3:TrackPointExtension>
            <ns3:atemp>34.0</ns3:atemp>
            <ns3:hr>104</ns3:hr>
          </ns3:TrackPointExtension>
        </extensions>
      </trkpt>
      <trkpt lat="36.79254376329481601715087890625" lon="-118.54899111203849315643310546875">
        <ele>1596.4000244140625</ele>
        <time>2021-06-28T19:11:38.000Z</time>
        <extensions>
          <ns3:TrackPointExtension>
            <ns3:atemp>34.0</ns3:atemp>
            <ns3:hr>105</ns3:hr>
          </ns3:TrackPointExtension>
        </extensions>
      </trkpt>
      <trkpt lat="36.7925287596881389617919921875" lon="-118.54898759163916110992431640625">
        <ele>1596.5999755859375</ele>
        <time>2021-06-28T19:11:40.000Z</time>
        <extensions>
          <ns3:TrackPointExtension>
            <ns3:atemp>34.0</ns3:atemp>
            <ns3:hr>104</ns3:hr>
          </ns3:TrackPointExtension>
        </extensions>
      </trkpt>
      <trkpt lat="36.7925187014043331146240234375" lon="-118.54898281395435333251953125">
        <ele>1596.5999755859375</ele>
        <time>2021-06-28T19:11:41.000Z</time>
        <extensions>
          <ns3:TrackPointExtension>
            <ns3:atemp>34.0</ns3:atemp>
            <ns3:hr>104</ns3:hr>
          </ns3:TrackPointExtension>
        </extensions>
      </trkpt>
      <trkpt lat="36.79249615408480167388916015625" lon="-118.548975773155689239501953125">
        <ele>1596.5999755859375</ele>
        <time>2021-06-28T19:11:43.000Z</time>
        <extensions>
          <ns3:TrackPointExtension>
            <ns3:atemp>34.0</ns3:atemp>
            <ns3:hr>104</ns3:hr>
          </ns3:TrackPointExtension>
        </extensions>
      </trkpt>
      <trkpt lat="36.7924435995519161224365234375" lon="-118.54897736571729183197021484375">
        <ele>1596</ele>
        <time>2021-06-28T19:11:46.000Z</time>
        <extensions>
          <ns3:TrackPointExtension>
            <ns3:atemp>34.0</ns3:atemp>
            <ns3:hr>103</ns3:hr>
          </ns3:TrackPointExtension>
        </extensions>
      </trkpt>
      <trkpt lat="36.79242675192654132843017578125" lon="-118.54898591525852680206298828125">
        <ele>1596</ele>
        <time>2021-06-28T19:11:47.000Z</time>
        <extensions>
          <ns3:TrackPointExtension>
            <ns3:atemp>34.0</ns3:atemp>
            <ns3:hr>103</ns3:hr>
          </ns3:TrackPointExtension>
        </extensions>
      </trkpt>
      <trkpt lat="36.79235793650150299072265625" lon="-118.54907191358506679534912109375">
        <ele>1596</ele>
        <time>2021-06-28T19:11:53.000Z</time>
        <extensions>
          <ns3:TrackPointExtension>
            <ns3:atemp>34.0</ns3:atemp>
            <ns3:hr>102</ns3:hr>
          </ns3:TrackPointExtension>
        </extensions>
      </trkpt>
      <trkpt lat="36.79233823902904987335205078125" lon="-118.54908918030560016632080078125">
        <ele>1596</ele>
        <time>2021-06-28T19:11:54.000Z</time>
        <extensions>
          <ns3:TrackPointExtension>
            <ns3:atemp>34.0</ns3:atemp>
            <ns3:hr>102</ns3:hr>
          </ns3:TrackPointExtension>
        </extensions>
      </trkpt>
      <trkpt lat="36.7923037894070148468017578125" lon="-118.54910393245518207550048828125">
        <ele>1596.199951171875</ele>
        <time>2021-06-28T19:11:57.000Z</time>
        <extensions>
          <ns3:TrackPointExtension>
            <ns3:atemp>34.0</ns3:atemp>
            <ns3:hr>101</ns3:hr>
          </ns3:TrackPointExtension>
        </extensions>
      </trkpt>
      <trkpt lat="36.7922964133322238922119140625" lon="-118.54910711757838726043701171875">
        <ele>1596.5999755859375</ele>
        <time>2021-06-28T19:11:58.000Z</time>
        <extensions>
          <ns3:TrackPointExtension>
            <ns3:atemp>34.0</ns3:atemp>
            <ns3:hr>101</ns3:hr>
          </ns3:TrackPointExtension>
        </extensions>
      </trkpt>
      <trkpt lat="36.7922384105622768402099609375" lon="-118.54914114810526371002197265625">
        <ele>1596.800048828125</ele>
        <time>2021-06-28T19:12:03.000Z</time>
        <extensions>
          <ns3:TrackPointExtension>
            <ns3:atemp>34.0</ns3:atemp>
            <ns3:hr>104</ns3:hr>
          </ns3:TrackPointExtension>
        </extensions>
      </trkpt>
      <trkpt lat="36.7922276817262172698974609375" lon="-118.54914835654199123382568359375">
        <ele>1596.800048828125</ele>
        <time>2021-06-28T19:12:04.000Z</time>
        <extensions>
          <ns3:TrackPointExtension>
            <ns3:atemp>34.0</ns3:atemp>
            <ns3:hr>101</ns3:hr>
          </ns3:TrackPointExtension>
        </extensions>
      </trkpt>
      <trkpt lat="36.79217529483139514923095703125" lon="-118.54915757663547992706298828125">
        <ele>1596.800048828125</ele>
        <time>2021-06-28T19:12:10.000Z</time>
        <extensions>
          <ns3:TrackPointExtension>
            <ns3:atemp>34.0</ns3:atemp>
            <ns3:hr>101</ns3:hr>
          </ns3:TrackPointExtension>
        </extensions>
      </trkpt>
      <trkpt lat="36.792102120816707611083984375" lon="-118.54917149059474468231201171875">
        <ele>1596.199951171875</ele>
        <time>2021-06-28T19:12:16.000Z</time>
        <extensions>
          <ns3:TrackPointExtension>
            <ns3:atemp>34.0</ns3:atemp>
            <ns3:hr>103</ns3:hr>
          </ns3:TrackPointExtension>
        </extensions>
      </trkpt>
      <trkpt lat="36.7920540086925029754638671875" lon="-118.54916964657604694366455078125">
        <ele>1596.199951171875</ele>
        <time>2021-06-28T19:12:20.000Z</time>
        <extensions>
          <ns3:TrackPointExtension>
            <ns3:atemp>34.0</ns3:atemp>
            <ns3:hr>100</ns3:hr>
          </ns3:TrackPointExtension>
        </extensions>
      </trkpt>
      <trkpt lat="36.79204336367547512054443359375" lon="-118.54916746728122234344482421875">
        <ele>1596.4000244140625</ele>
        <time>2021-06-28T19:12:22.000Z</time>
        <extensions>
          <ns3:TrackPointExtension>
            <ns3:atemp>34.0</ns3:atemp>
            <ns3:hr>100</ns3:hr>
          </ns3:TrackPointExtension>
        </extensions>
      </trkpt>
      <trkpt lat="36.791984774172306060791015625" lon="-118.549210131168365478515625">
        <ele>1596.4000244140625</ele>
        <time>2021-06-28T19:12:28.000Z</time>
        <extensions>
          <ns3:TrackPointExtension>
            <ns3:atemp>34.0</ns3:atemp>
            <ns3:hr>101</ns3:hr>
          </ns3:TrackPointExtension>
        </extensions>
      </trkpt>
      <trkpt lat="36.7919507436454296112060546875" lon="-118.54920518584549427032470703125">
        <ele>1596.5999755859375</ele>
        <time>2021-06-28T19:12:31.000Z</time>
        <extensions>
          <ns3:TrackPointExtension>
            <ns3:atemp>34.0</ns3:atemp>
            <ns3:hr>103</ns3:hr>
          </ns3:TrackPointExtension>
        </extensions>
      </trkpt>
      <trkpt lat="36.79192316718399524688720703125" lon="-118.54920267127454280853271484375">
        <ele>1596.5999755859375</ele>
        <time>2021-06-28T19:12:33.000Z</time>
        <extensions>
          <ns3:TrackPointExtension>
            <ns3:atemp>34.0</ns3:atemp>
            <ns3:hr>104</ns3:hr>
          </ns3:TrackPointExtension>
        </extensions>
      </trkpt>
      <trkpt lat="36.7918947525322437286376953125" lon="-118.5492166690528392791748046875">
        <ele>1596.5999755859375</ele>
        <time>2021-06-28T19:12:36.000Z</time>
        <extensions>
          <ns3:TrackPointExtension>
            <ns3:atemp>34.0</ns3:atemp>
            <ns3:hr>103</ns3:hr>
          </ns3:TrackPointExtension>
        </extensions>
      </trkpt>
      <trkpt lat="36.79185502231121063232421875" lon="-118.54921080172061920166015625">
        <ele>1596.800048828125</ele>
        <time>2021-06-28T19:12:39.000Z</time>
        <extensions>
          <ns3:TrackPointExtension>
            <ns3:atemp>34.0</ns3:atemp>
            <ns3:hr>104</ns3:hr>
          </ns3:TrackPointExtension>
        </extensions>
      </trkpt>
      <trkpt lat="36.79182124324142932891845703125" lon="-118.54921222664415836334228515625">
        <ele>1596.800048828125</ele>
        <time>2021-06-28T19:12:41.000Z</time>
        <extensions>
          <ns3:TrackPointExtension>
            <ns3:atemp>34.0</ns3:atemp>
            <ns3:hr>104</ns3:hr>
          </ns3:TrackPointExtension>
        </extensions>
      </trkpt>
      <trkpt lat="36.79178905673325061798095703125" lon="-118.54925815947353839874267578125">
        <ele>1596.800048828125</ele>
        <time>2021-06-28T19:12:45.000Z</time>
        <extensions>
          <ns3:TrackPointExtension>
            <ns3:atemp>34.0</ns3:atemp>
            <ns3:hr>105</ns3:hr>
          </ns3:TrackPointExtension>
        </extensions>
      </trkpt>
      <trkpt lat="36.79177329875528812408447265625" lon="-118.54926645755767822265625">
        <ele>1597</ele>
        <time>2021-06-28T19:12:47.000Z</time>
        <extensions>
          <ns3:TrackPointExtension>
            <ns3:atemp>34.0</ns3:atemp>
            <ns3:hr>105</ns3:hr>
          </ns3:TrackPointExtension>
        </extensions>
      </trkpt>
      <trkpt lat="36.79173155687749385833740234375" lon="-118.5493058525025844573974609375">
        <ele>1597.199951171875</ele>
        <time>2021-06-28T19:12:51.000Z</time>
        <extensions>
          <ns3:TrackPointExtension>
            <ns3:atemp>34.0</ns3:atemp>
            <ns3:hr>106</ns3:hr>
          </ns3:TrackPointExtension>
        </extensions>
      </trkpt>
      <trkpt lat="36.79171630181372165679931640625" lon="-118.54931716807186603546142578125">
        <ele>1597.199951171875</ele>
        <time>2021-06-28T19:12:53.000Z</time>
        <extensions>
          <ns3:TrackPointExtension>
            <ns3:atemp>34.0</ns3:atemp>
            <ns3:hr>105</ns3:hr>
          </ns3:TrackPointExtension>
        </extensions>
      </trkpt>
      <trkpt lat="36.7916691116988658905029296875" lon="-118.5493348538875579833984375">
        <ele>1596.800048828125</ele>
        <time>2021-06-28T19:12:57.000Z</time>
        <extensions>
          <ns3:TrackPointExtension>
            <ns3:atemp>34.0</ns3:atemp>
            <ns3:hr>105</ns3:hr>
          </ns3:TrackPointExtension>
        </extensions>
      </trkpt>
      <trkpt lat="36.79164849221706390380859375" lon="-118.5493273101747035980224609375">
        <ele>1596.4000244140625</ele>
        <time>2021-06-28T19:12:59.000Z</time>
        <extensions>
          <ns3:TrackPointExtension>
            <ns3:atemp>34.0</ns3:atemp>
            <ns3:hr>105</ns3:hr>
          </ns3:TrackPointExtension>
        </extensions>
      </trkpt>
      <trkpt lat="36.79161555133759975433349609375" lon="-118.54931809008121490478515625">
        <ele>1596.4000244140625</ele>
        <time>2021-06-28T19:13:03.000Z</time>
        <extensions>
          <ns3:TrackPointExtension>
            <ns3:atemp>34.0</ns3:atemp>
            <ns3:hr>103</ns3:hr>
          </ns3:TrackPointExtension>
        </extensions>
      </trkpt>
      <trkpt lat="36.7915809340775012969970703125" lon="-118.549313060939311981201171875">
        <ele>1596.4000244140625</ele>
        <time>2021-06-28T19:13:06.000Z</time>
        <extensions>
          <ns3:TrackPointExtension>
            <ns3:atemp>34.0</ns3:atemp>
            <ns3:hr>102</ns3:hr>
          </ns3:TrackPointExtension>
        </extensions>
      </trkpt>
      <trkpt lat="36.7915423773229122161865234375" lon="-118.5493252985179424285888671875">
        <ele>1596.199951171875</ele>
        <time>2021-06-28T19:13:09.000Z</time>
        <extensions>
          <ns3:TrackPointExtension>
            <ns3:atemp>34.0</ns3:atemp>
            <ns3:hr>100</ns3:hr>
          </ns3:TrackPointExtension>
        </extensions>
      </trkpt>
      <trkpt lat="36.79151161573827266693115234375" lon="-118.5493360273540019989013671875">
        <ele>1596</ele>
        <time>2021-06-28T19:13:11.000Z</time>
        <extensions>
          <ns3:TrackPointExtension>
            <ns3:atemp>34.0</ns3:atemp>
            <ns3:hr>99</ns3:hr>
          </ns3:TrackPointExtension>
        </extensions>
      </trkpt>
      <trkpt lat="36.79149669595062732696533203125" lon="-118.549343235790729522705078125">
        <ele>1595.5999755859375</ele>
        <time>2021-06-28T19:13:12.000Z</time>
        <extensions>
          <ns3:TrackPointExtension>
            <ns3:atemp>34.0</ns3:atemp>
            <ns3:hr>100</ns3:hr>
          </ns3:TrackPointExtension>
        </extensions>
      </trkpt>
      <trkpt lat="36.7914615757763385772705078125" lon="-118.54937869124114513397216796875">
        <ele>1595.199951171875</ele>
        <time>2021-06-28T19:13:15.000Z</time>
        <extensions>
          <ns3:TrackPointExtension>
            <ns3:atemp>34.0</ns3:atemp>
            <ns3:hr>98</ns3:hr>
          </ns3:TrackPointExtension>
        </extensions>
      </trkpt>
      <trkpt lat="36.79142586886882781982421875" lon="-118.54940534569323062896728515625">
        <ele>1595</ele>
        <time>2021-06-28T19:13:18.000Z</time>
        <extensions>
          <ns3:TrackPointExtension>
            <ns3:atemp>34.0</ns3:atemp>
            <ns3:hr>97</ns3:hr>
          </ns3:TrackPointExtension>
        </extensions>
      </trkpt>
      <trkpt lat="36.79137700237333774566650390625" lon="-118.54939545504748821258544921875">
        <ele>1595</ele>
        <time>2021-06-28T19:13:21.000Z</time>
        <extensions>
          <ns3:TrackPointExtension>
            <ns3:atemp>34.0</ns3:atemp>
            <ns3:hr>95</ns3:hr>
          </ns3:TrackPointExtension>
        </extensions>
      </trkpt>
      <trkpt lat="36.7913596518337726593017578125" lon="-118.54941037483513355255126953125">
        <ele>1595.199951171875</ele>
        <time>2021-06-28T19:13:23.000Z</time>
        <extensions>
          <ns3:TrackPointExtension>
            <ns3:atemp>34.0</ns3:atemp>
            <ns3:hr>95</ns3:hr>
          </ns3:TrackPointExtension>
        </extensions>
      </trkpt>
      <trkpt lat="36.791349761188030242919921875" lon="-118.5494185052812099456787109375">
        <ele>1595.199951171875</ele>
        <time>2021-06-28T19:13:24.000Z</time>
        <extensions>
          <ns3:TrackPointExtension>
            <ns3:atemp>34.0</ns3:atemp>
            <ns3:hr>95</ns3:hr>
          </ns3:TrackPointExtension>
        </extensions>
      </trkpt>
      <trkpt lat="36.79131179116666316986083984375" lon="-118.54943074285984039306640625">
        <ele>1595.5999755859375</ele>
        <time>2021-06-28T19:13:27.000Z</time>
        <extensions>
          <ns3:TrackPointExtension>
            <ns3:atemp>34.0</ns3:atemp>
            <ns3:hr>95</ns3:hr>
          </ns3:TrackPointExtension>
        </extensions>
      </trkpt>
      <trkpt lat="36.79129703901708126068115234375" lon="-118.54945362545549869537353515625">
        <ele>1595.5999755859375</ele>
        <time>2021-06-28T19:13:28.000Z</time>
        <extensions>
          <ns3:TrackPointExtension>
            <ns3:atemp>34.0</ns3:atemp>
            <ns3:hr>95</ns3:hr>
          </ns3:TrackPointExtension>
        </extensions>
      </trkpt>
      <trkpt lat="36.7912510223686695098876953125" lon="-118.54952470399439334869384765625">
        <ele>1595.5999755859375</ele>
        <time>2021-06-28T19:13:33.000Z</time>
        <extensions>
          <ns3:TrackPointExtension>
            <ns3:atemp>34.0</ns3:atemp>
            <ns3:hr>94</ns3:hr>
          </ns3:TrackPointExtension>
        </extensions>
      </trkpt>
      <trkpt lat="36.79121623747050762176513671875" lon="-118.5496297292411327362060546875">
        <ele>1596</ele>
        <time>2021-06-28T19:13:40.000Z</time>
        <extensions>
          <ns3:TrackPointExtension>
            <ns3:atemp>34.0</ns3:atemp>
            <ns3:hr>92</ns3:hr>
          </ns3:TrackPointExtension>
        </extensions>
      </trkpt>
      <trkpt lat="36.7911853082478046417236328125" lon="-118.5496515221893787384033203125">
        <ele>1596.199951171875</ele>
        <time>2021-06-28T19:13:42.000Z</time>
        <extensions>
          <ns3:TrackPointExtension>
            <ns3:atemp>34.0</ns3:atemp>
            <ns3:hr>93</ns3:hr>
          </ns3:TrackPointExtension>
        </extensions>
      </trkpt>
      <trkpt lat="36.7911762557923793792724609375" lon="-118.54965948499739170074462890625">
        <ele>1596</ele>
        <time>2021-06-28T19:13:43.000Z</time>
        <extensions>
          <ns3:TrackPointExtension>
            <ns3:atemp>34.0</ns3:atemp>
            <ns3:hr>90</ns3:hr>
          </ns3:TrackPointExtension>
        </extensions>
      </trkpt>
      <trkpt lat="36.79116862826049327850341796875" lon="-118.549671471118927001953125">
        <ele>1596</ele>
        <time>2021-06-28T19:13:44.000Z</time>
        <extensions>
          <ns3:TrackPointExtension>
            <ns3:atemp>34.0</ns3:atemp>
            <ns3:hr>93</ns3:hr>
          </ns3:TrackPointExtension>
        </extensions>
      </trkpt>
      <trkpt lat="36.79114214144647121429443359375" lon="-118.54967943392693996429443359375">
        <ele>1595.5999755859375</ele>
        <time>2021-06-28T19:13:47.000Z</time>
        <extensions>
          <ns3:TrackPointExtension>
            <ns3:atemp>34.0</ns3:atemp>
            <ns3:hr>95</ns3:hr>
          </ns3:TrackPointExtension>
        </extensions>
      </trkpt>
      <trkpt lat="36.79110442288219928741455078125" lon="-118.54968144558370113372802734375">
        <ele>1595.4000244140625</ele>
        <time>2021-06-28T19:13:50.000Z</time>
        <extensions>
          <ns3:TrackPointExtension>
            <ns3:atemp>34.0</ns3:atemp>
            <ns3:hr>95</ns3:hr>
          </ns3:TrackPointExtension>
        </extensions>
      </trkpt>
      <trkpt lat="36.79107055999338626861572265625" lon="-118.5497001372277736663818359375">
        <ele>1595.199951171875</ele>
        <time>2021-06-28T19:13:53.000Z</time>
        <extensions>
          <ns3:TrackPointExtension>
            <ns3:atemp>34.0</ns3:atemp>
            <ns3:hr>95</ns3:hr>
          </ns3:TrackPointExtension>
        </extensions>
      </trkpt>
      <trkpt lat="36.7910387925803661346435546875" lon="-118.54971011169254779815673828125">
        <ele>1595.4000244140625</ele>
        <time>2021-06-28T19:13:56.000Z</time>
        <extensions>
          <ns3:TrackPointExtension>
            <ns3:atemp>34.0</ns3:atemp>
            <ns3:hr>93</ns3:hr>
          </ns3:TrackPointExtension>
        </extensions>
      </trkpt>
      <trkpt lat="36.7910190112888813018798828125" lon="-118.54968999512493610382080078125">
        <ele>1595.5999755859375</ele>
        <time>2021-06-28T19:13:58.000Z</time>
        <extensions>
          <ns3:TrackPointExtension>
            <ns3:atemp>34.0</ns3:atemp>
            <ns3:hr>97</ns3:hr>
          </ns3:TrackPointExtension>
        </extensions>
      </trkpt>
      <trkpt lat="36.79100920446217060089111328125" lon="-118.54968613944947719573974609375">
        <ele>1595.5999755859375</ele>
        <time>2021-06-28T19:13:59.000Z</time>
        <extensions>
          <ns3:TrackPointExtension>
            <ns3:atemp>34.0</ns3:atemp>
            <ns3:hr>98</ns3:hr>
          </ns3:TrackPointExtension>
        </extensions>
      </trkpt>
      <trkpt lat="36.79097316227853298187255859375" lon="-118.5496830381453037261962890625">
        <ele>1595.4000244140625</ele>
        <time>2021-06-28T19:14:02.000Z</time>
        <extensions>
          <ns3:TrackPointExtension>
            <ns3:atemp>34.0</ns3:atemp>
            <ns3:hr>98</ns3:hr>
          </ns3:TrackPointExtension>
        </extensions>
      </trkpt>
      <trkpt lat="36.790946088731288909912109375" lon="-118.54970189742743968963623046875">
        <ele>1595.4000244140625</ele>
        <time>2021-06-28T19:14:04.000Z</time>
        <extensions>
          <ns3:TrackPointExtension>
            <ns3:atemp>34.0</ns3:atemp>
            <ns3:hr>101</ns3:hr>
          </ns3:TrackPointExtension>
        </extensions>
      </trkpt>
      <trkpt lat="36.79093158803880214691162109375" lon="-118.549729473888874053955078125">
        <ele>1595.199951171875</ele>
        <time>2021-06-28T19:14:06.000Z</time>
        <extensions>
          <ns3:TrackPointExtension>
            <ns3:atemp>34.0</ns3:atemp>
            <ns3:hr>102</ns3:hr>
          </ns3:TrackPointExtension>
        </extensions>
      </trkpt>
      <trkpt lat="36.7908473499119281768798828125" lon="-118.5498932562768459320068359375">
        <ele>1594.5999755859375</ele>
        <time>2021-06-28T19:14:14.000Z</time>
        <extensions>
          <ns3:TrackPointExtension>
            <ns3:atemp>34.0</ns3:atemp>
            <ns3:hr>102</ns3:hr>
          </ns3:TrackPointExtension>
        </extensions>
      </trkpt>
      <trkpt lat="36.79084173403680324554443359375" lon="-118.54990423657000064849853515625">
        <ele>1594.5999755859375</ele>
        <time>2021-06-28T19:14:15.000Z</time>
        <extensions>
          <ns3:TrackPointExtension>
            <ns3:atemp>34.0</ns3:atemp>
            <ns3:hr>102</ns3:hr>
          </ns3:TrackPointExtension>
        </extensions>
      </trkpt>
      <trkpt lat="36.7907983995974063873291015625" lon="-118.5499941743910312652587890625">
        <ele>1594.4000244140625</ele>
        <time>2021-06-28T19:14:22.000Z</time>
        <extensions>
          <ns3:TrackPointExtension>
            <ns3:atemp>34.0</ns3:atemp>
            <ns3:hr>102</ns3:hr>
          </ns3:TrackPointExtension>
        </extensions>
      </trkpt>
      <trkpt lat="36.79079596884548664093017578125" lon="-118.550007082521915435791015625">
        <ele>1594.4000244140625</ele>
        <time>2021-06-28T19:14:23.000Z</time>
        <extensions>
          <ns3:TrackPointExtension>
            <ns3:atemp>34.0</ns3:atemp>
            <ns3:hr>102</ns3:hr>
          </ns3:TrackPointExtension>
        </extensions>
      </trkpt>
      <trkpt lat="36.79078255780041217803955078125" lon="-118.5500590503215789794921875">
        <ele>1595.199951171875</ele>
        <time>2021-06-28T19:14:27.000Z</time>
        <extensions>
          <ns3:TrackPointExtension>
            <ns3:atemp>34.0</ns3:atemp>
            <ns3:hr>98</ns3:hr>
          </ns3:TrackPointExtension>
        </extensions>
      </trkpt>
      <trkpt lat="36.7907802946865558624267578125" lon="-118.55007086880505084991455078125">
        <ele>1595.199951171875</ele>
        <time>2021-06-28T19:14:28.000Z</time>
        <extensions>
          <ns3:TrackPointExtension>
            <ns3:atemp>34.0</ns3:atemp>
            <ns3:hr>98</ns3:hr>
          </ns3:TrackPointExtension>
        </extensions>
      </trkpt>
      <trkpt lat="36.7907305061817169189453125" lon="-118.5500920750200748443603515625">
        <ele>1596</ele>
        <time>2021-06-28T19:14:34.000Z</time>
        <extensions>
          <ns3:TrackPointExtension>
            <ns3:atemp>34.0</ns3:atemp>
            <ns3:hr>94</ns3:hr>
          </ns3:TrackPointExtension>
        </extensions>
      </trkpt>
      <trkpt lat="36.79069723002612590789794921875" lon="-118.55008629150688648223876953125">
        <ele>1596</ele>
        <time>2021-06-28T19:14:37.000Z</time>
        <extensions>
          <ns3:TrackPointExtension>
            <ns3:atemp>34.0</ns3:atemp>
            <ns3:hr>98</ns3:hr>
          </ns3:TrackPointExtension>
        </extensions>
      </trkpt>
      <trkpt lat="36.790667474269866943359375" lon="-118.55010397732257843017578125">
        <ele>1596.199951171875</ele>
        <time>2021-06-28T19:14:39.000Z</time>
        <extensions>
          <ns3:TrackPointExtension>
            <ns3:atemp>34.0</ns3:atemp>
            <ns3:hr>100</ns3:hr>
          </ns3:TrackPointExtension>
        </extensions>
      </trkpt>
      <trkpt lat="36.790660433471202850341796875" lon="-118.55017027817666530609130859375">
        <ele>1596.199951171875</ele>
        <time>2021-06-28T19:14:44.000Z</time>
        <extensions>
          <ns3:TrackPointExtension>
            <ns3:atemp>34.0</ns3:atemp>
            <ns3:hr>102</ns3:hr>
          </ns3:TrackPointExtension>
        </extensions>
      </trkpt>
      <trkpt lat="36.79065632633864879608154296875" lon="-118.55018310248851776123046875">
        <ele>1596.5999755859375</ele>
        <time>2021-06-28T19:14:45.000Z</time>
        <extensions>
          <ns3:TrackPointExtension>
            <ns3:atemp>34.0</ns3:atemp>
            <ns3:hr>104</ns3:hr>
          </ns3:TrackPointExtension>
        </extensions>
      </trkpt>
      <trkpt lat="36.79063654504716396331787109375" lon="-118.55021084658801555633544921875">
        <ele>1596.5999755859375</ele>
        <time>2021-06-28T19:14:48.000Z</time>
        <extensions>
          <ns3:TrackPointExtension>
            <ns3:atemp>34.0</ns3:atemp>
            <ns3:hr>105</ns3:hr>
          </ns3:TrackPointExtension>
        </extensions>
      </trkpt>
      <trkpt lat="36.7906173504889011383056640625" lon="-118.5502483136951923370361328125">
        <ele>1596.199951171875</ele>
        <time>2021-06-28T19:14:52.000Z</time>
        <extensions>
          <ns3:TrackPointExtension>
            <ns3:atemp>34.0</ns3:atemp>
            <ns3:hr>106</ns3:hr>
          </ns3:TrackPointExtension>
        </extensions>
      </trkpt>
      <trkpt lat="36.790604107081890106201171875" lon="-118.5502627305686473846435546875">
        <ele>1596</ele>
        <time>2021-06-28T19:14:53.000Z</time>
        <extensions>
          <ns3:TrackPointExtension>
            <ns3:atemp>34.0</ns3:atemp>
            <ns3:hr>107</ns3:hr>
          </ns3:TrackPointExtension>
        </extensions>
      </trkpt>
      <trkpt lat="36.7905937135219573974609375" lon="-118.550272621214389801025390625">
        <ele>1595.4000244140625</ele>
        <time>2021-06-28T19:14:54.000Z</time>
        <extensions>
          <ns3:TrackPointExtension>
            <ns3:atemp>34.0</ns3:atemp>
            <ns3:hr>107</ns3:hr>
          </ns3:TrackPointExtension>
        </extensions>
      </trkpt>
      <trkpt lat="36.7905266582965850830078125" lon="-118.55032500810921192169189453125">
        <ele>1595.4000244140625</ele>
        <time>2021-06-28T19:14:59.000Z</time>
        <extensions>
          <ns3:TrackPointExtension>
            <ns3:atemp>34.0</ns3:atemp>
            <ns3:hr>110</ns3:hr>
          </ns3:TrackPointExtension>
        </extensions>
      </trkpt>
      <trkpt lat="36.7905144207179546356201171875" lon="-118.5503447055816650390625">
        <ele>1595.5999755859375</ele>
        <time>2021-06-28T19:15:00.000Z</time>
        <extensions>
          <ns3:TrackPointExtension>
            <ns3:atemp>34.0</ns3:atemp>
            <ns3:hr>112</ns3:hr>
          </ns3:TrackPointExtension>
        </extensions>
      </trkpt>
      <trkpt lat="36.790490113198757171630859375" lon="-118.55037814937531948089599609375">
        <ele>1595.4000244140625</ele>
        <time>2021-06-28T19:15:03.000Z</time>
        <extensions>
          <ns3:TrackPointExtension>
            <ns3:atemp>34.0</ns3:atemp>
            <ns3:hr>109</ns3:hr>
          </ns3:TrackPointExtension>
        </extensions>
      </trkpt>
      <trkpt lat="36.7904569208621978759765625" lon="-118.55043715797364711761474609375">
        <ele>1595.4000244140625</ele>
        <time>2021-06-28T19:15:06.000Z</time>
        <extensions>
          <ns3:TrackPointExtension>
            <ns3:atemp>34.0</ns3:atemp>
            <ns3:hr>108</ns3:hr>
          </ns3:TrackPointExtension>
        </extensions>
      </trkpt>
      <trkpt lat="36.790381483733654022216796875" lon="-118.550527095794677734375">
        <ele>1595</ele>
        <time>2021-06-28T19:15:13.000Z</time>
        <extensions>
          <ns3:TrackPointExtension>
            <ns3:atemp>34.0</ns3:atemp>
            <ns3:hr>106</ns3:hr>
          </ns3:TrackPointExtension>
        </extensions>
      </trkpt>
      <trkpt lat="36.790354661643505096435546875" lon="-118.5505592823028564453125">
        <ele>1594.4000244140625</ele>
        <time>2021-06-28T19:15:16.000Z</time>
        <extensions>
          <ns3:TrackPointExtension>
            <ns3:atemp>34.0</ns3:atemp>
            <ns3:hr>108</ns3:hr>
          </ns3:TrackPointExtension>
        </extensions>
      </trkpt>
      <trkpt lat="36.79030336439609527587890625" lon="-118.55061485432088375091552734375">
        <ele>1594.199951171875</ele>
        <time>2021-06-28T19:15:21.000Z</time>
        <extensions>
          <ns3:TrackPointExtension>
            <ns3:atemp>34.0</ns3:atemp>
            <ns3:hr>105</ns3:hr>
          </ns3:TrackPointExtension>
        </extensions>
      </trkpt>
      <trkpt lat="36.79027377627789974212646484375" lon="-118.5506405867636203765869140625">
        <ele>1594.199951171875</ele>
        <time>2021-06-28T19:15:23.000Z</time>
        <extensions>
          <ns3:TrackPointExtension>
            <ns3:atemp>34.0</ns3:atemp>
            <ns3:hr>102</ns3:hr>
          </ns3:TrackPointExtension>
        </extensions>
      </trkpt>
      <trkpt lat="36.79023421369493007659912109375" lon="-118.55069079436361789703369140625">
        <ele>1594</ele>
        <time>2021-06-28T19:15:28.000Z</time>
        <extensions>
          <ns3:TrackPointExtension>
            <ns3:atemp>34.0</ns3:atemp>
            <ns3:hr>99</ns3:hr>
          </ns3:TrackPointExtension>
        </extensions>
      </trkpt>
      <trkpt lat="36.79021711461246013641357421875" lon="-118.55069749988615512847900390625">
        <ele>1594.199951171875</ele>
        <time>2021-06-28T19:15:29.000Z</time>
        <extensions>
          <ns3:TrackPointExtension>
            <ns3:atemp>34.0</ns3:atemp>
            <ns3:hr>98</ns3:hr>
          </ns3:TrackPointExtension>
        </extensions>
      </trkpt>
      <trkpt lat="36.79020680487155914306640625" lon="-118.550704456865787506103515625">
        <ele>1594.4000244140625</ele>
        <time>2021-06-28T19:15:30.000Z</time>
        <extensions>
          <ns3:TrackPointExtension>
            <ns3:atemp>34.0</ns3:atemp>
            <ns3:hr>98</ns3:hr>
          </ns3:TrackPointExtension>
        </extensions>
      </trkpt>
      <trkpt lat="36.79017654620110988616943359375" lon="-118.55073890648782253265380859375">
        <ele>1594</ele>
        <time>2021-06-28T19:15:34.000Z</time>
        <extensions>
          <ns3:TrackPointExtension>
            <ns3:atemp>34.0</ns3:atemp>
            <ns3:hr>95</ns3:hr>
          </ns3:TrackPointExtension>
        </extensions>
      </trkpt>
      <trkpt lat="36.79013731889426708221435546875" lon="-118.5507592745125293731689453125">
        <ele>1593.5999755859375</ele>
        <time>2021-06-28T19:15:37.000Z</time>
        <extensions>
          <ns3:TrackPointExtension>
            <ns3:atemp>34.0</ns3:atemp>
            <ns3:hr>95</ns3:hr>
          </ns3:TrackPointExtension>
        </extensions>
      </trkpt>
      <trkpt lat="36.79007143713533878326416015625" lon="-118.55081166140735149383544921875">
        <ele>1593.800048828125</ele>
        <time>2021-06-28T19:15:44.000Z</time>
        <extensions>
          <ns3:TrackPointExtension>
            <ns3:atemp>34.0</ns3:atemp>
            <ns3:hr>98</ns3:hr>
          </ns3:TrackPointExtension>
        </extensions>
      </trkpt>
      <trkpt lat="36.79005526006221771240234375" lon="-118.55083060450851917266845703125">
        <ele>1593.800048828125</ele>
        <time>2021-06-28T19:15:46.000Z</time>
        <extensions>
          <ns3:TrackPointExtension>
            <ns3:atemp>34.0</ns3:atemp>
            <ns3:hr>95</ns3:hr>
          </ns3:TrackPointExtension>
        </extensions>
      </trkpt>
      <trkpt lat="36.79003137163817882537841796875" lon="-118.5508551634848117828369140625">
        <ele>1593.4000244140625</ele>
        <time>2021-06-28T19:15:49.000Z</time>
        <extensions>
          <ns3:TrackPointExtension>
            <ns3:atemp>34.0</ns3:atemp>
            <ns3:hr>97</ns3:hr>
          </ns3:TrackPointExtension>
        </extensions>
      </trkpt>
      <trkpt lat="36.7900024540722370147705078125" lon="-118.55089413933455944061279296875">
        <ele>1593</ele>
        <time>2021-06-28T19:15:52.000Z</time>
        <extensions>
          <ns3:TrackPointExtension>
            <ns3:atemp>34.0</ns3:atemp>
            <ns3:hr>99</ns3:hr>
          </ns3:TrackPointExtension>
        </extensions>
      </trkpt>
      <trkpt lat="36.78998175077140331268310546875" lon="-118.55093705467879772186279296875">
        <ele>1592.199951171875</ele>
        <time>2021-06-28T19:15:55.000Z</time>
        <extensions>
          <ns3:TrackPointExtension>
            <ns3:atemp>34.0</ns3:atemp>
            <ns3:hr>97</ns3:hr>
          </ns3:TrackPointExtension>
        </extensions>
      </trkpt>
      <trkpt lat="36.78993590176105499267578125" lon="-118.55098349042236804962158203125">
        <ele>1591.800048828125</ele>
        <time>2021-06-28T19:15:59.000Z</time>
        <extensions>
          <ns3:TrackPointExtension>
            <ns3:atemp>34.0</ns3:atemp>
            <ns3:hr>97</ns3:hr>
          </ns3:TrackPointExtension>
        </extensions>
      </trkpt>
      <trkpt lat="36.789880581200122833251953125" lon="-118.55104316957294940948486328125">
        <ele>1590.800048828125</ele>
        <time>2021-06-28T19:16:03.000Z</time>
        <extensions>
          <ns3:TrackPointExtension>
            <ns3:atemp>34.0</ns3:atemp>
            <ns3:hr>98</ns3:hr>
          </ns3:TrackPointExtension>
        </extensions>
      </trkpt>
      <trkpt lat="36.78986004553735256195068359375" lon="-118.55105104856193065643310546875">
        <ele>1590.800048828125</ele>
        <time>2021-06-28T19:16:05.000Z</time>
        <extensions>
          <ns3:TrackPointExtension>
            <ns3:atemp>34.0</ns3:atemp>
            <ns3:hr>97</ns3:hr>
          </ns3:TrackPointExtension>
        </extensions>
      </trkpt>
      <trkpt lat="36.78984613157808780670166015625" lon="-118.55106554925441741943359375">
        <ele>1590.800048828125</ele>
        <time>2021-06-28T19:16:07.000Z</time>
        <extensions>
          <ns3:TrackPointExtension>
            <ns3:atemp>34.0</ns3:atemp>
            <ns3:hr>96</ns3:hr>
          </ns3:TrackPointExtension>
        </extensions>
      </trkpt>
      <trkpt lat="36.78983171470463275909423828125" lon="-118.55116738937795162200927734375">
        <ele>1591</ele>
        <time>2021-06-28T19:16:14.000Z</time>
        <extensions>
          <ns3:TrackPointExtension>
            <ns3:atemp>34.0</ns3:atemp>
            <ns3:hr>99</ns3:hr>
          </ns3:TrackPointExtension>
        </extensions>
      </trkpt>
      <trkpt lat="36.78978326730430126190185546875" lon="-118.55126176960766315460205078125">
        <ele>1591.5999755859375</ele>
        <time>2021-06-28T19:16:22.000Z</time>
        <extensions>
          <ns3:TrackPointExtension>
            <ns3:atemp>34.0</ns3:atemp>
            <ns3:hr>101</ns3:hr>
          </ns3:TrackPointExtension>
        </extensions>
      </trkpt>
      <trkpt lat="36.7897774837911128997802734375" lon="-118.55126797221601009368896484375">
        <ele>1592</ele>
        <time>2021-06-28T19:16:24.000Z</time>
        <extensions>
          <ns3:TrackPointExtension>
            <ns3:atemp>34.0</ns3:atemp>
            <ns3:hr>101</ns3:hr>
          </ns3:TrackPointExtension>
        </extensions>
      </trkpt>
      <trkpt lat="36.7897788248956203460693359375" lon="-118.5512752644717693328857421875">
        <ele>1592</ele>
        <time>2021-06-28T19:16:25.000Z</time>
        <extensions>
          <ns3:TrackPointExtension>
            <ns3:atemp>34.0</ns3:atemp>
            <ns3:hr>102</ns3:hr>
          </ns3:TrackPointExtension>
        </extensions>
      </trkpt>
      <trkpt lat="36.7897969298064708709716796875" lon="-118.5513071157038211822509765625">
        <ele>1592.199951171875</ele>
        <time>2021-06-28T19:16:29.000Z</time>
        <extensions>
          <ns3:TrackPointExtension>
            <ns3:atemp>34.0</ns3:atemp>
            <ns3:hr>102</ns3:hr>
          </ns3:TrackPointExtension>
        </extensions>
      </trkpt>
      <trkpt lat="36.78978075273334980010986328125" lon="-118.5513399727642536163330078125">
        <ele>1592.5999755859375</ele>
        <time>2021-06-28T19:16:32.000Z</time>
        <extensions>
          <ns3:TrackPointExtension>
            <ns3:atemp>34.0</ns3:atemp>
            <ns3:hr>101</ns3:hr>
          </ns3:TrackPointExtension>
        </extensions>
      </trkpt>
      <trkpt lat="36.7897640727460384368896484375" lon="-118.551375679671764373779296875">
        <ele>1592.800048828125</ele>
        <time>2021-06-28T19:16:35.000Z</time>
        <extensions>
          <ns3:TrackPointExtension>
            <ns3:atemp>34.0</ns3:atemp>
            <ns3:hr>99</ns3:hr>
          </ns3:TrackPointExtension>
        </extensions>
      </trkpt>
      <trkpt lat="36.78974286653101444244384765625" lon="-118.55140794999897480010986328125">
        <ele>1592.800048828125</ele>
        <time>2021-06-28T19:16:38.000Z</time>
        <extensions>
          <ns3:TrackPointExtension>
            <ns3:atemp>34.0</ns3:atemp>
            <ns3:hr>97</ns3:hr>
          </ns3:TrackPointExtension>
        </extensions>
      </trkpt>
      <trkpt lat="36.78968033753335475921630859375" lon="-118.55149595998227596282958984375">
        <ele>1592.800048828125</ele>
        <time>2021-06-28T19:16:44.000Z</time>
        <extensions>
          <ns3:TrackPointExtension>
            <ns3:atemp>34.0</ns3:atemp>
            <ns3:hr>95</ns3:hr>
          </ns3:TrackPointExtension>
        </extensions>
      </trkpt>
      <trkpt lat="36.789629124104976654052734375" lon="-118.551560081541538238525390625">
        <ele>1592.199951171875</ele>
        <time>2021-06-28T19:16:50.000Z</time>
        <extensions>
          <ns3:TrackPointExtension>
            <ns3:atemp>34.0</ns3:atemp>
            <ns3:hr>95</ns3:hr>
          </ns3:TrackPointExtension>
        </extensions>
      </trkpt>
      <trkpt lat="36.7896142043173313140869140625" lon="-118.55160467326641082763671875">
        <ele>1592.199951171875</ele>
        <time>2021-06-28T19:16:53.000Z</time>
        <extensions>
          <ns3:TrackPointExtension>
            <ns3:atemp>34.0</ns3:atemp>
            <ns3:hr>99</ns3:hr>
          </ns3:TrackPointExtension>
        </extensions>
      </trkpt>
      <trkpt lat="36.78959869779646396636962890625" lon="-118.55169989168643951416015625">
        <ele>1592.199951171875</ele>
        <time>2021-06-28T19:16:59.000Z</time>
        <extensions>
          <ns3:TrackPointExtension>
            <ns3:atemp>34.0</ns3:atemp>
            <ns3:hr>101</ns3:hr>
          </ns3:TrackPointExtension>
        </extensions>
      </trkpt>
      <trkpt lat="36.78958763368427753448486328125" lon="-118.551787398755550384521484375">
        <ele>1592.4000244140625</ele>
        <time>2021-06-28T19:17:04.000Z</time>
        <extensions>
          <ns3:TrackPointExtension>
            <ns3:atemp>34.0</ns3:atemp>
            <ns3:hr>104</ns3:hr>
          </ns3:TrackPointExtension>
        </extensions>
      </trkpt>
      <trkpt lat="36.78956164978444576263427734375" lon="-118.55185839347541332244873046875">
        <ele>1592.800048828125</ele>
        <time>2021-06-28T19:17:09.000Z</time>
        <extensions>
          <ns3:TrackPointExtension>
            <ns3:atemp>34.0</ns3:atemp>
            <ns3:hr>104</ns3:hr>
          </ns3:TrackPointExtension>
        </extensions>
      </trkpt>
      <trkpt lat="36.78956265561282634735107421875" lon="-118.55187264271080493927001953125">
        <ele>1593.199951171875</ele>
        <time>2021-06-28T19:17:10.000Z</time>
        <extensions>
          <ns3:TrackPointExtension>
            <ns3:atemp>34.0</ns3:atemp>
            <ns3:hr>105</ns3:hr>
          </ns3:TrackPointExtension>
        </extensions>
      </trkpt>
      <trkpt lat="36.7895967699587345123291015625" lon="-118.55196601711213588714599609375">
        <ele>1593.5999755859375</ele>
        <time>2021-06-28T19:17:16.000Z</time>
        <extensions>
          <ns3:TrackPointExtension>
            <ns3:atemp>34.0</ns3:atemp>
            <ns3:hr>107</ns3:hr>
          </ns3:TrackPointExtension>
        </extensions>
      </trkpt>
      <trkpt lat="36.789605319499969482421875" lon="-118.55197892524302005767822265625">
        <ele>1593.5999755859375</ele>
        <time>2021-06-28T19:17:17.000Z</time>
        <extensions>
          <ns3:TrackPointExtension>
            <ns3:atemp>34.0</ns3:atemp>
            <ns3:hr>104</ns3:hr>
          </ns3:TrackPointExtension>
        </extensions>
      </trkpt>
      <trkpt lat="36.78961378522217273712158203125" lon="-118.5519873909652233123779296875">
        <ele>1593.800048828125</ele>
        <time>2021-06-28T19:17:18.000Z</time>
        <extensions>
          <ns3:TrackPointExtension>
            <ns3:atemp>34.0</ns3:atemp>
            <ns3:hr>109</ns3:hr>
          </ns3:TrackPointExtension>
        </extensions>
      </trkpt>
      <trkpt lat="36.7896346561610698699951171875" lon="-118.55204991996288299560546875">
        <ele>1593.800048828125</ele>
        <time>2021-06-28T19:17:22.000Z</time>
        <extensions>
          <ns3:TrackPointExtension>
            <ns3:atemp>34.0</ns3:atemp>
            <ns3:hr>112</ns3:hr>
          </ns3:TrackPointExtension>
        </extensions>
      </trkpt>
      <trkpt lat="36.789640523493289947509765625" lon="-118.55207582004368305206298828125">
        <ele>1593.800048828125</ele>
        <time>2021-06-28T19:17:24.000Z</time>
        <extensions>
          <ns3:TrackPointExtension>
            <ns3:atemp>34.0</ns3:atemp>
            <ns3:hr>112</ns3:hr>
          </ns3:TrackPointExtension>
        </extensions>
      </trkpt>
      <trkpt lat="36.7896480672061443328857421875" lon="-118.55207900516688823699951171875">
        <ele>1593.800048828125</ele>
        <time>2021-06-28T19:17:25.000Z</time>
        <extensions>
          <ns3:TrackPointExtension>
            <ns3:atemp>34.0</ns3:atemp>
            <ns3:hr>113</ns3:hr>
          </ns3:TrackPointExtension>
        </extensions>
      </trkpt>
      <trkpt lat="36.7896450497210025787353515625" lon="-118.55207808315753936767578125">
        <ele>1594.199951171875</ele>
        <time>2021-06-28T19:17:27.000Z</time>
        <extensions>
          <ns3:TrackPointExtension>
            <ns3:atemp>34.0</ns3:atemp>
            <ns3:hr>114</ns3:hr>
          </ns3:TrackPointExtension>
        </extensions>
      </trkpt>
      <trkpt lat="36.78964144550263881683349609375" lon="-118.5520963557064533233642578125">
        <ele>1594.4000244140625</ele>
        <time>2021-06-28T19:17:29.000Z</time>
        <extensions>
          <ns3:TrackPointExtension>
            <ns3:atemp>34.0</ns3:atemp>
            <ns3:hr>115</ns3:hr>
          </ns3:TrackPointExtension>
        </extensions>
      </trkpt>
      <trkpt lat="36.7896433733403682708740234375" lon="-118.552108593285083770751953125">
        <ele>1594.4000244140625</ele>
        <time>2021-06-28T19:17:30.000Z</time>
        <extensions>
          <ns3:TrackPointExtension>
            <ns3:atemp>34.0</ns3:atemp>
            <ns3:hr>115</ns3:hr>
          </ns3:TrackPointExtension>
        </extensions>
      </trkpt>
      <trkpt lat="36.78964798338711261749267578125" lon="-118.552129380404949188232421875">
        <ele>1594.5999755859375</ele>
        <time>2021-06-28T19:17:32.000Z</time>
        <extensions>
          <ns3:TrackPointExtension>
            <ns3:atemp>34.0</ns3:atemp>
            <ns3:hr>115</ns3:hr>
          </ns3:TrackPointExtension>
        </extensions>
      </trkpt>
      <trkpt lat="36.789649911224842071533203125" lon="-118.55216659605503082275390625">
        <ele>1594.800048828125</ele>
        <time>2021-06-28T19:17:36.000Z</time>
        <extensions>
          <ns3:TrackPointExtension>
            <ns3:atemp>34.0</ns3:atemp>
            <ns3:hr>115</ns3:hr>
          </ns3:TrackPointExtension>
        </extensions>
      </trkpt>
      <trkpt lat="36.7896416969597339630126953125" lon="-118.5521966032683849334716796875">
        <ele>1595.199951171875</ele>
        <time>2021-06-28T19:17:38.000Z</time>
        <extensions>
          <ns3:TrackPointExtension>
            <ns3:atemp>34.0</ns3:atemp>
            <ns3:hr>115</ns3:hr>
          </ns3:TrackPointExtension>
        </extensions>
      </trkpt>
      <trkpt lat="36.78962342441082000732421875" lon="-118.5522167198359966278076171875">
        <ele>1595.4000244140625</ele>
        <time>2021-06-28T19:17:40.000Z</time>
        <extensions>
          <ns3:TrackPointExtension>
            <ns3:atemp>34.0</ns3:atemp>
            <ns3:hr>116</ns3:hr>
          </ns3:TrackPointExtension>
        </extensions>
      </trkpt>
      <trkpt lat="36.789609678089618682861328125" lon="-118.552269525825977325439453125">
        <ele>1595.199951171875</ele>
        <time>2021-06-28T19:17:44.000Z</time>
        <extensions>
          <ns3:TrackPointExtension>
            <ns3:atemp>34.0</ns3:atemp>
            <ns3:hr>115</ns3:hr>
          </ns3:TrackPointExtension>
        </extensions>
      </trkpt>
      <trkpt lat="36.789594925940036773681640625" lon="-118.55233431793749332427978515625">
        <ele>1595.199951171875</ele>
        <time>2021-06-28T19:17:48.000Z</time>
        <extensions>
          <ns3:TrackPointExtension>
            <ns3:atemp>34.0</ns3:atemp>
            <ns3:hr>112</ns3:hr>
          </ns3:TrackPointExtension>
        </extensions>
      </trkpt>
      <trkpt lat="36.78957506082952022552490234375" lon="-118.552398942410945892333984375">
        <ele>1595.199951171875</ele>
        <time>2021-06-28T19:17:52.000Z</time>
        <extensions>
          <ns3:TrackPointExtension>
            <ns3:atemp>34.0</ns3:atemp>
            <ns3:hr>109</ns3:hr>
          </ns3:TrackPointExtension>
        </extensions>
      </trkpt>
      <trkpt lat="36.789547987282276153564453125" lon="-118.5524919815361499786376953125">
        <ele>1594.4000244140625</ele>
        <time>2021-06-28T19:17:58.000Z</time>
        <extensions>
          <ns3:TrackPointExtension>
            <ns3:atemp>34.0</ns3:atemp>
            <ns3:hr>109</ns3:hr>
          </ns3:TrackPointExtension>
        </extensions>
      </trkpt>
      <trkpt lat="36.7895498313009738922119140625" lon="-118.552555851638317108154296875">
        <ele>1594.199951171875</ele>
        <time>2021-06-28T19:18:01.000Z</time>
        <extensions>
          <ns3:TrackPointExtension>
            <ns3:atemp>34.0</ns3:atemp>
            <ns3:hr>109</ns3:hr>
          </ns3:TrackPointExtension>
        </extensions>
      </trkpt>
      <trkpt lat="36.7895608954131603240966796875" lon="-118.55259549804031848907470703125">
        <ele>1594.199951171875</ele>
        <time>2021-06-28T19:18:04.000Z</time>
        <extensions>
          <ns3:TrackPointExtension>
            <ns3:atemp>34.0</ns3:atemp>
            <ns3:hr>109</ns3:hr>
          </ns3:TrackPointExtension>
        </extensions>
      </trkpt>
      <trkpt lat="36.7895637452602386474609375" lon="-118.5526056401431560516357421875">
        <ele>1594.199951171875</ele>
        <time>2021-06-28T19:18:05.000Z</time>
        <extensions>
          <ns3:TrackPointExtension>
            <ns3:atemp>34.0</ns3:atemp>
            <ns3:hr>109</ns3:hr>
          </ns3:TrackPointExtension>
        </extensions>
      </trkpt>
      <trkpt lat="36.7895578779280185699462890625" lon="-118.55265936814248561859130859375">
        <ele>1594.199951171875</ele>
        <time>2021-06-28T19:18:09.000Z</time>
        <extensions>
          <ns3:TrackPointExtension>
            <ns3:atemp>34.0</ns3:atemp>
            <ns3:hr>108</ns3:hr>
          </ns3:TrackPointExtension>
        </extensions>
      </trkpt>
      <trkpt lat="36.7895364202558994293212890625" lon="-118.55271368287503719329833984375">
        <ele>1594.199951171875</ele>
        <time>2021-06-28T19:18:15.000Z</time>
        <extensions>
          <ns3:TrackPointExtension>
            <ns3:atemp>34.0</ns3:atemp>
            <ns3:hr>108</ns3:hr>
          </ns3:TrackPointExtension>
        </extensions>
      </trkpt>
      <trkpt lat="36.78951613605022430419921875" lon="-118.552732206881046295166015625">
        <ele>1594.5999755859375</ele>
        <time>2021-06-28T19:18:17.000Z</time>
        <extensions>
          <ns3:TrackPointExtension>
            <ns3:atemp>34.0</ns3:atemp>
            <ns3:hr>108</ns3:hr>
          </ns3:TrackPointExtension>
        </extensions>
      </trkpt>
      <trkpt lat="36.78948855958878993988037109375" lon="-118.5527508147060871124267578125">
        <ele>1595.4000244140625</ele>
        <time>2021-06-28T19:18:21.000Z</time>
        <extensions>
          <ns3:TrackPointExtension>
            <ns3:atemp>34.0</ns3:atemp>
            <ns3:hr>109</ns3:hr>
          </ns3:TrackPointExtension>
        </extensions>
      </trkpt>
      <trkpt lat="36.78946207277476787567138671875" lon="-118.552793562412261962890625">
        <ele>1595.5999755859375</ele>
        <time>2021-06-28T19:18:25.000Z</time>
        <extensions>
          <ns3:TrackPointExtension>
            <ns3:atemp>34.0</ns3:atemp>
            <ns3:hr>109</ns3:hr>
          </ns3:TrackPointExtension>
        </extensions>
      </trkpt>
      <trkpt lat="36.789446063339710235595703125" lon="-118.55283086188137531280517578125">
        <ele>1595.199951171875</ele>
        <time>2021-06-28T19:18:28.000Z</time>
        <extensions>
          <ns3:TrackPointExtension>
            <ns3:atemp>34.0</ns3:atemp>
            <ns3:hr>108</ns3:hr>
          </ns3:TrackPointExtension>
        </extensions>
      </trkpt>
      <trkpt lat="36.78943105973303318023681640625" lon="-118.55288584716618061065673828125">
        <ele>1594</ele>
        <time>2021-06-28T19:18:32.000Z</time>
        <extensions>
          <ns3:TrackPointExtension>
            <ns3:atemp>34.0</ns3:atemp>
            <ns3:hr>108</ns3:hr>
          </ns3:TrackPointExtension>
        </extensions>
      </trkpt>
      <trkpt lat="36.789421923458576202392578125" lon="-118.552934043109416961669921875">
        <ele>1593.199951171875</ele>
        <time>2021-06-28T19:18:36.000Z</time>
        <extensions>
          <ns3:TrackPointExtension>
            <ns3:atemp>34.0</ns3:atemp>
            <ns3:hr>106</ns3:hr>
          </ns3:TrackPointExtension>
        </extensions>
      </trkpt>
      <trkpt lat="36.78941530175507068634033203125" lon="-118.552938401699066162109375">
        <ele>1592.800048828125</ele>
        <time>2021-06-28T19:18:37.000Z</time>
        <extensions>
          <ns3:TrackPointExtension>
            <ns3:atemp>34.0</ns3:atemp>
            <ns3:hr>106</ns3:hr>
          </ns3:TrackPointExtension>
        </extensions>
      </trkpt>
      <trkpt lat="36.78941127844154834747314453125" lon="-118.55294577777385711669921875">
        <ele>1592.800048828125</ele>
        <time>2021-06-28T19:18:38.000Z</time>
        <extensions>
          <ns3:TrackPointExtension>
            <ns3:atemp>34.0</ns3:atemp>
            <ns3:hr>107</ns3:hr>
          </ns3:TrackPointExtension>
        </extensions>
      </trkpt>
      <trkpt lat="36.78937993012368679046630859375" lon="-118.5530160181224346160888671875">
        <ele>1592</ele>
        <time>2021-06-28T19:18:45.000Z</time>
        <extensions>
          <ns3:TrackPointExtension>
            <ns3:atemp>35.0</ns3:atemp>
            <ns3:hr>104</ns3:hr>
          </ns3:TrackPointExtension>
        </extensions>
      </trkpt>
      <trkpt lat="36.78937255404889583587646484375" lon="-118.55302146635949611663818359375">
        <ele>1591.4000244140625</ele>
        <time>2021-06-28T19:18:46.000Z</time>
        <extensions>
          <ns3:TrackPointExtension>
            <ns3:atemp>34.0</ns3:atemp>
            <ns3:hr>103</ns3:hr>
          </ns3:TrackPointExtension>
        </extensions>
      </trkpt>
      <trkpt lat="36.7893473245203495025634765625" lon="-118.55308282189071178436279296875">
        <ele>1590.800048828125</ele>
        <time>2021-06-28T19:18:51.000Z</time>
        <extensions>
          <ns3:TrackPointExtension>
            <ns3:atemp>35.0</ns3:atemp>
            <ns3:hr>100</ns3:hr>
          </ns3:TrackPointExtension>
        </extensions>
      </trkpt>
      <trkpt lat="36.78933047689497470855712890625" lon="-118.55309925042092800140380859375">
        <ele>1589.800048828125</ele>
        <time>2021-06-28T19:18:53.000Z</time>
        <extensions>
          <ns3:TrackPointExtension>
            <ns3:atemp>35.0</ns3:atemp>
            <ns3:hr>100</ns3:hr>
          </ns3:TrackPointExtension>
        </extensions>
      </trkpt>
      <trkpt lat="36.78929175250232219696044921875" lon="-118.553166054189205169677734375">
        <ele>1589</ele>
        <time>2021-06-28T19:18:58.000Z</time>
        <extensions>
          <ns3:TrackPointExtension>
            <ns3:atemp>35.0</ns3:atemp>
            <ns3:hr>101</ns3:hr>
          </ns3:TrackPointExtension>
        </extensions>
      </trkpt>
      <trkpt lat="36.789283789694309234619140625" lon="-118.55317016132175922393798828125">
        <ele>1588.800048828125</ele>
        <time>2021-06-28T19:18:59.000Z</time>
        <extensions>
          <ns3:TrackPointExtension>
            <ns3:atemp>35.0</ns3:atemp>
            <ns3:hr>100</ns3:hr>
          </ns3:TrackPointExtension>
        </extensions>
      </trkpt>
      <trkpt lat="36.789258979260921478271484375" lon="-118.55321642942726612091064453125">
        <ele>1587.5999755859375</ele>
        <time>2021-06-28T19:19:04.000Z</time>
        <extensions>
          <ns3:TrackPointExtension>
            <ns3:atemp>35.0</ns3:atemp>
            <ns3:hr>102</ns3:hr>
          </ns3:TrackPointExtension>
        </extensions>
      </trkpt>
      <trkpt lat="36.78924011997878551483154296875" lon="-118.55324484407901763916015625">
        <ele>1587.4000244140625</ele>
        <time>2021-06-28T19:19:07.000Z</time>
        <extensions>
          <ns3:TrackPointExtension>
            <ns3:atemp>35.0</ns3:atemp>
            <ns3:hr>103</ns3:hr>
          </ns3:TrackPointExtension>
        </extensions>
      </trkpt>
      <trkpt lat="36.7892336659133434295654296875" lon="-118.553249202668666839599609375">
        <ele>1587.4000244140625</ele>
        <time>2021-06-28T19:19:08.000Z</time>
        <extensions>
          <ns3:TrackPointExtension>
            <ns3:atemp>35.0</ns3:atemp>
            <ns3:hr>103</ns3:hr>
          </ns3:TrackPointExtension>
        </extensions>
      </trkpt>
      <trkpt lat="36.78922067396342754364013671875" lon="-118.5532332770526409149169921875">
        <ele>1586.5999755859375</ele>
        <time>2021-06-28T19:19:11.000Z</time>
        <extensions>
          <ns3:TrackPointExtension>
            <ns3:atemp>35.0</ns3:atemp>
            <ns3:hr>101</ns3:hr>
          </ns3:TrackPointExtension>
        </extensions>
      </trkpt>
      <trkpt lat="36.7892262898385524749755859375" lon="-118.55323403142392635345458984375">
        <ele>1586.4000244140625</ele>
        <time>2021-06-28T19:19:12.000Z</time>
        <extensions>
          <ns3:TrackPointExtension>
            <ns3:atemp>35.0</ns3:atemp>
            <ns3:hr>100</ns3:hr>
          </ns3:TrackPointExtension>
        </extensions>
      </trkpt>
      <trkpt lat="36.78923475556075572967529296875" lon="-118.5532428324222564697265625">
        <ele>1586</ele>
        <time>2021-06-28T19:19:15.000Z</time>
        <extensions>
          <ns3:TrackPointExtension>
            <ns3:atemp>35.0</ns3:atemp>
            <ns3:hr>99</ns3:hr>
          </ns3:TrackPointExtension>
        </extensions>
      </trkpt>
      <trkpt lat="36.78923492319881916046142578125" lon="-118.55324090458452701568603515625">
        <ele>1586</ele>
        <time>2021-06-28T19:19:17.000Z</time>
        <extensions>
          <ns3:TrackPointExtension>
            <ns3:atemp>35.0</ns3:atemp>
            <ns3:hr>98</ns3:hr>
          </ns3:TrackPointExtension>
        </extensions>
      </trkpt>
      <trkpt lat="36.7892383597791194915771484375" lon="-118.553243167698383331298828125">
        <ele>1586</ele>
        <time>2021-06-28T19:19:20.000Z</time>
        <extensions>
          <ns3:TrackPointExtension>
            <ns3:atemp>35.0</ns3:atemp>
            <ns3:hr>98</ns3:hr>
          </ns3:TrackPointExtension>
        </extensions>
      </trkpt>
      <trkpt lat="36.78923408500850200653076171875" lon="-118.5532500408589839935302734375">
        <ele>1585.800048828125</ele>
        <time>2021-06-28T19:19:26.000Z</time>
        <extensions>
          <ns3:TrackPointExtension>
            <ns3:atemp>35.0</ns3:atemp>
            <ns3:hr>97</ns3:hr>
          </ns3:TrackPointExtension>
        </extensions>
      </trkpt>
      <trkpt lat="36.78923727013170719146728515625" lon="-118.553254567086696624755859375">
        <ele>1585.5999755859375</ele>
        <time>2021-06-28T19:19:33.000Z</time>
        <extensions>
          <ns3:TrackPointExtension>
            <ns3:atemp>35.0</ns3:atemp>
            <ns3:hr>94</ns3:hr>
          </ns3:TrackPointExtension>
        </extensions>
      </trkpt>
      <trkpt lat="36.78923425264656543731689453125" lon="-118.5532587580382823944091796875">
        <ele>1585.800048828125</ele>
        <time>2021-06-28T19:19:36.000Z</time>
        <extensions>
          <ns3:TrackPointExtension>
            <ns3:atemp>35.0</ns3:atemp>
            <ns3:hr>91</ns3:hr>
          </ns3:TrackPointExtension>
        </extensions>
      </trkpt>
      <trkpt lat="36.7892427183687686920166015625" lon="-118.5532607696950435638427734375">
        <ele>1585.800048828125</ele>
        <time>2021-06-28T19:19:41.000Z</time>
        <extensions>
          <ns3:TrackPointExtension>
            <ns3:atemp>35.0</ns3:atemp>
            <ns3:hr>88</ns3:hr>
          </ns3:TrackPointExtension>
        </extensions>
      </trkpt>
      <trkpt lat="36.7892427183687686920166015625" lon="-118.5532607696950435638427734375">
        <ele>1585.800048828125</ele>
        <time>2021-06-28T19:19:47.000Z</time>
        <extensions>
          <ns3:TrackPointExtension>
            <ns3:atemp>35.0</ns3:atemp>
            <ns3:hr>91</ns3:hr>
          </ns3:TrackPointExtension>
        </extensions>
      </trkpt>
      <trkpt lat="36.7892427183687686920166015625" lon="-118.5532607696950435638427734375">
        <ele>1585.800048828125</ele>
        <time>2021-06-28T19:19:50.000Z</time>
        <extensions>
          <ns3:TrackPointExtension>
            <ns3:atemp>35.0</ns3:atemp>
            <ns3:hr>95</ns3:hr>
          </ns3:TrackPointExtension>
        </extensions>
      </trkpt>
      <trkpt lat="36.7892427183687686920166015625" lon="-118.5532607696950435638427734375">
        <ele>1585.800048828125</ele>
        <time>2021-06-28T19:19:52.000Z</time>
        <extensions>
          <ns3:TrackPointExtension>
            <ns3:atemp>35.0</ns3:atemp>
            <ns3:hr>98</ns3:hr>
          </ns3:TrackPointExtension>
        </extensions>
      </trkpt>
      <trkpt lat="36.7892427183687686920166015625" lon="-118.5532607696950435638427734375">
        <ele>1585.800048828125</ele>
        <time>2021-06-28T19:19:54.000Z</time>
        <extensions>
          <ns3:TrackPointExtension>
            <ns3:atemp>35.0</ns3:atemp>
            <ns3:hr>101</ns3:hr>
          </ns3:TrackPointExtension>
        </extensions>
      </trkpt>
      <trkpt lat="36.7892539501190185546875" lon="-118.5532611049711704254150390625">
        <ele>1585.5999755859375</ele>
        <time>2021-06-28T19:19:57.000Z</time>
        <extensions>
          <ns3:TrackPointExtension>
            <ns3:atemp>35.0</ns3:atemp>
            <ns3:hr>103</ns3:hr>
          </ns3:TrackPointExtension>
        </extensions>
      </trkpt>
      <trkpt lat="36.78926979191601276397705078125" lon="-118.55328599922358989715576171875">
        <ele>1585.5999755859375</ele>
        <time>2021-06-28T19:20:00.000Z</time>
        <extensions>
          <ns3:TrackPointExtension>
            <ns3:atemp>35.0</ns3:atemp>
            <ns3:hr>106</ns3:hr>
          </ns3:TrackPointExtension>
        </extensions>
      </trkpt>
      <trkpt lat="36.789273731410503387451171875" lon="-118.55328750796616077423095703125">
        <ele>1585.4000244140625</ele>
        <time>2021-06-28T19:20:04.000Z</time>
        <extensions>
          <ns3:TrackPointExtension>
            <ns3:atemp>35.0</ns3:atemp>
            <ns3:hr>107</ns3:hr>
          </ns3:TrackPointExtension>
        </extensions>
      </trkpt>
      <trkpt lat="36.78923810832202434539794921875" lon="-118.553339056670665740966796875">
        <ele>1585</ele>
        <time>2021-06-28T19:20:10.000Z</time>
        <extensions>
          <ns3:TrackPointExtension>
            <ns3:atemp>35.0</ns3:atemp>
            <ns3:hr>107</ns3:hr>
          </ns3:TrackPointExtension>
        </extensions>
      </trkpt>
      <trkpt lat="36.7891726456582546234130859375" lon="-118.55344056151807308197021484375">
        <ele>1585.4000244140625</ele>
        <time>2021-06-28T19:20:18.000Z</time>
        <extensions>
          <ns3:TrackPointExtension>
            <ns3:atemp>35.0</ns3:atemp>
            <ns3:hr>108</ns3:hr>
          </ns3:TrackPointExtension>
        </extensions>
      </trkpt>
      <trkpt lat="36.789124868810176849365234375" lon="-118.55348758399486541748046875">
        <ele>1585.4000244140625</ele>
        <time>2021-06-28T19:20:22.000Z</time>
        <extensions>
          <ns3:TrackPointExtension>
            <ns3:atemp>35.0</ns3:atemp>
            <ns3:hr>108</ns3:hr>
          </ns3:TrackPointExtension>
        </extensions>
      </trkpt>
      <trkpt lat="36.7891139723360538482666015625" lon="-118.5535075329244136810302734375">
        <ele>1585.4000244140625</ele>
        <time>2021-06-28T19:20:23.000Z</time>
        <extensions>
          <ns3:TrackPointExtension>
            <ns3:atemp>35.0</ns3:atemp>
            <ns3:hr>106</ns3:hr>
          </ns3:TrackPointExtension>
        </extensions>
      </trkpt>
      <trkpt lat="36.789082624018192291259765625" lon="-118.55354583822190761566162109375">
        <ele>1585.4000244140625</ele>
        <time>2021-06-28T19:20:27.000Z</time>
        <extensions>
          <ns3:TrackPointExtension>
            <ns3:atemp>35.0</ns3:atemp>
            <ns3:hr>107</ns3:hr>
          </ns3:TrackPointExtension>
        </extensions>
      </trkpt>
      <trkpt lat="36.78907332010567188262939453125" lon="-118.5535504482686519622802734375">
        <ele>1585.199951171875</ele>
        <time>2021-06-28T19:20:28.000Z</time>
        <extensions>
          <ns3:TrackPointExtension>
            <ns3:atemp>35.0</ns3:atemp>
            <ns3:hr>106</ns3:hr>
          </ns3:TrackPointExtension>
        </extensions>
      </trkpt>
      <trkpt lat="36.78903627209365367889404296875" lon="-118.55357668362557888031005859375">
        <ele>1584.800048828125</ele>
        <time>2021-06-28T19:20:33.000Z</time>
        <extensions>
          <ns3:TrackPointExtension>
            <ns3:atemp>35.0</ns3:atemp>
            <ns3:hr>103</ns3:hr>
          </ns3:TrackPointExtension>
        </extensions>
      </trkpt>
      <trkpt lat="36.78902269341051578521728515625" lon="-118.553585149347782135009765625">
        <ele>1584.800048828125</ele>
        <time>2021-06-28T19:20:34.000Z</time>
        <extensions>
          <ns3:TrackPointExtension>
            <ns3:atemp>35.0</ns3:atemp>
            <ns3:hr>102</ns3:hr>
          </ns3:TrackPointExtension>
        </extensions>
      </trkpt>
      <trkpt lat="36.78900877945125102996826171875" lon="-118.5535957105457782745361328125">
        <ele>1584.199951171875</ele>
        <time>2021-06-28T19:20:35.000Z</time>
        <extensions>
          <ns3:TrackPointExtension>
            <ns3:atemp>35.0</ns3:atemp>
            <ns3:hr>104</ns3:hr>
          </ns3:TrackPointExtension>
        </extensions>
      </trkpt>
      <trkpt lat="36.78898036479949951171875" lon="-118.55363585986196994781494140625">
        <ele>1583.800048828125</ele>
        <time>2021-06-28T19:20:38.000Z</time>
        <extensions>
          <ns3:TrackPointExtension>
            <ns3:atemp>35.0</ns3:atemp>
            <ns3:hr>100</ns3:hr>
          </ns3:TrackPointExtension>
        </extensions>
      </trkpt>
      <trkpt lat="36.7889575660228729248046875" lon="-118.55370576493442058563232421875">
        <ele>1583.4000244140625</ele>
        <time>2021-06-28T19:20:42.000Z</time>
        <extensions>
          <ns3:TrackPointExtension>
            <ns3:atemp>35.0</ns3:atemp>
            <ns3:hr>101</ns3:hr>
          </ns3:TrackPointExtension>
        </extensions>
      </trkpt>
      <trkpt lat="36.7889443226158618927001953125" lon="-118.55377499945461750030517578125">
        <ele>1583</ele>
        <time>2021-06-28T19:20:45.000Z</time>
        <extensions>
          <ns3:TrackPointExtension>
            <ns3:atemp>35.0</ns3:atemp>
            <ns3:hr>101</ns3:hr>
          </ns3:TrackPointExtension>
        </extensions>
      </trkpt>
      <trkpt lat="36.78892697207629680633544921875" lon="-118.553839959204196929931640625">
        <ele>1583.199951171875</ele>
        <time>2021-06-28T19:20:50.000Z</time>
        <extensions>
          <ns3:TrackPointExtension>
            <ns3:atemp>35.0</ns3:atemp>
            <ns3:hr>101</ns3:hr>
          </ns3:TrackPointExtension>
        </extensions>
      </trkpt>
      <trkpt lat="36.7889252118766307830810546875" lon="-118.55385236442089080810546875">
        <ele>1583.199951171875</ele>
        <time>2021-06-28T19:20:51.000Z</time>
        <extensions>
          <ns3:TrackPointExtension>
            <ns3:atemp>35.0</ns3:atemp>
            <ns3:hr>100</ns3:hr>
          </ns3:TrackPointExtension>
        </extensions>
      </trkpt>
      <trkpt lat="36.78892630152404308319091796875" lon="-118.55389058589935302734375">
        <ele>1583.199951171875</ele>
        <time>2021-06-28T19:20:54.000Z</time>
        <extensions>
          <ns3:TrackPointExtension>
            <ns3:atemp>35.0</ns3:atemp>
            <ns3:hr>102</ns3:hr>
          </ns3:TrackPointExtension>
        </extensions>
      </trkpt>
      <trkpt lat="36.7889158241450786590576171875" lon="-118.55394515208899974822998046875">
        <ele>1583</ele>
        <time>2021-06-28T19:20:58.000Z</time>
        <extensions>
          <ns3:TrackPointExtension>
            <ns3:atemp>35.0</ns3:atemp>
            <ns3:hr>102</ns3:hr>
          </ns3:TrackPointExtension>
        </extensions>
      </trkpt>
      <trkpt lat="36.7888698913156986236572265625" lon="-118.5540791787207126617431640625">
        <ele>1582.5999755859375</ele>
        <time>2021-06-28T19:21:07.000Z</time>
        <extensions>
          <ns3:TrackPointExtension>
            <ns3:atemp>35.0</ns3:atemp>
            <ns3:hr>101</ns3:hr>
          </ns3:TrackPointExtension>
        </extensions>
      </trkpt>
      <trkpt lat="36.788794957101345062255859375" lon="-118.5542277060449123382568359375">
        <ele>1582</ele>
        <time>2021-06-28T19:21:16.000Z</time>
        <extensions>
          <ns3:TrackPointExtension>
            <ns3:atemp>35.0</ns3:atemp>
            <ns3:hr>101</ns3:hr>
          </ns3:TrackPointExtension>
        </extensions>
      </trkpt>
      <trkpt lat="36.78879302926361560821533203125" lon="-118.55423281900584697723388671875">
        <ele>1582</ele>
        <time>2021-06-28T19:21:17.000Z</time>
        <extensions>
          <ns3:TrackPointExtension>
            <ns3:atemp>35.0</ns3:atemp>
            <ns3:hr>100</ns3:hr>
          </ns3:TrackPointExtension>
        </extensions>
      </trkpt>
      <trkpt lat="36.7887900955975055694580078125" lon="-118.55424120090901851654052734375">
        <ele>1581.800048828125</ele>
        <time>2021-06-28T19:21:18.000Z</time>
        <extensions>
          <ns3:TrackPointExtension>
            <ns3:atemp>35.0</ns3:atemp>
            <ns3:hr>100</ns3:hr>
          </ns3:TrackPointExtension>
        </extensions>
      </trkpt>
      <trkpt lat="36.7887629382312297821044921875" lon="-118.55428528971970081329345703125">
        <ele>1582</ele>
        <time>2021-06-28T19:21:21.000Z</time>
        <extensions>
          <ns3:TrackPointExtension>
            <ns3:atemp>35.0</ns3:atemp>
            <ns3:hr>102</ns3:hr>
          </ns3:TrackPointExtension>
        </extensions>
      </trkpt>
      <trkpt lat="36.78873888216912746429443359375" lon="-118.55436240322887897491455078125">
        <ele>1582.4000244140625</ele>
        <time>2021-06-28T19:21:28.000Z</time>
        <extensions>
          <ns3:TrackPointExtension>
            <ns3:atemp>35.0</ns3:atemp>
            <ns3:hr>102</ns3:hr>
          </ns3:TrackPointExtension>
        </extensions>
      </trkpt>
      <trkpt lat="36.78872488439083099365234375" lon="-118.55440783314406871795654296875">
        <ele>1582.4000244140625</ele>
        <time>2021-06-28T19:21:31.000Z</time>
        <extensions>
          <ns3:TrackPointExtension>
            <ns3:atemp>35.0</ns3:atemp>
            <ns3:hr>105</ns3:hr>
          </ns3:TrackPointExtension>
        </extensions>
      </trkpt>
      <trkpt lat="36.78870820440351963043212890625" lon="-118.55446751229465007781982421875">
        <ele>1582.4000244140625</ele>
        <time>2021-06-28T19:21:35.000Z</time>
        <extensions>
          <ns3:TrackPointExtension>
            <ns3:atemp>35.0</ns3:atemp>
            <ns3:hr>108</ns3:hr>
          </ns3:TrackPointExtension>
        </extensions>
      </trkpt>
      <trkpt lat="36.7886945419013500213623046875" lon="-118.5545197315514087677001953125">
        <ele>1582.5999755859375</ele>
        <time>2021-06-28T19:21:39.000Z</time>
        <extensions>
          <ns3:TrackPointExtension>
            <ns3:atemp>35.0</ns3:atemp>
            <ns3:hr>107</ns3:hr>
          </ns3:TrackPointExtension>
        </extensions>
      </trkpt>
      <trkpt lat="36.78867937065660953521728515625" lon="-118.554563485085964202880859375">
        <ele>1582.199951171875</ele>
        <time>2021-06-28T19:21:42.000Z</time>
        <extensions>
          <ns3:TrackPointExtension>
            <ns3:atemp>35.0</ns3:atemp>
            <ns3:hr>105</ns3:hr>
          </ns3:TrackPointExtension>
        </extensions>
      </trkpt>
      <trkpt lat="36.78868859075009822845458984375" lon="-118.5546147823333740234375">
        <ele>1582</ele>
        <time>2021-06-28T19:21:45.000Z</time>
        <extensions>
          <ns3:TrackPointExtension>
            <ns3:atemp>35.0</ns3:atemp>
            <ns3:hr>107</ns3:hr>
          </ns3:TrackPointExtension>
        </extensions>
      </trkpt>
      <trkpt lat="36.78869429044425487518310546875" lon="-118.554631881415843963623046875">
        <ele>1582</ele>
        <time>2021-06-28T19:21:46.000Z</time>
        <extensions>
          <ns3:TrackPointExtension>
            <ns3:atemp>35.0</ns3:atemp>
            <ns3:hr>104</ns3:hr>
          </ns3:TrackPointExtension>
        </extensions>
      </trkpt>
      <trkpt lat="36.78869747556746006011962890625" lon="-118.55470924638211727142333984375">
        <ele>1582.199951171875</ele>
        <time>2021-06-28T19:21:51.000Z</time>
        <extensions>
          <ns3:TrackPointExtension>
            <ns3:atemp>35.0</ns3:atemp>
            <ns3:hr>105</ns3:hr>
          </ns3:TrackPointExtension>
        </extensions>
      </trkpt>
      <trkpt lat="36.78869361989200115203857421875" lon="-118.55472701601684093475341796875">
        <ele>1582.199951171875</ele>
        <time>2021-06-28T19:21:52.000Z</time>
        <extensions>
          <ns3:TrackPointExtension>
            <ns3:atemp>35.0</ns3:atemp>
            <ns3:hr>105</ns3:hr>
          </ns3:TrackPointExtension>
        </extensions>
      </trkpt>
      <trkpt lat="36.78868289105594158172607421875" lon="-118.5548120923340320587158203125">
        <ele>1582.199951171875</ele>
        <time>2021-06-28T19:21:57.000Z</time>
        <extensions>
          <ns3:TrackPointExtension>
            <ns3:atemp>35.0</ns3:atemp>
            <ns3:hr>102</ns3:hr>
          </ns3:TrackPointExtension>
        </extensions>
      </trkpt>
      <trkpt lat="36.788670904934406280517578125" lon="-118.554827682673931121826171875">
        <ele>1582.199951171875</ele>
        <time>2021-06-28T19:21:59.000Z</time>
        <extensions>
          <ns3:TrackPointExtension>
            <ns3:atemp>35.0</ns3:atemp>
            <ns3:hr>102</ns3:hr>
          </ns3:TrackPointExtension>
        </extensions>
      </trkpt>
      <trkpt lat="36.78864131681621074676513671875" lon="-118.5548241622745990753173828125">
        <ele>1582</ele>
        <time>2021-06-28T19:22:02.000Z</time>
        <extensions>
          <ns3:TrackPointExtension>
            <ns3:atemp>35.0</ns3:atemp>
            <ns3:hr>101</ns3:hr>
          </ns3:TrackPointExtension>
        </extensions>
      </trkpt>
      <trkpt lat="36.78859286941587924957275390625" lon="-118.55485375039279460906982421875">
        <ele>1581.800048828125</ele>
        <time>2021-06-28T19:22:07.000Z</time>
        <extensions>
          <ns3:TrackPointExtension>
            <ns3:atemp>35.0</ns3:atemp>
            <ns3:hr>100</ns3:hr>
          </ns3:TrackPointExtension>
        </extensions>
      </trkpt>
      <trkpt lat="36.788580380380153656005859375" lon="-118.554888702929019927978515625">
        <ele>1581.800048828125</ele>
        <time>2021-06-28T19:22:09.000Z</time>
        <extensions>
          <ns3:TrackPointExtension>
            <ns3:atemp>35.0</ns3:atemp>
            <ns3:hr>100</ns3:hr>
          </ns3:TrackPointExtension>
        </extensions>
      </trkpt>
      <trkpt lat="36.78856805898249149322509765625" lon="-118.5549616254866123199462890625">
        <ele>1582.5999755859375</ele>
        <time>2021-06-28T19:22:15.000Z</time>
        <extensions>
          <ns3:TrackPointExtension>
            <ns3:atemp>35.0</ns3:atemp>
            <ns3:hr>100</ns3:hr>
          </ns3:TrackPointExtension>
        </extensions>
      </trkpt>
      <trkpt lat="36.788568980991840362548828125" lon="-118.55497394688427448272705078125">
        <ele>1582.5999755859375</ele>
        <time>2021-06-28T19:22:16.000Z</time>
        <extensions>
          <ns3:TrackPointExtension>
            <ns3:atemp>35.0</ns3:atemp>
            <ns3:hr>101</ns3:hr>
          </ns3:TrackPointExtension>
        </extensions>
      </trkpt>
      <trkpt lat="36.78856587968766689300537109375" lon="-118.55505860410630702972412109375">
        <ele>1582.4000244140625</ele>
        <time>2021-06-28T19:22:20.000Z</time>
        <extensions>
          <ns3:TrackPointExtension>
            <ns3:atemp>35.0</ns3:atemp>
            <ns3:hr>101</ns3:hr>
          </ns3:TrackPointExtension>
        </extensions>
      </trkpt>
      <trkpt lat="36.78856872953474521636962890625" lon="-118.5550726018846035003662109375">
        <ele>1582.4000244140625</ele>
        <time>2021-06-28T19:22:21.000Z</time>
        <extensions>
          <ns3:TrackPointExtension>
            <ns3:atemp>35.0</ns3:atemp>
            <ns3:hr>101</ns3:hr>
          </ns3:TrackPointExtension>
        </extensions>
      </trkpt>
      <trkpt lat="36.78857509978115558624267578125" lon="-118.5550819896161556243896484375">
        <ele>1582.4000244140625</ele>
        <time>2021-06-28T19:22:22.000Z</time>
        <extensions>
          <ns3:TrackPointExtension>
            <ns3:atemp>35.0</ns3:atemp>
            <ns3:hr>101</ns3:hr>
          </ns3:TrackPointExtension>
        </extensions>
      </trkpt>
      <trkpt lat="36.78858800791203975677490234375" lon="-118.5551123321056365966796875">
        <ele>1583</ele>
        <time>2021-06-28T19:22:25.000Z</time>
        <extensions>
          <ns3:TrackPointExtension>
            <ns3:atemp>35.0</ns3:atemp>
            <ns3:hr>101</ns3:hr>
          </ns3:TrackPointExtension>
        </extensions>
      </trkpt>
      <trkpt lat="36.78858951665461063385009765625" lon="-118.5551423393189907073974609375">
        <ele>1583</ele>
        <time>2021-06-28T19:22:27.000Z</time>
        <extensions>
          <ns3:TrackPointExtension>
            <ns3:atemp>35.0</ns3:atemp>
            <ns3:hr>101</ns3:hr>
          </ns3:TrackPointExtension>
        </extensions>
      </trkpt>
      <trkpt lat="36.78858063183724880218505859375" lon="-118.55520796962082386016845703125">
        <ele>1583.199951171875</ele>
        <time>2021-06-28T19:22:31.000Z</time>
        <extensions>
          <ns3:TrackPointExtension>
            <ns3:atemp>35.0</ns3:atemp>
            <ns3:hr>104</ns3:hr>
          </ns3:TrackPointExtension>
        </extensions>
      </trkpt>
      <trkpt lat="36.78857266902923583984375" lon="-118.5552687384188175201416015625">
        <ele>1583.199951171875</ele>
        <time>2021-06-28T19:22:34.000Z</time>
        <extensions>
          <ns3:TrackPointExtension>
            <ns3:atemp>35.0</ns3:atemp>
            <ns3:hr>106</ns3:hr>
          </ns3:TrackPointExtension>
        </extensions>
      </trkpt>
      <trkpt lat="36.7885906063020229339599609375" lon="-118.55538382194936275482177734375">
        <ele>1583</ele>
        <time>2021-06-28T19:22:41.000Z</time>
        <extensions>
          <ns3:TrackPointExtension>
            <ns3:atemp>35.0</ns3:atemp>
            <ns3:hr>108</ns3:hr>
          </ns3:TrackPointExtension>
        </extensions>
      </trkpt>
      <trkpt lat="36.78858951665461063385009765625" lon="-118.55544023215770721435546875">
        <ele>1582.800048828125</ele>
        <time>2021-06-28T19:22:44.000Z</time>
        <extensions>
          <ns3:TrackPointExtension>
            <ns3:atemp>35.0</ns3:atemp>
            <ns3:hr>105</ns3:hr>
          </ns3:TrackPointExtension>
        </extensions>
      </trkpt>
      <trkpt lat="36.7885785363614559173583984375" lon="-118.555497564375400543212890625">
        <ele>1582.5999755859375</ele>
        <time>2021-06-28T19:22:47.000Z</time>
        <extensions>
          <ns3:TrackPointExtension>
            <ns3:atemp>35.0</ns3:atemp>
            <ns3:hr>108</ns3:hr>
          </ns3:TrackPointExtension>
        </extensions>
      </trkpt>
      <trkpt lat="36.788507960736751556396484375" lon="-118.55566746555268764495849609375">
        <ele>1582</ele>
        <time>2021-06-28T19:22:56.000Z</time>
        <extensions>
          <ns3:TrackPointExtension>
            <ns3:atemp>35.0</ns3:atemp>
            <ns3:hr>106</ns3:hr>
          </ns3:TrackPointExtension>
        </extensions>
      </trkpt>
      <trkpt lat="36.78847066126763820648193359375" lon="-118.55574575252830982208251953125">
        <ele>1581.800048828125</ele>
        <time>2021-06-28T19:23:00.000Z</time>
        <extensions>
          <ns3:TrackPointExtension>
            <ns3:atemp>35.0</ns3:atemp>
            <ns3:hr>105</ns3:hr>
          </ns3:TrackPointExtension>
        </extensions>
      </trkpt>
      <trkpt lat="36.7884551547467708587646484375" lon="-118.55580761097371578216552734375">
        <ele>1581.5999755859375</ele>
        <time>2021-06-28T19:23:03.000Z</time>
        <extensions>
          <ns3:TrackPointExtension>
            <ns3:atemp>35.0</ns3:atemp>
            <ns3:hr>106</ns3:hr>
          </ns3:TrackPointExtension>
        </extensions>
      </trkpt>
      <trkpt lat="36.7884491197764873504638671875" lon="-118.555845916271209716796875">
        <ele>1581.4000244140625</ele>
        <time>2021-06-28T19:23:05.000Z</time>
        <extensions>
          <ns3:TrackPointExtension>
            <ns3:atemp>35.0</ns3:atemp>
            <ns3:hr>109</ns3:hr>
          </ns3:TrackPointExtension>
        </extensions>
      </trkpt>
      <trkpt lat="36.7884477786719799041748046875" lon="-118.5559169948101043701171875">
        <ele>1581.4000244140625</ele>
        <time>2021-06-28T19:23:08.000Z</time>
        <extensions>
          <ns3:TrackPointExtension>
            <ns3:atemp>35.0</ns3:atemp>
            <ns3:hr>112</ns3:hr>
          </ns3:TrackPointExtension>
        </extensions>
      </trkpt>
      <trkpt lat="36.78844735957682132720947265625" lon="-118.55593116022646427154541015625">
        <ele>1581.4000244140625</ele>
        <time>2021-06-28T19:23:09.000Z</time>
        <extensions>
          <ns3:TrackPointExtension>
            <ns3:atemp>35.0</ns3:atemp>
            <ns3:hr>113</ns3:hr>
          </ns3:TrackPointExtension>
        </extensions>
      </trkpt>
      <trkpt lat="36.78844886831939220428466796875" lon="-118.55597474612295627593994140625">
        <ele>1581.4000244140625</ele>
        <time>2021-06-28T19:23:11.000Z</time>
        <extensions>
          <ns3:TrackPointExtension>
            <ns3:atemp>35.0</ns3:atemp>
            <ns3:hr>115</ns3:hr>
          </ns3:TrackPointExtension>
        </extensions>
      </trkpt>
      <trkpt lat="36.78844685666263103485107421875" lon="-118.5561002232134342193603515625">
        <ele>1581.4000244140625</ele>
        <time>2021-06-28T19:23:16.000Z</time>
        <extensions>
          <ns3:TrackPointExtension>
            <ns3:atemp>35.0</ns3:atemp>
            <ns3:hr>114</ns3:hr>
          </ns3:TrackPointExtension>
        </extensions>
      </trkpt>
      <trkpt lat="36.78846479393541812896728515625" lon="-118.556117825210094451904296875">
        <ele>1581.199951171875</ele>
        <time>2021-06-28T19:23:18.000Z</time>
        <extensions>
          <ns3:TrackPointExtension>
            <ns3:atemp>35.0</ns3:atemp>
            <ns3:hr>112</ns3:hr>
          </ns3:TrackPointExtension>
        </extensions>
      </trkpt>
      <trkpt lat="36.78848423995077610015869140625" lon="-118.55614640749990940093994140625">
        <ele>1581.5999755859375</ele>
        <time>2021-06-28T19:23:21.000Z</time>
        <extensions>
          <ns3:TrackPointExtension>
            <ns3:atemp>35.0</ns3:atemp>
            <ns3:hr>109</ns3:hr>
          </ns3:TrackPointExtension>
        </extensions>
      </trkpt>
      <trkpt lat="36.788481809198856353759765625" lon="-118.55619267560541629791259765625">
        <ele>1581.4000244140625</ele>
        <time>2021-06-28T19:23:24.000Z</time>
        <extensions>
          <ns3:TrackPointExtension>
            <ns3:atemp>35.0</ns3:atemp>
            <ns3:hr>106</ns3:hr>
          </ns3:TrackPointExtension>
        </extensions>
      </trkpt>
      <trkpt lat="36.7884803004562854766845703125" lon="-118.556203655898571014404296875">
        <ele>1581.4000244140625</ele>
        <time>2021-06-28T19:23:25.000Z</time>
        <extensions>
          <ns3:TrackPointExtension>
            <ns3:atemp>35.0</ns3:atemp>
            <ns3:hr>104</ns3:hr>
          </ns3:TrackPointExtension>
        </extensions>
      </trkpt>
      <trkpt lat="36.7885007523000240325927734375" lon="-118.556260652840137481689453125">
        <ele>1580.800048828125</ele>
        <time>2021-06-28T19:23:29.000Z</time>
        <extensions>
          <ns3:TrackPointExtension>
            <ns3:atemp>35.0</ns3:atemp>
            <ns3:hr>101</ns3:hr>
          </ns3:TrackPointExtension>
        </extensions>
      </trkpt>
      <trkpt lat="36.78850804455578327178955078125" lon="-118.556272052228450775146484375">
        <ele>1580.5999755859375</ele>
        <time>2021-06-28T19:23:30.000Z</time>
        <extensions>
          <ns3:TrackPointExtension>
            <ns3:atemp>35.0</ns3:atemp>
            <ns3:hr>100</ns3:hr>
          </ns3:TrackPointExtension>
        </extensions>
      </trkpt>
      <trkpt lat="36.78851424716413021087646484375" lon="-118.55628051795065402984619140625">
        <ele>1580.5999755859375</ele>
        <time>2021-06-28T19:23:31.000Z</time>
        <extensions>
          <ns3:TrackPointExtension>
            <ns3:atemp>35.0</ns3:atemp>
            <ns3:hr>100</ns3:hr>
          </ns3:TrackPointExtension>
        </extensions>
      </trkpt>
      <trkpt lat="36.78850888274610042572021484375" lon="-118.55632997117936611175537109375">
        <ele>1580.5999755859375</ele>
        <time>2021-06-28T19:23:34.000Z</time>
        <extensions>
          <ns3:TrackPointExtension>
            <ns3:atemp>35.0</ns3:atemp>
            <ns3:hr>102</ns3:hr>
          </ns3:TrackPointExtension>
        </extensions>
      </trkpt>
      <trkpt lat="36.78851475007832050323486328125" lon="-118.5563506744801998138427734375">
        <ele>1580.5999755859375</ele>
        <time>2021-06-28T19:23:36.000Z</time>
        <extensions>
          <ns3:TrackPointExtension>
            <ns3:atemp>35.0</ns3:atemp>
            <ns3:hr>102</ns3:hr>
          </ns3:TrackPointExtension>
        </extensions>
      </trkpt>
      <trkpt lat="36.788524724543094635009765625" lon="-118.5563912428915500640869140625">
        <ele>1580.4000244140625</ele>
        <time>2021-06-28T19:23:41.000Z</time>
        <extensions>
          <ns3:TrackPointExtension>
            <ns3:atemp>35.0</ns3:atemp>
            <ns3:hr>104</ns3:hr>
          </ns3:TrackPointExtension>
        </extensions>
      </trkpt>
      <trkpt lat="36.78852371871471405029296875" lon="-118.55639887042343616485595703125">
        <ele>1580.5999755859375</ele>
        <time>2021-06-28T19:23:42.000Z</time>
        <extensions>
          <ns3:TrackPointExtension>
            <ns3:atemp>35.0</ns3:atemp>
            <ns3:hr>105</ns3:hr>
          </ns3:TrackPointExtension>
        </extensions>
      </trkpt>
      <trkpt lat="36.78852011449635028839111328125" lon="-118.55642837472259998321533203125">
        <ele>1580.4000244140625</ele>
        <time>2021-06-28T19:23:45.000Z</time>
        <extensions>
          <ns3:TrackPointExtension>
            <ns3:atemp>35.0</ns3:atemp>
            <ns3:hr>104</ns3:hr>
          </ns3:TrackPointExtension>
        </extensions>
      </trkpt>
      <trkpt lat="36.78851340897381305694580078125" lon="-118.556445054709911346435546875">
        <ele>1580.4000244140625</ele>
        <time>2021-06-28T19:23:46.000Z</time>
        <extensions>
          <ns3:TrackPointExtension>
            <ns3:atemp>35.0</ns3:atemp>
            <ns3:hr>105</ns3:hr>
          </ns3:TrackPointExtension>
        </extensions>
      </trkpt>
      <trkpt lat="36.78850720636546611785888671875" lon="-118.55645989067852497100830078125">
        <ele>1580.4000244140625</ele>
        <time>2021-06-28T19:23:47.000Z</time>
        <extensions>
          <ns3:TrackPointExtension>
            <ns3:atemp>35.0</ns3:atemp>
            <ns3:hr>105</ns3:hr>
          </ns3:TrackPointExtension>
        </extensions>
      </trkpt>
      <trkpt lat="36.7885004170238971710205078125" lon="-118.5564857907593250274658203125">
        <ele>1580.4000244140625</ele>
        <time>2021-06-28T19:23:49.000Z</time>
        <extensions>
          <ns3:TrackPointExtension>
            <ns3:atemp>35.0</ns3:atemp>
            <ns3:hr>103</ns3:hr>
          </ns3:TrackPointExtension>
        </extensions>
      </trkpt>
      <trkpt lat="36.7884779535233974456787109375" lon="-118.55654756538569927215576171875">
        <ele>1580.4000244140625</ele>
        <time>2021-06-28T19:23:53.000Z</time>
        <extensions>
          <ns3:TrackPointExtension>
            <ns3:atemp>35.0</ns3:atemp>
            <ns3:hr>106</ns3:hr>
          </ns3:TrackPointExtension>
        </extensions>
      </trkpt>
      <trkpt lat="36.78848004899919033050537109375" lon="-118.5565565340220928192138671875">
        <ele>1580.4000244140625</ele>
        <time>2021-06-28T19:23:54.000Z</time>
        <extensions>
          <ns3:TrackPointExtension>
            <ns3:atemp>35.0</ns3:atemp>
            <ns3:hr>107</ns3:hr>
          </ns3:TrackPointExtension>
        </extensions>
      </trkpt>
      <trkpt lat="36.7884806357324123382568359375" lon="-118.55656349100172519683837890625">
        <ele>1580.199951171875</ele>
        <time>2021-06-28T19:23:55.000Z</time>
        <extensions>
          <ns3:TrackPointExtension>
            <ns3:atemp>35.0</ns3:atemp>
            <ns3:hr>107</ns3:hr>
          </ns3:TrackPointExtension>
        </extensions>
      </trkpt>
      <trkpt lat="36.78850234486162662506103515625" lon="-118.556606657803058624267578125">
        <ele>1580</ele>
        <time>2021-06-28T19:23:59.000Z</time>
        <extensions>
          <ns3:TrackPointExtension>
            <ns3:atemp>35.0</ns3:atemp>
            <ns3:hr>108</ns3:hr>
          </ns3:TrackPointExtension>
        </extensions>
      </trkpt>
      <trkpt lat="36.78853671066462993621826171875" lon="-118.55667849071323871612548828125">
        <ele>1580.4000244140625</ele>
        <time>2021-06-28T19:24:04.000Z</time>
        <extensions>
          <ns3:TrackPointExtension>
            <ns3:atemp>34.0</ns3:atemp>
            <ns3:hr>109</ns3:hr>
          </ns3:TrackPointExtension>
        </extensions>
      </trkpt>
      <trkpt lat="36.78853251971304416656494140625" lon="-118.5567323863506317138671875">
        <ele>1580.800048828125</ele>
        <time>2021-06-28T19:24:08.000Z</time>
        <extensions>
          <ns3:TrackPointExtension>
            <ns3:atemp>34.0</ns3:atemp>
            <ns3:hr>108</ns3:hr>
          </ns3:TrackPointExtension>
        </extensions>
      </trkpt>
      <trkpt lat="36.7885372973978519439697265625" lon="-118.55676381848752498626708984375">
        <ele>1580.800048828125</ele>
        <time>2021-06-28T19:24:10.000Z</time>
        <extensions>
          <ns3:TrackPointExtension>
            <ns3:atemp>34.0</ns3:atemp>
            <ns3:hr>107</ns3:hr>
          </ns3:TrackPointExtension>
        </extensions>
      </trkpt>
      <trkpt lat="36.788539476692676544189453125" lon="-118.556781671941280364990234375">
        <ele>1581</ele>
        <time>2021-06-28T19:24:11.000Z</time>
        <extensions>
          <ns3:TrackPointExtension>
            <ns3:atemp>34.0</ns3:atemp>
            <ns3:hr>107</ns3:hr>
          </ns3:TrackPointExtension>
        </extensions>
      </trkpt>
      <trkpt lat="36.78853201679885387420654296875" lon="-118.55684277601540088653564453125">
        <ele>1581</ele>
        <time>2021-06-28T19:24:14.000Z</time>
        <extensions>
          <ns3:TrackPointExtension>
            <ns3:atemp>34.0</ns3:atemp>
            <ns3:hr>108</ns3:hr>
          </ns3:TrackPointExtension>
        </extensions>
      </trkpt>
      <trkpt lat="36.78853402845561504364013671875" lon="-118.55690899305045604705810546875">
        <ele>1581</ele>
        <time>2021-06-28T19:24:16.000Z</time>
        <extensions>
          <ns3:TrackPointExtension>
            <ns3:atemp>34.0</ns3:atemp>
            <ns3:hr>108</ns3:hr>
          </ns3:TrackPointExtension>
        </extensions>
      </trkpt>
      <trkpt lat="36.78853184916079044342041015625" lon="-118.55696163140237331390380859375">
        <ele>1581</ele>
        <time>2021-06-28T19:24:18.000Z</time>
        <extensions>
          <ns3:TrackPointExtension>
            <ns3:atemp>34.0</ns3:atemp>
            <ns3:hr>105</ns3:hr>
          </ns3:TrackPointExtension>
        </extensions>
      </trkpt>
      <trkpt lat="36.7885372973978519439697265625" lon="-118.55702851898968219757080078125">
        <ele>1581</ele>
        <time>2021-06-28T19:24:22.000Z</time>
        <extensions>
          <ns3:TrackPointExtension>
            <ns3:atemp>34.0</ns3:atemp>
            <ns3:hr>103</ns3:hr>
          </ns3:TrackPointExtension>
        </extensions>
      </trkpt>
      <trkpt lat="36.78853704594075679779052734375" lon="-118.5570453666150569915771484375">
        <ele>1581</ele>
        <time>2021-06-28T19:24:23.000Z</time>
        <extensions>
          <ns3:TrackPointExtension>
            <ns3:atemp>34.0</ns3:atemp>
            <ns3:hr>102</ns3:hr>
          </ns3:TrackPointExtension>
        </extensions>
      </trkpt>
      <trkpt lat="36.788535453379154205322265625" lon="-118.5570648126304149627685546875">
        <ele>1581</ele>
        <time>2021-06-28T19:24:24.000Z</time>
        <extensions>
          <ns3:TrackPointExtension>
            <ns3:atemp>34.0</ns3:atemp>
            <ns3:hr>101</ns3:hr>
          </ns3:TrackPointExtension>
        </extensions>
      </trkpt>
      <trkpt lat="36.7885517142713069915771484375" lon="-118.55709792114794254302978515625">
        <ele>1581</ele>
        <time>2021-06-28T19:24:27.000Z</time>
        <extensions>
          <ns3:TrackPointExtension>
            <ns3:atemp>34.0</ns3:atemp>
            <ns3:hr>99</ns3:hr>
          </ns3:TrackPointExtension>
        </extensions>
      </trkpt>
      <trkpt lat="36.7885793745517730712890625" lon="-118.55716514401137828826904296875">
        <ele>1580.800048828125</ele>
        <time>2021-06-28T19:24:32.000Z</time>
        <extensions>
          <ns3:TrackPointExtension>
            <ns3:atemp>34.0</ns3:atemp>
            <ns3:hr>99</ns3:hr>
          </ns3:TrackPointExtension>
        </extensions>
      </trkpt>
      <trkpt lat="36.78858163766562938690185546875" lon="-118.55720772407948970794677734375">
        <ele>1580.800048828125</ele>
        <time>2021-06-28T19:24:35.000Z</time>
        <extensions>
          <ns3:TrackPointExtension>
            <ns3:atemp>34.0</ns3:atemp>
            <ns3:hr>100</ns3:hr>
          </ns3:TrackPointExtension>
        </extensions>
      </trkpt>
      <trkpt lat="36.7885885946452617645263671875" lon="-118.557219542562961578369140625">
        <ele>1580.4000244140625</ele>
        <time>2021-06-28T19:24:36.000Z</time>
        <extensions>
          <ns3:TrackPointExtension>
            <ns3:atemp>34.0</ns3:atemp>
            <ns3:hr>101</ns3:hr>
          </ns3:TrackPointExtension>
        </extensions>
      </trkpt>
      <trkpt lat="36.78860192187130451202392578125" lon="-118.5572358034551143646240234375">
        <ele>1580.800048828125</ele>
        <time>2021-06-28T19:24:38.000Z</time>
        <extensions>
          <ns3:TrackPointExtension>
            <ns3:atemp>34.0</ns3:atemp>
            <ns3:hr>101</ns3:hr>
          </ns3:TrackPointExtension>
        </extensions>
      </trkpt>
      <trkpt lat="36.7886088788509368896484375" lon="-118.55725474655628204345703125">
        <ele>1580.4000244140625</ele>
        <time>2021-06-28T19:24:40.000Z</time>
        <extensions>
          <ns3:TrackPointExtension>
            <ns3:atemp>34.0</ns3:atemp>
            <ns3:hr>102</ns3:hr>
          </ns3:TrackPointExtension>
        </extensions>
      </trkpt>
      <trkpt lat="36.7886142432689666748046875" lon="-118.55727754533290863037109375">
        <ele>1580.4000244140625</ele>
        <time>2021-06-28T19:24:42.000Z</time>
        <extensions>
          <ns3:TrackPointExtension>
            <ns3:atemp>34.0</ns3:atemp>
            <ns3:hr>102</ns3:hr>
          </ns3:TrackPointExtension>
        </extensions>
      </trkpt>
      <trkpt lat="36.78863075561821460723876953125" lon="-118.5573085583746433258056640625">
        <ele>1580.4000244140625</ele>
        <time>2021-06-28T19:24:45.000Z</time>
        <extensions>
          <ns3:TrackPointExtension>
            <ns3:atemp>34.0</ns3:atemp>
            <ns3:hr>102</ns3:hr>
          </ns3:TrackPointExtension>
        </extensions>
      </trkpt>
      <trkpt lat="36.7886348627507686614990234375" lon="-118.55732775293290615081787109375">
        <ele>1580.4000244140625</ele>
        <time>2021-06-28T19:24:46.000Z</time>
        <extensions>
          <ns3:TrackPointExtension>
            <ns3:atemp>34.0</ns3:atemp>
            <ns3:hr>102</ns3:hr>
          </ns3:TrackPointExtension>
        </extensions>
      </trkpt>
      <trkpt lat="36.7886328510940074920654296875" lon="-118.55734996497631072998046875">
        <ele>1580.5999755859375</ele>
        <time>2021-06-28T19:24:48.000Z</time>
        <extensions>
          <ns3:TrackPointExtension>
            <ns3:atemp>34.0</ns3:atemp>
            <ns3:hr>102</ns3:hr>
          </ns3:TrackPointExtension>
        </extensions>
      </trkpt>
      <trkpt lat="36.78863042034208774566650390625" lon="-118.5573819838464260101318359375">
        <ele>1580.5999755859375</ele>
        <time>2021-06-28T19:24:50.000Z</time>
        <extensions>
          <ns3:TrackPointExtension>
            <ns3:atemp>34.0</ns3:atemp>
            <ns3:hr>100</ns3:hr>
          </ns3:TrackPointExtension>
        </extensions>
      </trkpt>
      <trkpt lat="36.78863427601754665374755859375" lon="-118.557414002716541290283203125">
        <ele>1580.5999755859375</ele>
        <time>2021-06-28T19:24:52.000Z</time>
        <extensions>
          <ns3:TrackPointExtension>
            <ns3:atemp>34.0</ns3:atemp>
            <ns3:hr>99</ns3:hr>
          </ns3:TrackPointExtension>
        </extensions>
      </trkpt>
      <trkpt lat="36.78863578476011753082275390625" lon="-118.55746152810752391815185546875">
        <ele>1580.800048828125</ele>
        <time>2021-06-28T19:24:55.000Z</time>
        <extensions>
          <ns3:TrackPointExtension>
            <ns3:atemp>34.0</ns3:atemp>
            <ns3:hr>99</ns3:hr>
          </ns3:TrackPointExtension>
        </extensions>
      </trkpt>
      <trkpt lat="36.788633354008197784423828125" lon="-118.55751760303974151611328125">
        <ele>1580.4000244140625</ele>
        <time>2021-06-28T19:24:58.000Z</time>
        <extensions>
          <ns3:TrackPointExtension>
            <ns3:atemp>34.0</ns3:atemp>
            <ns3:hr>99</ns3:hr>
          </ns3:TrackPointExtension>
        </extensions>
      </trkpt>
      <trkpt lat="36.78861265070736408233642578125" lon="-118.55755121447145938873291015625">
        <ele>1580.4000244140625</ele>
        <time>2021-06-28T19:25:00.000Z</time>
        <extensions>
          <ns3:TrackPointExtension>
            <ns3:atemp>34.0</ns3:atemp>
            <ns3:hr>99</ns3:hr>
          </ns3:TrackPointExtension>
        </extensions>
      </trkpt>
      <trkpt lat="36.78861357271671295166015625" lon="-118.55758239515125751495361328125">
        <ele>1580.199951171875</ele>
        <time>2021-06-28T19:25:03.000Z</time>
        <extensions>
          <ns3:TrackPointExtension>
            <ns3:atemp>34.0</ns3:atemp>
            <ns3:hr>96</ns3:hr>
          </ns3:TrackPointExtension>
        </extensions>
      </trkpt>
      <trkpt lat="36.78861566819250583648681640625" lon="-118.55762229301035404205322265625">
        <ele>1579.800048828125</ele>
        <time>2021-06-28T19:25:06.000Z</time>
        <extensions>
          <ns3:TrackPointExtension>
            <ns3:atemp>34.0</ns3:atemp>
            <ns3:hr>95</ns3:hr>
          </ns3:TrackPointExtension>
        </extensions>
      </trkpt>
      <trkpt lat="36.7886315099895000457763671875" lon="-118.557669818401336669921875">
        <ele>1579.800048828125</ele>
        <time>2021-06-28T19:25:09.000Z</time>
        <extensions>
          <ns3:TrackPointExtension>
            <ns3:atemp>34.0</ns3:atemp>
            <ns3:hr>95</ns3:hr>
          </ns3:TrackPointExtension>
        </extensions>
      </trkpt>
      <trkpt lat="36.78864567540585994720458984375" lon="-118.55770762078464031219482421875">
        <ele>1579.800048828125</ele>
        <time>2021-06-28T19:25:11.000Z</time>
        <extensions>
          <ns3:TrackPointExtension>
            <ns3:atemp>34.0</ns3:atemp>
            <ns3:hr>94</ns3:hr>
          </ns3:TrackPointExtension>
        </extensions>
      </trkpt>
      <trkpt lat="36.78865774534642696380615234375" lon="-118.55774961411952972412109375">
        <ele>1580</ele>
        <time>2021-06-28T19:25:14.000Z</time>
        <extensions>
          <ns3:TrackPointExtension>
            <ns3:atemp>34.0</ns3:atemp>
            <ns3:hr>97</ns3:hr>
          </ns3:TrackPointExtension>
        </extensions>
      </trkpt>
      <trkpt lat="36.7886610142886638641357421875" lon="-118.55775740928947925567626953125">
        <ele>1580</ele>
        <time>2021-06-28T19:25:15.000Z</time>
        <extensions>
          <ns3:TrackPointExtension>
            <ns3:atemp>35.0</ns3:atemp>
            <ns3:hr>94</ns3:hr>
          </ns3:TrackPointExtension>
        </extensions>
      </trkpt>
      <trkpt lat="36.788676269352436065673828125" lon="-118.55780937708914279937744140625">
        <ele>1579.5999755859375</ele>
        <time>2021-06-28T19:25:19.000Z</time>
        <extensions>
          <ns3:TrackPointExtension>
            <ns3:atemp>35.0</ns3:atemp>
            <ns3:hr>96</ns3:hr>
          </ns3:TrackPointExtension>
        </extensions>
      </trkpt>
      <trkpt lat="36.78868171758949756622314453125" lon="-118.5578734986484050750732421875">
        <ele>1579.4000244140625</ele>
        <time>2021-06-28T19:25:23.000Z</time>
        <extensions>
          <ns3:TrackPointExtension>
            <ns3:atemp>35.0</ns3:atemp>
            <ns3:hr>97</ns3:hr>
          </ns3:TrackPointExtension>
        </extensions>
      </trkpt>
      <trkpt lat="36.78870099596679210662841796875" lon="-118.5579180903732776641845703125">
        <ele>1579.4000244140625</ele>
        <time>2021-06-28T19:25:27.000Z</time>
        <extensions>
          <ns3:TrackPointExtension>
            <ns3:atemp>35.0</ns3:atemp>
            <ns3:hr>94</ns3:hr>
          </ns3:TrackPointExtension>
        </extensions>
      </trkpt>
      <trkpt lat="36.78870610892772674560546875" lon="-118.5579599998891353607177734375">
        <ele>1579.800048828125</ele>
        <time>2021-06-28T19:25:30.000Z</time>
        <extensions>
          <ns3:TrackPointExtension>
            <ns3:atemp>35.0</ns3:atemp>
            <ns3:hr>93</ns3:hr>
          </ns3:TrackPointExtension>
        </extensions>
      </trkpt>
      <trkpt lat="36.78868054412305355072021484375" lon="-118.55799746699631214141845703125">
        <ele>1579.800048828125</ele>
        <time>2021-06-28T19:25:32.000Z</time>
        <extensions>
          <ns3:TrackPointExtension>
            <ns3:atemp>35.0</ns3:atemp>
            <ns3:hr>93</ns3:hr>
          </ns3:TrackPointExtension>
        </extensions>
      </trkpt>
      <trkpt lat="36.788645423948764801025390625" lon="-118.55804909951984882354736328125">
        <ele>1580.4000244140625</ele>
        <time>2021-06-28T19:25:37.000Z</time>
        <extensions>
          <ns3:TrackPointExtension>
            <ns3:atemp>35.0</ns3:atemp>
            <ns3:hr>95</ns3:hr>
          </ns3:TrackPointExtension>
        </extensions>
      </trkpt>
      <trkpt lat="36.7886469326913356781005859375" lon="-118.55806988663971424102783203125">
        <ele>1580.4000244140625</ele>
        <time>2021-06-28T19:25:39.000Z</time>
        <extensions>
          <ns3:TrackPointExtension>
            <ns3:atemp>35.0</ns3:atemp>
            <ns3:hr>95</ns3:hr>
          </ns3:TrackPointExtension>
        </extensions>
      </trkpt>
      <trkpt lat="36.78864584304392337799072265625" lon="-118.55812051333487033843994140625">
        <ele>1580.5999755859375</ele>
        <time>2021-06-28T19:25:42.000Z</time>
        <extensions>
          <ns3:TrackPointExtension>
            <ns3:atemp>35.0</ns3:atemp>
            <ns3:hr>95</ns3:hr>
          </ns3:TrackPointExtension>
        </extensions>
      </trkpt>
      <trkpt lat="36.788637377321720123291015625" lon="-118.55816544033586978912353515625">
        <ele>1580.5999755859375</ele>
        <time>2021-06-28T19:25:44.000Z</time>
        <extensions>
          <ns3:TrackPointExtension>
            <ns3:atemp>35.0</ns3:atemp>
            <ns3:hr>98</ns3:hr>
          </ns3:TrackPointExtension>
        </extensions>
      </trkpt>
      <trkpt lat="36.78865137510001659393310546875" lon="-118.55819310061633586883544921875">
        <ele>1580.5999755859375</ele>
        <time>2021-06-28T19:25:46.000Z</time>
        <extensions>
          <ns3:TrackPointExtension>
            <ns3:atemp>35.0</ns3:atemp>
            <ns3:hr>101</ns3:hr>
          </ns3:TrackPointExtension>
        </extensions>
      </trkpt>
      <trkpt lat="36.78866411559283733367919921875" lon="-118.5582411289215087890625">
        <ele>1580.4000244140625</ele>
        <time>2021-06-28T19:25:48.000Z</time>
        <extensions>
          <ns3:TrackPointExtension>
            <ns3:atemp>35.0</ns3:atemp>
            <ns3:hr>104</ns3:hr>
          </ns3:TrackPointExtension>
        </extensions>
      </trkpt>
      <trkpt lat="36.78866495378315448760986328125" lon="-118.55829368345439434051513671875">
        <ele>1580.199951171875</ele>
        <time>2021-06-28T19:25:51.000Z</time>
        <extensions>
          <ns3:TrackPointExtension>
            <ns3:atemp>35.0</ns3:atemp>
            <ns3:hr>108</ns3:hr>
          </ns3:TrackPointExtension>
        </extensions>
      </trkpt>
      <trkpt lat="36.788667552173137664794921875" lon="-118.5583070106804370880126953125">
        <ele>1580</ele>
        <time>2021-06-28T19:25:52.000Z</time>
        <extensions>
          <ns3:TrackPointExtension>
            <ns3:atemp>35.0</ns3:atemp>
            <ns3:hr>105</ns3:hr>
          </ns3:TrackPointExtension>
        </extensions>
      </trkpt>
      <trkpt lat="36.78868490271270275115966796875" lon="-118.55831162072718143463134765625">
        <ele>1579.800048828125</ele>
        <time>2021-06-28T19:25:54.000Z</time>
        <extensions>
          <ns3:TrackPointExtension>
            <ns3:atemp>35.0</ns3:atemp>
            <ns3:hr>106</ns3:hr>
          </ns3:TrackPointExtension>
        </extensions>
      </trkpt>
      <trkpt lat="36.78868322633206844329833984375" lon="-118.5583355091512203216552734375">
        <ele>1579.800048828125</ele>
        <time>2021-06-28T19:25:56.000Z</time>
        <extensions>
          <ns3:TrackPointExtension>
            <ns3:atemp>35.0</ns3:atemp>
            <ns3:hr>105</ns3:hr>
          </ns3:TrackPointExtension>
        </extensions>
      </trkpt>
      <trkpt lat="36.78869395516812801361083984375" lon="-118.558374904096126556396484375">
        <ele>1579.800048828125</ele>
        <time>2021-06-28T19:26:00.000Z</time>
        <extensions>
          <ns3:TrackPointExtension>
            <ns3:atemp>35.0</ns3:atemp>
            <ns3:hr>103</ns3:hr>
          </ns3:TrackPointExtension>
        </extensions>
      </trkpt>
      <trkpt lat="36.78870686329901218414306640625" lon="-118.5584471561014652252197265625">
        <ele>1579.4000244140625</ele>
        <time>2021-06-28T19:26:05.000Z</time>
        <extensions>
          <ns3:TrackPointExtension>
            <ns3:atemp>35.0</ns3:atemp>
            <ns3:hr>104</ns3:hr>
          </ns3:TrackPointExtension>
        </extensions>
      </trkpt>
      <trkpt lat="36.78870786912739276885986328125" lon="-118.558466769754886627197265625">
        <ele>1579.4000244140625</ele>
        <time>2021-06-28T19:26:06.000Z</time>
        <extensions>
          <ns3:TrackPointExtension>
            <ns3:atemp>35.0</ns3:atemp>
            <ns3:hr>103</ns3:hr>
          </ns3:TrackPointExtension>
        </extensions>
      </trkpt>
      <trkpt lat="36.7887049354612827301025390625" lon="-118.55850557796657085418701171875">
        <ele>1579.4000244140625</ele>
        <time>2021-06-28T19:26:08.000Z</time>
        <extensions>
          <ns3:TrackPointExtension>
            <ns3:atemp>35.0</ns3:atemp>
            <ns3:hr>103</ns3:hr>
          </ns3:TrackPointExtension>
        </extensions>
      </trkpt>
      <trkpt lat="36.788709796965122222900390625" lon="-118.55855670757591724395751953125">
        <ele>1579.199951171875</ele>
        <time>2021-06-28T19:26:11.000Z</time>
        <extensions>
          <ns3:TrackPointExtension>
            <ns3:atemp>35.0</ns3:atemp>
            <ns3:hr>102</ns3:hr>
          </ns3:TrackPointExtension>
        </extensions>
      </trkpt>
      <trkpt lat="36.7887066118419170379638671875" lon="-118.55857866816222667694091796875">
        <ele>1579.199951171875</ele>
        <time>2021-06-28T19:26:13.000Z</time>
        <extensions>
          <ns3:TrackPointExtension>
            <ns3:atemp>35.0</ns3:atemp>
            <ns3:hr>100</ns3:hr>
          </ns3:TrackPointExtension>
        </extensions>
      </trkpt>
      <trkpt lat="36.78870610892772674560546875" lon="-118.55863130651414394378662109375">
        <ele>1579.4000244140625</ele>
        <time>2021-06-28T19:26:16.000Z</time>
        <extensions>
          <ns3:TrackPointExtension>
            <ns3:atemp>35.0</ns3:atemp>
            <ns3:hr>98</ns3:hr>
          </ns3:TrackPointExtension>
        </extensions>
      </trkpt>
      <trkpt lat="36.78869538009166717529296875" lon="-118.55877430178225040435791015625">
        <ele>1579.4000244140625</ele>
        <time>2021-06-28T19:26:23.000Z</time>
        <extensions>
          <ns3:TrackPointExtension>
            <ns3:atemp>35.0</ns3:atemp>
            <ns3:hr>96</ns3:hr>
          </ns3:TrackPointExtension>
        </extensions>
      </trkpt>
      <trkpt lat="36.78869965486228466033935546875" lon="-118.55880967341363430023193359375">
        <ele>1579.4000244140625</ele>
        <time>2021-06-28T19:26:25.000Z</time>
        <extensions>
          <ns3:TrackPointExtension>
            <ns3:atemp>35.0</ns3:atemp>
            <ns3:hr>95</ns3:hr>
          </ns3:TrackPointExtension>
        </extensions>
      </trkpt>
      <trkpt lat="36.78871055133640766143798828125" lon="-118.5588655807077884674072265625">
        <ele>1579.4000244140625</ele>
        <time>2021-06-28T19:26:29.000Z</time>
        <extensions>
          <ns3:TrackPointExtension>
            <ns3:atemp>35.0</ns3:atemp>
            <ns3:hr>96</ns3:hr>
          </ns3:TrackPointExtension>
        </extensions>
      </trkpt>
      <trkpt lat="36.78872890770435333251953125" lon="-118.5588969290256500244140625">
        <ele>1579.199951171875</ele>
        <time>2021-06-28T19:26:31.000Z</time>
        <extensions>
          <ns3:TrackPointExtension>
            <ns3:atemp>35.0</ns3:atemp>
            <ns3:hr>94</ns3:hr>
          </ns3:TrackPointExtension>
        </extensions>
      </trkpt>
      <trkpt lat="36.78873368538916110992431640625" lon="-118.558914028108119964599609375">
        <ele>1579.199951171875</ele>
        <time>2021-06-28T19:26:32.000Z</time>
        <extensions>
          <ns3:TrackPointExtension>
            <ns3:atemp>35.0</ns3:atemp>
            <ns3:hr>95</ns3:hr>
          </ns3:TrackPointExtension>
        </extensions>
      </trkpt>
      <trkpt lat="36.78874558769166469573974609375" lon="-118.55907202698290348052978515625">
        <ele>1580.4000244140625</ele>
        <time>2021-06-28T19:26:39.000Z</time>
        <extensions>
          <ns3:TrackPointExtension>
            <ns3:atemp>35.0</ns3:atemp>
            <ns3:hr>98</ns3:hr>
          </ns3:TrackPointExtension>
        </extensions>
      </trkpt>
      <trkpt lat="36.78875505924224853515625" lon="-118.55914033949375152587890625">
        <ele>1580.5999755859375</ele>
        <time>2021-06-28T19:26:43.000Z</time>
        <extensions>
          <ns3:TrackPointExtension>
            <ns3:atemp>35.0</ns3:atemp>
            <ns3:hr>101</ns3:hr>
          </ns3:TrackPointExtension>
        </extensions>
      </trkpt>
      <trkpt lat="36.7887636087834835052490234375" lon="-118.55914494954049587249755859375">
        <ele>1580.5999755859375</ele>
        <time>2021-06-28T19:26:45.000Z</time>
        <extensions>
          <ns3:TrackPointExtension>
            <ns3:atemp>35.0</ns3:atemp>
            <ns3:hr>104</ns3:hr>
          </ns3:TrackPointExtension>
        </extensions>
      </trkpt>
      <trkpt lat="36.78876687772572040557861328125" lon="-118.55914838612079620361328125">
        <ele>1580.5999755859375</ele>
        <time>2021-06-28T19:26:46.000Z</time>
        <extensions>
          <ns3:TrackPointExtension>
            <ns3:atemp>35.0</ns3:atemp>
            <ns3:hr>105</ns3:hr>
          </ns3:TrackPointExtension>
        </extensions>
      </trkpt>
      <trkpt lat="36.788768470287322998046875" lon="-118.559156768023967742919921875">
        <ele>1581</ele>
        <time>2021-06-28T19:26:47.000Z</time>
        <extensions>
          <ns3:TrackPointExtension>
            <ns3:atemp>35.0</ns3:atemp>
            <ns3:hr>106</ns3:hr>
          </ns3:TrackPointExtension>
        </extensions>
      </trkpt>
      <trkpt lat="36.78877458907663822174072265625" lon="-118.55917294509708881378173828125">
        <ele>1581.5999755859375</ele>
        <time>2021-06-28T19:26:49.000Z</time>
        <extensions>
          <ns3:TrackPointExtension>
            <ns3:atemp>35.0</ns3:atemp>
            <ns3:hr>109</ns3:hr>
          </ns3:TrackPointExtension>
        </extensions>
      </trkpt>
      <trkpt lat="36.78877584636211395263671875" lon="-118.559185601770877838134765625">
        <ele>1582</ele>
        <time>2021-06-28T19:26:50.000Z</time>
        <extensions>
          <ns3:TrackPointExtension>
            <ns3:atemp>35.0</ns3:atemp>
            <ns3:hr>110</ns3:hr>
          </ns3:TrackPointExtension>
        </extensions>
      </trkpt>
      <trkpt lat="36.7887810431420803070068359375" lon="-118.5592134296894073486328125">
        <ele>1582.199951171875</ele>
        <time>2021-06-28T19:26:52.000Z</time>
        <extensions>
          <ns3:TrackPointExtension>
            <ns3:atemp>35.0</ns3:atemp>
            <ns3:hr>111</ns3:hr>
          </ns3:TrackPointExtension>
        </extensions>
      </trkpt>
      <trkpt lat="36.7888286523520946502685546875" lon="-118.5592689178884029388427734375">
        <ele>1582.800048828125</ele>
        <time>2021-06-28T19:26:59.000Z</time>
        <extensions>
          <ns3:TrackPointExtension>
            <ns3:atemp>35.0</ns3:atemp>
            <ns3:hr>113</ns3:hr>
          </ns3:TrackPointExtension>
        </extensions>
      </trkpt>
      <trkpt lat="36.78884558379650115966796875" lon="-118.559312336146831512451171875">
        <ele>1583.199951171875</ele>
        <time>2021-06-28T19:27:03.000Z</time>
        <extensions>
          <ns3:TrackPointExtension>
            <ns3:atemp>35.0</ns3:atemp>
            <ns3:hr>112</ns3:hr>
          </ns3:TrackPointExtension>
        </extensions>
      </trkpt>
      <trkpt lat="36.78884734399616718292236328125" lon="-118.55932675302028656005859375">
        <ele>1583.5999755859375</ele>
        <time>2021-06-28T19:27:04.000Z</time>
        <extensions>
          <ns3:TrackPointExtension>
            <ns3:atemp>35.0</ns3:atemp>
            <ns3:hr>112</ns3:hr>
          </ns3:TrackPointExtension>
        </extensions>
      </trkpt>
      <trkpt lat="36.78884382359683513641357421875" lon="-118.55933739803731441497802734375">
        <ele>1583.800048828125</ele>
        <time>2021-06-28T19:27:05.000Z</time>
        <extensions>
          <ns3:TrackPointExtension>
            <ns3:atemp>35.0</ns3:atemp>
            <ns3:hr>111</ns3:hr>
          </ns3:TrackPointExtension>
        </extensions>
      </trkpt>
      <trkpt lat="36.788827143609523773193359375" lon="-118.55937629006803035736083984375">
        <ele>1584.199951171875</ele>
        <time>2021-06-28T19:27:08.000Z</time>
        <extensions>
          <ns3:TrackPointExtension>
            <ns3:atemp>35.0</ns3:atemp>
            <ns3:hr>112</ns3:hr>
          </ns3:TrackPointExtension>
        </extensions>
      </trkpt>
      <trkpt lat="36.7888341844081878662109375" lon="-118.5594268329441547393798828125">
        <ele>1584</ele>
        <time>2021-06-28T19:27:12.000Z</time>
        <extensions>
          <ns3:TrackPointExtension>
            <ns3:atemp>35.0</ns3:atemp>
            <ns3:hr>112</ns3:hr>
          </ns3:TrackPointExtension>
        </extensions>
      </trkpt>
      <trkpt lat="36.7888410575687885284423828125" lon="-118.5594617016613483428955078125">
        <ele>1583.800048828125</ele>
        <time>2021-06-28T19:27:14.000Z</time>
        <extensions>
          <ns3:TrackPointExtension>
            <ns3:atemp>35.0</ns3:atemp>
            <ns3:hr>111</ns3:hr>
          </ns3:TrackPointExtension>
        </extensions>
      </trkpt>
      <trkpt lat="36.78885622881352901458740234375" lon="-118.55952079407870769500732421875">
        <ele>1583.199951171875</ele>
        <time>2021-06-28T19:27:17.000Z</time>
        <extensions>
          <ns3:TrackPointExtension>
            <ns3:atemp>35.0</ns3:atemp>
            <ns3:hr>111</ns3:hr>
          </ns3:TrackPointExtension>
        </extensions>
      </trkpt>
      <trkpt lat="36.7888742499053478240966796875" lon="-118.55954325757920742034912109375">
        <ele>1583.199951171875</ele>
        <time>2021-06-28T19:27:19.000Z</time>
        <extensions>
          <ns3:TrackPointExtension>
            <ns3:atemp>35.0</ns3:atemp>
            <ns3:hr>110</ns3:hr>
          </ns3:TrackPointExtension>
        </extensions>
      </trkpt>
      <trkpt lat="36.78889344446361064910888671875" lon="-118.55958282016217708587646484375">
        <ele>1584.4000244140625</ele>
        <time>2021-06-28T19:27:22.000Z</time>
        <extensions>
          <ns3:TrackPointExtension>
            <ns3:atemp>35.0</ns3:atemp>
            <ns3:hr>112</ns3:hr>
          </ns3:TrackPointExtension>
        </extensions>
      </trkpt>
      <trkpt lat="36.7889468371868133544921875" lon="-118.55961869470775127410888671875">
        <ele>1585.5999755859375</ele>
        <time>2021-06-28T19:27:27.000Z</time>
        <extensions>
          <ns3:TrackPointExtension>
            <ns3:atemp>35.0</ns3:atemp>
            <ns3:hr>114</ns3:hr>
          </ns3:TrackPointExtension>
        </extensions>
      </trkpt>
      <trkpt lat="36.78894842974841594696044921875" lon="-118.5596290044486522674560546875">
        <ele>1586</ele>
        <time>2021-06-28T19:27:28.000Z</time>
        <extensions>
          <ns3:TrackPointExtension>
            <ns3:atemp>35.0</ns3:atemp>
            <ns3:hr>113</ns3:hr>
          </ns3:TrackPointExtension>
        </extensions>
      </trkpt>
      <trkpt lat="36.78895681165158748626708984375" lon="-118.559644930064678192138671875">
        <ele>1586.5999755859375</ele>
        <time>2021-06-28T19:27:30.000Z</time>
        <extensions>
          <ns3:TrackPointExtension>
            <ns3:atemp>35.0</ns3:atemp>
            <ns3:hr>114</ns3:hr>
          </ns3:TrackPointExtension>
        </extensions>
      </trkpt>
      <trkpt lat="36.7889682948589324951171875" lon="-118.55965993367135524749755859375">
        <ele>1586.800048828125</ele>
        <time>2021-06-28T19:27:32.000Z</time>
        <extensions>
          <ns3:TrackPointExtension>
            <ns3:atemp>35.0</ns3:atemp>
            <ns3:hr>115</ns3:hr>
          </ns3:TrackPointExtension>
        </extensions>
      </trkpt>
      <trkpt lat="36.78896091878414154052734375" lon="-118.5597175173461437225341796875">
        <ele>1587.5999755859375</ele>
        <time>2021-06-28T19:27:37.000Z</time>
        <extensions>
          <ns3:TrackPointExtension>
            <ns3:atemp>35.0</ns3:atemp>
            <ns3:hr>116</ns3:hr>
          </ns3:TrackPointExtension>
        </extensions>
      </trkpt>
      <trkpt lat="36.7889535427093505859375" lon="-118.55973738245666027069091796875">
        <ele>1587.5999755859375</ele>
        <time>2021-06-28T19:27:40.000Z</time>
        <extensions>
          <ns3:TrackPointExtension>
            <ns3:atemp>35.0</ns3:atemp>
            <ns3:hr>117</ns3:hr>
          </ns3:TrackPointExtension>
        </extensions>
      </trkpt>
      <trkpt lat="36.788935773074626922607421875" lon="-118.55981214903295040130615234375">
        <ele>1587</ele>
        <time>2021-06-28T19:27:46.000Z</time>
        <extensions>
          <ns3:TrackPointExtension>
            <ns3:atemp>35.0</ns3:atemp>
            <ns3:hr>120</ns3:hr>
          </ns3:TrackPointExtension>
        </extensions>
      </trkpt>
      <trkpt lat="36.78893133066594600677490234375" lon="-118.5598465986549854278564453125">
        <ele>1586.5999755859375</ele>
        <time>2021-06-28T19:27:49.000Z</time>
        <extensions>
          <ns3:TrackPointExtension>
            <ns3:atemp>35.0</ns3:atemp>
            <ns3:hr>119</ns3:hr>
          </ns3:TrackPointExtension>
        </extensions>
      </trkpt>
      <trkpt lat="36.78892512805759906768798828125" lon="-118.5599274002015590667724609375">
        <ele>1586.4000244140625</ele>
        <time>2021-06-28T19:27:55.000Z</time>
        <extensions>
          <ns3:TrackPointExtension>
            <ns3:atemp>35.0</ns3:atemp>
            <ns3:hr>122</ns3:hr>
          </ns3:TrackPointExtension>
        </extensions>
      </trkpt>
      <trkpt lat="36.7889151535928249359130859375" lon="-118.55994793586432933807373046875">
        <ele>1586.4000244140625</ele>
        <time>2021-06-28T19:27:57.000Z</time>
        <extensions>
          <ns3:TrackPointExtension>
            <ns3:atemp>35.0</ns3:atemp>
            <ns3:hr>122</ns3:hr>
          </ns3:TrackPointExtension>
        </extensions>
      </trkpt>
      <trkpt lat="36.78887031041085720062255859375" lon="-118.5600169189274311065673828125">
        <ele>1586.800048828125</ele>
        <time>2021-06-28T19:28:04.000Z</time>
        <extensions>
          <ns3:TrackPointExtension>
            <ns3:atemp>35.0</ns3:atemp>
            <ns3:hr>123</ns3:hr>
          </ns3:TrackPointExtension>
        </extensions>
      </trkpt>
      <trkpt lat="36.78886947222054004669189453125" lon="-118.56008238159120082855224609375">
        <ele>1586.800048828125</ele>
        <time>2021-06-28T19:28:08.000Z</time>
        <extensions>
          <ns3:TrackPointExtension>
            <ns3:atemp>35.0</ns3:atemp>
            <ns3:hr>120</ns3:hr>
          </ns3:TrackPointExtension>
        </extensions>
      </trkpt>
      <trkpt lat="36.788868047297000885009765625" lon="-118.56009788811206817626953125">
        <ele>1586.4000244140625</ele>
        <time>2021-06-28T19:28:09.000Z</time>
        <extensions>
          <ns3:TrackPointExtension>
            <ns3:atemp>35.0</ns3:atemp>
            <ns3:hr>120</ns3:hr>
          </ns3:TrackPointExtension>
        </extensions>
      </trkpt>
      <trkpt lat="36.788869388401508331298828125" lon="-118.56013267301023006439208984375">
        <ele>1585.5999755859375</ele>
        <time>2021-06-28T19:28:11.000Z</time>
        <extensions>
          <ns3:TrackPointExtension>
            <ns3:atemp>35.0</ns3:atemp>
            <ns3:hr>118</ns3:hr>
          </ns3:TrackPointExtension>
        </extensions>
      </trkpt>
      <trkpt lat="36.78885656408965587615966796875" lon="-118.56014776043593883514404296875">
        <ele>1585.5999755859375</ele>
        <time>2021-06-28T19:28:12.000Z</time>
        <extensions>
          <ns3:TrackPointExtension>
            <ns3:atemp>35.0</ns3:atemp>
            <ns3:hr>118</ns3:hr>
          </ns3:TrackPointExtension>
        </extensions>
      </trkpt>
      <trkpt lat="36.78883963264524936676025390625" lon="-118.5601674579083919525146484375">
        <ele>1585.4000244140625</ele>
        <time>2021-06-28T19:28:14.000Z</time>
        <extensions>
          <ns3:TrackPointExtension>
            <ns3:atemp>35.0</ns3:atemp>
            <ns3:hr>118</ns3:hr>
          </ns3:TrackPointExtension>
        </extensions>
      </trkpt>
      <trkpt lat="36.7888179235160350799560546875" lon="-118.56021012179553508758544921875">
        <ele>1585.5999755859375</ele>
        <time>2021-06-28T19:28:17.000Z</time>
        <extensions>
          <ns3:TrackPointExtension>
            <ns3:atemp>35.0</ns3:atemp>
            <ns3:hr>115</ns3:hr>
          </ns3:TrackPointExtension>
        </extensions>
      </trkpt>
      <trkpt lat="36.78879403509199619293212890625" lon="-118.56025186367332935333251953125">
        <ele>1585.199951171875</ele>
        <time>2021-06-28T19:28:20.000Z</time>
        <extensions>
          <ns3:TrackPointExtension>
            <ns3:atemp>35.0</ns3:atemp>
            <ns3:hr>114</ns3:hr>
          </ns3:TrackPointExtension>
        </extensions>
      </trkpt>
      <trkpt lat="36.78877584636211395263671875" lon="-118.56037122197449207305908203125">
        <ele>1584.4000244140625</ele>
        <time>2021-06-28T19:28:28.000Z</time>
        <extensions>
          <ns3:TrackPointExtension>
            <ns3:atemp>35.0</ns3:atemp>
            <ns3:hr>112</ns3:hr>
          </ns3:TrackPointExtension>
        </extensions>
      </trkpt>
      <trkpt lat="36.78877777419984340667724609375" lon="-118.5603806935250759124755859375">
        <ele>1584.4000244140625</ele>
        <time>2021-06-28T19:28:29.000Z</time>
        <extensions>
          <ns3:TrackPointExtension>
            <ns3:atemp>35.0</ns3:atemp>
            <ns3:hr>108</ns3:hr>
          </ns3:TrackPointExtension>
        </extensions>
      </trkpt>
      <trkpt lat="36.78878162987530231475830078125" lon="-118.5603909194469451904296875">
        <ele>1584.4000244140625</ele>
        <time>2021-06-28T19:28:30.000Z</time>
        <extensions>
          <ns3:TrackPointExtension>
            <ns3:atemp>35.0</ns3:atemp>
            <ns3:hr>106</ns3:hr>
          </ns3:TrackPointExtension>
        </extensions>
      </trkpt>
      <trkpt lat="36.7887760140001773834228515625" lon="-118.56042805127799510955810546875">
        <ele>1584.4000244140625</ele>
        <time>2021-06-28T19:28:32.000Z</time>
        <extensions>
          <ns3:TrackPointExtension>
            <ns3:atemp>35.0</ns3:atemp>
            <ns3:hr>108</ns3:hr>
          </ns3:TrackPointExtension>
        </extensions>
      </trkpt>
      <trkpt lat="36.7887672968208789825439453125" lon="-118.56054841540753841400146484375">
        <ele>1584.4000244140625</ele>
        <time>2021-06-28T19:28:41.000Z</time>
        <extensions>
          <ns3:TrackPointExtension>
            <ns3:atemp>36.0</ns3:atemp>
            <ns3:hr>107</ns3:hr>
          </ns3:TrackPointExtension>
        </extensions>
      </trkpt>
      <trkpt lat="36.78876386024057865142822265625" lon="-118.5605652630329132080078125">
        <ele>1584.4000244140625</ele>
        <time>2021-06-28T19:28:42.000Z</time>
        <extensions>
          <ns3:TrackPointExtension>
            <ns3:atemp>36.0</ns3:atemp>
            <ns3:hr>109</ns3:hr>
          </ns3:TrackPointExtension>
        </extensions>
      </trkpt>
      <trkpt lat="36.78873695433139801025390625" lon="-118.560678251087665557861328125">
        <ele>1583.800048828125</ele>
        <time>2021-06-28T19:28:49.000Z</time>
        <extensions>
          <ns3:TrackPointExtension>
            <ns3:atemp>36.0</ns3:atemp>
            <ns3:hr>107</ns3:hr>
          </ns3:TrackPointExtension>
        </extensions>
      </trkpt>
      <trkpt lat="36.788739301264286041259765625" lon="-118.56069476343691349029541015625">
        <ele>1582.800048828125</ele>
        <time>2021-06-28T19:28:50.000Z</time>
        <extensions>
          <ns3:TrackPointExtension>
            <ns3:atemp>36.0</ns3:atemp>
            <ns3:hr>107</ns3:hr>
          </ns3:TrackPointExtension>
        </extensions>
      </trkpt>
      <trkpt lat="36.7887354455888271331787109375" lon="-118.56070666573941707611083984375">
        <ele>1582.800048828125</ele>
        <time>2021-06-28T19:28:51.000Z</time>
        <extensions>
          <ns3:TrackPointExtension>
            <ns3:atemp>36.0</ns3:atemp>
            <ns3:hr>107</ns3:hr>
          </ns3:TrackPointExtension>
        </extensions>
      </trkpt>
      <trkpt lat="36.78873963654041290283203125" lon="-118.5607230104506015777587890625">
        <ele>1582.800048828125</ele>
        <time>2021-06-28T19:28:53.000Z</time>
        <extensions>
          <ns3:TrackPointExtension>
            <ns3:atemp>36.0</ns3:atemp>
            <ns3:hr>107</ns3:hr>
          </ns3:TrackPointExtension>
        </extensions>
      </trkpt>
      <trkpt lat="36.7887421511113643646240234375" lon="-118.560743965208530426025390625">
        <ele>1582.800048828125</ele>
        <time>2021-06-28T19:28:55.000Z</time>
        <extensions>
          <ns3:TrackPointExtension>
            <ns3:atemp>36.0</ns3:atemp>
            <ns3:hr>107</ns3:hr>
          </ns3:TrackPointExtension>
        </extensions>
      </trkpt>
      <trkpt lat="36.7887200228869915008544921875" lon="-118.56079869903624057769775390625">
        <ele>1583.199951171875</ele>
        <time>2021-06-28T19:28:58.000Z</time>
        <extensions>
          <ns3:TrackPointExtension>
            <ns3:atemp>36.0</ns3:atemp>
            <ns3:hr>106</ns3:hr>
          </ns3:TrackPointExtension>
        </extensions>
      </trkpt>
      <trkpt lat="36.78870619274675846099853515625" lon="-118.56083239428699016571044921875">
        <ele>1583.5999755859375</ele>
        <time>2021-06-28T19:29:01.000Z</time>
        <extensions>
          <ns3:TrackPointExtension>
            <ns3:atemp>36.0</ns3:atemp>
            <ns3:hr>106</ns3:hr>
          </ns3:TrackPointExtension>
        </extensions>
      </trkpt>
      <trkpt lat="36.78869864903390407562255859375" lon="-118.5608735494315624237060546875">
        <ele>1583.5999755859375</ele>
        <time>2021-06-28T19:29:04.000Z</time>
        <extensions>
          <ns3:TrackPointExtension>
            <ns3:atemp>36.0</ns3:atemp>
            <ns3:hr>105</ns3:hr>
          </ns3:TrackPointExtension>
        </extensions>
      </trkpt>
      <trkpt lat="36.78867685608565807342529296875" lon="-118.5609721206128597259521484375">
        <ele>1582.199951171875</ele>
        <time>2021-06-28T19:29:10.000Z</time>
        <extensions>
          <ns3:TrackPointExtension>
            <ns3:atemp>36.0</ns3:atemp>
            <ns3:hr>103</ns3:hr>
          </ns3:TrackPointExtension>
        </extensions>
      </trkpt>
      <trkpt lat="36.78866277448832988739013671875" lon="-118.5610066540539264678955078125">
        <ele>1581.5999755859375</ele>
        <time>2021-06-28T19:29:13.000Z</time>
        <extensions>
          <ns3:TrackPointExtension>
            <ns3:atemp>36.0</ns3:atemp>
            <ns3:hr>103</ns3:hr>
          </ns3:TrackPointExtension>
        </extensions>
      </trkpt>
      <trkpt lat="36.78865556605160236358642578125" lon="-118.561041690409183502197265625">
        <ele>1581.4000244140625</ele>
        <time>2021-06-28T19:29:15.000Z</time>
        <extensions>
          <ns3:TrackPointExtension>
            <ns3:atemp>36.0</ns3:atemp>
            <ns3:hr>103</ns3:hr>
          </ns3:TrackPointExtension>
        </extensions>
      </trkpt>
      <trkpt lat="36.78865891881287097930908203125" lon="-118.56110564433038234710693359375">
        <ele>1581.5999755859375</ele>
        <time>2021-06-28T19:29:19.000Z</time>
        <extensions>
          <ns3:TrackPointExtension>
            <ns3:atemp>36.0</ns3:atemp>
            <ns3:hr>103</ns3:hr>
          </ns3:TrackPointExtension>
        </extensions>
      </trkpt>
      <trkpt lat="36.78865925408899784088134765625" lon="-118.56116808950901031494140625">
        <ele>1581.4000244140625</ele>
        <time>2021-06-28T19:29:23.000Z</time>
        <extensions>
          <ns3:TrackPointExtension>
            <ns3:atemp>36.0</ns3:atemp>
            <ns3:hr>100</ns3:hr>
          </ns3:TrackPointExtension>
        </extensions>
      </trkpt>
      <trkpt lat="36.78865849971771240234375" lon="-118.56122701428830623626708984375">
        <ele>1581.4000244140625</ele>
        <time>2021-06-28T19:29:26.000Z</time>
        <extensions>
          <ns3:TrackPointExtension>
            <ns3:atemp>36.0</ns3:atemp>
            <ns3:hr>97</ns3:hr>
          </ns3:TrackPointExtension>
        </extensions>
      </trkpt>
      <trkpt lat="36.788657493889331817626953125" lon="-118.56124721467494964599609375">
        <ele>1581.4000244140625</ele>
        <time>2021-06-28T19:29:27.000Z</time>
        <extensions>
          <ns3:TrackPointExtension>
            <ns3:atemp>36.0</ns3:atemp>
            <ns3:hr>96</ns3:hr>
          </ns3:TrackPointExtension>
        </extensions>
      </trkpt>
      <trkpt lat="36.7886569909751415252685546875" lon="-118.561281748116016387939453125">
        <ele>1581.4000244140625</ele>
        <time>2021-06-28T19:29:29.000Z</time>
        <extensions>
          <ns3:TrackPointExtension>
            <ns3:atemp>36.0</ns3:atemp>
            <ns3:hr>93</ns3:hr>
          </ns3:TrackPointExtension>
        </extensions>
      </trkpt>
      <trkpt lat="36.78866478614509105682373046875" lon="-118.56143631041049957275390625">
        <ele>1581.5999755859375</ele>
        <time>2021-06-28T19:29:38.000Z</time>
        <extensions>
          <ns3:TrackPointExtension>
            <ns3:atemp>36.0</ns3:atemp>
            <ns3:hr>90</ns3:hr>
          </ns3:TrackPointExtension>
        </extensions>
      </trkpt>
      <trkpt lat="36.78869144059717655181884765625" lon="-118.56155608780682086944580078125">
        <ele>1581</ele>
        <time>2021-06-28T19:29:46.000Z</time>
        <extensions>
          <ns3:TrackPointExtension>
            <ns3:atemp>36.0</ns3:atemp>
            <ns3:hr>92</ns3:hr>
          </ns3:TrackPointExtension>
        </extensions>
      </trkpt>
      <trkpt lat="36.78870015777647495269775390625" lon="-118.5615885257720947265625">
        <ele>1581</ele>
        <time>2021-06-28T19:29:48.000Z</time>
        <extensions>
          <ns3:TrackPointExtension>
            <ns3:atemp>36.0</ns3:atemp>
            <ns3:hr>93</ns3:hr>
          </ns3:TrackPointExtension>
        </extensions>
      </trkpt>
      <trkpt lat="36.78871155716478824615478515625" lon="-118.56162272393703460693359375">
        <ele>1581.199951171875</ele>
        <time>2021-06-28T19:29:50.000Z</time>
        <extensions>
          <ns3:TrackPointExtension>
            <ns3:atemp>36.0</ns3:atemp>
            <ns3:hr>94</ns3:hr>
          </ns3:TrackPointExtension>
        </extensions>
      </trkpt>
      <trkpt lat="36.78872144781053066253662109375" lon="-118.56165532954037189483642578125">
        <ele>1581.199951171875</ele>
        <time>2021-06-28T19:29:52.000Z</time>
        <extensions>
          <ns3:TrackPointExtension>
            <ns3:atemp>36.0</ns3:atemp>
            <ns3:hr>94</ns3:hr>
          </ns3:TrackPointExtension>
        </extensions>
      </trkpt>
      <trkpt lat="36.78872379474341869354248046875" lon="-118.561672009527683258056640625">
        <ele>1581.199951171875</ele>
        <time>2021-06-28T19:29:53.000Z</time>
        <extensions>
          <ns3:TrackPointExtension>
            <ns3:atemp>36.0</ns3:atemp>
            <ns3:hr>95</ns3:hr>
          </ns3:TrackPointExtension>
        </extensions>
      </trkpt>
      <trkpt lat="36.78875195793807506561279296875" lon="-118.5618163459002971649169921875">
        <ele>1580.800048828125</ele>
        <time>2021-06-28T19:30:02.000Z</time>
        <extensions>
          <ns3:TrackPointExtension>
            <ns3:atemp>36.0</ns3:atemp>
            <ns3:hr>93</ns3:hr>
          </ns3:TrackPointExtension>
        </extensions>
      </trkpt>
      <trkpt lat="36.78876017220318317413330078125" lon="-118.56186185963451862335205078125">
        <ele>1580.5999755859375</ele>
        <time>2021-06-28T19:30:05.000Z</time>
        <extensions>
          <ns3:TrackPointExtension>
            <ns3:atemp>36.0</ns3:atemp>
            <ns3:hr>92</ns3:hr>
          </ns3:TrackPointExtension>
        </extensions>
      </trkpt>
      <trkpt lat="36.78874525241553783416748046875" lon="-118.5619125701487064361572265625">
        <ele>1581.199951171875</ele>
        <time>2021-06-28T19:30:10.000Z</time>
        <extensions>
          <ns3:TrackPointExtension>
            <ns3:atemp>36.0</ns3:atemp>
            <ns3:hr>92</ns3:hr>
          </ns3:TrackPointExtension>
        </extensions>
      </trkpt>
      <trkpt lat="36.788734607398509979248046875" lon="-118.5619377158582210540771484375">
        <ele>1581.800048828125</ele>
        <time>2021-06-28T19:30:13.000Z</time>
        <extensions>
          <ns3:TrackPointExtension>
            <ns3:atemp>36.0</ns3:atemp>
            <ns3:hr>93</ns3:hr>
          </ns3:TrackPointExtension>
        </extensions>
      </trkpt>
      <trkpt lat="36.788726560771465301513671875" lon="-118.56198205612599849700927734375">
        <ele>1581.5999755859375</ele>
        <time>2021-06-28T19:30:15.000Z</time>
        <extensions>
          <ns3:TrackPointExtension>
            <ns3:atemp>36.0</ns3:atemp>
            <ns3:hr>96</ns3:hr>
          </ns3:TrackPointExtension>
        </extensions>
      </trkpt>
      <trkpt lat="36.7887113057076930999755859375" lon="-118.56203083880245685577392578125">
        <ele>1581.5999755859375</ele>
        <time>2021-06-28T19:30:18.000Z</time>
        <extensions>
          <ns3:TrackPointExtension>
            <ns3:atemp>36.0</ns3:atemp>
            <ns3:hr>95</ns3:hr>
          </ns3:TrackPointExtension>
        </extensions>
      </trkpt>
      <trkpt lat="36.7886972241103649139404296875" lon="-118.56210560537874698638916015625">
        <ele>1581.199951171875</ele>
        <time>2021-06-28T19:30:24.000Z</time>
        <extensions>
          <ns3:TrackPointExtension>
            <ns3:atemp>36.0</ns3:atemp>
            <ns3:hr>91</ns3:hr>
          </ns3:TrackPointExtension>
        </extensions>
      </trkpt>
      <trkpt lat="36.78868792019784450531005859375" lon="-118.56212823651731014251708984375">
        <ele>1580.4000244140625</ele>
        <time>2021-06-28T19:30:27.000Z</time>
        <extensions>
          <ns3:TrackPointExtension>
            <ns3:atemp>37.0</ns3:atemp>
            <ns3:hr>94</ns3:hr>
          </ns3:TrackPointExtension>
        </extensions>
      </trkpt>
      <trkpt lat="36.78870133124291896820068359375" lon="-118.5622280649840831756591796875">
        <ele>1580.4000244140625</ele>
        <time>2021-06-28T19:30:32.000Z</time>
        <extensions>
          <ns3:TrackPointExtension>
            <ns3:atemp>37.0</ns3:atemp>
            <ns3:hr>95</ns3:hr>
          </ns3:TrackPointExtension>
        </extensions>
      </trkpt>
      <trkpt lat="36.7886999063193798065185546875" lon="-118.56226922012865543365478515625">
        <ele>1580.199951171875</ele>
        <time>2021-06-28T19:30:34.000Z</time>
        <extensions>
          <ns3:TrackPointExtension>
            <ns3:atemp>37.0</ns3:atemp>
            <ns3:hr>96</ns3:hr>
          </ns3:TrackPointExtension>
        </extensions>
      </trkpt>
      <trkpt lat="36.78868071176111698150634765625" lon="-118.56239461340010166168212890625">
        <ele>1581.199951171875</ele>
        <time>2021-06-28T19:30:42.000Z</time>
        <extensions>
          <ns3:TrackPointExtension>
            <ns3:atemp>36.0</ns3:atemp>
            <ns3:hr>94</ns3:hr>
          </ns3:TrackPointExtension>
        </extensions>
      </trkpt>
      <trkpt lat="36.78867995738983154296875" lon="-118.56247700750827789306640625">
        <ele>1580.800048828125</ele>
        <time>2021-06-28T19:30:47.000Z</time>
        <extensions>
          <ns3:TrackPointExtension>
            <ns3:atemp>36.0</ns3:atemp>
            <ns3:hr>95</ns3:hr>
          </ns3:TrackPointExtension>
        </extensions>
      </trkpt>
      <trkpt lat="36.7886839807033538818359375" lon="-118.56253760866820812225341796875">
        <ele>1580.5999755859375</ele>
        <time>2021-06-28T19:30:50.000Z</time>
        <extensions>
          <ns3:TrackPointExtension>
            <ns3:atemp>36.0</ns3:atemp>
            <ns3:hr>95</ns3:hr>
          </ns3:TrackPointExtension>
        </extensions>
      </trkpt>
      <trkpt lat="36.78868205286562442779541015625" lon="-118.56259007938206195831298828125">
        <ele>1581.199951171875</ele>
        <time>2021-06-28T19:30:53.000Z</time>
        <extensions>
          <ns3:TrackPointExtension>
            <ns3:atemp>36.0</ns3:atemp>
            <ns3:hr>98</ns3:hr>
          </ns3:TrackPointExtension>
        </extensions>
      </trkpt>
      <trkpt lat="36.78867819719016551971435546875" lon="-118.56264590285718441009521484375">
        <ele>1580.800048828125</ele>
        <time>2021-06-28T19:30:56.000Z</time>
        <extensions>
          <ns3:TrackPointExtension>
            <ns3:atemp>36.0</ns3:atemp>
            <ns3:hr>94</ns3:hr>
          </ns3:TrackPointExtension>
        </extensions>
      </trkpt>
      <trkpt lat="36.78867258131504058837890625" lon="-118.5626612417399883270263671875">
        <ele>1580.199951171875</ele>
        <time>2021-06-28T19:30:57.000Z</time>
        <extensions>
          <ns3:TrackPointExtension>
            <ns3:atemp>36.0</ns3:atemp>
            <ns3:hr>97</ns3:hr>
          </ns3:TrackPointExtension>
        </extensions>
      </trkpt>
      <trkpt lat="36.7886737547814846038818359375" lon="-118.56268328614532947540283203125">
        <ele>1580</ele>
        <time>2021-06-28T19:30:58.000Z</time>
        <extensions>
          <ns3:TrackPointExtension>
            <ns3:atemp>36.0</ns3:atemp>
            <ns3:hr>96</ns3:hr>
          </ns3:TrackPointExtension>
        </extensions>
      </trkpt>
      <trkpt lat="36.788684315979480743408203125" lon="-118.562724106013774871826171875">
        <ele>1580</ele>
        <time>2021-06-28T19:31:00.000Z</time>
        <extensions>
          <ns3:TrackPointExtension>
            <ns3:atemp>36.0</ns3:atemp>
            <ns3:hr>95</ns3:hr>
          </ns3:TrackPointExtension>
        </extensions>
      </trkpt>
      <trkpt lat="36.78868037648499011993408203125" lon="-118.562770374119281768798828125">
        <ele>1579.199951171875</ele>
        <time>2021-06-28T19:31:03.000Z</time>
        <extensions>
          <ns3:TrackPointExtension>
            <ns3:atemp>36.0</ns3:atemp>
            <ns3:hr>95</ns3:hr>
          </ns3:TrackPointExtension>
        </extensions>
      </trkpt>
      <trkpt lat="36.78868188522756099700927734375" lon="-118.56277967803180217742919921875">
        <ele>1579.5999755859375</ele>
        <time>2021-06-28T19:31:04.000Z</time>
        <extensions>
          <ns3:TrackPointExtension>
            <ns3:atemp>36.0</ns3:atemp>
            <ns3:hr>96</ns3:hr>
          </ns3:TrackPointExtension>
        </extensions>
      </trkpt>
      <trkpt lat="36.788693368434906005859375" lon="-118.56282033026218414306640625">
        <ele>1580</ele>
        <time>2021-06-28T19:31:06.000Z</time>
        <extensions>
          <ns3:TrackPointExtension>
            <ns3:atemp>36.0</ns3:atemp>
            <ns3:hr>100</ns3:hr>
          </ns3:TrackPointExtension>
        </extensions>
      </trkpt>
      <trkpt lat="36.78869538009166717529296875" lon="-118.56290993280708789825439453125">
        <ele>1580.4000244140625</ele>
        <time>2021-06-28T19:31:11.000Z</time>
        <extensions>
          <ns3:TrackPointExtension>
            <ns3:atemp>36.0</ns3:atemp>
            <ns3:hr>101</ns3:hr>
          </ns3:TrackPointExtension>
        </extensions>
      </trkpt>
      <trkpt lat="36.7886992357671260833740234375" lon="-118.5629344917833805084228515625">
        <ele>1580.199951171875</ele>
        <time>2021-06-28T19:31:12.000Z</time>
        <extensions>
          <ns3:TrackPointExtension>
            <ns3:atemp>36.0</ns3:atemp>
            <ns3:hr>100</ns3:hr>
          </ns3:TrackPointExtension>
        </extensions>
      </trkpt>
      <trkpt lat="36.78873301483690738677978515625" lon="-118.56304404325783252716064453125">
        <ele>1579.199951171875</ele>
        <time>2021-06-28T19:31:18.000Z</time>
        <extensions>
          <ns3:TrackPointExtension>
            <ns3:atemp>36.0</ns3:atemp>
            <ns3:hr>100</ns3:hr>
          </ns3:TrackPointExtension>
        </extensions>
      </trkpt>
      <trkpt lat="36.7887351103127002716064453125" lon="-118.56306751258671283721923828125">
        <ele>1579.199951171875</ele>
        <time>2021-06-28T19:31:19.000Z</time>
        <extensions>
          <ns3:TrackPointExtension>
            <ns3:atemp>36.0</ns3:atemp>
            <ns3:hr>99</ns3:hr>
          </ns3:TrackPointExtension>
        </extensions>
      </trkpt>
      <trkpt lat="36.78875832818448543548583984375" lon="-118.56310321949422359466552734375">
        <ele>1579.4000244140625</ele>
        <time>2021-06-28T19:31:22.000Z</time>
        <extensions>
          <ns3:TrackPointExtension>
            <ns3:atemp>36.0</ns3:atemp>
            <ns3:hr>96</ns3:hr>
          </ns3:TrackPointExtension>
        </extensions>
      </trkpt>
      <trkpt lat="36.78876821883022785186767578125" lon="-118.563147224485874176025390625">
        <ele>1579</ele>
        <time>2021-06-28T19:31:25.000Z</time>
        <extensions>
          <ns3:TrackPointExtension>
            <ns3:atemp>36.0</ns3:atemp>
            <ns3:hr>93</ns3:hr>
          </ns3:TrackPointExtension>
        </extensions>
      </trkpt>
      <trkpt lat="36.7887703143060207366943359375" lon="-118.5631862841546535491943359375">
        <ele>1579</ele>
        <time>2021-06-28T19:31:27.000Z</time>
        <extensions>
          <ns3:TrackPointExtension>
            <ns3:atemp>37.0</ns3:atemp>
            <ns3:hr>92</ns3:hr>
          </ns3:TrackPointExtension>
        </extensions>
      </trkpt>
      <trkpt lat="36.78879168815910816192626953125" lon="-118.56329700909554958343505859375">
        <ele>1578.5999755859375</ele>
        <time>2021-06-28T19:31:34.000Z</time>
        <extensions>
          <ns3:TrackPointExtension>
            <ns3:atemp>36.0</ns3:atemp>
            <ns3:hr>93</ns3:hr>
          </ns3:TrackPointExtension>
        </extensions>
      </trkpt>
      <trkpt lat="36.78879470564424991607666015625" lon="-118.5633145272731781005859375">
        <ele>1578.5999755859375</ele>
        <time>2021-06-28T19:31:35.000Z</time>
        <extensions>
          <ns3:TrackPointExtension>
            <ns3:atemp>36.0</ns3:atemp>
            <ns3:hr>93</ns3:hr>
          </ns3:TrackPointExtension>
        </extensions>
      </trkpt>
      <trkpt lat="36.78880727849900722503662109375" lon="-118.56334378011524677276611328125">
        <ele>1578.5999755859375</ele>
        <time>2021-06-28T19:31:37.000Z</time>
        <extensions>
          <ns3:TrackPointExtension>
            <ns3:atemp>36.0</ns3:atemp>
            <ns3:hr>94</ns3:hr>
          </ns3:TrackPointExtension>
        </extensions>
      </trkpt>
      <trkpt lat="36.78885002620518207550048828125" lon="-118.56339306570589542388916015625">
        <ele>1579</ele>
        <time>2021-06-28T19:31:42.000Z</time>
        <extensions>
          <ns3:TrackPointExtension>
            <ns3:atemp>36.0</ns3:atemp>
            <ns3:hr>94</ns3:hr>
          </ns3:TrackPointExtension>
        </extensions>
      </trkpt>
      <trkpt lat="36.78885723464190959930419921875" lon="-118.56341385282576084136962890625">
        <ele>1578.800048828125</ele>
        <time>2021-06-28T19:31:44.000Z</time>
        <extensions>
          <ns3:TrackPointExtension>
            <ns3:atemp>36.0</ns3:atemp>
            <ns3:hr>94</ns3:hr>
          </ns3:TrackPointExtension>
        </extensions>
      </trkpt>
      <trkpt lat="36.78887818939983844757080078125" lon="-118.56346950866281986236572265625">
        <ele>1578.800048828125</ele>
        <time>2021-06-28T19:31:48.000Z</time>
        <extensions>
          <ns3:TrackPointExtension>
            <ns3:atemp>36.0</ns3:atemp>
            <ns3:hr>95</ns3:hr>
          </ns3:TrackPointExtension>
        </extensions>
      </trkpt>
      <trkpt lat="36.78888774476945400238037109375" lon="-118.56360009871423244476318359375">
        <ele>1578.4000244140625</ele>
        <time>2021-06-28T19:31:54.000Z</time>
        <extensions>
          <ns3:TrackPointExtension>
            <ns3:atemp>36.0</ns3:atemp>
            <ns3:hr>96</ns3:hr>
          </ns3:TrackPointExtension>
        </extensions>
      </trkpt>
      <trkpt lat="36.788900233805179595947265625" lon="-118.56363731436431407928466796875">
        <ele>1578.199951171875</ele>
        <time>2021-06-28T19:31:56.000Z</time>
        <extensions>
          <ns3:TrackPointExtension>
            <ns3:atemp>36.0</ns3:atemp>
            <ns3:hr>98</ns3:hr>
          </ns3:TrackPointExtension>
        </extensions>
      </trkpt>
      <trkpt lat="36.7889413051307201385498046875" lon="-118.56373186223208904266357421875">
        <ele>1578.4000244140625</ele>
        <time>2021-06-28T19:32:02.000Z</time>
        <extensions>
          <ns3:TrackPointExtension>
            <ns3:atemp>36.0</ns3:atemp>
            <ns3:hr>96</ns3:hr>
          </ns3:TrackPointExtension>
        </extensions>
      </trkpt>
      <trkpt lat="36.7889495193958282470703125" lon="-118.56373890303075313568115234375">
        <ele>1578.4000244140625</ele>
        <time>2021-06-28T19:32:03.000Z</time>
        <extensions>
          <ns3:TrackPointExtension>
            <ns3:atemp>36.0</ns3:atemp>
            <ns3:hr>98</ns3:hr>
          </ns3:TrackPointExtension>
        </extensions>
      </trkpt>
      <trkpt lat="36.78896200843155384063720703125" lon="-118.56376086361706256866455078125">
        <ele>1578.199951171875</ele>
        <time>2021-06-28T19:32:05.000Z</time>
        <extensions>
          <ns3:TrackPointExtension>
            <ns3:atemp>36.0</ns3:atemp>
            <ns3:hr>95</ns3:hr>
          </ns3:TrackPointExtension>
        </extensions>
      </trkpt>
      <trkpt lat="36.7889709770679473876953125" lon="-118.56376756913959980010986328125">
        <ele>1578</ele>
        <time>2021-06-28T19:32:06.000Z</time>
        <extensions>
          <ns3:TrackPointExtension>
            <ns3:atemp>36.0</ns3:atemp>
            <ns3:hr>96</ns3:hr>
          </ns3:TrackPointExtension>
        </extensions>
      </trkpt>
      <trkpt lat="36.78900760598480701446533203125" lon="-118.56380629353225231170654296875">
        <ele>1578</ele>
        <time>2021-06-28T19:32:10.000Z</time>
        <extensions>
          <ns3:TrackPointExtension>
            <ns3:atemp>36.0</ns3:atemp>
            <ns3:hr>97</ns3:hr>
          </ns3:TrackPointExtension>
        </extensions>
      </trkpt>
      <trkpt lat="36.789027638733386993408203125" lon="-118.56383009813725948333740234375">
        <ele>1578.199951171875</ele>
        <time>2021-06-28T19:32:12.000Z</time>
        <extensions>
          <ns3:TrackPointExtension>
            <ns3:atemp>36.0</ns3:atemp>
            <ns3:hr>98</ns3:hr>
          </ns3:TrackPointExtension>
        </extensions>
      </trkpt>
      <trkpt lat="36.78903493098914623260498046875" lon="-118.56384417973458766937255859375">
        <ele>1578.199951171875</ele>
        <time>2021-06-28T19:32:13.000Z</time>
        <extensions>
          <ns3:TrackPointExtension>
            <ns3:atemp>36.0</ns3:atemp>
            <ns3:hr>98</ns3:hr>
          </ns3:TrackPointExtension>
        </extensions>
      </trkpt>
      <trkpt lat="36.789034344255924224853515625" lon="-118.56391601264476776123046875">
        <ele>1578.4000244140625</ele>
        <time>2021-06-28T19:32:16.000Z</time>
        <extensions>
          <ns3:TrackPointExtension>
            <ns3:atemp>36.0</ns3:atemp>
            <ns3:hr>101</ns3:hr>
          </ns3:TrackPointExtension>
        </extensions>
      </trkpt>
      <trkpt lat="36.78903794847428798675537109375" lon="-118.5639091394841670989990234375">
        <ele>1578.4000244140625</ele>
        <time>2021-06-28T19:32:17.000Z</time>
        <extensions>
          <ns3:TrackPointExtension>
            <ns3:atemp>36.0</ns3:atemp>
            <ns3:hr>101</ns3:hr>
          </ns3:TrackPointExtension>
        </extensions>
      </trkpt>
      <trkpt lat="36.789056472480297088623046875" lon="-118.56395901180803775787353515625">
        <ele>1578.4000244140625</ele>
        <time>2021-06-28T19:32:20.000Z</time>
        <extensions>
          <ns3:TrackPointExtension>
            <ns3:atemp>36.0</ns3:atemp>
            <ns3:hr>100</ns3:hr>
          </ns3:TrackPointExtension>
        </extensions>
      </trkpt>
      <trkpt lat="36.7891139723360538482666015625" lon="-118.563998155295848846435546875">
        <ele>1578.4000244140625</ele>
        <time>2021-06-28T19:32:24.000Z</time>
        <extensions>
          <ns3:TrackPointExtension>
            <ns3:atemp>36.0</ns3:atemp>
            <ns3:hr>97</ns3:hr>
          </ns3:TrackPointExtension>
        </extensions>
      </trkpt>
      <trkpt lat="36.78912361152470111846923828125" lon="-118.56401265598833560943603515625">
        <ele>1578.5999755859375</ele>
        <time>2021-06-28T19:32:25.000Z</time>
        <extensions>
          <ns3:TrackPointExtension>
            <ns3:atemp>37.0</ns3:atemp>
            <ns3:hr>97</ns3:hr>
          </ns3:TrackPointExtension>
        </extensions>
      </trkpt>
      <trkpt lat="36.78917272947728633880615234375" lon="-118.564090020954608917236328125">
        <ele>1578.4000244140625</ele>
        <time>2021-06-28T19:32:31.000Z</time>
        <extensions>
          <ns3:TrackPointExtension>
            <ns3:atemp>37.0</ns3:atemp>
            <ns3:hr>100</ns3:hr>
          </ns3:TrackPointExtension>
        </extensions>
      </trkpt>
      <trkpt lat="36.7891957797110080718994140625" lon="-118.56413461267948150634765625">
        <ele>1578.4000244140625</ele>
        <time>2021-06-28T19:32:34.000Z</time>
        <extensions>
          <ns3:TrackPointExtension>
            <ns3:atemp>37.0</ns3:atemp>
            <ns3:hr>96</ns3:hr>
          </ns3:TrackPointExtension>
        </extensions>
      </trkpt>
      <trkpt lat="36.78919988684356212615966796875" lon="-118.56415330432355403900146484375">
        <ele>1578.4000244140625</ele>
        <time>2021-06-28T19:32:35.000Z</time>
        <extensions>
          <ns3:TrackPointExtension>
            <ns3:atemp>37.0</ns3:atemp>
            <ns3:hr>100</ns3:hr>
          </ns3:TrackPointExtension>
        </extensions>
      </trkpt>
      <trkpt lat="36.7892366833984851837158203125" lon="-118.5642571561038494110107421875">
        <ele>1578.5999755859375</ele>
        <time>2021-06-28T19:32:42.000Z</time>
        <extensions>
          <ns3:TrackPointExtension>
            <ns3:atemp>37.0</ns3:atemp>
            <ns3:hr>100</ns3:hr>
          </ns3:TrackPointExtension>
        </extensions>
      </trkpt>
      <trkpt lat="36.7892661876976490020751953125" lon="-118.564304597675800323486328125">
        <ele>1578.199951171875</ele>
        <time>2021-06-28T19:32:46.000Z</time>
        <extensions>
          <ns3:TrackPointExtension>
            <ns3:atemp>37.0</ns3:atemp>
            <ns3:hr>103</ns3:hr>
          </ns3:TrackPointExtension>
        </extensions>
      </trkpt>
      <trkpt lat="36.78928823210299015045166015625" lon="-118.56435078196227550506591796875">
        <ele>1578.5999755859375</ele>
        <time>2021-06-28T19:32:49.000Z</time>
        <extensions>
          <ns3:TrackPointExtension>
            <ns3:atemp>37.0</ns3:atemp>
            <ns3:hr>100</ns3:hr>
          </ns3:TrackPointExtension>
        </extensions>
      </trkpt>
      <trkpt lat="36.78931295871734619140625" lon="-118.56437257491052150726318359375">
        <ele>1578.4000244140625</ele>
        <time>2021-06-28T19:32:51.000Z</time>
        <extensions>
          <ns3:TrackPointExtension>
            <ns3:atemp>37.0</ns3:atemp>
            <ns3:hr>103</ns3:hr>
          </ns3:TrackPointExtension>
        </extensions>
      </trkpt>
      <trkpt lat="36.7893221788108348846435546875" lon="-118.56438145972788333892822265625">
        <ele>1578.4000244140625</ele>
        <time>2021-06-28T19:32:52.000Z</time>
        <extensions>
          <ns3:TrackPointExtension>
            <ns3:atemp>37.0</ns3:atemp>
            <ns3:hr>100</ns3:hr>
          </ns3:TrackPointExtension>
        </extensions>
      </trkpt>
      <trkpt lat="36.7893697880208492279052734375" lon="-118.5644412226974964141845703125">
        <ele>1577.5999755859375</ele>
        <time>2021-06-28T19:32:58.000Z</time>
        <extensions>
          <ns3:TrackPointExtension>
            <ns3:atemp>37.0</ns3:atemp>
            <ns3:hr>98</ns3:hr>
          </ns3:TrackPointExtension>
        </extensions>
      </trkpt>
      <trkpt lat="36.789410524070262908935546875" lon="-118.56451573781669139862060546875">
        <ele>1577.199951171875</ele>
        <time>2021-06-28T19:33:04.000Z</time>
        <extensions>
          <ns3:TrackPointExtension>
            <ns3:atemp>37.0</ns3:atemp>
            <ns3:hr>96</ns3:hr>
          </ns3:TrackPointExtension>
        </extensions>
      </trkpt>
      <trkpt lat="36.789431311190128326416015625" lon="-118.56453602202236652374267578125">
        <ele>1577.199951171875</ele>
        <time>2021-06-28T19:33:06.000Z</time>
        <extensions>
          <ns3:TrackPointExtension>
            <ns3:atemp>37.0</ns3:atemp>
            <ns3:hr>96</ns3:hr>
          </ns3:TrackPointExtension>
        </extensions>
      </trkpt>
      <trkpt lat="36.78943944163620471954345703125" lon="-118.5645475052297115325927734375">
        <ele>1577.199951171875</ele>
        <time>2021-06-28T19:33:07.000Z</time>
        <extensions>
          <ns3:TrackPointExtension>
            <ns3:atemp>37.0</ns3:atemp>
            <ns3:hr>96</ns3:hr>
          </ns3:TrackPointExtension>
        </extensions>
      </trkpt>
      <trkpt lat="36.7894851230084896087646484375" lon="-118.5646306537091732025146484375">
        <ele>1577</ele>
        <time>2021-06-28T19:33:12.000Z</time>
        <extensions>
          <ns3:TrackPointExtension>
            <ns3:atemp>37.0</ns3:atemp>
            <ns3:hr>94</ns3:hr>
          </ns3:TrackPointExtension>
        </extensions>
      </trkpt>
      <trkpt lat="36.78948570974171161651611328125" lon="-118.56466124765574932098388671875">
        <ele>1576</ele>
        <time>2021-06-28T19:33:14.000Z</time>
        <extensions>
          <ns3:TrackPointExtension>
            <ns3:atemp>37.0</ns3:atemp>
            <ns3:hr>94</ns3:hr>
          </ns3:TrackPointExtension>
        </extensions>
      </trkpt>
      <trkpt lat="36.7894886434078216552734375" lon="-118.5646708868443965911865234375">
        <ele>1576</ele>
        <time>2021-06-28T19:33:15.000Z</time>
        <extensions>
          <ns3:TrackPointExtension>
            <ns3:atemp>37.0</ns3:atemp>
            <ns3:hr>94</ns3:hr>
          </ns3:TrackPointExtension>
        </extensions>
      </trkpt>
      <trkpt lat="36.78949526511132717132568359375" lon="-118.56468253768980503082275390625">
        <ele>1576</ele>
        <time>2021-06-28T19:33:16.000Z</time>
        <extensions>
          <ns3:TrackPointExtension>
            <ns3:atemp>37.0</ns3:atemp>
            <ns3:hr>94</ns3:hr>
          </ns3:TrackPointExtension>
        </extensions>
      </trkpt>
      <trkpt lat="36.78951102308928966522216796875" lon="-118.56472914107143878936767578125">
        <ele>1576</ele>
        <time>2021-06-28T19:33:19.000Z</time>
        <extensions>
          <ns3:TrackPointExtension>
            <ns3:atemp>37.0</ns3:atemp>
            <ns3:hr>91</ns3:hr>
          </ns3:TrackPointExtension>
        </extensions>
      </trkpt>
      <trkpt lat="36.789530217647552490234375" lon="-118.5647540353238582611083984375">
        <ele>1576</ele>
        <time>2021-06-28T19:33:21.000Z</time>
        <extensions>
          <ns3:TrackPointExtension>
            <ns3:atemp>37.0</ns3:atemp>
            <ns3:hr>89</ns3:hr>
          </ns3:TrackPointExtension>
        </extensions>
      </trkpt>
      <trkpt lat="36.789542622864246368408203125" lon="-118.56478211469948291778564453125">
        <ele>1576.4000244140625</ele>
        <time>2021-06-28T19:33:23.000Z</time>
        <extensions>
          <ns3:TrackPointExtension>
            <ns3:atemp>37.0</ns3:atemp>
            <ns3:hr>86</ns3:hr>
          </ns3:TrackPointExtension>
        </extensions>
      </trkpt>
      <trkpt lat="36.78958126343786716461181640625" lon="-118.5648713819682598114013671875">
        <ele>1576</ele>
        <time>2021-06-28T19:33:29.000Z</time>
        <extensions>
          <ns3:TrackPointExtension>
            <ns3:atemp>37.0</ns3:atemp>
            <ns3:hr>88</ns3:hr>
          </ns3:TrackPointExtension>
        </extensions>
      </trkpt>
      <trkpt lat="36.7896095104515552520751953125" lon="-118.56492586433887481689453125">
        <ele>1576</ele>
        <time>2021-06-28T19:33:33.000Z</time>
        <extensions>
          <ns3:TrackPointExtension>
            <ns3:atemp>37.0</ns3:atemp>
            <ns3:hr>88</ns3:hr>
          </ns3:TrackPointExtension>
        </extensions>
      </trkpt>
      <trkpt lat="36.7896447144448757171630859375" lon="-118.56497137807309627532958984375">
        <ele>1576</ele>
        <time>2021-06-28T19:33:37.000Z</time>
        <extensions>
          <ns3:TrackPointExtension>
            <ns3:atemp>37.0</ns3:atemp>
            <ns3:hr>88</ns3:hr>
          </ns3:TrackPointExtension>
        </extensions>
      </trkpt>
      <trkpt lat="36.78965670056641101837158203125" lon="-118.56499820016324520111083984375">
        <ele>1576</ele>
        <time>2021-06-28T19:33:39.000Z</time>
        <extensions>
          <ns3:TrackPointExtension>
            <ns3:atemp>37.0</ns3:atemp>
            <ns3:hr>88</ns3:hr>
          </ns3:TrackPointExtension>
        </extensions>
      </trkpt>
      <trkpt lat="36.7896769009530544281005859375" lon="-118.56504078023135662078857421875">
        <ele>1576</ele>
        <time>2021-06-28T19:33:42.000Z</time>
        <extensions>
          <ns3:TrackPointExtension>
            <ns3:atemp>36.0</ns3:atemp>
            <ns3:hr>88</ns3:hr>
          </ns3:TrackPointExtension>
        </extensions>
      </trkpt>
      <trkpt lat="36.78968050517141819000244140625" lon="-118.56505167670547962188720703125">
        <ele>1576</ele>
        <time>2021-06-28T19:33:43.000Z</time>
        <extensions>
          <ns3:TrackPointExtension>
            <ns3:atemp>37.0</ns3:atemp>
            <ns3:hr>88</ns3:hr>
          </ns3:TrackPointExtension>
        </extensions>
      </trkpt>
      <trkpt lat="36.78968846797943115234375" lon="-118.56507229618728160858154296875">
        <ele>1576.199951171875</ele>
        <time>2021-06-28T19:33:46.000Z</time>
        <extensions>
          <ns3:TrackPointExtension>
            <ns3:atemp>36.0</ns3:atemp>
            <ns3:hr>89</ns3:hr>
          </ns3:TrackPointExtension>
        </extensions>
      </trkpt>
      <trkpt lat="36.78969182074069976806640625" lon="-118.56509241275489330291748046875">
        <ele>1576.199951171875</ele>
        <time>2021-06-28T19:33:48.000Z</time>
        <extensions>
          <ns3:TrackPointExtension>
            <ns3:atemp>36.0</ns3:atemp>
            <ns3:hr>89</ns3:hr>
          </ns3:TrackPointExtension>
        </extensions>
      </trkpt>
      <trkpt lat="36.7896906472742557525634765625" lon="-118.56511093676090240478515625">
        <ele>1576.199951171875</ele>
        <time>2021-06-28T19:33:52.000Z</time>
        <extensions>
          <ns3:TrackPointExtension>
            <ns3:atemp>36.0</ns3:atemp>
            <ns3:hr>88</ns3:hr>
          </ns3:TrackPointExtension>
        </extensions>
      </trkpt>
      <trkpt lat="36.78969341330230236053466796875" lon="-118.565109930932521820068359375">
        <ele>1576.199951171875</ele>
        <time>2021-06-28T19:33:53.000Z</time>
        <extensions>
          <ns3:TrackPointExtension>
            <ns3:atemp>37.0</ns3:atemp>
            <ns3:hr>88</ns3:hr>
          </ns3:TrackPointExtension>
        </extensions>
      </trkpt>
      <trkpt lat="36.78971554152667522430419921875" lon="-118.56507430784404277801513671875">
        <ele>1576.199951171875</ele>
        <time>2021-06-28T19:33:56.000Z</time>
        <extensions>
          <ns3:TrackPointExtension>
            <ns3:atemp>36.0</ns3:atemp>
            <ns3:hr>87</ns3:hr>
          </ns3:TrackPointExtension>
        </extensions>
      </trkpt>
      <trkpt lat="36.7897141166031360626220703125" lon="-118.56505737639963626861572265625">
        <ele>1576.199951171875</ele>
        <time>2021-06-28T19:33:58.000Z</time>
        <extensions>
          <ns3:TrackPointExtension>
            <ns3:atemp>36.0</ns3:atemp>
            <ns3:hr>87</ns3:hr>
          </ns3:TrackPointExtension>
        </extensions>
      </trkpt>
      <trkpt lat="36.78971839137375354766845703125" lon="-118.5650487430393695831298828125">
        <ele>1575.800048828125</ele>
        <time>2021-06-28T19:34:01.000Z</time>
        <extensions>
          <ns3:TrackPointExtension>
            <ns3:atemp>36.0</ns3:atemp>
            <ns3:hr>88</ns3:hr>
          </ns3:TrackPointExtension>
        </extensions>
      </trkpt>
      <trkpt lat="36.78971772082149982452392578125" lon="-118.5650487430393695831298828125">
        <ele>1575.800048828125</ele>
        <time>2021-06-28T19:34:10.000Z</time>
        <extensions>
          <ns3:TrackPointExtension>
            <ns3:atemp>36.0</ns3:atemp>
            <ns3:hr>89</ns3:hr>
          </ns3:TrackPointExtension>
        </extensions>
      </trkpt>
      <trkpt lat="36.789717637002468109130859375" lon="-118.565056286752223968505859375">
        <ele>1575.800048828125</ele>
        <time>2021-06-28T19:34:30.000Z</time>
        <extensions>
          <ns3:TrackPointExtension>
            <ns3:atemp>36.0</ns3:atemp>
            <ns3:hr>85</ns3:hr>
          </ns3:TrackPointExtension>
        </extensions>
      </trkpt>
      <trkpt lat="36.78971772082149982452392578125" lon="-118.56505653820931911468505859375">
        <ele>1575.800048828125</ele>
        <time>2021-06-28T19:34:31.000Z</time>
        <extensions>
          <ns3:TrackPointExtension>
            <ns3:atemp>36.0</ns3:atemp>
            <ns3:hr>88</ns3:hr>
          </ns3:TrackPointExtension>
        </extensions>
      </trkpt>
      <trkpt lat="36.7897204868495464324951171875" lon="-118.565058968961238861083984375">
        <ele>1575.800048828125</ele>
        <time>2021-06-28T19:34:34.000Z</time>
        <extensions>
          <ns3:TrackPointExtension>
            <ns3:atemp>36.0</ns3:atemp>
            <ns3:hr>92</ns3:hr>
          </ns3:TrackPointExtension>
        </extensions>
      </trkpt>
      <trkpt lat="36.7897446267306804656982421875" lon="-118.56506005860865116119384765625">
        <ele>1575.800048828125</ele>
        <time>2021-06-28T19:35:10.000Z</time>
        <extensions>
          <ns3:TrackPointExtension>
            <ns3:atemp>36.0</ns3:atemp>
            <ns3:hr>92</ns3:hr>
          </ns3:TrackPointExtension>
        </extensions>
      </trkpt>
      <trkpt lat="36.7897354066371917724609375" lon="-118.5650618188083171844482421875">
        <ele>1575.800048828125</ele>
        <time>2021-06-28T19:35:13.000Z</time>
        <extensions>
          <ns3:TrackPointExtension>
            <ns3:atemp>36.0</ns3:atemp>
            <ns3:hr>89</ns3:hr>
          </ns3:TrackPointExtension>
        </extensions>
      </trkpt>
      <trkpt lat="36.7897302098572254180908203125" lon="-118.56508956290781497955322265625">
        <ele>1575.800048828125</ele>
        <time>2021-06-28T19:35:23.000Z</time>
        <extensions>
          <ns3:TrackPointExtension>
            <ns3:atemp>36.0</ns3:atemp>
            <ns3:hr>92</ns3:hr>
          </ns3:TrackPointExtension>
        </extensions>
      </trkpt>
      <trkpt lat="36.78977253846824169158935546875" lon="-118.56516994535923004150390625">
        <ele>1575.800048828125</ele>
        <time>2021-06-28T19:35:28.000Z</time>
        <extensions>
          <ns3:TrackPointExtension>
            <ns3:atemp>35.0</ns3:atemp>
            <ns3:hr>93</ns3:hr>
          </ns3:TrackPointExtension>
        </extensions>
      </trkpt>
      <trkpt lat="36.78984872996807098388671875" lon="-118.56523373164236545562744140625">
        <ele>1575.800048828125</ele>
        <time>2021-06-28T19:35:35.000Z</time>
        <extensions>
          <ns3:TrackPointExtension>
            <ns3:atemp>35.0</ns3:atemp>
            <ns3:hr>96</ns3:hr>
          </ns3:TrackPointExtension>
        </extensions>
      </trkpt>
      <trkpt lat="36.78985987789928913116455078125" lon="-118.56523809023201465606689453125">
        <ele>1575.800048828125</ele>
        <time>2021-06-28T19:35:36.000Z</time>
        <extensions>
          <ns3:TrackPointExtension>
            <ns3:atemp>35.0</ns3:atemp>
            <ns3:hr>96</ns3:hr>
          </ns3:TrackPointExtension>
        </extensions>
      </trkpt>
      <trkpt lat="36.7899018712341785430908203125" lon="-118.56527589261531829833984375">
        <ele>1575.4000244140625</ele>
        <time>2021-06-28T19:35:41.000Z</time>
        <extensions>
          <ns3:TrackPointExtension>
            <ns3:atemp>36.0</ns3:atemp>
            <ns3:hr>99</ns3:hr>
          </ns3:TrackPointExtension>
        </extensions>
      </trkpt>
      <trkpt lat="36.789950318634510040283203125" lon="-118.5653146170079708099365234375">
        <ele>1575.199951171875</ele>
        <time>2021-06-28T19:35:46.000Z</time>
        <extensions>
          <ns3:TrackPointExtension>
            <ns3:atemp>36.0</ns3:atemp>
            <ns3:hr>98</ns3:hr>
          </ns3:TrackPointExtension>
        </extensions>
      </trkpt>
      <trkpt lat="36.78995911963284015655517578125" lon="-118.56532819569110870361328125">
        <ele>1574.800048828125</ele>
        <time>2021-06-28T19:35:47.000Z</time>
        <extensions>
          <ns3:TrackPointExtension>
            <ns3:atemp>36.0</ns3:atemp>
            <ns3:hr>98</ns3:hr>
          </ns3:TrackPointExtension>
        </extensions>
      </trkpt>
      <trkpt lat="36.79000136442482471466064453125" lon="-118.56538192369043827056884765625">
        <ele>1574.4000244140625</ele>
        <time>2021-06-28T19:35:53.000Z</time>
        <extensions>
          <ns3:TrackPointExtension>
            <ns3:atemp>36.0</ns3:atemp>
            <ns3:hr>98</ns3:hr>
          </ns3:TrackPointExtension>
        </extensions>
      </trkpt>
      <trkpt lat="36.79001812823116779327392578125" lon="-118.56539793312549591064453125">
        <ele>1574.4000244140625</ele>
        <time>2021-06-28T19:35:55.000Z</time>
        <extensions>
          <ns3:TrackPointExtension>
            <ns3:atemp>36.0</ns3:atemp>
            <ns3:hr>99</ns3:hr>
          </ns3:TrackPointExtension>
        </extensions>
      </trkpt>
      <trkpt lat="36.79004578851163387298583984375" lon="-118.5654440335929393768310546875">
        <ele>1574.4000244140625</ele>
        <time>2021-06-28T19:35:59.000Z</time>
        <extensions>
          <ns3:TrackPointExtension>
            <ns3:atemp>36.0</ns3:atemp>
            <ns3:hr>101</ns3:hr>
          </ns3:TrackPointExtension>
        </extensions>
      </trkpt>
      <trkpt lat="36.7901122570037841796875" lon="-118.56554838828742504119873046875">
        <ele>1574.199951171875</ele>
        <time>2021-06-28T19:36:08.000Z</time>
        <extensions>
          <ns3:TrackPointExtension>
            <ns3:atemp>36.0</ns3:atemp>
            <ns3:hr>99</ns3:hr>
          </ns3:TrackPointExtension>
        </extensions>
      </trkpt>
      <trkpt lat="36.79012591950595378875732421875" lon="-118.56557269580662250518798828125">
        <ele>1574.199951171875</ele>
        <time>2021-06-28T19:36:10.000Z</time>
        <extensions>
          <ns3:TrackPointExtension>
            <ns3:atemp>36.0</ns3:atemp>
            <ns3:hr>102</ns3:hr>
          </ns3:TrackPointExtension>
        </extensions>
      </trkpt>
      <trkpt lat="36.7901328764855861663818359375" lon="-118.56559549458324909210205078125">
        <ele>1574.199951171875</ele>
        <time>2021-06-28T19:36:12.000Z</time>
        <extensions>
          <ns3:TrackPointExtension>
            <ns3:atemp>36.0</ns3:atemp>
            <ns3:hr>98</ns3:hr>
          </ns3:TrackPointExtension>
        </extensions>
      </trkpt>
      <trkpt lat="36.79016162641346454620361328125" lon="-118.56566087342798709869384765625">
        <ele>1574</ele>
        <time>2021-06-28T19:36:18.000Z</time>
        <extensions>
          <ns3:TrackPointExtension>
            <ns3:atemp>36.0</ns3:atemp>
            <ns3:hr>96</ns3:hr>
          </ns3:TrackPointExtension>
        </extensions>
      </trkpt>
      <trkpt lat="36.7901700921356678009033203125" lon="-118.56566322036087512969970703125">
        <ele>1574</ele>
        <time>2021-06-28T19:36:19.000Z</time>
        <extensions>
          <ns3:TrackPointExtension>
            <ns3:atemp>36.0</ns3:atemp>
            <ns3:hr>96</ns3:hr>
          </ns3:TrackPointExtension>
        </extensions>
      </trkpt>
      <trkpt lat="36.7901767976582050323486328125" lon="-118.565668500959873199462890625">
        <ele>1574.199951171875</ele>
        <time>2021-06-28T19:36:20.000Z</time>
        <extensions>
          <ns3:TrackPointExtension>
            <ns3:atemp>36.0</ns3:atemp>
            <ns3:hr>94</ns3:hr>
          </ns3:TrackPointExtension>
        </extensions>
      </trkpt>
      <trkpt lat="36.79019046016037464141845703125" lon="-118.5656775534152984619140625">
        <ele>1574.199951171875</ele>
        <time>2021-06-28T19:36:22.000Z</time>
        <extensions>
          <ns3:TrackPointExtension>
            <ns3:atemp>36.0</ns3:atemp>
            <ns3:hr>96</ns3:hr>
          </ns3:TrackPointExtension>
        </extensions>
      </trkpt>
      <trkpt lat="36.7901967465877532958984375" lon="-118.56568618677556514739990234375">
        <ele>1574.199951171875</ele>
        <time>2021-06-28T19:36:23.000Z</time>
        <extensions>
          <ns3:TrackPointExtension>
            <ns3:atemp>36.0</ns3:atemp>
            <ns3:hr>95</ns3:hr>
          </ns3:TrackPointExtension>
        </extensions>
      </trkpt>
      <trkpt lat="36.79020370356738567352294921875" lon="-118.56569976545870304107666015625">
        <ele>1574</ele>
        <time>2021-06-28T19:36:24.000Z</time>
        <extensions>
          <ns3:TrackPointExtension>
            <ns3:atemp>36.0</ns3:atemp>
            <ns3:hr>95</ns3:hr>
          </ns3:TrackPointExtension>
        </extensions>
      </trkpt>
      <trkpt lat="36.79021778516471385955810546875" lon="-118.56572650372982025146484375">
        <ele>1573.800048828125</ele>
        <time>2021-06-28T19:36:26.000Z</time>
        <extensions>
          <ns3:TrackPointExtension>
            <ns3:atemp>36.0</ns3:atemp>
            <ns3:hr>95</ns3:hr>
          </ns3:TrackPointExtension>
        </extensions>
      </trkpt>
      <trkpt lat="36.79025265388190746307373046875" lon="-118.5657977499067783355712890625">
        <ele>1573.5999755859375</ele>
        <time>2021-06-28T19:36:31.000Z</time>
        <extensions>
          <ns3:TrackPointExtension>
            <ns3:atemp>36.0</ns3:atemp>
            <ns3:hr>94</ns3:hr>
          </ns3:TrackPointExtension>
        </extensions>
      </trkpt>
      <trkpt lat="36.79029506631195545196533203125" lon="-118.56588886119425296783447265625">
        <ele>1573</ele>
        <time>2021-06-28T19:36:39.000Z</time>
        <extensions>
          <ns3:TrackPointExtension>
            <ns3:atemp>36.0</ns3:atemp>
            <ns3:hr>92</ns3:hr>
          </ns3:TrackPointExtension>
        </extensions>
      </trkpt>
      <trkpt lat="36.790329180657863616943359375" lon="-118.56598910875618457794189453125">
        <ele>1573.199951171875</ele>
        <time>2021-06-28T19:36:46.000Z</time>
        <extensions>
          <ns3:TrackPointExtension>
            <ns3:atemp>36.0</ns3:atemp>
            <ns3:hr>92</ns3:hr>
          </ns3:TrackPointExtension>
        </extensions>
      </trkpt>
      <trkpt lat="36.7903782986104488372802734375" lon="-118.56611550785601139068603515625">
        <ele>1573.800048828125</ele>
        <time>2021-06-28T19:36:54.000Z</time>
        <extensions>
          <ns3:TrackPointExtension>
            <ns3:atemp>36.0</ns3:atemp>
            <ns3:hr>93</ns3:hr>
          </ns3:TrackPointExtension>
        </extensions>
      </trkpt>
      <trkpt lat="36.79041945375502109527587890625" lon="-118.56625230051577091217041015625">
        <ele>1573.800048828125</ele>
        <time>2021-06-28T19:37:02.000Z</time>
        <extensions>
          <ns3:TrackPointExtension>
            <ns3:atemp>37.0</ns3:atemp>
            <ns3:hr>91</ns3:hr>
          </ns3:TrackPointExtension>
        </extensions>
      </trkpt>
      <trkpt lat="36.79043102078139781951904296875" lon="-118.56628348119556903839111328125">
        <ele>1573.800048828125</ele>
        <time>2021-06-28T19:37:04.000Z</time>
        <extensions>
          <ns3:TrackPointExtension>
            <ns3:atemp>37.0</ns3:atemp>
            <ns3:hr>89</ns3:hr>
          </ns3:TrackPointExtension>
        </extensions>
      </trkpt>
      <trkpt lat="36.79043873213231563568115234375" lon="-118.56632991693913936614990234375">
        <ele>1573.800048828125</ele>
        <time>2021-06-28T19:37:07.000Z</time>
        <extensions>
          <ns3:TrackPointExtension>
            <ns3:atemp>37.0</ns3:atemp>
            <ns3:hr>88</ns3:hr>
          </ns3:TrackPointExtension>
        </extensions>
      </trkpt>
      <trkpt lat="36.7904393188655376434326171875" lon="-118.566348440945148468017578125">
        <ele>1573.5999755859375</ele>
        <time>2021-06-28T19:37:08.000Z</time>
        <extensions>
          <ns3:TrackPointExtension>
            <ns3:atemp>37.0</ns3:atemp>
            <ns3:hr>88</ns3:hr>
          </ns3:TrackPointExtension>
        </extensions>
      </trkpt>
      <trkpt lat="36.790453903377056121826171875" lon="-118.56639831326901912689208984375">
        <ele>1573.5999755859375</ele>
        <time>2021-06-28T19:37:11.000Z</time>
        <extensions>
          <ns3:TrackPointExtension>
            <ns3:atemp>37.0</ns3:atemp>
            <ns3:hr>85</ns3:hr>
          </ns3:TrackPointExtension>
        </extensions>
      </trkpt>
      <trkpt lat="36.7904986627399921417236328125" lon="-118.56649990193545818328857421875">
        <ele>1573.5999755859375</ele>
        <time>2021-06-28T19:37:17.000Z</time>
        <extensions>
          <ns3:TrackPointExtension>
            <ns3:atemp>37.0</ns3:atemp>
            <ns3:hr>85</ns3:hr>
          </ns3:TrackPointExtension>
        </extensions>
      </trkpt>
      <trkpt lat="36.79053269326686859130859375" lon="-118.56656980700790882110595703125">
        <ele>1573.5999755859375</ele>
        <time>2021-06-28T19:37:21.000Z</time>
        <extensions>
          <ns3:TrackPointExtension>
            <ns3:atemp>37.0</ns3:atemp>
            <ns3:hr>88</ns3:hr>
          </ns3:TrackPointExtension>
        </extensions>
      </trkpt>
      <trkpt lat="36.79055641405284404754638671875" lon="-118.56660920195281505584716796875">
        <ele>1573.4000244140625</ele>
        <time>2021-06-28T19:37:25.000Z</time>
        <extensions>
          <ns3:TrackPointExtension>
            <ns3:atemp>37.0</ns3:atemp>
            <ns3:hr>87</ns3:hr>
          </ns3:TrackPointExtension>
        </extensions>
      </trkpt>
      <trkpt lat="36.79056345485150814056396484375" lon="-118.56661976315081119537353515625">
        <ele>1573.4000244140625</ele>
        <time>2021-06-28T19:37:26.000Z</time>
        <extensions>
          <ns3:TrackPointExtension>
            <ns3:atemp>37.0</ns3:atemp>
            <ns3:hr>86</ns3:hr>
          </ns3:TrackPointExtension>
        </extensions>
      </trkpt>
      <trkpt lat="36.79060251452028751373291015625" lon="-118.56672026216983795166015625">
        <ele>1573.199951171875</ele>
        <time>2021-06-28T19:37:33.000Z</time>
        <extensions>
          <ns3:TrackPointExtension>
            <ns3:atemp>37.0</ns3:atemp>
            <ns3:hr>88</ns3:hr>
          </ns3:TrackPointExtension>
        </extensions>
      </trkpt>
      <trkpt lat="36.79060972295701503753662109375" lon="-118.56673912145197391510009765625">
        <ele>1573</ele>
        <time>2021-06-28T19:37:34.000Z</time>
        <extensions>
          <ns3:TrackPointExtension>
            <ns3:atemp>37.0</ns3:atemp>
            <ns3:hr>88</ns3:hr>
          </ns3:TrackPointExtension>
        </extensions>
      </trkpt>
      <trkpt lat="36.79063704796135425567626953125" lon="-118.566814474761486053466796875">
        <ele>1573</ele>
        <time>2021-06-28T19:37:39.000Z</time>
        <extensions>
          <ns3:TrackPointExtension>
            <ns3:atemp>37.0</ns3:atemp>
            <ns3:hr>88</ns3:hr>
          </ns3:TrackPointExtension>
        </extensions>
      </trkpt>
      <trkpt lat="36.79063620977103710174560546875" lon="-118.56684892438352108001708984375">
        <ele>1573</ele>
        <time>2021-06-28T19:37:41.000Z</time>
        <extensions>
          <ns3:TrackPointExtension>
            <ns3:atemp>37.0</ns3:atemp>
            <ns3:hr>87</ns3:hr>
          </ns3:TrackPointExtension>
        </extensions>
      </trkpt>
      <trkpt lat="36.79065406322479248046875" lon="-118.5668738186359405517578125">
        <ele>1572.800048828125</ele>
        <time>2021-06-28T19:37:44.000Z</time>
        <extensions>
          <ns3:TrackPointExtension>
            <ns3:atemp>37.0</ns3:atemp>
            <ns3:hr>87</ns3:hr>
          </ns3:TrackPointExtension>
        </extensions>
      </trkpt>
      <trkpt lat="36.7906713299453258514404296875" lon="-118.566889576613903045654296875">
        <ele>1572.800048828125</ele>
        <time>2021-06-28T19:37:46.000Z</time>
        <extensions>
          <ns3:TrackPointExtension>
            <ns3:atemp>37.0</ns3:atemp>
            <ns3:hr>89</ns3:hr>
          </ns3:TrackPointExtension>
        </extensions>
      </trkpt>
      <trkpt lat="36.79068021476268768310546875" lon="-118.56689997017383575439453125">
        <ele>1572.5999755859375</ele>
        <time>2021-06-28T19:37:47.000Z</time>
        <extensions>
          <ns3:TrackPointExtension>
            <ns3:atemp>37.0</ns3:atemp>
            <ns3:hr>88</ns3:hr>
          </ns3:TrackPointExtension>
        </extensions>
      </trkpt>
      <trkpt lat="36.7907465994358062744140625" lon="-118.5669829510152339935302734375">
        <ele>1572.4000244140625</ele>
        <time>2021-06-28T19:37:54.000Z</time>
        <extensions>
          <ns3:TrackPointExtension>
            <ns3:atemp>37.0</ns3:atemp>
            <ns3:hr>85</ns3:hr>
          </ns3:TrackPointExtension>
        </extensions>
      </trkpt>
      <trkpt lat="36.790764033794403076171875" lon="-118.567004911601543426513671875">
        <ele>1572.199951171875</ele>
        <time>2021-06-28T19:37:56.000Z</time>
        <extensions>
          <ns3:TrackPointExtension>
            <ns3:atemp>37.0</ns3:atemp>
            <ns3:hr>84</ns3:hr>
          </ns3:TrackPointExtension>
        </extensions>
      </trkpt>
      <trkpt lat="36.79077048785984516143798828125" lon="-118.56706752441823482513427734375">
        <ele>1571.800048828125</ele>
        <time>2021-06-28T19:37:59.000Z</time>
        <extensions>
          <ns3:TrackPointExtension>
            <ns3:atemp>37.0</ns3:atemp>
            <ns3:hr>83</ns3:hr>
          </ns3:TrackPointExtension>
        </extensions>
      </trkpt>
      <trkpt lat="36.79078322835266590118408203125" lon="-118.56709602288901805877685546875">
        <ele>1571.800048828125</ele>
        <time>2021-06-28T19:38:01.000Z</time>
        <extensions>
          <ns3:TrackPointExtension>
            <ns3:atemp>37.0</ns3:atemp>
            <ns3:hr>84</ns3:hr>
          </ns3:TrackPointExtension>
        </extensions>
      </trkpt>
      <trkpt lat="36.790802590548992156982421875" lon="-118.5671205818653106689453125">
        <ele>1571.800048828125</ele>
        <time>2021-06-28T19:38:03.000Z</time>
        <extensions>
          <ns3:TrackPointExtension>
            <ns3:atemp>37.0</ns3:atemp>
            <ns3:hr>83</ns3:hr>
          </ns3:TrackPointExtension>
        </extensions>
      </trkpt>
      <trkpt lat="36.79080896079540252685546875" lon="-118.56714078225195407867431640625">
        <ele>1571.800048828125</ele>
        <time>2021-06-28T19:38:04.000Z</time>
        <extensions>
          <ns3:TrackPointExtension>
            <ns3:atemp>37.0</ns3:atemp>
            <ns3:hr>83</ns3:hr>
          </ns3:TrackPointExtension>
        </extensions>
      </trkpt>
      <trkpt lat="36.7908245511353015899658203125" lon="-118.5671700350940227508544921875">
        <ele>1571.5999755859375</ele>
        <time>2021-06-28T19:38:06.000Z</time>
        <extensions>
          <ns3:TrackPointExtension>
            <ns3:atemp>37.0</ns3:atemp>
            <ns3:hr>83</ns3:hr>
          </ns3:TrackPointExtension>
        </extensions>
      </trkpt>
      <trkpt lat="36.79091314785182476043701171875" lon="-118.56723566539585590362548828125">
        <ele>1571.4000244140625</ele>
        <time>2021-06-28T19:38:13.000Z</time>
        <extensions>
          <ns3:TrackPointExtension>
            <ns3:atemp>37.0</ns3:atemp>
            <ns3:hr>84</ns3:hr>
          </ns3:TrackPointExtension>
        </extensions>
      </trkpt>
      <trkpt lat="36.79099210537970066070556640625" lon="-118.56735418550670146942138671875">
        <ele>1571.4000244140625</ele>
        <time>2021-06-28T19:38:22.000Z</time>
        <extensions>
          <ns3:TrackPointExtension>
            <ns3:atemp>37.0</ns3:atemp>
            <ns3:hr>82</ns3:hr>
          </ns3:TrackPointExtension>
        </extensions>
      </trkpt>
      <trkpt lat="36.79101238958537578582763671875" lon="-118.567366339266300201416015625">
        <ele>1571.4000244140625</ele>
        <time>2021-06-28T19:38:23.000Z</time>
        <extensions>
          <ns3:TrackPointExtension>
            <ns3:atemp>37.0</ns3:atemp>
            <ns3:hr>82</ns3:hr>
          </ns3:TrackPointExtension>
        </extensions>
      </trkpt>
      <trkpt lat="36.791054718196392059326171875" lon="-118.567433394491672515869140625">
        <ele>1571.4000244140625</ele>
        <time>2021-06-28T19:38:28.000Z</time>
        <extensions>
          <ns3:TrackPointExtension>
            <ns3:atemp>37.0</ns3:atemp>
            <ns3:hr>82</ns3:hr>
          </ns3:TrackPointExtension>
        </extensions>
      </trkpt>
      <trkpt lat="36.79113040678203105926513671875" lon="-118.5674862004816532135009765625">
        <ele>1571</ele>
        <time>2021-06-28T19:38:34.000Z</time>
        <extensions>
          <ns3:TrackPointExtension>
            <ns3:atemp>37.0</ns3:atemp>
            <ns3:hr>81</ns3:hr>
          </ns3:TrackPointExtension>
        </extensions>
      </trkpt>
      <trkpt lat="36.791168041527271270751953125" lon="-118.56750388629734516143798828125">
        <ele>1570.5999755859375</ele>
        <time>2021-06-28T19:38:37.000Z</time>
        <extensions>
          <ns3:TrackPointExtension>
            <ns3:atemp>37.0</ns3:atemp>
            <ns3:hr>82</ns3:hr>
          </ns3:TrackPointExtension>
        </extensions>
      </trkpt>
      <trkpt lat="36.79117717780172824859619140625" lon="-118.56750925071537494659423828125">
        <ele>1570.5999755859375</ele>
        <time>2021-06-28T19:38:38.000Z</time>
        <extensions>
          <ns3:TrackPointExtension>
            <ns3:atemp>37.0</ns3:atemp>
            <ns3:hr>82</ns3:hr>
          </ns3:TrackPointExtension>
        </extensions>
      </trkpt>
      <trkpt lat="36.791207604110240936279296875" lon="-118.5675421915948390960693359375">
        <ele>1570.4000244140625</ele>
        <time>2021-06-28T19:38:41.000Z</time>
        <extensions>
          <ns3:TrackPointExtension>
            <ns3:atemp>37.0</ns3:atemp>
            <ns3:hr>83</ns3:hr>
          </ns3:TrackPointExtension>
        </extensions>
      </trkpt>
      <trkpt lat="36.79121925495564937591552734375" lon="-118.5675847716629505157470703125">
        <ele>1570.5999755859375</ele>
        <time>2021-06-28T19:38:43.000Z</time>
        <extensions>
          <ns3:TrackPointExtension>
            <ns3:atemp>37.0</ns3:atemp>
            <ns3:hr>84</ns3:hr>
          </ns3:TrackPointExtension>
        </extensions>
      </trkpt>
      <trkpt lat="36.79126267321407794952392578125" lon="-118.5675985179841518402099609375">
        <ele>1570.4000244140625</ele>
        <time>2021-06-28T19:38:46.000Z</time>
        <extensions>
          <ns3:TrackPointExtension>
            <ns3:atemp>37.0</ns3:atemp>
            <ns3:hr>86</ns3:hr>
          </ns3:TrackPointExtension>
        </extensions>
      </trkpt>
      <trkpt lat="36.7912937700748443603515625" lon="-118.56765140779316425323486328125">
        <ele>1570.4000244140625</ele>
        <time>2021-06-28T19:38:50.000Z</time>
        <extensions>
          <ns3:TrackPointExtension>
            <ns3:atemp>37.0</ns3:atemp>
            <ns3:hr>86</ns3:hr>
          </ns3:TrackPointExtension>
        </extensions>
      </trkpt>
      <trkpt lat="36.7913562990725040435791015625" lon="-118.56769616715610027313232421875">
        <ele>1570.4000244140625</ele>
        <time>2021-06-28T19:38:56.000Z</time>
        <extensions>
          <ns3:TrackPointExtension>
            <ns3:atemp>37.0</ns3:atemp>
            <ns3:hr>83</ns3:hr>
          </ns3:TrackPointExtension>
        </extensions>
      </trkpt>
      <trkpt lat="36.79136686027050018310546875" lon="-118.56770706363022327423095703125">
        <ele>1570.4000244140625</ele>
        <time>2021-06-28T19:38:57.000Z</time>
        <extensions>
          <ns3:TrackPointExtension>
            <ns3:atemp>37.0</ns3:atemp>
            <ns3:hr>86</ns3:hr>
          </ns3:TrackPointExtension>
        </extensions>
      </trkpt>
      <trkpt lat="36.79138404317200183868408203125" lon="-118.56772550381720066070556640625">
        <ele>1570.199951171875</ele>
        <time>2021-06-28T19:38:59.000Z</time>
        <extensions>
          <ns3:TrackPointExtension>
            <ns3:atemp>37.0</ns3:atemp>
            <ns3:hr>84</ns3:hr>
          </ns3:TrackPointExtension>
        </extensions>
      </trkpt>
      <trkpt lat="36.79142050445079803466796875" lon="-118.567753918468952178955078125">
        <ele>1570.199951171875</ele>
        <time>2021-06-28T19:39:02.000Z</time>
        <extensions>
          <ns3:TrackPointExtension>
            <ns3:atemp>37.0</ns3:atemp>
            <ns3:hr>84</ns3:hr>
          </ns3:TrackPointExtension>
        </extensions>
      </trkpt>
      <trkpt lat="36.79144464433193206787109375" lon="-118.56777931563556194305419921875">
        <ele>1570.199951171875</ele>
        <time>2021-06-28T19:39:05.000Z</time>
        <extensions>
          <ns3:TrackPointExtension>
            <ns3:atemp>37.0</ns3:atemp>
            <ns3:hr>84</ns3:hr>
          </ns3:TrackPointExtension>
        </extensions>
      </trkpt>
      <trkpt lat="36.7915070056915283203125" lon="-118.56785877607762813568115234375">
        <ele>1570.199951171875</ele>
        <time>2021-06-28T19:39:12.000Z</time>
        <extensions>
          <ns3:TrackPointExtension>
            <ns3:atemp>37.0</ns3:atemp>
            <ns3:hr>87</ns3:hr>
          </ns3:TrackPointExtension>
        </extensions>
      </trkpt>
      <trkpt lat="36.7915085144340991973876953125" lon="-118.5678945668041706085205078125">
        <ele>1570</ele>
        <time>2021-06-28T19:39:14.000Z</time>
        <extensions>
          <ns3:TrackPointExtension>
            <ns3:atemp>37.0</ns3:atemp>
            <ns3:hr>87</ns3:hr>
          </ns3:TrackPointExtension>
        </extensions>
      </trkpt>
      <trkpt lat="36.7915252782404422760009765625" lon="-118.567907810211181640625">
        <ele>1570.199951171875</ele>
        <time>2021-06-28T19:39:16.000Z</time>
        <extensions>
          <ns3:TrackPointExtension>
            <ns3:atemp>37.0</ns3:atemp>
            <ns3:hr>87</ns3:hr>
          </ns3:TrackPointExtension>
        </extensions>
      </trkpt>
      <trkpt lat="36.79153718054294586181640625" lon="-118.56793538667261600494384765625">
        <ele>1570.199951171875</ele>
        <time>2021-06-28T19:39:18.000Z</time>
        <extensions>
          <ns3:TrackPointExtension>
            <ns3:atemp>37.0</ns3:atemp>
            <ns3:hr>87</ns3:hr>
          </ns3:TrackPointExtension>
        </extensions>
      </trkpt>
      <trkpt lat="36.79155369289219379425048828125" lon="-118.5679552517831325531005859375">
        <ele>1570.199951171875</ele>
        <time>2021-06-28T19:39:20.000Z</time>
        <extensions>
          <ns3:TrackPointExtension>
            <ns3:atemp>37.0</ns3:atemp>
            <ns3:hr>87</ns3:hr>
          </ns3:TrackPointExtension>
        </extensions>
      </trkpt>
      <trkpt lat="36.791604571044445037841796875" lon="-118.568048290908336639404296875">
        <ele>1570.5999755859375</ele>
        <time>2021-06-28T19:39:26.000Z</time>
        <extensions>
          <ns3:TrackPointExtension>
            <ns3:atemp>37.0</ns3:atemp>
            <ns3:hr>90</ns3:hr>
          </ns3:TrackPointExtension>
        </extensions>
      </trkpt>
      <trkpt lat="36.79160649888217449188232421875" lon="-118.5680658929049968719482421875">
        <ele>1570.5999755859375</ele>
        <time>2021-06-28T19:39:27.000Z</time>
        <extensions>
          <ns3:TrackPointExtension>
            <ns3:atemp>37.0</ns3:atemp>
            <ns3:hr>88</ns3:hr>
          </ns3:TrackPointExtension>
        </extensions>
      </trkpt>
      <trkpt lat="36.79167539812624454498291015625" lon="-118.56810151599347591400146484375">
        <ele>1570.5999755859375</ele>
        <time>2021-06-28T19:39:33.000Z</time>
        <extensions>
          <ns3:TrackPointExtension>
            <ns3:atemp>37.0</ns3:atemp>
            <ns3:hr>91</ns3:hr>
          </ns3:TrackPointExtension>
        </extensions>
      </trkpt>
      <trkpt lat="36.79168528877198696136474609375" lon="-118.56811073608696460723876953125">
        <ele>1570.5999755859375</ele>
        <time>2021-06-28T19:39:34.000Z</time>
        <extensions>
          <ns3:TrackPointExtension>
            <ns3:atemp>37.0</ns3:atemp>
            <ns3:hr>89</ns3:hr>
          </ns3:TrackPointExtension>
        </extensions>
      </trkpt>
      <trkpt lat="36.79170674644410610198974609375" lon="-118.56814594008028507232666015625">
        <ele>1570.800048828125</ele>
        <time>2021-06-28T19:39:37.000Z</time>
        <extensions>
          <ns3:TrackPointExtension>
            <ns3:atemp>37.0</ns3:atemp>
            <ns3:hr>92</ns3:hr>
          </ns3:TrackPointExtension>
        </extensions>
      </trkpt>
      <trkpt lat="36.79173122160136699676513671875" lon="-118.5681865923106670379638671875">
        <ele>1570.199951171875</ele>
        <time>2021-06-28T19:39:40.000Z</time>
        <extensions>
          <ns3:TrackPointExtension>
            <ns3:atemp>37.0</ns3:atemp>
            <ns3:hr>93</ns3:hr>
          </ns3:TrackPointExtension>
        </extensions>
      </trkpt>
      <trkpt lat="36.7917435429990291595458984375" lon="-118.56819438748061656951904296875">
        <ele>1570.199951171875</ele>
        <time>2021-06-28T19:39:41.000Z</time>
        <extensions>
          <ns3:TrackPointExtension>
            <ns3:atemp>37.0</ns3:atemp>
            <ns3:hr>94</ns3:hr>
          </ns3:TrackPointExtension>
        </extensions>
      </trkpt>
      <trkpt lat="36.79175418801605701446533203125" lon="-118.56820478104054927825927734375">
        <ele>1570.199951171875</ele>
        <time>2021-06-28T19:39:42.000Z</time>
        <extensions>
          <ns3:TrackPointExtension>
            <ns3:atemp>37.0</ns3:atemp>
            <ns3:hr>94</ns3:hr>
          </ns3:TrackPointExtension>
        </extensions>
      </trkpt>
      <trkpt lat="36.79179743863642215728759765625" lon="-118.56823881156742572784423828125">
        <ele>1570.800048828125</ele>
        <time>2021-06-28T19:39:46.000Z</time>
        <extensions>
          <ns3:TrackPointExtension>
            <ns3:atemp>37.0</ns3:atemp>
            <ns3:hr>97</ns3:hr>
          </ns3:TrackPointExtension>
        </extensions>
      </trkpt>
      <trkpt lat="36.79182459600269794464111328125" lon="-118.56836311519145965576171875">
        <ele>1570</ele>
        <time>2021-06-28T19:39:54.000Z</time>
        <extensions>
          <ns3:TrackPointExtension>
            <ns3:atemp>37.0</ns3:atemp>
            <ns3:hr>96</ns3:hr>
          </ns3:TrackPointExtension>
        </extensions>
      </trkpt>
      <trkpt lat="36.79183381609618663787841796875" lon="-118.56841986067593097686767578125">
        <ele>1570.5999755859375</ele>
        <time>2021-06-28T19:39:58.000Z</time>
        <extensions>
          <ns3:TrackPointExtension>
            <ns3:atemp>37.0</ns3:atemp>
            <ns3:hr>93</ns3:hr>
          </ns3:TrackPointExtension>
        </extensions>
      </trkpt>
      <trkpt lat="36.7918572016060352325439453125" lon="-118.56846093200147151947021484375">
        <ele>1570.800048828125</ele>
        <time>2021-06-28T19:40:01.000Z</time>
        <extensions>
          <ns3:TrackPointExtension>
            <ns3:atemp>37.0</ns3:atemp>
            <ns3:hr>93</ns3:hr>
          </ns3:TrackPointExtension>
        </extensions>
      </trkpt>
      <trkpt lat="36.791860051453113555908203125" lon="-118.568576686084270477294921875">
        <ele>1570.199951171875</ele>
        <time>2021-06-28T19:40:08.000Z</time>
        <extensions>
          <ns3:TrackPointExtension>
            <ns3:atemp>37.0</ns3:atemp>
            <ns3:hr>90</ns3:hr>
          </ns3:TrackPointExtension>
        </extensions>
      </trkpt>
      <trkpt lat="36.79187287576496601104736328125" lon="-118.56859982013702392578125">
        <ele>1570.199951171875</ele>
        <time>2021-06-28T19:40:10.000Z</time>
        <extensions>
          <ns3:TrackPointExtension>
            <ns3:atemp>37.0</ns3:atemp>
            <ns3:hr>92</ns3:hr>
          </ns3:TrackPointExtension>
        </extensions>
      </trkpt>
      <trkpt lat="36.7918836884200572967529296875" lon="-118.568608202040195465087890625">
        <ele>1570.199951171875</ele>
        <time>2021-06-28T19:40:11.000Z</time>
        <extensions>
          <ns3:TrackPointExtension>
            <ns3:atemp>37.0</ns3:atemp>
            <ns3:hr>91</ns3:hr>
          </ns3:TrackPointExtension>
        </extensions>
      </trkpt>
      <trkpt lat="36.7919115163385868072509765625" lon="-118.5686794482171535491943359375">
        <ele>1570.199951171875</ele>
        <time>2021-06-28T19:40:16.000Z</time>
        <extensions>
          <ns3:TrackPointExtension>
            <ns3:atemp>37.0</ns3:atemp>
            <ns3:hr>88</ns3:hr>
          </ns3:TrackPointExtension>
        </extensions>
      </trkpt>
      <trkpt lat="36.7919235862791538238525390625" lon="-118.56874256394803524017333984375">
        <ele>1570.5999755859375</ele>
        <time>2021-06-28T19:40:20.000Z</time>
        <extensions>
          <ns3:TrackPointExtension>
            <ns3:atemp>37.0</ns3:atemp>
            <ns3:hr>90</ns3:hr>
          </ns3:TrackPointExtension>
        </extensions>
      </trkpt>
      <trkpt lat="36.7919401824474334716796875" lon="-118.56875698082149028778076171875">
        <ele>1570.4000244140625</ele>
        <time>2021-06-28T19:40:22.000Z</time>
        <extensions>
          <ns3:TrackPointExtension>
            <ns3:atemp>37.0</ns3:atemp>
            <ns3:hr>90</ns3:hr>
          </ns3:TrackPointExtension>
        </extensions>
      </trkpt>
      <trkpt lat="36.7919722013175487518310546875" lon="-118.56883526779711246490478515625">
        <ele>1570</ele>
        <time>2021-06-28T19:40:28.000Z</time>
        <extensions>
          <ns3:TrackPointExtension>
            <ns3:atemp>37.0</ns3:atemp>
            <ns3:hr>93</ns3:hr>
          </ns3:TrackPointExtension>
        </extensions>
      </trkpt>
      <trkpt lat="36.7919836007058620452880859375" lon="-118.56886846013367176055908203125">
        <ele>1570</ele>
        <time>2021-06-28T19:40:30.000Z</time>
        <extensions>
          <ns3:TrackPointExtension>
            <ns3:atemp>37.0</ns3:atemp>
            <ns3:hr>95</ns3:hr>
          </ns3:TrackPointExtension>
        </extensions>
      </trkpt>
      <trkpt lat="36.791993491351604461669921875" lon="-118.568877093493938446044921875">
        <ele>1570</ele>
        <time>2021-06-28T19:40:31.000Z</time>
        <extensions>
          <ns3:TrackPointExtension>
            <ns3:atemp>37.0</ns3:atemp>
            <ns3:hr>92</ns3:hr>
          </ns3:TrackPointExtension>
        </extensions>
      </trkpt>
      <trkpt lat="36.79202668368816375732421875" lon="-118.56892746873199939727783203125">
        <ele>1570.4000244140625</ele>
        <time>2021-06-28T19:40:35.000Z</time>
        <extensions>
          <ns3:TrackPointExtension>
            <ns3:atemp>37.0</ns3:atemp>
            <ns3:hr>90</ns3:hr>
          </ns3:TrackPointExtension>
        </extensions>
      </trkpt>
      <trkpt lat="36.792074628174304962158203125" lon="-118.5689919255673885345458984375">
        <ele>1570.800048828125</ele>
        <time>2021-06-28T19:40:40.000Z</time>
        <extensions>
          <ns3:TrackPointExtension>
            <ns3:atemp>37.0</ns3:atemp>
            <ns3:hr>90</ns3:hr>
          </ns3:TrackPointExtension>
        </extensions>
      </trkpt>
      <trkpt lat="36.79208175279200077056884765625" lon="-118.56901849620044231414794921875">
        <ele>1570.5999755859375</ele>
        <time>2021-06-28T19:40:42.000Z</time>
        <extensions>
          <ns3:TrackPointExtension>
            <ns3:atemp>37.0</ns3:atemp>
            <ns3:hr>90</ns3:hr>
          </ns3:TrackPointExtension>
        </extensions>
      </trkpt>
      <trkpt lat="36.79212366230785846710205078125" lon="-118.569160066545009613037109375">
        <ele>1570.4000244140625</ele>
        <time>2021-06-28T19:40:51.000Z</time>
        <extensions>
          <ns3:TrackPointExtension>
            <ns3:atemp>37.0</ns3:atemp>
            <ns3:hr>89</ns3:hr>
          </ns3:TrackPointExtension>
        </extensions>
      </trkpt>
      <trkpt lat="36.7921485565602779388427734375" lon="-118.56922854669392108917236328125">
        <ele>1571</ele>
        <time>2021-06-28T19:40:56.000Z</time>
        <extensions>
          <ns3:TrackPointExtension>
            <ns3:atemp>37.0</ns3:atemp>
            <ns3:hr>92</ns3:hr>
          </ns3:TrackPointExtension>
        </extensions>
      </trkpt>
      <trkpt lat="36.79217579774558544158935546875" lon="-118.56928470544517040252685546875">
        <ele>1570.5999755859375</ele>
        <time>2021-06-28T19:41:00.000Z</time>
        <extensions>
          <ns3:TrackPointExtension>
            <ns3:atemp>37.0</ns3:atemp>
            <ns3:hr>92</ns3:hr>
          </ns3:TrackPointExtension>
        </extensions>
      </trkpt>
      <trkpt lat="36.7921817488968372344970703125" lon="-118.5692976973950862884521484375">
        <ele>1570.5999755859375</ele>
        <time>2021-06-28T19:41:01.000Z</time>
        <extensions>
          <ns3:TrackPointExtension>
            <ns3:atemp>37.0</ns3:atemp>
            <ns3:hr>91</ns3:hr>
          </ns3:TrackPointExtension>
        </extensions>
      </trkpt>
      <trkpt lat="36.79220932535827159881591796875" lon="-118.56932443566620349884033203125">
        <ele>1570.5999755859375</ele>
        <time>2021-06-28T19:41:04.000Z</time>
        <extensions>
          <ns3:TrackPointExtension>
            <ns3:atemp>37.0</ns3:atemp>
            <ns3:hr>90</ns3:hr>
          </ns3:TrackPointExtension>
        </extensions>
      </trkpt>
      <trkpt lat="36.79225525818765163421630859375" lon="-118.5694165527820587158203125">
        <ele>1571.199951171875</ele>
        <time>2021-06-28T19:41:11.000Z</time>
        <extensions>
          <ns3:TrackPointExtension>
            <ns3:atemp>37.0</ns3:atemp>
            <ns3:hr>91</ns3:hr>
          </ns3:TrackPointExtension>
        </extensions>
      </trkpt>
      <trkpt lat="36.79232667200267314910888671875" lon="-118.569516129791736602783203125">
        <ele>1569.199951171875</ele>
        <time>2021-06-28T19:41:19.000Z</time>
        <extensions>
          <ns3:TrackPointExtension>
            <ns3:atemp>37.0</ns3:atemp>
            <ns3:hr>93</ns3:hr>
          </ns3:TrackPointExtension>
        </extensions>
      </trkpt>
      <trkpt lat="36.7923755384981632232666015625" lon="-118.56955611146986484527587890625">
        <ele>1569.199951171875</ele>
        <time>2021-06-28T19:41:23.000Z</time>
        <extensions>
          <ns3:TrackPointExtension>
            <ns3:atemp>37.0</ns3:atemp>
            <ns3:hr>89</ns3:hr>
          </ns3:TrackPointExtension>
        </extensions>
      </trkpt>
      <trkpt lat="36.79238987155258655548095703125" lon="-118.5695828497409820556640625">
        <ele>1569.4000244140625</ele>
        <time>2021-06-28T19:41:25.000Z</time>
        <extensions>
          <ns3:TrackPointExtension>
            <ns3:atemp>37.0</ns3:atemp>
            <ns3:hr>87</ns3:hr>
          </ns3:TrackPointExtension>
        </extensions>
      </trkpt>
      <trkpt lat="36.79240764118731021881103515625" lon="-118.56961176730692386627197265625">
        <ele>1569.800048828125</ele>
        <time>2021-06-28T19:41:27.000Z</time>
        <extensions>
          <ns3:TrackPointExtension>
            <ns3:atemp>37.0</ns3:atemp>
            <ns3:hr>85</ns3:hr>
          </ns3:TrackPointExtension>
        </extensions>
      </trkpt>
      <trkpt lat="36.79244921542704105377197265625" lon="-118.5696530900895595550537109375">
        <ele>1569.800048828125</ele>
        <time>2021-06-28T19:41:31.000Z</time>
        <extensions>
          <ns3:TrackPointExtension>
            <ns3:atemp>37.0</ns3:atemp>
            <ns3:hr>86</ns3:hr>
          </ns3:TrackPointExtension>
        </extensions>
      </trkpt>
      <trkpt lat="36.79246145300567150115966796875" lon="-118.56966507621109485626220703125">
        <ele>1569.5999755859375</ele>
        <time>2021-06-28T19:41:32.000Z</time>
        <extensions>
          <ns3:TrackPointExtension>
            <ns3:atemp>37.0</ns3:atemp>
            <ns3:hr>87</ns3:hr>
          </ns3:TrackPointExtension>
        </extensions>
      </trkpt>
      <trkpt lat="36.7924712598323822021484375" lon="-118.5697298683226108551025390625">
        <ele>1569.5999755859375</ele>
        <time>2021-06-28T19:41:37.000Z</time>
        <extensions>
          <ns3:TrackPointExtension>
            <ns3:atemp>37.0</ns3:atemp>
            <ns3:hr>87</ns3:hr>
          </ns3:TrackPointExtension>
        </extensions>
      </trkpt>
      <trkpt lat="36.7924583517014980316162109375" lon="-118.56976113282144069671630859375">
        <ele>1569</ele>
        <time>2021-06-28T19:41:39.000Z</time>
        <extensions>
          <ns3:TrackPointExtension>
            <ns3:atemp>37.0</ns3:atemp>
            <ns3:hr>88</ns3:hr>
          </ns3:TrackPointExtension>
        </extensions>
      </trkpt>
      <trkpt lat="36.792397834360599517822265625" lon="-118.5698250867426395416259765625">
        <ele>1568.4000244140625</ele>
        <time>2021-06-28T19:41:47.000Z</time>
        <extensions>
          <ns3:TrackPointExtension>
            <ns3:atemp>37.0</ns3:atemp>
            <ns3:hr>88</ns3:hr>
          </ns3:TrackPointExtension>
        </extensions>
      </trkpt>
      <trkpt lat="36.7923966608941555023193359375" lon="-118.56982081197202205657958984375">
        <ele>1568.4000244140625</ele>
        <time>2021-06-28T19:41:48.000Z</time>
        <extensions>
          <ns3:TrackPointExtension>
            <ns3:atemp>37.0</ns3:atemp>
            <ns3:hr>91</ns3:hr>
          </ns3:TrackPointExtension>
        </extensions>
      </trkpt>
      <trkpt lat="36.792397834360599517822265625" lon="-118.56981754302978515625">
        <ele>1568.4000244140625</ele>
        <time>2021-06-28T19:41:49.000Z</time>
        <extensions>
          <ns3:TrackPointExtension>
            <ns3:atemp>37.0</ns3:atemp>
            <ns3:hr>87</ns3:hr>
          </ns3:TrackPointExtension>
        </extensions>
      </trkpt>
      <trkpt lat="36.79240210913121700286865234375" lon="-118.56981460936367511749267578125">
        <ele>1568.4000244140625</ele>
        <time>2021-06-28T19:41:50.000Z</time>
        <extensions>
          <ns3:TrackPointExtension>
            <ns3:atemp>37.0</ns3:atemp>
            <ns3:hr>87</ns3:hr>
          </ns3:TrackPointExtension>
        </extensions>
      </trkpt>
      <trkpt lat="36.79240914992988109588623046875" lon="-118.56983388774096965789794921875">
        <ele>1568.199951171875</ele>
        <time>2021-06-28T19:41:53.000Z</time>
        <extensions>
          <ns3:TrackPointExtension>
            <ns3:atemp>37.0</ns3:atemp>
            <ns3:hr>87</ns3:hr>
          </ns3:TrackPointExtension>
        </extensions>
      </trkpt>
      <trkpt lat="36.79241870529949665069580078125" lon="-118.5698388330638408660888671875">
        <ele>1568</ele>
        <time>2021-06-28T19:41:54.000Z</time>
        <extensions>
          <ns3:TrackPointExtension>
            <ns3:atemp>37.0</ns3:atemp>
            <ns3:hr>87</ns3:hr>
          </ns3:TrackPointExtension>
        </extensions>
      </trkpt>
      <trkpt lat="36.79243840277194976806640625" lon="-118.569838665425777435302734375">
        <ele>1568</ele>
        <time>2021-06-28T19:41:55.000Z</time>
        <extensions>
          <ns3:TrackPointExtension>
            <ns3:atemp>37.0</ns3:atemp>
            <ns3:hr>88</ns3:hr>
          </ns3:TrackPointExtension>
        </extensions>
      </trkpt>
      <trkpt lat="36.7925217188894748687744140625" lon="-118.56982064433395862579345703125">
        <ele>1569</ele>
        <time>2021-06-28T19:42:01.000Z</time>
        <extensions>
          <ns3:TrackPointExtension>
            <ns3:atemp>37.0</ns3:atemp>
            <ns3:hr>90</ns3:hr>
          </ns3:TrackPointExtension>
        </extensions>
      </trkpt>
      <trkpt lat="36.79254041053354740142822265625" lon="-118.56985718943178653717041015625">
        <ele>1569.4000244140625</ele>
        <time>2021-06-28T19:42:04.000Z</time>
        <extensions>
          <ns3:TrackPointExtension>
            <ns3:atemp>37.0</ns3:atemp>
            <ns3:hr>92</ns3:hr>
          </ns3:TrackPointExtension>
        </extensions>
      </trkpt>
      <trkpt lat="36.79257544688880443572998046875" lon="-118.56989306397736072540283203125">
        <ele>1569.4000244140625</ele>
        <time>2021-06-28T19:42:08.000Z</time>
        <extensions>
          <ns3:TrackPointExtension>
            <ns3:atemp>37.0</ns3:atemp>
            <ns3:hr>91</ns3:hr>
          </ns3:TrackPointExtension>
        </extensions>
      </trkpt>
      <trkpt lat="36.79261098615825176239013671875" lon="-118.56992952525615692138671875">
        <ele>1569</ele>
        <time>2021-06-28T19:42:12.000Z</time>
        <extensions>
          <ns3:TrackPointExtension>
            <ns3:atemp>37.0</ns3:atemp>
            <ns3:hr>90</ns3:hr>
          </ns3:TrackPointExtension>
        </extensions>
      </trkpt>
      <trkpt lat="36.79264451377093791961669921875" lon="-118.5699637234210968017578125">
        <ele>1569</ele>
        <time>2021-06-28T19:42:15.000Z</time>
        <extensions>
          <ns3:TrackPointExtension>
            <ns3:atemp>37.0</ns3:atemp>
            <ns3:hr>90</ns3:hr>
          </ns3:TrackPointExtension>
        </extensions>
      </trkpt>
      <trkpt lat="36.79270394146442413330078125" lon="-118.57006288133561611175537109375">
        <ele>1569.4000244140625</ele>
        <time>2021-06-28T19:42:22.000Z</time>
        <extensions>
          <ns3:TrackPointExtension>
            <ns3:atemp>37.0</ns3:atemp>
            <ns3:hr>90</ns3:hr>
          </ns3:TrackPointExtension>
        </extensions>
      </trkpt>
      <trkpt lat="36.79273218847811222076416015625" lon="-118.5701513104140758514404296875">
        <ele>1569.5999755859375</ele>
        <time>2021-06-28T19:42:27.000Z</time>
        <extensions>
          <ns3:TrackPointExtension>
            <ns3:atemp>37.0</ns3:atemp>
            <ns3:hr>90</ns3:hr>
          </ns3:TrackPointExtension>
        </extensions>
      </trkpt>
      <trkpt lat="36.792754232883453369140625" lon="-118.57019372284412384033203125">
        <ele>1569.199951171875</ele>
        <time>2021-06-28T19:42:30.000Z</time>
        <extensions>
          <ns3:TrackPointExtension>
            <ns3:atemp>37.0</ns3:atemp>
            <ns3:hr>90</ns3:hr>
          </ns3:TrackPointExtension>
        </extensions>
      </trkpt>
      <trkpt lat="36.7927912808954715728759765625" lon="-118.57022331096231937408447265625">
        <ele>1569</ele>
        <time>2021-06-28T19:42:33.000Z</time>
        <extensions>
          <ns3:TrackPointExtension>
            <ns3:atemp>37.0</ns3:atemp>
            <ns3:hr>88</ns3:hr>
          </ns3:TrackPointExtension>
        </extensions>
      </trkpt>
      <trkpt lat="36.792806200683116912841796875" lon="-118.57025499455630779266357421875">
        <ele>1568.800048828125</ele>
        <time>2021-06-28T19:42:35.000Z</time>
        <extensions>
          <ns3:TrackPointExtension>
            <ns3:atemp>37.0</ns3:atemp>
            <ns3:hr>85</ns3:hr>
          </ns3:TrackPointExtension>
        </extensions>
      </trkpt>
      <trkpt lat="36.792813241481781005859375" lon="-118.57026874087750911712646484375">
        <ele>1568.800048828125</ele>
        <time>2021-06-28T19:42:36.000Z</time>
        <extensions>
          <ns3:TrackPointExtension>
            <ns3:atemp>37.0</ns3:atemp>
            <ns3:hr>90</ns3:hr>
          </ns3:TrackPointExtension>
        </extensions>
      </trkpt>
      <trkpt lat="36.79282355122268199920654296875" lon="-118.57028399594128131866455078125">
        <ele>1568.800048828125</ele>
        <time>2021-06-28T19:42:37.000Z</time>
        <extensions>
          <ns3:TrackPointExtension>
            <ns3:atemp>37.0</ns3:atemp>
            <ns3:hr>87</ns3:hr>
          </ns3:TrackPointExtension>
        </extensions>
      </trkpt>
      <trkpt lat="36.79284802637994289398193359375" lon="-118.57031844556331634521484375">
        <ele>1568.800048828125</ele>
        <time>2021-06-28T19:42:40.000Z</time>
        <extensions>
          <ns3:TrackPointExtension>
            <ns3:atemp>37.0</ns3:atemp>
            <ns3:hr>84</ns3:hr>
          </ns3:TrackPointExtension>
        </extensions>
      </trkpt>
      <trkpt lat="36.7928563244640827178955078125" lon="-118.57033185660839080810546875">
        <ele>1568.800048828125</ele>
        <time>2021-06-28T19:42:41.000Z</time>
        <extensions>
          <ns3:TrackPointExtension>
            <ns3:atemp>37.0</ns3:atemp>
            <ns3:hr>88</ns3:hr>
          </ns3:TrackPointExtension>
        </extensions>
      </trkpt>
      <trkpt lat="36.792888343334197998046875" lon="-118.5703642107546329498291015625">
        <ele>1568.4000244140625</ele>
        <time>2021-06-28T19:42:44.000Z</time>
        <extensions>
          <ns3:TrackPointExtension>
            <ns3:atemp>37.0</ns3:atemp>
            <ns3:hr>90</ns3:hr>
          </ns3:TrackPointExtension>
        </extensions>
      </trkpt>
      <trkpt lat="36.79289647378027439117431640625" lon="-118.57037351466715335845947265625">
        <ele>1568.4000244140625</ele>
        <time>2021-06-28T19:42:45.000Z</time>
        <extensions>
          <ns3:TrackPointExtension>
            <ns3:atemp>37.0</ns3:atemp>
            <ns3:hr>90</ns3:hr>
          </ns3:TrackPointExtension>
        </extensions>
      </trkpt>
      <trkpt lat="36.79296051152050495147705078125" lon="-118.57041626237332820892333984375">
        <ele>1568</ele>
        <time>2021-06-28T19:42:51.000Z</time>
        <extensions>
          <ns3:TrackPointExtension>
            <ns3:atemp>37.0</ns3:atemp>
            <ns3:hr>90</ns3:hr>
          </ns3:TrackPointExtension>
        </extensions>
      </trkpt>
      <trkpt lat="36.793000660836696624755859375" lon="-118.5704373009502887725830078125">
        <ele>1568</ele>
        <time>2021-06-28T19:42:54.000Z</time>
        <extensions>
          <ns3:TrackPointExtension>
            <ns3:atemp>37.0</ns3:atemp>
            <ns3:hr>91</ns3:hr>
          </ns3:TrackPointExtension>
        </extensions>
      </trkpt>
      <trkpt lat="36.79302689619362354278564453125" lon="-118.57045389711856842041015625">
        <ele>1567.5999755859375</ele>
        <time>2021-06-28T19:42:56.000Z</time>
        <extensions>
          <ns3:TrackPointExtension>
            <ns3:atemp>37.0</ns3:atemp>
            <ns3:hr>88</ns3:hr>
          </ns3:TrackPointExtension>
        </extensions>
      </trkpt>
      <trkpt lat="36.793041564524173736572265625" lon="-118.57045389711856842041015625">
        <ele>1567.5999755859375</ele>
        <time>2021-06-28T19:42:57.000Z</time>
        <extensions>
          <ns3:TrackPointExtension>
            <ns3:atemp>37.0</ns3:atemp>
            <ns3:hr>87</ns3:hr>
          </ns3:TrackPointExtension>
        </extensions>
      </trkpt>
      <trkpt lat="36.79307685233652591705322265625" lon="-118.57048742473125457763671875">
        <ele>1567.4000244140625</ele>
        <time>2021-06-28T19:43:01.000Z</time>
        <extensions>
          <ns3:TrackPointExtension>
            <ns3:atemp>37.0</ns3:atemp>
            <ns3:hr>86</ns3:hr>
          </ns3:TrackPointExtension>
        </extensions>
      </trkpt>
      <trkpt lat="36.79310032166540622711181640625" lon="-118.5705264844000339508056640625">
        <ele>1567.4000244140625</ele>
        <time>2021-06-28T19:43:04.000Z</time>
        <extensions>
          <ns3:TrackPointExtension>
            <ns3:atemp>37.0</ns3:atemp>
            <ns3:hr>86</ns3:hr>
          </ns3:TrackPointExtension>
        </extensions>
      </trkpt>
      <trkpt lat="36.79313250817358493804931640625" lon="-118.57054366730153560638427734375">
        <ele>1567</ele>
        <time>2021-06-28T19:43:07.000Z</time>
        <extensions>
          <ns3:TrackPointExtension>
            <ns3:atemp>37.0</ns3:atemp>
            <ns3:hr>84</ns3:hr>
          </ns3:TrackPointExtension>
        </extensions>
      </trkpt>
      <trkpt lat="36.79314491339027881622314453125" lon="-118.57054953463375568389892578125">
        <ele>1567</ele>
        <time>2021-06-28T19:43:08.000Z</time>
        <extensions>
          <ns3:TrackPointExtension>
            <ns3:atemp>37.0</ns3:atemp>
            <ns3:hr>84</ns3:hr>
          </ns3:TrackPointExtension>
        </extensions>
      </trkpt>
      <trkpt lat="36.79316989146173000335693359375" lon="-118.57056043110787868499755859375">
        <ele>1567.199951171875</ele>
        <time>2021-06-28T19:43:10.000Z</time>
        <extensions>
          <ns3:TrackPointExtension>
            <ns3:atemp>37.0</ns3:atemp>
            <ns3:hr>85</ns3:hr>
          </ns3:TrackPointExtension>
        </extensions>
      </trkpt>
      <trkpt lat="36.79323191754519939422607421875" lon="-118.57059144414961338043212890625">
        <ele>1567.199951171875</ele>
        <time>2021-06-28T19:43:15.000Z</time>
        <extensions>
          <ns3:TrackPointExtension>
            <ns3:atemp>37.0</ns3:atemp>
            <ns3:hr>88</ns3:hr>
          </ns3:TrackPointExtension>
        </extensions>
      </trkpt>
      <trkpt lat="36.7932700552046298980712890625" lon="-118.5706334374845027923583984375">
        <ele>1567.4000244140625</ele>
        <time>2021-06-28T19:43:19.000Z</time>
        <extensions>
          <ns3:TrackPointExtension>
            <ns3:atemp>37.0</ns3:atemp>
            <ns3:hr>89</ns3:hr>
          </ns3:TrackPointExtension>
        </extensions>
      </trkpt>
      <trkpt lat="36.7933186702430248260498046875" lon="-118.57071340084075927734375">
        <ele>1567.199951171875</ele>
        <time>2021-06-28T19:43:25.000Z</time>
        <extensions>
          <ns3:TrackPointExtension>
            <ns3:atemp>37.0</ns3:atemp>
            <ns3:hr>89</ns3:hr>
          </ns3:TrackPointExtension>
        </extensions>
      </trkpt>
      <trkpt lat="36.79332897998392581939697265625" lon="-118.57072521932423114776611328125">
        <ele>1567.199951171875</ele>
        <time>2021-06-28T19:43:26.000Z</time>
        <extensions>
          <ns3:TrackPointExtension>
            <ns3:atemp>37.0</ns3:atemp>
            <ns3:hr>89</ns3:hr>
          </ns3:TrackPointExtension>
        </extensions>
      </trkpt>
      <trkpt lat="36.79338245652616024017333984375" lon="-118.57077919878065586090087890625">
        <ele>1567</ele>
        <time>2021-06-28T19:43:31.000Z</time>
        <extensions>
          <ns3:TrackPointExtension>
            <ns3:atemp>37.0</ns3:atemp>
            <ns3:hr>90</ns3:hr>
          </ns3:TrackPointExtension>
        </extensions>
      </trkpt>
      <trkpt lat="36.79339419119060039520263671875" lon="-118.5707859881222248077392578125">
        <ele>1566.800048828125</ele>
        <time>2021-06-28T19:43:32.000Z</time>
        <extensions>
          <ns3:TrackPointExtension>
            <ns3:atemp>37.0</ns3:atemp>
            <ns3:hr>90</ns3:hr>
          </ns3:TrackPointExtension>
        </extensions>
      </trkpt>
      <trkpt lat="36.79341698996722698211669921875" lon="-118.57079864479601383209228515625">
        <ele>1566.800048828125</ele>
        <time>2021-06-28T19:43:34.000Z</time>
        <extensions>
          <ns3:TrackPointExtension>
            <ns3:atemp>37.0</ns3:atemp>
            <ns3:hr>90</ns3:hr>
          </ns3:TrackPointExtension>
        </extensions>
      </trkpt>
      <trkpt lat="36.7934735678136348724365234375" lon="-118.57087156735360622406005859375">
        <ele>1567.199951171875</ele>
        <time>2021-06-28T19:43:41.000Z</time>
        <extensions>
          <ns3:TrackPointExtension>
            <ns3:atemp>37.0</ns3:atemp>
            <ns3:hr>90</ns3:hr>
          </ns3:TrackPointExtension>
        </extensions>
      </trkpt>
      <trkpt lat="36.7935181595385074615478515625" lon="-118.5709375329315662384033203125">
        <ele>1567</ele>
        <time>2021-06-28T19:43:46.000Z</time>
        <extensions>
          <ns3:TrackPointExtension>
            <ns3:atemp>37.0</ns3:atemp>
            <ns3:hr>87</ns3:hr>
          </ns3:TrackPointExtension>
        </extensions>
      </trkpt>
      <trkpt lat="36.79353198967874050140380859375" lon="-118.5709472559392452239990234375">
        <ele>1567</ele>
        <time>2021-06-28T19:43:47.000Z</time>
        <extensions>
          <ns3:TrackPointExtension>
            <ns3:atemp>37.0</ns3:atemp>
            <ns3:hr>87</ns3:hr>
          </ns3:TrackPointExtension>
        </extensions>
      </trkpt>
      <trkpt lat="36.7935627512633800506591796875" lon="-118.57102026231586933135986328125">
        <ele>1567</ele>
        <time>2021-06-28T19:43:52.000Z</time>
        <extensions>
          <ns3:TrackPointExtension>
            <ns3:atemp>37.0</ns3:atemp>
            <ns3:hr>84</ns3:hr>
          </ns3:TrackPointExtension>
        </extensions>
      </trkpt>
      <trkpt lat="36.79357809014618396759033203125" lon="-118.5710703022778034210205078125">
        <ele>1567.4000244140625</ele>
        <time>2021-06-28T19:43:55.000Z</time>
        <extensions>
          <ns3:TrackPointExtension>
            <ns3:atemp>38.0</ns3:atemp>
            <ns3:hr>86</ns3:hr>
          </ns3:TrackPointExtension>
        </extensions>
      </trkpt>
      <trkpt lat="36.793594099581241607666015625" lon="-118.57109553180634975433349609375">
        <ele>1567.4000244140625</ele>
        <time>2021-06-28T19:43:58.000Z</time>
        <extensions>
          <ns3:TrackPointExtension>
            <ns3:atemp>38.0</ns3:atemp>
            <ns3:hr>86</ns3:hr>
          </ns3:TrackPointExtension>
        </extensions>
      </trkpt>
      <trkpt lat="36.79360642097890377044677734375" lon="-118.57112017460167407989501953125">
        <ele>1567.199951171875</ele>
        <time>2021-06-28T19:44:00.000Z</time>
        <extensions>
          <ns3:TrackPointExtension>
            <ns3:atemp>37.0</ns3:atemp>
            <ns3:hr>87</ns3:hr>
          </ns3:TrackPointExtension>
        </extensions>
      </trkpt>
      <trkpt lat="36.793633662164211273193359375" lon="-118.57116627506911754608154296875">
        <ele>1567</ele>
        <time>2021-06-28T19:44:03.000Z</time>
        <extensions>
          <ns3:TrackPointExtension>
            <ns3:atemp>37.0</ns3:atemp>
            <ns3:hr>88</ns3:hr>
          </ns3:TrackPointExtension>
        </extensions>
      </trkpt>
      <trkpt lat="36.793663837015628814697265625" lon="-118.57121690176427364349365234375">
        <ele>1567</ele>
        <time>2021-06-28T19:44:07.000Z</time>
        <extensions>
          <ns3:TrackPointExtension>
            <ns3:atemp>37.0</ns3:atemp>
            <ns3:hr>90</ns3:hr>
          </ns3:TrackPointExtension>
        </extensions>
      </trkpt>
      <trkpt lat="36.79370800964534282684326171875" lon="-118.571248166263103485107421875">
        <ele>1567.199951171875</ele>
        <time>2021-06-28T19:44:11.000Z</time>
        <extensions>
          <ns3:TrackPointExtension>
            <ns3:atemp>37.0</ns3:atemp>
            <ns3:hr>90</ns3:hr>
          </ns3:TrackPointExtension>
        </extensions>
      </trkpt>
      <trkpt lat="36.79374086670577526092529296875" lon="-118.57124648988246917724609375">
        <ele>1567.199951171875</ele>
        <time>2021-06-28T19:44:13.000Z</time>
        <extensions>
          <ns3:TrackPointExtension>
            <ns3:atemp>37.0</ns3:atemp>
            <ns3:hr>90</ns3:hr>
          </ns3:TrackPointExtension>
        </extensions>
      </trkpt>
      <trkpt lat="36.79378914646804332733154296875" lon="-118.57130524702370166778564453125">
        <ele>1567.4000244140625</ele>
        <time>2021-06-28T19:44:18.000Z</time>
        <extensions>
          <ns3:TrackPointExtension>
            <ns3:atemp>37.0</ns3:atemp>
            <ns3:hr>91</ns3:hr>
          </ns3:TrackPointExtension>
        </extensions>
      </trkpt>
      <trkpt lat="36.7938306368887424468994140625" lon="-118.57134170830249786376953125">
        <ele>1567.800048828125</ele>
        <time>2021-06-28T19:44:22.000Z</time>
        <extensions>
          <ns3:TrackPointExtension>
            <ns3:atemp>37.0</ns3:atemp>
            <ns3:hr>90</ns3:hr>
          </ns3:TrackPointExtension>
        </extensions>
      </trkpt>
      <trkpt lat="36.79385620169341564178466796875" lon="-118.571383617818355560302734375">
        <ele>1568</ele>
        <time>2021-06-28T19:44:25.000Z</time>
        <extensions>
          <ns3:TrackPointExtension>
            <ns3:atemp>37.0</ns3:atemp>
            <ns3:hr>88</ns3:hr>
          </ns3:TrackPointExtension>
        </extensions>
      </trkpt>
      <trkpt lat="36.79388302378356456756591796875" lon="-118.571442626416683197021484375">
        <ele>1567.800048828125</ele>
        <time>2021-06-28T19:44:29.000Z</time>
        <extensions>
          <ns3:TrackPointExtension>
            <ns3:atemp>37.0</ns3:atemp>
            <ns3:hr>91</ns3:hr>
          </ns3:TrackPointExtension>
        </extensions>
      </trkpt>
      <trkpt lat="36.79389593191444873809814453125" lon="-118.5714469850063323974609375">
        <ele>1568</ele>
        <time>2021-06-28T19:44:30.000Z</time>
        <extensions>
          <ns3:TrackPointExtension>
            <ns3:atemp>37.0</ns3:atemp>
            <ns3:hr>91</ns3:hr>
          </ns3:TrackPointExtension>
        </extensions>
      </trkpt>
      <trkpt lat="36.7939174734055995941162109375" lon="-118.57146500609815120697021484375">
        <ele>1568</ele>
        <time>2021-06-28T19:44:32.000Z</time>
        <extensions>
          <ns3:TrackPointExtension>
            <ns3:atemp>37.0</ns3:atemp>
            <ns3:hr>91</ns3:hr>
          </ns3:TrackPointExtension>
        </extensions>
      </trkpt>
      <trkpt lat="36.7939412780106067657470703125" lon="-118.571490235626697540283203125">
        <ele>1568</ele>
        <time>2021-06-28T19:44:35.000Z</time>
        <extensions>
          <ns3:TrackPointExtension>
            <ns3:atemp>37.0</ns3:atemp>
            <ns3:hr>92</ns3:hr>
          </ns3:TrackPointExtension>
        </extensions>
      </trkpt>
      <trkpt lat="36.793958880007266998291015625" lon="-118.571532480418682098388671875">
        <ele>1568</ele>
        <time>2021-06-28T19:44:38.000Z</time>
        <extensions>
          <ns3:TrackPointExtension>
            <ns3:atemp>37.0</ns3:atemp>
            <ns3:hr>93</ns3:hr>
          </ns3:TrackPointExtension>
        </extensions>
      </trkpt>
      <trkpt lat="36.7939784936606884002685546875" lon="-118.57158805243670940399169921875">
        <ele>1568</ele>
        <time>2021-06-28T19:44:41.000Z</time>
        <extensions>
          <ns3:TrackPointExtension>
            <ns3:atemp>37.0</ns3:atemp>
            <ns3:hr>93</ns3:hr>
          </ns3:TrackPointExtension>
        </extensions>
      </trkpt>
      <trkpt lat="36.7939868755638599395751953125" lon="-118.57164211571216583251953125">
        <ele>1567.800048828125</ele>
        <time>2021-06-28T19:44:45.000Z</time>
        <extensions>
          <ns3:TrackPointExtension>
            <ns3:atemp>37.0</ns3:atemp>
            <ns3:hr>93</ns3:hr>
          </ns3:TrackPointExtension>
        </extensions>
      </trkpt>
      <trkpt lat="36.7939945869147777557373046875" lon="-118.57164823450148105621337890625">
        <ele>1568.199951171875</ele>
        <time>2021-06-28T19:44:46.000Z</time>
        <extensions>
          <ns3:TrackPointExtension>
            <ns3:atemp>37.0</ns3:atemp>
            <ns3:hr>93</ns3:hr>
          </ns3:TrackPointExtension>
        </extensions>
      </trkpt>
      <trkpt lat="36.794003807008266448974609375" lon="-118.57166650705039501190185546875">
        <ele>1568</ele>
        <time>2021-06-28T19:44:48.000Z</time>
        <extensions>
          <ns3:TrackPointExtension>
            <ns3:atemp>37.0</ns3:atemp>
            <ns3:hr>93</ns3:hr>
          </ns3:TrackPointExtension>
        </extensions>
      </trkpt>
      <trkpt lat="36.79401193745434284210205078125" lon="-118.57169081456959247589111328125">
        <ele>1567.800048828125</ele>
        <time>2021-06-28T19:44:50.000Z</time>
        <extensions>
          <ns3:TrackPointExtension>
            <ns3:atemp>37.0</ns3:atemp>
            <ns3:hr>92</ns3:hr>
          </ns3:TrackPointExtension>
        </extensions>
      </trkpt>
      <trkpt lat="36.79402434267103672027587890625" lon="-118.57170204631984233856201171875">
        <ele>1567.800048828125</ele>
        <time>2021-06-28T19:44:51.000Z</time>
        <extensions>
          <ns3:TrackPointExtension>
            <ns3:atemp>37.0</ns3:atemp>
            <ns3:hr>92</ns3:hr>
          </ns3:TrackPointExtension>
        </extensions>
      </trkpt>
      <trkpt lat="36.7940489016473293304443359375" lon="-118.571707494556903839111328125">
        <ele>1567.4000244140625</ele>
        <time>2021-06-28T19:44:53.000Z</time>
        <extensions>
          <ns3:TrackPointExtension>
            <ns3:atemp>37.0</ns3:atemp>
            <ns3:hr>91</ns3:hr>
          </ns3:TrackPointExtension>
        </extensions>
      </trkpt>
      <trkpt lat="36.79411612451076507568359375" lon="-118.5717381723225116729736328125">
        <ele>1567.800048828125</ele>
        <time>2021-06-28T19:44:58.000Z</time>
        <extensions>
          <ns3:TrackPointExtension>
            <ns3:atemp>37.0</ns3:atemp>
            <ns3:hr>91</ns3:hr>
          </ns3:TrackPointExtension>
        </extensions>
      </trkpt>
      <trkpt lat="36.7941397614777088165283203125" lon="-118.57175317592918872833251953125">
        <ele>1567.800048828125</ele>
        <time>2021-06-28T19:45:00.000Z</time>
        <extensions>
          <ns3:TrackPointExtension>
            <ns3:atemp>37.0</ns3:atemp>
            <ns3:hr>92</ns3:hr>
          </ns3:TrackPointExtension>
        </extensions>
      </trkpt>
      <trkpt lat="36.79417303763329982757568359375" lon="-118.571789972484111785888671875">
        <ele>1567.800048828125</ele>
        <time>2021-06-28T19:45:04.000Z</time>
        <extensions>
          <ns3:TrackPointExtension>
            <ns3:atemp>37.0</ns3:atemp>
            <ns3:hr>93</ns3:hr>
          </ns3:TrackPointExtension>
        </extensions>
      </trkpt>
      <trkpt lat="36.79419600404798984527587890625" lon="-118.57181855477392673492431640625">
        <ele>1568</ele>
        <time>2021-06-28T19:45:07.000Z</time>
        <extensions>
          <ns3:TrackPointExtension>
            <ns3:atemp>37.0</ns3:atemp>
            <ns3:hr>90</ns3:hr>
          </ns3:TrackPointExtension>
        </extensions>
      </trkpt>
      <trkpt lat="36.7941980995237827301025390625" lon="-118.57183598913252353668212890625">
        <ele>1567.800048828125</ele>
        <time>2021-06-28T19:45:08.000Z</time>
        <extensions>
          <ns3:TrackPointExtension>
            <ns3:atemp>37.0</ns3:atemp>
            <ns3:hr>93</ns3:hr>
          </ns3:TrackPointExtension>
        </extensions>
      </trkpt>
      <trkpt lat="36.794225759804248809814453125" lon="-118.5718991048634052276611328125">
        <ele>1567.5999755859375</ele>
        <time>2021-06-28T19:45:12.000Z</time>
        <extensions>
          <ns3:TrackPointExtension>
            <ns3:atemp>37.0</ns3:atemp>
            <ns3:hr>94</ns3:hr>
          </ns3:TrackPointExtension>
        </extensions>
      </trkpt>
      <trkpt lat="36.79423707537353038787841796875" lon="-118.57190824113786220550537109375">
        <ele>1567.5999755859375</ele>
        <time>2021-06-28T19:45:13.000Z</time>
        <extensions>
          <ns3:TrackPointExtension>
            <ns3:atemp>37.0</ns3:atemp>
            <ns3:hr>95</ns3:hr>
          </ns3:TrackPointExtension>
        </extensions>
      </trkpt>
      <trkpt lat="36.79428376257419586181640625" lon="-118.57192852534353733062744140625">
        <ele>1567.5999755859375</ele>
        <time>2021-06-28T19:45:16.000Z</time>
        <extensions>
          <ns3:TrackPointExtension>
            <ns3:atemp>37.0</ns3:atemp>
            <ns3:hr>95</ns3:hr>
          </ns3:TrackPointExtension>
        </extensions>
      </trkpt>
      <trkpt lat="36.79429423995316028594970703125" lon="-118.57194118201732635498046875">
        <ele>1567.199951171875</ele>
        <time>2021-06-28T19:45:17.000Z</time>
        <extensions>
          <ns3:TrackPointExtension>
            <ns3:atemp>37.0</ns3:atemp>
            <ns3:hr>95</ns3:hr>
          </ns3:TrackPointExtension>
        </extensions>
      </trkpt>
      <trkpt lat="36.79431485943496227264404296875" lon="-118.5719607956707477569580078125">
        <ele>1567</ele>
        <time>2021-06-28T19:45:19.000Z</time>
        <extensions>
          <ns3:TrackPointExtension>
            <ns3:atemp>37.0</ns3:atemp>
            <ns3:hr>94</ns3:hr>
          </ns3:TrackPointExtension>
        </extensions>
      </trkpt>
      <trkpt lat="36.79434335790574550628662109375" lon="-118.57200555503368377685546875">
        <ele>1566.800048828125</ele>
        <time>2021-06-28T19:45:22.000Z</time>
        <extensions>
          <ns3:TrackPointExtension>
            <ns3:atemp>37.0</ns3:atemp>
            <ns3:hr>93</ns3:hr>
          </ns3:TrackPointExtension>
        </extensions>
      </trkpt>
      <trkpt lat="36.7943553440272808074951171875" lon="-118.57203883118927478790283203125">
        <ele>1566.800048828125</ele>
        <time>2021-06-28T19:45:24.000Z</time>
        <extensions>
          <ns3:TrackPointExtension>
            <ns3:atemp>37.0</ns3:atemp>
            <ns3:hr>92</ns3:hr>
          </ns3:TrackPointExtension>
        </extensions>
      </trkpt>
      <trkpt lat="36.79436833597719669342041015625" lon="-118.5720784775912761688232421875">
        <ele>1566.800048828125</ele>
        <time>2021-06-28T19:45:27.000Z</time>
        <extensions>
          <ns3:TrackPointExtension>
            <ns3:atemp>37.0</ns3:atemp>
            <ns3:hr>91</ns3:hr>
          </ns3:TrackPointExtension>
        </extensions>
      </trkpt>
      <trkpt lat="36.79439817555248737335205078125" lon="-118.57211661525070667266845703125">
        <ele>1567</ele>
        <time>2021-06-28T19:45:30.000Z</time>
        <extensions>
          <ns3:TrackPointExtension>
            <ns3:atemp>37.0</ns3:atemp>
            <ns3:hr>92</ns3:hr>
          </ns3:TrackPointExtension>
        </extensions>
      </trkpt>
      <trkpt lat="36.79440923966467380523681640625" lon="-118.5721297748386859893798828125">
        <ele>1566.800048828125</ele>
        <time>2021-06-28T19:45:31.000Z</time>
        <extensions>
          <ns3:TrackPointExtension>
            <ns3:atemp>37.0</ns3:atemp>
            <ns3:hr>93</ns3:hr>
          </ns3:TrackPointExtension>
        </extensions>
      </trkpt>
      <trkpt lat="36.7944207228720188140869140625" lon="-118.572216443717479705810546875">
        <ele>1567.199951171875</ele>
        <time>2021-06-28T19:45:36.000Z</time>
        <extensions>
          <ns3:TrackPointExtension>
            <ns3:atemp>37.0</ns3:atemp>
            <ns3:hr>94</ns3:hr>
          </ns3:TrackPointExtension>
        </extensions>
      </trkpt>
      <trkpt lat="36.79445969872176647186279296875" lon="-118.5723000951111316680908203125">
        <ele>1567.199951171875</ele>
        <time>2021-06-28T19:45:43.000Z</time>
        <extensions>
          <ns3:TrackPointExtension>
            <ns3:atemp>37.0</ns3:atemp>
            <ns3:hr>97</ns3:hr>
          </ns3:TrackPointExtension>
        </extensions>
      </trkpt>
      <trkpt lat="36.79446673952043056488037109375" lon="-118.5723145119845867156982421875">
        <ele>1567.199951171875</ele>
        <time>2021-06-28T19:45:44.000Z</time>
        <extensions>
          <ns3:TrackPointExtension>
            <ns3:atemp>37.0</ns3:atemp>
            <ns3:hr>97</ns3:hr>
          </ns3:TrackPointExtension>
        </extensions>
      </trkpt>
      <trkpt lat="36.7945166118443012237548828125" lon="-118.57247703708708286285400390625">
        <ele>1566.5999755859375</ele>
        <time>2021-06-28T19:45:56.000Z</time>
        <extensions>
          <ns3:TrackPointExtension>
            <ns3:atemp>37.0</ns3:atemp>
            <ns3:hr>94</ns3:hr>
          </ns3:TrackPointExtension>
        </extensions>
      </trkpt>
      <trkpt lat="36.7945259995758533477783203125" lon="-118.572511486709117889404296875">
        <ele>1566.4000244140625</ele>
        <time>2021-06-28T19:45:58.000Z</time>
        <extensions>
          <ns3:TrackPointExtension>
            <ns3:atemp>37.0</ns3:atemp>
            <ns3:hr>91</ns3:hr>
          </ns3:TrackPointExtension>
        </extensions>
      </trkpt>
      <trkpt lat="36.7945772968232631683349609375" lon="-118.57263260520994663238525390625">
        <ele>1566.5999755859375</ele>
        <time>2021-06-28T19:46:06.000Z</time>
        <extensions>
          <ns3:TrackPointExtension>
            <ns3:atemp>37.0</ns3:atemp>
            <ns3:hr>92</ns3:hr>
          </ns3:TrackPointExtension>
        </extensions>
      </trkpt>
      <trkpt lat="36.7945870198309421539306640625" lon="-118.5726990737020969390869140625">
        <ele>1566.199951171875</ele>
        <time>2021-06-28T19:46:11.000Z</time>
        <extensions>
          <ns3:TrackPointExtension>
            <ns3:atemp>37.0</ns3:atemp>
            <ns3:hr>93</ns3:hr>
          </ns3:TrackPointExtension>
        </extensions>
      </trkpt>
      <trkpt lat="36.79458509199321269989013671875" lon="-118.5727366246283054351806640625">
        <ele>1566.199951171875</ele>
        <time>2021-06-28T19:46:13.000Z</time>
        <extensions>
          <ns3:TrackPointExtension>
            <ns3:atemp>37.0</ns3:atemp>
            <ns3:hr>95</ns3:hr>
          </ns3:TrackPointExtension>
        </extensions>
      </trkpt>
      <trkpt lat="36.79458224214613437652587890625" lon="-118.5727527178823947906494140625">
        <ele>1566.199951171875</ele>
        <time>2021-06-28T19:46:14.000Z</time>
        <extensions>
          <ns3:TrackPointExtension>
            <ns3:atemp>37.0</ns3:atemp>
            <ns3:hr>92</ns3:hr>
          </ns3:TrackPointExtension>
        </extensions>
      </trkpt>
      <trkpt lat="36.79456665180623531341552734375" lon="-118.57281683944165706634521484375">
        <ele>1566.5999755859375</ele>
        <time>2021-06-28T19:46:18.000Z</time>
        <extensions>
          <ns3:TrackPointExtension>
            <ns3:atemp>37.0</ns3:atemp>
            <ns3:hr>92</ns3:hr>
          </ns3:TrackPointExtension>
        </extensions>
      </trkpt>
      <trkpt lat="36.79458660073578357696533203125" lon="-118.57285556383430957794189453125">
        <ele>1566.5999755859375</ele>
        <time>2021-06-28T19:46:20.000Z</time>
        <extensions>
          <ns3:TrackPointExtension>
            <ns3:atemp>37.0</ns3:atemp>
            <ns3:hr>94</ns3:hr>
          </ns3:TrackPointExtension>
        </extensions>
      </trkpt>
      <trkpt lat="36.79459892213344573974609375" lon="-118.57289847917854785919189453125">
        <ele>1566.800048828125</ele>
        <time>2021-06-28T19:46:23.000Z</time>
        <extensions>
          <ns3:TrackPointExtension>
            <ns3:atemp>37.0</ns3:atemp>
            <ns3:hr>97</ns3:hr>
          </ns3:TrackPointExtension>
        </extensions>
      </trkpt>
      <trkpt lat="36.7946037836372852325439453125" lon="-118.57292278669774532318115234375">
        <ele>1567.4000244140625</ele>
        <time>2021-06-28T19:46:25.000Z</time>
        <extensions>
          <ns3:TrackPointExtension>
            <ns3:atemp>37.0</ns3:atemp>
            <ns3:hr>94</ns3:hr>
          </ns3:TrackPointExtension>
        </extensions>
      </trkpt>
      <trkpt lat="36.794606633484363555908203125" lon="-118.57293418608605861663818359375">
        <ele>1567.5999755859375</ele>
        <time>2021-06-28T19:46:26.000Z</time>
        <extensions>
          <ns3:TrackPointExtension>
            <ns3:atemp>37.0</ns3:atemp>
            <ns3:hr>94</ns3:hr>
          </ns3:TrackPointExtension>
        </extensions>
      </trkpt>
      <trkpt lat="36.7946034483611583709716796875" lon="-118.5729865729808807373046875">
        <ele>1567.800048828125</ele>
        <time>2021-06-28T19:46:30.000Z</time>
        <extensions>
          <ns3:TrackPointExtension>
            <ns3:atemp>37.0</ns3:atemp>
            <ns3:hr>97</ns3:hr>
          </ns3:TrackPointExtension>
        </extensions>
      </trkpt>
      <trkpt lat="36.79459230042994022369384765625" lon="-118.57306192629039287567138671875">
        <ele>1567.800048828125</ele>
        <time>2021-06-28T19:46:33.000Z</time>
        <extensions>
          <ns3:TrackPointExtension>
            <ns3:atemp>37.0</ns3:atemp>
            <ns3:hr>98</ns3:hr>
          </ns3:TrackPointExtension>
        </extensions>
      </trkpt>
      <trkpt lat="36.794601939618587493896484375" lon="-118.57307399623095989227294921875">
        <ele>1567.5999755859375</ele>
        <time>2021-06-28T19:46:35.000Z</time>
        <extensions>
          <ns3:TrackPointExtension>
            <ns3:atemp>37.0</ns3:atemp>
            <ns3:hr>100</ns3:hr>
          </ns3:TrackPointExtension>
        </extensions>
      </trkpt>
      <trkpt lat="36.79464326240122318267822265625" lon="-118.57313132844865322113037109375">
        <ele>1567.4000244140625</ele>
        <time>2021-06-28T19:46:40.000Z</time>
        <extensions>
          <ns3:TrackPointExtension>
            <ns3:atemp>37.0</ns3:atemp>
            <ns3:hr>102</ns3:hr>
          </ns3:TrackPointExtension>
        </extensions>
      </trkpt>
      <trkpt lat="36.7946735210716724395751953125" lon="-118.5731701366603374481201171875">
        <ele>1567.4000244140625</ele>
        <time>2021-06-28T19:46:44.000Z</time>
        <extensions>
          <ns3:TrackPointExtension>
            <ns3:atemp>37.0</ns3:atemp>
            <ns3:hr>105</ns3:hr>
          </ns3:TrackPointExtension>
        </extensions>
      </trkpt>
      <trkpt lat="36.79469414055347442626953125" lon="-118.57319645583629608154296875">
        <ele>1567.4000244140625</ele>
        <time>2021-06-28T19:46:46.000Z</time>
        <extensions>
          <ns3:TrackPointExtension>
            <ns3:atemp>37.0</ns3:atemp>
            <ns3:hr>105</ns3:hr>
          </ns3:TrackPointExtension>
        </extensions>
      </trkpt>
      <trkpt lat="36.7947382293641567230224609375" lon="-118.57325755991041660308837890625">
        <ele>1567.800048828125</ele>
        <time>2021-06-28T19:46:51.000Z</time>
        <extensions>
          <ns3:TrackPointExtension>
            <ns3:atemp>37.0</ns3:atemp>
            <ns3:hr>108</ns3:hr>
          </ns3:TrackPointExtension>
        </extensions>
      </trkpt>
      <trkpt lat="36.794763542711734771728515625" lon="-118.5732807777822017669677734375">
        <ele>1567.5999755859375</ele>
        <time>2021-06-28T19:46:53.000Z</time>
        <extensions>
          <ns3:TrackPointExtension>
            <ns3:atemp>37.0</ns3:atemp>
            <ns3:hr>109</ns3:hr>
          </ns3:TrackPointExtension>
        </extensions>
      </trkpt>
      <trkpt lat="36.794783659279346466064453125" lon="-118.57331983745098114013671875">
        <ele>1567.800048828125</ele>
        <time>2021-06-28T19:46:56.000Z</time>
        <extensions>
          <ns3:TrackPointExtension>
            <ns3:atemp>37.0</ns3:atemp>
            <ns3:hr>109</ns3:hr>
          </ns3:TrackPointExtension>
        </extensions>
      </trkpt>
      <trkpt lat="36.7947965674102306365966796875" lon="-118.57338177971541881561279296875">
        <ele>1568</ele>
        <time>2021-06-28T19:47:00.000Z</time>
        <extensions>
          <ns3:TrackPointExtension>
            <ns3:atemp>37.0</ns3:atemp>
            <ns3:hr>108</ns3:hr>
          </ns3:TrackPointExtension>
        </extensions>
      </trkpt>
      <trkpt lat="36.794792711734771728515625" lon="-118.5733967833220958709716796875">
        <ele>1568</ele>
        <time>2021-06-28T19:47:02.000Z</time>
        <extensions>
          <ns3:TrackPointExtension>
            <ns3:atemp>37.0</ns3:atemp>
            <ns3:hr>106</ns3:hr>
          </ns3:TrackPointExtension>
        </extensions>
      </trkpt>
      <trkpt lat="36.794780306518077850341796875" lon="-118.57339066453278064727783203125">
        <ele>1568</ele>
        <time>2021-06-28T19:47:04.000Z</time>
        <extensions>
          <ns3:TrackPointExtension>
            <ns3:atemp>37.0</ns3:atemp>
            <ns3:hr>104</ns3:hr>
          </ns3:TrackPointExtension>
        </extensions>
      </trkpt>
      <trkpt lat="36.79475842975080013275146484375" lon="-118.573403656482696533203125">
        <ele>1568</ele>
        <time>2021-06-28T19:47:06.000Z</time>
        <extensions>
          <ns3:TrackPointExtension>
            <ns3:atemp>37.0</ns3:atemp>
            <ns3:hr>103</ns3:hr>
          </ns3:TrackPointExtension>
        </extensions>
      </trkpt>
      <trkpt lat="36.794797740876674652099609375" lon="-118.5734524391591548919677734375">
        <ele>1568</ele>
        <time>2021-06-28T19:47:10.000Z</time>
        <extensions>
          <ns3:TrackPointExtension>
            <ns3:atemp>37.0</ns3:atemp>
            <ns3:hr>100</ns3:hr>
          </ns3:TrackPointExtension>
        </extensions>
      </trkpt>
      <trkpt lat="36.7948042787611484527587890625" lon="-118.57346467673778533935546875">
        <ele>1568</ele>
        <time>2021-06-28T19:47:11.000Z</time>
        <extensions>
          <ns3:TrackPointExtension>
            <ns3:atemp>37.0</ns3:atemp>
            <ns3:hr>101</ns3:hr>
          </ns3:TrackPointExtension>
        </extensions>
      </trkpt>
      <trkpt lat="36.7948099784553050994873046875" lon="-118.57346358709037303924560546875">
        <ele>1568.199951171875</ele>
        <time>2021-06-28T19:47:13.000Z</time>
        <extensions>
          <ns3:TrackPointExtension>
            <ns3:atemp>37.0</ns3:atemp>
            <ns3:hr>102</ns3:hr>
          </ns3:TrackPointExtension>
        </extensions>
      </trkpt>
      <trkpt lat="36.79480771534144878387451171875" lon="-118.57345151714980602264404296875">
        <ele>1568.199951171875</ele>
        <time>2021-06-28T19:47:16.000Z</time>
        <extensions>
          <ns3:TrackPointExtension>
            <ns3:atemp>37.0</ns3:atemp>
            <ns3:hr>101</ns3:hr>
          </ns3:TrackPointExtension>
        </extensions>
      </trkpt>
      <trkpt lat="36.79481123574078083038330078125" lon="-118.57345218770205974578857421875">
        <ele>1568</ele>
        <time>2021-06-28T19:47:23.000Z</time>
        <extensions>
          <ns3:TrackPointExtension>
            <ns3:atemp>37.0</ns3:atemp>
            <ns3:hr>99</ns3:hr>
          </ns3:TrackPointExtension>
        </extensions>
      </trkpt>
      <trkpt lat="36.79481592960655689239501953125" lon="-118.57347247190773487091064453125">
        <ele>1567.800048828125</ele>
        <time>2021-06-28T19:47:34.000Z</time>
        <extensions>
          <ns3:TrackPointExtension>
            <ns3:atemp>37.0</ns3:atemp>
            <ns3:hr>99</ns3:hr>
          </ns3:TrackPointExtension>
        </extensions>
      </trkpt>
      <trkpt lat="36.7948297597467899322509765625" lon="-118.57351605780422687530517578125">
        <ele>1568</ele>
        <time>2021-06-28T19:47:47.000Z</time>
        <extensions>
          <ns3:TrackPointExtension>
            <ns3:atemp>37.0</ns3:atemp>
            <ns3:hr>99</ns3:hr>
          </ns3:TrackPointExtension>
        </extensions>
      </trkpt>
      <trkpt lat="36.7948549054563045501708984375" lon="-118.573542796075344085693359375">
        <ele>1568</ele>
        <time>2021-06-28T19:47:49.000Z</time>
        <extensions>
          <ns3:TrackPointExtension>
            <ns3:atemp>37.0</ns3:atemp>
            <ns3:hr>99</ns3:hr>
          </ns3:TrackPointExtension>
        </extensions>
      </trkpt>
      <trkpt lat="36.79490335285663604736328125" lon="-118.57360415160655975341796875">
        <ele>1568</ele>
        <time>2021-06-28T19:47:53.000Z</time>
        <extensions>
          <ns3:TrackPointExtension>
            <ns3:atemp>37.0</ns3:atemp>
            <ns3:hr>99</ns3:hr>
          </ns3:TrackPointExtension>
        </extensions>
      </trkpt>
      <trkpt lat="36.7949229665100574493408203125" lon="-118.57364513911306858062744140625">
        <ele>1567.800048828125</ele>
        <time>2021-06-28T19:47:55.000Z</time>
        <extensions>
          <ns3:TrackPointExtension>
            <ns3:atemp>37.0</ns3:atemp>
            <ns3:hr>98</ns3:hr>
          </ns3:TrackPointExtension>
        </extensions>
      </trkpt>
      <trkpt lat="36.79493059404194355010986328125" lon="-118.5736800916492938995361328125">
        <ele>1567.5999755859375</ele>
        <time>2021-06-28T19:47:57.000Z</time>
        <extensions>
          <ns3:TrackPointExtension>
            <ns3:atemp>37.0</ns3:atemp>
            <ns3:hr>101</ns3:hr>
          </ns3:TrackPointExtension>
        </extensions>
      </trkpt>
      <trkpt lat="36.794937886297702789306640625" lon="-118.5737134516239166259765625">
        <ele>1567.5999755859375</ele>
        <time>2021-06-28T19:47:59.000Z</time>
        <extensions>
          <ns3:TrackPointExtension>
            <ns3:atemp>37.0</ns3:atemp>
            <ns3:hr>98</ns3:hr>
          </ns3:TrackPointExtension>
        </extensions>
      </trkpt>
      <trkpt lat="36.79496076889336109161376953125" lon="-118.57387295924127101898193359375">
        <ele>1567.4000244140625</ele>
        <time>2021-06-28T19:48:06.000Z</time>
        <extensions>
          <ns3:TrackPointExtension>
            <ns3:atemp>37.0</ns3:atemp>
            <ns3:hr>98</ns3:hr>
          </ns3:TrackPointExtension>
        </extensions>
      </trkpt>
      <trkpt lat="36.79496898315846920013427734375" lon="-118.57392760924994945526123046875">
        <ele>1567.4000244140625</ele>
        <time>2021-06-28T19:48:09.000Z</time>
        <extensions>
          <ns3:TrackPointExtension>
            <ns3:atemp>37.0</ns3:atemp>
            <ns3:hr>97</ns3:hr>
          </ns3:TrackPointExtension>
        </extensions>
      </trkpt>
      <trkpt lat="36.79497954435646533966064453125" lon="-118.57395929284393787384033203125">
        <ele>1567.800048828125</ele>
        <time>2021-06-28T19:48:12.000Z</time>
        <extensions>
          <ns3:TrackPointExtension>
            <ns3:atemp>37.0</ns3:atemp>
            <ns3:hr>96</ns3:hr>
          </ns3:TrackPointExtension>
        </extensions>
      </trkpt>
      <trkpt lat="36.7949876748025417327880859375" lon="-118.573988713324069976806640625">
        <ele>1567.5999755859375</ele>
        <time>2021-06-28T19:48:14.000Z</time>
        <extensions>
          <ns3:TrackPointExtension>
            <ns3:atemp>37.0</ns3:atemp>
            <ns3:hr>95</ns3:hr>
          </ns3:TrackPointExtension>
        </extensions>
      </trkpt>
      <trkpt lat="36.79499580524861812591552734375" lon="-118.57401947490870952606201171875">
        <ele>1567</ele>
        <time>2021-06-28T19:48:16.000Z</time>
        <extensions>
          <ns3:TrackPointExtension>
            <ns3:atemp>37.0</ns3:atemp>
            <ns3:hr>95</ns3:hr>
          </ns3:TrackPointExtension>
        </extensions>
      </trkpt>
      <trkpt lat="36.7949980683624744415283203125" lon="-118.5740425251424312591552734375">
        <ele>1566.199951171875</ele>
        <time>2021-06-28T19:48:17.000Z</time>
        <extensions>
          <ns3:TrackPointExtension>
            <ns3:atemp>37.0</ns3:atemp>
            <ns3:hr>95</ns3:hr>
          </ns3:TrackPointExtension>
        </extensions>
      </trkpt>
      <trkpt lat="36.79500184021890163421630859375" lon="-118.57405618764460086822509765625">
        <ele>1566.199951171875</ele>
        <time>2021-06-28T19:48:18.000Z</time>
        <extensions>
          <ns3:TrackPointExtension>
            <ns3:atemp>37.0</ns3:atemp>
            <ns3:hr>96</ns3:hr>
          </ns3:TrackPointExtension>
        </extensions>
      </trkpt>
      <trkpt lat="36.79501223377883434295654296875" lon="-118.5740750469267368316650390625">
        <ele>1566.199951171875</ele>
        <time>2021-06-28T19:48:19.000Z</time>
        <extensions>
          <ns3:TrackPointExtension>
            <ns3:atemp>37.0</ns3:atemp>
            <ns3:hr>97</ns3:hr>
          </ns3:TrackPointExtension>
        </extensions>
      </trkpt>
      <trkpt lat="36.7950497008860111236572265625" lon="-118.5741367377340793609619140625">
        <ele>1566.199951171875</ele>
        <time>2021-06-28T19:48:23.000Z</time>
        <extensions>
          <ns3:TrackPointExtension>
            <ns3:atemp>37.0</ns3:atemp>
            <ns3:hr>100</ns3:hr>
          </ns3:TrackPointExtension>
        </extensions>
      </trkpt>
      <trkpt lat="36.79506151936948299407958984375" lon="-118.57414419762790203094482421875">
        <ele>1565.5999755859375</ele>
        <time>2021-06-28T19:48:24.000Z</time>
        <extensions>
          <ns3:TrackPointExtension>
            <ns3:atemp>37.0</ns3:atemp>
            <ns3:hr>100</ns3:hr>
          </ns3:TrackPointExtension>
        </extensions>
      </trkpt>
      <trkpt lat="36.79507459513843059539794921875" lon="-118.57415576465427875518798828125">
        <ele>1565</ele>
        <time>2021-06-28T19:48:25.000Z</time>
        <extensions>
          <ns3:TrackPointExtension>
            <ns3:atemp>37.0</ns3:atemp>
            <ns3:hr>100</ns3:hr>
          </ns3:TrackPointExtension>
        </extensions>
      </trkpt>
      <trkpt lat="36.79509487934410572052001953125" lon="-118.57419851236045360565185546875">
        <ele>1564.800048828125</ele>
        <time>2021-06-28T19:48:28.000Z</time>
        <extensions>
          <ns3:TrackPointExtension>
            <ns3:atemp>37.0</ns3:atemp>
            <ns3:hr>97</ns3:hr>
          </ns3:TrackPointExtension>
        </extensions>
      </trkpt>
      <trkpt lat="36.7951026745140552520751953125" lon="-118.57421561144292354583740234375">
        <ele>1564.800048828125</ele>
        <time>2021-06-28T19:48:29.000Z</time>
        <extensions>
          <ns3:TrackPointExtension>
            <ns3:atemp>37.0</ns3:atemp>
            <ns3:hr>95</ns3:hr>
          </ns3:TrackPointExtension>
        </extensions>
      </trkpt>
      <trkpt lat="36.79514299146831035614013671875" lon="-118.574328012764453887939453125">
        <ele>1564.800048828125</ele>
        <time>2021-06-28T19:48:36.000Z</time>
        <extensions>
          <ns3:TrackPointExtension>
            <ns3:atemp>37.0</ns3:atemp>
            <ns3:hr>93</ns3:hr>
          </ns3:TrackPointExtension>
        </extensions>
      </trkpt>
      <trkpt lat="36.79513678885996341705322265625" lon="-118.57437956146895885467529296875">
        <ele>1564.800048828125</ele>
        <time>2021-06-28T19:48:38.000Z</time>
        <extensions>
          <ns3:TrackPointExtension>
            <ns3:atemp>37.0</ns3:atemp>
            <ns3:hr>90</ns3:hr>
          </ns3:TrackPointExtension>
        </extensions>
      </trkpt>
      <trkpt lat="36.79513913579285144805908203125" lon="-118.574417866766452789306640625">
        <ele>1564.800048828125</ele>
        <time>2021-06-28T19:48:40.000Z</time>
        <extensions>
          <ns3:TrackPointExtension>
            <ns3:atemp>37.0</ns3:atemp>
            <ns3:hr>93</ns3:hr>
          </ns3:TrackPointExtension>
        </extensions>
      </trkpt>
      <trkpt lat="36.79514131508767604827880859375" lon="-118.57443940825760364532470703125">
        <ele>1564.4000244140625</ele>
        <time>2021-06-28T19:48:41.000Z</time>
        <extensions>
          <ns3:TrackPointExtension>
            <ns3:atemp>37.0</ns3:atemp>
            <ns3:hr>94</ns3:hr>
          </ns3:TrackPointExtension>
        </extensions>
      </trkpt>
      <trkpt lat="36.79514064453542232513427734375" lon="-118.57446111738681793212890625">
        <ele>1564.199951171875</ele>
        <time>2021-06-28T19:48:43.000Z</time>
        <extensions>
          <ns3:TrackPointExtension>
            <ns3:atemp>37.0</ns3:atemp>
            <ns3:hr>96</ns3:hr>
          </ns3:TrackPointExtension>
        </extensions>
      </trkpt>
      <trkpt lat="36.795137710869312286376953125" lon="-118.57445240020751953125">
        <ele>1563.800048828125</ele>
        <time>2021-06-28T19:48:46.000Z</time>
        <extensions>
          <ns3:TrackPointExtension>
            <ns3:atemp>37.0</ns3:atemp>
            <ns3:hr>98</ns3:hr>
          </ns3:TrackPointExtension>
        </extensions>
      </trkpt>
      <trkpt lat="36.79512321017682552337646484375" lon="-118.57448165304958820343017578125">
        <ele>1563.800048828125</ele>
        <time>2021-06-28T19:48:48.000Z</time>
        <extensions>
          <ns3:TrackPointExtension>
            <ns3:atemp>37.0</ns3:atemp>
            <ns3:hr>98</ns3:hr>
          </ns3:TrackPointExtension>
        </extensions>
      </trkpt>
      <trkpt lat="36.79512857459485530853271484375" lon="-118.574521802365779876708984375">
        <ele>1564</ele>
        <time>2021-06-28T19:48:50.000Z</time>
        <extensions>
          <ns3:TrackPointExtension>
            <ns3:atemp>37.0</ns3:atemp>
            <ns3:hr>95</ns3:hr>
          </ns3:TrackPointExtension>
        </extensions>
      </trkpt>
      <trkpt lat="36.79513729177415370941162109375" lon="-118.57453621923923492431640625">
        <ele>1564.4000244140625</ele>
        <time>2021-06-28T19:48:51.000Z</time>
        <extensions>
          <ns3:TrackPointExtension>
            <ns3:atemp>37.0</ns3:atemp>
            <ns3:hr>94</ns3:hr>
          </ns3:TrackPointExtension>
        </extensions>
      </trkpt>
      <trkpt lat="36.7951529659330844879150390625" lon="-118.5745575092732906341552734375">
        <ele>1564.4000244140625</ele>
        <time>2021-06-28T19:48:53.000Z</time>
        <extensions>
          <ns3:TrackPointExtension>
            <ns3:atemp>37.0</ns3:atemp>
            <ns3:hr>92</ns3:hr>
          </ns3:TrackPointExtension>
        </extensions>
      </trkpt>
      <trkpt lat="36.795159839093685150146484375" lon="-118.57456882484257221221923828125">
        <ele>1564.4000244140625</ele>
        <time>2021-06-28T19:48:54.000Z</time>
        <extensions>
          <ns3:TrackPointExtension>
            <ns3:atemp>37.0</ns3:atemp>
            <ns3:hr>89</ns3:hr>
          </ns3:TrackPointExtension>
        </extensions>
      </trkpt>
      <trkpt lat="36.7951767705380916595458984375" lon="-118.5746121592819690704345703125">
        <ele>1564.5999755859375</ele>
        <time>2021-06-28T19:48:57.000Z</time>
        <extensions>
          <ns3:TrackPointExtension>
            <ns3:atemp>37.0</ns3:atemp>
            <ns3:hr>86</ns3:hr>
          </ns3:TrackPointExtension>
        </extensions>
      </trkpt>
      <trkpt lat="36.795190684497356414794921875" lon="-118.5746817290782928466796875">
        <ele>1563.800048828125</ele>
        <time>2021-06-28T19:49:02.000Z</time>
        <extensions>
          <ns3:TrackPointExtension>
            <ns3:atemp>37.0</ns3:atemp>
            <ns3:hr>88</ns3:hr>
          </ns3:TrackPointExtension>
        </extensions>
      </trkpt>
      <trkpt lat="36.7951821349561214447021484375" lon="-118.57478708960115909576416015625">
        <ele>1563.5999755859375</ele>
        <time>2021-06-28T19:49:08.000Z</time>
        <extensions>
          <ns3:TrackPointExtension>
            <ns3:atemp>37.0</ns3:atemp>
            <ns3:hr>89</ns3:hr>
          </ns3:TrackPointExtension>
        </extensions>
      </trkpt>
      <trkpt lat="36.795182637870311737060546875" lon="-118.574801422655582427978515625">
        <ele>1563.5999755859375</ele>
        <time>2021-06-28T19:49:09.000Z</time>
        <extensions>
          <ns3:TrackPointExtension>
            <ns3:atemp>37.0</ns3:atemp>
            <ns3:hr>88</ns3:hr>
          </ns3:TrackPointExtension>
        </extensions>
      </trkpt>
      <trkpt lat="36.7951821349561214447021484375" lon="-118.5748659633100032806396484375">
        <ele>1563.5999755859375</ele>
        <time>2021-06-28T19:49:13.000Z</time>
        <extensions>
          <ns3:TrackPointExtension>
            <ns3:atemp>37.0</ns3:atemp>
            <ns3:hr>85</ns3:hr>
          </ns3:TrackPointExtension>
        </extensions>
      </trkpt>
      <trkpt lat="36.79518163204193115234375" lon="-118.57488222420215606689453125">
        <ele>1563.5999755859375</ele>
        <time>2021-06-28T19:49:14.000Z</time>
        <extensions>
          <ns3:TrackPointExtension>
            <ns3:atemp>37.0</ns3:atemp>
            <ns3:hr>88</ns3:hr>
          </ns3:TrackPointExtension>
        </extensions>
      </trkpt>
      <trkpt lat="36.79517903365194797515869140625" lon="-118.57491784729063510894775390625">
        <ele>1563.5999755859375</ele>
        <time>2021-06-28T19:49:16.000Z</time>
        <extensions>
          <ns3:TrackPointExtension>
            <ns3:atemp>37.0</ns3:atemp>
            <ns3:hr>91</ns3:hr>
          </ns3:TrackPointExtension>
        </extensions>
      </trkpt>
      <trkpt lat="36.79517517797648906707763671875" lon="-118.57493025250732898712158203125">
        <ele>1563.5999755859375</ele>
        <time>2021-06-28T19:49:17.000Z</time>
        <extensions>
          <ns3:TrackPointExtension>
            <ns3:atemp>37.0</ns3:atemp>
            <ns3:hr>90</ns3:hr>
          </ns3:TrackPointExtension>
        </extensions>
      </trkpt>
      <trkpt lat="36.79517568089067935943603515625" lon="-118.574964366853237152099609375">
        <ele>1563.5999755859375</ele>
        <time>2021-06-28T19:49:20.000Z</time>
        <extensions>
          <ns3:TrackPointExtension>
            <ns3:atemp>37.0</ns3:atemp>
            <ns3:hr>91</ns3:hr>
          </ns3:TrackPointExtension>
        </extensions>
      </trkpt>
      <trkpt lat="36.79518087767064571380615234375" lon="-118.57497350312769412994384765625">
        <ele>1563.4000244140625</ele>
        <time>2021-06-28T19:49:23.000Z</time>
        <extensions>
          <ns3:TrackPointExtension>
            <ns3:atemp>37.0</ns3:atemp>
            <ns3:hr>89</ns3:hr>
          </ns3:TrackPointExtension>
        </extensions>
      </trkpt>
      <trkpt lat="36.79518724791705608367919921875" lon="-118.57497786171734333038330078125">
        <ele>1563.4000244140625</ele>
        <time>2021-06-28T19:49:25.000Z</time>
        <extensions>
          <ns3:TrackPointExtension>
            <ns3:atemp>37.0</ns3:atemp>
            <ns3:hr>88</ns3:hr>
          </ns3:TrackPointExtension>
        </extensions>
      </trkpt>
      <trkpt lat="36.79518925957381725311279296875" lon="-118.57498372904956340789794921875">
        <ele>1563.4000244140625</ele>
        <time>2021-06-28T19:49:26.000Z</time>
        <extensions>
          <ns3:TrackPointExtension>
            <ns3:atemp>37.0</ns3:atemp>
            <ns3:hr>88</ns3:hr>
          </ns3:TrackPointExtension>
        </extensions>
      </trkpt>
      <trkpt lat="36.7951851524412631988525390625" lon="-118.57507308013737201690673828125">
        <ele>1563.4000244140625</ele>
        <time>2021-06-28T19:49:32.000Z</time>
        <extensions>
          <ns3:TrackPointExtension>
            <ns3:atemp>37.0</ns3:atemp>
            <ns3:hr>87</ns3:hr>
          </ns3:TrackPointExtension>
        </extensions>
      </trkpt>
      <trkpt lat="36.79518640972673892974853515625" lon="-118.57509504072368144989013671875">
        <ele>1563.199951171875</ele>
        <time>2021-06-28T19:49:34.000Z</time>
        <extensions>
          <ns3:TrackPointExtension>
            <ns3:atemp>37.0</ns3:atemp>
            <ns3:hr>86</ns3:hr>
          </ns3:TrackPointExtension>
        </extensions>
      </trkpt>
      <trkpt lat="36.795192696154117584228515625" lon="-118.57518791221082210540771484375">
        <ele>1562.800048828125</ele>
        <time>2021-06-28T19:49:41.000Z</time>
        <extensions>
          <ns3:TrackPointExtension>
            <ns3:atemp>37.0</ns3:atemp>
            <ns3:hr>87</ns3:hr>
          </ns3:TrackPointExtension>
        </extensions>
      </trkpt>
      <trkpt lat="36.795194707810878753662109375" lon="-118.57519998215138912200927734375">
        <ele>1562.5999755859375</ele>
        <time>2021-06-28T19:49:42.000Z</time>
        <extensions>
          <ns3:TrackPointExtension>
            <ns3:atemp>37.0</ns3:atemp>
            <ns3:hr>90</ns3:hr>
          </ns3:TrackPointExtension>
        </extensions>
      </trkpt>
      <trkpt lat="36.7951990664005279541015625" lon="-118.57521305792033672332763671875">
        <ele>1562.5999755859375</ele>
        <time>2021-06-28T19:49:43.000Z</time>
        <extensions>
          <ns3:TrackPointExtension>
            <ns3:atemp>37.0</ns3:atemp>
            <ns3:hr>87</ns3:hr>
          </ns3:TrackPointExtension>
        </extensions>
      </trkpt>
      <trkpt lat="36.7952029220759868621826171875" lon="-118.57529260218143463134765625">
        <ele>1562.4000244140625</ele>
        <time>2021-06-28T19:49:49.000Z</time>
        <extensions>
          <ns3:TrackPointExtension>
            <ns3:atemp>37.0</ns3:atemp>
            <ns3:hr>87</ns3:hr>
          </ns3:TrackPointExtension>
        </extensions>
      </trkpt>
      <trkpt lat="36.79520401172339916229248046875" lon="-118.57530794106423854827880859375">
        <ele>1562.199951171875</ele>
        <time>2021-06-28T19:49:50.000Z</time>
        <extensions>
          <ns3:TrackPointExtension>
            <ns3:atemp>37.0</ns3:atemp>
            <ns3:hr>87</ns3:hr>
          </ns3:TrackPointExtension>
        </extensions>
      </trkpt>
      <trkpt lat="36.795207448303699493408203125" lon="-118.57539528049528598785400390625">
        <ele>1561.5999755859375</ele>
        <time>2021-06-28T19:49:57.000Z</time>
        <extensions>
          <ns3:TrackPointExtension>
            <ns3:atemp>37.0</ns3:atemp>
            <ns3:hr>89</ns3:hr>
          </ns3:TrackPointExtension>
        </extensions>
      </trkpt>
      <trkpt lat="36.79522597230970859527587890625" lon="-118.57549234293401241302490234375">
        <ele>1561.5999755859375</ele>
        <time>2021-06-28T19:50:03.000Z</time>
        <extensions>
          <ns3:TrackPointExtension>
            <ns3:atemp>37.0</ns3:atemp>
            <ns3:hr>92</ns3:hr>
          </ns3:TrackPointExtension>
        </extensions>
      </trkpt>
      <trkpt lat="36.79524055682122707366943359375" lon="-118.57553534209728240966796875">
        <ele>1561.5999755859375</ele>
        <time>2021-06-28T19:50:06.000Z</time>
        <extensions>
          <ns3:TrackPointExtension>
            <ns3:atemp>38.0</ns3:atemp>
            <ns3:hr>92</ns3:hr>
          </ns3:TrackPointExtension>
        </extensions>
      </trkpt>
      <trkpt lat="36.7952602542936801910400390625" lon="-118.57563056051731109619140625">
        <ele>1561.4000244140625</ele>
        <time>2021-06-28T19:50:13.000Z</time>
        <extensions>
          <ns3:TrackPointExtension>
            <ns3:atemp>38.0</ns3:atemp>
            <ns3:hr>90</ns3:hr>
          </ns3:TrackPointExtension>
        </extensions>
      </trkpt>
      <trkpt lat="36.7952465079724788665771484375" lon="-118.575661741197109222412109375">
        <ele>1561.199951171875</ele>
        <time>2021-06-28T19:50:15.000Z</time>
        <extensions>
          <ns3:TrackPointExtension>
            <ns3:atemp>38.0</ns3:atemp>
            <ns3:hr>89</ns3:hr>
          </ns3:TrackPointExtension>
        </extensions>
      </trkpt>
      <trkpt lat="36.79523871280252933502197265625" lon="-118.57568085193634033203125">
        <ele>1561</ele>
        <time>2021-06-28T19:50:16.000Z</time>
        <extensions>
          <ns3:TrackPointExtension>
            <ns3:atemp>38.0</ns3:atemp>
            <ns3:hr>89</ns3:hr>
          </ns3:TrackPointExtension>
        </extensions>
      </trkpt>
      <trkpt lat="36.79525564424693584442138671875" lon="-118.57572519220411777496337890625">
        <ele>1561</ele>
        <time>2021-06-28T19:50:18.000Z</time>
        <extensions>
          <ns3:TrackPointExtension>
            <ns3:atemp>38.0</ns3:atemp>
            <ns3:hr>88</ns3:hr>
          </ns3:TrackPointExtension>
        </extensions>
      </trkpt>
      <trkpt lat="36.7952709831297397613525390625" lon="-118.575765676796436309814453125">
        <ele>1560.800048828125</ele>
        <time>2021-06-28T19:50:21.000Z</time>
        <extensions>
          <ns3:TrackPointExtension>
            <ns3:atemp>38.0</ns3:atemp>
            <ns3:hr>87</ns3:hr>
          </ns3:TrackPointExtension>
        </extensions>
      </trkpt>
      <trkpt lat="36.7953517846763134002685546875" lon="-118.57596692629158496856689453125">
        <ele>1560.199951171875</ele>
        <time>2021-06-28T19:50:34.000Z</time>
        <extensions>
          <ns3:TrackPointExtension>
            <ns3:atemp>38.0</ns3:atemp>
            <ns3:hr>85</ns3:hr>
          </ns3:TrackPointExtension>
        </extensions>
      </trkpt>
      <trkpt lat="36.7953668721020221710205078125" lon="-118.5759985260665416717529296875">
        <ele>1560</ele>
        <time>2021-06-28T19:50:36.000Z</time>
        <extensions>
          <ns3:TrackPointExtension>
            <ns3:atemp>38.0</ns3:atemp>
            <ns3:hr>83</ns3:hr>
          </ns3:TrackPointExtension>
        </extensions>
      </trkpt>
      <trkpt lat="36.795393526554107666015625" lon="-118.5760451294481754302978515625">
        <ele>1560</ele>
        <time>2021-06-28T19:50:40.000Z</time>
        <extensions>
          <ns3:TrackPointExtension>
            <ns3:atemp>38.0</ns3:atemp>
            <ns3:hr>83</ns3:hr>
          </ns3:TrackPointExtension>
        </extensions>
      </trkpt>
      <trkpt lat="36.79543468169867992401123046875" lon="-118.5761165432631969451904296875">
        <ele>1560</ele>
        <time>2021-06-28T19:50:47.000Z</time>
        <extensions>
          <ns3:TrackPointExtension>
            <ns3:atemp>38.0</ns3:atemp>
            <ns3:hr>85</ns3:hr>
          </ns3:TrackPointExtension>
        </extensions>
      </trkpt>
      <trkpt lat="36.79544071666896343231201171875" lon="-118.57614093460142612457275390625">
        <ele>1560.199951171875</ele>
        <time>2021-06-28T19:50:49.000Z</time>
        <extensions>
          <ns3:TrackPointExtension>
            <ns3:atemp>38.0</ns3:atemp>
            <ns3:hr>84</ns3:hr>
          </ns3:TrackPointExtension>
        </extensions>
      </trkpt>
      <trkpt lat="36.79546116851270198822021484375" lon="-118.57621285133063793182373046875">
        <ele>1560.800048828125</ele>
        <time>2021-06-28T19:50:54.000Z</time>
        <extensions>
          <ns3:TrackPointExtension>
            <ns3:atemp>38.0</ns3:atemp>
            <ns3:hr>86</ns3:hr>
          </ns3:TrackPointExtension>
        </extensions>
      </trkpt>
      <trkpt lat="36.79550626315176486968994140625" lon="-118.5763026215136051177978515625">
        <ele>1560.199951171875</ele>
        <time>2021-06-28T19:51:01.000Z</time>
        <extensions>
          <ns3:TrackPointExtension>
            <ns3:atemp>38.0</ns3:atemp>
            <ns3:hr>86</ns3:hr>
          </ns3:TrackPointExtension>
        </extensions>
      </trkpt>
      <trkpt lat="36.7955036647617816925048828125" lon="-118.5763599537312984466552734375">
        <ele>1559.5999755859375</ele>
        <time>2021-06-28T19:51:05.000Z</time>
        <extensions>
          <ns3:TrackPointExtension>
            <ns3:atemp>38.0</ns3:atemp>
            <ns3:hr>83</ns3:hr>
          </ns3:TrackPointExtension>
        </extensions>
      </trkpt>
      <trkpt lat="36.7955021560192108154296875" lon="-118.57636791653931140899658203125">
        <ele>1559.5999755859375</ele>
        <time>2021-06-28T19:51:06.000Z</time>
        <extensions>
          <ns3:TrackPointExtension>
            <ns3:atemp>38.0</ns3:atemp>
            <ns3:hr>86</ns3:hr>
          </ns3:TrackPointExtension>
        </extensions>
      </trkpt>
      <trkpt lat="36.795491091907024383544921875" lon="-118.57643782161176204681396484375">
        <ele>1559.800048828125</ele>
        <time>2021-06-28T19:51:12.000Z</time>
        <extensions>
          <ns3:TrackPointExtension>
            <ns3:atemp>38.0</ns3:atemp>
            <ns3:hr>86</ns3:hr>
          </ns3:TrackPointExtension>
        </extensions>
      </trkpt>
      <trkpt lat="36.79547508247196674346923828125" lon="-118.576541841030120849609375">
        <ele>1559.5999755859375</ele>
        <time>2021-06-28T19:51:19.000Z</time>
        <extensions>
          <ns3:TrackPointExtension>
            <ns3:atemp>38.0</ns3:atemp>
            <ns3:hr>89</ns3:hr>
          </ns3:TrackPointExtension>
        </extensions>
      </trkpt>
      <trkpt lat="36.79547131061553955078125" lon="-118.5766067169606685638427734375">
        <ele>1559</ele>
        <time>2021-06-28T19:51:23.000Z</time>
        <extensions>
          <ns3:TrackPointExtension>
            <ns3:atemp>38.0</ns3:atemp>
            <ns3:hr>88</ns3:hr>
          </ns3:TrackPointExtension>
        </extensions>
      </trkpt>
      <trkpt lat="36.79547474719583988189697265625" lon="-118.57671014964580535888671875">
        <ele>1559</ele>
        <time>2021-06-28T19:51:28.000Z</time>
        <extensions>
          <ns3:TrackPointExtension>
            <ns3:atemp>38.0</ns3:atemp>
            <ns3:hr>86</ns3:hr>
          </ns3:TrackPointExtension>
        </extensions>
      </trkpt>
      <trkpt lat="36.7954967916011810302734375" lon="-118.57686328701674938201904296875">
        <ele>1558.5999755859375</ele>
        <time>2021-06-28T19:51:37.000Z</time>
        <extensions>
          <ns3:TrackPointExtension>
            <ns3:atemp>38.0</ns3:atemp>
            <ns3:hr>85</ns3:hr>
          </ns3:TrackPointExtension>
        </extensions>
      </trkpt>
      <trkpt lat="36.79548664949834346771240234375" lon="-118.5770734213292598724365234375">
        <ele>1558.4000244140625</ele>
        <time>2021-06-28T19:51:49.000Z</time>
        <extensions>
          <ns3:TrackPointExtension>
            <ns3:atemp>38.0</ns3:atemp>
            <ns3:hr>86</ns3:hr>
          </ns3:TrackPointExtension>
        </extensions>
      </trkpt>
      <trkpt lat="36.79547290317714214324951171875" lon="-118.57713771052658557891845703125">
        <ele>1558.4000244140625</ele>
        <time>2021-06-28T19:51:53.000Z</time>
        <extensions>
          <ns3:TrackPointExtension>
            <ns3:atemp>38.0</ns3:atemp>
            <ns3:hr>89</ns3:hr>
          </ns3:TrackPointExtension>
        </extensions>
      </trkpt>
      <trkpt lat="36.79547105915844440460205078125" lon="-118.57720644213259220123291015625">
        <ele>1558.199951171875</ele>
        <time>2021-06-28T19:51:57.000Z</time>
        <extensions>
          <ns3:TrackPointExtension>
            <ns3:atemp>38.0</ns3:atemp>
            <ns3:hr>87</ns3:hr>
          </ns3:TrackPointExtension>
        </extensions>
      </trkpt>
      <trkpt lat="36.79546259343624114990234375" lon="-118.57733317650854587554931640625">
        <ele>1558.199951171875</ele>
        <time>2021-06-28T19:52:06.000Z</time>
        <extensions>
          <ns3:TrackPointExtension>
            <ns3:atemp>38.0</ns3:atemp>
            <ns3:hr>90</ns3:hr>
          </ns3:TrackPointExtension>
        </extensions>
      </trkpt>
      <trkpt lat="36.795460917055606842041015625" lon="-118.5773480124771595001220703125">
        <ele>1558.199951171875</ele>
        <time>2021-06-28T19:52:07.000Z</time>
        <extensions>
          <ns3:TrackPointExtension>
            <ns3:atemp>38.0</ns3:atemp>
            <ns3:hr>87</ns3:hr>
          </ns3:TrackPointExtension>
        </extensions>
      </trkpt>
      <trkpt lat="36.79545278660953044891357421875" lon="-118.57736033387482166290283203125">
        <ele>1557.800048828125</ele>
        <time>2021-06-28T19:52:08.000Z</time>
        <extensions>
          <ns3:TrackPointExtension>
            <ns3:atemp>38.0</ns3:atemp>
            <ns3:hr>87</ns3:hr>
          </ns3:TrackPointExtension>
        </extensions>
      </trkpt>
      <trkpt lat="36.79544247686862945556640625" lon="-118.5774006508290767669677734375">
        <ele>1557.5999755859375</ele>
        <time>2021-06-28T19:52:11.000Z</time>
        <extensions>
          <ns3:TrackPointExtension>
            <ns3:atemp>38.0</ns3:atemp>
            <ns3:hr>84</ns3:hr>
          </ns3:TrackPointExtension>
        </extensions>
      </trkpt>
      <trkpt lat="36.79543384350836277008056640625" lon="-118.57743292115628719329833984375">
        <ele>1557.4000244140625</ele>
        <time>2021-06-28T19:52:13.000Z</time>
        <extensions>
          <ns3:TrackPointExtension>
            <ns3:atemp>38.0</ns3:atemp>
            <ns3:hr>86</ns3:hr>
          </ns3:TrackPointExtension>
        </extensions>
      </trkpt>
      <trkpt lat="36.795404590666294097900390625" lon="-118.577514477074146270751953125">
        <ele>1557.800048828125</ele>
        <time>2021-06-28T19:52:18.000Z</time>
        <extensions>
          <ns3:TrackPointExtension>
            <ns3:atemp>38.0</ns3:atemp>
            <ns3:hr>87</ns3:hr>
          </ns3:TrackPointExtension>
        </extensions>
      </trkpt>
      <trkpt lat="36.79539210163056850433349609375" lon="-118.5776504315435886383056640625">
        <ele>1557.4000244140625</ele>
        <time>2021-06-28T19:52:25.000Z</time>
        <extensions>
          <ns3:TrackPointExtension>
            <ns3:atemp>38.0</ns3:atemp>
            <ns3:hr>88</ns3:hr>
          </ns3:TrackPointExtension>
        </extensions>
      </trkpt>
      <trkpt lat="36.79538019932806491851806640625" lon="-118.57767499051988124847412109375">
        <ele>1557.4000244140625</ele>
        <time>2021-06-28T19:52:27.000Z</time>
        <extensions>
          <ns3:TrackPointExtension>
            <ns3:atemp>38.0</ns3:atemp>
            <ns3:hr>88</ns3:hr>
          </ns3:TrackPointExtension>
        </extensions>
      </trkpt>
      <trkpt lat="36.79534834809601306915283203125" lon="-118.577816896140575408935546875">
        <ele>1556.5999755859375</ele>
        <time>2021-06-28T19:52:36.000Z</time>
        <extensions>
          <ns3:TrackPointExtension>
            <ns3:atemp>38.0</ns3:atemp>
            <ns3:hr>90</ns3:hr>
          </ns3:TrackPointExtension>
        </extensions>
      </trkpt>
      <trkpt lat="36.79534683935344219207763671875" lon="-118.57783525250852108001708984375">
        <ele>1556.800048828125</ele>
        <time>2021-06-28T19:52:37.000Z</time>
        <extensions>
          <ns3:TrackPointExtension>
            <ns3:atemp>38.0</ns3:atemp>
            <ns3:hr>89</ns3:hr>
          </ns3:TrackPointExtension>
        </extensions>
      </trkpt>
      <trkpt lat="36.79532655514776706695556640625" lon="-118.5779862105846405029296875">
        <ele>1556.5999755859375</ele>
        <time>2021-06-28T19:52:46.000Z</time>
        <extensions>
          <ns3:TrackPointExtension>
            <ns3:atemp>38.0</ns3:atemp>
            <ns3:hr>91</ns3:hr>
          </ns3:TrackPointExtension>
        </extensions>
      </trkpt>
      <trkpt lat="36.7953105457127094268798828125" lon="-118.578045554459095001220703125">
        <ele>1557.4000244140625</ele>
        <time>2021-06-28T19:52:50.000Z</time>
        <extensions>
          <ns3:TrackPointExtension>
            <ns3:atemp>38.0</ns3:atemp>
            <ns3:hr>91</ns3:hr>
          </ns3:TrackPointExtension>
        </extensions>
      </trkpt>
      <trkpt lat="36.79529218934476375579833984375" lon="-118.5781141184270381927490234375">
        <ele>1557.4000244140625</ele>
        <time>2021-06-28T19:52:54.000Z</time>
        <extensions>
          <ns3:TrackPointExtension>
            <ns3:atemp>38.0</ns3:atemp>
            <ns3:hr>92</ns3:hr>
          </ns3:TrackPointExtension>
        </extensions>
      </trkpt>
      <trkpt lat="36.79527659900486469268798828125" lon="-118.5781570337712764739990234375">
        <ele>1557.199951171875</ele>
        <time>2021-06-28T19:52:57.000Z</time>
        <extensions>
          <ns3:TrackPointExtension>
            <ns3:atemp>38.0</ns3:atemp>
            <ns3:hr>89</ns3:hr>
          </ns3:TrackPointExtension>
        </extensions>
      </trkpt>
      <trkpt lat="36.7952676303684711456298828125" lon="-118.5781727917492389678955078125">
        <ele>1557.199951171875</ele>
        <time>2021-06-28T19:52:58.000Z</time>
        <extensions>
          <ns3:TrackPointExtension>
            <ns3:atemp>38.0</ns3:atemp>
            <ns3:hr>92</ns3:hr>
          </ns3:TrackPointExtension>
        </extensions>
      </trkpt>
      <trkpt lat="36.79524240083992481231689453125" lon="-118.57826583087444305419921875">
        <ele>1557</ele>
        <time>2021-06-28T19:53:04.000Z</time>
        <extensions>
          <ns3:TrackPointExtension>
            <ns3:atemp>38.0</ns3:atemp>
            <ns3:hr>92</ns3:hr>
          </ns3:TrackPointExtension>
        </extensions>
      </trkpt>
      <trkpt lat="36.7952119745314121246337890625" lon="-118.57837446033954620361328125">
        <ele>1557</ele>
        <time>2021-06-28T19:53:11.000Z</time>
        <extensions>
          <ns3:TrackPointExtension>
            <ns3:atemp>38.0</ns3:atemp>
            <ns3:hr>95</ns3:hr>
          </ns3:TrackPointExtension>
        </extensions>
      </trkpt>
      <trkpt lat="36.7951999045908451080322265625" lon="-118.57842869125306606292724609375">
        <ele>1557.4000244140625</ele>
        <time>2021-06-28T19:53:15.000Z</time>
        <extensions>
          <ns3:TrackPointExtension>
            <ns3:atemp>38.0</ns3:atemp>
            <ns3:hr>97</ns3:hr>
          </ns3:TrackPointExtension>
        </extensions>
      </trkpt>
      <trkpt lat="36.7951963841915130615234375" lon="-118.57846892438828945159912109375">
        <ele>1557.4000244140625</ele>
        <time>2021-06-28T19:53:18.000Z</time>
        <extensions>
          <ns3:TrackPointExtension>
            <ns3:atemp>38.0</ns3:atemp>
            <ns3:hr>99</ns3:hr>
          </ns3:TrackPointExtension>
        </extensions>
      </trkpt>
      <trkpt lat="36.79519169032573699951171875" lon="-118.57847906649112701416015625">
        <ele>1557.4000244140625</ele>
        <time>2021-06-28T19:53:19.000Z</time>
        <extensions>
          <ns3:TrackPointExtension>
            <ns3:atemp>38.0</ns3:atemp>
            <ns3:hr>99</ns3:hr>
          </ns3:TrackPointExtension>
        </extensions>
      </trkpt>
      <trkpt lat="36.79517090320587158203125" lon="-118.57852072454988956451416015625">
        <ele>1557</ele>
        <time>2021-06-28T19:53:22.000Z</time>
        <extensions>
          <ns3:TrackPointExtension>
            <ns3:atemp>38.0</ns3:atemp>
            <ns3:hr>97</ns3:hr>
          </ns3:TrackPointExtension>
        </extensions>
      </trkpt>
      <trkpt lat="36.79515548050403594970703125" lon="-118.578544445335865020751953125">
        <ele>1557</ele>
        <time>2021-06-28T19:53:24.000Z</time>
        <extensions>
          <ns3:TrackPointExtension>
            <ns3:atemp>38.0</ns3:atemp>
            <ns3:hr>93</ns3:hr>
          </ns3:TrackPointExtension>
        </extensions>
      </trkpt>
      <trkpt lat="36.79513175971806049346923828125" lon="-118.57857889495790004730224609375">
        <ele>1556.800048828125</ele>
        <time>2021-06-28T19:53:27.000Z</time>
        <extensions>
          <ns3:TrackPointExtension>
            <ns3:atemp>38.0</ns3:atemp>
            <ns3:hr>89</ns3:hr>
          </ns3:TrackPointExtension>
        </extensions>
      </trkpt>
      <trkpt lat="36.79512589238584041595458984375" lon="-118.57859574258327484130859375">
        <ele>1556.5999755859375</ele>
        <time>2021-06-28T19:53:28.000Z</time>
        <extensions>
          <ns3:TrackPointExtension>
            <ns3:atemp>38.0</ns3:atemp>
            <ns3:hr>92</ns3:hr>
          </ns3:TrackPointExtension>
        </extensions>
      </trkpt>
      <trkpt lat="36.7951201088726520538330078125" lon="-118.57860781252384185791015625">
        <ele>1556.5999755859375</ele>
        <time>2021-06-28T19:53:29.000Z</time>
        <extensions>
          <ns3:TrackPointExtension>
            <ns3:atemp>38.0</ns3:atemp>
            <ns3:hr>88</ns3:hr>
          </ns3:TrackPointExtension>
        </extensions>
      </trkpt>
      <trkpt lat="36.79510728456079959869384765625" lon="-118.57863019220530986785888671875">
        <ele>1556.5999755859375</ele>
        <time>2021-06-28T19:53:31.000Z</time>
        <extensions>
          <ns3:TrackPointExtension>
            <ns3:atemp>38.0</ns3:atemp>
            <ns3:hr>87</ns3:hr>
          </ns3:TrackPointExtension>
        </extensions>
      </trkpt>
      <trkpt lat="36.79509353823959827423095703125" lon="-118.57866656966507434844970703125">
        <ele>1556.5999755859375</ele>
        <time>2021-06-28T19:53:33.000Z</time>
        <extensions>
          <ns3:TrackPointExtension>
            <ns3:atemp>38.0</ns3:atemp>
            <ns3:hr>85</ns3:hr>
          </ns3:TrackPointExtension>
        </extensions>
      </trkpt>
      <trkpt lat="36.79507593624293804168701171875" lon="-118.57870328240096569061279296875">
        <ele>1555.5999755859375</ele>
        <time>2021-06-28T19:53:36.000Z</time>
        <extensions>
          <ns3:TrackPointExtension>
            <ns3:atemp>38.0</ns3:atemp>
            <ns3:hr>85</ns3:hr>
          </ns3:TrackPointExtension>
        </extensions>
      </trkpt>
      <trkpt lat="36.7950624413788318634033203125" lon="-118.5787253268063068389892578125">
        <ele>1555.5999755859375</ele>
        <time>2021-06-28T19:53:38.000Z</time>
        <extensions>
          <ns3:TrackPointExtension>
            <ns3:atemp>38.0</ns3:atemp>
            <ns3:hr>86</ns3:hr>
          </ns3:TrackPointExtension>
        </extensions>
      </trkpt>
      <trkpt lat="36.79502547718584537506103515625" lon="-118.57878777198493480682373046875">
        <ele>1556</ele>
        <time>2021-06-28T19:53:44.000Z</time>
        <extensions>
          <ns3:TrackPointExtension>
            <ns3:atemp>38.0</ns3:atemp>
            <ns3:hr>84</ns3:hr>
          </ns3:TrackPointExtension>
        </extensions>
      </trkpt>
      <trkpt lat="36.79501407779753208160400390625" lon="-118.57878928072750568389892578125">
        <ele>1556</ele>
        <time>2021-06-28T19:53:45.000Z</time>
        <extensions>
          <ns3:TrackPointExtension>
            <ns3:atemp>38.0</ns3:atemp>
            <ns3:hr>81</ns3:hr>
          </ns3:TrackPointExtension>
        </extensions>
      </trkpt>
      <trkpt lat="36.79500066675245761871337890625" lon="-118.57879280112683773040771484375">
        <ele>1556.199951171875</ele>
        <time>2021-06-28T19:53:46.000Z</time>
        <extensions>
          <ns3:TrackPointExtension>
            <ns3:atemp>38.0</ns3:atemp>
            <ns3:hr>81</ns3:hr>
          </ns3:TrackPointExtension>
        </extensions>
      </trkpt>
      <trkpt lat="36.7949662171304225921630859375" lon="-118.57881241478025913238525390625">
        <ele>1556.4000244140625</ele>
        <time>2021-06-28T19:53:49.000Z</time>
        <extensions>
          <ns3:TrackPointExtension>
            <ns3:atemp>38.0</ns3:atemp>
            <ns3:hr>85</ns3:hr>
          </ns3:TrackPointExtension>
        </extensions>
      </trkpt>
      <trkpt lat="36.7949514649808406829833984375" lon="-118.57882347889244556427001953125">
        <ele>1556.5999755859375</ele>
        <time>2021-06-28T19:53:50.000Z</time>
        <extensions>
          <ns3:TrackPointExtension>
            <ns3:atemp>38.0</ns3:atemp>
            <ns3:hr>86</ns3:hr>
          </ns3:TrackPointExtension>
        </extensions>
      </trkpt>
      <trkpt lat="36.79494358599185943603515625" lon="-118.578836135566234588623046875">
        <ele>1556.4000244140625</ele>
        <time>2021-06-28T19:53:51.000Z</time>
        <extensions>
          <ns3:TrackPointExtension>
            <ns3:atemp>38.0</ns3:atemp>
            <ns3:hr>86</ns3:hr>
          </ns3:TrackPointExtension>
        </extensions>
      </trkpt>
      <trkpt lat="36.794932186603546142578125" lon="-118.578853905200958251953125">
        <ele>1556.4000244140625</ele>
        <time>2021-06-28T19:53:52.000Z</time>
        <extensions>
          <ns3:TrackPointExtension>
            <ns3:atemp>38.0</ns3:atemp>
            <ns3:hr>87</ns3:hr>
          </ns3:TrackPointExtension>
        </extensions>
      </trkpt>
      <trkpt lat="36.79488147608935832977294921875" lon="-118.57891601510345935821533203125">
        <ele>1555.800048828125</ele>
        <time>2021-06-28T19:53:58.000Z</time>
        <extensions>
          <ns3:TrackPointExtension>
            <ns3:atemp>38.0</ns3:atemp>
            <ns3:hr>87</ns3:hr>
          </ns3:TrackPointExtension>
        </extensions>
      </trkpt>
      <trkpt lat="36.794874854385852813720703125" lon="-118.5789295099675655364990234375">
        <ele>1555.800048828125</ele>
        <time>2021-06-28T19:53:59.000Z</time>
        <extensions>
          <ns3:TrackPointExtension>
            <ns3:atemp>38.0</ns3:atemp>
            <ns3:hr>87</ns3:hr>
          </ns3:TrackPointExtension>
        </extensions>
      </trkpt>
      <trkpt lat="36.79485934786498546600341796875" lon="-118.5789580084383487701416015625">
        <ele>1556</ele>
        <time>2021-06-28T19:54:01.000Z</time>
        <extensions>
          <ns3:TrackPointExtension>
            <ns3:atemp>38.0</ns3:atemp>
            <ns3:hr>87</ns3:hr>
          </ns3:TrackPointExtension>
        </extensions>
      </trkpt>
      <trkpt lat="36.7948371358215808868408203125" lon="-118.57899396680295467376708984375">
        <ele>1556</ele>
        <time>2021-06-28T19:54:04.000Z</time>
        <extensions>
          <ns3:TrackPointExtension>
            <ns3:atemp>38.0</ns3:atemp>
            <ns3:hr>89</ns3:hr>
          </ns3:TrackPointExtension>
        </extensions>
      </trkpt>
      <trkpt lat="36.7947975732386112213134765625" lon="-118.57899606227874755859375">
        <ele>1555.5999755859375</ele>
        <time>2021-06-28T19:54:08.000Z</time>
        <extensions>
          <ns3:TrackPointExtension>
            <ns3:atemp>38.0</ns3:atemp>
            <ns3:hr>89</ns3:hr>
          </ns3:TrackPointExtension>
        </extensions>
      </trkpt>
      <trkpt lat="36.79477670229971408843994140625" lon="-118.57901684939861297607421875">
        <ele>1555.5999755859375</ele>
        <time>2021-06-28T19:54:10.000Z</time>
        <extensions>
          <ns3:TrackPointExtension>
            <ns3:atemp>38.0</ns3:atemp>
            <ns3:hr>89</ns3:hr>
          </ns3:TrackPointExtension>
        </extensions>
      </trkpt>
      <trkpt lat="36.79475985467433929443359375" lon="-118.5790438391268253326416015625">
        <ele>1555.199951171875</ele>
        <time>2021-06-28T19:54:12.000Z</time>
        <extensions>
          <ns3:TrackPointExtension>
            <ns3:atemp>38.0</ns3:atemp>
            <ns3:hr>88</ns3:hr>
          </ns3:TrackPointExtension>
        </extensions>
      </trkpt>
      <trkpt lat="36.7947207950055599212646484375" lon="-118.57911483384668827056884765625">
        <ele>1555.4000244140625</ele>
        <time>2021-06-28T19:54:17.000Z</time>
        <extensions>
          <ns3:TrackPointExtension>
            <ns3:atemp>38.0</ns3:atemp>
            <ns3:hr>91</ns3:hr>
          </ns3:TrackPointExtension>
        </extensions>
      </trkpt>
      <trkpt lat="36.7946594394743442535400390625" lon="-118.57924005948007106781005859375">
        <ele>1555.199951171875</ele>
        <time>2021-06-28T19:54:26.000Z</time>
        <extensions>
          <ns3:TrackPointExtension>
            <ns3:atemp>38.0</ns3:atemp>
            <ns3:hr>90</ns3:hr>
          </ns3:TrackPointExtension>
        </extensions>
      </trkpt>
      <trkpt lat="36.7945940606296062469482421875" lon="-118.57942479662597179412841796875">
        <ele>1554.800048828125</ele>
        <time>2021-06-28T19:54:36.000Z</time>
        <extensions>
          <ns3:TrackPointExtension>
            <ns3:atemp>38.0</ns3:atemp>
            <ns3:hr>92</ns3:hr>
          </ns3:TrackPointExtension>
        </extensions>
      </trkpt>
      <trkpt lat="36.7945836670696735382080078125" lon="-118.579436950385570526123046875">
        <ele>1554.4000244140625</ele>
        <time>2021-06-28T19:54:37.000Z</time>
        <extensions>
          <ns3:TrackPointExtension>
            <ns3:atemp>38.0</ns3:atemp>
            <ns3:hr>91</ns3:hr>
          </ns3:TrackPointExtension>
        </extensions>
      </trkpt>
      <trkpt lat="36.79456531070172786712646484375" lon="-118.579456396400928497314453125">
        <ele>1554</ele>
        <time>2021-06-28T19:54:39.000Z</time>
        <extensions>
          <ns3:TrackPointExtension>
            <ns3:atemp>38.0</ns3:atemp>
            <ns3:hr>91</ns3:hr>
          </ns3:TrackPointExtension>
        </extensions>
      </trkpt>
      <trkpt lat="36.79456179030239582061767578125" lon="-118.57947106473147869110107421875">
        <ele>1554</ele>
        <time>2021-06-28T19:54:40.000Z</time>
        <extensions>
          <ns3:TrackPointExtension>
            <ns3:atemp>38.0</ns3:atemp>
            <ns3:hr>94</ns3:hr>
          </ns3:TrackPointExtension>
        </extensions>
      </trkpt>
      <trkpt lat="36.7945474572479724884033203125" lon="-118.57949218712747097015380859375">
        <ele>1553.800048828125</ele>
        <time>2021-06-28T19:54:42.000Z</time>
        <extensions>
          <ns3:TrackPointExtension>
            <ns3:atemp>38.0</ns3:atemp>
            <ns3:hr>91</ns3:hr>
          </ns3:TrackPointExtension>
        </extensions>
      </trkpt>
      <trkpt lat="36.7945340462028980255126953125" lon="-118.57950174249708652496337890625">
        <ele>1553.5999755859375</ele>
        <time>2021-06-28T19:54:43.000Z</time>
        <extensions>
          <ns3:TrackPointExtension>
            <ns3:atemp>38.0</ns3:atemp>
            <ns3:hr>91</ns3:hr>
          </ns3:TrackPointExtension>
        </extensions>
      </trkpt>
      <trkpt lat="36.79452910088002681732177734375" lon="-118.579616658389568328857421875">
        <ele>1554.4000244140625</ele>
        <time>2021-06-28T19:54:49.000Z</time>
        <extensions>
          <ns3:TrackPointExtension>
            <ns3:atemp>38.0</ns3:atemp>
            <ns3:hr>88</ns3:hr>
          </ns3:TrackPointExtension>
        </extensions>
      </trkpt>
      <trkpt lat="36.7945320345461368560791015625" lon="-118.579646833240985870361328125">
        <ele>1554.4000244140625</ele>
        <time>2021-06-28T19:54:50.000Z</time>
        <extensions>
          <ns3:TrackPointExtension>
            <ns3:atemp>38.0</ns3:atemp>
            <ns3:hr>89</ns3:hr>
          </ns3:TrackPointExtension>
        </extensions>
      </trkpt>
      <trkpt lat="36.79454251192510128021240234375" lon="-118.57981137000024318695068359375">
        <ele>1554.800048828125</ele>
        <time>2021-06-28T19:54:59.000Z</time>
        <extensions>
          <ns3:TrackPointExtension>
            <ns3:atemp>38.0</ns3:atemp>
            <ns3:hr>88</ns3:hr>
          </ns3:TrackPointExtension>
        </extensions>
      </trkpt>
      <trkpt lat="36.79454150609672069549560546875" lon="-118.57990264892578125">
        <ele>1554.800048828125</ele>
        <time>2021-06-28T19:55:04.000Z</time>
        <extensions>
          <ns3:TrackPointExtension>
            <ns3:atemp>38.0</ns3:atemp>
            <ns3:hr>84</ns3:hr>
          </ns3:TrackPointExtension>
        </extensions>
      </trkpt>
      <trkpt lat="36.79453991353511810302734375" lon="-118.5799484141170978546142578125">
        <ele>1554.5999755859375</ele>
        <time>2021-06-28T19:55:07.000Z</time>
        <extensions>
          <ns3:TrackPointExtension>
            <ns3:atemp>38.0</ns3:atemp>
            <ns3:hr>85</ns3:hr>
          </ns3:TrackPointExtension>
        </extensions>
      </trkpt>
      <trkpt lat="36.7945078946650028228759765625" lon="-118.58007389120757579803466796875">
        <ele>1554.5999755859375</ele>
        <time>2021-06-28T19:55:15.000Z</time>
        <extensions>
          <ns3:TrackPointExtension>
            <ns3:atemp>38.0</ns3:atemp>
            <ns3:hr>86</ns3:hr>
          </ns3:TrackPointExtension>
        </extensions>
      </trkpt>
      <trkpt lat="36.79450102150440216064453125" lon="-118.58010582625865936279296875">
        <ele>1554.800048828125</ele>
        <time>2021-06-28T19:55:17.000Z</time>
        <extensions>
          <ns3:TrackPointExtension>
            <ns3:atemp>38.0</ns3:atemp>
            <ns3:hr>89</ns3:hr>
          </ns3:TrackPointExtension>
        </extensions>
      </trkpt>
      <trkpt lat="36.79448501206934452056884765625" lon="-118.5801217518746852874755859375">
        <ele>1554.800048828125</ele>
        <time>2021-06-28T19:55:21.000Z</time>
        <extensions>
          <ns3:TrackPointExtension>
            <ns3:atemp>38.0</ns3:atemp>
            <ns3:hr>89</ns3:hr>
          </ns3:TrackPointExtension>
        </extensions>
      </trkpt>
      <trkpt lat="36.79448786191642284393310546875" lon="-118.580130971968173980712890625">
        <ele>1554.800048828125</ele>
        <time>2021-06-28T19:55:22.000Z</time>
        <extensions>
          <ns3:TrackPointExtension>
            <ns3:atemp>38.0</ns3:atemp>
            <ns3:hr>86</ns3:hr>
          </ns3:TrackPointExtension>
        </extensions>
      </trkpt>
      <trkpt lat="36.79448568262159824371337890625" lon="-118.58014547266066074371337890625">
        <ele>1554.800048828125</ele>
        <time>2021-06-28T19:55:23.000Z</time>
        <extensions>
          <ns3:TrackPointExtension>
            <ns3:atemp>38.0</ns3:atemp>
            <ns3:hr>88</ns3:hr>
          </ns3:TrackPointExtension>
        </extensions>
      </trkpt>
      <trkpt lat="36.7944834195077419281005859375" lon="-118.58026097528636455535888671875">
        <ele>1555.199951171875</ele>
        <time>2021-06-28T19:55:28.000Z</time>
        <extensions>
          <ns3:TrackPointExtension>
            <ns3:atemp>38.0</ns3:atemp>
            <ns3:hr>92</ns3:hr>
          </ns3:TrackPointExtension>
        </extensions>
      </trkpt>
      <trkpt lat="36.794471852481365203857421875" lon="-118.58029886148869991302490234375">
        <ele>1555</ele>
        <time>2021-06-28T19:55:31.000Z</time>
        <extensions>
          <ns3:TrackPointExtension>
            <ns3:atemp>38.0</ns3:atemp>
            <ns3:hr>95</ns3:hr>
          </ns3:TrackPointExtension>
        </extensions>
      </trkpt>
      <trkpt lat="36.7944757081568241119384765625" lon="-118.5804570280015468597412109375">
        <ele>1554.800048828125</ele>
        <time>2021-06-28T19:55:40.000Z</time>
        <extensions>
          <ns3:TrackPointExtension>
            <ns3:atemp>38.0</ns3:atemp>
            <ns3:hr>94</ns3:hr>
          </ns3:TrackPointExtension>
        </extensions>
      </trkpt>
      <trkpt lat="36.79448367096483707427978515625" lon="-118.5805745422840118408203125">
        <ele>1554.800048828125</ele>
        <time>2021-06-28T19:55:49.000Z</time>
        <extensions>
          <ns3:TrackPointExtension>
            <ns3:atemp>38.0</ns3:atemp>
            <ns3:hr>91</ns3:hr>
          </ns3:TrackPointExtension>
        </extensions>
      </trkpt>
      <trkpt lat="36.79446078836917877197265625" lon="-118.58066397719085216522216796875">
        <ele>1554.4000244140625</ele>
        <time>2021-06-28T19:55:57.000Z</time>
        <extensions>
          <ns3:TrackPointExtension>
            <ns3:atemp>38.0</ns3:atemp>
            <ns3:hr>88</ns3:hr>
          </ns3:TrackPointExtension>
        </extensions>
      </trkpt>
      <trkpt lat="36.79444201290607452392578125" lon="-118.580722399055957794189453125">
        <ele>1554.4000244140625</ele>
        <time>2021-06-28T19:56:01.000Z</time>
        <extensions>
          <ns3:TrackPointExtension>
            <ns3:atemp>38.0</ns3:atemp>
            <ns3:hr>83</ns3:hr>
          </ns3:TrackPointExtension>
        </extensions>
      </trkpt>
      <trkpt lat="36.7944426834583282470703125" lon="-118.58075567521154880523681640625">
        <ele>1554.4000244140625</ele>
        <time>2021-06-28T19:56:03.000Z</time>
        <extensions>
          <ns3:TrackPointExtension>
            <ns3:atemp>38.0</ns3:atemp>
            <ns3:hr>82</ns3:hr>
          </ns3:TrackPointExtension>
        </extensions>
      </trkpt>
      <trkpt lat="36.7944482155144214630126953125" lon="-118.58077327720820903778076171875">
        <ele>1554.4000244140625</ele>
        <time>2021-06-28T19:56:04.000Z</time>
        <extensions>
          <ns3:TrackPointExtension>
            <ns3:atemp>38.0</ns3:atemp>
            <ns3:hr>82</ns3:hr>
          </ns3:TrackPointExtension>
        </extensions>
      </trkpt>
      <trkpt lat="36.794452406466007232666015625" lon="-118.5808186233043670654296875">
        <ele>1554.199951171875</ele>
        <time>2021-06-28T19:56:06.000Z</time>
        <extensions>
          <ns3:TrackPointExtension>
            <ns3:atemp>38.0</ns3:atemp>
            <ns3:hr>85</ns3:hr>
          </ns3:TrackPointExtension>
        </extensions>
      </trkpt>
      <trkpt lat="36.79445902816951274871826171875" lon="-118.580835051834583282470703125">
        <ele>1554.199951171875</ele>
        <time>2021-06-28T19:56:07.000Z</time>
        <extensions>
          <ns3:TrackPointExtension>
            <ns3:atemp>38.0</ns3:atemp>
            <ns3:hr>84</ns3:hr>
          </ns3:TrackPointExtension>
        </extensions>
      </trkpt>
      <trkpt lat="36.7944311164319515228271484375" lon="-118.580903112888336181640625">
        <ele>1554</ele>
        <time>2021-06-28T19:56:11.000Z</time>
        <extensions>
          <ns3:TrackPointExtension>
            <ns3:atemp>38.0</ns3:atemp>
            <ns3:hr>85</ns3:hr>
          </ns3:TrackPointExtension>
        </extensions>
      </trkpt>
      <trkpt lat="36.7944408394396305084228515625" lon="-118.5810481198132038116455078125">
        <ele>1555</ele>
        <time>2021-06-28T19:56:19.000Z</time>
        <extensions>
          <ns3:TrackPointExtension>
            <ns3:atemp>38.0</ns3:atemp>
            <ns3:hr>85</ns3:hr>
          </ns3:TrackPointExtension>
        </extensions>
      </trkpt>
      <trkpt lat="36.79444628767669200897216796875" lon="-118.581091202795505523681640625">
        <ele>1555.4000244140625</ele>
        <time>2021-06-28T19:56:22.000Z</time>
        <extensions>
          <ns3:TrackPointExtension>
            <ns3:atemp>38.0</ns3:atemp>
            <ns3:hr>86</ns3:hr>
          </ns3:TrackPointExtension>
        </extensions>
      </trkpt>
      <trkpt lat="36.79445810616016387939453125" lon="-118.58118566684424877166748046875">
        <ele>1555.800048828125</ele>
        <time>2021-06-28T19:56:28.000Z</time>
        <extensions>
          <ns3:TrackPointExtension>
            <ns3:atemp>38.0</ns3:atemp>
            <ns3:hr>84</ns3:hr>
          </ns3:TrackPointExtension>
        </extensions>
      </trkpt>
      <trkpt lat="36.79446036927402019500732421875" lon="-118.58119840733706951141357421875">
        <ele>1555.800048828125</ele>
        <time>2021-06-28T19:56:29.000Z</time>
        <extensions>
          <ns3:TrackPointExtension>
            <ns3:atemp>38.0</ns3:atemp>
            <ns3:hr>88</ns3:hr>
          </ns3:TrackPointExtension>
        </extensions>
      </trkpt>
      <trkpt lat="36.79447478614747524261474609375" lon="-118.5812392272055149078369140625">
        <ele>1556.199951171875</ele>
        <time>2021-06-28T19:56:32.000Z</time>
        <extensions>
          <ns3:TrackPointExtension>
            <ns3:atemp>38.0</ns3:atemp>
            <ns3:hr>91</ns3:hr>
          </ns3:TrackPointExtension>
        </extensions>
      </trkpt>
      <trkpt lat="36.7944827489554882049560546875" lon="-118.581268899142742156982421875">
        <ele>1556.4000244140625</ele>
        <time>2021-06-28T19:56:34.000Z</time>
        <extensions>
          <ns3:TrackPointExtension>
            <ns3:atemp>38.0</ns3:atemp>
            <ns3:hr>95</ns3:hr>
          </ns3:TrackPointExtension>
        </extensions>
      </trkpt>
      <trkpt lat="36.79448383860290050506591796875" lon="-118.58128842897713184356689453125">
        <ele>1556.4000244140625</ele>
        <time>2021-06-28T19:56:36.000Z</time>
        <extensions>
          <ns3:TrackPointExtension>
            <ns3:atemp>38.0</ns3:atemp>
            <ns3:hr>97</ns3:hr>
          </ns3:TrackPointExtension>
        </extensions>
      </trkpt>
      <trkpt lat="36.7944844253361225128173828125" lon="-118.58130167238414287567138671875">
        <ele>1556.4000244140625</ele>
        <time>2021-06-28T19:56:37.000Z</time>
        <extensions>
          <ns3:TrackPointExtension>
            <ns3:atemp>38.0</ns3:atemp>
            <ns3:hr>98</ns3:hr>
          </ns3:TrackPointExtension>
        </extensions>
      </trkpt>
      <trkpt lat="36.79448702372610569000244140625" lon="-118.5813336074352264404296875">
        <ele>1556.5999755859375</ele>
        <time>2021-06-28T19:56:39.000Z</time>
        <extensions>
          <ns3:TrackPointExtension>
            <ns3:atemp>38.0</ns3:atemp>
            <ns3:hr>99</ns3:hr>
          </ns3:TrackPointExtension>
        </extensions>
      </trkpt>
      <trkpt lat="36.794481575489044189453125" lon="-118.58138213865458965301513671875">
        <ele>1556.5999755859375</ele>
        <time>2021-06-28T19:56:43.000Z</time>
        <extensions>
          <ns3:TrackPointExtension>
            <ns3:atemp>38.0</ns3:atemp>
            <ns3:hr>100</ns3:hr>
          </ns3:TrackPointExtension>
        </extensions>
      </trkpt>
      <trkpt lat="36.79446690715849399566650390625" lon="-118.58140443451702594757080078125">
        <ele>1557</ele>
        <time>2021-06-28T19:56:45.000Z</time>
        <extensions>
          <ns3:TrackPointExtension>
            <ns3:atemp>38.0</ns3:atemp>
            <ns3:hr>100</ns3:hr>
          </ns3:TrackPointExtension>
        </extensions>
      </trkpt>
      <trkpt lat="36.79444997571408748626708984375" lon="-118.58145237900316715240478515625">
        <ele>1556.4000244140625</ele>
        <time>2021-06-28T19:56:49.000Z</time>
        <extensions>
          <ns3:TrackPointExtension>
            <ns3:atemp>38.0</ns3:atemp>
            <ns3:hr>102</ns3:hr>
          </ns3:TrackPointExtension>
        </extensions>
      </trkpt>
      <trkpt lat="36.7944415099918842315673828125" lon="-118.5815108008682727813720703125">
        <ele>1554.800048828125</ele>
        <time>2021-06-28T19:56:52.000Z</time>
        <extensions>
          <ns3:TrackPointExtension>
            <ns3:atemp>38.0</ns3:atemp>
            <ns3:hr>102</ns3:hr>
          </ns3:TrackPointExtension>
        </extensions>
      </trkpt>
      <trkpt lat="36.79442466236650943756103515625" lon="-118.58159235678613185882568359375">
        <ele>1554.5999755859375</ele>
        <time>2021-06-28T19:56:57.000Z</time>
        <extensions>
          <ns3:TrackPointExtension>
            <ns3:atemp>38.0</ns3:atemp>
            <ns3:hr>99</ns3:hr>
          </ns3:TrackPointExtension>
        </extensions>
      </trkpt>
      <trkpt lat="36.79441896267235279083251953125" lon="-118.58160057105123996734619140625">
        <ele>1554.5999755859375</ele>
        <time>2021-06-28T19:56:58.000Z</time>
        <extensions>
          <ns3:TrackPointExtension>
            <ns3:atemp>38.0</ns3:atemp>
            <ns3:hr>99</ns3:hr>
          </ns3:TrackPointExtension>
        </extensions>
      </trkpt>
      <trkpt lat="36.79444645531475543975830078125" lon="-118.5817133076488971710205078125">
        <ele>1555.5999755859375</ele>
        <time>2021-06-28T19:57:06.000Z</time>
        <extensions>
          <ns3:TrackPointExtension>
            <ns3:atemp>38.0</ns3:atemp>
            <ns3:hr>100</ns3:hr>
          </ns3:TrackPointExtension>
        </extensions>
      </trkpt>
      <trkpt lat="36.79448626935482025146484375" lon="-118.58185051940381526947021484375">
        <ele>1555.800048828125</ele>
        <time>2021-06-28T19:57:14.000Z</time>
        <extensions>
          <ns3:TrackPointExtension>
            <ns3:atemp>38.0</ns3:atemp>
            <ns3:hr>98</ns3:hr>
          </ns3:TrackPointExtension>
        </extensions>
      </trkpt>
      <trkpt lat="36.79451845586299896240234375" lon="-118.58191992156207561492919921875">
        <ele>1555.800048828125</ele>
        <time>2021-06-28T19:57:18.000Z</time>
        <extensions>
          <ns3:TrackPointExtension>
            <ns3:atemp>38.0</ns3:atemp>
            <ns3:hr>97</ns3:hr>
          </ns3:TrackPointExtension>
        </extensions>
      </trkpt>
      <trkpt lat="36.794540919363498687744140625" lon="-118.58196258544921875">
        <ele>1555.800048828125</ele>
        <time>2021-06-28T19:57:21.000Z</time>
        <extensions>
          <ns3:TrackPointExtension>
            <ns3:atemp>38.0</ns3:atemp>
            <ns3:hr>95</ns3:hr>
          </ns3:TrackPointExtension>
        </extensions>
      </trkpt>
      <trkpt lat="36.79456732235848903656005859375" lon="-118.58201312832534313201904296875">
        <ele>1555.800048828125</ele>
        <time>2021-06-28T19:57:24.000Z</time>
        <extensions>
          <ns3:TrackPointExtension>
            <ns3:atemp>38.0</ns3:atemp>
            <ns3:hr>98</ns3:hr>
          </ns3:TrackPointExtension>
        </extensions>
      </trkpt>
      <trkpt lat="36.794588528573513031005859375" lon="-118.58214153908193111419677734375">
        <ele>1555.199951171875</ele>
        <time>2021-06-28T19:57:32.000Z</time>
        <extensions>
          <ns3:TrackPointExtension>
            <ns3:atemp>38.0</ns3:atemp>
            <ns3:hr>97</ns3:hr>
          </ns3:TrackPointExtension>
        </extensions>
      </trkpt>
      <trkpt lat="36.79459297098219394683837890625" lon="-118.58217121101915836334228515625">
        <ele>1554.800048828125</ele>
        <time>2021-06-28T19:57:34.000Z</time>
        <extensions>
          <ns3:TrackPointExtension>
            <ns3:atemp>38.0</ns3:atemp>
            <ns3:hr>96</ns3:hr>
          </ns3:TrackPointExtension>
        </extensions>
      </trkpt>
      <trkpt lat="36.79460185579955577850341796875" lon="-118.5822075046598911285400390625">
        <ele>1554.800048828125</ele>
        <time>2021-06-28T19:57:37.000Z</time>
        <extensions>
          <ns3:TrackPointExtension>
            <ns3:atemp>38.0</ns3:atemp>
            <ns3:hr>93</ns3:hr>
          </ns3:TrackPointExtension>
        </extensions>
      </trkpt>
      <trkpt lat="36.79461493156850337982177734375" lon="-118.58225150965154170989990234375">
        <ele>1554.800048828125</ele>
        <time>2021-06-28T19:57:40.000Z</time>
        <extensions>
          <ns3:TrackPointExtension>
            <ns3:atemp>38.0</ns3:atemp>
            <ns3:hr>91</ns3:hr>
          </ns3:TrackPointExtension>
        </extensions>
      </trkpt>
      <trkpt lat="36.79460789076983928680419921875" lon="-118.5823828540742397308349609375">
        <ele>1554.4000244140625</ele>
        <time>2021-06-28T19:57:48.000Z</time>
        <extensions>
          <ns3:TrackPointExtension>
            <ns3:atemp>38.0</ns3:atemp>
            <ns3:hr>90</ns3:hr>
          </ns3:TrackPointExtension>
        </extensions>
      </trkpt>
      <trkpt lat="36.794609986245632171630859375" lon="-118.5824686847627162933349609375">
        <ele>1554.5999755859375</ele>
        <time>2021-06-28T19:57:54.000Z</time>
        <extensions>
          <ns3:TrackPointExtension>
            <ns3:atemp>38.0</ns3:atemp>
            <ns3:hr>87</ns3:hr>
          </ns3:TrackPointExtension>
        </extensions>
      </trkpt>
      <trkpt lat="36.7946128360927104949951171875" lon="-118.582479916512966156005859375">
        <ele>1554.5999755859375</ele>
        <time>2021-06-28T19:57:55.000Z</time>
        <extensions>
          <ns3:TrackPointExtension>
            <ns3:atemp>38.0</ns3:atemp>
            <ns3:hr>86</ns3:hr>
          </ns3:TrackPointExtension>
        </extensions>
      </trkpt>
      <trkpt lat="36.794613339006900787353515625" lon="-118.58249441720545291900634765625">
        <ele>1554.5999755859375</ele>
        <time>2021-06-28T19:57:59.000Z</time>
        <extensions>
          <ns3:TrackPointExtension>
            <ns3:atemp>38.0</ns3:atemp>
            <ns3:hr>84</ns3:hr>
          </ns3:TrackPointExtension>
        </extensions>
      </trkpt>
      <trkpt lat="36.79461233317852020263671875" lon="-118.58248352073132991790771484375">
        <ele>1554.5999755859375</ele>
        <time>2021-06-28T19:58:00.000Z</time>
        <extensions>
          <ns3:TrackPointExtension>
            <ns3:atemp>38.0</ns3:atemp>
            <ns3:hr>85</ns3:hr>
          </ns3:TrackPointExtension>
        </extensions>
      </trkpt>
      <trkpt lat="36.79464192129671573638916015625" lon="-118.58247044496238231658935546875">
        <ele>1554.5999755859375</ele>
        <time>2021-06-28T19:58:03.000Z</time>
        <extensions>
          <ns3:TrackPointExtension>
            <ns3:atemp>38.0</ns3:atemp>
            <ns3:hr>86</ns3:hr>
          </ns3:TrackPointExtension>
        </extensions>
      </trkpt>
      <trkpt lat="36.794669330120086669921875" lon="-118.5824428685009479522705078125">
        <ele>1554.4000244140625</ele>
        <time>2021-06-28T19:58:06.000Z</time>
        <extensions>
          <ns3:TrackPointExtension>
            <ns3:atemp>38.0</ns3:atemp>
            <ns3:hr>86</ns3:hr>
          </ns3:TrackPointExtension>
        </extensions>
      </trkpt>
      <trkpt lat="36.79468609392642974853515625" lon="-118.58245150186121463775634765625">
        <ele>1554.4000244140625</ele>
        <time>2021-06-28T19:58:30.000Z</time>
        <extensions>
          <ns3:TrackPointExtension>
            <ns3:atemp>38.0</ns3:atemp>
            <ns3:hr>89</ns3:hr>
          </ns3:TrackPointExtension>
        </extensions>
      </trkpt>
      <trkpt lat="36.79469489492475986480712890625" lon="-118.5824566148221492767333984375">
        <ele>1554.4000244140625</ele>
        <time>2021-06-28T19:58:39.000Z</time>
        <extensions>
          <ns3:TrackPointExtension>
            <ns3:atemp>38.0</ns3:atemp>
            <ns3:hr>92</ns3:hr>
          </ns3:TrackPointExtension>
        </extensions>
      </trkpt>
      <trkpt lat="36.7946986667811870574951171875" lon="-118.582546971738338470458984375">
        <ele>1553.800048828125</ele>
        <time>2021-06-28T19:58:54.000Z</time>
        <extensions>
          <ns3:TrackPointExtension>
            <ns3:atemp>38.0</ns3:atemp>
            <ns3:hr>89</ns3:hr>
          </ns3:TrackPointExtension>
        </extensions>
      </trkpt>
      <trkpt lat="36.79469204507768154144287109375" lon="-118.58258955180644989013671875">
        <ele>1553.5999755859375</ele>
        <time>2021-06-28T19:58:56.000Z</time>
        <extensions>
          <ns3:TrackPointExtension>
            <ns3:atemp>38.0</ns3:atemp>
            <ns3:hr>88</ns3:hr>
          </ns3:TrackPointExtension>
        </extensions>
      </trkpt>
      <trkpt lat="36.79467444308102130889892578125" lon="-118.582660295069217681884765625">
        <ele>1553.199951171875</ele>
        <time>2021-06-28T19:58:59.000Z</time>
        <extensions>
          <ns3:TrackPointExtension>
            <ns3:atemp>38.0</ns3:atemp>
            <ns3:hr>85</ns3:hr>
          </ns3:TrackPointExtension>
        </extensions>
      </trkpt>
      <trkpt lat="36.794673018157482147216796875" lon="-118.58269876800477504730224609375">
        <ele>1553.199951171875</ele>
        <time>2021-06-28T19:59:01.000Z</time>
        <extensions>
          <ns3:TrackPointExtension>
            <ns3:atemp>38.0</ns3:atemp>
            <ns3:hr>82</ns3:hr>
          </ns3:TrackPointExtension>
        </extensions>
      </trkpt>
      <trkpt lat="36.79467628709971904754638671875" lon="-118.5827265121042728424072265625">
        <ele>1553</ele>
        <time>2021-06-28T19:59:03.000Z</time>
        <extensions>
          <ns3:TrackPointExtension>
            <ns3:atemp>38.0</ns3:atemp>
            <ns3:hr>80</ns3:hr>
          </ns3:TrackPointExtension>
        </extensions>
      </trkpt>
      <trkpt lat="36.79462197236716747283935546875" lon="-118.58285701833665370941162109375">
        <ele>1552.800048828125</ele>
        <time>2021-06-28T19:59:11.000Z</time>
        <extensions>
          <ns3:TrackPointExtension>
            <ns3:atemp>38.0</ns3:atemp>
            <ns3:hr>79</ns3:hr>
          </ns3:TrackPointExtension>
        </extensions>
      </trkpt>
      <trkpt lat="36.79461493156850337982177734375" lon="-118.58287118375301361083984375">
        <ele>1552.800048828125</ele>
        <time>2021-06-28T19:59:12.000Z</time>
        <extensions>
          <ns3:TrackPointExtension>
            <ns3:atemp>38.0</ns3:atemp>
            <ns3:hr>80</ns3:hr>
          </ns3:TrackPointExtension>
        </extensions>
      </trkpt>
      <trkpt lat="36.7945950664579868316650390625" lon="-118.5829357244074344635009765625">
        <ele>1552.800048828125</ele>
        <time>2021-06-28T19:59:17.000Z</time>
        <extensions>
          <ns3:TrackPointExtension>
            <ns3:atemp>38.0</ns3:atemp>
            <ns3:hr>80</ns3:hr>
          </ns3:TrackPointExtension>
        </extensions>
      </trkpt>
      <trkpt lat="36.79458207450807094573974609375" lon="-118.5829491354525089263916015625">
        <ele>1552.800048828125</ele>
        <time>2021-06-28T19:59:19.000Z</time>
        <extensions>
          <ns3:TrackPointExtension>
            <ns3:atemp>38.0</ns3:atemp>
            <ns3:hr>78</ns3:hr>
          </ns3:TrackPointExtension>
        </extensions>
      </trkpt>
      <trkpt lat="36.79454016499221324920654296875" lon="-118.5829296894371509552001953125">
        <ele>1552.4000244140625</ele>
        <time>2021-06-28T19:59:25.000Z</time>
        <extensions>
          <ns3:TrackPointExtension>
            <ns3:atemp>38.0</ns3:atemp>
            <ns3:hr>82</ns3:hr>
          </ns3:TrackPointExtension>
        </extensions>
      </trkpt>
      <trkpt lat="36.79452918469905853271484375" lon="-118.5829348862171173095703125">
        <ele>1552.4000244140625</ele>
        <time>2021-06-28T19:59:26.000Z</time>
        <extensions>
          <ns3:TrackPointExtension>
            <ns3:atemp>38.0</ns3:atemp>
            <ns3:hr>84</ns3:hr>
          </ns3:TrackPointExtension>
        </extensions>
      </trkpt>
      <trkpt lat="36.79450177587568759918212890625" lon="-118.582946956157684326171875">
        <ele>1552.4000244140625</ele>
        <time>2021-06-28T19:59:29.000Z</time>
        <extensions>
          <ns3:TrackPointExtension>
            <ns3:atemp>38.0</ns3:atemp>
            <ns3:hr>84</ns3:hr>
          </ns3:TrackPointExtension>
        </extensions>
      </trkpt>
      <trkpt lat="36.79441711865365505218505859375" lon="-118.5829509794712066650390625">
        <ele>1552</ele>
        <time>2021-06-28T19:59:38.000Z</time>
        <extensions>
          <ns3:TrackPointExtension>
            <ns3:atemp>38.0</ns3:atemp>
            <ns3:hr>84</ns3:hr>
          </ns3:TrackPointExtension>
        </extensions>
      </trkpt>
    </trkseg>
  </trk>
</gpx>
